<?xml version='1.0' encoding='UTF-8'?><gpx version="1.1" creator="JPX - https://github.com/jenetics/jpx" xmlns="http://www.topografix.com/GPX/1/1"><trk><trkseg><trkpt lat="15.612833440245788" lon="120.58301178453532"><ele>28.999999999999996</ele><time>2026-03-29T07:42:36Z</time></trkpt><trkpt lat="15.612824447203826" lon="120.5829446423806"><ele>29.0</ele><time>2026-03-29T07:42:52Z</time></trkpt><trkpt lat="15.612868119135802" lon="120.58289217972957"><ele>29.0</ele><time>2026-03-29T07:43:09Z</time></trkpt><trkpt lat="15.612930262731771" lon="120.58286638430224"><ele>29.0</ele><time>2026-03-29T07:43:15Z</time></trkpt><trkpt lat="15.612998867537913" lon="120.5828247684702"><ele>28.999999999999996</ele><time>2026-03-29T07:43:19Z</time></trkpt><trkpt lat="15.613071897003213" lon="120.58276347391282"><ele>29.0</ele><time>2026-03-29T07:43:21Z</time></trkpt><trkpt lat="15.613146358347723" lon="120.58269560557513"><ele>29.499999999999996</ele><time>2026-03-29T07:43:23Z</time></trkpt><trkpt lat="15.613209530988039" lon="120.58263454873989"><ele>30.0</ele><time>2026-03-29T07:43:25Z</time></trkpt><trkpt lat="15.613264966068725" lon="120.58258282344575"><ele>30.5</ele><time>2026-03-29T07:43:27Z</time></trkpt><trkpt lat="15.613341469906015" lon="120.58254773505926"><ele>31.0</ele><time>2026-03-29T07:43:30Z</time></trkpt><trkpt lat="15.613252667221559" lon="120.58256998475564"><ele>31.499999999999996</ele><time>2026-03-29T07:43:43Z</time></trkpt><trkpt lat="15.61318296363028" lon="120.58264471951249"><ele>32.0</ele><time>2026-03-29T07:43:45Z</time></trkpt><trkpt lat="15.61310043391873" lon="120.58272163159982"><ele>31.999999999999996</ele><time>2026-03-29T07:43:47Z</time></trkpt><trkpt lat="15.61300927588098" lon="120.58280379118783"><ele>32.0</ele><time>2026-03-29T07:43:49Z</time></trkpt><trkpt lat="15.612955376195185" lon="120.58284072588096"><ele>32.0</ele><time>2026-03-29T07:43:50Z</time></trkpt><trkpt lat="15.612891291295682" lon="120.58287531965316"><ele>32.0</ele><time>2026-03-29T07:43:51Z</time></trkpt><trkpt lat="15.612817962862177" lon="120.58290115082137"><ele>31.999999999999996</ele><time>2026-03-29T07:43:52Z</time></trkpt><trkpt lat="15.612742240731253" lon="120.5829232077704"><ele>32.0</ele><time>2026-03-29T07:43:53Z</time></trkpt><trkpt lat="15.612663273677494" lon="120.58294311218746"><ele>31.833333333333332</ele><time>2026-03-29T07:43:54Z</time></trkpt><trkpt lat="15.612581610890418" lon="120.58296337483456"><ele>31.666666666666664</ele><time>2026-03-29T07:43:55Z</time></trkpt><trkpt lat="15.61249787434741" lon="120.58298130973849"><ele>31.5</ele><time>2026-03-29T07:43:56Z</time></trkpt><trkpt lat="15.612412334518144" lon="120.58300129982935"><ele>31.333333333333336</ele><time>2026-03-29T07:43:56.999Z</time></trkpt><trkpt lat="15.612328044282547" lon="120.58302393403065"><ele>31.166666666666668</ele><time>2026-03-29T07:43:57.999Z</time></trkpt><trkpt lat="15.61224751223365" lon="120.58304851918746"><ele>31.0</ele><time>2026-03-29T07:43:58.999Z</time></trkpt><trkpt lat="15.612166657762554" lon="120.5830759585674"><ele>31.0</ele><time>2026-03-29T07:43:59.999Z</time></trkpt><trkpt lat="15.61208404138386" lon="120.58310434365296"><ele>31.0</ele><time>2026-03-29T07:44:00.999Z</time></trkpt><trkpt lat="15.611997067353593" lon="120.58313160524546"><ele>31.0</ele><time>2026-03-29T07:44:01.999Z</time></trkpt><trkpt lat="15.611908126113835" lon="120.5831590448288"><ele>31.0</ele><time>2026-03-29T07:44:02.999Z</time></trkpt><trkpt lat="15.611815199740052" lon="120.58318826482322"><ele>31.0</ele><time>2026-03-29T07:44:03.999Z</time></trkpt><trkpt lat="15.61171941182114" lon="120.58321885587394"><ele>30.6</ele><time>2026-03-29T07:44:04.999Z</time></trkpt><trkpt lat="15.611622341566212" lon="120.58325143558082"><ele>30.200000000000003</ele><time>2026-03-29T07:44:05.999Z</time></trkpt><trkpt lat="15.61152492675364" lon="120.5832808548298"><ele>29.799999999999997</ele><time>2026-03-29T07:44:06.999Z</time></trkpt><trkpt lat="15.611430228541748" lon="120.58330965393871"><ele>29.4</ele><time>2026-03-29T07:44:07.999Z</time></trkpt><trkpt lat="15.611341675444159" lon="120.5833372952588"><ele>29.0</ele><time>2026-03-29T07:44:08.999Z</time></trkpt><trkpt lat="15.611261853622135" lon="120.58336168850458"><ele>29.0</ele><time>2026-03-29T07:44:09.999Z</time></trkpt><trkpt lat="15.611191508467789" lon="120.58338316315238"><ele>29.0</ele><time>2026-03-29T07:44:11Z</time></trkpt><trkpt lat="15.611078531750373" lon="120.58341879469508"><ele>29.0</ele><time>2026-03-29T07:44:13Z</time></trkpt><trkpt lat="15.610982125150777" lon="120.58344866245713"><ele>29.0</ele><time>2026-03-29T07:44:15Z</time></trkpt><trkpt lat="15.610877529973813" lon="120.58348892530275"><ele>29.0</ele><time>2026-03-29T07:44:17Z</time></trkpt><trkpt lat="15.610817409975093" lon="120.58351036043956"><ele>29.285714285714292</ele><time>2026-03-29T07:44:18Z</time></trkpt><trkpt lat="15.610753922934926" lon="120.58353019649739"><ele>29.571428571428573</ele><time>2026-03-29T07:44:19Z</time></trkpt><trkpt lat="15.610688762099748" lon="120.58354837910811"><ele>29.85714285714286</ele><time>2026-03-29T07:44:20Z</time></trkpt><trkpt lat="15.6106207283206" lon="120.58356563324236"><ele>30.142857142857146</ele><time>2026-03-29T07:44:21Z</time></trkpt><trkpt lat="15.610551667253311" lon="120.5835828569902"><ele>30.42857142857143</ele><time>2026-03-29T07:44:22Z</time></trkpt><trkpt lat="15.61048361380183" lon="120.58360063917031"><ele>30.714285714285715</ele><time>2026-03-29T07:44:23Z</time></trkpt><trkpt lat="15.610417039674996" lon="120.58361848238154"><ele>31.0</ele><time>2026-03-29T07:44:24Z</time></trkpt><trkpt lat="15.610348681602284" lon="120.5836346634407"><ele>31.0</ele><time>2026-03-29T07:44:25Z</time></trkpt><trkpt lat="15.610280508954347" lon="120.58364874259846"><ele>31.000000000000004</ele><time>2026-03-29T07:44:26Z</time></trkpt><trkpt lat="15.610215477070144" lon="120.58366538785093"><ele>31.0</ele><time>2026-03-29T07:44:27Z</time></trkpt><trkpt lat="15.610148920926392" lon="120.58368620140666"><ele>31.0</ele><time>2026-03-29T07:44:28Z</time></trkpt><trkpt lat="15.61008336040448" lon="120.58370866671511"><ele>31.000000000000004</ele><time>2026-03-29T07:44:29Z</time></trkpt><trkpt lat="15.61002086808379" lon="120.58373675249511"><ele>31.0</ele><time>2026-03-29T07:44:30Z</time></trkpt><trkpt lat="15.609961393105873" lon="120.58377519040828"><ele>31.0</ele><time>2026-03-29T07:44:31Z</time></trkpt><trkpt lat="15.609904300737746" lon="120.58381983483214"><ele>31.142857142857146</ele><time>2026-03-29T07:44:32Z</time></trkpt><trkpt lat="15.60984900455556" lon="120.58386682703087"><ele>31.28571428571429</ele><time>2026-03-29T07:44:33Z</time></trkpt><trkpt lat="15.609795137982731" lon="120.58391522435899"><ele>31.42857142857143</ele><time>2026-03-29T07:44:34Z</time></trkpt><trkpt lat="15.6097430343275" lon="120.58396401032128"><ele>31.57142857142857</ele><time>2026-03-29T07:44:35Z</time></trkpt><trkpt lat="15.609692482593916" lon="120.58401170818446"><ele>31.71428571428571</ele><time>2026-03-29T07:44:36Z</time></trkpt><trkpt lat="15.609642668090176" lon="120.58405868384831"><ele>31.857142857142854</ele><time>2026-03-29T07:44:37Z</time></trkpt><trkpt lat="15.609595230153031" lon="120.58410405142975"><ele>32.0</ele><time>2026-03-29T07:44:38Z</time></trkpt><trkpt lat="15.609519497068268" lon="120.58417522045121"><ele>31.999999999999996</ele><time>2026-03-29T07:44:40Z</time></trkpt><trkpt lat="15.60947115639832" lon="120.58421714986048"><ele>32.0</ele><time>2026-03-29T07:44:45Z</time></trkpt><trkpt lat="15.609441121457495" lon="120.58428574713561"><ele>32.0</ele><time>2026-03-29T07:44:50Z</time></trkpt><trkpt lat="15.609468740187822" lon="120.5844088373328"><ele>32.0</ele><time>2026-03-29T07:44:54Z</time></trkpt><trkpt lat="15.609491271652285" lon="120.58449329780298"><ele>31.999999999999996</ele><time>2026-03-29T07:44:56Z</time></trkpt><trkpt lat="15.60951584367296" lon="120.5845942073336"><ele>32.0</ele><time>2026-03-29T07:44:58Z</time></trkpt><trkpt lat="15.60954672958391" lon="120.58470452344929"><ele>31.999999999999996</ele><time>2026-03-29T07:45:00Z</time></trkpt><trkpt lat="15.609578519672677" lon="120.5848249217872"><ele>32.0</ele><time>2026-03-29T07:45:02Z</time></trkpt><trkpt lat="15.609595309273187" lon="120.58488839883914"><ele>32.0</ele><time>2026-03-29T07:45:03Z</time></trkpt><trkpt lat="15.609612726413904" lon="120.58495439159735"><ele>32.0</ele><time>2026-03-29T07:45:04Z</time></trkpt><trkpt lat="15.60963030080592" lon="120.58501950210679"><ele>31.999999999999996</ele><time>2026-03-29T07:45:05Z</time></trkpt><trkpt lat="15.609662412679825" lon="120.58514387356213"><ele>32.0</ele><time>2026-03-29T07:45:07Z</time></trkpt><trkpt lat="15.609688085352396" lon="120.58525812402925"><ele>31.75</ele><time>2026-03-29T07:45:09Z</time></trkpt><trkpt lat="15.609712813389258" lon="120.58536868690764"><ele>31.5</ele><time>2026-03-29T07:45:11Z</time></trkpt><trkpt lat="15.60973468965453" lon="120.58547950982843"><ele>31.25</ele><time>2026-03-29T07:45:13Z</time></trkpt><trkpt lat="15.609765269169724" lon="120.58559416018598"><ele>31.0</ele><time>2026-03-29T07:45:15Z</time></trkpt><trkpt lat="15.609795194932707" lon="120.58571768617482"><ele>31.0</ele><time>2026-03-29T07:45:17Z</time></trkpt><trkpt lat="15.609825958956154" lon="120.5858433031828"><ele>31.0</ele><time>2026-03-29T07:45:19Z</time></trkpt><trkpt lat="15.609855113931335" lon="120.58596650398788"><ele>31.0</ele><time>2026-03-29T07:45:21Z</time></trkpt><trkpt lat="15.60988163556334" lon="120.58607799389931"><ele>31.0</ele><time>2026-03-29T07:45:23Z</time></trkpt><trkpt lat="15.609906262240683" lon="120.58618454702744"><ele>30.8</ele><time>2026-03-29T07:45:25Z</time></trkpt><trkpt lat="15.60993420620416" lon="120.58629658996553"><ele>30.6</ele><time>2026-03-29T07:45:27Z</time></trkpt><trkpt lat="15.60996184617476" lon="120.58642824616639"><ele>30.4</ele><time>2026-03-29T07:45:29Z</time></trkpt><trkpt lat="15.609972592103084" lon="120.58650058822583"><ele>30.2</ele><time>2026-03-29T07:45:30Z</time></trkpt><trkpt lat="15.60998136287062" lon="120.5865759912076"><ele>30.0</ele><time>2026-03-29T07:45:31Z</time></trkpt><trkpt lat="15.60998622659903" lon="120.5866538192474"><ele>30.0</ele><time>2026-03-29T07:45:32Z</time></trkpt><trkpt lat="15.609989612226956" lon="120.58673161401774"><ele>30.0</ele><time>2026-03-29T07:45:33Z</time></trkpt><trkpt lat="15.609993568393048" lon="120.58680599565666"><ele>30.0</ele><time>2026-03-29T07:45:34Z</time></trkpt><trkpt lat="15.609995528939645" lon="120.5869269839478"><ele>30.0</ele><time>2026-03-29T07:45:36Z</time></trkpt><trkpt lat="15.60999810503687" lon="120.58703246608779"><ele>30.0</ele><time>2026-03-29T07:45:38Z</time></trkpt><trkpt lat="15.610008868765098" lon="120.58713896427312"><ele>30.0</ele><time>2026-03-29T07:45:40Z</time></trkpt><trkpt lat="15.610021900718406" lon="120.58726443590166"><ele>30.0</ele><time>2026-03-29T07:45:42Z</time></trkpt><trkpt lat="15.610026416124729" lon="120.58733285539996"><ele>30.0</ele><time>2026-03-29T07:45:43Z</time></trkpt><trkpt lat="15.610030509737904" lon="120.5874022492911"><ele>30.0</ele><time>2026-03-29T07:45:44Z</time></trkpt><trkpt lat="15.610037226546657" lon="120.5874692389701"><ele>30.0</ele><time>2026-03-29T07:45:45Z</time></trkpt><trkpt lat="15.610071489694448" lon="120.58759167383946"><ele>30.0</ele><time>2026-03-29T07:45:47Z</time></trkpt><trkpt lat="15.61011852547598" lon="120.58770077910047"><ele>30.0</ele><time>2026-03-29T07:45:49Z</time></trkpt><trkpt lat="15.610166285021286" lon="120.58780877036962"><ele>30.0</ele><time>2026-03-29T07:45:51Z</time></trkpt><trkpt lat="15.61020052763741" lon="120.58792589801767"><ele>30.0</ele><time>2026-03-29T07:45:53Z</time></trkpt><trkpt lat="15.610221918286276" lon="120.5880251980044"><ele>30.0</ele><time>2026-03-29T07:45:55Z</time></trkpt><trkpt lat="15.61024215289252" lon="120.5881038875173"><ele>30.0</ele><time>2026-03-29T07:45:57Z</time></trkpt><trkpt lat="15.61026360591301" lon="120.58818372325207"><ele>29.833333333333332</ele><time>2026-03-29T07:45:59Z</time></trkpt><trkpt lat="15.610277234419247" lon="120.5882557691383"><ele>29.666666666666664</ele><time>2026-03-29T07:46:01Z</time></trkpt><trkpt lat="15.610284596530386" lon="120.58832160514002"><ele>29.5</ele><time>2026-03-29T07:46:02.999Z</time></trkpt><trkpt lat="15.610277302110099" lon="120.58841695715142"><ele>29.333333333333332</ele><time>2026-03-29T07:46:04.999Z</time></trkpt><trkpt lat="15.610253643364317" lon="120.58854920502596"><ele>29.166666666666664</ele><time>2026-03-29T07:46:06.999Z</time></trkpt><trkpt lat="15.610234858465724" lon="120.58862692516533"><ele>29.0</ele><time>2026-03-29T07:46:07.999Z</time></trkpt><trkpt lat="15.610209110698467" lon="120.58870863211773"><ele>28.799999999999997</ele><time>2026-03-29T07:46:08.999Z</time></trkpt><trkpt lat="15.610176189698779" lon="120.5887940394963"><ele>28.599999999999998</ele><time>2026-03-29T07:46:09.999Z</time></trkpt><trkpt lat="15.61013828928819" lon="120.58888140333595"><ele>28.4</ele><time>2026-03-29T07:46:10.999Z</time></trkpt><trkpt lat="15.610098983788397" lon="120.5889723038225"><ele>28.2</ele><time>2026-03-29T07:46:11.999Z</time></trkpt><trkpt lat="15.610057736928379" lon="120.58906437073789"><ele>28.0</ele><time>2026-03-29T07:46:12.999Z</time></trkpt><trkpt lat="15.610015575913065" lon="120.58915785187679"><ele>28.0</ele><time>2026-03-29T07:46:13.999Z</time></trkpt><trkpt lat="15.60997219186103" lon="120.58925194883545"><ele>27.999999999999996</ele><time>2026-03-29T07:46:14.999Z</time></trkpt><trkpt lat="15.60992883437523" lon="120.58934795761998"><ele>27.999999999999996</ele><time>2026-03-29T07:46:15.999Z</time></trkpt><trkpt lat="15.60988413686275" lon="120.5894453712134"><ele>28.0</ele><time>2026-03-29T07:46:16.999Z</time></trkpt><trkpt lat="15.609837930948851" lon="120.58954500414023"><ele>28.0</ele><time>2026-03-29T07:46:17.999Z</time></trkpt><trkpt lat="15.6097914582166" lon="120.58964677362144"><ele>28.2</ele><time>2026-03-29T07:46:18.999Z</time></trkpt><trkpt lat="15.609744286888693" lon="120.58975117905733"><ele>28.4</ele><time>2026-03-29T07:46:19.999Z</time></trkpt><trkpt lat="15.60969740044367" lon="120.58985373153641"><ele>28.599999999999998</ele><time>2026-03-29T07:46:20.999Z</time></trkpt><trkpt lat="15.60965210982964" lon="120.58995409414766"><ele>28.799999999999997</ele><time>2026-03-29T07:46:21.999Z</time></trkpt><trkpt lat="15.609607244944621" lon="120.59005189832493"><ele>29.0</ele><time>2026-03-29T07:46:22.999Z</time></trkpt><trkpt lat="15.609562602021622" lon="120.59014726140664"><ele>29.0</ele><time>2026-03-29T07:46:23.999Z</time></trkpt><trkpt lat="15.609519962497558" lon="120.59024132091419"><ele>29.0</ele><time>2026-03-29T07:46:24.999Z</time></trkpt><trkpt lat="15.60947819612872" lon="120.59033263911108"><ele>29.0</ele><time>2026-03-29T07:46:26Z</time></trkpt><trkpt lat="15.60943580575391" lon="120.5904211680916"><ele>29.0</ele><time>2026-03-29T07:46:27Z</time></trkpt><trkpt lat="15.609391993003157" lon="120.59050975001063"><ele>29.0</ele><time>2026-03-29T07:46:28Z</time></trkpt><trkpt lat="15.609345287686388" lon="120.59059754630682"><ele>29.4</ele><time>2026-03-29T07:46:29Z</time></trkpt><trkpt lat="15.609292131644379" lon="120.59068313669594"><ele>29.799999999999997</ele><time>2026-03-29T07:46:30Z</time></trkpt><trkpt lat="15.609234067301639" lon="120.590767023336"><ele>30.200000000000003</ele><time>2026-03-29T07:46:31Z</time></trkpt><trkpt lat="15.60917314847525" lon="120.59084972418337"><ele>30.6</ele><time>2026-03-29T07:46:32Z</time></trkpt><trkpt lat="15.609111376002511" lon="120.59093636304466"><ele>31.0</ele><time>2026-03-29T07:46:33Z</time></trkpt><trkpt lat="15.609050344752506" lon="120.59102261280442"><ele>31.0</ele><time>2026-03-29T07:46:34Z</time></trkpt><trkpt lat="15.608991680425834" lon="120.59110793825697"><ele>31.0</ele><time>2026-03-29T07:46:35Z</time></trkpt><trkpt lat="15.608934175542222" lon="120.59119169456199"><ele>31.0</ele><time>2026-03-29T07:46:36Z</time></trkpt><trkpt lat="15.608879016541184" lon="120.59127493757536"><ele>31.0</ele><time>2026-03-29T07:46:37Z</time></trkpt><trkpt lat="15.608828712060443" lon="120.59135713426357"><ele>31.0</ele><time>2026-03-29T07:46:38Z</time></trkpt><trkpt lat="15.608780420862512" lon="120.59143787875101"><ele>31.000000000000004</ele><time>2026-03-29T07:46:39Z</time></trkpt><trkpt lat="15.608735504470227" lon="120.59151717664416"><ele>31.0</ele><time>2026-03-29T07:46:40Z</time></trkpt><trkpt lat="15.608691629147021" lon="120.59159553175732"><ele>31.0</ele><time>2026-03-29T07:46:41Z</time></trkpt><trkpt lat="15.608648776583205" lon="120.5916759239399"><ele>31.0</ele><time>2026-03-29T07:46:42Z</time></trkpt><trkpt lat="15.608607068240708" lon="120.5917559558885"><ele>31.000000000000004</ele><time>2026-03-29T07:46:43Z</time></trkpt><trkpt lat="15.60856516385482" lon="120.59183634969378"><ele>31.0</ele><time>2026-03-29T07:46:44Z</time></trkpt><trkpt lat="15.60852362971204" lon="120.59191734333875"><ele>31.000000000000004</ele><time>2026-03-29T07:46:45Z</time></trkpt><trkpt lat="15.608482831771305" lon="120.59199648826434"><ele>31.0</ele><time>2026-03-29T07:46:46Z</time></trkpt><trkpt lat="15.60844121208434" lon="120.59207394457768"><ele>31.0</ele><time>2026-03-29T07:46:47Z</time></trkpt><trkpt lat="15.608400265428648" lon="120.59215137556131"><ele>31.0</ele><time>2026-03-29T07:46:48Z</time></trkpt><trkpt lat="15.608360118631875" lon="120.59222877793191"><ele>31.000000000000004</ele><time>2026-03-29T07:46:49Z</time></trkpt><trkpt lat="15.608323064015037" lon="120.59230104833453"><ele>31.0</ele><time>2026-03-29T07:46:50Z</time></trkpt><trkpt lat="15.608290890377619" lon="120.59236517802414"><ele>30.833333333333336</ele><time>2026-03-29T07:46:51Z</time></trkpt><trkpt lat="15.608257986179588" lon="120.59242654646833"><ele>30.666666666666668</ele><time>2026-03-29T07:46:52Z</time></trkpt><trkpt lat="15.60822582340073" lon="120.59248537897544"><ele>30.5</ele><time>2026-03-29T07:46:53Z</time></trkpt><trkpt lat="15.608164043891172" lon="120.59259144904388"><ele>30.333333333333336</ele><time>2026-03-29T07:46:55Z</time></trkpt><trkpt lat="15.608114668315554" lon="120.5926833943791"><ele>30.166666666666668</ele><time>2026-03-29T07:46:57Z</time></trkpt><trkpt lat="15.60807592328443" lon="120.59274895408807"><ele>30.0</ele><time>2026-03-29T07:46:59Z</time></trkpt><trkpt lat="15.608039950074229" lon="120.59280698404793"><ele>30.2</ele><time>2026-03-29T07:47:01Z</time></trkpt><trkpt lat="15.60800322629812" lon="120.5928657217526"><ele>30.4</ele><time>2026-03-29T07:47:03Z</time></trkpt><trkpt lat="15.607964486845479" lon="120.59293755241814"><ele>30.6</ele><time>2026-03-29T07:47:05Z</time></trkpt><trkpt lat="15.60791424351829" lon="120.59302144679332"><ele>30.8</ele><time>2026-03-29T07:47:07Z</time></trkpt><trkpt lat="15.607858872931294" lon="120.59310907627982"><ele>31.0</ele><time>2026-03-29T07:47:09Z</time></trkpt><trkpt lat="15.607791315140478" lon="120.59321042735536"><ele>31.000000000000004</ele><time>2026-03-29T07:47:11Z</time></trkpt><trkpt lat="15.60775865996389" lon="120.59327200961822"><ele>31.0</ele><time>2026-03-29T07:47:12Z</time></trkpt><trkpt lat="15.607719649830564" lon="120.59333586093008"><ele>31.0</ele><time>2026-03-29T07:47:13Z</time></trkpt><trkpt lat="15.607679955177936" lon="120.59340186762483"><ele>31.0</ele><time>2026-03-29T07:47:14Z</time></trkpt><trkpt lat="15.607639825714859" lon="120.59347411452337"><ele>31.000000000000004</ele><time>2026-03-29T07:47:15Z</time></trkpt><trkpt lat="15.607599633264126" lon="120.59355049240253"><ele>31.0</ele><time>2026-03-29T07:47:16Z</time></trkpt><trkpt lat="15.607559297468775" lon="120.593628315826"><ele>31.666666666666668</ele><time>2026-03-29T07:47:17Z</time></trkpt><trkpt lat="15.607521953073894" lon="120.59370657552262"><ele>32.333333333333336</ele><time>2026-03-29T07:47:18Z</time></trkpt><trkpt lat="15.6074888336558" lon="120.5937855077894"><ele>33.0</ele><time>2026-03-29T07:47:19Z</time></trkpt><trkpt lat="15.607462723938985" lon="120.59386759904623"><ele>33.666666666666664</ele><time>2026-03-29T07:47:20Z</time></trkpt><trkpt lat="15.607439826097643" lon="120.59395197207061"><ele>34.33333333333333</ele><time>2026-03-29T07:47:21Z</time></trkpt><trkpt lat="15.607421503760097" lon="120.59403982792224"><ele>35.0</ele><time>2026-03-29T07:47:22Z</time></trkpt><trkpt lat="15.607402332475205" lon="120.5941270767309"><ele>35.0</ele><time>2026-03-29T07:47:23Z</time></trkpt><trkpt lat="15.607385307312887" lon="120.59421808566456"><ele>35.0</ele><time>2026-03-29T07:47:24Z</time></trkpt><trkpt lat="15.607369404680524" lon="120.59430922640622"><ele>35.0</ele><time>2026-03-29T07:47:25Z</time></trkpt><trkpt lat="15.607354505571498" lon="120.59439842646044"><ele>35.0</ele><time>2026-03-29T07:47:26Z</time></trkpt><trkpt lat="15.60734001582728" lon="120.59448620546648"><ele>35.0</ele><time>2026-03-29T07:47:27Z</time></trkpt><trkpt lat="15.607328510950378" lon="120.59457118898602"><ele>35.0</ele><time>2026-03-29T07:47:28Z</time></trkpt><trkpt lat="15.607323735455367" lon="120.59465675078445"><ele>34.5</ele><time>2026-03-29T07:47:29Z</time></trkpt><trkpt lat="15.607321290450749" lon="120.59474409205254"><ele>34.0</ele><time>2026-03-29T07:47:30Z</time></trkpt><trkpt lat="15.60732053293557" lon="120.59483407590082"><ele>33.5</ele><time>2026-03-29T07:47:31Z</time></trkpt><trkpt lat="15.607327335895288" lon="120.59492510290393"><ele>33.0</ele><time>2026-03-29T07:47:32Z</time></trkpt><trkpt lat="15.607333114584696" lon="120.59501752446761"><ele>32.5</ele><time>2026-03-29T07:47:33Z</time></trkpt><trkpt lat="15.607339861847976" lon="120.59510752750712"><ele>32.0</ele><time>2026-03-29T07:47:34Z</time></trkpt><trkpt lat="15.607349159276326" lon="120.59519760780773"><ele>31.999999999999996</ele><time>2026-03-29T07:47:35Z</time></trkpt><trkpt lat="15.607357410903257" lon="120.59528877873642"><ele>32.0</ele><time>2026-03-29T07:47:36Z</time></trkpt><trkpt lat="15.607363720898435" lon="120.59537684675428"><ele>32.0</ele><time>2026-03-29T07:47:37Z</time></trkpt><trkpt lat="15.607368854606696" lon="120.59546285198572"><ele>32.0</ele><time>2026-03-29T07:47:38Z</time></trkpt><trkpt lat="15.607374648707523" lon="120.59554636634553"><ele>31.999999999999996</ele><time>2026-03-29T07:47:39Z</time></trkpt><trkpt lat="15.607381148529225" lon="120.5956281993133"><ele>32.0</ele><time>2026-03-29T07:47:40Z</time></trkpt><trkpt lat="15.607387621751922" lon="120.59570463624466"><ele>32.0</ele><time>2026-03-29T07:47:41Z</time></trkpt><trkpt lat="15.60739458569198" lon="120.59577745578628"><ele>31.999999999999996</ele><time>2026-03-29T07:47:42Z</time></trkpt><trkpt lat="15.60740155463771" lon="120.59584980526508"><ele>32.0</ele><time>2026-03-29T07:47:43Z</time></trkpt><trkpt lat="15.607408833299765" lon="120.59592460113404"><ele>32.0</ele><time>2026-03-29T07:47:44Z</time></trkpt><trkpt lat="15.607415505474828" lon="120.59600324785247"><ele>31.999999999999996</ele><time>2026-03-29T07:47:45Z</time></trkpt><trkpt lat="15.607421768635119" lon="120.59608165640917"><ele>32.0</ele><time>2026-03-29T07:47:46Z</time></trkpt><trkpt lat="15.60742671478069" lon="120.59615932074739"><ele>32.0</ele><time>2026-03-29T07:47:47Z</time></trkpt><trkpt lat="15.607430248972967" lon="120.59623412116022"><ele>32.166666666666664</ele><time>2026-03-29T07:47:48Z</time></trkpt><trkpt lat="15.607436348481848" lon="120.59630996935924"><ele>32.33333333333333</ele><time>2026-03-29T07:47:49Z</time></trkpt><trkpt lat="15.60744243303383" lon="120.59638543821818"><ele>32.5</ele><time>2026-03-29T07:47:50Z</time></trkpt><trkpt lat="15.607447977489551" lon="120.59646147110827"><ele>32.666666666666664</ele><time>2026-03-29T07:47:51Z</time></trkpt><trkpt lat="15.607454814247209" lon="120.59653889479556"><ele>32.833333333333336</ele><time>2026-03-29T07:47:52Z</time></trkpt><trkpt lat="15.607463298713395" lon="120.59661839122738"><ele>33.0</ele><time>2026-03-29T07:47:53Z</time></trkpt><trkpt lat="15.607471152864585" lon="120.59670069923197"><ele>33.0</ele><time>2026-03-29T07:47:54Z</time></trkpt><trkpt lat="15.607479681223108" lon="120.59678485042964"><ele>33.0</ele><time>2026-03-29T07:47:55Z</time></trkpt><trkpt lat="15.607486320035994" lon="120.5968682120166"><ele>33.0</ele><time>2026-03-29T07:47:56Z</time></trkpt><trkpt lat="15.607494085922257" lon="120.59695068209876"><ele>33.0</ele><time>2026-03-29T07:47:57Z</time></trkpt><trkpt lat="15.607500567240288" lon="120.59703104673231"><ele>33.0</ele><time>2026-03-29T07:47:58Z</time></trkpt><trkpt lat="15.607507812121142" lon="120.59710611227253"><ele>33.0</ele><time>2026-03-29T07:47:59Z</time></trkpt><trkpt lat="15.607516146158309" lon="120.59717687754522"><ele>32.833333333333336</ele><time>2026-03-29T07:48:00Z</time></trkpt><trkpt lat="15.607523203976378" lon="120.59724380832809"><ele>32.666666666666664</ele><time>2026-03-29T07:48:01Z</time></trkpt><trkpt lat="15.607536571559539" lon="120.59736278799059"><ele>32.5</ele><time>2026-03-29T07:48:03Z</time></trkpt><trkpt lat="15.607548054961837" lon="120.59746278924935"><ele>32.33333333333333</ele><time>2026-03-29T07:48:05Z</time></trkpt><trkpt lat="15.607559095500315" lon="120.59755187840263"><ele>32.166666666666664</ele><time>2026-03-29T07:48:07Z</time></trkpt><trkpt lat="15.607568036304551" lon="120.59763878144881"><ele>32.0</ele><time>2026-03-29T07:48:09.999Z</time></trkpt><trkpt lat="15.607559096057978" lon="120.59770859912541"><ele>31.999999999999996</ele><time>2026-03-29T07:48:12.999Z</time></trkpt><trkpt lat="15.607528598695067" lon="120.597772063945"><ele>32.0</ele><time>2026-03-29T07:48:16.999Z</time></trkpt><trkpt lat="15.607433352452619" lon="120.5978038728563"><ele>32.0</ele><time>2026-03-29T07:48:20Z</time></trkpt><trkpt lat="15.607350570910565" lon="120.59783148305624"><ele>32.0</ele><time>2026-03-29T07:48:22Z</time></trkpt><trkpt lat="15.607259706102875" lon="120.5978627631089"><ele>31.999999999999996</ele><time>2026-03-29T07:48:24Z</time></trkpt><trkpt lat="15.607173468227794" lon="120.59789601872933"><ele>32.0</ele><time>2026-03-29T07:48:26Z</time></trkpt><trkpt lat="15.607100066696997" lon="120.59792116709676"><ele>32.5</ele><time>2026-03-29T07:48:28Z</time></trkpt><trkpt lat="15.607023596351079" lon="120.59794814007385"><ele>33.0</ele><time>2026-03-29T07:48:31Z</time></trkpt><trkpt lat="15.60695403682358" lon="120.59797079944788"><ele>33.5</ele><time>2026-03-29T07:48:36Z</time></trkpt><trkpt lat="15.606888025825773" lon="120.59798483743506"><ele>34.0</ele><time>2026-03-29T07:48:41Z</time></trkpt><trkpt lat="15.606813489617382" lon="120.59801111258749"><ele>34.5</ele><time>2026-03-29T07:48:48Z</time></trkpt><trkpt lat="15.606727438231692" lon="120.59805751429377"><ele>35.0</ele><time>2026-03-29T07:48:51Z</time></trkpt><trkpt lat="15.606656410926158" lon="120.59808752936523"><ele>35.0</ele><time>2026-03-29T07:48:53Z</time></trkpt><trkpt lat="15.606587170409284" lon="120.59811518237477"><ele>35.0</ele><time>2026-03-29T07:48:55Z</time></trkpt><trkpt lat="15.60652539859091" lon="120.59814305488436"><ele>35.0</ele><time>2026-03-29T07:48:57Z</time></trkpt><trkpt lat="15.606463621116315" lon="120.59817391209829"><ele>35.0</ele><time>2026-03-29T07:48:59Z</time></trkpt><trkpt lat="15.606402678484445" lon="120.59821159254544"><ele>35.0</ele><time>2026-03-29T07:49:01Z</time></trkpt><trkpt lat="15.606349803965173" lon="120.59825772128563"><ele>35.0</ele><time>2026-03-29T07:49:03Z</time></trkpt><trkpt lat="15.606315707006704" lon="120.59832241517657"><ele>35.0</ele><time>2026-03-29T07:49:05Z</time></trkpt><trkpt lat="15.606302539248643" lon="120.59840203287823"><ele>35.0</ele><time>2026-03-29T07:49:07Z</time></trkpt><trkpt lat="15.606315287154098" lon="120.59849342775338"><ele>35.0</ele><time>2026-03-29T07:49:09Z</time></trkpt><trkpt lat="15.606339722796974" lon="120.59858301166729"><ele>35.0</ele><time>2026-03-29T07:49:11Z</time></trkpt><trkpt lat="15.606365683234182" lon="120.59867497965797"><ele>35.0</ele><time>2026-03-29T07:49:13Z</time></trkpt><trkpt lat="15.606376801911733" lon="120.59876717962561"><ele>35.0</ele><time>2026-03-29T07:49:15Z</time></trkpt><trkpt lat="15.606352251056185" lon="120.59883733469258"><ele>35.0</ele><time>2026-03-29T07:49:17Z</time></trkpt><trkpt lat="15.606298234254393" lon="120.59888866678519"><ele>34.83333333333333</ele><time>2026-03-29T07:49:19Z</time></trkpt><trkpt lat="15.606224077644793" lon="120.59893291092794"><ele>34.666666666666664</ele><time>2026-03-29T07:49:21Z</time></trkpt><trkpt lat="15.606136656330413" lon="120.59897759083873"><ele>34.5</ele><time>2026-03-29T07:49:23Z</time></trkpt><trkpt lat="15.606042996898239" lon="120.59902203033828"><ele>34.333333333333336</ele><time>2026-03-29T07:49:25Z</time></trkpt><trkpt lat="15.605954519343864" lon="120.59906081284319"><ele>34.16666666666667</ele><time>2026-03-29T07:49:27Z</time></trkpt><trkpt lat="15.605894407546582" lon="120.59908781446103"><ele>34.0</ele><time>2026-03-29T07:49:29Z</time></trkpt><trkpt lat="15.605824650431492" lon="120.59911807421634"><ele>33.857142857142854</ele><time>2026-03-29T07:49:33Z</time></trkpt><trkpt lat="15.605753003601475" lon="120.5991534865338"><ele>33.714285714285715</ele><time>2026-03-29T07:49:37Z</time></trkpt><trkpt lat="15.60569879991424" lon="120.5992004095055"><ele>33.57142857142857</ele><time>2026-03-29T07:49:41Z</time></trkpt><trkpt lat="15.605711353058894" lon="120.59928828635618"><ele>33.42857142857143</ele><time>2026-03-29T07:49:44.001Z</time></trkpt><trkpt lat="15.605735404517691" lon="120.59935295840279"><ele>33.285714285714285</ele><time>2026-03-29T07:49:46.001Z</time></trkpt><trkpt lat="15.605766700901762" lon="120.59941808803431"><ele>33.14285714285714</ele><time>2026-03-29T07:49:48.001Z</time></trkpt><trkpt lat="15.605797783026693" lon="120.59948014846496"><ele>33.0</ele><time>2026-03-29T07:49:50.001Z</time></trkpt><trkpt lat="15.605829200610785" lon="120.59954249647967"><ele>33.0</ele><time>2026-03-29T07:49:52.001Z</time></trkpt><trkpt lat="15.605862969390207" lon="120.59960776673395"><ele>33.0</ele><time>2026-03-29T07:49:54.001Z</time></trkpt><trkpt lat="15.605901748543172" lon="120.59967910854532"><ele>33.0</ele><time>2026-03-29T07:49:56.001Z</time></trkpt><trkpt lat="15.605938647344786" lon="120.59974884605026"><ele>33.0</ele><time>2026-03-29T07:49:58.001Z</time></trkpt><trkpt lat="15.605973829039243" lon="120.59981608304997"><ele>33.0</ele><time>2026-03-29T07:50:00.001Z</time></trkpt><trkpt lat="15.606009793090358" lon="120.59989447888799"><ele>33.0</ele><time>2026-03-29T07:50:02.001Z</time></trkpt><trkpt lat="15.606048885999902" lon="120.59998483204276"><ele>33.0</ele><time>2026-03-29T07:50:04.001Z</time></trkpt><trkpt lat="15.606082653159408" lon="120.60007547697417"><ele>33.0</ele><time>2026-03-29T07:50:06.001Z</time></trkpt><trkpt lat="15.606125609211738" lon="120.60017097929364"><ele>33.0</ele><time>2026-03-29T07:50:08.001Z</time></trkpt><trkpt lat="15.606172371975186" lon="120.60026584878123"><ele>33.0</ele><time>2026-03-29T07:50:10.001Z</time></trkpt><trkpt lat="15.606223715476562" lon="120.60036371962275"><ele>33.0</ele><time>2026-03-29T07:50:12.001Z</time></trkpt><trkpt lat="15.606280587553638" lon="120.60046944498973"><ele>32.666666666666664</ele><time>2026-03-29T07:50:14Z</time></trkpt><trkpt lat="15.60633874284242" lon="120.60058135249663"><ele>32.333333333333336</ele><time>2026-03-29T07:50:16Z</time></trkpt><trkpt lat="15.606370114733625" lon="120.60064039554369"><ele>32.0</ele><time>2026-03-29T07:50:17Z</time></trkpt><trkpt lat="15.606402364261504" lon="120.60070111814649"><ele>31.666666666666668</ele><time>2026-03-29T07:50:18Z</time></trkpt><trkpt lat="15.606433329163416" lon="120.60076309470365"><ele>31.333333333333336</ele><time>2026-03-29T07:50:19Z</time></trkpt><trkpt lat="15.606464390393867" lon="120.60082049293597"><ele>31.0</ele><time>2026-03-29T07:50:20Z</time></trkpt><trkpt lat="15.606520464631988" lon="120.60093324569726"><ele>31.0</ele><time>2026-03-29T07:50:22Z</time></trkpt><trkpt lat="15.60657358846712" lon="120.60104394605374"><ele>31.0</ele><time>2026-03-29T07:50:24Z</time></trkpt><trkpt lat="15.606628380103917" lon="120.60115979510844"><ele>31.0</ele><time>2026-03-29T07:50:26Z</time></trkpt><trkpt lat="15.60667835015035" lon="120.60127844693457"><ele>31.0</ele><time>2026-03-29T07:50:28Z</time></trkpt><trkpt lat="15.606723682591776" lon="120.60139518868198"><ele>31.0</ele><time>2026-03-29T07:50:30Z</time></trkpt><trkpt lat="15.60676501971616" lon="120.60150928043916"><ele>31.0</ele><time>2026-03-29T07:50:32Z</time></trkpt><trkpt lat="15.606807068675495" lon="120.60162555331888"><ele>31.0</ele><time>2026-03-29T07:50:34Z</time></trkpt><trkpt lat="15.606848424229703" lon="120.60173808184204"><ele>31.0</ele><time>2026-03-29T07:50:36Z</time></trkpt><trkpt lat="15.606889343618306" lon="120.601846693199"><ele>31.0</ele><time>2026-03-29T07:50:38Z</time></trkpt><trkpt lat="15.6069275751385" lon="120.60195183149341"><ele>31.0</ele><time>2026-03-29T07:50:40Z</time></trkpt><trkpt lat="15.606966018426078" lon="120.60205831032367"><ele>31.0</ele><time>2026-03-29T07:50:42Z</time></trkpt><trkpt lat="15.607007207536167" lon="120.60216853829334"><ele>31.0</ele><time>2026-03-29T07:50:44Z</time></trkpt><trkpt lat="15.607048840572299" lon="120.60227611519842"><ele>31.0</ele><time>2026-03-29T07:50:46Z</time></trkpt><trkpt lat="15.607094035178303" lon="120.60238124634935"><ele>31.333333333333336</ele><time>2026-03-29T07:50:48Z</time></trkpt><trkpt lat="15.607147041625229" lon="120.60249119515876"><ele>31.666666666666668</ele><time>2026-03-29T07:50:50Z</time></trkpt><trkpt lat="15.607176566910672" lon="120.60254964779661"><ele>32.0</ele><time>2026-03-29T07:50:51Z</time></trkpt><trkpt lat="15.607209084415171" lon="120.60260963150498"><ele>32.333333333333336</ele><time>2026-03-29T07:50:52Z</time></trkpt><trkpt lat="15.607244529295183" lon="120.60266960066622"><ele>32.666666666666664</ele><time>2026-03-29T07:50:53Z</time></trkpt><trkpt lat="15.607283006212707" lon="120.60272952576453"><ele>33.0</ele><time>2026-03-29T07:50:54Z</time></trkpt><trkpt lat="15.607322159958983" lon="120.60278794917062"><ele>32.4</ele><time>2026-03-29T07:50:55Z</time></trkpt><trkpt lat="15.607357998176719" lon="120.60284379137653"><ele>31.799999999999997</ele><time>2026-03-29T07:50:56Z</time></trkpt><trkpt lat="15.607395485797468" lon="120.60289797657174"><ele>31.2</ele><time>2026-03-29T07:50:57Z</time></trkpt><trkpt lat="15.607464624320468" lon="120.60300390714424"><ele>30.6</ele><time>2026-03-29T07:50:59Z</time></trkpt><trkpt lat="15.607532916087873" lon="120.60310752650994"><ele>30.0</ele><time>2026-03-29T07:51:01Z</time></trkpt><trkpt lat="15.607595303740192" lon="120.6032094723402"><ele>30.0</ele><time>2026-03-29T07:51:03Z</time></trkpt><trkpt lat="15.607650889044246" lon="120.60330689966506"><ele>30.0</ele><time>2026-03-29T07:51:05Z</time></trkpt><trkpt lat="15.607696463365281" lon="120.60340477306674"><ele>30.0</ele><time>2026-03-29T07:51:07Z</time></trkpt><trkpt lat="15.607733058755622" lon="120.60350119790796"><ele>30.0</ele><time>2026-03-29T07:51:09Z</time></trkpt><trkpt lat="15.607758047069195" lon="120.60359096201698"><ele>30.0</ele><time>2026-03-29T07:51:11Z</time></trkpt><trkpt lat="15.607773062408612" lon="120.60366599223784"><ele>29.714285714285715</ele><time>2026-03-29T07:51:13Z</time></trkpt><trkpt lat="15.607789587703833" lon="120.60375553754969"><ele>29.428571428571427</ele><time>2026-03-29T07:51:16.001Z</time></trkpt><trkpt lat="15.607798344210961" lon="120.60382239296023"><ele>29.142857142857142</ele><time>2026-03-29T07:51:19.001Z</time></trkpt><trkpt lat="15.60783310430727" lon="120.603882824203"><ele>28.857142857142858</ele><time>2026-03-29T07:51:57.001Z</time></trkpt><trkpt lat="15.607828194377156" lon="120.60395007385443"><ele>28.57142857142857</ele><time>2026-03-29T07:53:12.001Z</time></trkpt><trkpt lat="15.607837064088116" lon="120.60402299700802"><ele>28.285714285714285</ele><time>2026-03-29T07:53:15.001Z</time></trkpt><trkpt lat="15.607849694912728" lon="120.60409372011837"><ele>28.0</ele><time>2026-03-29T07:53:17.001Z</time></trkpt><trkpt lat="15.607885305240904" lon="120.60415667046591"><ele>28.000000000000004</ele><time>2026-03-29T07:53:19.001Z</time></trkpt><trkpt lat="15.607911785614789" lon="120.60422465533597"><ele>28.0</ele><time>2026-03-29T07:53:23.001Z</time></trkpt><trkpt lat="15.607913519071671" lon="120.60432185202278"><ele>28.0</ele><time>2026-03-29T07:53:27.001Z</time></trkpt><trkpt lat="15.607925348427152" lon="120.60440190755521"><ele>28.0</ele><time>2026-03-29T07:53:30.001Z</time></trkpt><trkpt lat="15.60791563251544" lon="120.60433634694073"><ele>28.000000000000004</ele><time>2026-03-29T07:57:04.001Z</time></trkpt><trkpt lat="15.607904954836165" lon="120.60426311463814"><ele>28.0</ele><time>2026-03-29T07:57:07.001Z</time></trkpt><trkpt lat="15.607898278360151" lon="120.60418223576016"><ele>28.0</ele><time>2026-03-29T07:57:09.001Z</time></trkpt><trkpt lat="15.607840956175112" lon="120.60423518305417"><ele>28.0</ele><time>2026-03-29T07:57:17.001Z</time></trkpt><trkpt lat="15.607873398042333" lon="120.60446553901797"><ele>28.0</ele><time>2026-03-29T07:57:20.001Z</time></trkpt><trkpt lat="15.607890750812844" lon="120.60456198945501"><ele>28.0</ele><time>2026-03-29T07:57:22.001Z</time></trkpt><trkpt lat="15.607908152812552" lon="120.60466089183761"><ele>28.599999999999998</ele><time>2026-03-29T07:57:24.001Z</time></trkpt><trkpt lat="15.607925643120053" lon="120.60475795542958"><ele>29.199999999999996</ele><time>2026-03-29T07:57:26.001Z</time></trkpt><trkpt lat="15.607941693859132" lon="120.6048585341252"><ele>29.8</ele><time>2026-03-29T07:57:28.001Z</time></trkpt><trkpt lat="15.607957454171293" lon="120.60496853138481"><ele>30.4</ele><time>2026-03-29T07:57:30.001Z</time></trkpt><trkpt lat="15.607979129319391" lon="120.6050825624217"><ele>31.0</ele><time>2026-03-29T07:57:32.001Z</time></trkpt><trkpt lat="15.608002951657255" lon="120.60518750340863"><ele>31.000000000000004</ele><time>2026-03-29T07:57:34.001Z</time></trkpt><trkpt lat="15.608021495264564" lon="120.60526406641819"><ele>31.0</ele><time>2026-03-29T07:57:36.001Z</time></trkpt><trkpt lat="15.608036933421316" lon="120.605330801559"><ele>31.0</ele><time>2026-03-29T07:57:38.001Z</time></trkpt><trkpt lat="15.608057268343561" lon="120.60540617778587"><ele>31.0</ele><time>2026-03-29T07:57:40.001Z</time></trkpt><trkpt lat="15.608079881747196" lon="120.60548928183478"><ele>31.000000000000004</ele><time>2026-03-29T07:57:42.001Z</time></trkpt><trkpt lat="15.608110461324767" lon="120.6055805730523"><ele>31.0</ele><time>2026-03-29T07:57:44.001Z</time></trkpt><trkpt lat="15.608149347777735" lon="120.60567731502525"><ele>31.4</ele><time>2026-03-29T07:57:46.001Z</time></trkpt><trkpt lat="15.608194719887047" lon="120.60577934582383"><ele>31.8</ele><time>2026-03-29T07:57:48.001Z</time></trkpt><trkpt lat="15.608229981615052" lon="120.60584209818408"><ele>32.199999999999996</ele><time>2026-03-29T07:57:49.001Z</time></trkpt><trkpt lat="15.608270694501776" lon="120.60591651604875"><ele>32.6</ele><time>2026-03-29T07:57:50.001Z</time></trkpt><trkpt lat="15.608314815000552" lon="120.60600711157088"><ele>33.0</ele><time>2026-03-29T07:57:51.001Z</time></trkpt><trkpt lat="15.60836194688685" lon="120.60610497632814"><ele>32.8</ele><time>2026-03-29T07:57:52.001Z</time></trkpt><trkpt lat="15.608414066200497" lon="120.6062031210768"><ele>32.599999999999994</ele><time>2026-03-29T07:57:53.001Z</time></trkpt><trkpt lat="15.60846910962302" lon="120.6063015164736"><ele>32.400000000000006</ele><time>2026-03-29T07:57:54.001Z</time></trkpt><trkpt lat="15.608525488087123" lon="120.60640040291943"><ele>32.2</ele><time>2026-03-29T07:57:55.001Z</time></trkpt><trkpt lat="15.60858425108539" lon="120.60650025363461"><ele>32.0</ele><time>2026-03-29T07:57:56.001Z</time></trkpt><trkpt lat="15.608643682249433" lon="120.6066031047497"><ele>32.0</ele><time>2026-03-29T07:57:57.001Z</time></trkpt><trkpt lat="15.608704583679915" lon="120.6067061074521"><ele>32.0</ele><time>2026-03-29T07:57:58.001Z</time></trkpt><trkpt lat="15.608765981778589" lon="120.60680715656099"><ele>32.0</ele><time>2026-03-29T07:57:59.001Z</time></trkpt><trkpt lat="15.608826395654791" lon="120.60690426985582"><ele>32.0</ele><time>2026-03-29T07:58:00.001Z</time></trkpt><trkpt lat="15.608881091473098" lon="120.6069926590972"><ele>32.0</ele><time>2026-03-29T07:58:01.001Z</time></trkpt><trkpt lat="15.608929445504437" lon="120.60707076356576"><ele>31.999999999999996</ele><time>2026-03-29T07:58:02.001Z</time></trkpt><trkpt lat="15.60897299823334" lon="120.60713996266286"><ele>32.0</ele><time>2026-03-29T07:58:03.001Z</time></trkpt><trkpt lat="15.60901463935035" lon="120.60720485147348"><ele>32.0</ele><time>2026-03-29T07:58:04.001Z</time></trkpt><trkpt lat="15.609055123569284" lon="120.60726660831827"><ele>32.0</ele><time>2026-03-29T07:58:05.001Z</time></trkpt><trkpt lat="15.60909678503527" lon="120.60732972939907"><ele>31.999999999999996</ele><time>2026-03-29T07:58:06.001Z</time></trkpt><trkpt lat="15.609137961817153" lon="120.60739453592754"><ele>32.0</ele><time>2026-03-29T07:58:07.001Z</time></trkpt><trkpt lat="15.609180063099052" lon="120.60746172995525"><ele>31.999999999999996</ele><time>2026-03-29T07:58:08.001Z</time></trkpt><trkpt lat="15.609223213759176" lon="120.60753450549078"><ele>32.0</ele><time>2026-03-29T07:58:09.001Z</time></trkpt><trkpt lat="15.60926964968866" lon="120.6076099574254"><ele>32.0</ele><time>2026-03-29T07:58:10.001Z</time></trkpt><trkpt lat="15.609317789806266" lon="120.60768761792035"><ele>32.0</ele><time>2026-03-29T07:58:11.001Z</time></trkpt><trkpt lat="15.609368443142797" lon="120.60776721321233"><ele>31.999999999999996</ele><time>2026-03-29T07:58:12.001Z</time></trkpt><trkpt lat="15.609419756565321" lon="120.60784931162614"><ele>32.0</ele><time>2026-03-29T07:58:13.001Z</time></trkpt><trkpt lat="15.609472200191755" lon="120.60793495025071"><ele>32.2</ele><time>2026-03-29T07:58:14.001Z</time></trkpt><trkpt lat="15.60952518688088" lon="120.60802346120872"><ele>32.400000000000006</ele><time>2026-03-29T07:58:15.001Z</time></trkpt><trkpt lat="15.609577467042346" lon="120.60811500487934"><ele>32.599999999999994</ele><time>2026-03-29T07:58:16.001Z</time></trkpt><trkpt lat="15.609630716840076" lon="120.60820828591054"><ele>32.8</ele><time>2026-03-29T07:58:17.001Z</time></trkpt><trkpt lat="15.609683939671124" lon="120.60830205879955"><ele>33.0</ele><time>2026-03-29T07:58:18.001Z</time></trkpt><trkpt lat="15.609736649141215" lon="120.60839645954358"><ele>33.0</ele><time>2026-03-29T07:58:19.001Z</time></trkpt><trkpt lat="15.609789687801646" lon="120.60849102787081"><ele>33.0</ele><time>2026-03-29T07:58:20.001Z</time></trkpt><trkpt lat="15.60984390540668" lon="120.60858543408051"><ele>33.0</ele><time>2026-03-29T07:58:21.001Z</time></trkpt><trkpt lat="15.60989929524142" lon="120.60867824502944"><ele>33.0</ele><time>2026-03-29T07:58:22.001Z</time></trkpt><trkpt lat="15.609953247689166" lon="120.60877115857498"><ele>33.0</ele><time>2026-03-29T07:58:23.001Z</time></trkpt><trkpt lat="15.610005803463276" lon="120.60886377339885"><ele>32.8</ele><time>2026-03-29T07:58:24.001Z</time></trkpt><trkpt lat="15.610057586245878" lon="120.60895577045598"><ele>32.599999999999994</ele><time>2026-03-29T07:58:25.001Z</time></trkpt><trkpt lat="15.610108873838477" lon="120.60904900160726"><ele>32.400000000000006</ele><time>2026-03-29T07:58:26.001Z</time></trkpt><trkpt lat="15.610160459581936" lon="120.60914101258425"><ele>32.2</ele><time>2026-03-29T07:58:27.001Z</time></trkpt><trkpt lat="15.610211749630384" lon="120.60923277888189"><ele>32.0</ele><time>2026-03-29T07:58:28.001Z</time></trkpt><trkpt lat="15.610261936297725" lon="120.60932439528743"><ele>32.0</ele><time>2026-03-29T07:58:29.001Z</time></trkpt><trkpt lat="15.610312482205313" lon="120.60941748856148"><ele>32.0</ele><time>2026-03-29T07:58:30.001Z</time></trkpt><trkpt lat="15.610363197732632" lon="120.60951225765547"><ele>32.0</ele><time>2026-03-29T07:58:31.001Z</time></trkpt><trkpt lat="15.610412791614978" lon="120.60961063073174"><ele>32.0</ele><time>2026-03-29T07:58:32.001Z</time></trkpt><trkpt lat="15.610465136546498" lon="120.60970932150857"><ele>32.0</ele><time>2026-03-29T07:58:33.001Z</time></trkpt><trkpt lat="15.610515962024687" lon="120.60981033442764"><ele>31.400000000000002</ele><time>2026-03-29T07:58:34.001Z</time></trkpt><trkpt lat="15.610565972991179" lon="120.60991276898972"><ele>30.800000000000004</ele><time>2026-03-29T07:58:35.001Z</time></trkpt><trkpt lat="15.610616661019087" lon="120.61001601837464"><ele>30.2</ele><time>2026-03-29T07:58:36.001Z</time></trkpt><trkpt lat="15.610667555766133" lon="120.6101183478372"><ele>29.6</ele><time>2026-03-29T07:58:37.001Z</time></trkpt><trkpt lat="15.610717281915187" lon="120.61021874492995"><ele>29.0</ele><time>2026-03-29T07:58:38.001Z</time></trkpt><trkpt lat="15.610762285554651" lon="120.61031313443054"><ele>28.999999999999996</ele><time>2026-03-29T07:58:39.001Z</time></trkpt><trkpt lat="15.610801663270982" lon="120.61039726848279"><ele>29.0</ele><time>2026-03-29T07:58:40.001Z</time></trkpt><trkpt lat="15.610838058124871" lon="120.61047415550713"><ele>29.0</ele><time>2026-03-29T07:58:41.001Z</time></trkpt><trkpt lat="15.610870007251924" lon="120.61054374130889"><ele>29.0</ele><time>2026-03-29T07:58:42.001Z</time></trkpt><trkpt lat="15.610899561919748" lon="120.61060856251898"><ele>28.999999999999996</ele><time>2026-03-29T07:58:43.001Z</time></trkpt><trkpt lat="15.61092724158993" lon="120.61067150034717"><ele>29.0</ele><time>2026-03-29T07:58:44.001Z</time></trkpt><trkpt lat="15.610969216928705" lon="120.61076578040515"><ele>28.999999999999996</ele><time>2026-03-29T07:58:46.001Z</time></trkpt><trkpt lat="15.61101331789618" lon="120.61086650412592"><ele>29.0</ele><time>2026-03-29T07:58:48.001Z</time></trkpt><trkpt lat="15.611042088747629" lon="120.61092819374312"><ele>29.0</ele><time>2026-03-29T07:58:49.001Z</time></trkpt><trkpt lat="15.611076107052039" lon="120.61099832418867"><ele>29.0</ele><time>2026-03-29T07:58:50.001Z</time></trkpt><trkpt lat="15.611114061992687" lon="120.61107546528231"><ele>28.999999999999996</ele><time>2026-03-29T07:58:51.001Z</time></trkpt><trkpt lat="15.611155535962885" lon="120.61115976941011"><ele>29.0</ele><time>2026-03-29T07:58:52.001Z</time></trkpt><trkpt lat="15.611198888035577" lon="120.61125006057426"><ele>28.799999999999997</ele><time>2026-03-29T07:58:53.001Z</time></trkpt><trkpt lat="15.611244779472058" lon="120.61134648666156"><ele>28.599999999999998</ele><time>2026-03-29T07:58:54.001Z</time></trkpt><trkpt lat="15.611291560991106" lon="120.6114467880261"><ele>28.4</ele><time>2026-03-29T07:58:55.001Z</time></trkpt><trkpt lat="15.61134119584345" lon="120.61155080522673"><ele>28.2</ele><time>2026-03-29T07:58:56.001Z</time></trkpt><trkpt lat="15.611392901898137" lon="120.61165771411642"><ele>28.0</ele><time>2026-03-29T07:58:57.001Z</time></trkpt><trkpt lat="15.611445096504944" lon="120.61176770320404"><ele>28.0</ele><time>2026-03-29T07:58:58.001Z</time></trkpt><trkpt lat="15.611498928344226" lon="120.61188102708363"><ele>28.0</ele><time>2026-03-29T07:58:59.001Z</time></trkpt><trkpt lat="15.611555262023234" lon="120.61199640871317"><ele>28.0</ele><time>2026-03-29T07:59:00.001Z</time></trkpt><trkpt lat="15.611613253393601" lon="120.61211450509721"><ele>28.0</ele><time>2026-03-29T07:59:01.001Z</time></trkpt><trkpt lat="15.61167073749342" lon="120.61223565329043"><ele>28.25</ele><time>2026-03-29T07:59:02.001Z</time></trkpt><trkpt lat="15.611729924210199" lon="120.61235914439331"><ele>28.5</ele><time>2026-03-29T07:59:03.001Z</time></trkpt><trkpt lat="15.611789778254021" lon="120.61248222466885"><ele>28.75</ele><time>2026-03-29T07:59:04.001Z</time></trkpt><trkpt lat="15.61184953370209" lon="120.61260533156471"><ele>29.0</ele><time>2026-03-29T07:59:05.001Z</time></trkpt><trkpt lat="15.611909209059652" lon="120.61272729780035"><ele>29.0</ele><time>2026-03-29T07:59:06.001Z</time></trkpt><trkpt lat="15.61196785527784" lon="120.61284673130821"><ele>29.0</ele><time>2026-03-29T07:59:07.001Z</time></trkpt><trkpt lat="15.61202493751928" lon="120.61296277834278"><ele>29.0</ele><time>2026-03-29T07:59:08.001Z</time></trkpt><trkpt lat="15.612080313759376" lon="120.61307593905083"><ele>29.0</ele><time>2026-03-29T07:59:09.001Z</time></trkpt><trkpt lat="15.612135371094922" lon="120.61318948156767"><ele>28.75</ele><time>2026-03-29T07:59:10.001Z</time></trkpt><trkpt lat="15.612191117471458" lon="120.61330375700167"><ele>28.5</ele><time>2026-03-29T07:59:11.001Z</time></trkpt><trkpt lat="15.612247585812131" lon="120.61341883941965"><ele>28.25</ele><time>2026-03-29T07:59:12.001Z</time></trkpt><trkpt lat="15.612305877727206" lon="120.61353621432029"><ele>28.0</ele><time>2026-03-29T07:59:13.001Z</time></trkpt><trkpt lat="15.612365494018297" lon="120.61365575473019"><ele>27.75</ele><time>2026-03-29T07:59:14.001Z</time></trkpt><trkpt lat="15.612425983189272" lon="120.61377786002573"><ele>27.5</ele><time>2026-03-29T07:59:15.001Z</time></trkpt><trkpt lat="15.612486339619213" lon="120.61390149164033"><ele>27.25</ele><time>2026-03-29T07:59:16.001Z</time></trkpt><trkpt lat="15.612547410888427" lon="120.61402600185008"><ele>27.0</ele><time>2026-03-29T07:59:17.001Z</time></trkpt><trkpt lat="15.612606332261057" lon="120.61415134419367"><ele>27.0</ele><time>2026-03-29T07:59:18.001Z</time></trkpt><trkpt lat="15.612665463976658" lon="120.61427653052722"><ele>27.0</ele><time>2026-03-29T07:59:19.001Z</time></trkpt><trkpt lat="15.612724973927003" lon="120.61440079565226"><ele>27.0</ele><time>2026-03-29T07:59:20.001Z</time></trkpt><trkpt lat="15.612783684971319" lon="120.61452343949587"><ele>27.0</ele><time>2026-03-29T07:59:21.001Z</time></trkpt><trkpt lat="15.612842631174919" lon="120.61464541822556"><ele>27.25</ele><time>2026-03-29T07:59:22.001Z</time></trkpt><trkpt lat="15.612902334190226" lon="120.61476771440205"><ele>27.5</ele><time>2026-03-29T07:59:23.001Z</time></trkpt><trkpt lat="15.612963597831909" lon="120.6148893760824"><ele>27.75</ele><time>2026-03-29T07:59:24.001Z</time></trkpt><trkpt lat="15.613023877828667" lon="120.61501183652064"><ele>28.0</ele><time>2026-03-29T07:59:25.001Z</time></trkpt><trkpt lat="15.613082952805968" lon="120.61513428882778"><ele>28.0</ele><time>2026-03-29T07:59:26.001Z</time></trkpt><trkpt lat="15.613139253305354" lon="120.61525530098295"><ele>28.0</ele><time>2026-03-29T07:59:27.001Z</time></trkpt><trkpt lat="15.613195140166484" lon="120.61537336139506"><ele>28.0</ele><time>2026-03-29T07:59:28.001Z</time></trkpt><trkpt lat="15.613250486194067" lon="120.61548855185802"><ele>28.0</ele><time>2026-03-29T07:59:29.001Z</time></trkpt><trkpt lat="15.613305793756597" lon="120.6156027093278"><ele>27.75</ele><time>2026-03-29T07:59:30.001Z</time></trkpt><trkpt lat="15.6133595029004" lon="120.61571526662873"><ele>27.5</ele><time>2026-03-29T07:59:31.001Z</time></trkpt><trkpt lat="15.61341412864195" lon="120.61582749720219"><ele>27.25</ele><time>2026-03-29T07:59:32.001Z</time></trkpt><trkpt lat="15.613469294525713" lon="120.61594003441424"><ele>27.0</ele><time>2026-03-29T07:59:33.001Z</time></trkpt><trkpt lat="15.613524654367634" lon="120.61605313296293"><ele>27.25</ele><time>2026-03-29T07:59:34.001Z</time></trkpt><trkpt lat="15.613581825968517" lon="120.61616576648991"><ele>27.5</ele><time>2026-03-29T07:59:35.001Z</time></trkpt><trkpt lat="15.613638290633443" lon="120.61627756310084"><ele>27.75</ele><time>2026-03-29T07:59:36.001Z</time></trkpt><trkpt lat="15.613692651876248" lon="120.61638751483844"><ele>28.0</ele><time>2026-03-29T07:59:37.001Z</time></trkpt><trkpt lat="15.613746658321066" lon="120.61649566015764"><ele>27.5</ele><time>2026-03-29T07:59:38.001Z</time></trkpt><trkpt lat="15.613799314774091" lon="120.61660144831869"><ele>27.0</ele><time>2026-03-29T07:59:39.001Z</time></trkpt><trkpt lat="15.613851959341476" lon="120.61670691206093"><ele>26.5</ele><time>2026-03-29T07:59:40.001Z</time></trkpt><trkpt lat="15.613903667378349" lon="120.61681322550929"><ele>26.0</ele><time>2026-03-29T07:59:41.001Z</time></trkpt><trkpt lat="15.613955550100696" lon="120.61692083424073"><ele>26.5</ele><time>2026-03-29T07:59:42.001Z</time></trkpt><trkpt lat="15.614008650242374" lon="120.6170279571228"><ele>27.0</ele><time>2026-03-29T07:59:43.001Z</time></trkpt><trkpt lat="15.61406335811444" lon="120.61713685698909"><ele>27.5</ele><time>2026-03-29T07:59:44.001Z</time></trkpt><trkpt lat="15.614119112598898" lon="120.61724673318888"><ele>28.0</ele><time>2026-03-29T07:59:45.001Z</time></trkpt><trkpt lat="15.614175532987035" lon="120.6173588652399"><ele>28.0</ele><time>2026-03-29T07:59:46.001Z</time></trkpt><trkpt lat="15.614235122429147" lon="120.61747200773361"><ele>28.0</ele><time>2026-03-29T07:59:47.001Z</time></trkpt><trkpt lat="15.614292398957264" lon="120.61758862497747"><ele>28.0</ele><time>2026-03-29T07:59:48.001Z</time></trkpt><trkpt lat="15.614352066610799" lon="120.6177059257263"><ele>28.0</ele><time>2026-03-29T07:59:49.001Z</time></trkpt><trkpt lat="15.614413271311902" lon="120.61782033000696"><ele>27.5</ele><time>2026-03-29T07:59:50.001Z</time></trkpt><trkpt lat="15.614469993084704" lon="120.61793405686485"><ele>27.0</ele><time>2026-03-29T07:59:51.001Z</time></trkpt><trkpt lat="15.614523840962043" lon="120.61804723671865"><ele>26.5</ele><time>2026-03-29T07:59:52.001Z</time></trkpt><trkpt lat="15.614577388537542" lon="120.61816066401934"><ele>26.0</ele><time>2026-03-29T07:59:53.001Z</time></trkpt><trkpt lat="15.614629283554502" lon="120.61827552925715"><ele>26.0</ele><time>2026-03-29T07:59:54.001Z</time></trkpt><trkpt lat="15.614679852556312" lon="120.61839040902638"><ele>26.0</ele><time>2026-03-29T07:59:55.001Z</time></trkpt><trkpt lat="15.61472951313066" lon="120.61850613550743"><ele>26.0</ele><time>2026-03-29T07:59:56.001Z</time></trkpt><trkpt lat="15.614777797518887" lon="120.61862338557641"><ele>26.0</ele><time>2026-03-29T07:59:57.001Z</time></trkpt><trkpt lat="15.61482754235861" lon="120.6187427851872"><ele>25.75</ele><time>2026-03-29T07:59:58.001Z</time></trkpt><trkpt lat="15.61487766541983" lon="120.61886230348138"><ele>25.5</ele><time>2026-03-29T07:59:59.001Z</time></trkpt><trkpt lat="15.614925563158087" lon="120.61898460803415"><ele>25.25</ele><time>2026-03-29T08:00:00.001Z</time></trkpt><trkpt lat="15.614970685087084" lon="120.61910944188809"><ele>25.0</ele><time>2026-03-29T08:00:01.001Z</time></trkpt><trkpt lat="15.615012723179598" lon="120.6192363601737"><ele>25.0</ele><time>2026-03-29T08:00:02.001Z</time></trkpt><trkpt lat="15.61505170576923" lon="120.61936541620577"><ele>25.0</ele><time>2026-03-29T08:00:03.001Z</time></trkpt><trkpt lat="15.61508902100596" lon="120.61949462447865"><ele>25.0</ele><time>2026-03-29T08:00:04.001Z</time></trkpt><trkpt lat="15.6151238632375" lon="120.61962183392978"><ele>25.0</ele><time>2026-03-29T08:00:05.001Z</time></trkpt><trkpt lat="15.615154278272438" lon="120.61974732518733"><ele>25.0</ele><time>2026-03-29T08:00:06.001Z</time></trkpt><trkpt lat="15.615180924176055" lon="120.61987226406248"><ele>25.0</ele><time>2026-03-29T08:00:07.001Z</time></trkpt><trkpt lat="15.615202124401824" lon="120.61999769250791"><ele>25.0</ele><time>2026-03-29T08:00:08.001Z</time></trkpt><trkpt lat="15.615218764281513" lon="120.6201222951381"><ele>25.0</ele><time>2026-03-29T08:00:09.001Z</time></trkpt><trkpt lat="15.615231943405146" lon="120.62024452721025"><ele>25.0</ele><time>2026-03-29T08:00:10.001Z</time></trkpt><trkpt lat="15.615245575643641" lon="120.62036408553999"><ele>25.0</ele><time>2026-03-29T08:00:11.001Z</time></trkpt><trkpt lat="15.615259334977926" lon="120.6204815829901"><ele>25.0</ele><time>2026-03-29T08:00:12.001Z</time></trkpt><trkpt lat="15.615271644699988" lon="120.6205999800432"><ele>25.0</ele><time>2026-03-29T08:00:13.001Z</time></trkpt><trkpt lat="15.61528285626251" lon="120.62071550680427"><ele>25.0</ele><time>2026-03-29T08:00:14.001Z</time></trkpt><trkpt lat="15.615293121506777" lon="120.62082791969597"><ele>25.0</ele><time>2026-03-29T08:00:15.001Z</time></trkpt><trkpt lat="15.615302689733289" lon="120.62093385348763"><ele>25.0</ele><time>2026-03-29T08:00:16.001Z</time></trkpt><trkpt lat="15.615311634098779" lon="120.62103269475664"><ele>25.0</ele><time>2026-03-29T08:00:17.001Z</time></trkpt><trkpt lat="15.61532031746478" lon="120.62112882545264"><ele>25.0</ele><time>2026-03-29T08:00:18.001Z</time></trkpt><trkpt lat="15.615329042977002" lon="120.6212228488246"><ele>25.000000000000004</ele><time>2026-03-29T08:00:19.001Z</time></trkpt><trkpt lat="15.615337863904758" lon="120.62131539499073"><ele>25.0</ele><time>2026-03-29T08:00:20.001Z</time></trkpt><trkpt lat="15.61534559162817" lon="120.62140538469596"><ele>25.0</ele><time>2026-03-29T08:00:21.001Z</time></trkpt><trkpt lat="15.615354205836853" lon="120.62149708377333"><ele>25.0</ele><time>2026-03-29T08:00:22.001Z</time></trkpt><trkpt lat="15.615363897881323" lon="120.62159116118643"><ele>25.000000000000004</ele><time>2026-03-29T08:00:23.001Z</time></trkpt><trkpt lat="15.61537287323918" lon="120.62168690599805"><ele>25.0</ele><time>2026-03-29T08:00:24.001Z</time></trkpt><trkpt lat="15.615381782361238" lon="120.62178434261804"><ele>25.000000000000004</ele><time>2026-03-29T08:00:25.001Z</time></trkpt><trkpt lat="15.6153900667716" lon="120.6218799732732"><ele>25.0</ele><time>2026-03-29T08:00:26.001Z</time></trkpt><trkpt lat="15.615398569432053" lon="120.62197355413794"><ele>25.0</ele><time>2026-03-29T08:00:27.001Z</time></trkpt><trkpt lat="15.61540802522071" lon="120.62206446206129"><ele>25.0</ele><time>2026-03-29T08:00:28.001Z</time></trkpt><trkpt lat="15.6154166625536" lon="120.62215455621565"><ele>25.000000000000004</ele><time>2026-03-29T08:00:29.001Z</time></trkpt><trkpt lat="15.615425452666797" lon="120.62224571678695"><ele>25.0</ele><time>2026-03-29T08:00:30.001Z</time></trkpt><trkpt lat="15.61543510905335" lon="120.62233629610496"><ele>25.000000000000004</ele><time>2026-03-29T08:00:31.001Z</time></trkpt><trkpt lat="15.615444362397175" lon="120.62242537905617"><ele>25.0</ele><time>2026-03-29T08:00:32.001Z</time></trkpt><trkpt lat="15.615453540334727" lon="120.62251313616582"><ele>25.0</ele><time>2026-03-29T08:00:33.001Z</time></trkpt><trkpt lat="15.6154620179768" lon="120.62260005460837"><ele>25.0</ele><time>2026-03-29T08:00:34.001Z</time></trkpt><trkpt lat="15.615469447785014" lon="120.62268413000139"><ele>25.000000000000004</ele><time>2026-03-29T08:00:35.001Z</time></trkpt><trkpt lat="15.615476576875537" lon="120.62276815681598"><ele>25.0</ele><time>2026-03-29T08:00:36.001Z</time></trkpt><trkpt lat="15.61548423338433" lon="120.62285177645798"><ele>25.166666666666668</ele><time>2026-03-29T08:00:37.001Z</time></trkpt><trkpt lat="15.615493461758547" lon="120.62293527179041"><ele>25.333333333333336</ele><time>2026-03-29T08:00:38.001Z</time></trkpt><trkpt lat="15.615501871343467" lon="120.62301681768312"><ele>25.5</ele><time>2026-03-29T08:00:39.001Z</time></trkpt><trkpt lat="15.615510951650998" lon="120.62309835096919"><ele>25.666666666666664</ele><time>2026-03-29T08:00:40.001Z</time></trkpt><trkpt lat="15.61552065445789" lon="120.62318106417241"><ele>25.833333333333332</ele><time>2026-03-29T08:00:41.001Z</time></trkpt><trkpt lat="15.615529477829737" lon="120.6232673215286"><ele>26.0</ele><time>2026-03-29T08:00:42.001Z</time></trkpt><trkpt lat="15.615538451920987" lon="120.62335673277569"><ele>26.0</ele><time>2026-03-29T08:00:43.001Z</time></trkpt><trkpt lat="15.615548211305448" lon="120.62345050144435"><ele>26.0</ele><time>2026-03-29T08:00:44.001Z</time></trkpt><trkpt lat="15.615557841687783" lon="120.62354935928632"><ele>26.0</ele><time>2026-03-29T08:00:45.001Z</time></trkpt><trkpt lat="15.615568262813552" lon="120.62365325227871"><ele>26.0</ele><time>2026-03-29T08:00:46.001Z</time></trkpt><trkpt lat="15.615578565430628" lon="120.62375974644253"><ele>26.0</ele><time>2026-03-29T08:00:47.001Z</time></trkpt><trkpt lat="15.61558899899873" lon="120.62386702326074"><ele>26.0</ele><time>2026-03-29T08:00:48.001Z</time></trkpt><trkpt lat="15.615598337096028" lon="120.62397157778275"><ele>26.0</ele><time>2026-03-29T08:00:49.001Z</time></trkpt><trkpt lat="15.615607789679622" lon="120.62407360315979"><ele>26.0</ele><time>2026-03-29T08:00:50.001Z</time></trkpt><trkpt lat="15.615616913962095" lon="120.62417424994088"><ele>26.0</ele><time>2026-03-29T08:00:51.001Z</time></trkpt><trkpt lat="15.615626589017735" lon="120.62427490670406"><ele>26.0</ele><time>2026-03-29T08:00:52.001Z</time></trkpt><trkpt lat="15.615636368484916" lon="120.62437679691864"><ele>26.0</ele><time>2026-03-29T08:00:53.001Z</time></trkpt><trkpt lat="15.615647797311405" lon="120.62447946388225"><ele>26.0</ele><time>2026-03-29T08:00:54.001Z</time></trkpt><trkpt lat="15.615657605209725" lon="120.62458134608703"><ele>26.0</ele><time>2026-03-29T08:00:55.001Z</time></trkpt><trkpt lat="15.615668549965124" lon="120.62468180096869"><ele>26.0</ele><time>2026-03-29T08:00:56.001Z</time></trkpt><trkpt lat="15.615677856468324" lon="120.6247823330867"><ele>26.0</ele><time>2026-03-29T08:00:57.001Z</time></trkpt><trkpt lat="15.615688264062712" lon="120.62488107716645"><ele>26.0</ele><time>2026-03-29T08:00:58.001Z</time></trkpt><trkpt lat="15.615699401678139" lon="120.62498113734513"><ele>26.0</ele><time>2026-03-29T08:00:59.001Z</time></trkpt><trkpt lat="15.615709612106434" lon="120.62508067235515"><ele>26.0</ele><time>2026-03-29T08:01:00.001Z</time></trkpt><trkpt lat="15.615720533870396" lon="120.62518320070741"><ele>26.0</ele><time>2026-03-29T08:01:01.001Z</time></trkpt><trkpt lat="15.615728419406185" lon="120.6252871940519"><ele>26.0</ele><time>2026-03-29T08:01:02.001Z</time></trkpt><trkpt lat="15.615738628528872" lon="120.62539336282583"><ele>26.200000000000003</ele><time>2026-03-29T08:01:03.001Z</time></trkpt><trkpt lat="15.615749663621243" lon="120.6255012337857"><ele>26.400000000000002</ele><time>2026-03-29T08:01:04.001Z</time></trkpt><trkpt lat="15.61576253807184" lon="120.62561007814493"><ele>26.6</ele><time>2026-03-29T08:01:05.001Z</time></trkpt><trkpt lat="15.615777607048171" lon="120.62572131646469"><ele>26.8</ele><time>2026-03-29T08:01:06.001Z</time></trkpt><trkpt lat="15.615792821001966" lon="120.62583493946968"><ele>27.0</ele><time>2026-03-29T08:01:07.001Z</time></trkpt><trkpt lat="15.615809285002271" lon="120.62594933600053"><ele>27.0</ele><time>2026-03-29T08:01:08.001Z</time></trkpt><trkpt lat="15.615826331678804" lon="120.62606390562753"><ele>27.000000000000004</ele><time>2026-03-29T08:01:09.001Z</time></trkpt><trkpt lat="15.61584495762179" lon="120.62617801973278"><ele>27.000000000000004</ele><time>2026-03-29T08:01:10.001Z</time></trkpt><trkpt lat="15.615864578156474" lon="120.62629231539556"><ele>27.0</ele><time>2026-03-29T08:01:11.001Z</time></trkpt><trkpt lat="15.615885717183396" lon="120.62640483641543"><ele>27.0</ele><time>2026-03-29T08:01:12.001Z</time></trkpt><trkpt lat="15.61590627897548" lon="120.62651382862285"><ele>27.0</ele><time>2026-03-29T08:01:13.001Z</time></trkpt><trkpt lat="15.615927653275545" lon="120.62662063335866"><ele>27.000000000000004</ele><time>2026-03-29T08:01:14.001Z</time></trkpt><trkpt lat="15.615951493882275" lon="120.6267201324742"><ele>27.000000000000004</ele><time>2026-03-29T08:01:15.001Z</time></trkpt><trkpt lat="15.61597336200771" lon="120.6268119742062"><ele>27.0</ele><time>2026-03-29T08:01:16.001Z</time></trkpt><trkpt lat="15.615995017771182" lon="120.62689993630511"><ele>27.0</ele><time>2026-03-29T08:01:17.001Z</time></trkpt><trkpt lat="15.616015967378766" lon="120.62698291249325"><ele>26.857142857142858</ele><time>2026-03-29T08:01:18.001Z</time></trkpt><trkpt lat="15.616034938722017" lon="120.62705451189876"><ele>26.714285714285715</ele><time>2026-03-29T08:01:19.001Z</time></trkpt><trkpt lat="15.616053019033911" lon="120.627120520455"><ele>26.57142857142857</ele><time>2026-03-29T08:01:20.001Z</time></trkpt><trkpt lat="15.616071335273146" lon="120.62718482698095"><ele>26.42857142857143</ele><time>2026-03-29T08:01:21.001Z</time></trkpt><trkpt lat="15.616092099958136" lon="120.62724753679123"><ele>26.28571428571429</ele><time>2026-03-29T08:01:22.001Z</time></trkpt><trkpt lat="15.616115180227103" lon="120.6273176890902"><ele>26.142857142857142</ele><time>2026-03-29T08:01:23.001Z</time></trkpt><trkpt lat="15.616138255789508" lon="120.6273871770327"><ele>26.0</ele><time>2026-03-29T08:01:24.001Z</time></trkpt><trkpt lat="15.616169281171148" lon="120.62746345735997"><ele>26.0</ele><time>2026-03-29T08:01:25.001Z</time></trkpt><trkpt lat="15.616208954734475" lon="120.62754811992572"><ele>26.0</ele><time>2026-03-29T08:01:26.001Z</time></trkpt><trkpt lat="15.616242688713843" lon="120.62764412532961"><ele>26.0</ele><time>2026-03-29T08:01:27.001Z</time></trkpt><trkpt lat="15.616274233100192" lon="120.62774824327865"><ele>26.0</ele><time>2026-03-29T08:01:28.001Z</time></trkpt><trkpt lat="15.616302772443293" lon="120.62786111680045"><ele>26.0</ele><time>2026-03-29T08:01:29.001Z</time></trkpt><trkpt lat="15.61632951144382" lon="120.62798002918302"><ele>26.75</ele><time>2026-03-29T08:01:30.001Z</time></trkpt><trkpt lat="15.61635953082423" lon="120.62810103849228"><ele>27.5</ele><time>2026-03-29T08:01:31.001Z</time></trkpt><trkpt lat="15.616391907743695" lon="120.62822674963517"><ele>28.25</ele><time>2026-03-29T08:01:32.001Z</time></trkpt><trkpt lat="15.61642634715203" lon="120.62835575495825"><ele>29.0</ele><time>2026-03-29T08:01:33.001Z</time></trkpt><trkpt lat="15.616463332895" lon="120.62848562598484"><ele>29.0</ele><time>2026-03-29T08:01:34.001Z</time></trkpt><trkpt lat="15.616501177587882" lon="120.62861700790674"><ele>29.0</ele><time>2026-03-29T08:01:35.001Z</time></trkpt><trkpt lat="15.616540835962102" lon="120.62874948725451"><ele>29.0</ele><time>2026-03-29T08:01:36.001Z</time></trkpt><trkpt lat="15.616579569435364" lon="120.6288831719939"><ele>29.0</ele><time>2026-03-29T08:01:37.001Z</time></trkpt><trkpt lat="15.616617909042825" lon="120.62901725918405"><ele>28.75</ele><time>2026-03-29T08:01:38.001Z</time></trkpt><trkpt lat="15.6166566615144" lon="120.62915071160576"><ele>28.5</ele><time>2026-03-29T08:01:39.001Z</time></trkpt><trkpt lat="15.616693951369603" lon="120.62928256595092"><ele>28.25</ele><time>2026-03-29T08:01:40.001Z</time></trkpt><trkpt lat="15.61672966207766" lon="120.62941174518056"><ele>28.0</ele><time>2026-03-29T08:01:41.001Z</time></trkpt><trkpt lat="15.616765416504707" lon="120.62953897453319"><ele>27.25</ele><time>2026-03-29T08:01:42.001Z</time></trkpt><trkpt lat="15.616801692925183" lon="120.62966644446067"><ele>26.5</ele><time>2026-03-29T08:01:43.001Z</time></trkpt><trkpt lat="15.616838403978164" lon="120.62979295618366"><ele>25.75</ele><time>2026-03-29T08:01:44.001Z</time></trkpt><trkpt lat="15.61687586069939" lon="120.62991868493243"><ele>25.0</ele><time>2026-03-29T08:01:45.001Z</time></trkpt><trkpt lat="15.616911561204867" lon="120.63004440815592"><ele>25.0</ele><time>2026-03-29T08:01:46.001Z</time></trkpt><trkpt lat="15.616947336299795" lon="120.6301677494984"><ele>25.0</ele><time>2026-03-29T08:01:47.001Z</time></trkpt><trkpt lat="15.616981659377709" lon="120.63028903252739"><ele>25.0</ele><time>2026-03-29T08:01:48.001Z</time></trkpt><trkpt lat="15.617015391817873" lon="120.6304082303075"><ele>25.0</ele><time>2026-03-29T08:01:49.001Z</time></trkpt><trkpt lat="15.617049653099265" lon="120.63052449018194"><ele>25.25</ele><time>2026-03-29T08:01:50.001Z</time></trkpt><trkpt lat="15.617083506583464" lon="120.63064009615347"><ele>25.5</ele><time>2026-03-29T08:01:51.001Z</time></trkpt><trkpt lat="15.617116475631244" lon="120.63075411335576"><ele>25.75</ele><time>2026-03-29T08:01:52.001Z</time></trkpt><trkpt lat="15.617148894956724" lon="120.63086554561701"><ele>26.0</ele><time>2026-03-29T08:01:53.001Z</time></trkpt><trkpt lat="15.617179818385228" lon="120.6309747054728"><ele>26.0</ele><time>2026-03-29T08:01:54.001Z</time></trkpt><trkpt lat="15.617213259678342" lon="120.63108158964756"><ele>26.0</ele><time>2026-03-29T08:01:55.001Z</time></trkpt><trkpt lat="15.617240917490157" lon="120.63118790922765"><ele>26.0</ele><time>2026-03-29T08:01:56.001Z</time></trkpt><trkpt lat="15.617270565808413" lon="120.63130068698088"><ele>26.0</ele><time>2026-03-29T08:01:57.001Z</time></trkpt><trkpt lat="15.61730216969745" lon="120.63141531729751"><ele>26.0</ele><time>2026-03-29T08:01:58.001Z</time></trkpt><trkpt lat="15.617335243265845" lon="120.63153217872964"><ele>26.0</ele><time>2026-03-29T08:01:59.001Z</time></trkpt><trkpt lat="15.617369546857592" lon="120.63165260965965"><ele>26.0</ele><time>2026-03-29T08:02:00.001Z</time></trkpt><trkpt lat="15.617403584314273" lon="120.63177745236014"><ele>26.0</ele><time>2026-03-29T08:02:01.001Z</time></trkpt><trkpt lat="15.617439504068086" lon="120.63190294560852"><ele>26.0</ele><time>2026-03-29T08:02:02.001Z</time></trkpt><trkpt lat="15.617474793483078" lon="120.63202747161701"><ele>26.0</ele><time>2026-03-29T08:02:03.001Z</time></trkpt><trkpt lat="15.617508190550993" lon="120.63215192183951"><ele>26.0</ele><time>2026-03-29T08:02:04.001Z</time></trkpt><trkpt lat="15.617541263089826" lon="120.63227498299204"><ele>26.0</ele><time>2026-03-29T08:02:05.001Z</time></trkpt><trkpt lat="15.61757507518726" lon="120.63239915880573"><ele>26.0</ele><time>2026-03-29T08:02:06.001Z</time></trkpt><trkpt lat="15.617609594970341" lon="120.63252424701994"><ele>26.0</ele><time>2026-03-29T08:02:07.001Z</time></trkpt><trkpt lat="15.617644805170377" lon="120.63264893497546"><ele>26.0</ele><time>2026-03-29T08:02:08.001Z</time></trkpt><trkpt lat="15.617678607598396" lon="120.63277121538077"><ele>26.0</ele><time>2026-03-29T08:02:09.001Z</time></trkpt><trkpt lat="15.617710917820176" lon="120.63289104889097"><ele>26.0</ele><time>2026-03-29T08:02:10.001Z</time></trkpt><trkpt lat="15.617742854609627" lon="120.63300770974588"><ele>25.8</ele><time>2026-03-29T08:02:11.001Z</time></trkpt><trkpt lat="15.617773753085793" lon="120.63312018718293"><ele>25.6</ele><time>2026-03-29T08:02:12.001Z</time></trkpt><trkpt lat="15.617802916459269" lon="120.63322634199722"><ele>25.4</ele><time>2026-03-29T08:02:13.001Z</time></trkpt><trkpt lat="15.617829579848827" lon="120.6333229756047"><ele>25.2</ele><time>2026-03-29T08:02:14.001Z</time></trkpt><trkpt lat="15.617855129402928" lon="120.63341630345586"><ele>25.0</ele><time>2026-03-29T08:02:15.001Z</time></trkpt><trkpt lat="15.617881034805256" lon="120.63350526793774"><ele>25.6</ele><time>2026-03-29T08:02:16.001Z</time></trkpt><trkpt lat="15.617907441103457" lon="120.63359393978772"><ele>26.2</ele><time>2026-03-29T08:02:17.001Z</time></trkpt><trkpt lat="15.617935085708167" lon="120.63368219664048"><ele>26.799999999999997</ele><time>2026-03-29T08:02:18.001Z</time></trkpt><trkpt lat="15.617961582448185" lon="120.63377154803719"><ele>27.4</ele><time>2026-03-29T08:02:19.001Z</time></trkpt><trkpt lat="15.617987191994244" lon="120.63386373352994"><ele>28.0</ele><time>2026-03-29T08:02:20.001Z</time></trkpt><trkpt lat="15.618011479468237" lon="120.63395489986415"><ele>28.000000000000004</ele><time>2026-03-29T08:02:21.001Z</time></trkpt><trkpt lat="15.618035544829382" lon="120.6340429383345"><ele>28.0</ele><time>2026-03-29T08:02:22.001Z</time></trkpt><trkpt lat="15.618059206857797" lon="120.63411912086434"><ele>28.0</ele><time>2026-03-29T08:02:23.001Z</time></trkpt><trkpt lat="15.618081036601174" lon="120.63418377187388"><ele>28.0</ele><time>2026-03-29T08:02:24.001Z</time></trkpt><trkpt lat="15.618097668235126" lon="120.63429724820693"><ele>28.000000000000004</ele><time>2026-03-29T08:02:26.001Z</time></trkpt><trkpt lat="15.618050656908798" lon="120.63435694595144"><ele>28.0</ele><time>2026-03-29T08:02:27.001Z</time></trkpt><trkpt lat="15.618006038093021" lon="120.63440464755456"><ele>28.000000000000004</ele><time>2026-03-29T08:02:28.001Z</time></trkpt><trkpt lat="15.617946863092806" lon="120.63444369413075"><ele>28.0</ele><time>2026-03-29T08:02:29.001Z</time></trkpt><trkpt lat="15.617877049200096" lon="120.63447150094828"><ele>28.0</ele><time>2026-03-29T08:02:30.001Z</time></trkpt><trkpt lat="15.617799698323083" lon="120.63449264956367"><ele>28.0</ele><time>2026-03-29T08:02:31.001Z</time></trkpt><trkpt lat="15.61771564511253" lon="120.63450933371708"><ele>28.000000000000004</ele><time>2026-03-29T08:02:32.001Z</time></trkpt><trkpt lat="15.617627065145806" lon="120.63452410890555"><ele>28.0</ele><time>2026-03-29T08:02:33.001Z</time></trkpt><trkpt lat="15.617532767861958" lon="120.63453727911032"><ele>27.799999999999997</ele><time>2026-03-29T08:02:34.001Z</time></trkpt><trkpt lat="15.617436777209912" lon="120.63454921735598"><ele>27.599999999999998</ele><time>2026-03-29T08:02:35.001Z</time></trkpt><trkpt lat="15.617339394390404" lon="120.6345593712913"><ele>27.400000000000002</ele><time>2026-03-29T08:02:36.001Z</time></trkpt><trkpt lat="15.61724105918623" lon="120.63457108018106"><ele>27.200000000000003</ele><time>2026-03-29T08:02:37.001Z</time></trkpt><trkpt lat="15.617143088396956" lon="120.6345826415629"><ele>27.0</ele><time>2026-03-29T08:02:38.001Z</time></trkpt><trkpt lat="15.617045305202579" lon="120.63459093839185"><ele>26.6</ele><time>2026-03-29T08:02:39.001Z</time></trkpt><trkpt lat="15.616945807462004" lon="120.63459473460055"><ele>26.200000000000003</ele><time>2026-03-29T08:02:40.001Z</time></trkpt><trkpt lat="15.61684567199023" lon="120.63459454224554"><ele>25.8</ele><time>2026-03-29T08:02:41.001Z</time></trkpt><trkpt lat="15.616744984307308" lon="120.63459042291305"><ele>25.4</ele><time>2026-03-29T08:02:42.001Z</time></trkpt><trkpt lat="15.616647154074778" lon="120.63458146189076"><ele>25.0</ele><time>2026-03-29T08:02:43.001Z</time></trkpt><trkpt lat="15.616553042928885" lon="120.63456669372412"><ele>25.000000000000004</ele><time>2026-03-29T08:02:44.001Z</time></trkpt><trkpt lat="15.616461837613999" lon="120.63454294322801"><ele>25.0</ele><time>2026-03-29T08:02:45.001Z</time></trkpt><trkpt lat="15.616376901978327" lon="120.63450970916305"><ele>25.0</ele><time>2026-03-29T08:02:46.001Z</time></trkpt><trkpt lat="15.6162988507424" lon="120.63446691396138"><ele>25.0</ele><time>2026-03-29T08:02:47.001Z</time></trkpt><trkpt lat="15.616230062956888" lon="120.63441401728876"><ele>25.000000000000004</ele><time>2026-03-29T08:02:48.001Z</time></trkpt><trkpt lat="15.6161721205842" lon="120.63435452668206"><ele>25.0</ele><time>2026-03-29T08:02:49.001Z</time></trkpt><trkpt lat="15.616124384130623" lon="120.6342968549292"><ele>25.000000000000004</ele><time>2026-03-29T08:02:50.001Z</time></trkpt><trkpt lat="15.616082014700186" lon="120.63424342748816"><ele>25.0</ele><time>2026-03-29T08:02:51.001Z</time></trkpt><trkpt lat="15.6160079177502" lon="120.63415574687893"><ele>25.0</ele><time>2026-03-29T08:02:53.001Z</time></trkpt><trkpt lat="15.615954790766335" lon="120.63409552051473"><ele>25.0</ele><time>2026-03-29T08:02:55.001Z</time></trkpt><trkpt lat="15.615910163335869" lon="120.63404700922139"><ele>25.000000000000004</ele><time>2026-03-29T08:02:57.001Z</time></trkpt><trkpt lat="15.615858429260577" lon="120.63397262938051"><ele>25.0</ele><time>2026-03-29T08:02:59.001Z</time></trkpt><trkpt lat="15.615760073032604" lon="120.63387922929603"><ele>25.0</ele><time>2026-03-29T08:03:01.001Z</time></trkpt><trkpt lat="15.615712338851273" lon="120.63380825881927"><ele>25.0</ele><time>2026-03-29T08:03:02.001Z</time></trkpt><trkpt lat="15.615648255554772" lon="120.63374817211475"><ele>25.0</ele><time>2026-03-29T08:03:03.001Z</time></trkpt><trkpt lat="15.615580286067283" lon="120.63368407498929"><ele>25.0</ele><time>2026-03-29T08:03:04.001Z</time></trkpt><trkpt lat="15.615507059351403" lon="120.63361621724458"><ele>25.0</ele><time>2026-03-29T08:03:05.001Z</time></trkpt><trkpt lat="15.615427700663798" lon="120.63354667726246"><ele>24.75</ele><time>2026-03-29T08:03:06.001Z</time></trkpt><trkpt lat="15.615344976634173" lon="120.63347418831638"><ele>24.5</ele><time>2026-03-29T08:03:07.001Z</time></trkpt><trkpt lat="15.615257941195008" lon="120.63339962235946"><ele>24.25</ele><time>2026-03-29T08:03:08.001Z</time></trkpt><trkpt lat="15.615169285938903" lon="120.6333247442654"><ele>24.0</ele><time>2026-03-29T08:03:09.001Z</time></trkpt><trkpt lat="15.615079410818048" lon="120.63324906070699"><ele>24.0</ele><time>2026-03-29T08:03:10.001Z</time></trkpt><trkpt lat="15.61499110961625" lon="120.63317107544985"><ele>24.0</ele><time>2026-03-29T08:03:11.001Z</time></trkpt><trkpt lat="15.614901973922189" lon="120.63308916724725"><ele>24.0</ele><time>2026-03-29T08:03:12.001Z</time></trkpt><trkpt lat="15.614810951435784" lon="120.63300645390466"><ele>24.0</ele><time>2026-03-29T08:03:13.001Z</time></trkpt><trkpt lat="15.614698723027313" lon="120.63294680031547"><ele>24.0</ele><time>2026-03-29T08:03:14.001Z</time></trkpt><trkpt lat="15.614611726409972" lon="120.63285316276108"><ele>24.0</ele><time>2026-03-29T08:03:15.001Z</time></trkpt><trkpt lat="15.61452533870008" lon="120.63275617512807"><ele>24.0</ele><time>2026-03-29T08:03:16.001Z</time></trkpt><trkpt lat="15.614440311719703" lon="120.63265563718639"><ele>24.0</ele><time>2026-03-29T08:03:17.001Z</time></trkpt><trkpt lat="15.614356872956348" lon="120.63255067188322"><ele>24.0</ele><time>2026-03-29T08:03:18.001Z</time></trkpt><trkpt lat="15.614276603966626" lon="120.63244187290243"><ele>24.0</ele><time>2026-03-29T08:03:19.001Z</time></trkpt><trkpt lat="15.614203044940668" lon="120.63232660179048"><ele>24.0</ele><time>2026-03-29T08:03:20.001Z</time></trkpt><trkpt lat="15.614138854694646" lon="120.63220769441857"><ele>24.0</ele><time>2026-03-29T08:03:21.001Z</time></trkpt><trkpt lat="15.61408396703751" lon="120.63208324634076"><ele>24.25</ele><time>2026-03-29T08:03:22.001Z</time></trkpt><trkpt lat="15.614039501330291" lon="120.63195573438531"><ele>24.5</ele><time>2026-03-29T08:03:23.001Z</time></trkpt><trkpt lat="15.614000854550238" lon="120.63182489908502"><ele>24.75</ele><time>2026-03-29T08:03:24.001Z</time></trkpt><trkpt lat="15.613971473600381" lon="120.63169175634819"><ele>25.0</ele><time>2026-03-29T08:03:25.001Z</time></trkpt><trkpt lat="15.613951357945378" lon="120.63155531528732"><ele>25.0</ele><time>2026-03-29T08:03:26.001Z</time></trkpt><trkpt lat="15.613939651560095" lon="120.63141729608438"><ele>25.0</ele><time>2026-03-29T08:03:27.001Z</time></trkpt><trkpt lat="15.613931575399427" lon="120.63127995887103"><ele>25.0</ele><time>2026-03-29T08:03:28.001Z</time></trkpt><trkpt lat="15.613925227803206" lon="120.63114320096504"><ele>25.0</ele><time>2026-03-29T08:03:29.001Z</time></trkpt><trkpt lat="15.613919682024997" lon="120.63100737444223"><ele>24.5</ele><time>2026-03-29T08:03:30.001Z</time></trkpt><trkpt lat="15.61391462430336" lon="120.63087486019575"><ele>24.0</ele><time>2026-03-29T08:03:31.001Z</time></trkpt><trkpt lat="15.613909973355579" lon="120.63074466909967"><ele>23.5</ele><time>2026-03-29T08:03:32.001Z</time></trkpt><trkpt lat="15.613906628884028" lon="120.63061778523185"><ele>23.0</ele><time>2026-03-29T08:03:33.001Z</time></trkpt><trkpt lat="15.613904431643713" lon="120.63049182088514"><ele>23.0</ele><time>2026-03-29T08:03:34.001Z</time></trkpt><trkpt lat="15.613910359047164" lon="120.63036955480811"><ele>23.0</ele><time>2026-03-29T08:03:35.001Z</time></trkpt><trkpt lat="15.613933183287898" lon="120.63025367462019"><ele>23.0</ele><time>2026-03-29T08:03:36.001Z</time></trkpt><trkpt lat="15.613974617031266" lon="120.63015125873524"><ele>23.0</ele><time>2026-03-29T08:03:37.001Z</time></trkpt><trkpt lat="15.614031595310424" lon="120.6300599738101"><ele>23.0</ele><time>2026-03-29T08:03:38.001Z</time></trkpt><trkpt lat="15.614104090469121" lon="120.6299855119294"><ele>23.2</ele><time>2026-03-29T08:03:39.001Z</time></trkpt><trkpt lat="15.614190083440203" lon="120.62992949544999"><ele>23.4</ele><time>2026-03-29T08:03:40.001Z</time></trkpt><trkpt lat="15.61428573054587" lon="120.62989712039015"><ele>23.599999999999998</ele><time>2026-03-29T08:03:41.001Z</time></trkpt><trkpt lat="15.614385865552729" lon="120.62988473825868"><ele>23.799999999999997</ele><time>2026-03-29T08:03:42.001Z</time></trkpt><trkpt lat="15.61448467931234" lon="120.6298966606006"><ele>24.0</ele><time>2026-03-29T08:03:43.001Z</time></trkpt><trkpt lat="15.61457917947922" lon="120.62992972613084"><ele>24.0</ele><time>2026-03-29T08:03:44.001Z</time></trkpt><trkpt lat="15.61466497891086" lon="120.62998271141083"><ele>24.0</ele><time>2026-03-29T08:03:45.001Z</time></trkpt><trkpt lat="15.61473634724613" lon="120.63005527694679"><ele>24.0</ele><time>2026-03-29T08:03:46.001Z</time></trkpt><trkpt lat="15.614803022953057" lon="120.63013440201244"><ele>24.0</ele><time>2026-03-29T08:03:47.001Z</time></trkpt><trkpt lat="15.61483798499864" lon="120.63023308273151"><ele>24.0</ele><time>2026-03-29T08:03:48.001Z</time></trkpt><trkpt lat="15.61483430331578" lon="120.63033689618902"><ele>24.0</ele><time>2026-03-29T08:03:49.001Z</time></trkpt><trkpt lat="15.614828951465991" lon="120.63043286922257"><ele>24.0</ele><time>2026-03-29T08:03:50.001Z</time></trkpt><trkpt lat="15.614805070359001" lon="120.63052308143669"><ele>24.0</ele><time>2026-03-29T08:03:51.001Z</time></trkpt><trkpt lat="15.614764768042079" lon="120.63060642323408"><ele>24.0</ele><time>2026-03-29T08:03:52.001Z</time></trkpt><trkpt lat="15.614707374350298" lon="120.6306806034335"><ele>24.0</ele><time>2026-03-29T08:03:53.001Z</time></trkpt><trkpt lat="15.614636716450473" lon="120.6307416587311"><ele>24.0</ele><time>2026-03-29T08:03:54.001Z</time></trkpt><trkpt lat="15.614554104638243" lon="120.63078971614274"><ele>24.0</ele><time>2026-03-29T08:03:55.001Z</time></trkpt><trkpt lat="15.614462561002643" lon="120.63082349837208"><ele>24.0</ele><time>2026-03-29T08:03:56.001Z</time></trkpt><trkpt lat="15.614362422331482" lon="120.63084533669448"><ele>24.0</ele><time>2026-03-29T08:03:57.001Z</time></trkpt><trkpt lat="15.614256717272886" lon="120.63085809086083"><ele>24.0</ele><time>2026-03-29T08:03:58.001Z</time></trkpt><trkpt lat="15.6141455271597" lon="120.63086644099715"><ele>23.75</ele><time>2026-03-29T08:03:59.001Z</time></trkpt><trkpt lat="15.61402877422479" lon="120.6308719720235"><ele>23.5</ele><time>2026-03-29T08:04:00.001Z</time></trkpt><trkpt lat="15.613907162099958" lon="120.63087706619727"><ele>23.25</ele><time>2026-03-29T08:04:01.001Z</time></trkpt><trkpt lat="15.613779899042484" lon="120.63088181474504"><ele>23.0</ele><time>2026-03-29T08:04:02.001Z</time></trkpt><trkpt lat="15.613645361219241" lon="120.63088511044195"><ele>23.5</ele><time>2026-03-29T08:04:03.001Z</time></trkpt><trkpt lat="15.613510851242733" lon="120.6308863657718"><ele>24.0</ele><time>2026-03-29T08:04:04.001Z</time></trkpt><trkpt lat="15.613372749361403" lon="120.63089244097209"><ele>24.5</ele><time>2026-03-29T08:04:05.001Z</time></trkpt><trkpt lat="15.61322841927483" lon="120.63089618920826"><ele>25.0</ele><time>2026-03-29T08:04:06.001Z</time></trkpt><trkpt lat="15.613080402964707" lon="120.63090209019468"><ele>25.0</ele><time>2026-03-29T08:04:07.001Z</time></trkpt><trkpt lat="15.612928008271583" lon="120.63091102053065"><ele>25.0</ele><time>2026-03-29T08:04:08.001Z</time></trkpt><trkpt lat="15.612772070629248" lon="120.63092006364468"><ele>25.0</ele><time>2026-03-29T08:04:09.001Z</time></trkpt><trkpt lat="15.612611253097574" lon="120.6309279036873"><ele>25.0</ele><time>2026-03-29T08:04:10.001Z</time></trkpt><trkpt lat="15.612446830805753" lon="120.63093297060857"><ele>25.0</ele><time>2026-03-29T08:04:11.001Z</time></trkpt><trkpt lat="15.612279358498192" lon="120.63093642108863"><ele>25.0</ele><time>2026-03-29T08:04:12.001Z</time></trkpt><trkpt lat="15.612110604926933" lon="120.6309383193443"><ele>25.333333333333336</ele><time>2026-03-29T08:04:13.001Z</time></trkpt><trkpt lat="15.611939258420485" lon="120.63094231242806"><ele>25.666666666666664</ele><time>2026-03-29T08:04:14.001Z</time></trkpt><trkpt lat="15.611765782666437" lon="120.63094530029433"><ele>26.0</ele><time>2026-03-29T08:04:15.001Z</time></trkpt><trkpt lat="15.61158993447505" lon="120.6309496699942"><ele>26.0</ele><time>2026-03-29T08:04:16.001Z</time></trkpt><trkpt lat="15.611411189915454" lon="120.63095130038776"><ele>26.0</ele><time>2026-03-29T08:04:17.001Z</time></trkpt><trkpt lat="15.611230713427176" lon="120.63095171019606"><ele>26.0</ele><time>2026-03-29T08:04:18.001Z</time></trkpt><trkpt lat="15.611048377342565" lon="120.63095246756637"><ele>25.666666666666664</ele><time>2026-03-29T08:04:19.001Z</time></trkpt><trkpt lat="15.610864884416095" lon="120.63095311478767"><ele>25.333333333333336</ele><time>2026-03-29T08:04:20.001Z</time></trkpt><trkpt lat="15.610680501383897" lon="120.63095434693237"><ele>25.0</ele><time>2026-03-29T08:04:21.001Z</time></trkpt><trkpt lat="15.610494891017776" lon="120.63095264349165"><ele>24.666666666666668</ele><time>2026-03-29T08:04:22.001Z</time></trkpt><trkpt lat="15.610307893769514" lon="120.63095142345082"><ele>24.333333333333336</ele><time>2026-03-29T08:04:23.001Z</time></trkpt><trkpt lat="15.610120695858798" lon="120.63094976288195"><ele>24.0</ele><time>2026-03-29T08:04:24.001Z</time></trkpt><trkpt lat="15.60993190709734" lon="120.63094905057807"><ele>24.0</ele><time>2026-03-29T08:04:25.001Z</time></trkpt><trkpt lat="15.609742670630267" lon="120.63094846914605"><ele>24.0</ele><time>2026-03-29T08:04:26.001Z</time></trkpt><trkpt lat="15.609551958139342" lon="120.63094793416757"><ele>24.0</ele><time>2026-03-29T08:04:27.001Z</time></trkpt><trkpt lat="15.609360498360502" lon="120.63094757313286"><ele>24.0</ele><time>2026-03-29T08:04:28.001Z</time></trkpt><trkpt lat="15.609167617214517" lon="120.63094799946342"><ele>24.0</ele><time>2026-03-29T08:04:29.001Z</time></trkpt><trkpt lat="15.608972238567802" lon="120.63094781830443"><ele>24.0</ele><time>2026-03-29T08:04:30.001Z</time></trkpt><trkpt lat="15.608774841337485" lon="120.63094854041411"><ele>24.666666666666664</ele><time>2026-03-29T08:04:31.001Z</time></trkpt><trkpt lat="15.608575962986507" lon="120.63094899522211"><ele>25.333333333333332</ele><time>2026-03-29T08:04:32.001Z</time></trkpt><trkpt lat="15.60837493869755" lon="120.63094831289048"><ele>26.0</ele><time>2026-03-29T08:04:33.001Z</time></trkpt><trkpt lat="15.608171529779046" lon="120.63094753642872"><ele>26.0</ele><time>2026-03-29T08:04:34.001Z</time></trkpt><trkpt lat="15.607965595269878" lon="120.6309484934282"><ele>26.0</ele><time>2026-03-29T08:04:35.001Z</time></trkpt><trkpt lat="15.60775835462689" lon="120.63094907351223"><ele>26.0</ele><time>2026-03-29T08:04:36.001Z</time></trkpt><trkpt lat="15.607549615002716" lon="120.63095052903007"><ele>26.333333333333332</ele><time>2026-03-29T08:04:37.001Z</time></trkpt><trkpt lat="15.607339454072699" lon="120.63095189055197"><ele>26.666666666666664</ele><time>2026-03-29T08:04:38.001Z</time></trkpt><trkpt lat="15.607127197822573" lon="120.6309531203653"><ele>27.0</ele><time>2026-03-29T08:04:39.001Z</time></trkpt><trkpt lat="15.60691363592242" lon="120.63095434110032"><ele>26.0</ele><time>2026-03-29T08:04:40.001Z</time></trkpt><trkpt lat="15.60669945957691" lon="120.63095447235538"><ele>25.0</ele><time>2026-03-29T08:04:41.001Z</time></trkpt><trkpt lat="15.606483823015028" lon="120.63095486334402"><ele>24.0</ele><time>2026-03-29T08:04:42.001Z</time></trkpt><trkpt lat="15.606267118054816" lon="120.63095468743454"><ele>25.0</ele><time>2026-03-29T08:04:43.001Z</time></trkpt><trkpt lat="15.606049560819182" lon="120.6309541649615"><ele>26.0</ele><time>2026-03-29T08:04:44.001Z</time></trkpt><trkpt lat="15.605830364253285" lon="120.63095369702734"><ele>27.0</ele><time>2026-03-29T08:04:45.001Z</time></trkpt><trkpt lat="15.605610804114402" lon="120.63095385539665"><ele>27.0</ele><time>2026-03-29T08:04:46.001Z</time></trkpt><trkpt lat="15.605389919526418" lon="120.63095336817038"><ele>27.0</ele><time>2026-03-29T08:04:47.001Z</time></trkpt><trkpt lat="15.605168382914448" lon="120.63095320906356"><ele>27.0</ele><time>2026-03-29T08:04:48.001Z</time></trkpt><trkpt lat="15.604945653919208" lon="120.63095251699603"><ele>27.333333333333336</ele><time>2026-03-29T08:04:49.001Z</time></trkpt><trkpt lat="15.604722208309061" lon="120.63095196901718"><ele>27.666666666666668</ele><time>2026-03-29T08:04:50.001Z</time></trkpt><trkpt lat="15.604498122917843" lon="120.63095165299299"><ele>28.0</ele><time>2026-03-29T08:04:51.001Z</time></trkpt><trkpt lat="15.604273728182985" lon="120.63095181415152"><ele>27.666666666666668</ele><time>2026-03-29T08:04:52.001Z</time></trkpt><trkpt lat="15.60404863277427" lon="120.63095127838962"><ele>27.333333333333336</ele><time>2026-03-29T08:04:53.001Z</time></trkpt><trkpt lat="15.6038244371239" lon="120.63095079039287"><ele>27.0</ele><time>2026-03-29T08:04:54.001Z</time></trkpt><trkpt lat="15.60360049327438" lon="120.63095144948304"><ele>27.0</ele><time>2026-03-29T08:04:55.001Z</time></trkpt><trkpt lat="15.603376094557309" lon="120.6309523157761"><ele>27.0</ele><time>2026-03-29T08:04:56.001Z</time></trkpt><trkpt lat="15.603152054924209" lon="120.63095320366952"><ele>27.0</ele><time>2026-03-29T08:04:57.001Z</time></trkpt><trkpt lat="15.602927542338898" lon="120.63095439226149"><ele>27.0</ele><time>2026-03-29T08:04:58.001Z</time></trkpt><trkpt lat="15.6027016941447" lon="120.63095704891344"><ele>27.0</ele><time>2026-03-29T08:04:59.001Z</time></trkpt><trkpt lat="15.602475615830533" lon="120.63095780521444"><ele>27.0</ele><time>2026-03-29T08:05:00.001Z</time></trkpt><trkpt lat="15.602248610663864" lon="120.63095756481607"><ele>27.0</ele><time>2026-03-29T08:05:01.001Z</time></trkpt><trkpt lat="15.602021804116335" lon="120.63095741777494"><ele>26.5</ele><time>2026-03-29T08:05:02.001Z</time></trkpt><trkpt lat="15.601793675733923" lon="120.63095786925042"><ele>26.0</ele><time>2026-03-29T08:05:03.001Z</time></trkpt><trkpt lat="15.601565697111118" lon="120.63095721934909"><ele>26.0</ele><time>2026-03-29T08:05:04Z</time></trkpt><trkpt lat="15.601336788389917" lon="120.63095774534307"><ele>26.0</ele><time>2026-03-29T08:05:05Z</time></trkpt><trkpt lat="15.601107460697252" lon="120.63095821782339"><ele>25.5</ele><time>2026-03-29T08:05:06Z</time></trkpt><trkpt lat="15.600878461432226" lon="120.63095858578245"><ele>25.0</ele><time>2026-03-29T08:05:07Z</time></trkpt><trkpt lat="15.600649055066128" lon="120.63095919567883"><ele>25.0</ele><time>2026-03-29T08:05:08Z</time></trkpt><trkpt lat="15.600420078725634" lon="120.63095866211586"><ele>25.0</ele><time>2026-03-29T08:05:09Z</time></trkpt><trkpt lat="15.6001924169177" lon="120.63095828484526"><ele>26.5</ele><time>2026-03-29T08:05:10Z</time></trkpt><trkpt lat="15.599966092725222" lon="120.63095799016791"><ele>28.0</ele><time>2026-03-29T08:05:11Z</time></trkpt><trkpt lat="15.599740722781926" lon="120.63095859332174"><ele>28.0</ele><time>2026-03-29T08:05:12Z</time></trkpt><trkpt lat="15.599516102329787" lon="120.63095920748448"><ele>28.0</ele><time>2026-03-29T08:05:13Z</time></trkpt><trkpt lat="15.599292858418808" lon="120.63095938117719"><ele>28.0</ele><time>2026-03-29T08:05:14Z</time></trkpt><trkpt lat="15.599070330798055" lon="120.63095944422808"><ele>27.333333333333336</ele><time>2026-03-29T08:05:15Z</time></trkpt><trkpt lat="15.598848616819843" lon="120.63095867206042"><ele>26.666666666666664</ele><time>2026-03-29T08:05:16Z</time></trkpt><trkpt lat="15.598627412681095" lon="120.63095736271492"><ele>26.0</ele><time>2026-03-29T08:05:17Z</time></trkpt><trkpt lat="15.598406209156906" lon="120.6309567863215"><ele>26.0</ele><time>2026-03-29T08:05:18Z</time></trkpt><trkpt lat="15.598183652223089" lon="120.63095737802134"><ele>26.0</ele><time>2026-03-29T08:05:19Z</time></trkpt><trkpt lat="15.597959263635913" lon="120.63095759559165"><ele>26.0</ele><time>2026-03-29T08:05:20Z</time></trkpt><trkpt lat="15.597732824388423" lon="120.63095806142323"><ele>26.5</ele><time>2026-03-29T08:05:21Z</time></trkpt><trkpt lat="15.597505659021976" lon="120.630957515054"><ele>27.0</ele><time>2026-03-29T08:05:22Z</time></trkpt><trkpt lat="15.59727712154918" lon="120.63095693769057"><ele>27.0</ele><time>2026-03-29T08:05:23Z</time></trkpt><trkpt lat="15.597047690311136" lon="120.63095579144438"><ele>27.0</ele><time>2026-03-29T08:05:24Z</time></trkpt><trkpt lat="15.59681713546844" lon="120.63095530385738"><ele>27.0</ele><time>2026-03-29T08:05:25Z</time></trkpt><trkpt lat="15.596585530819151" lon="120.63095624857179"><ele>27.0</ele><time>2026-03-29T08:05:26Z</time></trkpt><trkpt lat="15.596352024029768" lon="120.63095659192564"><ele>27.0</ele><time>2026-03-29T08:05:27Z</time></trkpt><trkpt lat="15.59611768301739" lon="120.63095795737746"><ele>27.0</ele><time>2026-03-29T08:05:28Z</time></trkpt><trkpt lat="15.595884378407858" lon="120.63095753903765"><ele>27.0</ele><time>2026-03-29T08:05:29Z</time></trkpt><trkpt lat="15.595650890681805" lon="120.6309570711038"><ele>27.0</ele><time>2026-03-29T08:05:30Z</time></trkpt><trkpt lat="15.59541652885617" lon="120.63095744868794"><ele>27.0</ele><time>2026-03-29T08:05:31Z</time></trkpt><trkpt lat="15.5951814899073" lon="120.63095864953603"><ele>27.0</ele><time>2026-03-29T08:05:32Z</time></trkpt><trkpt lat="15.59494539875064" lon="120.63096068171504"><ele>27.0</ele><time>2026-03-29T08:05:33Z</time></trkpt><trkpt lat="15.594707835202362" lon="120.63096317308316"><ele>27.0</ele><time>2026-03-29T08:05:34Z</time></trkpt><trkpt lat="15.594469153586836" lon="120.6309644427065"><ele>27.5</ele><time>2026-03-29T08:05:35Z</time></trkpt><trkpt lat="15.594229438260177" lon="120.63096498196165"><ele>28.0</ele><time>2026-03-29T08:05:36Z</time></trkpt><trkpt lat="15.593989012320801" lon="120.63096494590408"><ele>28.0</ele><time>2026-03-29T08:05:37Z</time></trkpt><trkpt lat="15.593749449856222" lon="120.63096430663124"><ele>28.0</ele><time>2026-03-29T08:05:38Z</time></trkpt><trkpt lat="15.59350936034844" lon="120.63096321114537"><ele>27.0</ele><time>2026-03-29T08:05:39Z</time></trkpt><trkpt lat="15.59327039327198" lon="120.63096162623238"><ele>26.0</ele><time>2026-03-29T08:05:40Z</time></trkpt><trkpt lat="15.593031086880249" lon="120.63096021241643"><ele>26.0</ele><time>2026-03-29T08:05:41Z</time></trkpt><trkpt lat="15.592793323837775" lon="120.63095961244011"><ele>26.0</ele><time>2026-03-29T08:05:42Z</time></trkpt><trkpt lat="15.592556932486783" lon="120.63095747850933"><ele>26.0</ele><time>2026-03-29T08:05:43Z</time></trkpt><trkpt lat="15.592321217625123" lon="120.63095641705404"><ele>26.0</ele><time>2026-03-29T08:05:44Z</time></trkpt><trkpt lat="15.592086943833868" lon="120.63095515859473"><ele>26.5</ele><time>2026-03-29T08:05:45Z</time></trkpt><trkpt lat="15.591854223515012" lon="120.63095376130939"><ele>27.0</ele><time>2026-03-29T08:05:46Z</time></trkpt><trkpt lat="15.59162394092389" lon="120.6309526104048"><ele>27.0</ele><time>2026-03-29T08:05:47Z</time></trkpt><trkpt lat="15.591395508331974" lon="120.63095237610652"><ele>27.0</ele><time>2026-03-29T08:05:48Z</time></trkpt><trkpt lat="15.59116990195289" lon="120.63095188770725"><ele>27.666666666666664</ele><time>2026-03-29T08:05:49Z</time></trkpt><trkpt lat="15.590948154920785" lon="120.63095141840095"><ele>28.333333333333332</ele><time>2026-03-29T08:05:50Z</time></trkpt><trkpt lat="15.590729902038653" lon="120.63095077497199"><ele>29.0</ele><time>2026-03-29T08:05:51Z</time></trkpt><trkpt lat="15.590514494170325" lon="120.63095150384856"><ele>28.666666666666664</ele><time>2026-03-29T08:05:52Z</time></trkpt><trkpt lat="15.590300350817433" lon="120.63095262262345"><ele>28.333333333333336</ele><time>2026-03-29T08:05:53Z</time></trkpt><trkpt lat="15.59008610107439" lon="120.63095267711604"><ele>28.0</ele><time>2026-03-29T08:05:54Z</time></trkpt><trkpt lat="15.589873035867427" lon="120.63095242128902"><ele>28.0</ele><time>2026-03-29T08:05:55Z</time></trkpt><trkpt lat="15.589659615139638" lon="120.63095085717875"><ele>28.0</ele><time>2026-03-29T08:05:56Z</time></trkpt><trkpt lat="15.589445186094137" lon="120.63095076705419"><ele>28.0</ele><time>2026-03-29T08:05:57Z</time></trkpt><trkpt lat="15.589228770671475" lon="120.63095090312247"><ele>28.0</ele><time>2026-03-29T08:05:58Z</time></trkpt><trkpt lat="15.589011671039936" lon="120.63094901616329"><ele>28.0</ele><time>2026-03-29T08:05:59Z</time></trkpt><trkpt lat="15.58879349672104" lon="120.63094880362173"><ele>28.0</ele><time>2026-03-29T08:06:00Z</time></trkpt><trkpt lat="15.588573680457102" lon="120.63094792335222"><ele>28.333333333333336</ele><time>2026-03-29T08:06:01Z</time></trkpt><trkpt lat="15.588353519214621" lon="120.63094744531298"><ele>28.666666666666664</ele><time>2026-03-29T08:06:02Z</time></trkpt><trkpt lat="15.588131515085012" lon="120.63094705130248"><ele>29.0</ele><time>2026-03-29T08:06:03Z</time></trkpt><trkpt lat="15.5879090775754" lon="120.63094698202826"><ele>29.333333333333332</ele><time>2026-03-29T08:06:04.001Z</time></trkpt><trkpt lat="15.58768636737204" lon="120.6309490081256"><ele>29.666666666666664</ele><time>2026-03-29T08:06:05.001Z</time></trkpt><trkpt lat="15.5874623056754" lon="120.63095028319627"><ele>30.0</ele><time>2026-03-29T08:06:06.001Z</time></trkpt><trkpt lat="15.587238352201163" lon="120.63095036639112"><ele>30.0</ele><time>2026-03-29T08:06:07.001Z</time></trkpt><trkpt lat="15.587014487762007" lon="120.63095105639553"><ele>30.0</ele><time>2026-03-29T08:06:08.001Z</time></trkpt><trkpt lat="15.586789376946241" lon="120.63095136778425"><ele>30.0</ele><time>2026-03-29T08:06:09.001Z</time></trkpt><trkpt lat="15.586564266588676" lon="120.63095186704899"><ele>30.0</ele><time>2026-03-29T08:06:10.001Z</time></trkpt><trkpt lat="15.586338372275886" lon="120.63095232867707"><ele>30.0</ele><time>2026-03-29T08:06:11.001Z</time></trkpt><trkpt lat="15.586111962868683" lon="120.63095196955732"><ele>31.0</ele><time>2026-03-29T08:06:12.001Z</time></trkpt><trkpt lat="15.585884048519729" lon="120.63095216734486"><ele>32.0</ele><time>2026-03-29T08:06:13.001Z</time></trkpt><trkpt lat="15.585653907629164" lon="120.63095297156798"><ele>32.0</ele><time>2026-03-29T08:06:14.001Z</time></trkpt><trkpt lat="15.58542114666095" lon="120.6309513186386"><ele>32.0</ele><time>2026-03-29T08:06:15.001Z</time></trkpt><trkpt lat="15.585186526918818" lon="120.63095143903759"><ele>31.5</ele><time>2026-03-29T08:06:16.001Z</time></trkpt><trkpt lat="15.584950092593793" lon="120.63095295629847"><ele>31.0</ele><time>2026-03-29T08:06:17.001Z</time></trkpt><trkpt lat="15.584711288395628" lon="120.63095533598938"><ele>30.0</ele><time>2026-03-29T08:06:18.001Z</time></trkpt><trkpt lat="15.584470196408686" lon="120.63095894784496"><ele>29.0</ele><time>2026-03-29T08:06:19.001Z</time></trkpt><trkpt lat="15.584226422956348" lon="120.63096408371601"><ele>29.0</ele><time>2026-03-29T08:06:20.001Z</time></trkpt><trkpt lat="15.583978767757412" lon="120.63096964866023"><ele>29.0</ele><time>2026-03-29T08:06:21.001Z</time></trkpt><trkpt lat="15.583726965767848" lon="120.63097622394562"><ele>30.5</ele><time>2026-03-29T08:06:22.001Z</time></trkpt><trkpt lat="15.583471818460737" lon="120.63098270665012"><ele>32.0</ele><time>2026-03-29T08:06:23.001Z</time></trkpt><trkpt lat="15.583213040706283" lon="120.6309904570684"><ele>32.0</ele><time>2026-03-29T08:06:24.001Z</time></trkpt><trkpt lat="15.582952498724941" lon="120.63099770916871"><ele>32.0</ele><time>2026-03-29T08:06:25.001Z</time></trkpt><trkpt lat="15.582690588702496" lon="120.63100536205293"><ele>31.0</ele><time>2026-03-29T08:06:26.001Z</time></trkpt><trkpt lat="15.582427075513857" lon="120.63101385757015"><ele>30.0</ele><time>2026-03-29T08:06:27.001Z</time></trkpt><trkpt lat="15.582163046952017" lon="120.63102425453854"><ele>30.5</ele><time>2026-03-29T08:06:28.001Z</time></trkpt><trkpt lat="15.58189851562671" lon="120.63103540943975"><ele>31.0</ele><time>2026-03-29T08:06:29.001Z</time></trkpt><trkpt lat="15.5816348658331" lon="120.63104792687419"><ele>31.0</ele><time>2026-03-29T08:06:30.001Z</time></trkpt><trkpt lat="15.581375383128268" lon="120.63105945790592"><ele>31.0</ele><time>2026-03-29T08:06:31.001Z</time></trkpt><trkpt lat="15.581121681166817" lon="120.63107258282618"><ele>31.5</ele><time>2026-03-29T08:06:32.001Z</time></trkpt><trkpt lat="15.58087311399605" lon="120.63108592553375"><ele>32.0</ele><time>2026-03-29T08:06:33.001Z</time></trkpt><trkpt lat="15.580627727934813" lon="120.63110099434603"><ele>32.0</ele><time>2026-03-29T08:06:34.001Z</time></trkpt><trkpt lat="15.580385086198572" lon="120.63111793059986"><ele>32.0</ele><time>2026-03-29T08:06:35.001Z</time></trkpt><trkpt lat="15.580144722480503" lon="120.63113418062862"><ele>33.0</ele><time>2026-03-29T08:06:36.001Z</time></trkpt><trkpt lat="15.579905450051962" lon="120.63114989380723"><ele>34.0</ele><time>2026-03-29T08:06:37.001Z</time></trkpt><trkpt lat="15.579665937482254" lon="120.63116596026678"><ele>32.0</ele><time>2026-03-29T08:06:38.001Z</time></trkpt><trkpt lat="15.579423962448924" lon="120.63118438051303"><ele>30.0</ele><time>2026-03-29T08:06:39.001Z</time></trkpt><trkpt lat="15.579179083244863" lon="120.63120480214623"><ele>30.0</ele><time>2026-03-29T08:06:40.001Z</time></trkpt><trkpt lat="15.578930448676676" lon="120.63122509063228"><ele>30.0</ele><time>2026-03-29T08:06:41.001Z</time></trkpt><trkpt lat="15.578678276636444" lon="120.63124960572998"><ele>31.0</ele><time>2026-03-29T08:06:42.001Z</time></trkpt><trkpt lat="15.578423852157526" lon="120.63127448552567"><ele>32.0</ele><time>2026-03-29T08:06:43.001Z</time></trkpt><trkpt lat="15.578167220108558" lon="120.63130291246237"><ele>32.0</ele><time>2026-03-29T08:06:44.001Z</time></trkpt><trkpt lat="15.577908845926412" lon="120.63133159228019"><ele>32.0</ele><time>2026-03-29T08:06:45.001Z</time></trkpt><trkpt lat="15.577648388145242" lon="120.63136333645934"><ele>31.5</ele><time>2026-03-29T08:06:46.001Z</time></trkpt><trkpt lat="15.577385711612278" lon="120.63139524950255"><ele>31.0</ele><time>2026-03-29T08:06:47.001Z</time></trkpt><trkpt lat="15.577121959825575" lon="120.63142920030502"><ele>30.5</ele><time>2026-03-29T08:06:48.001Z</time></trkpt><trkpt lat="15.576856932912621" lon="120.6314621539918"><ele>30.0</ele><time>2026-03-29T08:06:49.001Z</time></trkpt><trkpt lat="15.576590801057227" lon="120.63149654961055"><ele>30.0</ele><time>2026-03-29T08:06:50.001Z</time></trkpt><trkpt lat="15.576324928562224" lon="120.6315312198808"><ele>30.0</ele><time>2026-03-29T08:06:51.001Z</time></trkpt><trkpt lat="15.576059787343977" lon="120.63156743511371"><ele>30.5</ele><time>2026-03-29T08:06:52.001Z</time></trkpt><trkpt lat="15.575795991810836" lon="120.63160537650128"><ele>31.0</ele><time>2026-03-29T08:06:53.001Z</time></trkpt><trkpt lat="15.57553371273601" lon="120.6316438436599"><ele>31.5</ele><time>2026-03-29T08:06:54.001Z</time></trkpt><trkpt lat="15.575273826093383" lon="120.63168262259168"><ele>32.0</ele><time>2026-03-29T08:06:55.001Z</time></trkpt><trkpt lat="15.575015559946953" lon="120.63172229314587"><ele>32.0</ele><time>2026-03-29T08:06:56.001Z</time></trkpt><trkpt lat="15.574759428797737" lon="120.63176244737127"><ele>32.0</ele><time>2026-03-29T08:06:57.001Z</time></trkpt><trkpt lat="15.574505352445474" lon="120.63180273983534"><ele>32.5</ele><time>2026-03-29T08:06:58.001Z</time></trkpt><trkpt lat="15.574254949027019" lon="120.63184432639902"><ele>33.0</ele><time>2026-03-29T08:06:59.001Z</time></trkpt><trkpt lat="15.574008108392306" lon="120.6318866822641"><ele>33.0</ele><time>2026-03-29T08:07:00.001Z</time></trkpt><trkpt lat="15.573765615772164" lon="120.63192946529553"><ele>33.0</ele><time>2026-03-29T08:07:01Z</time></trkpt><trkpt lat="15.573525901485118" lon="120.63197238290839"><ele>32.5</ele><time>2026-03-29T08:07:02Z</time></trkpt><trkpt lat="15.57329050559464" lon="120.63201511279611"><ele>32.0</ele><time>2026-03-29T08:07:03Z</time></trkpt><trkpt lat="15.573059147050575" lon="120.63205826673622"><ele>31.0</ele><time>2026-03-29T08:07:04Z</time></trkpt><trkpt lat="15.572829595404087" lon="120.63210244806109"><ele>30.0</ele><time>2026-03-29T08:07:05Z</time></trkpt><trkpt lat="15.572601043655336" lon="120.63214742848358"><ele>30.0</ele><time>2026-03-29T08:07:06Z</time></trkpt><trkpt lat="15.572373859856073" lon="120.63219255332504"><ele>30.0</ele><time>2026-03-29T08:07:07Z</time></trkpt><trkpt lat="15.572146109750623" lon="120.63223892993744"><ele>30.5</ele><time>2026-03-29T08:07:08Z</time></trkpt><trkpt lat="15.571918522393348" lon="120.63228468374083"><ele>31.0</ele><time>2026-03-29T08:07:09Z</time></trkpt><trkpt lat="15.571691321014976" lon="120.63233323161211"><ele>31.0</ele><time>2026-03-29T08:07:10Z</time></trkpt><trkpt lat="15.571465054061248" lon="120.6323823171323"><ele>31.0</ele><time>2026-03-29T08:07:11Z</time></trkpt><trkpt lat="15.571240145137812" lon="120.63243101133882"><ele>31.0</ele><time>2026-03-29T08:07:12Z</time></trkpt><trkpt lat="15.57101991533595" lon="120.63248182530332"><ele>31.0</ele><time>2026-03-29T08:07:13Z</time></trkpt><trkpt lat="15.57080235408138" lon="120.63253124605554"><ele>31.0</ele><time>2026-03-29T08:07:14Z</time></trkpt><trkpt lat="15.570588369375796" lon="120.6325787765655"><ele>31.0</ele><time>2026-03-29T08:07:15Z</time></trkpt><trkpt lat="15.570377342518842" lon="120.63262752120333"><ele>31.0</ele><time>2026-03-29T08:07:16Z</time></trkpt><trkpt lat="15.57016655759609" lon="120.6326754299745"><ele>31.0</ele><time>2026-03-29T08:07:17Z</time></trkpt><trkpt lat="15.56995674737288" lon="120.63272277404967"><ele>31.0</ele><time>2026-03-29T08:07:18Z</time></trkpt><trkpt lat="15.569747878449082" lon="120.63277200841509"><ele>31.0</ele><time>2026-03-29T08:07:19Z</time></trkpt><trkpt lat="15.569538721512876" lon="120.63282655486512"><ele>31.0</ele><time>2026-03-29T08:07:20Z</time></trkpt><trkpt lat="15.569328276026303" lon="120.63288045485992"><ele>31.0</ele><time>2026-03-29T08:07:21Z</time></trkpt><trkpt lat="15.56911589605944" lon="120.63293423193757"><ele>31.0</ele><time>2026-03-29T08:07:22Z</time></trkpt><trkpt lat="15.56890225607679" lon="120.63299055875638"><ele>31.0</ele><time>2026-03-29T08:07:23Z</time></trkpt><trkpt lat="15.56868701531793" lon="120.63304706369195"><ele>30.5</ele><time>2026-03-29T08:07:24Z</time></trkpt><trkpt lat="15.568469260340096" lon="120.63310553054961"><ele>30.0</ele><time>2026-03-29T08:07:25Z</time></trkpt><trkpt lat="15.568249236279485" lon="120.63316730986116"><ele>30.0</ele><time>2026-03-29T08:07:26Z</time></trkpt><trkpt lat="15.568026379896063" lon="120.6332284438377"><ele>30.0</ele><time>2026-03-29T08:07:27Z</time></trkpt><trkpt lat="15.5678017182256" lon="120.63329153776469"><ele>30.0</ele><time>2026-03-29T08:07:28Z</time></trkpt><trkpt lat="15.567575517170448" lon="120.6333555067282"><ele>30.0</ele><time>2026-03-29T08:07:29Z</time></trkpt><trkpt lat="15.567347622361437" lon="120.63342161295186"><ele>30.0</ele><time>2026-03-29T08:07:30Z</time></trkpt><trkpt lat="15.567118692260015" lon="120.63348913491524"><ele>30.0</ele><time>2026-03-29T08:07:31Z</time></trkpt><trkpt lat="15.566889558157838" lon="120.6335594451244"><ele>30.0</ele><time>2026-03-29T08:07:32Z</time></trkpt><trkpt lat="15.566660309617285" lon="120.63363120444754"><ele>30.0</ele><time>2026-03-29T08:07:33Z</time></trkpt><trkpt lat="15.566428864109842" lon="120.63370300593365"><ele>30.0</ele><time>2026-03-29T08:07:34Z</time></trkpt><trkpt lat="15.566197568977714" lon="120.63377383242384"><ele>30.0</ele><time>2026-03-29T08:07:35Z</time></trkpt><trkpt lat="15.565966307943071" lon="120.63384631715664"><ele>29.5</ele><time>2026-03-29T08:07:36Z</time></trkpt><trkpt lat="15.565734667487531" lon="120.63392025049886"><ele>29.0</ele><time>2026-03-29T08:07:37Z</time></trkpt><trkpt lat="15.565503044273573" lon="120.63399500740466"><ele>30.5</ele><time>2026-03-29T08:07:38Z</time></trkpt><trkpt lat="15.565271041805333" lon="120.63407048156128"><ele>32.0</ele><time>2026-03-29T08:07:39Z</time></trkpt><trkpt lat="15.565038912527946" lon="120.63414786146437"><ele>32.0</ele><time>2026-03-29T08:07:40Z</time></trkpt><trkpt lat="15.564805830364005" lon="120.63422748199255"><ele>32.0</ele><time>2026-03-29T08:07:41Z</time></trkpt><trkpt lat="15.56457305917609" lon="120.63430643077166"><ele>32.0</ele><time>2026-03-29T08:07:42Z</time></trkpt><trkpt lat="15.564340059109874" lon="120.63438630201425"><ele>32.0</ele><time>2026-03-29T08:07:43Z</time></trkpt><trkpt lat="15.564108271607639" lon="120.6344653788258"><ele>32.0</ele><time>2026-03-29T08:07:44Z</time></trkpt><trkpt lat="15.563878234233208" lon="120.63454395624414"><ele>32.0</ele><time>2026-03-29T08:07:45Z</time></trkpt><trkpt lat="15.563649447833571" lon="120.63462283929763"><ele>32.0</ele><time>2026-03-29T08:07:46Z</time></trkpt><trkpt lat="15.563422152903675" lon="120.63470412148042"><ele>32.0</ele><time>2026-03-29T08:07:47Z</time></trkpt><trkpt lat="15.563195445641583" lon="120.63478860582326"><ele>32.0</ele><time>2026-03-29T08:07:48Z</time></trkpt><trkpt lat="15.562968434950117" lon="120.6348736859481"><ele>32.0</ele><time>2026-03-29T08:07:49Z</time></trkpt><trkpt lat="15.562740351020485" lon="120.63495799846085"><ele>31.5</ele><time>2026-03-29T08:07:50Z</time></trkpt><trkpt lat="15.562512620269333" lon="120.63504526665675"><ele>31.0</ele><time>2026-03-29T08:07:51Z</time></trkpt><trkpt lat="15.562284863727378" lon="120.63513351583207"><ele>31.0</ele><time>2026-03-29T08:07:52Z</time></trkpt><trkpt lat="15.56205531107358" lon="120.63522224674824"><ele>31.0</ele><time>2026-03-29T08:07:53Z</time></trkpt><trkpt lat="15.561825066731632" lon="120.63531225333662"><ele>31.0</ele><time>2026-03-29T08:07:54Z</time></trkpt><trkpt lat="15.561594034237501" lon="120.63540293919618"><ele>31.0</ele><time>2026-03-29T08:07:55Z</time></trkpt><trkpt lat="15.561362660301373" lon="120.63549545617798"><ele>32.0</ele><time>2026-03-29T08:07:56Z</time></trkpt><trkpt lat="15.561130639560615" lon="120.6355900925064"><ele>33.0</ele><time>2026-03-29T08:07:57Z</time></trkpt><trkpt lat="15.56089649427302" lon="120.63568724089856"><ele>33.0</ele><time>2026-03-29T08:07:58Z</time></trkpt><trkpt lat="15.560661859118968" lon="120.63578649091188"><ele>33.0</ele><time>2026-03-29T08:07:59Z</time></trkpt><trkpt lat="15.560425367852787" lon="120.6358841173396"><ele>33.0</ele><time>2026-03-29T08:08:00Z</time></trkpt><trkpt lat="15.560189873332495" lon="120.63598419066098"><ele>33.0</ele><time>2026-03-29T08:08:01Z</time></trkpt><trkpt lat="15.55995420875887" lon="120.63608549006604"><ele>33.0</ele><time>2026-03-29T08:08:02Z</time></trkpt><trkpt lat="15.55971908400768" lon="120.63618806016262"><ele>33.0</ele><time>2026-03-29T08:08:03Z</time></trkpt><trkpt lat="15.559483422724155" lon="120.63629122654658"><ele>33.0</ele><time>2026-03-29T08:08:04Z</time></trkpt><trkpt lat="15.559246791940044" lon="120.63639607496351"><ele>33.0</ele><time>2026-03-29T08:08:05Z</time></trkpt><trkpt lat="15.5590095954704" lon="120.63650245213618"><ele>33.0</ele><time>2026-03-29T08:08:06Z</time></trkpt><trkpt lat="15.558771482250185" lon="120.636611368383"><ele>33.0</ele><time>2026-03-29T08:08:07Z</time></trkpt><trkpt lat="15.558534549830211" lon="120.63672249308952"><ele>33.5</ele><time>2026-03-29T08:08:08Z</time></trkpt><trkpt lat="15.558296320686752" lon="120.63683430589771"><ele>34.0</ele><time>2026-03-29T08:08:09Z</time></trkpt><trkpt lat="15.558057548630073" lon="120.63694746700799"><ele>34.5</ele><time>2026-03-29T08:08:10Z</time></trkpt><trkpt lat="15.557818891390875" lon="120.63706112103198"><ele>35.0</ele><time>2026-03-29T08:08:11Z</time></trkpt><trkpt lat="15.55758136628437" lon="120.63717468710385"><ele>35.0</ele><time>2026-03-29T08:08:12Z</time></trkpt><trkpt lat="15.557345676774592" lon="120.63728903404382"><ele>35.0</ele><time>2026-03-29T08:08:13Z</time></trkpt><trkpt lat="15.55711174713413" lon="120.63740430382904"><ele>36.0</ele><time>2026-03-29T08:08:14Z</time></trkpt><trkpt lat="15.556878676535774" lon="120.63752026684267"><ele>37.0</ele><time>2026-03-29T08:08:15Z</time></trkpt><trkpt lat="15.556647393096027" lon="120.63763653353489"><ele>37.0</ele><time>2026-03-29T08:08:16Z</time></trkpt><trkpt lat="15.556417959979365" lon="120.63775497486922"><ele>37.0</ele><time>2026-03-29T08:08:17Z</time></trkpt><trkpt lat="15.556189404539138" lon="120.63787286950722"><ele>35.0</ele><time>2026-03-29T08:08:18Z</time></trkpt><trkpt lat="15.55596261420538" lon="120.63799234779732"><ele>33.0</ele><time>2026-03-29T08:08:19Z</time></trkpt><trkpt lat="15.555735290172812" lon="120.63811159663378"><ele>33.0</ele><time>2026-03-29T08:08:20Z</time></trkpt><trkpt lat="15.555507538510884" lon="120.63823082898267"><ele>33.0</ele><time>2026-03-29T08:08:21Z</time></trkpt><trkpt lat="15.555281247920599" lon="120.63834993058983"><ele>33.0</ele><time>2026-03-29T08:08:22Z</time></trkpt><trkpt lat="15.555055239583574" lon="120.63847304372824"><ele>33.0</ele><time>2026-03-29T08:08:23Z</time></trkpt><trkpt lat="15.55482782102968" lon="120.63859741101517"><ele>33.5</ele><time>2026-03-29T08:08:24Z</time></trkpt><trkpt lat="15.55460031662536" lon="120.63872253339463"><ele>34.0</ele><time>2026-03-29T08:08:25Z</time></trkpt><trkpt lat="15.554372638805388" lon="120.63884883972209"><ele>33.0</ele><time>2026-03-29T08:08:26Z</time></trkpt><trkpt lat="15.554142606099255" lon="120.6389767115108"><ele>32.0</ele><time>2026-03-29T08:08:27Z</time></trkpt><trkpt lat="15.55391209590305" lon="120.63910658118925"><ele>32.5</ele><time>2026-03-29T08:08:28Z</time></trkpt><trkpt lat="15.553680359537385" lon="120.63923974247288"><ele>33.0</ele><time>2026-03-29T08:08:29Z</time></trkpt><trkpt lat="15.55344684340995" lon="120.63937575292464"><ele>34.0</ele><time>2026-03-29T08:08:30Z</time></trkpt><trkpt lat="15.553211853507722" lon="120.63951372406282"><ele>35.0</ele><time>2026-03-29T08:08:31Z</time></trkpt><trkpt lat="15.552975874695008" lon="120.63965393240294"><ele>35.0</ele><time>2026-03-29T08:08:32Z</time></trkpt><trkpt lat="15.552738532821719" lon="120.6397957823666"><ele>35.0</ele><time>2026-03-29T08:08:33Z</time></trkpt><trkpt lat="15.552500835131791" lon="120.63993897666035"><ele>35.0</ele><time>2026-03-29T08:08:34Z</time></trkpt><trkpt lat="15.552262536260562" lon="120.64008428443853"><ele>35.0</ele><time>2026-03-29T08:08:35Z</time></trkpt><trkpt lat="15.552025431848019" lon="120.64023000314565"><ele>34.0</ele><time>2026-03-29T08:08:36Z</time></trkpt><trkpt lat="15.551788716287296" lon="120.64037683580847"><ele>33.0</ele><time>2026-03-29T08:08:37Z</time></trkpt><trkpt lat="15.551552915729161" lon="120.64052423103149"><ele>33.0</ele><time>2026-03-29T08:08:38Z</time></trkpt><trkpt lat="15.551316282804976" lon="120.64067372569114"><ele>33.0</ele><time>2026-03-29T08:08:39Z</time></trkpt><trkpt lat="15.551080409594842" lon="120.64082398970962"><ele>33.5</ele><time>2026-03-29T08:08:40Z</time></trkpt><trkpt lat="15.550846402526213" lon="120.64097403273932"><ele>34.0</ele><time>2026-03-29T08:08:41Z</time></trkpt><trkpt lat="15.550614950355026" lon="120.64112381224544"><ele>34.5</ele><time>2026-03-29T08:08:42Z</time></trkpt><trkpt lat="15.550387732687751" lon="120.64127312650139"><ele>35.0</ele><time>2026-03-29T08:08:43Z</time></trkpt><trkpt lat="15.550164770661608" lon="120.64142231259561"><ele>35.5</ele><time>2026-03-29T08:08:44Z</time></trkpt><trkpt lat="15.549944387288123" lon="120.64156803096944"><ele>36.0</ele><time>2026-03-29T08:08:45Z</time></trkpt><trkpt lat="15.549728672326392" lon="120.64171253143833"><ele>35.5</ele><time>2026-03-29T08:08:46Z</time></trkpt><trkpt lat="15.549518034978371" lon="120.64185667534313"><ele>35.0</ele><time>2026-03-29T08:08:47Z</time></trkpt><trkpt lat="15.549309300645703" lon="120.64200067270676"><ele>34.0</ele><time>2026-03-29T08:08:48Z</time></trkpt><trkpt lat="15.549099727089008" lon="120.64214329529995"><ele>33.0</ele><time>2026-03-29T08:08:49Z</time></trkpt><trkpt lat="15.548892318870458" lon="120.64228798947363"><ele>33.5</ele><time>2026-03-29T08:08:50Z</time></trkpt><trkpt lat="15.548683763071585" lon="120.64243158126048"><ele>34.0</ele><time>2026-03-29T08:08:51Z</time></trkpt><trkpt lat="15.548476521377529" lon="120.64257746951559"><ele>34.0</ele><time>2026-03-29T08:08:52.001Z</time></trkpt><trkpt lat="15.548269785210266" lon="120.6427252761371"><ele>34.0</ele><time>2026-03-29T08:08:53.001Z</time></trkpt><trkpt lat="15.548062682100888" lon="120.6428756748403"><ele>34.5</ele><time>2026-03-29T08:08:54.001Z</time></trkpt><trkpt lat="15.547855885639303" lon="120.64302852515239"><ele>35.0</ele><time>2026-03-29T08:08:55.001Z</time></trkpt><trkpt lat="15.547650546225645" lon="120.64318053674617"><ele>35.0</ele><time>2026-03-29T08:08:56.001Z</time></trkpt><trkpt lat="15.547447161975606" lon="120.64333258247892"><ele>35.0</ele><time>2026-03-29T08:08:57.001Z</time></trkpt><trkpt lat="15.54724676677056" lon="120.64348265350593"><ele>33.5</ele><time>2026-03-29T08:08:58.001Z</time></trkpt><trkpt lat="15.54704973122601" lon="120.64363060128677"><ele>32.0</ele><time>2026-03-29T08:08:59.001Z</time></trkpt><trkpt lat="15.546856133458306" lon="120.6437774248641"><ele>31.5</ele><time>2026-03-29T08:09:00.001Z</time></trkpt><trkpt lat="15.546665866199444" lon="120.64392186915909"><ele>31.0</ele><time>2026-03-29T08:09:01.001Z</time></trkpt><trkpt lat="15.5464796676202" lon="120.64406447504417"><ele>31.0</ele><time>2026-03-29T08:09:02.001Z</time></trkpt><trkpt lat="15.546295343473691" lon="120.6442080425983"><ele>31.0</ele><time>2026-03-29T08:09:03.001Z</time></trkpt><trkpt lat="15.546111850382523" lon="120.64435211584555"><ele>31.5</ele><time>2026-03-29T08:09:04.001Z</time></trkpt><trkpt lat="15.545927793056512" lon="120.64449644295325"><ele>32.0</ele><time>2026-03-29T08:09:05.001Z</time></trkpt><trkpt lat="15.545743565501972" lon="120.64464096089351"><ele>32.0</ele><time>2026-03-29T08:09:06.001Z</time></trkpt><trkpt lat="15.545559453610986" lon="120.64478783938614"><ele>32.0</ele><time>2026-03-29T08:09:07Z</time></trkpt><trkpt lat="15.545375731691372" lon="120.64493723948753"><ele>32.0</ele><time>2026-03-29T08:09:08Z</time></trkpt><trkpt lat="15.545191013352364" lon="120.64508672991093"><ele>32.0</ele><time>2026-03-29T08:09:09Z</time></trkpt><trkpt lat="15.545007077667092" lon="120.64523812033983"><ele>32.0</ele><time>2026-03-29T08:09:10Z</time></trkpt><trkpt lat="15.54482235209205" lon="120.64539162632859"><ele>32.0</ele><time>2026-03-29T08:09:11Z</time></trkpt><trkpt lat="15.544636594614884" lon="120.64554713116368"><ele>32.5</ele><time>2026-03-29T08:09:12Z</time></trkpt><trkpt lat="15.544449437885723" lon="120.64570588934473"><ele>33.0</ele><time>2026-03-29T08:09:13Z</time></trkpt><trkpt lat="15.54426304368985" lon="120.64586353554957"><ele>33.0</ele><time>2026-03-29T08:09:14Z</time></trkpt><trkpt lat="15.54407411242223" lon="120.646023888551"><ele>33.0</ele><time>2026-03-29T08:09:15Z</time></trkpt><trkpt lat="15.543884056915537" lon="120.64618431758988"><ele>33.0</ele><time>2026-03-29T08:09:16Z</time></trkpt><trkpt lat="15.54369295823114" lon="120.6463452982431"><ele>33.0</ele><time>2026-03-29T08:09:17Z</time></trkpt><trkpt lat="15.54350019833343" lon="120.64650699213111"><ele>33.0</ele><time>2026-03-29T08:09:18Z</time></trkpt><trkpt lat="15.543304949093558" lon="120.64666756309947"><ele>33.0</ele><time>2026-03-29T08:09:19Z</time></trkpt><trkpt lat="15.543109081636391" lon="120.64682810489205"><ele>32.0</ele><time>2026-03-29T08:09:20Z</time></trkpt><trkpt lat="15.542911893900879" lon="120.64698889091922"><ele>31.0</ele><time>2026-03-29T08:09:21Z</time></trkpt><trkpt lat="15.542713257044758" lon="120.64714943310219"><ele>31.0</ele><time>2026-03-29T08:09:22Z</time></trkpt><trkpt lat="15.54251447428685" lon="120.64730857076577"><ele>31.0</ele><time>2026-03-29T08:09:23Z</time></trkpt><trkpt lat="15.542316612020821" lon="120.64746575811738"><ele>31.0</ele><time>2026-03-29T08:09:24Z</time></trkpt><trkpt lat="15.542118770872912" lon="120.6476216001517"><ele>31.0</ele><time>2026-03-29T08:09:25Z</time></trkpt><trkpt lat="15.541921807246776" lon="120.6477758206026"><ele>31.0</ele><time>2026-03-29T08:09:26Z</time></trkpt><trkpt lat="15.541728107686417" lon="120.6479260458172"><ele>31.0</ele><time>2026-03-29T08:09:27Z</time></trkpt><trkpt lat="15.541537498320338" lon="120.64807264081242"><ele>31.0</ele><time>2026-03-29T08:09:28Z</time></trkpt><trkpt lat="15.54134999471752" lon="120.6482159713531"><ele>31.0</ele><time>2026-03-29T08:09:29Z</time></trkpt><trkpt lat="15.541165246351312" lon="120.64835769745474"><ele>31.0</ele><time>2026-03-29T08:09:30Z</time></trkpt><trkpt lat="15.54098401003903" lon="120.64849714980826"><ele>31.0</ele><time>2026-03-29T08:09:31Z</time></trkpt><trkpt lat="15.540800055910317" lon="120.64863422775684"><ele>31.0</ele><time>2026-03-29T08:09:32Z</time></trkpt><trkpt lat="15.540616621729896" lon="120.64877221531931"><ele>31.0</ele><time>2026-03-29T08:09:33Z</time></trkpt><trkpt lat="15.540429874641706" lon="120.64890508790836"><ele>31.5</ele><time>2026-03-29T08:09:34Z</time></trkpt><trkpt lat="15.540242064343321" lon="120.64904111222928"><ele>32.0</ele><time>2026-03-29T08:09:35Z</time></trkpt><trkpt lat="15.540055005178425" lon="120.64917954666856"><ele>32.0</ele><time>2026-03-29T08:09:36Z</time></trkpt><trkpt lat="15.539865073370347" lon="120.64931765561089"><ele>32.0</ele><time>2026-03-29T08:09:37Z</time></trkpt><trkpt lat="15.539671940664919" lon="120.6494552237247"><ele>31.5</ele><time>2026-03-29T08:09:38Z</time></trkpt><trkpt lat="15.539475408015843" lon="120.64959320931929"><ele>31.0</ele><time>2026-03-29T08:09:39Z</time></trkpt><trkpt lat="15.539276316464116" lon="120.64973167757586"><ele>31.0</ele><time>2026-03-29T08:09:40Z</time></trkpt><trkpt lat="15.539075165375547" lon="120.6498716089986"><ele>31.0</ele><time>2026-03-29T08:09:41Z</time></trkpt><trkpt lat="15.538870956490545" lon="120.65001155853865"><ele>31.0</ele><time>2026-03-29T08:09:42Z</time></trkpt><trkpt lat="15.538665389593147" lon="120.65015251108177"><ele>31.0</ele><time>2026-03-29T08:09:43Z</time></trkpt><trkpt lat="15.538457571106756" lon="120.6502930482009"><ele>31.0</ele><time>2026-03-29T08:09:44Z</time></trkpt><trkpt lat="15.538248085207954" lon="120.65043352259876"><ele>31.0</ele><time>2026-03-29T08:09:45Z</time></trkpt><trkpt lat="15.538037493812476" lon="120.65057386765945"><ele>31.0</ele><time>2026-03-29T08:09:46Z</time></trkpt><trkpt lat="15.53782550823886" lon="120.65071417969104"><ele>31.0</ele><time>2026-03-29T08:09:47Z</time></trkpt><trkpt lat="15.537612292342708" lon="120.65085496461518"><ele>31.0</ele><time>2026-03-29T08:09:48Z</time></trkpt><trkpt lat="15.53739689060604" lon="120.65099440225158"><ele>31.0</ele><time>2026-03-29T08:09:49Z</time></trkpt><trkpt lat="15.537180740835948" lon="120.65113373131189"><ele>30.5</ele><time>2026-03-29T08:09:50Z</time></trkpt><trkpt lat="15.5369620973317" lon="120.65127258899027"><ele>30.0</ele><time>2026-03-29T08:09:51Z</time></trkpt><trkpt lat="15.53674166488102" lon="120.65141076747307"><ele>30.0</ele><time>2026-03-29T08:09:52Z</time></trkpt><trkpt lat="15.53651760156018" lon="120.65154666547541"><ele>30.0</ele><time>2026-03-29T08:09:53Z</time></trkpt><trkpt lat="15.536291517831302" lon="120.65168201408444"><ele>30.0</ele><time>2026-03-29T08:09:54Z</time></trkpt><trkpt lat="15.536062656398377" lon="120.65181830333951"><ele>30.0</ele><time>2026-03-29T08:09:55Z</time></trkpt><trkpt lat="15.535832365640204" lon="120.65195566943791"><ele>30.0</ele><time>2026-03-29T08:09:56Z</time></trkpt><trkpt lat="15.535598830625759" lon="120.65209297497286"><ele>30.0</ele><time>2026-03-29T08:09:57Z</time></trkpt><trkpt lat="15.535363407192776" lon="120.65223043199748"><ele>30.0</ele><time>2026-03-29T08:09:58Z</time></trkpt><trkpt lat="15.53512673570471" lon="120.65236862135724"><ele>30.0</ele><time>2026-03-29T08:09:59Z</time></trkpt><trkpt lat="15.534887979470016" lon="120.65250632327253"><ele>30.0</ele><time>2026-03-29T08:10:00Z</time></trkpt><trkpt lat="15.534648650083213" lon="120.65264463874848"><ele>30.0</ele><time>2026-03-29T08:10:01Z</time></trkpt><trkpt lat="15.534408989147055" lon="120.65278199708594"><ele>31.0</ele><time>2026-03-29T08:10:02Z</time></trkpt><trkpt lat="15.534167335103335" lon="120.65291882248613"><ele>32.0</ele><time>2026-03-29T08:10:03Z</time></trkpt><trkpt lat="15.533926375276236" lon="120.65305578169617"><ele>31.0</ele><time>2026-03-29T08:10:04Z</time></trkpt><trkpt lat="15.533683917466874" lon="120.65319200809354"><ele>30.0</ele><time>2026-03-29T08:10:05Z</time></trkpt><trkpt lat="15.533440942298606" lon="120.65332724246905"><ele>30.0</ele><time>2026-03-29T08:10:06Z</time></trkpt><trkpt lat="15.533196398861561" lon="120.653462119236"><ele>30.0</ele><time>2026-03-29T08:10:07Z</time></trkpt><trkpt lat="15.532950988695935" lon="120.65359567760918"><ele>30.5</ele><time>2026-03-29T08:10:08Z</time></trkpt><trkpt lat="15.532705824814368" lon="120.65372820338193"><ele>31.0</ele><time>2026-03-29T08:10:09Z</time></trkpt><trkpt lat="15.532460160439262" lon="120.65385892246792"><ele>31.0</ele><time>2026-03-29T08:10:10Z</time></trkpt><trkpt lat="15.532215034352646" lon="120.65398733088834"><ele>31.0</ele><time>2026-03-29T08:10:11Z</time></trkpt><trkpt lat="15.531968575157444" lon="120.65411449803294"><ele>32.0</ele><time>2026-03-29T08:10:12Z</time></trkpt><trkpt lat="15.531721427844662" lon="120.65423956777445"><ele>33.0</ele><time>2026-03-29T08:10:13Z</time></trkpt><trkpt lat="15.531474006781504" lon="120.65436358915478"><ele>32.0</ele><time>2026-03-29T08:10:14Z</time></trkpt><trkpt lat="15.53122733098882" lon="120.6544863815599"><ele>31.0</ele><time>2026-03-29T08:10:15Z</time></trkpt><trkpt lat="15.5309804087323" lon="120.65460710735509"><ele>31.0</ele><time>2026-03-29T08:10:16Z</time></trkpt><trkpt lat="15.53073494779843" lon="120.65472624818976"><ele>31.0</ele><time>2026-03-29T08:10:17Z</time></trkpt><trkpt lat="15.530489337324223" lon="120.65484448492543"><ele>31.0</ele><time>2026-03-29T08:10:18Z</time></trkpt><trkpt lat="15.530244034001349" lon="120.65496153151372"><ele>31.0</ele><time>2026-03-29T08:10:19Z</time></trkpt><trkpt lat="15.53000290151984" lon="120.65507964923997"><ele>31.0</ele><time>2026-03-29T08:10:20Z</time></trkpt><trkpt lat="15.52976001180295" lon="120.65519394075375"><ele>31.0</ele><time>2026-03-29T08:10:21Z</time></trkpt><trkpt lat="15.529518709884659" lon="120.65530889109318"><ele>31.0</ele><time>2026-03-29T08:10:22Z</time></trkpt><trkpt lat="15.529277675470079" lon="120.65542387844512"><ele>31.0</ele><time>2026-03-29T08:10:23Z</time></trkpt><trkpt lat="15.529037051671295" lon="120.65554032283498"><ele>31.0</ele><time>2026-03-29T08:10:24Z</time></trkpt><trkpt lat="15.528795497584317" lon="120.6556581379469"><ele>31.0</ele><time>2026-03-29T08:10:25Z</time></trkpt><trkpt lat="15.528551891453791" lon="120.65577408971514"><ele>32.0</ele><time>2026-03-29T08:10:26Z</time></trkpt><trkpt lat="15.52830803345223" lon="120.65589130870407"><ele>33.0</ele><time>2026-03-29T08:10:27Z</time></trkpt><trkpt lat="15.528066000084927" lon="120.65601092790884"><ele>33.0</ele><time>2026-03-29T08:10:28Z</time></trkpt><trkpt lat="15.527823977961104" lon="120.65613122891568"><ele>33.0</ele><time>2026-03-29T08:10:29Z</time></trkpt><trkpt lat="15.527583527548881" lon="120.65625202127492"><ele>33.0</ele><time>2026-03-29T08:10:30Z</time></trkpt><trkpt lat="15.527344936271218" lon="120.6563753701288"><ele>33.0</ele><time>2026-03-29T08:10:31Z</time></trkpt><trkpt lat="15.527106797902748" lon="120.65649632404427"><ele>32.5</ele><time>2026-03-29T08:10:32Z</time></trkpt><trkpt lat="15.526870079471331" lon="120.65661900170187"><ele>32.0</ele><time>2026-03-29T08:10:33Z</time></trkpt><trkpt lat="15.526634642254784" lon="120.65674096369375"><ele>32.0</ele><time>2026-03-29T08:10:34Z</time></trkpt><trkpt lat="15.526401142109789" lon="120.6568634257774"><ele>32.0</ele><time>2026-03-29T08:10:35Z</time></trkpt><trkpt lat="15.526170603521694" lon="120.65698674999135"><ele>32.0</ele><time>2026-03-29T08:10:36Z</time></trkpt><trkpt lat="15.525941837989578" lon="120.657111526283"><ele>32.0</ele><time>2026-03-29T08:10:37Z</time></trkpt><trkpt lat="15.525713883801673" lon="120.65723385723226"><ele>32.0</ele><time>2026-03-29T08:10:38Z</time></trkpt><trkpt lat="15.525488579165229" lon="120.65735565074128"><ele>32.0</ele><time>2026-03-29T08:10:39Z</time></trkpt><trkpt lat="15.525265648883893" lon="120.65747708856016"><ele>32.0</ele><time>2026-03-29T08:10:40Z</time></trkpt><trkpt lat="15.525044730687014" lon="120.65759859066758"><ele>32.0</ele><time>2026-03-29T08:10:41Z</time></trkpt><trkpt lat="15.524824947234658" lon="120.65772060299571"><ele>32.5</ele><time>2026-03-29T08:10:42Z</time></trkpt><trkpt lat="15.524606371807893" lon="120.65784200692599"><ele>33.0</ele><time>2026-03-29T08:10:43Z</time></trkpt><trkpt lat="15.52438957308147" lon="120.65796479818141"><ele>33.0</ele><time>2026-03-29T08:10:44Z</time></trkpt><trkpt lat="15.524174227237898" lon="120.65808893428982"><ele>33.0</ele><time>2026-03-29T08:10:45Z</time></trkpt><trkpt lat="15.523958772161192" lon="120.65821312685419"><ele>33.0</ele><time>2026-03-29T08:10:46Z</time></trkpt><trkpt lat="15.523744441845825" lon="120.65833791821221"><ele>33.0</ele><time>2026-03-29T08:10:47Z</time></trkpt><trkpt lat="15.523531449552364" lon="120.65846382350031"><ele>33.0</ele><time>2026-03-29T08:10:48Z</time></trkpt><trkpt lat="15.523319021173359" lon="120.65859036792155"><ele>33.0</ele><time>2026-03-29T08:10:49Z</time></trkpt><trkpt lat="15.52310735272462" lon="120.65871826072413"><ele>33.0</ele><time>2026-03-29T08:10:50Z</time></trkpt><trkpt lat="15.52289560807175" lon="120.6588471823762"><ele>33.0</ele><time>2026-03-29T08:10:51Z</time></trkpt><trkpt lat="15.522683654328235" lon="120.65897719581992"><ele>33.0</ele><time>2026-03-29T08:10:52Z</time></trkpt><trkpt lat="15.522471907943048" lon="120.65910814394553"><ele>33.0</ele><time>2026-03-29T08:10:53Z</time></trkpt><trkpt lat="15.522260445133043" lon="120.65923905865787"><ele>33.5</ele><time>2026-03-29T08:10:54Z</time></trkpt><trkpt lat="15.522050942614646" lon="120.65937068449918"><ele>34.0</ele><time>2026-03-29T08:10:55Z</time></trkpt><trkpt lat="15.52184266977334" lon="120.65950115860944"><ele>32.5</ele><time>2026-03-29T08:10:56Z</time></trkpt><trkpt lat="15.521636767508147" lon="120.65963134624499"><ele>31.0</ele><time>2026-03-29T08:10:57Z</time></trkpt><trkpt lat="15.521433426157031" lon="120.65976184729037"><ele>31.5</ele><time>2026-03-29T08:10:58Z</time></trkpt><trkpt lat="15.521231827064202" lon="120.65989302876599"><ele>32.0</ele><time>2026-03-29T08:10:59Z</time></trkpt><trkpt lat="15.521030832261745" lon="120.66002498836467"><ele>32.0</ele><time>2026-03-29T08:11:00Z</time></trkpt><trkpt lat="15.520831167316587" lon="120.66015786754573"><ele>32.0</ele><time>2026-03-29T08:11:01Z</time></trkpt><trkpt lat="15.520632346234702" lon="120.66029157885689"><ele>32.5</ele><time>2026-03-29T08:11:02Z</time></trkpt><trkpt lat="15.520434509527256" lon="120.66042542473146"><ele>33.0</ele><time>2026-03-29T08:11:03Z</time></trkpt><trkpt lat="15.520239101226018" lon="120.66055784052794"><ele>34.0</ele><time>2026-03-29T08:11:04Z</time></trkpt><trkpt lat="15.520045386481694" lon="120.66069064503041"><ele>35.0</ele><time>2026-03-29T08:11:05Z</time></trkpt><trkpt lat="15.519852973048307" lon="120.66082351608559"><ele>35.0</ele><time>2026-03-29T08:11:06Z</time></trkpt><trkpt lat="15.519661327602822" lon="120.66095721794453"><ele>35.0</ele><time>2026-03-29T08:11:07Z</time></trkpt><trkpt lat="15.519469153119623" lon="120.66109028093332"><ele>34.0</ele><time>2026-03-29T08:11:08Z</time></trkpt><trkpt lat="15.519276778918622" lon="120.66122450248271"><ele>33.0</ele><time>2026-03-29T08:11:09Z</time></trkpt><trkpt lat="15.519083724159868" lon="120.6613596388433"><ele>33.0</ele><time>2026-03-29T08:11:10Z</time></trkpt><trkpt lat="15.518891122006618" lon="120.66149679148573"><ele>33.0</ele><time>2026-03-29T08:11:11Z</time></trkpt><trkpt lat="15.518699089181217" lon="120.66163603823122"><ele>34.0</ele><time>2026-03-29T08:11:12Z</time></trkpt><trkpt lat="15.518504845020306" lon="120.66177583214277"><ele>35.0</ele><time>2026-03-29T08:11:13Z</time></trkpt><trkpt lat="15.518309962136376" lon="120.66191735361997"><ele>34.5</ele><time>2026-03-29T08:11:14Z</time></trkpt><trkpt lat="15.51811373254686" lon="120.66205907202264"><ele>34.0</ele><time>2026-03-29T08:11:15Z</time></trkpt><trkpt lat="15.517916415509527" lon="120.66220141645684"><ele>34.5</ele><time>2026-03-29T08:11:16Z</time></trkpt><trkpt lat="15.517718562091979" lon="120.66234454156812"><ele>35.0</ele><time>2026-03-29T08:11:17Z</time></trkpt><trkpt lat="15.517518926974752" lon="120.66248839481804"><ele>35.0</ele><time>2026-03-29T08:11:18Z</time></trkpt><trkpt lat="15.517319720237714" lon="120.66263267517331"><ele>35.0</ele><time>2026-03-29T08:11:19Z</time></trkpt><trkpt lat="15.51712062458774" lon="120.66277529091262"><ele>33.5</ele><time>2026-03-29T08:11:20Z</time></trkpt><trkpt lat="15.516922281623359" lon="120.66291767817648"><ele>32.0</ele><time>2026-03-29T08:11:21Z</time></trkpt><trkpt lat="15.516727020836818" lon="120.66305937995307"><ele>32.0</ele><time>2026-03-29T08:11:22Z</time></trkpt><trkpt lat="15.516534482666792" lon="120.66319767459031"><ele>32.0</ele><time>2026-03-29T08:11:23Z</time></trkpt><trkpt lat="15.516344483896896" lon="120.6633348796999"><ele>33.0</ele><time>2026-03-29T08:11:24Z</time></trkpt><trkpt lat="15.516157236059216" lon="120.66346976658431"><ele>34.0</ele><time>2026-03-29T08:11:25Z</time></trkpt><trkpt lat="15.515974680553384" lon="120.66360177182762"><ele>33.333333333333336</ele><time>2026-03-29T08:11:26Z</time></trkpt><trkpt lat="15.515796566832085" lon="120.66373162102533"><ele>32.666666666666664</ele><time>2026-03-29T08:11:27Z</time></trkpt><trkpt lat="15.515622485365176" lon="120.66385839373811"><ele>32.0</ele><time>2026-03-29T08:11:28Z</time></trkpt><trkpt lat="15.515451988716547" lon="120.66398203664383"><ele>32.0</ele><time>2026-03-29T08:11:29Z</time></trkpt><trkpt lat="15.515284962615935" lon="120.66410211806092"><ele>32.0</ele><time>2026-03-29T08:11:30Z</time></trkpt><trkpt lat="15.515122054443156" lon="120.6642195881345"><ele>32.0</ele><time>2026-03-29T08:11:31Z</time></trkpt><trkpt lat="15.51496322509203" lon="120.66433376202883"><ele>32.0</ele><time>2026-03-29T08:11:32Z</time></trkpt><trkpt lat="15.51480907540082" lon="120.66444491185314"><ele>32.0</ele><time>2026-03-29T08:11:33Z</time></trkpt><trkpt lat="15.514659439731114" lon="120.66455270290524"><ele>32.0</ele><time>2026-03-29T08:11:34Z</time></trkpt><trkpt lat="15.514514375541355" lon="120.66465758458689"><ele>32.33333333333333</ele><time>2026-03-29T08:11:35Z</time></trkpt><trkpt lat="15.514375546890406" lon="120.66475848189857"><ele>32.666666666666664</ele><time>2026-03-29T08:11:36Z</time></trkpt><trkpt lat="15.514243095346279" lon="120.66485503680575"><ele>33.0</ele><time>2026-03-29T08:11:37Z</time></trkpt><trkpt lat="15.51411749733268" lon="120.66494793436475"><ele>33.0</ele><time>2026-03-29T08:11:38Z</time></trkpt><trkpt lat="15.514000023641637" lon="120.66503631090278"><ele>33.0</ele><time>2026-03-29T08:11:39Z</time></trkpt><trkpt lat="15.51389287571871" lon="120.66512049491512"><ele>33.0</ele><time>2026-03-29T08:11:40Z</time></trkpt><trkpt lat="15.513796329084137" lon="120.66520365579576"><ele>33.0</ele><time>2026-03-29T08:11:41Z</time></trkpt><trkpt lat="15.513704308340971" lon="120.66528914918081"><ele>33.199999999999996</ele><time>2026-03-29T08:11:42Z</time></trkpt><trkpt lat="15.51360256711516" lon="120.66534696134819"><ele>33.4</ele><time>2026-03-29T08:11:43Z</time></trkpt><trkpt lat="15.513506908168704" lon="120.66540776558189"><ele>33.599999999999994</ele><time>2026-03-29T08:11:44Z</time></trkpt><trkpt lat="15.513415705494953" lon="120.66546627902659"><ele>33.8</ele><time>2026-03-29T08:11:45Z</time></trkpt><trkpt lat="15.513328261611713" lon="120.66552184854808"><ele>34.0</ele><time>2026-03-29T08:11:46Z</time></trkpt><trkpt lat="15.51324126323957" lon="120.66557748856793"><ele>34.0</ele><time>2026-03-29T08:11:47Z</time></trkpt><trkpt lat="15.513165906689984" lon="120.66562786994076"><ele>34.0</ele><time>2026-03-29T08:11:48Z</time></trkpt><trkpt lat="15.51309595811378" lon="120.66567363944301"><ele>34.0</ele><time>2026-03-29T08:11:49Z</time></trkpt><trkpt lat="15.513034625573614" lon="120.66571460940055"><ele>34.0</ele><time>2026-03-29T08:11:50Z</time></trkpt><trkpt lat="15.512935346654318" lon="120.6657825112986"><ele>34.0</ele><time>2026-03-29T08:11:52Z</time></trkpt><trkpt lat="15.512857463709468" lon="120.66583602613125"><ele>33.833333333333336</ele><time>2026-03-29T08:11:54Z</time></trkpt><trkpt lat="15.512792935018322" lon="120.6658824159883"><ele>33.66666666666667</ele><time>2026-03-29T08:11:57Z</time></trkpt><trkpt lat="15.512722288706058" lon="120.66593705178923"><ele>33.5</ele><time>2026-03-29T08:12:00Z</time></trkpt><trkpt lat="15.512640996202185" lon="120.66599942716877"><ele>33.333333333333336</ele><time>2026-03-29T08:12:02Z</time></trkpt><trkpt lat="15.512589639284906" lon="120.66603984832128"><ele>33.166666666666664</ele><time>2026-03-29T08:12:03Z</time></trkpt><trkpt lat="15.512528291956373" lon="120.66608683290085"><ele>33.0</ele><time>2026-03-29T08:12:04Z</time></trkpt><trkpt lat="15.51246468605201" lon="120.66613692064495"><ele>33.0</ele><time>2026-03-29T08:12:05Z</time></trkpt><trkpt lat="15.512396981437337" lon="120.66618961615328"><ele>33.0</ele><time>2026-03-29T08:12:06Z</time></trkpt><trkpt lat="15.512323169115213" lon="120.6662488393441"><ele>33.0</ele><time>2026-03-29T08:12:07Z</time></trkpt><trkpt lat="15.51225725506112" lon="120.66630598364372"><ele>33.0</ele><time>2026-03-29T08:12:08Z</time></trkpt><trkpt lat="15.512193413339883" lon="120.66636168093892"><ele>33.0</ele><time>2026-03-29T08:12:09Z</time></trkpt><trkpt lat="15.512135949751185" lon="120.66641084761646"><ele>33.0</ele><time>2026-03-29T08:12:10Z</time></trkpt><trkpt lat="15.512081599629479" lon="120.66645635448663"><ele>32.6</ele><time>2026-03-29T08:12:11Z</time></trkpt><trkpt lat="15.511994658461427" lon="120.66652089869413"><ele>32.199999999999996</ele><time>2026-03-29T08:12:13Z</time></trkpt><trkpt lat="15.511896314344476" lon="120.6665732479801"><ele>31.8</ele><time>2026-03-29T08:12:15Z</time></trkpt><trkpt lat="15.511836995499307" lon="120.66661316036209"><ele>31.4</ele><time>2026-03-29T08:12:16Z</time></trkpt><trkpt lat="15.511771646448103" lon="120.66665640744972"><ele>31.0</ele><time>2026-03-29T08:12:17Z</time></trkpt><trkpt lat="15.511699118726515" lon="120.66670582159654"><ele>31.0</ele><time>2026-03-29T08:12:18Z</time></trkpt><trkpt lat="15.511619686282836" lon="120.66676163358073"><ele>31.0</ele><time>2026-03-29T08:12:19Z</time></trkpt><trkpt lat="15.51153329271539" lon="120.66682342115773"><ele>31.0</ele><time>2026-03-29T08:12:20Z</time></trkpt><trkpt lat="15.51143925290723" lon="120.66689064470201"><ele>31.0</ele><time>2026-03-29T08:12:21Z</time></trkpt><trkpt lat="15.511338024242049" lon="120.66696310614982"><ele>31.0</ele><time>2026-03-29T08:12:22Z</time></trkpt><trkpt lat="15.511229904348061" lon="120.66704136601135"><ele>31.75</ele><time>2026-03-29T08:12:23Z</time></trkpt><trkpt lat="15.511115883032401" lon="120.66712423878984"><ele>32.5</ele><time>2026-03-29T08:12:24Z</time></trkpt><trkpt lat="15.510996286703795" lon="120.66721167700919"><ele>33.25</ele><time>2026-03-29T08:12:25Z</time></trkpt><trkpt lat="15.510871577529173" lon="120.66730410406869"><ele>34.0</ele><time>2026-03-29T08:12:26Z</time></trkpt><trkpt lat="15.510741354154153" lon="120.66740083260443"><ele>34.0</ele><time>2026-03-29T08:12:27Z</time></trkpt><trkpt lat="15.510606654384956" lon="120.66750066549203"><ele>34.0</ele><time>2026-03-29T08:12:28Z</time></trkpt><trkpt lat="15.510467871326782" lon="120.66760328622587"><ele>34.0</ele><time>2026-03-29T08:12:29Z</time></trkpt><trkpt lat="15.51032451113565" lon="120.6677071975642"><ele>34.0</ele><time>2026-03-29T08:12:30Z</time></trkpt><trkpt lat="15.510176611994764" lon="120.66781326046384"><ele>34.0</ele><time>2026-03-29T08:12:31Z</time></trkpt><trkpt lat="15.51002700344069" lon="120.66792136944102"><ele>34.0</ele><time>2026-03-29T08:12:32Z</time></trkpt><trkpt lat="15.509874754246486" lon="120.66803294655139"><ele>34.0</ele><time>2026-03-29T08:12:33Z</time></trkpt><trkpt lat="15.509717816402482" lon="120.66814543524903"><ele>34.0</ele><time>2026-03-29T08:12:34Z</time></trkpt><trkpt lat="15.509556516592175" lon="120.66825798203189"><ele>34.0</ele><time>2026-03-29T08:12:35Z</time></trkpt><trkpt lat="15.509392990911905" lon="120.66837589377036"><ele>33.66666666666667</ele><time>2026-03-29T08:12:36Z</time></trkpt><trkpt lat="15.50922733720325" lon="120.66849728038385"><ele>33.333333333333336</ele><time>2026-03-29T08:12:37Z</time></trkpt><trkpt lat="15.509057658439618" lon="120.66862001056849"><ele>33.0</ele><time>2026-03-29T08:12:38Z</time></trkpt><trkpt lat="15.508884377298129" lon="120.6687444751084"><ele>32.333333333333336</ele><time>2026-03-29T08:12:39Z</time></trkpt><trkpt lat="15.508709761047637" lon="120.6688712211552"><ele>31.666666666666668</ele><time>2026-03-29T08:12:40Z</time></trkpt><trkpt lat="15.508533010081646" lon="120.66899947800277"><ele>31.0</ele><time>2026-03-29T08:12:41Z</time></trkpt><trkpt lat="15.508354343064063" lon="120.6691297838984"><ele>31.0</ele><time>2026-03-29T08:12:42Z</time></trkpt><trkpt lat="15.5081724966168" lon="120.6692606787825"><ele>31.0</ele><time>2026-03-29T08:12:43Z</time></trkpt><trkpt lat="15.507989455119608" lon="120.66939287206289"><ele>31.0</ele><time>2026-03-29T08:12:44Z</time></trkpt><trkpt lat="15.507804113171733" lon="120.66952749148945"><ele>31.0</ele><time>2026-03-29T08:12:45Z</time></trkpt><trkpt lat="15.507616819734354" lon="120.66966305503178"><ele>31.0</ele><time>2026-03-29T08:12:46Z</time></trkpt><trkpt lat="15.507428147835315" lon="120.66979927270235"><ele>31.0</ele><time>2026-03-29T08:12:47Z</time></trkpt><trkpt lat="15.507237529433404" lon="120.66993643007608"><ele>31.0</ele><time>2026-03-29T08:12:48Z</time></trkpt><trkpt lat="15.507044824248515" lon="120.6700730381498"><ele>30.5</ele><time>2026-03-29T08:12:49Z</time></trkpt><trkpt lat="15.506849984272518" lon="120.67021003780552"><ele>30.0</ele><time>2026-03-29T08:12:50Z</time></trkpt><trkpt lat="15.506653645686969" lon="120.67034600442067"><ele>29.5</ele><time>2026-03-29T08:12:51Z</time></trkpt><trkpt lat="15.506455279780424" lon="120.67048204643635"><ele>29.0</ele><time>2026-03-29T08:12:52Z</time></trkpt><trkpt lat="15.506254908871995" lon="120.67061743215571"><ele>29.5</ele><time>2026-03-29T08:12:53Z</time></trkpt><trkpt lat="15.506052965829463" lon="120.67075285692371"><ele>30.0</ele><time>2026-03-29T08:12:54Z</time></trkpt><trkpt lat="15.505847459975762" lon="120.67088867171388"><ele>30.0</ele><time>2026-03-29T08:12:55Z</time></trkpt><trkpt lat="15.505641205276252" lon="120.6710247184555"><ele>30.0</ele><time>2026-03-29T08:12:56Z</time></trkpt><trkpt lat="15.505433596804478" lon="120.67116156167717"><ele>30.0</ele><time>2026-03-29T08:12:57Z</time></trkpt><trkpt lat="15.50522451974194" lon="120.67129764740017"><ele>30.0</ele><time>2026-03-29T08:12:58Z</time></trkpt><trkpt lat="15.505011849641999" lon="120.67143229244125"><ele>30.0</ele><time>2026-03-29T08:12:59Z</time></trkpt><trkpt lat="15.504798656337103" lon="120.67156651282704"><ele>30.0</ele><time>2026-03-29T08:13:00Z</time></trkpt><trkpt lat="15.504583784828402" lon="120.67169956612707"><ele>30.0</ele><time>2026-03-29T08:13:01Z</time></trkpt><trkpt lat="15.504368416971177" lon="120.67183317525237"><ele>30.0</ele><time>2026-03-29T08:13:02Z</time></trkpt><trkpt lat="15.504153053570038" lon="120.67196563273617"><ele>30.5</ele><time>2026-03-29T08:13:03Z</time></trkpt><trkpt lat="15.503936962922678" lon="120.67209517952153"><ele>31.0</ele><time>2026-03-29T08:13:04Z</time></trkpt><trkpt lat="15.503720168012332" lon="120.67222339765588"><ele>31.0</ele><time>2026-03-29T08:13:05Z</time></trkpt><trkpt lat="15.503502372350045" lon="120.67235118218078"><ele>31.0</ele><time>2026-03-29T08:13:06Z</time></trkpt><trkpt lat="15.50328520435087" lon="120.67247719397518"><ele>31.0</ele><time>2026-03-29T08:13:07Z</time></trkpt><trkpt lat="15.503067909575545" lon="120.6726011173158"><ele>31.0</ele><time>2026-03-29T08:13:08Z</time></trkpt><trkpt lat="15.50285199952457" lon="120.67272274152076"><ele>30.0</ele><time>2026-03-29T08:13:09Z</time></trkpt><trkpt lat="15.502636052898708" lon="120.67284170555442"><ele>29.0</ele><time>2026-03-29T08:13:10Z</time></trkpt><trkpt lat="15.502420273851055" lon="120.67295703394808"><ele>29.0</ele><time>2026-03-29T08:13:11Z</time></trkpt><trkpt lat="15.502205452685212" lon="120.67307125588248"><ele>29.0</ele><time>2026-03-29T08:13:12Z</time></trkpt><trkpt lat="15.501989481775206" lon="120.67318365765979"><ele>29.5</ele><time>2026-03-29T08:13:13Z</time></trkpt><trkpt lat="15.50177192659583" lon="120.67329699393429"><ele>30.0</ele><time>2026-03-29T08:13:14Z</time></trkpt><trkpt lat="15.501550766602895" lon="120.67340782797312"><ele>30.0</ele><time>2026-03-29T08:13:15Z</time></trkpt><trkpt lat="15.50132765662689" lon="120.67352141990825"><ele>30.0</ele><time>2026-03-29T08:13:16Z</time></trkpt><trkpt lat="15.501102179949585" lon="120.67363541787657"><ele>29.5</ele><time>2026-03-29T08:13:17Z</time></trkpt><trkpt lat="15.500873188979078" lon="120.67374758871017"><ele>29.0</ele><time>2026-03-29T08:13:18Z</time></trkpt><trkpt lat="15.500640894858106" lon="120.67385864246997"><ele>28.5</ele><time>2026-03-29T08:13:19Z</time></trkpt><trkpt lat="15.500405006149698" lon="120.67396962448102"><ele>28.0</ele><time>2026-03-29T08:13:20Z</time></trkpt><trkpt lat="15.50016603357749" lon="120.67407885161452"><ele>28.0</ele><time>2026-03-29T08:13:21Z</time></trkpt><trkpt lat="15.499924708944768" lon="120.67418658626214"><ele>28.0</ele><time>2026-03-29T08:13:22Z</time></trkpt><trkpt lat="15.499682009792195" lon="120.67429456199687"><ele>29.0</ele><time>2026-03-29T08:13:23Z</time></trkpt><trkpt lat="15.49943949697543" lon="120.67440246438717"><ele>30.0</ele><time>2026-03-29T08:13:24Z</time></trkpt><trkpt lat="15.499197026845543" lon="120.67451008120683"><ele>30.0</ele><time>2026-03-29T08:13:25Z</time></trkpt><trkpt lat="15.498955047953785" lon="120.6746168994711"><ele>30.0</ele><time>2026-03-29T08:13:26Z</time></trkpt><trkpt lat="15.49871057944608" lon="120.67472126921128"><ele>31.0</ele><time>2026-03-29T08:13:27Z</time></trkpt><trkpt lat="15.498467292678793" lon="120.67482573741178"><ele>32.0</ele><time>2026-03-29T08:13:28Z</time></trkpt><trkpt lat="15.498222612666957" lon="120.67492770610201"><ele>32.0</ele><time>2026-03-29T08:13:29Z</time></trkpt><trkpt lat="15.497977517919727" lon="120.67502784033"><ele>32.0</ele><time>2026-03-29T08:13:30Z</time></trkpt><trkpt lat="15.497731751547986" lon="120.675127009264"><ele>31.0</ele><time>2026-03-29T08:13:31Z</time></trkpt><trkpt lat="15.497484350957095" lon="120.67522596713877"><ele>30.0</ele><time>2026-03-29T08:13:32Z</time></trkpt><trkpt lat="15.497236108561307" lon="120.67532126843571"><ele>30.5</ele><time>2026-03-29T08:13:33Z</time></trkpt><trkpt lat="15.496986161130904" lon="120.67541616513022"><ele>31.0</ele><time>2026-03-29T08:13:34Z</time></trkpt><trkpt lat="15.496735132185611" lon="120.6755108460599"><ele>31.0</ele><time>2026-03-29T08:13:35Z</time></trkpt><trkpt lat="15.496482855499684" lon="120.67560412179776"><ele>31.0</ele><time>2026-03-29T08:13:36Z</time></trkpt><trkpt lat="15.496229068374314" lon="120.67569630625707"><ele>32.0</ele><time>2026-03-29T08:13:37Z</time></trkpt><trkpt lat="15.495974853072072" lon="120.6757865941038"><ele>33.0</ele><time>2026-03-29T08:13:38Z</time></trkpt><trkpt lat="15.495719266004446" lon="120.67587534260032"><ele>33.0</ele><time>2026-03-29T08:13:39Z</time></trkpt><trkpt lat="15.49546310679273" lon="120.6759616025652"><ele>33.0</ele><time>2026-03-29T08:13:40Z</time></trkpt><trkpt lat="15.495206211363252" lon="120.67604681479237"><ele>31.0</ele><time>2026-03-29T08:13:41Z</time></trkpt><trkpt lat="15.494948413149038" lon="120.67613125039601"><ele>29.0</ele><time>2026-03-29T08:13:42Z</time></trkpt><trkpt lat="15.494689963638413" lon="120.6762136350505"><ele>28.5</ele><time>2026-03-29T08:13:43Z</time></trkpt><trkpt lat="15.494430694091164" lon="120.67629458403806"><ele>28.0</ele><time>2026-03-29T08:13:44Z</time></trkpt><trkpt lat="15.494170654071908" lon="120.67637446093948"><ele>28.0</ele><time>2026-03-29T08:13:45Z</time></trkpt><trkpt lat="15.493909533398458" lon="120.67645108727568"><ele>28.0</ele><time>2026-03-29T08:13:46Z</time></trkpt><trkpt lat="15.493649684998417" lon="120.67652803245001"><ele>28.5</ele><time>2026-03-29T08:13:47Z</time></trkpt><trkpt lat="15.493390481079857" lon="120.6766024559635"><ele>29.0</ele><time>2026-03-29T08:13:48Z</time></trkpt><trkpt lat="15.49313092468952" lon="120.67667678075601"><ele>29.0</ele><time>2026-03-29T08:13:49Z</time></trkpt><trkpt lat="15.492870520347703" lon="120.67674958003495"><ele>29.0</ele><time>2026-03-29T08:13:50Z</time></trkpt><trkpt lat="15.492608552046015" lon="120.67682070495745"><ele>29.0</ele><time>2026-03-29T08:13:51Z</time></trkpt><trkpt lat="15.492344035771584" lon="120.67688959151255"><ele>29.0</ele><time>2026-03-29T08:13:52Z</time></trkpt><trkpt lat="15.492078039541653" lon="120.67695504977048"><ele>28.0</ele><time>2026-03-29T08:13:53Z</time></trkpt><trkpt lat="15.491810390458363" lon="120.67701956850158"><ele>27.0</ele><time>2026-03-29T08:13:54Z</time></trkpt><trkpt lat="15.491540870387619" lon="120.67708167286503"><ele>27.0</ele><time>2026-03-29T08:13:55Z</time></trkpt><trkpt lat="15.491269949993137" lon="120.67714284283495"><ele>27.0</ele><time>2026-03-29T08:13:56Z</time></trkpt><trkpt lat="15.490996581879054" lon="120.6772033332412"><ele>27.5</ele><time>2026-03-29T08:13:57Z</time></trkpt><trkpt lat="15.490720716222587" lon="120.67726248080922"><ele>28.0</ele><time>2026-03-29T08:13:58Z</time></trkpt><trkpt lat="15.490443131336587" lon="120.67732159941372"><ele>28.0</ele><time>2026-03-29T08:13:59Z</time></trkpt><trkpt lat="15.490163241254871" lon="120.6773788398313"><ele>28.0</ele><time>2026-03-29T08:14:00Z</time></trkpt><trkpt lat="15.489881455917647" lon="120.6774345910975"><ele>28.0</ele><time>2026-03-29T08:14:01Z</time></trkpt><trkpt lat="15.489600028574888" lon="120.67748951172618"><ele>28.0</ele><time>2026-03-29T08:14:02Z</time></trkpt><trkpt lat="15.48931771297639" lon="120.67754261565051"><ele>28.5</ele><time>2026-03-29T08:14:03Z</time></trkpt><trkpt lat="15.489034896347343" lon="120.6775925300561"><ele>29.0</ele><time>2026-03-29T08:14:04Z</time></trkpt><trkpt lat="15.488751717198282" lon="120.67764027712893"><ele>29.0</ele><time>2026-03-29T08:14:05Z</time></trkpt><trkpt lat="15.488468925418502" lon="120.67768509791976"><ele>29.0</ele><time>2026-03-29T08:14:06Z</time></trkpt><trkpt lat="15.48818654026903" lon="120.67772880933073"><ele>29.0</ele><time>2026-03-29T08:14:07Z</time></trkpt><trkpt lat="15.487905189321772" lon="120.67777045128793"><ele>29.0</ele><time>2026-03-29T08:14:08Z</time></trkpt><trkpt lat="15.487624625735812" lon="120.67780944367439"><ele>29.0</ele><time>2026-03-29T08:14:09Z</time></trkpt><trkpt lat="15.4873449493354" lon="120.67784813245422"><ele>29.0</ele><time>2026-03-29T08:14:10Z</time></trkpt><trkpt lat="15.487065789367616" lon="120.67788568515813"><ele>29.5</ele><time>2026-03-29T08:14:11Z</time></trkpt><trkpt lat="15.486787188650688" lon="120.67792152170664"><ele>30.0</ele><time>2026-03-29T08:14:12Z</time></trkpt><trkpt lat="15.486510273811504" lon="120.67795537259461"><ele>30.5</ele><time>2026-03-29T08:14:13Z</time></trkpt><trkpt lat="15.486236427732528" lon="120.67798639799574"><ele>31.0</ele><time>2026-03-29T08:14:14Z</time></trkpt><trkpt lat="15.485966405445522" lon="120.67801475217831"><ele>31.0</ele><time>2026-03-29T08:14:15Z</time></trkpt><trkpt lat="15.485698319398368" lon="120.67804426165465"><ele>31.0</ele><time>2026-03-29T08:14:16Z</time></trkpt><trkpt lat="15.485430088649014" lon="120.67807122287516"><ele>32.0</ele><time>2026-03-29T08:14:17Z</time></trkpt><trkpt lat="15.4851628742524" lon="120.6780955793551"><ele>33.0</ele><time>2026-03-29T08:14:18Z</time></trkpt><trkpt lat="15.484896631125352" lon="120.67812100511225"><ele>33.0</ele><time>2026-03-29T08:14:19Z</time></trkpt><trkpt lat="15.484632311690124" lon="120.67813895307302"><ele>33.0</ele><time>2026-03-29T08:14:20Z</time></trkpt><trkpt lat="15.484366515581513" lon="120.67815877400639"><ele>32.0</ele><time>2026-03-29T08:14:21Z</time></trkpt><trkpt lat="15.484099041835325" lon="120.67817564527847"><ele>31.0</ele><time>2026-03-29T08:14:22Z</time></trkpt><trkpt lat="15.48383204060139" lon="120.67818928608091"><ele>30.5</ele><time>2026-03-29T08:14:23Z</time></trkpt><trkpt lat="15.483564993727281" lon="120.678204253547"><ele>30.0</ele><time>2026-03-29T08:14:24Z</time></trkpt><trkpt lat="15.483297195064605" lon="120.6782166739873"><ele>30.0</ele><time>2026-03-29T08:14:25Z</time></trkpt><trkpt lat="15.483027330127701" lon="120.67822773268114"><ele>30.0</ele><time>2026-03-29T08:14:26Z</time></trkpt><trkpt lat="15.482755868653662" lon="120.67823686730983"><ele>29.5</ele><time>2026-03-29T08:14:27Z</time></trkpt><trkpt lat="15.482481677258194" lon="120.6782453947888"><ele>29.0</ele><time>2026-03-29T08:14:28Z</time></trkpt><trkpt lat="15.482206723963781" lon="120.67825505417622"><ele>27.5</ele><time>2026-03-29T08:14:29Z</time></trkpt><trkpt lat="15.481930845322882" lon="120.67826583286538"><ele>26.0</ele><time>2026-03-29T08:14:30Z</time></trkpt><trkpt lat="15.481654486090099" lon="120.67827669715024"><ele>26.0</ele><time>2026-03-29T08:14:31Z</time></trkpt><trkpt lat="15.481377702215983" lon="120.6782819824623"><ele>26.0</ele><time>2026-03-29T08:14:32Z</time></trkpt><trkpt lat="15.481100438206788" lon="120.67828180806997"><ele>27.5</ele><time>2026-03-29T08:14:33Z</time></trkpt><trkpt lat="15.480822621002309" lon="120.67827644298198"><ele>29.0</ele><time>2026-03-29T08:14:34Z</time></trkpt><trkpt lat="15.480543459975356" lon="120.67827027231952"><ele>29.5</ele><time>2026-03-29T08:14:35Z</time></trkpt><trkpt lat="15.480263858459068" lon="120.6782622245723"><ele>30.0</ele><time>2026-03-29T08:14:36Z</time></trkpt><trkpt lat="15.47998464919344" lon="120.67825291333804"><ele>30.0</ele><time>2026-03-29T08:14:37Z</time></trkpt><trkpt lat="15.47970654538615" lon="120.67824148766502"><ele>30.0</ele><time>2026-03-29T08:14:38Z</time></trkpt><trkpt lat="15.479427817066489" lon="120.67822864317891"><ele>30.0</ele><time>2026-03-29T08:14:39Z</time></trkpt><trkpt lat="15.479148553103666" lon="120.67821400326794"><ele>30.0</ele><time>2026-03-29T08:14:40Z</time></trkpt><trkpt lat="15.478870932184817" lon="120.67819918509396"><ele>29.5</ele><time>2026-03-29T08:14:41Z</time></trkpt><trkpt lat="15.47859551164009" lon="120.67818275783347"><ele>29.0</ele><time>2026-03-29T08:14:42Z</time></trkpt><trkpt lat="15.478324531149543" lon="120.6781650384028"><ele>29.0</ele><time>2026-03-29T08:14:43Z</time></trkpt><trkpt lat="15.478057331046355" lon="120.67814581766672"><ele>29.0</ele><time>2026-03-29T08:14:44Z</time></trkpt><trkpt lat="15.477794601239744" lon="120.67812584531825"><ele>30.0</ele><time>2026-03-29T08:14:45Z</time></trkpt><trkpt lat="15.477535995018473" lon="120.67810456364636"><ele>31.0</ele><time>2026-03-29T08:14:46Z</time></trkpt><trkpt lat="15.477282612625423" lon="120.67808355613849"><ele>31.0</ele><time>2026-03-29T08:14:47Z</time></trkpt><trkpt lat="15.477031897481641" lon="120.67806264600716"><ele>31.0</ele><time>2026-03-29T08:14:48Z</time></trkpt><trkpt lat="15.476783224648534" lon="120.67804206258226"><ele>31.0</ele><time>2026-03-29T08:14:49Z</time></trkpt><trkpt lat="15.47653600558212" lon="120.67802094640739"><ele>31.0</ele><time>2026-03-29T08:14:50Z</time></trkpt><trkpt lat="15.476287869600577" lon="120.67799853659932"><ele>31.0</ele><time>2026-03-29T08:14:51Z</time></trkpt><trkpt lat="15.476040287286214" lon="120.67797681205346"><ele>31.0</ele><time>2026-03-29T08:14:52Z</time></trkpt><trkpt lat="15.475793891673346" lon="120.67795419935351"><ele>31.0</ele><time>2026-03-29T08:14:53Z</time></trkpt><trkpt lat="15.475546515241767" lon="120.67793207491141"><ele>31.0</ele><time>2026-03-29T08:14:54Z</time></trkpt><trkpt lat="15.475299316513306" lon="120.67790974309314"><ele>30.0</ele><time>2026-03-29T08:14:55Z</time></trkpt><trkpt lat="15.475051471741473" lon="120.67788763936166"><ele>29.0</ele><time>2026-03-29T08:14:56Z</time></trkpt><trkpt lat="15.474805390790504" lon="120.67786673957228"><ele>28.0</ele><time>2026-03-29T08:14:57Z</time></trkpt><trkpt lat="15.474563307738961" lon="120.67784479431256"><ele>27.0</ele><time>2026-03-29T08:14:58Z</time></trkpt><trkpt lat="15.474327087249634" lon="120.67782278503523"><ele>27.0</ele><time>2026-03-29T08:14:59Z</time></trkpt><trkpt lat="15.474098038723849" lon="120.67780087732484"><ele>27.0</ele><time>2026-03-29T08:15:00Z</time></trkpt><trkpt lat="15.473874072006746" lon="120.67777825865404"><ele>27.333333333333336</ele><time>2026-03-29T08:15:01Z</time></trkpt><trkpt lat="15.473654365230267" lon="120.67775660860543"><ele>27.666666666666668</ele><time>2026-03-29T08:15:02Z</time></trkpt><trkpt lat="15.473439911096163" lon="120.67773550985103"><ele>28.0</ele><time>2026-03-29T08:15:03Z</time></trkpt><trkpt lat="15.473229163377157" lon="120.67771471116383"><ele>28.0</ele><time>2026-03-29T08:15:04Z</time></trkpt><trkpt lat="15.473022269164504" lon="120.67769446882802"><ele>28.0</ele><time>2026-03-29T08:15:05Z</time></trkpt><trkpt lat="15.472816230259717" lon="120.677673391714"><ele>28.0</ele><time>2026-03-29T08:15:06Z</time></trkpt><trkpt lat="15.472609558780164" lon="120.67765152592591"><ele>28.0</ele><time>2026-03-29T08:15:07Z</time></trkpt><trkpt lat="15.472402887984282" lon="120.67762863650513"><ele>28.0</ele><time>2026-03-29T08:15:08Z</time></trkpt><trkpt lat="15.472197011767536" lon="120.67760439332868"><ele>28.0</ele><time>2026-03-29T08:15:09Z</time></trkpt><trkpt lat="15.47199260878388" lon="120.67758038687043"><ele>28.333333333333336</ele><time>2026-03-29T08:15:10Z</time></trkpt><trkpt lat="15.47178900245912" lon="120.677556631894"><ele>28.666666666666664</ele><time>2026-03-29T08:15:11Z</time></trkpt><trkpt lat="15.47158571809973" lon="120.67753052945467"><ele>29.0</ele><time>2026-03-29T08:15:12Z</time></trkpt><trkpt lat="15.471382793519828" lon="120.67750326954857"><ele>28.666666666666664</ele><time>2026-03-29T08:15:13Z</time></trkpt><trkpt lat="15.471180846808" lon="120.67747531743866"><ele>28.333333333333336</ele><time>2026-03-29T08:15:14Z</time></trkpt><trkpt lat="15.470980536653684" lon="120.67744781811632"><ele>28.0</ele><time>2026-03-29T08:15:15Z</time></trkpt><trkpt lat="15.470781763895923" lon="120.67742007206104"><ele>28.0</ele><time>2026-03-29T08:15:16Z</time></trkpt><trkpt lat="15.470583688641993" lon="120.67739129498918"><ele>28.0</ele><time>2026-03-29T08:15:17Z</time></trkpt><trkpt lat="15.47038504398167" lon="120.67736180436052"><ele>28.0</ele><time>2026-03-29T08:15:18Z</time></trkpt><trkpt lat="15.470186131444544" lon="120.67733224506487"><ele>28.0</ele><time>2026-03-29T08:15:19Z</time></trkpt><trkpt lat="15.469987911906887" lon="120.67730204011134"><ele>28.0</ele><time>2026-03-29T08:15:20Z</time></trkpt><trkpt lat="15.469788874489371" lon="120.6772710004152"><ele>28.0</ele><time>2026-03-29T08:15:21Z</time></trkpt><trkpt lat="15.46958913245979" lon="120.67723792422186"><ele>28.666666666666668</ele><time>2026-03-29T08:15:22Z</time></trkpt><trkpt lat="15.469388113708568" lon="120.67720527983641"><ele>29.333333333333336</ele><time>2026-03-29T08:15:23Z</time></trkpt><trkpt lat="15.469186142895841" lon="120.67717264831143"><ele>30.0</ele><time>2026-03-29T08:15:24Z</time></trkpt><trkpt lat="15.468984859829531" lon="120.6771404433604"><ele>30.0</ele><time>2026-03-29T08:15:25Z</time></trkpt><trkpt lat="15.46878665732838" lon="120.67710724517399"><ele>30.0</ele><time>2026-03-29T08:15:26Z</time></trkpt><trkpt lat="15.468591703949972" lon="120.677073031864"><ele>30.0</ele><time>2026-03-29T08:15:27Z</time></trkpt><trkpt lat="15.468400816647003" lon="120.6770396747815"><ele>30.0</ele><time>2026-03-29T08:15:28Z</time></trkpt><trkpt lat="15.468214521578075" lon="120.67700637505429"><ele>30.0</ele><time>2026-03-29T08:15:29Z</time></trkpt><trkpt lat="15.468032258048117" lon="120.67697271898473"><ele>30.0</ele><time>2026-03-29T08:15:30Z</time></trkpt><trkpt lat="15.467854202634289" lon="120.67693974906318"><ele>31.0</ele><time>2026-03-29T08:15:31Z</time></trkpt><trkpt lat="15.467679673349732" lon="120.67690512900526"><ele>32.0</ele><time>2026-03-29T08:15:32Z</time></trkpt><trkpt lat="15.467505212939853" lon="120.67687079710353"><ele>33.0</ele><time>2026-03-29T08:15:33Z</time></trkpt><trkpt lat="15.46732909610844" lon="120.67683765661187"><ele>33.0</ele><time>2026-03-29T08:15:34Z</time></trkpt><trkpt lat="15.467151804477748" lon="120.67680390423696"><ele>33.0</ele><time>2026-03-29T08:15:35Z</time></trkpt><trkpt lat="15.46697377890686" lon="120.67676814087815"><ele>33.0</ele><time>2026-03-29T08:15:36Z</time></trkpt><trkpt lat="15.46679374376545" lon="120.67673205104798"><ele>32.0</ele><time>2026-03-29T08:15:37Z</time></trkpt><trkpt lat="15.466612757820315" lon="120.67669570655143"><ele>31.0</ele><time>2026-03-29T08:15:38Z</time></trkpt><trkpt lat="15.466435674425917" lon="120.67665915689388"><ele>30.0</ele><time>2026-03-29T08:15:39Z</time></trkpt><trkpt lat="15.466269092466346" lon="120.67662430689461"><ele>29.333333333333336</ele><time>2026-03-29T08:15:40Z</time></trkpt><trkpt lat="15.466112901517697" lon="120.67659155931439"><ele>28.666666666666668</ele><time>2026-03-29T08:15:41Z</time></trkpt><trkpt lat="15.465965692911508" lon="120.67655996155985"><ele>28.0</ele><time>2026-03-29T08:15:42Z</time></trkpt><trkpt lat="15.465825099890527" lon="120.67652978547571"><ele>28.0</ele><time>2026-03-29T08:15:43Z</time></trkpt><trkpt lat="15.465692914501208" lon="120.67650164428227"><ele>28.0</ele><time>2026-03-29T08:15:44Z</time></trkpt><trkpt lat="15.465564879945314" lon="120.67647423873646"><ele>28.0</ele><time>2026-03-29T08:15:45Z</time></trkpt><trkpt lat="15.465439386152058" lon="120.67644733997093"><ele>28.0</ele><time>2026-03-29T08:15:46Z</time></trkpt><trkpt lat="15.465317489068164" lon="120.67641982386507"><ele>28.25</ele><time>2026-03-29T08:15:47Z</time></trkpt><trkpt lat="15.465198545709448" lon="120.67639292081901"><ele>28.5</ele><time>2026-03-29T08:15:48Z</time></trkpt><trkpt lat="15.465082717566327" lon="120.67636701368158"><ele>28.75</ele><time>2026-03-29T08:15:49Z</time></trkpt><trkpt lat="15.464970435387041" lon="120.67634129552995"><ele>29.0</ele><time>2026-03-29T08:15:50Z</time></trkpt><trkpt lat="15.464862119001703" lon="120.6763161713024"><ele>29.0</ele><time>2026-03-29T08:15:51Z</time></trkpt><trkpt lat="15.464757293489658" lon="120.67629124171116"><ele>29.0</ele><time>2026-03-29T08:15:52Z</time></trkpt><trkpt lat="15.464654047471313" lon="120.67626645746986"><ele>29.0</ele><time>2026-03-29T08:15:53Z</time></trkpt><trkpt lat="15.464550911125631" lon="120.67624260550227"><ele>29.0</ele><time>2026-03-29T08:15:54Z</time></trkpt><trkpt lat="15.464449654894858" lon="120.67621913892037"><ele>29.0</ele><time>2026-03-29T08:15:55Z</time></trkpt><trkpt lat="15.464351668982594" lon="120.67619484747267"><ele>29.0</ele><time>2026-03-29T08:15:56Z</time></trkpt><trkpt lat="15.464252176518608" lon="120.67617021084556"><ele>29.0</ele><time>2026-03-29T08:15:57Z</time></trkpt><trkpt lat="15.46415008245511" lon="120.6761420856356"><ele>29.0</ele><time>2026-03-29T08:15:58Z</time></trkpt><trkpt lat="15.46404463387158" lon="120.67611202934586"><ele>29.0</ele><time>2026-03-29T08:15:59Z</time></trkpt><trkpt lat="15.463935710601428" lon="120.67607944540835"><ele>29.0</ele><time>2026-03-29T08:16:00Z</time></trkpt><trkpt lat="15.46382590195891" lon="120.67604502367611"><ele>28.2</ele><time>2026-03-29T08:16:01Z</time></trkpt><trkpt lat="15.463716200754819" lon="120.67601099334132"><ele>27.4</ele><time>2026-03-29T08:16:02Z</time></trkpt><trkpt lat="15.463609732610726" lon="120.675978198038"><ele>26.6</ele><time>2026-03-29T08:16:03Z</time></trkpt><trkpt lat="15.463505215447425" lon="120.67594660408015"><ele>25.8</ele><time>2026-03-29T08:16:04Z</time></trkpt><trkpt lat="15.463404481163872" lon="120.67591734110982"><ele>25.0</ele><time>2026-03-29T08:16:05Z</time></trkpt><trkpt lat="15.463308216525881" lon="120.67588984830773"><ele>25.0</ele><time>2026-03-29T08:16:06Z</time></trkpt><trkpt lat="15.463220049868559" lon="120.67586434692646"><ele>25.0</ele><time>2026-03-29T08:16:07Z</time></trkpt><trkpt lat="15.463143398857241" lon="120.67584196990627"><ele>25.0</ele><time>2026-03-29T08:16:08Z</time></trkpt><trkpt lat="15.463034747315012" lon="120.67581134043643"><ele>25.0</ele><time>2026-03-29T08:16:10Z</time></trkpt><trkpt lat="15.462943218669144" lon="120.67578536914769"><ele>25.0</ele><time>2026-03-29T08:16:12Z</time></trkpt><trkpt lat="15.462862028372562" lon="120.67576224301133"><ele>25.6</ele><time>2026-03-29T08:16:14Z</time></trkpt><trkpt lat="15.462799238075444" lon="120.67574488148087"><ele>26.2</ele><time>2026-03-29T08:16:16Z</time></trkpt><trkpt lat="15.462709184290789" lon="120.67572114299573"><ele>26.799999999999997</ele><time>2026-03-29T08:16:19Z</time></trkpt><trkpt lat="15.462645248897582" lon="120.67570397204874"><ele>27.4</ele><time>2026-03-29T08:16:21Z</time></trkpt><trkpt lat="15.462542092297873" lon="120.67567713202595"><ele>28.0</ele><time>2026-03-29T08:16:23Z</time></trkpt><trkpt lat="15.462424659884174" lon="120.67564639017924"><ele>28.000000000000004</ele><time>2026-03-29T08:16:25Z</time></trkpt><trkpt lat="15.462360911481097" lon="120.67562940780164"><ele>28.0</ele><time>2026-03-29T08:16:26Z</time></trkpt><trkpt lat="15.462290924469443" lon="120.67561080985422"><ele>28.0</ele><time>2026-03-29T08:16:27Z</time></trkpt><trkpt lat="15.462215817822708" lon="120.67559099160277"><ele>28.0</ele><time>2026-03-29T08:16:28Z</time></trkpt><trkpt lat="15.46213405571953" lon="120.67557018489889"><ele>28.000000000000004</ele><time>2026-03-29T08:16:29Z</time></trkpt><trkpt lat="15.462048692452846" lon="120.6755481266736"><ele>28.0</ele><time>2026-03-29T08:16:30Z</time></trkpt><trkpt lat="15.461957653823927" lon="120.67552372800361"><ele>28.4</ele><time>2026-03-29T08:16:31Z</time></trkpt><trkpt lat="15.461861587327812" lon="120.67549688334263"><ele>28.799999999999997</ele><time>2026-03-29T08:16:32Z</time></trkpt><trkpt lat="15.461757982105434" lon="120.6754678173253"><ele>29.2</ele><time>2026-03-29T08:16:33Z</time></trkpt><trkpt lat="15.461648628172108" lon="120.67544060731578"><ele>29.6</ele><time>2026-03-29T08:16:34Z</time></trkpt><trkpt lat="15.461534215219395" lon="120.67541354204995"><ele>30.0</ele><time>2026-03-29T08:16:35Z</time></trkpt><trkpt lat="15.461414535606071" lon="120.67538654904979"><ele>30.0</ele><time>2026-03-29T08:16:36Z</time></trkpt><trkpt lat="15.461290993361043" lon="120.67535464365405"><ele>30.0</ele><time>2026-03-29T08:16:37Z</time></trkpt><trkpt lat="15.461163810971351" lon="120.67532090841397"><ele>30.0</ele><time>2026-03-29T08:16:38Z</time></trkpt><trkpt lat="15.46103373646803" lon="120.67528471954851"><ele>30.0</ele><time>2026-03-29T08:16:39Z</time></trkpt><trkpt lat="15.46089990597042" lon="120.67524772093087"><ele>29.0</ele><time>2026-03-29T08:16:40Z</time></trkpt><trkpt lat="15.460762594223388" lon="120.67520855224153"><ele>28.0</ele><time>2026-03-29T08:16:41Z</time></trkpt><trkpt lat="15.460621302396836" lon="120.67516709691756"><ele>27.0</ele><time>2026-03-29T08:16:42Z</time></trkpt><trkpt lat="15.460475206533898" lon="120.67512309606077"><ele>26.0</ele><time>2026-03-29T08:16:43Z</time></trkpt><trkpt lat="15.460324101614246" lon="120.67507647142244"><ele>25.333333333333332</ele><time>2026-03-29T08:16:44Z</time></trkpt><trkpt lat="15.460168467824113" lon="120.67502800563636"><ele>24.666666666666664</ele><time>2026-03-29T08:16:45Z</time></trkpt><trkpt lat="15.460008435110588" lon="120.67497888062688"><ele>24.0</ele><time>2026-03-29T08:16:46Z</time></trkpt><trkpt lat="15.459843721265388" lon="120.67492720810722"><ele>24.0</ele><time>2026-03-29T08:16:47Z</time></trkpt><trkpt lat="15.459676944384249" lon="120.67487520985887"><ele>24.0</ele><time>2026-03-29T08:16:48Z</time></trkpt><trkpt lat="15.459506906881309" lon="120.6748228129935"><ele>24.0</ele><time>2026-03-29T08:16:49Z</time></trkpt><trkpt lat="15.459334486308698" lon="120.67476914410335"><ele>24.666666666666664</ele><time>2026-03-29T08:16:50Z</time></trkpt><trkpt lat="15.459159204005077" lon="120.67471353938195"><ele>25.333333333333332</ele><time>2026-03-29T08:16:51Z</time></trkpt><trkpt lat="15.458980856189948" lon="120.67465683237171"><ele>26.0</ele><time>2026-03-29T08:16:52Z</time></trkpt><trkpt lat="15.45880031428562" lon="120.67459841251612"><ele>26.333333333333332</ele><time>2026-03-29T08:16:53Z</time></trkpt><trkpt lat="15.45861787016206" lon="120.67453837685059"><ele>26.666666666666664</ele><time>2026-03-29T08:16:54Z</time></trkpt><trkpt lat="15.458433426885671" lon="120.67447734907053"><ele>27.0</ele><time>2026-03-29T08:16:55Z</time></trkpt><trkpt lat="15.458247875288484" lon="120.67441589438117"><ele>27.666666666666664</ele><time>2026-03-29T08:16:56Z</time></trkpt><trkpt lat="15.458060501067104" lon="120.67435368501273"><ele>28.333333333333332</ele><time>2026-03-29T08:16:57Z</time></trkpt><trkpt lat="15.457871438604762" lon="120.67428949664559"><ele>29.0</ele><time>2026-03-29T08:16:58Z</time></trkpt><trkpt lat="15.457680209591969" lon="120.67422456873629"><ele>29.0</ele><time>2026-03-29T08:16:59Z</time></trkpt><trkpt lat="15.45748724282436" lon="120.67415826871695"><ele>29.0</ele><time>2026-03-29T08:17:00Z</time></trkpt><trkpt lat="15.457292148289044" lon="120.6740907820989"><ele>29.0</ele><time>2026-03-29T08:17:01Z</time></trkpt><trkpt lat="15.457095884106998" lon="120.6740228860261"><ele>29.0</ele><time>2026-03-29T08:17:02Z</time></trkpt><trkpt lat="15.45689712517533" lon="120.67395217778545"><ele>29.0</ele><time>2026-03-29T08:17:03Z</time></trkpt><trkpt lat="15.456696092602446" lon="120.67388188151303"><ele>29.0</ele><time>2026-03-29T08:17:04Z</time></trkpt><trkpt lat="15.45649394937481" lon="120.67381108855757"><ele>29.0</ele><time>2026-03-29T08:17:05Z</time></trkpt><trkpt lat="15.456289949590847" lon="120.6737403851978"><ele>29.0</ele><time>2026-03-29T08:17:06Z</time></trkpt><trkpt lat="15.456084268644233" lon="120.67366779754062"><ele>29.0</ele><time>2026-03-29T08:17:07Z</time></trkpt><trkpt lat="15.455877510356686" lon="120.6735943251253"><ele>29.333333333333332</ele><time>2026-03-29T08:17:08Z</time></trkpt><trkpt lat="15.455669564440278" lon="120.67352207563634"><ele>29.666666666666664</ele><time>2026-03-29T08:17:09Z</time></trkpt><trkpt lat="15.455460631634695" lon="120.673450031519"><ele>30.0</ele><time>2026-03-29T08:17:10Z</time></trkpt><trkpt lat="15.45525142156026" lon="120.67337773137312"><ele>29.333333333333336</ele><time>2026-03-29T08:17:11Z</time></trkpt><trkpt lat="15.45504203882602" lon="120.67330494062335"><ele>28.666666666666668</ele><time>2026-03-29T08:17:12Z</time></trkpt><trkpt lat="15.454830704180049" lon="120.67323202453058"><ele>28.0</ele><time>2026-03-29T08:17:13Z</time></trkpt><trkpt lat="15.4546191851989" lon="120.67315681447276"><ele>28.0</ele><time>2026-03-29T08:17:14Z</time></trkpt><trkpt lat="15.4544051488303" lon="120.67308321685513"><ele>28.0</ele><time>2026-03-29T08:17:15Z</time></trkpt><trkpt lat="15.454190259397366" lon="120.67301053912152"><ele>28.0</ele><time>2026-03-29T08:17:16Z</time></trkpt><trkpt lat="15.453973669401726" lon="120.67293520001097"><ele>28.0</ele><time>2026-03-29T08:17:17Z</time></trkpt><trkpt lat="15.453755021541445" lon="120.67285989111953"><ele>28.0</ele><time>2026-03-29T08:17:18Z</time></trkpt><trkpt lat="15.453534052207498" lon="120.67278460152484"><ele>28.0</ele><time>2026-03-29T08:17:19Z</time></trkpt><trkpt lat="15.453310641446361" lon="120.6727080638536"><ele>28.0</ele><time>2026-03-29T08:17:20Z</time></trkpt><trkpt lat="15.453085517950683" lon="120.67262941908801"><ele>28.0</ele><time>2026-03-29T08:17:21Z</time></trkpt><trkpt lat="15.452858074397904" lon="120.67254997616172"><ele>29.0</ele><time>2026-03-29T08:17:22Z</time></trkpt><trkpt lat="15.452628322077484" lon="120.6724713383092"><ele>30.0</ele><time>2026-03-29T08:17:23Z</time></trkpt><trkpt lat="15.452396198717093" lon="120.67239270644585"><ele>30.0</ele><time>2026-03-29T08:17:24Z</time></trkpt><trkpt lat="15.452162391218536" lon="120.67231412161586"><ele>30.0</ele><time>2026-03-29T08:17:25Z</time></trkpt><trkpt lat="15.451926703084986" lon="120.67223524730245"><ele>29.0</ele><time>2026-03-29T08:17:26Z</time></trkpt><trkpt lat="15.451689974550076" lon="120.67215490072152"><ele>28.0</ele><time>2026-03-29T08:17:27Z</time></trkpt><trkpt lat="15.451452375690586" lon="120.6720750845188"><ele>28.5</ele><time>2026-03-29T08:17:28Z</time></trkpt><trkpt lat="15.451213338037862" lon="120.67199505947431"><ele>29.0</ele><time>2026-03-29T08:17:29Z</time></trkpt><trkpt lat="15.450973885690539" lon="120.67191500867283"><ele>29.0</ele><time>2026-03-29T08:17:30Z</time></trkpt><trkpt lat="15.4507336862796" lon="120.67183396258773"><ele>29.0</ele><time>2026-03-29T08:17:31Z</time></trkpt><trkpt lat="15.450493598246387" lon="120.67175243166942"><ele>29.0</ele><time>2026-03-29T08:17:32Z</time></trkpt><trkpt lat="15.450253428023984" lon="120.67166986014095"><ele>29.0</ele><time>2026-03-29T08:17:33Z</time></trkpt><trkpt lat="15.450012969923327" lon="120.67158693971935"><ele>29.0</ele><time>2026-03-29T08:17:34Z</time></trkpt><trkpt lat="15.449771300065224" lon="120.6715035760689"><ele>29.0</ele><time>2026-03-29T08:17:35Z</time></trkpt><trkpt lat="15.449529195005216" lon="120.67142042440473"><ele>28.5</ele><time>2026-03-29T08:17:36Z</time></trkpt><trkpt lat="15.44928553124052" lon="120.67133577393784"><ele>28.0</ele><time>2026-03-29T08:17:37Z</time></trkpt><trkpt lat="15.449040978245558" lon="120.67125061353234"><ele>28.0</ele><time>2026-03-29T08:17:38Z</time></trkpt><trkpt lat="15.448796752226386" lon="120.6711648167204"><ele>28.0</ele><time>2026-03-29T08:17:39Z</time></trkpt><trkpt lat="15.44855036358864" lon="120.67107821727113"><ele>28.5</ele><time>2026-03-29T08:17:40Z</time></trkpt><trkpt lat="15.44830338971597" lon="120.67099132000253"><ele>29.0</ele><time>2026-03-29T08:17:41Z</time></trkpt><trkpt lat="15.448055619829052" lon="120.67090421232713"><ele>29.5</ele><time>2026-03-29T08:17:42Z</time></trkpt><trkpt lat="15.4478070814706" lon="120.67081789854237"><ele>30.0</ele><time>2026-03-29T08:17:43Z</time></trkpt><trkpt lat="15.447557744700365" lon="120.6707310154098"><ele>30.0</ele><time>2026-03-29T08:17:44Z</time></trkpt><trkpt lat="15.447308034214426" lon="120.67064366234186"><ele>30.0</ele><time>2026-03-29T08:17:45Z</time></trkpt><trkpt lat="15.447057733012517" lon="120.67055622287658"><ele>30.0</ele><time>2026-03-29T08:17:46Z</time></trkpt><trkpt lat="15.446807231392611" lon="120.67046880694701"><ele>30.0</ele><time>2026-03-29T08:17:47Z</time></trkpt><trkpt lat="15.446556749969023" lon="120.67038125019778"><ele>30.0</ele><time>2026-03-29T08:17:48Z</time></trkpt><trkpt lat="15.446306563468221" lon="120.6702942188073"><ele>30.0</ele><time>2026-03-29T08:17:49Z</time></trkpt><trkpt lat="15.446056155518798" lon="120.67020788918524"><ele>29.0</ele><time>2026-03-29T08:17:50Z</time></trkpt><trkpt lat="15.445806075103881" lon="120.67012139784187"><ele>28.0</ele><time>2026-03-29T08:17:51Z</time></trkpt><trkpt lat="15.445556869750336" lon="120.67003491366196"><ele>28.5</ele><time>2026-03-29T08:17:52Z</time></trkpt><trkpt lat="15.445308517042635" lon="120.66994848180889"><ele>29.0</ele><time>2026-03-29T08:17:53Z</time></trkpt><trkpt lat="15.445060822603121" lon="120.66986122326674"><ele>29.0</ele><time>2026-03-29T08:17:54Z</time></trkpt><trkpt lat="15.444812941934329" lon="120.66977399252114"><ele>29.0</ele><time>2026-03-29T08:17:55Z</time></trkpt><trkpt lat="15.44456420874815" lon="120.66968645547989"><ele>29.5</ele><time>2026-03-29T08:17:56Z</time></trkpt><trkpt lat="15.44431470309012" lon="120.66959893997117"><ele>30.0</ele><time>2026-03-29T08:17:57Z</time></trkpt><trkpt lat="15.444064435192473" lon="120.66951118689552"><ele>30.0</ele><time>2026-03-29T08:17:58Z</time></trkpt><trkpt lat="15.44381363677339" lon="120.66942494237126"><ele>30.0</ele><time>2026-03-29T08:17:59Z</time></trkpt><trkpt lat="15.443561507258334" lon="120.6693373209147"><ele>31.0</ele><time>2026-03-29T08:18:00Z</time></trkpt><trkpt lat="15.443307815402726" lon="120.66924952020074"><ele>32.0</ele><time>2026-03-29T08:18:01Z</time></trkpt><trkpt lat="15.443053135369853" lon="120.66916114820262"><ele>30.0</ele><time>2026-03-29T08:18:02Z</time></trkpt><trkpt lat="15.442798768331045" lon="120.66907251535945"><ele>28.0</ele><time>2026-03-29T08:18:03Z</time></trkpt><trkpt lat="15.442543803487913" lon="120.66898329705418"><ele>28.0</ele><time>2026-03-29T08:18:04Z</time></trkpt><trkpt lat="15.442288996339597" lon="120.66889283372403"><ele>28.0</ele><time>2026-03-29T08:18:05Z</time></trkpt><trkpt lat="15.442034035600708" lon="120.6688035968547"><ele>28.5</ele><time>2026-03-29T08:18:06Z</time></trkpt><trkpt lat="15.441780542865354" lon="120.66871523753098"><ele>29.0</ele><time>2026-03-29T08:18:07Z</time></trkpt><trkpt lat="15.441526878834303" lon="120.66862651049247"><ele>29.5</ele><time>2026-03-29T08:18:08Z</time></trkpt><trkpt lat="15.441272390307297" lon="120.66853789970642"><ele>30.0</ele><time>2026-03-29T08:18:09Z</time></trkpt><trkpt lat="15.44101826114671" lon="120.66844970943507"><ele>30.0</ele><time>2026-03-29T08:18:10Z</time></trkpt><trkpt lat="15.440763893874868" lon="120.66836101489451"><ele>30.0</ele><time>2026-03-29T08:18:11Z</time></trkpt><trkpt lat="15.44051030258979" lon="120.66827327831066"><ele>31.0</ele><time>2026-03-29T08:18:12Z</time></trkpt><trkpt lat="15.440256589276697" lon="120.66818512941848"><ele>32.0</ele><time>2026-03-29T08:18:13Z</time></trkpt><trkpt lat="15.440003854996302" lon="120.66809798965082"><ele>32.0</ele><time>2026-03-29T08:18:14Z</time></trkpt><trkpt lat="15.439752140805531" lon="120.66801145152289"><ele>32.0</ele><time>2026-03-29T08:18:15Z</time></trkpt><trkpt lat="15.439501342083222" lon="120.66792466689938"><ele>32.0</ele><time>2026-03-29T08:18:16Z</time></trkpt><trkpt lat="15.439250261887336" lon="120.66783762334292"><ele>32.0</ele><time>2026-03-29T08:18:17Z</time></trkpt><trkpt lat="15.439001306138216" lon="120.6677489246887"><ele>31.5</ele><time>2026-03-29T08:18:18Z</time></trkpt><trkpt lat="15.43875359843056" lon="120.66765927814389"><ele>31.0</ele><time>2026-03-29T08:18:19Z</time></trkpt><trkpt lat="15.438505643004806" lon="120.66757170733446"><ele>31.0</ele><time>2026-03-29T08:18:20Z</time></trkpt><trkpt lat="15.438257899650095" lon="120.6674859934831"><ele>31.0</ele><time>2026-03-29T08:18:21Z</time></trkpt><trkpt lat="15.43801034735768" lon="120.66740049633047"><ele>31.5</ele><time>2026-03-29T08:18:22Z</time></trkpt><trkpt lat="15.437762993508809" lon="120.66731502079153"><ele>32.0</ele><time>2026-03-29T08:18:23Z</time></trkpt><trkpt lat="15.43751532613057" lon="120.66722880752299"><ele>32.0</ele><time>2026-03-29T08:18:24Z</time></trkpt><trkpt lat="15.437266879710116" lon="120.66714139524129"><ele>32.0</ele><time>2026-03-29T08:18:25Z</time></trkpt><trkpt lat="15.437016245754721" lon="120.66705639877249"><ele>32.0</ele><time>2026-03-29T08:18:26Z</time></trkpt><trkpt lat="15.436766069969911" lon="120.66696988905585"><ele>32.0</ele><time>2026-03-29T08:18:27Z</time></trkpt><trkpt lat="15.436515853941534" lon="120.66688298331024"><ele>32.0</ele><time>2026-03-29T08:18:28Z</time></trkpt><trkpt lat="15.436265240700532" lon="120.66679585206559"><ele>32.0</ele><time>2026-03-29T08:18:29Z</time></trkpt><trkpt lat="15.436014944923944" lon="120.66670860096808"><ele>32.0</ele><time>2026-03-29T08:18:30Z</time></trkpt><trkpt lat="15.435764605910752" lon="120.66662108699754"><ele>32.0</ele><time>2026-03-29T08:18:31Z</time></trkpt><trkpt lat="15.435514119275616" lon="120.66653410001294"><ele>32.0</ele><time>2026-03-29T08:18:32Z</time></trkpt><trkpt lat="15.435264115197137" lon="120.66644660435706"><ele>32.0</ele><time>2026-03-29T08:18:33Z</time></trkpt><trkpt lat="15.435013609284812" lon="120.6663594952767"><ele>32.0</ele><time>2026-03-29T08:18:34Z</time></trkpt><trkpt lat="15.434764218728374" lon="120.66627238919554"><ele>32.0</ele><time>2026-03-29T08:18:35Z</time></trkpt><trkpt lat="15.434514458479514" lon="120.66618522738702"><ele>32.0</ele><time>2026-03-29T08:18:36Z</time></trkpt><trkpt lat="15.43426454855335" lon="120.66609740032487"><ele>32.0</ele><time>2026-03-29T08:18:37Z</time></trkpt><trkpt lat="15.434014210606845" lon="120.66601011575726"><ele>32.5</ele><time>2026-03-29T08:18:38Z</time></trkpt><trkpt lat="15.43376328487328" lon="120.66592171662953"><ele>33.0</ele><time>2026-03-29T08:18:39Z</time></trkpt><trkpt lat="15.433512969562084" lon="120.66583544890386"><ele>33.0</ele><time>2026-03-29T08:18:40Z</time></trkpt><trkpt lat="15.433260760673987" lon="120.66574832266323"><ele>33.0</ele><time>2026-03-29T08:18:41Z</time></trkpt><trkpt lat="15.433008046633951" lon="120.66566032667268"><ele>32.5</ele><time>2026-03-29T08:18:42Z</time></trkpt><trkpt lat="15.43275482137033" lon="120.66557136321046"><ele>32.0</ele><time>2026-03-29T08:18:43Z</time></trkpt><trkpt lat="15.432502065821053" lon="120.6654814749034"><ele>32.0</ele><time>2026-03-29T08:18:44Z</time></trkpt><trkpt lat="15.432248637344568" lon="120.66539256927219"><ele>32.0</ele><time>2026-03-29T08:18:45Z</time></trkpt><trkpt lat="15.431994368397826" lon="120.66530366706405"><ele>32.0</ele><time>2026-03-29T08:18:46Z</time></trkpt><trkpt lat="15.431738618034073" lon="120.66521459971746"><ele>32.0</ele><time>2026-03-29T08:18:47Z</time></trkpt><trkpt lat="15.431482171426575" lon="120.66512568938957"><ele>32.5</ele><time>2026-03-29T08:18:48Z</time></trkpt><trkpt lat="15.43122479604974" lon="120.66503535340216"><ele>33.0</ele><time>2026-03-29T08:18:49Z</time></trkpt><trkpt lat="15.430967521948016" lon="120.6649459579046"><ele>33.0</ele><time>2026-03-29T08:18:50Z</time></trkpt><trkpt lat="15.43070944865943" lon="120.66485585102016"><ele>33.0</ele><time>2026-03-29T08:18:51Z</time></trkpt><trkpt lat="15.430450349754338" lon="120.66476572435279"><ele>32.0</ele><time>2026-03-29T08:18:52Z</time></trkpt><trkpt lat="15.430190674767221" lon="120.66467417425817"><ele>31.0</ele><time>2026-03-29T08:18:53Z</time></trkpt><trkpt lat="15.42992991039979" lon="120.6645825751725"><ele>31.0</ele><time>2026-03-29T08:18:54Z</time></trkpt><trkpt lat="15.42966725723559" lon="120.66449065331634"><ele>31.0</ele><time>2026-03-29T08:18:55Z</time></trkpt><trkpt lat="15.429404246797288" lon="120.6643976008574"><ele>31.5</ele><time>2026-03-29T08:18:56Z</time></trkpt><trkpt lat="15.429141295626366" lon="120.66430660591979"><ele>32.0</ele><time>2026-03-29T08:18:57Z</time></trkpt><trkpt lat="15.428878533200617" lon="120.66421405316368"><ele>31.5</ele><time>2026-03-29T08:18:58Z</time></trkpt><trkpt lat="15.428614370202304" lon="120.66412136270428"><ele>31.0</ele><time>2026-03-29T08:18:59Z</time></trkpt><trkpt lat="15.42834960453713" lon="120.66402420627574"><ele>31.0</ele><time>2026-03-29T08:19:00Z</time></trkpt><trkpt lat="15.428089940069176" lon="120.66392989247608"><ele>31.0</ele><time>2026-03-29T08:19:01Z</time></trkpt><trkpt lat="15.427842060880485" lon="120.66383921841647"><ele>31.0</ele><time>2026-03-29T08:19:02Z</time></trkpt><trkpt lat="15.42759620376837" lon="120.66375418387304"><ele>31.0</ele><time>2026-03-29T08:19:03Z</time></trkpt><trkpt lat="15.427347753081799" lon="120.66367060143564"><ele>31.0</ele><time>2026-03-29T08:19:04Z</time></trkpt><trkpt lat="15.427097867801098" lon="120.66358463839262"><ele>31.0</ele><time>2026-03-29T08:19:05Z</time></trkpt><trkpt lat="15.42684736068413" lon="120.66349548362713"><ele>31.0</ele><time>2026-03-29T08:19:06Z</time></trkpt><trkpt lat="15.426591217306571" lon="120.66340537277007"><ele>31.0</ele><time>2026-03-29T08:19:07Z</time></trkpt><trkpt lat="15.426332243545064" lon="120.66331380593871"><ele>31.5</ele><time>2026-03-29T08:19:08Z</time></trkpt><trkpt lat="15.426072186170945" lon="120.66322142037284"><ele>32.0</ele><time>2026-03-29T08:19:09Z</time></trkpt><trkpt lat="15.425810448035817" lon="120.66312835619925"><ele>32.0</ele><time>2026-03-29T08:19:10Z</time></trkpt><trkpt lat="15.425547131545" lon="120.66303388947019"><ele>32.0</ele><time>2026-03-29T08:19:11Z</time></trkpt><trkpt lat="15.425281936623806" lon="120.66293897588946"><ele>32.0</ele><time>2026-03-29T08:19:12Z</time></trkpt><trkpt lat="15.425015100160238" lon="120.66284371588678"><ele>32.0</ele><time>2026-03-29T08:19:13Z</time></trkpt><trkpt lat="15.424746904510092" lon="120.66274932164447"><ele>31.5</ele><time>2026-03-29T08:19:14Z</time></trkpt><trkpt lat="15.42447809015287" lon="120.66265609097859"><ele>31.0</ele><time>2026-03-29T08:19:15Z</time></trkpt><trkpt lat="15.424208186633619" lon="120.66256394208405"><ele>31.0</ele><time>2026-03-29T08:19:16Z</time></trkpt><trkpt lat="15.423938326357625" lon="120.66247326953761"><ele>31.0</ele><time>2026-03-29T08:19:17Z</time></trkpt><trkpt lat="15.423669951195027" lon="120.66238632670968"><ele>31.5</ele><time>2026-03-29T08:19:18Z</time></trkpt><trkpt lat="15.423402907962906" lon="120.66230114109729"><ele>32.0</ele><time>2026-03-29T08:19:19Z</time></trkpt><trkpt lat="15.42313691913361" lon="120.66221872576672"><ele>33.0</ele><time>2026-03-29T08:19:20Z</time></trkpt><trkpt lat="15.422875883263675" lon="120.66213933118631"><ele>34.0</ele><time>2026-03-29T08:19:21Z</time></trkpt><trkpt lat="15.422617741267596" lon="120.66205870617891"><ele>34.0</ele><time>2026-03-29T08:19:22Z</time></trkpt><trkpt lat="15.422359765397667" lon="120.66198543433539"><ele>34.0</ele><time>2026-03-29T08:19:23Z</time></trkpt><trkpt lat="15.42210375704336" lon="120.66191215454249"><ele>34.0</ele><time>2026-03-29T08:19:24Z</time></trkpt><trkpt lat="15.42184898661839" lon="120.66183949742363"><ele>34.0</ele><time>2026-03-29T08:19:25Z</time></trkpt><trkpt lat="15.421594349437525" lon="120.6617703996224"><ele>34.0</ele><time>2026-03-29T08:19:26Z</time></trkpt><trkpt lat="15.421342690552319" lon="120.66169996416122"><ele>34.0</ele><time>2026-03-29T08:19:27Z</time></trkpt><trkpt lat="15.42109227255737" lon="120.66163423221016"><ele>34.0</ele><time>2026-03-29T08:19:28Z</time></trkpt><trkpt lat="15.420845218381515" lon="120.6615723268444"><ele>34.0</ele><time>2026-03-29T08:19:29Z</time></trkpt><trkpt lat="15.420602185574923" lon="120.66150953396736"><ele>34.0</ele><time>2026-03-29T08:19:30Z</time></trkpt><trkpt lat="15.42036135695891" lon="120.66144852301387"><ele>34.0</ele><time>2026-03-29T08:19:31Z</time></trkpt><trkpt lat="15.420120544635306" lon="120.66138809712075"><ele>34.0</ele><time>2026-03-29T08:19:32Z</time></trkpt><trkpt lat="15.4198827104966" lon="120.66132866340011"><ele>34.0</ele><time>2026-03-29T08:19:33Z</time></trkpt><trkpt lat="15.419648205748896" lon="120.66127033623846"><ele>32.5</ele><time>2026-03-29T08:19:34Z</time></trkpt><trkpt lat="15.419418411982575" lon="120.66121484076916"><ele>31.0</ele><time>2026-03-29T08:19:35Z</time></trkpt><trkpt lat="15.41919427160935" lon="120.66116268622125"><ele>31.333333333333336</ele><time>2026-03-29T08:19:36Z</time></trkpt><trkpt lat="15.418973388086279" lon="120.66111193475315"><ele>31.666666666666664</ele><time>2026-03-29T08:19:37Z</time></trkpt><trkpt lat="15.418760608039538" lon="120.66106155356638"><ele>32.0</ele><time>2026-03-29T08:19:38Z</time></trkpt><trkpt lat="15.418560142218318" lon="120.66101788190441"><ele>32.0</ele><time>2026-03-29T08:19:39Z</time></trkpt><trkpt lat="15.418366105298713" lon="120.66097350178612"><ele>32.0</ele><time>2026-03-29T08:19:40Z</time></trkpt><trkpt lat="15.418175920291368" lon="120.66092952798891"><ele>32.0</ele><time>2026-03-29T08:19:41Z</time></trkpt><trkpt lat="15.417988790082365" lon="120.66088820175554"><ele>31.666666666666664</ele><time>2026-03-29T08:19:42Z</time></trkpt><trkpt lat="15.417805292164715" lon="120.66084618899717"><ele>31.333333333333336</ele><time>2026-03-29T08:19:43Z</time></trkpt><trkpt lat="15.417622283876792" lon="120.66080457171778"><ele>31.0</ele><time>2026-03-29T08:19:44Z</time></trkpt><trkpt lat="15.417438342810579" lon="120.66076550673056"><ele>31.0</ele><time>2026-03-29T08:19:45Z</time></trkpt><trkpt lat="15.41725388423945" lon="120.66072649852482"><ele>31.0</ele><time>2026-03-29T08:19:46Z</time></trkpt><trkpt lat="15.41706888392835" lon="120.66068782870782"><ele>31.0</ele><time>2026-03-29T08:19:47Z</time></trkpt><trkpt lat="15.416883125730148" lon="120.6606482943901"><ele>32.0</ele><time>2026-03-29T08:19:48Z</time></trkpt><trkpt lat="15.416696086743434" lon="120.66060996059076"><ele>33.0</ele><time>2026-03-29T08:19:49Z</time></trkpt><trkpt lat="15.416508244883968" lon="120.66057218958487"><ele>34.0</ele><time>2026-03-29T08:19:50Z</time></trkpt><trkpt lat="15.416319994987537" lon="120.66053514864572"><ele>34.0</ele><time>2026-03-29T08:19:51Z</time></trkpt><trkpt lat="15.41613166764554" lon="120.66049852225416"><ele>34.0</ele><time>2026-03-29T08:19:52Z</time></trkpt><trkpt lat="15.415944115396307" lon="120.66046310294296"><ele>34.0</ele><time>2026-03-29T08:19:53Z</time></trkpt><trkpt lat="15.415759278255448" lon="120.66042838853716"><ele>34.0</ele><time>2026-03-29T08:19:54Z</time></trkpt><trkpt lat="15.415574639276453" lon="120.66039331703195"><ele>34.0</ele><time>2026-03-29T08:19:55Z</time></trkpt><trkpt lat="15.415390245016741" lon="120.6603586413261"><ele>34.0</ele><time>2026-03-29T08:19:56Z</time></trkpt><trkpt lat="15.41520459192427" lon="120.66032476332425"><ele>34.0</ele><time>2026-03-29T08:19:57Z</time></trkpt><trkpt lat="15.415018522159203" lon="120.6602911016284"><ele>34.0</ele><time>2026-03-29T08:19:58Z</time></trkpt><trkpt lat="15.414832549034253" lon="120.66025788321619"><ele>34.0</ele><time>2026-03-29T08:19:59Z</time></trkpt><trkpt lat="15.414646350742329" lon="120.6602252564553"><ele>35.333333333333336</ele><time>2026-03-29T08:20:00Z</time></trkpt><trkpt lat="15.4144591528012" lon="120.66019147065944"><ele>36.666666666666664</ele><time>2026-03-29T08:20:01Z</time></trkpt><trkpt lat="15.414270251914663" lon="120.66015748855293"><ele>38.0</ele><time>2026-03-29T08:20:02Z</time></trkpt><trkpt lat="15.414079996706926" lon="120.66012310424904"><ele>38.0</ele><time>2026-03-29T08:20:03Z</time></trkpt><trkpt lat="15.413887548217485" lon="120.6600896970424"><ele>38.0</ele><time>2026-03-29T08:20:04Z</time></trkpt><trkpt lat="15.413694428263174" lon="120.66005695772648"><ele>38.0</ele><time>2026-03-29T08:20:05Z</time></trkpt><trkpt lat="15.413501289802845" lon="120.66002532122882"><ele>36.666666666666664</ele><time>2026-03-29T08:20:06Z</time></trkpt><trkpt lat="15.413308613489292" lon="120.65999546786115"><ele>35.333333333333336</ele><time>2026-03-29T08:20:07Z</time></trkpt><trkpt lat="15.413117732747013" lon="120.65996621986751"><ele>34.0</ele><time>2026-03-29T08:20:08Z</time></trkpt><trkpt lat="15.412928101646097" lon="120.6599375836932"><ele>33.333333333333336</ele><time>2026-03-29T08:20:09Z</time></trkpt><trkpt lat="15.412738078192874" lon="120.65990900395144"><ele>32.666666666666664</ele><time>2026-03-29T08:20:10Z</time></trkpt><trkpt lat="15.412548974387592" lon="120.65988042109838"><ele>32.0</ele><time>2026-03-29T08:20:11Z</time></trkpt><trkpt lat="15.4123606866069" lon="120.65985179224057"><ele>32.0</ele><time>2026-03-29T08:20:12Z</time></trkpt><trkpt lat="15.41217331176672" lon="120.65982391586279"><ele>32.0</ele><time>2026-03-29T08:20:13Z</time></trkpt><trkpt lat="15.411985802877018" lon="120.65979725812521"><ele>32.0</ele><time>2026-03-29T08:20:14Z</time></trkpt><trkpt lat="15.411798077154112" lon="120.65977269934605"><ele>31.666666666666664</ele><time>2026-03-29T08:20:15Z</time></trkpt><trkpt lat="15.411609631941317" lon="120.65974853401653"><ele>31.333333333333336</ele><time>2026-03-29T08:20:16Z</time></trkpt><trkpt lat="15.411420013040452" lon="120.65972489648657"><ele>31.0</ele><time>2026-03-29T08:20:17Z</time></trkpt><trkpt lat="15.411228594087115" lon="120.65970159383352"><ele>30.666666666666668</ele><time>2026-03-29T08:20:18Z</time></trkpt><trkpt lat="15.411035056472063" lon="120.65967846904111"><ele>30.333333333333336</ele><time>2026-03-29T08:20:19Z</time></trkpt><trkpt lat="15.410839092070892" lon="120.65965445155969"><ele>30.0</ele><time>2026-03-29T08:20:20Z</time></trkpt><trkpt lat="15.410640674873362" lon="120.65963053216274"><ele>30.666666666666664</ele><time>2026-03-29T08:20:21Z</time></trkpt><trkpt lat="15.410439838263386" lon="120.65960750290725"><ele>31.333333333333332</ele><time>2026-03-29T08:20:22Z</time></trkpt><trkpt lat="15.410237947034911" lon="120.65958515734495"><ele>32.0</ele><time>2026-03-29T08:20:23Z</time></trkpt><trkpt lat="15.410033662170136" lon="120.6595638623969"><ele>32.0</ele><time>2026-03-29T08:20:24Z</time></trkpt><trkpt lat="15.409828010942213" lon="120.65954200621324"><ele>32.0</ele><time>2026-03-29T08:20:25Z</time></trkpt><trkpt lat="15.40961992301431" lon="120.65952045949065"><ele>32.0</ele><time>2026-03-29T08:20:26Z</time></trkpt><trkpt lat="15.409410127036208" lon="120.65950002713444"><ele>31.666666666666664</ele><time>2026-03-29T08:20:27Z</time></trkpt><trkpt lat="15.409198753059266" lon="120.65947984531549"><ele>31.333333333333336</ele><time>2026-03-29T08:20:28Z</time></trkpt><trkpt lat="15.408987521632673" lon="120.65945979736709"><ele>31.0</ele><time>2026-03-29T08:20:29Z</time></trkpt><trkpt lat="15.408775180570819" lon="120.65944031367012"><ele>31.0</ele><time>2026-03-29T08:20:30Z</time></trkpt><trkpt lat="15.408561428775307" lon="120.65942110533959"><ele>31.0</ele><time>2026-03-29T08:20:31Z</time></trkpt><trkpt lat="15.408346507155075" lon="120.65940268933235"><ele>31.0</ele><time>2026-03-29T08:20:32Z</time></trkpt><trkpt lat="15.408130241630028" lon="120.65938521085127"><ele>30.333333333333336</ele><time>2026-03-29T08:20:33Z</time></trkpt><trkpt lat="15.40791211704548" lon="120.65936908547329"><ele>29.666666666666664</ele><time>2026-03-29T08:20:34Z</time></trkpt><trkpt lat="15.407693178815194" lon="120.6593544359129"><ele>29.0</ele><time>2026-03-29T08:20:35Z</time></trkpt><trkpt lat="15.407473484128147" lon="120.65934031372684"><ele>29.0</ele><time>2026-03-29T08:20:36Z</time></trkpt><trkpt lat="15.40725289661064" lon="120.65932673260836"><ele>29.0</ele><time>2026-03-29T08:20:37Z</time></trkpt><trkpt lat="15.407031109678243" lon="120.65931310326829"><ele>29.0</ele><time>2026-03-29T08:20:38Z</time></trkpt><trkpt lat="15.406807297487843" lon="120.6593002663516"><ele>30.5</ele><time>2026-03-29T08:20:39Z</time></trkpt><trkpt lat="15.406583145650693" lon="120.65928687357948"><ele>32.0</ele><time>2026-03-29T08:20:40Z</time></trkpt><trkpt lat="15.406357109554174" lon="120.65927416290648"><ele>31.0</ele><time>2026-03-29T08:20:41Z</time></trkpt><trkpt lat="15.406129649116467" lon="120.6592628377197"><ele>30.0</ele><time>2026-03-29T08:20:42Z</time></trkpt><trkpt lat="15.405900352105471" lon="120.65925090586575"><ele>30.0</ele><time>2026-03-29T08:20:43Z</time></trkpt><trkpt lat="15.405668268294132" lon="120.65923946004214"><ele>30.0</ele><time>2026-03-29T08:20:44Z</time></trkpt><trkpt lat="15.405432862141573" lon="120.65922858221262"><ele>30.0</ele><time>2026-03-29T08:20:45Z</time></trkpt><trkpt lat="15.405195810025365" lon="120.65921941217599"><ele>30.0</ele><time>2026-03-29T08:20:46Z</time></trkpt><trkpt lat="15.404956079656063" lon="120.6592117706311"><ele>30.0</ele><time>2026-03-29T08:20:47Z</time></trkpt><trkpt lat="15.40471647341609" lon="120.65920539082715"><ele>30.0</ele><time>2026-03-29T08:20:48Z</time></trkpt><trkpt lat="15.404477548970513" lon="120.65919931217456"><ele>29.5</ele><time>2026-03-29T08:20:49Z</time></trkpt><trkpt lat="15.404236287634111" lon="120.65919367514329"><ele>29.0</ele><time>2026-03-29T08:20:50Z</time></trkpt><trkpt lat="15.40399338740974" lon="120.65918881231661"><ele>29.5</ele><time>2026-03-29T08:20:51Z</time></trkpt><trkpt lat="15.403750094427544" lon="120.65918423337476"><ele>30.0</ele><time>2026-03-29T08:20:52Z</time></trkpt><trkpt lat="15.403507775582593" lon="120.65918126990293"><ele>30.0</ele><time>2026-03-29T08:20:53Z</time></trkpt><trkpt lat="15.403266746205677" lon="120.65917926669599"><ele>30.0</ele><time>2026-03-29T08:20:54Z</time></trkpt><trkpt lat="15.403024529877163" lon="120.65917796514599"><ele>31.0</ele><time>2026-03-29T08:20:55Z</time></trkpt><trkpt lat="15.402782061741874" lon="120.65917795251343"><ele>32.0</ele><time>2026-03-29T08:20:56Z</time></trkpt><trkpt lat="15.40253787811584" lon="120.65917791563402"><ele>32.0</ele><time>2026-03-29T08:20:57Z</time></trkpt><trkpt lat="15.402295212915421" lon="120.65917890384429"><ele>32.0</ele><time>2026-03-29T08:20:58Z</time></trkpt><trkpt lat="15.402054579471223" lon="120.65918075785062"><ele>32.0</ele><time>2026-03-29T08:20:59Z</time></trkpt><trkpt lat="15.401817512179859" lon="120.65918073070739"><ele>32.0</ele><time>2026-03-29T08:21:00Z</time></trkpt><trkpt lat="15.401582029671257" lon="120.65918340216953"><ele>32.0</ele><time>2026-03-29T08:21:01Z</time></trkpt><trkpt lat="15.401347098969849" lon="120.65918629432929"><ele>32.0</ele><time>2026-03-29T08:21:02Z</time></trkpt><trkpt lat="15.401114251169503" lon="120.65918921077152"><ele>33.0</ele><time>2026-03-29T08:21:03Z</time></trkpt><trkpt lat="15.400881755206974" lon="120.6591928365765"><ele>34.0</ele><time>2026-03-29T08:21:04Z</time></trkpt><trkpt lat="15.400651923281288" lon="120.65919659593071"><ele>33.333333333333336</ele><time>2026-03-29T08:21:05Z</time></trkpt><trkpt lat="15.400426509888577" lon="120.65920008568665"><ele>32.666666666666664</ele><time>2026-03-29T08:21:06Z</time></trkpt><trkpt lat="15.400205727957772" lon="120.65920510244894"><ele>32.0</ele><time>2026-03-29T08:21:07Z</time></trkpt><trkpt lat="15.399988001580226" lon="120.65921104958478"><ele>32.0</ele><time>2026-03-29T08:21:08Z</time></trkpt><trkpt lat="15.399772534539252" lon="120.65921857524958"><ele>32.0</ele><time>2026-03-29T08:21:09Z</time></trkpt><trkpt lat="15.399556837816215" lon="120.65922747066975"><ele>32.0</ele><time>2026-03-29T08:21:10Z</time></trkpt><trkpt lat="15.399341140843967" lon="120.65923655982976"><ele>32.33333333333333</ele><time>2026-03-29T08:21:11Z</time></trkpt><trkpt lat="15.399124915036053" lon="120.65924446620424"><ele>32.666666666666664</ele><time>2026-03-29T08:21:12Z</time></trkpt><trkpt lat="15.398907462351847" lon="120.65925267175747"><ele>33.0</ele><time>2026-03-29T08:21:13Z</time></trkpt><trkpt lat="15.398688263716407" lon="120.65926311465746"><ele>33.333333333333336</ele><time>2026-03-29T08:21:14Z</time></trkpt><trkpt lat="15.39846727224755" lon="120.65927571714364"><ele>33.66666666666667</ele><time>2026-03-29T08:21:15Z</time></trkpt><trkpt lat="15.398244886308111" lon="120.65928713073984"><ele>34.0</ele><time>2026-03-29T08:21:16Z</time></trkpt><trkpt lat="15.398021065500465" lon="120.65929933830057"><ele>34.5</ele><time>2026-03-29T08:21:17Z</time></trkpt><trkpt lat="15.39779635333998" lon="120.65931162651032"><ele>35.0</ele><time>2026-03-29T08:21:18Z</time></trkpt><trkpt lat="15.39757016840895" lon="120.65932312983466"><ele>35.0</ele><time>2026-03-29T08:21:19Z</time></trkpt><trkpt lat="15.39734232198029" lon="120.65933257843932"><ele>35.0</ele><time>2026-03-29T08:21:20Z</time></trkpt><trkpt lat="15.397113599966108" lon="120.65934238266227"><ele>35.5</ele><time>2026-03-29T08:21:21Z</time></trkpt><trkpt lat="15.396882911639276" lon="120.6593523628901"><ele>36.0</ele><time>2026-03-29T08:21:22Z</time></trkpt><trkpt lat="15.396651166525606" lon="120.65936275346799"><ele>36.0</ele><time>2026-03-29T08:21:23Z</time></trkpt><trkpt lat="15.396417970618804" lon="120.65937466478066"><ele>36.0</ele><time>2026-03-29T08:21:24Z</time></trkpt><trkpt lat="15.396185209989358" lon="120.65938668030152"><ele>35.5</ele><time>2026-03-29T08:21:25Z</time></trkpt><trkpt lat="15.3959510354263" lon="120.65939887839886"><ele>35.0</ele><time>2026-03-29T08:21:26Z</time></trkpt><trkpt lat="15.39571721400409" lon="120.65941096667251"><ele>34.0</ele><time>2026-03-29T08:21:27Z</time></trkpt><trkpt lat="15.395485346392741" lon="120.65942248398115"><ele>33.0</ele><time>2026-03-29T08:21:28Z</time></trkpt><trkpt lat="15.395254296017244" lon="120.65943332733663"><ele>33.0</ele><time>2026-03-29T08:21:29Z</time></trkpt><trkpt lat="15.395023899688454" lon="120.65944462652386"><ele>33.0</ele><time>2026-03-29T08:21:30Z</time></trkpt><trkpt lat="15.394794015294746" lon="120.65945514645303"><ele>33.5</ele><time>2026-03-29T08:21:31Z</time></trkpt><trkpt lat="15.394565292252977" lon="120.65946582910837"><ele>34.0</ele><time>2026-03-29T08:21:32Z</time></trkpt><trkpt lat="15.394336691555512" lon="120.6594769396534"><ele>34.0</ele><time>2026-03-29T08:21:33Z</time></trkpt><trkpt lat="15.39410777609428" lon="120.6594875771746"><ele>34.0</ele><time>2026-03-29T08:21:34Z</time></trkpt><trkpt lat="15.393878092853598" lon="120.65949848580063"><ele>34.0</ele><time>2026-03-29T08:21:35Z</time></trkpt><trkpt lat="15.39364853043314" lon="120.65951029385948"><ele>34.0</ele><time>2026-03-29T08:21:36Z</time></trkpt><trkpt lat="15.393420090100209" lon="120.6595218640632"><ele>34.0</ele><time>2026-03-29T08:21:37Z</time></trkpt><trkpt lat="15.39319510718439" lon="120.65953118687733"><ele>34.0</ele><time>2026-03-29T08:21:38Z</time></trkpt><trkpt lat="15.392971491804888" lon="120.65954007379881"><ele>34.0</ele><time>2026-03-29T08:21:39Z</time></trkpt><trkpt lat="15.392750742132844" lon="120.6595505246212"><ele>33.66666666666667</ele><time>2026-03-29T08:21:40Z</time></trkpt><trkpt lat="15.392530893521498" lon="120.65956094801248"><ele>33.333333333333336</ele><time>2026-03-29T08:21:41Z</time></trkpt><trkpt lat="15.392314329272187" lon="120.65957147884228"><ele>33.0</ele><time>2026-03-29T08:21:42Z</time></trkpt><trkpt lat="15.392101112296718" lon="120.6595817425321"><ele>33.0</ele><time>2026-03-29T08:21:43Z</time></trkpt><trkpt lat="15.391888288545372" lon="120.65959106800042"><ele>33.0</ele><time>2026-03-29T08:21:44Z</time></trkpt><trkpt lat="15.391676496590806" lon="120.65959897662788"><ele>33.0</ele><time>2026-03-29T08:21:45Z</time></trkpt><trkpt lat="15.391462585454441" lon="120.65960873203387"><ele>33.333333333333336</ele><time>2026-03-29T08:21:46Z</time></trkpt><trkpt lat="15.391247836692367" lon="120.65961920232205"><ele>33.66666666666667</ele><time>2026-03-29T08:21:47Z</time></trkpt><trkpt lat="15.391031682588135" lon="120.65963151125146"><ele>34.0</ele><time>2026-03-29T08:21:48Z</time></trkpt><trkpt lat="15.39081398594962" lon="120.65964232642881"><ele>34.0</ele><time>2026-03-29T08:21:49Z</time></trkpt><trkpt lat="15.390596147978204" lon="120.65965329825175"><ele>34.0</ele><time>2026-03-29T08:21:50Z</time></trkpt><trkpt lat="15.39037705878026" lon="120.65966404482543"><ele>34.0</ele><time>2026-03-29T08:21:51Z</time></trkpt><trkpt lat="15.390156615852009" lon="120.65967419060689"><ele>34.0</ele><time>2026-03-29T08:21:52Z</time></trkpt><trkpt lat="15.389935186903111" lon="120.65968497846936"><ele>34.0</ele><time>2026-03-29T08:21:53Z</time></trkpt><trkpt lat="15.38971163533331" lon="120.65969676112607"><ele>34.0</ele><time>2026-03-29T08:21:54Z</time></trkpt><trkpt lat="15.389487474002356" lon="120.6597083511662"><ele>32.5</ele><time>2026-03-29T08:21:55Z</time></trkpt><trkpt lat="15.389262903663012" lon="120.65971876253008"><ele>31.0</ele><time>2026-03-29T08:21:56Z</time></trkpt><trkpt lat="15.389037843404074" lon="120.65972937007437"><ele>31.0</ele><time>2026-03-29T08:21:57Z</time></trkpt><trkpt lat="15.388812186996566" lon="120.65973942163734"><ele>31.0</ele><time>2026-03-29T08:21:58Z</time></trkpt><trkpt lat="15.3885855840083" lon="120.6597492287099"><ele>31.0</ele><time>2026-03-29T08:21:59Z</time></trkpt><trkpt lat="15.388358452164061" lon="120.65975856867331"><ele>31.0</ele><time>2026-03-29T08:22:00Z</time></trkpt><trkpt lat="15.388129670374925" lon="120.65976816096398"><ele>32.0</ele><time>2026-03-29T08:22:01Z</time></trkpt><trkpt lat="15.387900178659013" lon="120.65977818870557"><ele>33.0</ele><time>2026-03-29T08:22:02Z</time></trkpt><trkpt lat="15.387669255145834" lon="120.65978858593763"><ele>33.0</ele><time>2026-03-29T08:22:03Z</time></trkpt><trkpt lat="15.387436981783576" lon="120.65979815012626"><ele>33.0</ele><time>2026-03-29T08:22:04Z</time></trkpt><trkpt lat="15.387203284653298" lon="120.65980789902132"><ele>33.5</ele><time>2026-03-29T08:22:05Z</time></trkpt><trkpt lat="15.386968897015938" lon="120.6598170526197"><ele>34.0</ele><time>2026-03-29T08:22:06Z</time></trkpt><trkpt lat="15.386733918552864" lon="120.65982563743583"><ele>34.0</ele><time>2026-03-29T08:22:07Z</time></trkpt><trkpt lat="15.386498573253654" lon="120.65983277654863"><ele>34.0</ele><time>2026-03-29T08:22:08Z</time></trkpt><trkpt lat="15.386263068333852" lon="120.65983915551625"><ele>33.5</ele><time>2026-03-29T08:22:09Z</time></trkpt><trkpt lat="15.386027466433484" lon="120.65984534577449"><ele>33.0</ele><time>2026-03-29T08:22:10Z</time></trkpt><trkpt lat="15.385791260767189" lon="120.65985006589709"><ele>33.0</ele><time>2026-03-29T08:22:11Z</time></trkpt><trkpt lat="15.38555413940838" lon="120.65985415222416"><ele>33.0</ele><time>2026-03-29T08:22:12Z</time></trkpt><trkpt lat="15.38531681346772" lon="120.65985752271314"><ele>34.5</ele><time>2026-03-29T08:22:13Z</time></trkpt><trkpt lat="15.385078064641663" lon="120.65986232217647"><ele>36.0</ele><time>2026-03-29T08:22:14Z</time></trkpt><trkpt lat="15.3848386652854" lon="120.65986607085361"><ele>36.5</ele><time>2026-03-29T08:22:15Z</time></trkpt><trkpt lat="15.38459772976502" lon="120.65986806262312"><ele>37.0</ele><time>2026-03-29T08:22:16Z</time></trkpt><trkpt lat="15.384354596831585" lon="120.65986828714298"><ele>37.0</ele><time>2026-03-29T08:22:17Z</time></trkpt><trkpt lat="15.384109351211947" lon="120.6598668437431"><ele>37.0</ele><time>2026-03-29T08:22:18Z</time></trkpt><trkpt lat="15.383863699638189" lon="120.65986360864623"><ele>36.5</ele><time>2026-03-29T08:22:19Z</time></trkpt><trkpt lat="15.383616569215018" lon="120.65986168808716"><ele>36.0</ele><time>2026-03-29T08:22:20Z</time></trkpt><trkpt lat="15.383368536407138" lon="120.6598588302555"><ele>36.0</ele><time>2026-03-29T08:22:21Z</time></trkpt><trkpt lat="15.38311944214422" lon="120.65985613651861"><ele>36.0</ele><time>2026-03-29T08:22:22Z</time></trkpt><trkpt lat="15.382869128969832" lon="120.6598504018818"><ele>36.0</ele><time>2026-03-29T08:22:23Z</time></trkpt><trkpt lat="15.382618235448298" lon="120.65984302376988"><ele>36.0</ele><time>2026-03-29T08:22:24Z</time></trkpt><trkpt lat="15.382366058385696" lon="120.65983330652354"><ele>35.5</ele><time>2026-03-29T08:22:25Z</time></trkpt><trkpt lat="15.382113538279176" lon="120.65982130737993"><ele>35.0</ele><time>2026-03-29T08:22:26Z</time></trkpt><trkpt lat="15.381860134379032" lon="120.65980825197988"><ele>35.0</ele><time>2026-03-29T08:22:27Z</time></trkpt><trkpt lat="15.381606745328487" lon="120.65979351068303"><ele>35.0</ele><time>2026-03-29T08:22:28Z</time></trkpt><trkpt lat="15.381354342895948" lon="120.65977840300751"><ele>34.0</ele><time>2026-03-29T08:22:29Z</time></trkpt><trkpt lat="15.381102190529262" lon="120.6597614521164"><ele>33.0</ele><time>2026-03-29T08:22:30Z</time></trkpt><trkpt lat="15.380851224400457" lon="120.65974333918983"><ele>33.0</ele><time>2026-03-29T08:22:31Z</time></trkpt><trkpt lat="15.380603238709975" lon="120.65972355958223"><ele>33.0</ele><time>2026-03-29T08:22:32Z</time></trkpt><trkpt lat="15.380357110096224" lon="120.65970145548178"><ele>33.0</ele><time>2026-03-29T08:22:33Z</time></trkpt><trkpt lat="15.380115351198283" lon="120.65967711153652"><ele>33.0</ele><time>2026-03-29T08:22:34Z</time></trkpt><trkpt lat="15.379876495093965" lon="120.65965101595214"><ele>34.0</ele><time>2026-03-29T08:22:35Z</time></trkpt><trkpt lat="15.379640288041536" lon="120.65962302110101"><ele>35.0</ele><time>2026-03-29T08:22:36Z</time></trkpt><trkpt lat="15.37940745281806" lon="120.65959432490264"><ele>35.0</ele><time>2026-03-29T08:22:37Z</time></trkpt><trkpt lat="15.379173920815697" lon="120.6595670772889"><ele>35.0</ele><time>2026-03-29T08:22:38Z</time></trkpt><trkpt lat="15.378941482185976" lon="120.65953597500216"><ele>35.0</ele><time>2026-03-29T08:22:39Z</time></trkpt><trkpt lat="15.378711285263932" lon="120.65950561687711"><ele>35.0</ele><time>2026-03-29T08:22:40Z</time></trkpt><trkpt lat="15.378480777769873" lon="120.65947118213263"><ele>35.0</ele><time>2026-03-29T08:22:41Z</time></trkpt><trkpt lat="15.378247615296699" lon="120.6594364127542"><ele>35.0</ele><time>2026-03-29T08:22:42Z</time></trkpt><trkpt lat="15.378015550652314" lon="120.65939973068856"><ele>35.0</ele><time>2026-03-29T08:22:43Z</time></trkpt><trkpt lat="15.377783069165535" lon="120.65936106515788"><ele>35.0</ele><time>2026-03-29T08:22:44Z</time></trkpt><trkpt lat="15.377549538579718" lon="120.65931815649354"><ele>35.0</ele><time>2026-03-29T08:22:45Z</time></trkpt><trkpt lat="15.377313168204438" lon="120.65927566572145"><ele>35.0</ele><time>2026-03-29T08:22:46Z</time></trkpt><trkpt lat="15.377076528987715" lon="120.65923085588012"><ele>34.0</ele><time>2026-03-29T08:22:47Z</time></trkpt><trkpt lat="15.376842392493" lon="120.6591851792048"><ele>33.0</ele><time>2026-03-29T08:22:48Z</time></trkpt><trkpt lat="15.37660816761055" lon="120.65913920698365"><ele>33.0</ele><time>2026-03-29T08:22:49Z</time></trkpt><trkpt lat="15.376375404869613" lon="120.65909120656958"><ele>33.0</ele><time>2026-03-29T08:22:50Z</time></trkpt><trkpt lat="15.376144534898271" lon="120.65904123463316"><ele>33.5</ele><time>2026-03-29T08:22:51Z</time></trkpt><trkpt lat="15.375914979836358" lon="120.65899101657865"><ele>34.0</ele><time>2026-03-29T08:22:52Z</time></trkpt><trkpt lat="15.375686867313812" lon="120.65893956071037"><ele>33.5</ele><time>2026-03-29T08:22:53Z</time></trkpt><trkpt lat="15.375460422739943" lon="120.65888608039243"><ele>33.0</ele><time>2026-03-29T08:22:54Z</time></trkpt><trkpt lat="15.375235666053308" lon="120.65883228961906"><ele>33.0</ele><time>2026-03-29T08:22:55Z</time></trkpt><trkpt lat="15.37501524268489" lon="120.65877719082475"><ele>33.0</ele><time>2026-03-29T08:22:56Z</time></trkpt><trkpt lat="15.374801070589504" lon="120.65872224976721"><ele>33.0</ele><time>2026-03-29T08:22:57Z</time></trkpt><trkpt lat="15.37459907631984" lon="120.65866862469636"><ele>33.0</ele><time>2026-03-29T08:22:58Z</time></trkpt><trkpt lat="15.374407388764336" lon="120.6586164400691"><ele>33.0</ele><time>2026-03-29T08:22:59Z</time></trkpt><trkpt lat="15.374220033981882" lon="120.65856525850022"><ele>33.0</ele><time>2026-03-29T08:23:00Z</time></trkpt><trkpt lat="15.374037976717377" lon="120.65851502262805"><ele>33.0</ele><time>2026-03-29T08:23:01Z</time></trkpt><trkpt lat="15.37386132064042" lon="120.658464053413"><ele>33.0</ele><time>2026-03-29T08:23:02Z</time></trkpt><trkpt lat="15.373687940826732" lon="120.65841332027179"><ele>33.0</ele><time>2026-03-29T08:23:03Z</time></trkpt><trkpt lat="15.373517220468509" lon="120.65836190440457"><ele>33.333333333333336</ele><time>2026-03-29T08:23:04Z</time></trkpt><trkpt lat="15.373344851383182" lon="120.65831085116977"><ele>33.66666666666667</ele><time>2026-03-29T08:23:05Z</time></trkpt><trkpt lat="15.37317252172077" lon="120.6582591265783"><ele>34.0</ele><time>2026-03-29T08:23:06Z</time></trkpt><trkpt lat="15.372999210464164" lon="120.6582057144592"><ele>34.333333333333336</ele><time>2026-03-29T08:23:07Z</time></trkpt><trkpt lat="15.372825704600459" lon="120.65815126431859"><ele>34.666666666666664</ele><time>2026-03-29T08:23:08Z</time></trkpt><trkpt lat="15.372652830374262" lon="120.65809426954786"><ele>35.0</ele><time>2026-03-29T08:23:09Z</time></trkpt><trkpt lat="15.372478618696443" lon="120.65803586808336"><ele>35.0</ele><time>2026-03-29T08:23:10Z</time></trkpt><trkpt lat="15.372304744206637" lon="120.65797794607896"><ele>35.0</ele><time>2026-03-29T08:23:11Z</time></trkpt><trkpt lat="15.372130862210089" lon="120.65791817500983"><ele>35.0</ele><time>2026-03-29T08:23:12Z</time></trkpt><trkpt lat="15.371957797586356" lon="120.65785765144243"><ele>35.0</ele><time>2026-03-29T08:23:13Z</time></trkpt><trkpt lat="15.371783198614473" lon="120.65779497315764"><ele>35.0</ele><time>2026-03-29T08:23:14Z</time></trkpt><trkpt lat="15.371606314395574" lon="120.65773124231342"><ele>35.0</ele><time>2026-03-29T08:23:15Z</time></trkpt><trkpt lat="15.371426436677757" lon="120.65766628247196"><ele>34.33333333333333</ele><time>2026-03-29T08:23:16Z</time></trkpt><trkpt lat="15.371245493351918" lon="120.65760081114864"><ele>33.666666666666664</ele><time>2026-03-29T08:23:17Z</time></trkpt><trkpt lat="15.371063304756884" lon="120.65753139691097"><ele>33.0</ele><time>2026-03-29T08:23:18Z</time></trkpt><trkpt lat="15.370879714149899" lon="120.65746182879653"><ele>33.0</ele><time>2026-03-29T08:23:19Z</time></trkpt><trkpt lat="15.370694404323812" lon="120.65739095328436"><ele>33.0</ele><time>2026-03-29T08:23:20Z</time></trkpt><trkpt lat="15.370508744565262" lon="120.65731719978999"><ele>33.0</ele><time>2026-03-29T08:23:21Z</time></trkpt><trkpt lat="15.370321623846392" lon="120.65724068317857"><ele>33.333333333333336</ele><time>2026-03-29T08:23:22Z</time></trkpt><trkpt lat="15.370133053806827" lon="120.65716345740934"><ele>33.66666666666667</ele><time>2026-03-29T08:23:23Z</time></trkpt><trkpt lat="15.369942850732693" lon="120.65708526711303"><ele>34.0</ele><time>2026-03-29T08:23:24Z</time></trkpt><trkpt lat="15.369751853664003" lon="120.65700542623439"><ele>34.333333333333336</ele><time>2026-03-29T08:23:25Z</time></trkpt><trkpt lat="15.369558617756134" lon="120.65692267762192"><ele>34.666666666666664</ele><time>2026-03-29T08:23:26Z</time></trkpt><trkpt lat="15.369367360937998" lon="120.65683659073613"><ele>35.0</ele><time>2026-03-29T08:23:27Z</time></trkpt><trkpt lat="15.369175555830049" lon="120.65674957657194"><ele>35.0</ele><time>2026-03-29T08:23:28Z</time></trkpt><trkpt lat="15.368985945961885" lon="120.65666146013322"><ele>35.0</ele><time>2026-03-29T08:23:29Z</time></trkpt><trkpt lat="15.368798218046901" lon="120.65657311154801"><ele>35.0</ele><time>2026-03-29T08:23:30Z</time></trkpt><trkpt lat="15.368609273340445" lon="120.6564848250575"><ele>34.666666666666664</ele><time>2026-03-29T08:23:31Z</time></trkpt><trkpt lat="15.368421972555415" lon="120.65639627162817"><ele>34.333333333333336</ele><time>2026-03-29T08:23:32Z</time></trkpt><trkpt lat="15.368235836964384" lon="120.65630619356057"><ele>34.0</ele><time>2026-03-29T08:23:33Z</time></trkpt><trkpt lat="15.368053458517519" lon="120.65621681864585"><ele>34.333333333333336</ele><time>2026-03-29T08:23:34Z</time></trkpt><trkpt lat="15.367872238159299" lon="120.6561281058993"><ele>34.666666666666664</ele><time>2026-03-29T08:23:35Z</time></trkpt><trkpt lat="15.367692150941958" lon="120.65603782060107"><ele>35.0</ele><time>2026-03-29T08:23:36Z</time></trkpt><trkpt lat="15.367512253245083" lon="120.65594586767259"><ele>35.33333333333333</ele><time>2026-03-29T08:23:37Z</time></trkpt><trkpt lat="15.367332717375465" lon="120.6558524165493"><ele>35.666666666666664</ele><time>2026-03-29T08:23:38Z</time></trkpt><trkpt lat="15.367151105814493" lon="120.65575718768174"><ele>36.0</ele><time>2026-03-29T08:23:39Z</time></trkpt><trkpt lat="15.366966806647783" lon="120.65566098601637"><ele>36.0</ele><time>2026-03-29T08:23:40Z</time></trkpt><trkpt lat="15.366779864830104" lon="120.65556356056923"><ele>36.0</ele><time>2026-03-29T08:23:41Z</time></trkpt><trkpt lat="15.366590273622306" lon="120.6554649925411"><ele>36.0</ele><time>2026-03-29T08:23:42Z</time></trkpt><trkpt lat="15.366400943106013" lon="120.65536334764226"><ele>35.0</ele><time>2026-03-29T08:23:43Z</time></trkpt><trkpt lat="15.36621131882947" lon="120.65525985043959"><ele>34.0</ele><time>2026-03-29T08:23:44Z</time></trkpt><trkpt lat="15.366022570737393" lon="120.6551551700726"><ele>33.0</ele><time>2026-03-29T08:23:45Z</time></trkpt><trkpt lat="15.36583414176669" lon="120.65505038693274"><ele>33.0</ele><time>2026-03-29T08:23:46Z</time></trkpt><trkpt lat="15.365645207064617" lon="120.65494373799187"><ele>33.0</ele><time>2026-03-29T08:23:47Z</time></trkpt><trkpt lat="15.365454924804443" lon="120.65483472890604"><ele>33.0</ele><time>2026-03-29T08:23:48Z</time></trkpt><trkpt lat="15.365262440149905" lon="120.65472454437874"><ele>33.333333333333336</ele><time>2026-03-29T08:23:49Z</time></trkpt><trkpt lat="15.365069624180908" lon="120.65461074831178"><ele>33.66666666666667</ele><time>2026-03-29T08:23:50Z</time></trkpt><trkpt lat="15.364874837848223" lon="120.65449719965069"><ele>34.0</ele><time>2026-03-29T08:23:51Z</time></trkpt><trkpt lat="15.364679667377123" lon="120.65438266721542"><ele>33.0</ele><time>2026-03-29T08:23:52Z</time></trkpt><trkpt lat="15.36448411836084" lon="120.65426765628891"><ele>32.0</ele><time>2026-03-29T08:23:53Z</time></trkpt><trkpt lat="15.364288193906416" lon="120.65415061739645"><ele>32.0</ele><time>2026-03-29T08:23:54Z</time></trkpt><trkpt lat="15.364091786312658" lon="120.65402975119842"><ele>32.0</ele><time>2026-03-29T08:23:55Z</time></trkpt><trkpt lat="15.36389463805983" lon="120.65390721783986"><ele>32.0</ele><time>2026-03-29T08:23:56Z</time></trkpt><trkpt lat="15.363697973970178" lon="120.65378552444587"><ele>32.0</ele><time>2026-03-29T08:23:57Z</time></trkpt><trkpt lat="15.36350219236075" lon="120.65366408167867"><ele>31.5</ele><time>2026-03-29T08:23:58Z</time></trkpt><trkpt lat="15.363307603834457" lon="120.65354311673946"><ele>31.0</ele><time>2026-03-29T08:23:59Z</time></trkpt><trkpt lat="15.3631153393785" lon="120.65342283679942"><ele>31.333333333333336</ele><time>2026-03-29T08:24:00Z</time></trkpt><trkpt lat="15.362924875883646" lon="120.65330544171434"><ele>31.666666666666664</ele><time>2026-03-29T08:24:01Z</time></trkpt><trkpt lat="15.362738128052431" lon="120.65318887480926"><ele>32.0</ele><time>2026-03-29T08:24:02Z</time></trkpt><trkpt lat="15.36255448101067" lon="120.6530732299647"><ele>32.0</ele><time>2026-03-29T08:24:03Z</time></trkpt><trkpt lat="15.362373720137011" lon="120.652958610233"><ele>32.0</ele><time>2026-03-29T08:24:04Z</time></trkpt><trkpt lat="15.362196079936934" lon="120.6528457137752"><ele>32.0</ele><time>2026-03-29T08:24:05Z</time></trkpt><trkpt lat="15.362021365655792" lon="120.65273422056869"><ele>31.666666666666664</ele><time>2026-03-29T08:24:06Z</time></trkpt><trkpt lat="15.361848348131543" lon="120.65262242161182"><ele>31.333333333333336</ele><time>2026-03-29T08:24:07Z</time></trkpt><trkpt lat="15.361677856072772" lon="120.65251220631211"><ele>31.0</ele><time>2026-03-29T08:24:08Z</time></trkpt><trkpt lat="15.361508459935665" lon="120.65240321356042"><ele>31.0</ele><time>2026-03-29T08:24:09Z</time></trkpt><trkpt lat="15.361339813913705" lon="120.6522953368047"><ele>31.0</ele><time>2026-03-29T08:24:10Z</time></trkpt><trkpt lat="15.361172129870704" lon="120.65218695001435"><ele>31.0</ele><time>2026-03-29T08:24:11Z</time></trkpt><trkpt lat="15.361004313026072" lon="120.65207860510925"><ele>31.0</ele><time>2026-03-29T08:24:12Z</time></trkpt><trkpt lat="15.360835918837784" lon="120.65197053850585"><ele>31.0</ele><time>2026-03-29T08:24:13Z</time></trkpt><trkpt lat="15.360667962822077" lon="120.6518622249878"><ele>31.0</ele><time>2026-03-29T08:24:14Z</time></trkpt><trkpt lat="15.36049939602585" lon="120.65175454968694"><ele>32.0</ele><time>2026-03-29T08:24:15Z</time></trkpt><trkpt lat="15.360330802124937" lon="120.65164488630971"><ele>33.0</ele><time>2026-03-29T08:24:16Z</time></trkpt><trkpt lat="15.360160947905042" lon="120.65153479126138"><ele>34.0</ele><time>2026-03-29T08:24:17Z</time></trkpt><trkpt lat="15.35999065709175" lon="120.65142543172571"><ele>34.0</ele><time>2026-03-29T08:24:18Z</time></trkpt><trkpt lat="15.359820421106903" lon="120.65131489277819"><ele>34.0</ele><time>2026-03-29T08:24:19Z</time></trkpt><trkpt lat="15.359650042134653" lon="120.65120412919714"><ele>34.0</ele><time>2026-03-29T08:24:20Z</time></trkpt><trkpt lat="15.359477759077429" lon="120.65109295963016"><ele>33.66666666666667</ele><time>2026-03-29T08:24:21Z</time></trkpt><trkpt lat="15.359303785790779" lon="120.65098060729176"><ele>33.333333333333336</ele><time>2026-03-29T08:24:22Z</time></trkpt><trkpt lat="15.35912882500943" lon="120.65086669010651"><ele>33.0</ele><time>2026-03-29T08:24:23Z</time></trkpt><trkpt lat="15.358951777065618" lon="120.65075170829125"><ele>33.333333333333336</ele><time>2026-03-29T08:24:24Z</time></trkpt><trkpt lat="15.358772964581474" lon="120.65063598882709"><ele>33.66666666666667</ele><time>2026-03-29T08:24:25Z</time></trkpt><trkpt lat="15.35859289027078" lon="120.6505192178833"><ele>34.0</ele><time>2026-03-29T08:24:26Z</time></trkpt><trkpt lat="15.358412491371126" lon="120.6504025882"><ele>33.66666666666667</ele><time>2026-03-29T08:24:27Z</time></trkpt><trkpt lat="15.358231711825747" lon="120.65028638295155"><ele>33.333333333333336</ele><time>2026-03-29T08:24:28Z</time></trkpt><trkpt lat="15.358050938024" lon="120.65016953894589"><ele>33.0</ele><time>2026-03-29T08:24:29Z</time></trkpt><trkpt lat="15.357869720439185" lon="120.65005251975334"><ele>33.0</ele><time>2026-03-29T08:24:30Z</time></trkpt><trkpt lat="15.357690604758329" lon="120.64993691607252"><ele>33.0</ele><time>2026-03-29T08:24:31Z</time></trkpt><trkpt lat="15.357514106721696" lon="120.64982401384955"><ele>33.0</ele><time>2026-03-29T08:24:32Z</time></trkpt><trkpt lat="15.357340902491705" lon="120.6497120392704"><ele>33.0</ele><time>2026-03-29T08:24:33Z</time></trkpt><trkpt lat="15.357167713629316" lon="120.64959995456827"><ele>33.0</ele><time>2026-03-29T08:24:34Z</time></trkpt><trkpt lat="15.356996556906433" lon="120.64948830349356"><ele>33.0</ele><time>2026-03-29T08:24:35Z</time></trkpt><trkpt lat="15.356827176200671" lon="120.64937877379386"><ele>33.0</ele><time>2026-03-29T08:24:36Z</time></trkpt><trkpt lat="15.356659369564918" lon="120.64927118663675"><ele>33.0</ele><time>2026-03-29T08:24:37Z</time></trkpt><trkpt lat="15.35649524076112" lon="120.6491652381966"><ele>33.0</ele><time>2026-03-29T08:24:38Z</time></trkpt><trkpt lat="15.356332812012743" lon="120.6490607128138"><ele>32.666666666666664</ele><time>2026-03-29T08:24:39Z</time></trkpt><trkpt lat="15.356173589333883" lon="120.64895819257141"><ele>32.33333333333333</ele><time>2026-03-29T08:24:40Z</time></trkpt><trkpt lat="15.356014423292056" lon="120.64885499861545"><ele>32.0</ele><time>2026-03-29T08:24:41Z</time></trkpt><trkpt lat="15.355856050470654" lon="120.64875142794821"><ele>32.0</ele><time>2026-03-29T08:24:42Z</time></trkpt><trkpt lat="15.355694128487013" lon="120.64864700386025"><ele>32.0</ele><time>2026-03-29T08:24:43Z</time></trkpt><trkpt lat="15.35553189291263" lon="120.64854159700919"><ele>32.0</ele><time>2026-03-29T08:24:44Z</time></trkpt><trkpt lat="15.35537061535039" lon="120.64843621079618"><ele>33.666666666666664</ele><time>2026-03-29T08:24:45Z</time></trkpt><trkpt lat="15.355207827279012" lon="120.64833036713175"><ele>35.333333333333336</ele><time>2026-03-29T08:24:46Z</time></trkpt><trkpt lat="15.355042975110262" lon="120.64822519233364"><ele>37.0</ele><time>2026-03-29T08:24:47Z</time></trkpt><trkpt lat="15.354877966652966" lon="120.64812088833172"><ele>37.0</ele><time>2026-03-29T08:24:48Z</time></trkpt><trkpt lat="15.354715122222023" lon="120.64801723401769"><ele>37.0</ele><time>2026-03-29T08:24:49Z</time></trkpt><trkpt lat="15.354554753521011" lon="120.6479151012933"><ele>37.0</ele><time>2026-03-29T08:24:50Z</time></trkpt><trkpt lat="15.354397872207738" lon="120.64781429921752"><ele>36.333333333333336</ele><time>2026-03-29T08:24:51Z</time></trkpt><trkpt lat="15.354242515370904" lon="120.64771488042089"><ele>35.666666666666664</ele><time>2026-03-29T08:24:52Z</time></trkpt><trkpt lat="15.354090904483359" lon="120.64761618101413"><ele>35.0</ele><time>2026-03-29T08:24:53Z</time></trkpt><trkpt lat="15.35394212648995" lon="120.64751845312718"><ele>35.33333333333333</ele><time>2026-03-29T08:24:54Z</time></trkpt><trkpt lat="15.353795326409935" lon="120.64742249767451"><ele>35.666666666666664</ele><time>2026-03-29T08:24:55Z</time></trkpt><trkpt lat="15.3536505224686" lon="120.64732806049312"><ele>36.0</ele><time>2026-03-29T08:24:56Z</time></trkpt><trkpt lat="15.35350657656355" lon="120.64723629798004"><ele>36.0</ele><time>2026-03-29T08:24:57Z</time></trkpt><trkpt lat="15.353364189281548" lon="120.6471449400405"><ele>36.0</ele><time>2026-03-29T08:24:58Z</time></trkpt><trkpt lat="15.353221249296011" lon="120.64705282575612"><ele>36.0</ele><time>2026-03-29T08:24:59Z</time></trkpt><trkpt lat="15.353077721112596" lon="120.64696048410123"><ele>36.333333333333336</ele><time>2026-03-29T08:25:00Z</time></trkpt><trkpt lat="15.352932760427969" lon="120.646867223924"><ele>36.66666666666667</ele><time>2026-03-29T08:25:01Z</time></trkpt><trkpt lat="15.352785380985226" lon="120.64677246684359"><ele>37.0</ele><time>2026-03-29T08:25:02Z</time></trkpt><trkpt lat="15.352635446890313" lon="120.64667594696037"><ele>37.0</ele><time>2026-03-29T08:25:03Z</time></trkpt><trkpt lat="15.352482703804254" lon="120.64657774742746"><ele>37.0</ele><time>2026-03-29T08:25:04Z</time></trkpt><trkpt lat="15.352325478317432" lon="120.64647730989267"><ele>37.0</ele><time>2026-03-29T08:25:05Z</time></trkpt><trkpt lat="15.352164774223727" lon="120.64637438638815"><ele>37.0</ele><time>2026-03-29T08:25:06Z</time></trkpt><trkpt lat="15.35200051929608" lon="120.64626968255541"><ele>37.0</ele><time>2026-03-29T08:25:07Z</time></trkpt><trkpt lat="15.351832574486796" lon="120.64616267254753"><ele>37.0</ele><time>2026-03-29T08:25:08Z</time></trkpt><trkpt lat="15.351661490625096" lon="120.646052703295"><ele>37.0</ele><time>2026-03-29T08:25:09Z</time></trkpt><trkpt lat="15.351487303989863" lon="120.64593957494301"><ele>37.0</ele><time>2026-03-29T08:25:10Z</time></trkpt><trkpt lat="15.351308817110699" lon="120.64582480416612"><ele>37.0</ele><time>2026-03-29T08:25:11Z</time></trkpt><trkpt lat="15.351126085427607" lon="120.64570970354211"><ele>37.0</ele><time>2026-03-29T08:25:12Z</time></trkpt><trkpt lat="15.350940629036284" lon="120.64559189038971"><ele>37.0</ele><time>2026-03-29T08:25:13Z</time></trkpt><trkpt lat="15.350752755370312" lon="120.64547216382873"><ele>37.0</ele><time>2026-03-29T08:25:14Z</time></trkpt><trkpt lat="15.350562754900224" lon="120.64535123666481"><ele>37.5</ele><time>2026-03-29T08:25:15Z</time></trkpt><trkpt lat="15.35037018020951" lon="120.64522872578088"><ele>38.0</ele><time>2026-03-29T08:25:16Z</time></trkpt><trkpt lat="15.350175770873197" lon="120.64510486687334"><ele>38.0</ele><time>2026-03-29T08:25:17Z</time></trkpt><trkpt lat="15.349979989248189" lon="120.64497929313437"><ele>38.0</ele><time>2026-03-29T08:25:18Z</time></trkpt><trkpt lat="15.349782921512714" lon="120.64485244018027"><ele>37.5</ele><time>2026-03-29T08:25:19Z</time></trkpt><trkpt lat="15.349584580546482" lon="120.64472436313767"><ele>37.0</ele><time>2026-03-29T08:25:20Z</time></trkpt><trkpt lat="15.349386236771885" lon="120.64459537485357"><ele>37.0</ele><time>2026-03-29T08:25:21Z</time></trkpt><trkpt lat="15.349186705709027" lon="120.64446648936374"><ele>37.0</ele><time>2026-03-29T08:25:22Z</time></trkpt><trkpt lat="15.348986594591747" lon="120.64433771482872"><ele>36.0</ele><time>2026-03-29T08:25:23Z</time></trkpt><trkpt lat="15.348787379685398" lon="120.64420988180737"><ele>35.0</ele><time>2026-03-29T08:25:24Z</time></trkpt><trkpt lat="15.348587479220914" lon="120.64408288077931"><ele>35.0</ele><time>2026-03-29T08:25:25Z</time></trkpt><trkpt lat="15.348387429166554" lon="120.64395616630456"><ele>35.0</ele><time>2026-03-29T08:25:26Z</time></trkpt><trkpt lat="15.348188643954277" lon="120.64382618223183"><ele>36.0</ele><time>2026-03-29T08:25:27Z</time></trkpt><trkpt lat="15.347988996854589" lon="120.64369851045261"><ele>37.0</ele><time>2026-03-29T08:25:28Z</time></trkpt><trkpt lat="15.34779119984445" lon="120.64356578585299"><ele>37.0</ele><time>2026-03-29T08:25:29Z</time></trkpt><trkpt lat="15.34759162911344" lon="120.64343622210312"><ele>37.0</ele><time>2026-03-29T08:25:30Z</time></trkpt><trkpt lat="15.347390832874785" lon="120.64330610429384"><ele>37.5</ele><time>2026-03-29T08:25:31Z</time></trkpt><trkpt lat="15.347188706435277" lon="120.64317660614319"><ele>38.0</ele><time>2026-03-29T08:25:32Z</time></trkpt><trkpt lat="15.34698596004923" lon="120.64304591129347"><ele>38.0</ele><time>2026-03-29T08:25:33Z</time></trkpt><trkpt lat="15.346783519744578" lon="120.64291209543889"><ele>38.0</ele><time>2026-03-29T08:25:34Z</time></trkpt><trkpt lat="15.346579256140723" lon="120.64277976233218"><ele>37.5</ele><time>2026-03-29T08:25:35Z</time></trkpt><trkpt lat="15.346374062785953" lon="120.64264713101593"><ele>37.0</ele><time>2026-03-29T08:25:36Z</time></trkpt><trkpt lat="15.346167450986957" lon="120.64251350683733"><ele>37.0</ele><time>2026-03-29T08:25:37Z</time></trkpt><trkpt lat="15.34596001175362" lon="120.64238074254924"><ele>37.0</ele><time>2026-03-29T08:25:38Z</time></trkpt><trkpt lat="15.345752337473026" lon="120.64224576764207"><ele>38.0</ele><time>2026-03-29T08:25:39Z</time></trkpt><trkpt lat="15.345543538366877" lon="120.64211089444785"><ele>39.0</ele><time>2026-03-29T08:25:40Z</time></trkpt><trkpt lat="15.345333631400035" lon="120.64197593598261"><ele>39.5</ele><time>2026-03-29T08:25:41Z</time></trkpt><trkpt lat="15.345122073014116" lon="120.64183968634148"><ele>40.0</ele><time>2026-03-29T08:25:42Z</time></trkpt><trkpt lat="15.344909770637207" lon="120.64170259020906"><ele>39.5</ele><time>2026-03-29T08:25:43Z</time></trkpt><trkpt lat="15.34469574750658" lon="120.64156560264436"><ele>39.0</ele><time>2026-03-29T08:25:44Z</time></trkpt><trkpt lat="15.344481020777497" lon="120.64142846800345"><ele>39.0</ele><time>2026-03-29T08:25:45Z</time></trkpt><trkpt lat="15.34426609695562" lon="120.64128980947812"><ele>39.0</ele><time>2026-03-29T08:25:46Z</time></trkpt><trkpt lat="15.34404973980841" lon="120.64115045372421"><ele>38.5</ele><time>2026-03-29T08:25:47Z</time></trkpt><trkpt lat="15.343833278720295" lon="120.64100977006174"><ele>38.0</ele><time>2026-03-29T08:25:48Z</time></trkpt><trkpt lat="15.343614965126083" lon="120.6408682932333"><ele>38.0</ele><time>2026-03-29T08:25:49Z</time></trkpt><trkpt lat="15.343394987643869" lon="120.64072703199743"><ele>38.0</ele><time>2026-03-29T08:25:50Z</time></trkpt><trkpt lat="15.34317506295723" lon="120.64058500216957"><ele>37.5</ele><time>2026-03-29T08:25:51Z</time></trkpt><trkpt lat="15.342953995421245" lon="120.64044191955553"><ele>37.0</ele><time>2026-03-29T08:25:52Z</time></trkpt><trkpt lat="15.342731760627712" lon="120.64029930155772"><ele>38.5</ele><time>2026-03-29T08:25:53Z</time></trkpt><trkpt lat="15.342508689573458" lon="120.64015585510958"><ele>40.0</ele><time>2026-03-29T08:25:54Z</time></trkpt><trkpt lat="15.342285441390917" lon="120.6400122241002"><ele>39.0</ele><time>2026-03-29T08:25:55Z</time></trkpt><trkpt lat="15.342062627302118" lon="120.63986841723192"><ele>38.0</ele><time>2026-03-29T08:25:56Z</time></trkpt><trkpt lat="15.341839892709139" lon="120.63972386825624"><ele>38.0</ele><time>2026-03-29T08:25:57Z</time></trkpt><trkpt lat="15.341616163542286" lon="120.63957927250098"><ele>38.0</ele><time>2026-03-29T08:25:58Z</time></trkpt><trkpt lat="15.341391661132864" lon="120.63943365470324"><ele>38.5</ele><time>2026-03-29T08:25:59Z</time></trkpt><trkpt lat="15.341166418602088" lon="120.63928737764971"><ele>39.0</ele><time>2026-03-29T08:26:00Z</time></trkpt><trkpt lat="15.34093938263244" lon="120.6391403637729"><ele>39.0</ele><time>2026-03-29T08:26:01Z</time></trkpt><trkpt lat="15.340711916746208" lon="120.6389925130306"><ele>39.0</ele><time>2026-03-29T08:26:02Z</time></trkpt><trkpt lat="15.340482817728459" lon="120.63884487209198"><ele>39.0</ele><time>2026-03-29T08:26:03Z</time></trkpt><trkpt lat="15.340252939360001" lon="120.63869615272216"><ele>39.0</ele><time>2026-03-29T08:26:04Z</time></trkpt><trkpt lat="15.34002228583819" lon="120.63854728848072"><ele>39.0</ele><time>2026-03-29T08:26:05Z</time></trkpt><trkpt lat="15.339790746347482" lon="120.6383983264595"><ele>39.0</ele><time>2026-03-29T08:26:06Z</time></trkpt><trkpt lat="15.339558527565897" lon="120.63824849803407"><ele>39.0</ele><time>2026-03-29T08:26:07Z</time></trkpt><trkpt lat="15.33932573745399" lon="120.63809816703713"><ele>39.0</ele><time>2026-03-29T08:26:08Z</time></trkpt><trkpt lat="15.339090981030466" lon="120.63794785547934"><ele>38.5</ele><time>2026-03-29T08:26:09Z</time></trkpt><trkpt lat="15.338855653452807" lon="120.63779611729976"><ele>38.0</ele><time>2026-03-29T08:26:10Z</time></trkpt><trkpt lat="15.338619680261036" lon="120.63764498116424"><ele>38.0</ele><time>2026-03-29T08:26:11Z</time></trkpt><trkpt lat="15.338382637190266" lon="120.63749355651248"><ele>38.0</ele><time>2026-03-29T08:26:12Z</time></trkpt><trkpt lat="15.338145417329246" lon="120.63734167624027"><ele>38.5</ele><time>2026-03-29T08:26:13Z</time></trkpt><trkpt lat="15.337909300544665" lon="120.63718820032786"><ele>39.0</ele><time>2026-03-29T08:26:14Z</time></trkpt><trkpt lat="15.337671780441749" lon="120.63703422588516"><ele>39.0</ele><time>2026-03-29T08:26:15Z</time></trkpt><trkpt lat="15.337434062628521" lon="120.63688095901784"><ele>39.0</ele><time>2026-03-29T08:26:16Z</time></trkpt><trkpt lat="15.337197068085773" lon="120.63672859499928"><ele>39.0</ele><time>2026-03-29T08:26:17Z</time></trkpt><trkpt lat="15.336961361026788" lon="120.6365773509096"><ele>39.0</ele><time>2026-03-29T08:26:18Z</time></trkpt><trkpt lat="15.336726917837339" lon="120.63642634329369"><ele>39.0</ele><time>2026-03-29T08:26:19Z</time></trkpt><trkpt lat="15.336494624686283" lon="120.63627663575602"><ele>39.0</ele><time>2026-03-29T08:26:20Z</time></trkpt><trkpt lat="15.33626302764133" lon="120.6361287980364"><ele>40.0</ele><time>2026-03-29T08:26:21Z</time></trkpt><trkpt lat="15.336032551547666" lon="120.6359818496369"><ele>41.0</ele><time>2026-03-29T08:26:22Z</time></trkpt><trkpt lat="15.3358034167225" lon="120.63583505499086"><ele>41.0</ele><time>2026-03-29T08:26:23Z</time></trkpt><trkpt lat="15.335575144251093" lon="120.63568740857868"><ele>41.0</ele><time>2026-03-29T08:26:24Z</time></trkpt><trkpt lat="15.33534744921123" lon="120.6355400868271"><ele>41.5</ele><time>2026-03-29T08:26:25Z</time></trkpt><trkpt lat="15.335120111928386" lon="120.63539197841722"><ele>42.0</ele><time>2026-03-29T08:26:26Z</time></trkpt><trkpt lat="15.334892762521594" lon="120.63524642830012"><ele>42.5</ele><time>2026-03-29T08:26:27Z</time></trkpt><trkpt lat="15.334666735713819" lon="120.63510136758772"><ele>43.0</ele><time>2026-03-29T08:26:28Z</time></trkpt><trkpt lat="15.334442596356812" lon="120.63495649348138"><ele>43.0</ele><time>2026-03-29T08:26:29Z</time></trkpt><trkpt lat="15.334219360304774" lon="120.63481100181944"><ele>43.0</ele><time>2026-03-29T08:26:30Z</time></trkpt><trkpt lat="15.333996354383341" lon="120.63466704455429"><ele>43.0</ele><time>2026-03-29T08:26:31Z</time></trkpt><trkpt lat="15.333775418046201" lon="120.63452549828276"><ele>43.0</ele><time>2026-03-29T08:26:32Z</time></trkpt><trkpt lat="15.333556544745734" lon="120.63438383675937"><ele>43.0</ele><time>2026-03-29T08:26:33Z</time></trkpt><trkpt lat="15.333340419824623" lon="120.63424421231832"><ele>43.0</ele><time>2026-03-29T08:26:34Z</time></trkpt><trkpt lat="15.333128219773997" lon="120.63410701274866"><ele>43.5</ele><time>2026-03-29T08:26:35Z</time></trkpt><trkpt lat="15.332917052171645" lon="120.63397093424678"><ele>44.0</ele><time>2026-03-29T08:26:36Z</time></trkpt><trkpt lat="15.332707355109632" lon="120.6338355970423"><ele>44.0</ele><time>2026-03-29T08:26:37Z</time></trkpt><trkpt lat="15.332500346337117" lon="120.63369942102683"><ele>44.0</ele><time>2026-03-29T08:26:38Z</time></trkpt><trkpt lat="15.332293885351774" lon="120.6335650529473"><ele>42.5</ele><time>2026-03-29T08:26:39Z</time></trkpt><trkpt lat="15.332090363865548" lon="120.63343134536333"><ele>41.0</ele><time>2026-03-29T08:26:40Z</time></trkpt><trkpt lat="15.331890235434685" lon="120.63330095133215"><ele>41.0</ele><time>2026-03-29T08:26:41Z</time></trkpt><trkpt lat="15.331691808385118" lon="120.63317220615984"><ele>41.0</ele><time>2026-03-29T08:26:42Z</time></trkpt><trkpt lat="15.33149662101536" lon="120.63304615628967"><ele>41.33333333333333</ele><time>2026-03-29T08:26:43Z</time></trkpt><trkpt lat="15.331304209847929" lon="120.63292195282958"><ele>41.666666666666664</ele><time>2026-03-29T08:26:44Z</time></trkpt><trkpt lat="15.331115272082727" lon="120.63280005081059"><ele>42.0</ele><time>2026-03-29T08:26:45Z</time></trkpt><trkpt lat="15.330929920131235" lon="120.63268083468148"><ele>41.333333333333336</ele><time>2026-03-29T08:26:46Z</time></trkpt><trkpt lat="15.330747733151807" lon="120.63256428790291"><ele>40.66666666666667</ele><time>2026-03-29T08:26:47Z</time></trkpt><trkpt lat="15.33056867419301" lon="120.63244956573922"><ele>40.0</ele><time>2026-03-29T08:26:48Z</time></trkpt><trkpt lat="15.330390822897257" lon="120.63233742366127"><ele>40.0</ele><time>2026-03-29T08:26:49Z</time></trkpt><trkpt lat="15.330214595023072" lon="120.63222340119096"><ele>40.0</ele><time>2026-03-29T08:26:50Z</time></trkpt><trkpt lat="15.330037410743893" lon="120.63210915042687"><ele>40.0</ele><time>2026-03-29T08:26:51Z</time></trkpt><trkpt lat="15.329859460168725" lon="120.6319935412613"><ele>39.333333333333336</ele><time>2026-03-29T08:26:52Z</time></trkpt><trkpt lat="15.32968096533767" lon="120.63187651067585"><ele>38.666666666666664</ele><time>2026-03-29T08:26:53Z</time></trkpt><trkpt lat="15.329499686616705" lon="120.63175826929597"><ele>38.0</ele><time>2026-03-29T08:26:54Z</time></trkpt><trkpt lat="15.32931657010852" lon="120.63163948592002"><ele>38.0</ele><time>2026-03-29T08:26:55Z</time></trkpt><trkpt lat="15.329131724663869" lon="120.63151991223212"><ele>38.0</ele><time>2026-03-29T08:26:56Z</time></trkpt><trkpt lat="15.328944522920136" lon="120.63139936013411"><ele>38.0</ele><time>2026-03-29T08:26:57Z</time></trkpt><trkpt lat="15.328757064374976" lon="120.63127890887026"><ele>38.666666666666664</ele><time>2026-03-29T08:26:58Z</time></trkpt><trkpt lat="15.3285691012961" lon="120.63115689121175"><ele>39.333333333333336</ele><time>2026-03-29T08:26:59Z</time></trkpt><trkpt lat="15.328380433490508" lon="120.63103490783982"><ele>40.0</ele><time>2026-03-29T08:27:00Z</time></trkpt><trkpt lat="15.328189587166385" lon="120.63091244241866"><ele>40.5</ele><time>2026-03-29T08:27:01Z</time></trkpt><trkpt lat="15.327997021934232" lon="120.63078801730877"><ele>41.0</ele><time>2026-03-29T08:27:02Z</time></trkpt><trkpt lat="15.327802423233837" lon="120.63066244883842"><ele>41.0</ele><time>2026-03-29T08:27:03Z</time></trkpt><trkpt lat="15.327606503949452" lon="120.63053695603763"><ele>41.0</ele><time>2026-03-29T08:27:04Z</time></trkpt><trkpt lat="15.327410835744123" lon="120.6304103179349"><ele>42.0</ele><time>2026-03-29T08:27:05Z</time></trkpt><trkpt lat="15.327215800068235" lon="120.6302847062683"><ele>43.0</ele><time>2026-03-29T08:27:06Z</time></trkpt><trkpt lat="15.327024155848177" lon="120.63016153618285"><ele>43.0</ele><time>2026-03-29T08:27:07Z</time></trkpt><trkpt lat="15.326835649932786" lon="120.63004014883421"><ele>43.0</ele><time>2026-03-29T08:27:08Z</time></trkpt><trkpt lat="15.326652480075659" lon="120.62992227085556"><ele>43.0</ele><time>2026-03-29T08:27:09Z</time></trkpt><trkpt lat="15.326475768883824" lon="120.62980764862907"><ele>42.333333333333336</ele><time>2026-03-29T08:27:10Z</time></trkpt><trkpt lat="15.326304389252481" lon="120.62969615216608"><ele>41.666666666666664</ele><time>2026-03-29T08:27:11Z</time></trkpt><trkpt lat="15.326136564727785" lon="120.62958816261538"><ele>41.0</ele><time>2026-03-29T08:27:12Z</time></trkpt><trkpt lat="15.325972716051233" lon="120.62948289295115"><ele>41.0</ele><time>2026-03-29T08:27:13Z</time></trkpt><trkpt lat="15.325812445028973" lon="120.62937914822366"><ele>41.0</ele><time>2026-03-29T08:27:14Z</time></trkpt><trkpt lat="15.325652694335261" lon="120.62927622718662"><ele>41.0</ele><time>2026-03-29T08:27:15Z</time></trkpt><trkpt lat="15.325492142792767" lon="120.62917344722831"><ele>41.0</ele><time>2026-03-29T08:27:16Z</time></trkpt><trkpt lat="15.325332358207392" lon="120.62907127217024"><ele>41.0</ele><time>2026-03-29T08:27:17Z</time></trkpt><trkpt lat="15.325171414938143" lon="120.62896946157639"><ele>41.0</ele><time>2026-03-29T08:27:18Z</time></trkpt><trkpt lat="15.32500890347136" lon="120.62886623859845"><ele>41.0</ele><time>2026-03-29T08:27:19Z</time></trkpt><trkpt lat="15.324844157793171" lon="120.62876103204196"><ele>41.0</ele><time>2026-03-29T08:27:20Z</time></trkpt><trkpt lat="15.32467752550555" lon="120.62865403356693"><ele>41.0</ele><time>2026-03-29T08:27:21Z</time></trkpt><trkpt lat="15.324509475214018" lon="120.62854542516413"><ele>42.0</ele><time>2026-03-29T08:27:22Z</time></trkpt><trkpt lat="15.324339907739738" lon="120.62843587918826"><ele>43.0</ele><time>2026-03-29T08:27:23Z</time></trkpt><trkpt lat="15.324167537150155" lon="120.62832452843259"><ele>44.0</ele><time>2026-03-29T08:27:24Z</time></trkpt><trkpt lat="15.323992944245688" lon="120.6282128114241"><ele>43.33333333333333</ele><time>2026-03-29T08:27:25Z</time></trkpt><trkpt lat="15.323816683940997" lon="120.62809893800457"><ele>42.666666666666664</ele><time>2026-03-29T08:27:26Z</time></trkpt><trkpt lat="15.32363696045496" lon="120.62798409772243"><ele>42.0</ele><time>2026-03-29T08:27:27Z</time></trkpt><trkpt lat="15.323455086692661" lon="120.62786811980287"><ele>42.333333333333336</ele><time>2026-03-29T08:27:28Z</time></trkpt><trkpt lat="15.323270761407395" lon="120.6277500361628"><ele>42.66666666666667</ele><time>2026-03-29T08:27:29Z</time></trkpt><trkpt lat="15.323084403702511" lon="120.62762957351565"><ele>43.0</ele><time>2026-03-29T08:27:30Z</time></trkpt><trkpt lat="15.32289645090086" lon="120.62750812740734"><ele>43.66666666666667</ele><time>2026-03-29T08:27:31Z</time></trkpt><trkpt lat="15.322707199092713" lon="120.62738616860365"><ele>44.333333333333336</ele><time>2026-03-29T08:27:32Z</time></trkpt><trkpt lat="15.322516221146731" lon="120.62726251379239"><ele>45.0</ele><time>2026-03-29T08:27:33Z</time></trkpt><trkpt lat="15.322322920223023" lon="120.62713775394884"><ele>44.0</ele><time>2026-03-29T08:27:34Z</time></trkpt><trkpt lat="15.322127978748032" lon="120.62701170520789"><ele>43.0</ele><time>2026-03-29T08:27:35Z</time></trkpt><trkpt lat="15.321931728679502" lon="120.6268836593662"><ele>42.0</ele><time>2026-03-29T08:27:36Z</time></trkpt><trkpt lat="15.321734951213381" lon="120.62675469525298"><ele>41.0</ele><time>2026-03-29T08:27:37Z</time></trkpt><trkpt lat="15.321536926210273" lon="120.62662616028904"><ele>41.5</ele><time>2026-03-29T08:27:38Z</time></trkpt><trkpt lat="15.321337439564411" lon="120.62649762605989"><ele>42.0</ele><time>2026-03-29T08:27:39Z</time></trkpt><trkpt lat="15.32113789331764" lon="120.62636850355373"><ele>42.0</ele><time>2026-03-29T08:27:40Z</time></trkpt><trkpt lat="15.320937621812607" lon="120.62623949971574"><ele>42.0</ele><time>2026-03-29T08:27:41Z</time></trkpt><trkpt lat="15.320737029312182" lon="120.62611089335468"><ele>43.0</ele><time>2026-03-29T08:27:42Z</time></trkpt><trkpt lat="15.320537714957606" lon="120.62598220973912"><ele>44.0</ele><time>2026-03-29T08:27:43Z</time></trkpt><trkpt lat="15.320339283547158" lon="120.62585412075222"><ele>44.0</ele><time>2026-03-29T08:27:44Z</time></trkpt><trkpt lat="15.320139383493315" lon="120.62572670008369"><ele>44.0</ele><time>2026-03-29T08:27:45Z</time></trkpt><trkpt lat="15.319939157606429" lon="120.62559818056488"><ele>44.0</ele><time>2026-03-29T08:27:46Z</time></trkpt><trkpt lat="15.319738722132968" lon="120.62547022310228"><ele>44.0</ele><time>2026-03-29T08:27:47Z</time></trkpt><trkpt lat="15.319539403429877" lon="120.62534191728197"><ele>43.5</ele><time>2026-03-29T08:27:48Z</time></trkpt><trkpt lat="15.31934054417511" lon="120.62521405177135"><ele>43.0</ele><time>2026-03-29T08:27:49Z</time></trkpt><trkpt lat="15.319142713142634" lon="120.62508708576708"><ele>43.0</ele><time>2026-03-29T08:27:50Z</time></trkpt><trkpt lat="15.318946577787633" lon="120.624961389954"><ele>43.0</ele><time>2026-03-29T08:27:51Z</time></trkpt><trkpt lat="15.318750773206292" lon="120.62483553084846"><ele>43.0</ele><time>2026-03-29T08:27:52Z</time></trkpt><trkpt lat="15.318554670806964" lon="120.62471026691456"><ele>43.0</ele><time>2026-03-29T08:27:53Z</time></trkpt><trkpt lat="15.318358460186124" lon="120.6245844610152"><ele>44.0</ele><time>2026-03-29T08:27:54Z</time></trkpt><trkpt lat="15.318161710297629" lon="120.62445977371863"><ele>45.0</ele><time>2026-03-29T08:27:55Z</time></trkpt><trkpt lat="15.317966617949258" lon="120.62433556207597"><ele>45.0</ele><time>2026-03-29T08:27:56Z</time></trkpt><trkpt lat="15.317807929281743" lon="120.62416869303674"><ele>45.0</ele><time>2026-03-29T08:27:57Z</time></trkpt><trkpt lat="15.317580853032236" lon="120.62408712468572"><ele>45.0</ele><time>2026-03-29T08:27:58Z</time></trkpt><trkpt lat="15.317388854097977" lon="120.62396327174788"><ele>45.0</ele><time>2026-03-29T08:27:59Z</time></trkpt><trkpt lat="15.317196320189307" lon="120.62383873711983"><ele>45.0</ele><time>2026-03-29T08:28:00Z</time></trkpt><trkpt lat="15.31700253988972" lon="120.62371345514873"><ele>45.0</ele><time>2026-03-29T08:28:01Z</time></trkpt><trkpt lat="15.316809005196687" lon="120.6235885628312"><ele>45.5</ele><time>2026-03-29T08:28:02Z</time></trkpt><trkpt lat="15.316613723202252" lon="120.62346331041945"><ele>46.0</ele><time>2026-03-29T08:28:03Z</time></trkpt><trkpt lat="15.316418146109744" lon="120.62333743265177"><ele>45.0</ele><time>2026-03-29T08:28:04Z</time></trkpt><trkpt lat="15.316221859110614" lon="120.62321059788202"><ele>44.0</ele><time>2026-03-29T08:28:05Z</time></trkpt><trkpt lat="15.316024680756174" lon="120.62308243194701"><ele>44.0</ele><time>2026-03-29T08:28:06Z</time></trkpt><trkpt lat="15.31582610799443" lon="120.62295340626385"><ele>44.0</ele><time>2026-03-29T08:28:07Z</time></trkpt><trkpt lat="15.315625413079152" lon="120.62282418269439"><ele>45.0</ele><time>2026-03-29T08:28:08Z</time></trkpt><trkpt lat="15.315423180850589" lon="120.62269384132642"><ele>46.0</ele><time>2026-03-29T08:28:09Z</time></trkpt><trkpt lat="15.315219359564743" lon="120.62256314636649"><ele>46.0</ele><time>2026-03-29T08:28:10Z</time></trkpt><trkpt lat="15.31501382623128" lon="120.62243215580794"><ele>46.0</ele><time>2026-03-29T08:28:11Z</time></trkpt><trkpt lat="15.314807217451328" lon="120.62229987525133"><ele>45.5</ele><time>2026-03-29T08:28:12Z</time></trkpt><trkpt lat="15.314599226414817" lon="120.6221657249693"><ele>45.0</ele><time>2026-03-29T08:28:13Z</time></trkpt><trkpt lat="15.314391045668206" lon="120.62203168965635"><ele>45.5</ele><time>2026-03-29T08:28:14Z</time></trkpt><trkpt lat="15.314189432781424" lon="120.62188186422146"><ele>46.0</ele><time>2026-03-29T08:28:15Z</time></trkpt><trkpt lat="15.313980957917707" lon="120.62174151271229"><ele>46.0</ele><time>2026-03-29T08:28:16Z</time></trkpt><trkpt lat="15.313754110879671" lon="120.62162374270947"><ele>46.0</ele><time>2026-03-29T08:28:17Z</time></trkpt><trkpt lat="15.313541058720512" lon="120.62148745573322"><ele>46.0</ele><time>2026-03-29T08:28:18Z</time></trkpt><trkpt lat="15.313327133657939" lon="120.6213510015884"><ele>46.0</ele><time>2026-03-29T08:28:19Z</time></trkpt><trkpt lat="15.313111699354899" lon="120.62121290054985"><ele>44.5</ele><time>2026-03-29T08:28:20Z</time></trkpt><trkpt lat="15.31289502896032" lon="120.62107211705043"><ele>43.0</ele><time>2026-03-29T08:28:21Z</time></trkpt><trkpt lat="15.312676002778941" lon="120.6209296596656"><ele>43.0</ele><time>2026-03-29T08:28:22Z</time></trkpt><trkpt lat="15.312457510611484" lon="120.62078622618887"><ele>43.0</ele><time>2026-03-29T08:28:23Z</time></trkpt><trkpt lat="15.312237713973309" lon="120.62064193271046"><ele>44.5</ele><time>2026-03-29T08:28:24Z</time></trkpt><trkpt lat="15.312017496989306" lon="120.62049991995367"><ele>46.0</ele><time>2026-03-29T08:28:25Z</time></trkpt><trkpt lat="15.311799208000377" lon="120.62035823260518"><ele>46.0</ele><time>2026-03-29T08:28:26Z</time></trkpt><trkpt lat="15.311582871021493" lon="120.62021885704468"><ele>46.0</ele><time>2026-03-29T08:28:27Z</time></trkpt><trkpt lat="15.31136990119284" lon="120.62008271115332"><ele>46.0</ele><time>2026-03-29T08:28:28Z</time></trkpt><trkpt lat="15.311162404957297" lon="120.6199502623428"><ele>46.0</ele><time>2026-03-29T08:28:29Z</time></trkpt><trkpt lat="15.310962931051808" lon="120.61982080772235"><ele>46.0</ele><time>2026-03-29T08:28:30Z</time></trkpt><trkpt lat="15.310769407374991" lon="120.61969493616998"><ele>46.0</ele><time>2026-03-29T08:28:31Z</time></trkpt><trkpt lat="15.31057928075361" lon="120.6195722130831"><ele>47.0</ele><time>2026-03-29T08:28:32Z</time></trkpt><trkpt lat="15.310395699053243" lon="120.6194537760101"><ele>48.0</ele><time>2026-03-29T08:28:33Z</time></trkpt><trkpt lat="15.310215291448852" lon="120.61933742424068"><ele>49.0</ele><time>2026-03-29T08:28:34Z</time></trkpt><trkpt lat="15.310035877679319" lon="120.61922231095421"><ele>49.0</ele><time>2026-03-29T08:28:35Z</time></trkpt><trkpt lat="15.309857255251579" lon="120.61910564377406"><ele>49.0</ele><time>2026-03-29T08:28:36Z</time></trkpt><trkpt lat="15.309678532075417" lon="120.61898971561837"><ele>49.0</ele><time>2026-03-29T08:28:37Z</time></trkpt><trkpt lat="15.30949970124692" lon="120.61887442470291"><ele>48.666666666666664</ele><time>2026-03-29T08:28:38Z</time></trkpt><trkpt lat="15.309323465052515" lon="120.61876072349799"><ele>48.33333333333333</ele><time>2026-03-29T08:28:39Z</time></trkpt><trkpt lat="15.309151611211124" lon="120.61864943914203"><ele>48.0</ele><time>2026-03-29T08:28:40Z</time></trkpt><trkpt lat="15.308983844502626" lon="120.61854221619446"><ele>47.666666666666664</ele><time>2026-03-29T08:28:41Z</time></trkpt><trkpt lat="15.308818017587107" lon="120.61843635639818"><ele>47.33333333333333</ele><time>2026-03-29T08:28:42Z</time></trkpt><trkpt lat="15.308653486399086" lon="120.61833022315746"><ele>47.0</ele><time>2026-03-29T08:28:43Z</time></trkpt><trkpt lat="15.308491979640582" lon="120.61822515330448"><ele>47.0</ele><time>2026-03-29T08:28:44Z</time></trkpt><trkpt lat="15.308332567419852" lon="120.618121219026"><ele>47.0</ele><time>2026-03-29T08:28:45Z</time></trkpt><trkpt lat="15.308176138137087" lon="120.61801744491494"><ele>47.0</ele><time>2026-03-29T08:28:46Z</time></trkpt><trkpt lat="15.308017464953636" lon="120.61791571917367"><ele>47.33333333333333</ele><time>2026-03-29T08:28:47Z</time></trkpt><trkpt lat="15.307856454604655" lon="120.61781223696372"><ele>47.666666666666664</ele><time>2026-03-29T08:28:48Z</time></trkpt><trkpt lat="15.307693479055462" lon="120.617706935538"><ele>48.0</ele><time>2026-03-29T08:28:49Z</time></trkpt><trkpt lat="15.307527234548928" lon="120.61760300478632"><ele>48.0</ele><time>2026-03-29T08:28:50Z</time></trkpt><trkpt lat="15.307358374333994" lon="120.61749693899522"><ele>48.0</ele><time>2026-03-29T08:28:51Z</time></trkpt><trkpt lat="15.307188794947455" lon="120.61738902771944"><ele>48.0</ele><time>2026-03-29T08:28:52Z</time></trkpt><trkpt lat="15.307019824336896" lon="120.61728076364918"><ele>48.0</ele><time>2026-03-29T08:28:53Z</time></trkpt><trkpt lat="15.306850842087314" lon="120.61717289538466"><ele>48.0</ele><time>2026-03-29T08:28:54Z</time></trkpt><trkpt lat="15.306682546678855" lon="120.61706588453015"><ele>48.0</ele><time>2026-03-29T08:28:55Z</time></trkpt><trkpt lat="15.306515768870986" lon="120.6169590493142"><ele>48.0</ele><time>2026-03-29T08:28:56Z</time></trkpt><trkpt lat="15.306352478132943" lon="120.61685350119475"><ele>48.0</ele><time>2026-03-29T08:28:57Z</time></trkpt><trkpt lat="15.3061908602316" lon="120.61674860974485"><ele>48.0</ele><time>2026-03-29T08:28:58Z</time></trkpt><trkpt lat="15.306029430677237" lon="120.61664353270508"><ele>48.0</ele><time>2026-03-29T08:28:59Z</time></trkpt><trkpt lat="15.305866679348002" lon="120.61653781479582"><ele>48.0</ele><time>2026-03-29T08:29:00Z</time></trkpt><trkpt lat="15.305702078677895" lon="120.61643190337395"><ele>48.0</ele><time>2026-03-29T08:29:01Z</time></trkpt><trkpt lat="15.305534913942058" lon="120.61632618446627"><ele>48.0</ele><time>2026-03-29T08:29:02Z</time></trkpt><trkpt lat="15.305364126721251" lon="120.61621801683557"><ele>48.0</ele><time>2026-03-29T08:29:03Z</time></trkpt><trkpt lat="15.30518863095896" lon="120.61610681842758"><ele>48.0</ele><time>2026-03-29T08:29:04Z</time></trkpt><trkpt lat="15.305009562349627" lon="120.61599239485811"><ele>48.0</ele><time>2026-03-29T08:29:05Z</time></trkpt><trkpt lat="15.304826124225107" lon="120.61587674044375"><ele>48.0</ele><time>2026-03-29T08:29:06Z</time></trkpt><trkpt lat="15.304639198848472" lon="120.61575918248015"><ele>48.0</ele><time>2026-03-29T08:29:07Z</time></trkpt><trkpt lat="15.30445009576422" lon="120.61564065245796"><ele>48.0</ele><time>2026-03-29T08:29:08Z</time></trkpt><trkpt lat="15.304258645482527" lon="120.61552039858003"><ele>48.0</ele><time>2026-03-29T08:29:09Z</time></trkpt><trkpt lat="15.304064990467726" lon="120.61539924216036"><ele>48.0</ele><time>2026-03-29T08:29:10Z</time></trkpt><trkpt lat="15.303870386386752" lon="120.6152779396705"><ele>48.0</ele><time>2026-03-29T08:29:11Z</time></trkpt><trkpt lat="15.303673696071694" lon="120.61515626972563"><ele>48.0</ele><time>2026-03-29T08:29:12Z</time></trkpt><trkpt lat="15.303475715616024" lon="120.6150332248969"><ele>48.0</ele><time>2026-03-29T08:29:13Z</time></trkpt><trkpt lat="15.303275833643003" lon="120.61490831918412"><ele>48.5</ele><time>2026-03-29T08:29:14Z</time></trkpt><trkpt lat="15.303074505379463" lon="120.61478301004794"><ele>49.0</ele><time>2026-03-29T08:29:15Z</time></trkpt><trkpt lat="15.30287097510578" lon="120.61465789671166"><ele>49.0</ele><time>2026-03-29T08:29:16Z</time></trkpt><trkpt lat="15.3026661701979" lon="120.61453252877781"><ele>49.0</ele><time>2026-03-29T08:29:17Z</time></trkpt><trkpt lat="15.302458542024443" lon="120.61440542755929"><ele>49.0</ele><time>2026-03-29T08:29:18Z</time></trkpt><trkpt lat="15.302248074662527" lon="120.61427666938823"><ele>49.0</ele><time>2026-03-29T08:29:19Z</time></trkpt><trkpt lat="15.302034488341082" lon="120.6141466711563"><ele>49.0</ele><time>2026-03-29T08:29:20Z</time></trkpt><trkpt lat="15.30182032154216" lon="120.61401724490112"><ele>49.0</ele><time>2026-03-29T08:29:21Z</time></trkpt><trkpt lat="15.301605621333927" lon="120.6138885403964"><ele>50.0</ele><time>2026-03-29T08:29:22Z</time></trkpt><trkpt lat="15.30139042110132" lon="120.61376026085631"><ele>51.0</ele><time>2026-03-29T08:29:23Z</time></trkpt><trkpt lat="15.301177010888164" lon="120.61362809073721"><ele>51.0</ele><time>2026-03-29T08:29:24Z</time></trkpt><trkpt lat="15.300961937130621" lon="120.61349462351643"><ele>51.0</ele><time>2026-03-29T08:29:25Z</time></trkpt><trkpt lat="15.300743603258594" lon="120.61335755667027"><ele>51.0</ele><time>2026-03-29T08:29:26Z</time></trkpt><trkpt lat="15.300520549186963" lon="120.61321881093372"><ele>51.0</ele><time>2026-03-29T08:29:27Z</time></trkpt><trkpt lat="15.300292612454145" lon="120.61307857745544"><ele>51.0</ele><time>2026-03-29T08:29:28Z</time></trkpt><trkpt lat="15.3000592805091" lon="120.61293807403112"><ele>51.0</ele><time>2026-03-29T08:29:29Z</time></trkpt><trkpt lat="15.299822098032136" lon="120.61279904042887"><ele>50.5</ele><time>2026-03-29T08:29:30Z</time></trkpt><trkpt lat="15.29958481732776" lon="120.61266138796647"><ele>50.0</ele><time>2026-03-29T08:29:31Z</time></trkpt><trkpt lat="15.299350152506836" lon="120.61253051896104"><ele>50.0</ele><time>2026-03-29T08:29:32Z</time></trkpt><trkpt lat="15.299118758134368" lon="120.61240095571677"><ele>50.0</ele><time>2026-03-29T08:29:33Z</time></trkpt><trkpt lat="15.298890958663575" lon="120.61227345149705"><ele>50.5</ele><time>2026-03-29T08:29:34Z</time></trkpt><trkpt lat="15.298669409664463" lon="120.61214863755119"><ele>51.0</ele><time>2026-03-29T08:29:35Z</time></trkpt><trkpt lat="15.298454637094117" lon="120.61202674370648"><ele>51.0</ele><time>2026-03-29T08:29:36Z</time></trkpt><trkpt lat="15.298244917806677" lon="120.61190764100657"><ele>51.0</ele><time>2026-03-29T08:29:37Z</time></trkpt><trkpt lat="15.2980398286049" lon="120.61179093520684"><ele>51.0</ele><time>2026-03-29T08:29:38Z</time></trkpt><trkpt lat="15.297838704808793" lon="120.61167541463477"><ele>51.0</ele><time>2026-03-29T08:29:39Z</time></trkpt><trkpt lat="15.297641073653569" lon="120.61156268527323"><ele>51.0</ele><time>2026-03-29T08:29:40Z</time></trkpt><trkpt lat="15.297447695535096" lon="120.61145245857206"><ele>51.0</ele><time>2026-03-29T08:29:41Z</time></trkpt><trkpt lat="15.297258161423745" lon="120.61134551810811"><ele>51.0</ele><time>2026-03-29T08:29:42Z</time></trkpt><trkpt lat="15.297072268105804" lon="120.6112406969321"><ele>52.0</ele><time>2026-03-29T08:29:43Z</time></trkpt><trkpt lat="15.296889253706292" lon="120.61113807969733"><ele>53.0</ele><time>2026-03-29T08:29:44Z</time></trkpt><trkpt lat="15.29670663187576" lon="120.61103659548118"><ele>54.0</ele><time>2026-03-29T08:29:45Z</time></trkpt><trkpt lat="15.296523117873981" lon="120.61093410531223"><ele>54.0</ele><time>2026-03-29T08:29:46Z</time></trkpt><trkpt lat="15.296339369292479" lon="120.61083156054588"><ele>54.0</ele><time>2026-03-29T08:29:47Z</time></trkpt><trkpt lat="15.296155516169796" lon="120.61072870751102"><ele>54.0</ele><time>2026-03-29T08:29:48Z</time></trkpt><trkpt lat="15.295971002126052" lon="120.61062712191944"><ele>54.0</ele><time>2026-03-29T08:29:49Z</time></trkpt><trkpt lat="15.295787907220776" lon="120.61052549128313"><ele>54.0</ele><time>2026-03-29T08:29:50Z</time></trkpt><trkpt lat="15.29560827162523" lon="120.61042579638067"><ele>54.0</ele><time>2026-03-29T08:29:51Z</time></trkpt><trkpt lat="15.295430932053726" lon="120.61032755195446"><ele>53.66666666666667</ele><time>2026-03-29T08:29:52Z</time></trkpt><trkpt lat="15.295254571497866" lon="120.61023032153024"><ele>53.333333333333336</ele><time>2026-03-29T08:29:53Z</time></trkpt><trkpt lat="15.295077292570276" lon="120.61013290687372"><ele>53.0</ele><time>2026-03-29T08:29:54Z</time></trkpt><trkpt lat="15.2948987552895" lon="120.61003506715338"><ele>53.0</ele><time>2026-03-29T08:29:55Z</time></trkpt><trkpt lat="15.294717257478057" lon="120.60993705927585"><ele>53.0</ele><time>2026-03-29T08:29:56Z</time></trkpt><trkpt lat="15.294534213506624" lon="120.6098384357179"><ele>53.0</ele><time>2026-03-29T08:29:57Z</time></trkpt><trkpt lat="15.294348452492697" lon="120.60973762368002"><ele>53.0</ele><time>2026-03-29T08:29:58Z</time></trkpt><trkpt lat="15.294159544151677" lon="120.60963530916412"><ele>53.0</ele><time>2026-03-29T08:29:59Z</time></trkpt><trkpt lat="15.293968169059204" lon="120.60953144010453"><ele>53.0</ele><time>2026-03-29T08:30:00Z</time></trkpt><trkpt lat="15.293773459648733" lon="120.60942726966277"><ele>53.333333333333336</ele><time>2026-03-29T08:30:01Z</time></trkpt><trkpt lat="15.293575981879325" lon="120.60932323934706"><ele>53.66666666666667</ele><time>2026-03-29T08:30:02Z</time></trkpt><trkpt lat="15.293375756603286" lon="120.60921806543243"><ele>54.0</ele><time>2026-03-29T08:30:03Z</time></trkpt><trkpt lat="15.293172475013641" lon="120.60911016301166"><ele>54.0</ele><time>2026-03-29T08:30:04Z</time></trkpt><trkpt lat="15.292966331374144" lon="120.60900007697799"><ele>54.0</ele><time>2026-03-29T08:30:05Z</time></trkpt><trkpt lat="15.292757666366006" lon="120.60888798521425"><ele>54.0</ele><time>2026-03-29T08:30:06Z</time></trkpt><trkpt lat="15.292545260076434" lon="120.60877556600168"><ele>54.0</ele><time>2026-03-29T08:30:07Z</time></trkpt><trkpt lat="15.292329464500881" lon="120.60866210176488"><ele>54.5</ele><time>2026-03-29T08:30:08Z</time></trkpt><trkpt lat="15.292111628939175" lon="120.6085479411267"><ele>55.0</ele><time>2026-03-29T08:30:09Z</time></trkpt><trkpt lat="15.29189002365415" lon="120.60843271917027"><ele>55.0</ele><time>2026-03-29T08:30:10Z</time></trkpt><trkpt lat="15.291666199027945" lon="120.60831724179482"><ele>55.0</ele><time>2026-03-29T08:30:11Z</time></trkpt><trkpt lat="15.291439466196765" lon="120.60820063352709"><ele>54.0</ele><time>2026-03-29T08:30:12Z</time></trkpt><trkpt lat="15.291209517901882" lon="120.60808390651509"><ele>53.0</ele><time>2026-03-29T08:30:13Z</time></trkpt><trkpt lat="15.290977303548168" lon="120.60796613959546"><ele>53.0</ele><time>2026-03-29T08:30:14Z</time></trkpt><trkpt lat="15.290743868615838" lon="120.60784682176703"><ele>53.0</ele><time>2026-03-29T08:30:15Z</time></trkpt><trkpt lat="15.290509100924709" lon="120.60772624461806"><ele>54.0</ele><time>2026-03-29T08:30:16Z</time></trkpt><trkpt lat="15.29027197540024" lon="120.60760477466285"><ele>55.0</ele><time>2026-03-29T08:30:17Z</time></trkpt><trkpt lat="15.2900336530145" lon="120.60748336502954"><ele>55.0</ele><time>2026-03-29T08:30:18Z</time></trkpt><trkpt lat="15.289793201689845" lon="120.60736225405724"><ele>55.0</ele><time>2026-03-29T08:30:19Z</time></trkpt><trkpt lat="15.289551756848805" lon="120.60724065343344"><ele>56.0</ele><time>2026-03-29T08:30:20Z</time></trkpt><trkpt lat="15.289308120956411" lon="120.60711949452303"><ele>57.0</ele><time>2026-03-29T08:30:21Z</time></trkpt><trkpt lat="15.289062602750223" lon="120.60699882929326"><ele>57.5</ele><time>2026-03-29T08:30:22Z</time></trkpt><trkpt lat="15.288816169138011" lon="120.60687757898503"><ele>58.0</ele><time>2026-03-29T08:30:23Z</time></trkpt><trkpt lat="15.288571558437187" lon="120.60675673443511"><ele>58.0</ele><time>2026-03-29T08:30:24Z</time></trkpt><trkpt lat="15.288327555449325" lon="120.60663663330405"><ele>58.0</ele><time>2026-03-29T08:30:25Z</time></trkpt><trkpt lat="15.288084359440305" lon="120.60651664980497"><ele>57.5</ele><time>2026-03-29T08:30:26Z</time></trkpt><trkpt lat="15.28784061346865" lon="120.6063962091241"><ele>57.0</ele><time>2026-03-29T08:30:27Z</time></trkpt><trkpt lat="15.287595854659394" lon="120.60627722823824"><ele>57.0</ele><time>2026-03-29T08:30:28Z</time></trkpt><trkpt lat="15.287352253182505" lon="120.60615899411405"><ele>57.0</ele><time>2026-03-29T08:30:29Z</time></trkpt><trkpt lat="15.287111754172237" lon="120.6060431350261"><ele>57.0</ele><time>2026-03-29T08:30:30Z</time></trkpt><trkpt lat="15.286877501226527" lon="120.60592865270344"><ele>57.0</ele><time>2026-03-29T08:30:31Z</time></trkpt><trkpt lat="15.286649590893381" lon="120.60581551067986"><ele>57.5</ele><time>2026-03-29T08:30:32Z</time></trkpt><trkpt lat="15.286421792332336" lon="120.60570127143666"><ele>58.0</ele><time>2026-03-29T08:30:33Z</time></trkpt><trkpt lat="15.286192444847154" lon="120.60558724268706"><ele>58.0</ele><time>2026-03-29T08:30:34Z</time></trkpt><trkpt lat="15.285961156123312" lon="120.60547221564859"><ele>58.0</ele><time>2026-03-29T08:30:35Z</time></trkpt><trkpt lat="15.285727532088865" lon="120.60535631976194"><ele>57.5</ele><time>2026-03-29T08:30:36Z</time></trkpt><trkpt lat="15.28549070768396" lon="120.60524404947559"><ele>57.0</ele><time>2026-03-29T08:30:37Z</time></trkpt><trkpt lat="15.285250444105115" lon="120.6051363787012"><ele>57.0</ele><time>2026-03-29T08:30:38Z</time></trkpt><trkpt lat="15.285011820365348" lon="120.60503068890162"><ele>57.0</ele><time>2026-03-29T08:30:39Z</time></trkpt><trkpt lat="15.284775589426426" lon="120.604923361533"><ele>58.0</ele><time>2026-03-29T08:30:40Z</time></trkpt><trkpt lat="15.284540168225206" lon="120.60481288303856"><ele>59.0</ele><time>2026-03-29T08:30:41Z</time></trkpt><trkpt lat="15.284302037905565" lon="120.6047040610861"><ele>59.0</ele><time>2026-03-29T08:30:42Z</time></trkpt><trkpt lat="15.284062483085261" lon="120.60459430378629"><ele>59.0</ele><time>2026-03-29T08:30:43Z</time></trkpt><trkpt lat="15.283821801742892" lon="120.60448537579597"><ele>59.5</ele><time>2026-03-29T08:30:44Z</time></trkpt><trkpt lat="15.283581472935278" lon="120.604375070361"><ele>60.0</ele><time>2026-03-29T08:30:45Z</time></trkpt><trkpt lat="15.28334152919368" lon="120.60426234723836"><ele>60.0</ele><time>2026-03-29T08:30:46Z</time></trkpt><trkpt lat="15.28310071708179" lon="120.60415192186203"><ele>60.0</ele><time>2026-03-29T08:30:47Z</time></trkpt><trkpt lat="15.282860075806825" lon="120.60404128402193"><ele>60.0</ele><time>2026-03-29T08:30:48Z</time></trkpt><trkpt lat="15.282620080993636" lon="120.6039315022366"><ele>60.0</ele><time>2026-03-29T08:30:49Z</time></trkpt><trkpt lat="15.282381089544195" lon="120.60382531951886"><ele>60.0</ele><time>2026-03-29T08:30:50Z</time></trkpt><trkpt lat="15.282147336548988" lon="120.60371968058936"><ele>60.0</ele><time>2026-03-29T08:30:51Z</time></trkpt><trkpt lat="15.281917904452138" lon="120.60361814515112"><ele>60.0</ele><time>2026-03-29T08:30:52Z</time></trkpt><trkpt lat="15.281693789697078" lon="120.60351982652823"><ele>60.0</ele><time>2026-03-29T08:30:53Z</time></trkpt><trkpt lat="15.281475610193207" lon="120.60342503654267"><ele>61.0</ele><time>2026-03-29T08:30:54Z</time></trkpt><trkpt lat="15.281263023300747" lon="120.60333482583485"><ele>62.0</ele><time>2026-03-29T08:30:55Z</time></trkpt><trkpt lat="15.28105573342402" lon="120.6032464518829"><ele>62.0</ele><time>2026-03-29T08:30:56Z</time></trkpt><trkpt lat="15.280851565104602" lon="120.60315993547383"><ele>62.0</ele><time>2026-03-29T08:30:57Z</time></trkpt><trkpt lat="15.280652047470236" lon="120.60307208563543"><ele>62.0</ele><time>2026-03-29T08:30:58Z</time></trkpt><trkpt lat="15.280455918692395" lon="120.60298550769306"><ele>62.0</ele><time>2026-03-29T08:30:59Z</time></trkpt><trkpt lat="15.280261103002383" lon="120.60289979607721"><ele>62.0</ele><time>2026-03-29T08:31:00Z</time></trkpt><trkpt lat="15.280065041251367" lon="120.60281361228262"><ele>62.0</ele><time>2026-03-29T08:31:01Z</time></trkpt><trkpt lat="15.279867774951038" lon="120.60272718243661"><ele>62.0</ele><time>2026-03-29T08:31:02Z</time></trkpt><trkpt lat="15.279668815851382" lon="120.60263899101669"><ele>62.0</ele><time>2026-03-29T08:31:03Z</time></trkpt><trkpt lat="15.279467192479418" lon="120.60255073075326"><ele>62.0</ele><time>2026-03-29T08:31:04Z</time></trkpt><trkpt lat="15.279262762965297" lon="120.60246142675602"><ele>62.0</ele><time>2026-03-29T08:31:05Z</time></trkpt><trkpt lat="15.279056237860448" lon="120.60236610943143"><ele>62.0</ele><time>2026-03-29T08:31:06Z</time></trkpt><trkpt lat="15.278846767492896" lon="120.60226803797696"><ele>62.0</ele><time>2026-03-29T08:31:07Z</time></trkpt><trkpt lat="15.27863293101892" lon="120.60216973164097"><ele>62.0</ele><time>2026-03-29T08:31:08Z</time></trkpt><trkpt lat="15.27841647234923" lon="120.60206840516092"><ele>62.0</ele><time>2026-03-29T08:31:09Z</time></trkpt><trkpt lat="15.278197873674666" lon="120.60196685596405"><ele>62.0</ele><time>2026-03-29T08:31:10Z</time></trkpt><trkpt lat="15.277976480632889" lon="120.60186503432081"><ele>61.5</ele><time>2026-03-29T08:31:11Z</time></trkpt><trkpt lat="15.277753948422179" lon="120.60176449069534"><ele>61.0</ele><time>2026-03-29T08:31:12Z</time></trkpt><trkpt lat="15.277530643055192" lon="120.60166523934404"><ele>61.0</ele><time>2026-03-29T08:31:13Z</time></trkpt><trkpt lat="15.277304501352914" lon="120.60156536290252"><ele>61.0</ele><time>2026-03-29T08:31:14Z</time></trkpt><trkpt lat="15.277078343286584" lon="120.60146556870818"><ele>62.0</ele><time>2026-03-29T08:31:15Z</time></trkpt><trkpt lat="15.276851913331614" lon="120.60136564597578"><ele>63.0</ele><time>2026-03-29T08:31:16Z</time></trkpt><trkpt lat="15.27662585185131" lon="120.60126468700929"><ele>64.0</ele><time>2026-03-29T08:31:17Z</time></trkpt><trkpt lat="15.276400637642114" lon="120.60116289014162"><ele>65.0</ele><time>2026-03-29T08:31:18Z</time></trkpt><trkpt lat="15.27617528704772" lon="120.6010630010025"><ele>65.0</ele><time>2026-03-29T08:31:19Z</time></trkpt><trkpt lat="15.27595034619316" lon="120.60096334560818"><ele>65.0</ele><time>2026-03-29T08:31:20Z</time></trkpt><trkpt lat="15.275724045497661" lon="120.60086396760965"><ele>65.0</ele><time>2026-03-29T08:31:21Z</time></trkpt><trkpt lat="15.275496864795212" lon="120.60076453593646"><ele>65.0</ele><time>2026-03-29T08:31:22Z</time></trkpt><trkpt lat="15.2752689095839" lon="120.60066158611501"><ele>65.0</ele><time>2026-03-29T08:31:23Z</time></trkpt><trkpt lat="15.275041249138164" lon="120.60055996992644"><ele>65.0</ele><time>2026-03-29T08:31:24Z</time></trkpt><trkpt lat="15.274811077309126" lon="120.60045864473183"><ele>65.0</ele><time>2026-03-29T08:31:25Z</time></trkpt><trkpt lat="15.274579332367162" lon="120.60035814498904"><ele>65.0</ele><time>2026-03-29T08:31:26Z</time></trkpt><trkpt lat="15.27434739266596" lon="120.60025278306315"><ele>65.0</ele><time>2026-03-29T08:31:27Z</time></trkpt><trkpt lat="15.274113390607077" lon="120.60015081968177"><ele>65.0</ele><time>2026-03-29T08:31:28Z</time></trkpt><trkpt lat="15.273879439837017" lon="120.60004653397748"><ele>66.0</ele><time>2026-03-29T08:31:29Z</time></trkpt><trkpt lat="15.273643726926542" lon="120.59994413241775"><ele>67.0</ele><time>2026-03-29T08:31:30Z</time></trkpt><trkpt lat="15.273407761026636" lon="120.59983948918614"><ele>67.0</ele><time>2026-03-29T08:31:31Z</time></trkpt><trkpt lat="15.273170105684894" lon="120.59973598546672"><ele>67.0</ele><time>2026-03-29T08:31:32Z</time></trkpt><trkpt lat="15.272932706048444" lon="120.59963110361977"><ele>67.0</ele><time>2026-03-29T08:31:33Z</time></trkpt><trkpt lat="15.272699758676193" lon="120.59952840009123"><ele>67.0</ele><time>2026-03-29T08:31:34Z</time></trkpt><trkpt lat="15.272472551428724" lon="120.59942500921653"><ele>67.0</ele><time>2026-03-29T08:31:35Z</time></trkpt><trkpt lat="15.272249873147503" lon="120.59932506753438"><ele>67.0</ele><time>2026-03-29T08:31:36Z</time></trkpt><trkpt lat="15.272030640723532" lon="120.59922760247454"><ele>67.0</ele><time>2026-03-29T08:31:37Z</time></trkpt><trkpt lat="15.271814680032913" lon="120.59913164166281"><ele>67.0</ele><time>2026-03-29T08:31:38Z</time></trkpt><trkpt lat="15.27160257269601" lon="120.59903936384347"><ele>67.5</ele><time>2026-03-29T08:31:39Z</time></trkpt><trkpt lat="15.271392978532843" lon="120.5989456082506"><ele>68.0</ele><time>2026-03-29T08:31:40Z</time></trkpt><trkpt lat="15.271186776483393" lon="120.59885477060098"><ele>68.0</ele><time>2026-03-29T08:31:41Z</time></trkpt><trkpt lat="15.270993923860278" lon="120.5987683539587"><ele>68.0</ele><time>2026-03-29T08:31:42Z</time></trkpt><trkpt lat="15.270818239716426" lon="120.59868655464825"><ele>68.0</ele><time>2026-03-29T08:31:43Z</time></trkpt><trkpt lat="15.270660548626243" lon="120.59861353629319"><ele>68.66666666666667</ele><time>2026-03-29T08:31:44Z</time></trkpt><trkpt lat="15.270513415136417" lon="120.59854687796675"><ele>69.33333333333333</ele><time>2026-03-29T08:31:45Z</time></trkpt><trkpt lat="15.270367421428135" lon="120.59848224000191"><ele>70.0</ele><time>2026-03-29T08:31:46Z</time></trkpt><trkpt lat="15.270225174763837" lon="120.59841795503068"><ele>70.0</ele><time>2026-03-29T08:31:47Z</time></trkpt><trkpt lat="15.270085567085957" lon="120.59835455415087"><ele>70.0</ele><time>2026-03-29T08:31:48Z</time></trkpt><trkpt lat="15.269947788352209" lon="120.59829278134964"><ele>70.0</ele><time>2026-03-29T08:31:49Z</time></trkpt><trkpt lat="15.269810633523909" lon="120.59823180938484"><ele>70.33333333333333</ele><time>2026-03-29T08:31:50Z</time></trkpt><trkpt lat="15.269673184670363" lon="120.59817118674314"><ele>70.66666666666667</ele><time>2026-03-29T08:31:51Z</time></trkpt><trkpt lat="15.269532773113303" lon="120.5981112062357"><ele>71.0</ele><time>2026-03-29T08:31:52Z</time></trkpt><trkpt lat="15.269389727928864" lon="120.59804861739009"><ele>71.0</ele><time>2026-03-29T08:31:53Z</time></trkpt><trkpt lat="15.269241991709826" lon="120.59798544425365"><ele>71.0</ele><time>2026-03-29T08:31:54Z</time></trkpt><trkpt lat="15.269089817160067" lon="120.5979189765244"><ele>71.0</ele><time>2026-03-29T08:31:55Z</time></trkpt><trkpt lat="15.268933613340462" lon="120.59785239744255"><ele>72.0</ele><time>2026-03-29T08:31:56Z</time></trkpt><trkpt lat="15.268775421508119" lon="120.59778407787091"><ele>73.0</ele><time>2026-03-29T08:31:57Z</time></trkpt><trkpt lat="15.268616630969083" lon="120.5977156101474"><ele>74.0</ele><time>2026-03-29T08:31:58Z</time></trkpt><trkpt lat="15.26845672831042" lon="120.59764568302252"><ele>74.0</ele><time>2026-03-29T08:31:59Z</time></trkpt><trkpt lat="15.268295454914579" lon="120.59757575521307"><ele>74.0</ele><time>2026-03-29T08:32:00Z</time></trkpt><trkpt lat="15.268134410900698" lon="120.59750641360029"><ele>74.0</ele><time>2026-03-29T08:32:01Z</time></trkpt><trkpt lat="15.267982006190618" lon="120.59744061700631"><ele>73.33333333333334</ele><time>2026-03-29T08:32:02Z</time></trkpt><trkpt lat="15.267834412745474" lon="120.59737618641006"><ele>72.66666666666667</ele><time>2026-03-29T08:32:03Z</time></trkpt><trkpt lat="15.267691163876322" lon="120.59731197000191"><ele>72.0</ele><time>2026-03-29T08:32:04Z</time></trkpt><trkpt lat="15.26755140902025" lon="120.59724926551351"><ele>72.0</ele><time>2026-03-29T08:32:05Z</time></trkpt><trkpt lat="15.267413952841872" lon="120.59718845004615"><ele>72.0</ele><time>2026-03-29T08:32:06Z</time></trkpt><trkpt lat="15.267280492801413" lon="120.59712968231445"><ele>72.0</ele><time>2026-03-29T08:32:07Z</time></trkpt><trkpt lat="15.267152232222427" lon="120.5970712352572"><ele>72.0</ele><time>2026-03-29T08:32:08Z</time></trkpt><trkpt lat="15.267028940000362" lon="120.59701562867275"><ele>72.5</ele><time>2026-03-29T08:32:09Z</time></trkpt><trkpt lat="15.266908633574452" lon="120.59696240230389"><ele>73.0</ele><time>2026-03-29T08:32:10Z</time></trkpt><trkpt lat="15.266790918463148" lon="120.59690982110514"><ele>73.5</ele><time>2026-03-29T08:32:11Z</time></trkpt><trkpt lat="15.266674919123378" lon="120.59685856566"><ele>74.0</ele><time>2026-03-29T08:32:12Z</time></trkpt><trkpt lat="15.266562925094204" lon="120.59680905434065"><ele>74.0</ele><time>2026-03-29T08:32:13Z</time></trkpt><trkpt lat="15.266453591962645" lon="120.5967604992614"><ele>74.0</ele><time>2026-03-29T08:32:14Z</time></trkpt><trkpt lat="15.266347448369324" lon="120.5967140523418"><ele>74.0</ele><time>2026-03-29T08:32:15Z</time></trkpt><trkpt lat="15.266237983596548" lon="120.59666746736742"><ele>74.0</ele><time>2026-03-29T08:32:16Z</time></trkpt><trkpt lat="15.266119733840048" lon="120.59662212802347"><ele>74.25</ele><time>2026-03-29T08:32:17Z</time></trkpt><trkpt lat="15.26599509609286" lon="120.59657379413831"><ele>74.5</ele><time>2026-03-29T08:32:18Z</time></trkpt><trkpt lat="15.265863778252392" lon="120.59652018260464"><ele>74.75</ele><time>2026-03-29T08:32:19Z</time></trkpt><trkpt lat="15.265725741541692" lon="120.59646122743374"><ele>75.0</ele><time>2026-03-29T08:32:20Z</time></trkpt><trkpt lat="15.265583568908873" lon="120.59640029978043"><ele>74.0</ele><time>2026-03-29T08:32:21Z</time></trkpt><trkpt lat="15.265439918669557" lon="120.59633874269558"><ele>73.0</ele><time>2026-03-29T08:32:22Z</time></trkpt><trkpt lat="15.265296373972362" lon="120.59627763843004"><ele>72.0</ele><time>2026-03-29T08:32:23Z</time></trkpt><trkpt lat="15.265151525320427" lon="120.59621552688904"><ele>72.66666666666667</ele><time>2026-03-29T08:32:24Z</time></trkpt><trkpt lat="15.265006823390058" lon="120.59615264408808"><ele>73.33333333333334</ele><time>2026-03-29T08:32:25Z</time></trkpt><trkpt lat="15.264863392533217" lon="120.5960891397444"><ele>74.0</ele><time>2026-03-29T08:32:26Z</time></trkpt><trkpt lat="15.264723760874418" lon="120.59602740029626"><ele>75.25</ele><time>2026-03-29T08:32:27Z</time></trkpt><trkpt lat="15.264587517015181" lon="120.59596635514731"><ele>76.5</ele><time>2026-03-29T08:32:28Z</time></trkpt><trkpt lat="15.264455351555652" lon="120.59590732873939"><ele>77.75</ele><time>2026-03-29T08:32:29Z</time></trkpt><trkpt lat="15.264327589366992" lon="120.59585008564743"><ele>79.0</ele><time>2026-03-29T08:32:30Z</time></trkpt><trkpt lat="15.26420510903978" lon="120.59579461623014"><ele>79.0</ele><time>2026-03-29T08:32:31Z</time></trkpt><trkpt lat="15.264086463072516" lon="120.5957435102887"><ele>79.0</ele><time>2026-03-29T08:32:32Z</time></trkpt><trkpt lat="15.263972356235685" lon="120.59569332056337"><ele>79.0</ele><time>2026-03-29T08:32:33Z</time></trkpt><trkpt lat="15.263861637366185" lon="120.59564342083753"><ele>79.0</ele><time>2026-03-29T08:32:34Z</time></trkpt><trkpt lat="15.263754379449406" lon="120.5955942195969"><ele>78.4</ele><time>2026-03-29T08:32:35Z</time></trkpt><trkpt lat="15.26365006691113" lon="120.59554780208956"><ele>77.80000000000001</ele><time>2026-03-29T08:32:36Z</time></trkpt><trkpt lat="15.263547297806785" lon="120.59550192186968"><ele>77.19999999999999</ele><time>2026-03-29T08:32:37Z</time></trkpt><trkpt lat="15.263445263292978" lon="120.5954570835194"><ele>76.6</ele><time>2026-03-29T08:32:38Z</time></trkpt><trkpt lat="15.263345774864549" lon="120.59541351484495"><ele>76.0</ele><time>2026-03-29T08:32:39Z</time></trkpt><trkpt lat="15.263246554767095" lon="120.59537001773657"><ele>76.0</ele><time>2026-03-29T08:32:40Z</time></trkpt><trkpt lat="15.263146187730353" lon="120.59532521394812"><ele>76.0</ele><time>2026-03-29T08:32:41Z</time></trkpt><trkpt lat="15.263042524968078" lon="120.59528041449494"><ele>76.0</ele><time>2026-03-29T08:32:42Z</time></trkpt><trkpt lat="15.262936317081286" lon="120.59523219462513"><ele>76.0</ele><time>2026-03-29T08:32:43Z</time></trkpt><trkpt lat="15.262827127985393" lon="120.59518405794"><ele>76.0</ele><time>2026-03-29T08:32:44Z</time></trkpt><trkpt lat="15.262714760826421" lon="120.59513435951301"><ele>76.0</ele><time>2026-03-29T08:32:45Z</time></trkpt><trkpt lat="15.262600402656622" lon="120.5950837252982"><ele>76.0</ele><time>2026-03-29T08:32:46Z</time></trkpt><trkpt lat="15.262485060122277" lon="120.59503274831124"><ele>76.0</ele><time>2026-03-29T08:32:47Z</time></trkpt><trkpt lat="15.262368561209684" lon="120.59498084083238"><ele>75.5</ele><time>2026-03-29T08:32:48Z</time></trkpt><trkpt lat="15.2622514078997" lon="120.59492836184113"><ele>75.0</ele><time>2026-03-29T08:32:49Z</time></trkpt><trkpt lat="15.262131619147175" lon="120.59487456363412"><ele>74.5</ele><time>2026-03-29T08:32:50Z</time></trkpt><trkpt lat="15.26200883499166" lon="120.59482057335646"><ele>74.0</ele><time>2026-03-29T08:32:51Z</time></trkpt><trkpt lat="15.26188347699363" lon="120.59476597872313"><ele>74.0</ele><time>2026-03-29T08:32:52Z</time></trkpt><trkpt lat="15.261754205059333" lon="120.59470989141792"><ele>74.0</ele><time>2026-03-29T08:32:53Z</time></trkpt><trkpt lat="15.26162277614099" lon="120.59465200715842"><ele>74.0</ele><time>2026-03-29T08:32:54Z</time></trkpt><trkpt lat="15.261489510209543" lon="120.59459314111983"><ele>74.0</ele><time>2026-03-29T08:32:55Z</time></trkpt><trkpt lat="15.261354612569761" lon="120.59453253113892"><ele>74.75</ele><time>2026-03-29T08:32:56Z</time></trkpt><trkpt lat="15.26121826368858" lon="120.59447153289508"><ele>75.5</ele><time>2026-03-29T08:32:57Z</time></trkpt><trkpt lat="15.261080597320303" lon="120.59441032296341"><ele>76.25</ele><time>2026-03-29T08:32:58Z</time></trkpt><trkpt lat="15.260941881626346" lon="120.59434897186286"><ele>77.0</ele><time>2026-03-29T08:32:59Z</time></trkpt><trkpt lat="15.260800754982307" lon="120.59428819351717"><ele>77.0</ele><time>2026-03-29T08:33:00Z</time></trkpt><trkpt lat="15.260658867300068" lon="120.59422699165883"><ele>77.0</ele><time>2026-03-29T08:33:01Z</time></trkpt><trkpt lat="15.260513273126035" lon="120.59416290630631"><ele>77.0</ele><time>2026-03-29T08:33:02Z</time></trkpt><trkpt lat="15.260366450608442" lon="120.59409877109177"><ele>77.0</ele><time>2026-03-29T08:33:03Z</time></trkpt><trkpt lat="15.260217749409856" lon="120.59403198492575"><ele>77.0</ele><time>2026-03-29T08:33:04Z</time></trkpt><trkpt lat="15.260069106327101" lon="120.59396536317526"><ele>77.0</ele><time>2026-03-29T08:33:05Z</time></trkpt><trkpt lat="15.259918725075455" lon="120.59389939799938"><ele>77.33333333333334</ele><time>2026-03-29T08:33:06Z</time></trkpt><trkpt lat="15.25976836787021" lon="120.5938321702802"><ele>77.66666666666667</ele><time>2026-03-29T08:33:07Z</time></trkpt><trkpt lat="15.25962143904418" lon="120.5937666574084"><ele>78.0</ele><time>2026-03-29T08:33:08Z</time></trkpt><trkpt lat="15.25947823704472" lon="120.59370270283956"><ele>78.5</ele><time>2026-03-29T08:33:09Z</time></trkpt><trkpt lat="15.259343239299408" lon="120.59364206031695"><ele>79.0</ele><time>2026-03-29T08:33:10Z</time></trkpt><trkpt lat="15.25921266057944" lon="120.59358420512851"><ele>79.5</ele><time>2026-03-29T08:33:11Z</time></trkpt><trkpt lat="15.259086496377027" lon="120.59352823994963"><ele>80.0</ele><time>2026-03-29T08:33:12Z</time></trkpt><trkpt lat="15.25896899958709" lon="120.5934754876601"><ele>79.8</ele><time>2026-03-29T08:33:13Z</time></trkpt><trkpt lat="15.258856985592235" lon="120.59342535956841"><ele>79.6</ele><time>2026-03-29T08:33:14Z</time></trkpt><trkpt lat="15.258752030611747" lon="120.5933788354245"><ele>79.4</ele><time>2026-03-29T08:33:15Z</time></trkpt><trkpt lat="15.258652932288376" lon="120.59333469493686"><ele>79.2</ele><time>2026-03-29T08:33:16Z</time></trkpt><trkpt lat="15.25855712478702" lon="120.59329192040038"><ele>79.0</ele><time>2026-03-29T08:33:17Z</time></trkpt><trkpt lat="15.258462125050036" lon="120.59324916722365"><ele>79.0</ele><time>2026-03-29T08:33:18Z</time></trkpt><trkpt lat="15.258366778659505" lon="120.59320694418041"><ele>79.0</ele><time>2026-03-29T08:33:19Z</time></trkpt><trkpt lat="15.25827045725236" lon="120.59316416518702"><ele>79.0</ele><time>2026-03-29T08:33:20Z</time></trkpt><trkpt lat="15.258172055011409" lon="120.59312062702293"><ele>79.0</ele><time>2026-03-29T08:33:21Z</time></trkpt><trkpt lat="15.25807169493528" lon="120.59307717608516"><ele>79.0</ele><time>2026-03-29T08:33:22Z</time></trkpt><trkpt lat="15.257969523784471" lon="120.59303273642159"><ele>79.2</ele><time>2026-03-29T08:33:23Z</time></trkpt><trkpt lat="15.257868053550563" lon="120.59298850457016"><ele>79.4</ele><time>2026-03-29T08:33:24Z</time></trkpt><trkpt lat="15.257768018722194" lon="120.59294495860185"><ele>79.6</ele><time>2026-03-29T08:33:25Z</time></trkpt><trkpt lat="15.257666948293064" lon="120.59290075776549"><ele>79.8</ele><time>2026-03-29T08:33:26Z</time></trkpt><trkpt lat="15.257563140815016" lon="120.5928549810388"><ele>80.0</ele><time>2026-03-29T08:33:27Z</time></trkpt><trkpt lat="15.25745649223036" lon="120.59280754996432"><ele>80.0</ele><time>2026-03-29T08:33:28Z</time></trkpt><trkpt lat="15.257345394617786" lon="120.59275885452203"><ele>80.0</ele><time>2026-03-29T08:33:29Z</time></trkpt><trkpt lat="15.257228988940817" lon="120.59270856138335"><ele>80.0</ele><time>2026-03-29T08:33:30Z</time></trkpt><trkpt lat="15.257108883712743" lon="120.59265509542101"><ele>80.0</ele><time>2026-03-29T08:33:31Z</time></trkpt><trkpt lat="15.256985227071059" lon="120.5926010775231"><ele>79.5</ele><time>2026-03-29T08:33:32Z</time></trkpt><trkpt lat="15.256858941536754" lon="120.59254568258817"><ele>79.0</ele><time>2026-03-29T08:33:33Z</time></trkpt><trkpt lat="15.256728899824171" lon="120.59248899785221"><ele>78.5</ele><time>2026-03-29T08:33:34Z</time></trkpt><trkpt lat="15.256594855859461" lon="120.59243038757388"><ele>78.0</ele><time>2026-03-29T08:33:35Z</time></trkpt><trkpt lat="15.256457250013534" lon="120.59236988998182"><ele>78.33333333333333</ele><time>2026-03-29T08:33:36Z</time></trkpt><trkpt lat="15.256317100689936" lon="120.59230814507825"><ele>78.66666666666666</ele><time>2026-03-29T08:33:37Z</time></trkpt><trkpt lat="15.256175887247135" lon="120.5922454849476"><ele>79.0</ele><time>2026-03-29T08:33:38Z</time></trkpt><trkpt lat="15.256031069076366" lon="120.59218163317564"><ele>79.0</ele><time>2026-03-29T08:33:39Z</time></trkpt><trkpt lat="15.255882070389006" lon="120.59211635035723"><ele>79.0</ele><time>2026-03-29T08:33:40Z</time></trkpt><trkpt lat="15.255729394969295" lon="120.59204914899422"><ele>79.0</ele><time>2026-03-29T08:33:41Z</time></trkpt><trkpt lat="15.255573162381683" lon="120.59197999305036"><ele>79.0</ele><time>2026-03-29T08:33:42Z</time></trkpt><trkpt lat="15.255414889552585" lon="120.59190972128235"><ele>79.0</ele><time>2026-03-29T08:33:43Z</time></trkpt><trkpt lat="15.255253882569136" lon="120.59183872381445"><ele>79.0</ele><time>2026-03-29T08:33:44Z</time></trkpt><trkpt lat="15.255088314139522" lon="120.59176542581437"><ele>79.0</ele><time>2026-03-29T08:33:45Z</time></trkpt><trkpt lat="15.254920072028677" lon="120.59169051828187"><ele>79.0</ele><time>2026-03-29T08:33:46Z</time></trkpt><trkpt lat="15.254751638528289" lon="120.59161687707795"><ele>79.0</ele><time>2026-03-29T08:33:47Z</time></trkpt><trkpt lat="15.254586201798723" lon="120.59154467364795"><ele>79.0</ele><time>2026-03-29T08:33:48Z</time></trkpt><trkpt lat="15.254423414170741" lon="120.59147307045967"><ele>79.0</ele><time>2026-03-29T08:33:49Z</time></trkpt><trkpt lat="15.254263522153215" lon="120.59140124580813"><ele>79.0</ele><time>2026-03-29T08:33:50Z</time></trkpt><trkpt lat="15.254105855317817" lon="120.59133001599257"><ele>79.0</ele><time>2026-03-29T08:33:51Z</time></trkpt><trkpt lat="15.253949042578036" lon="120.59125893654083"><ele>79.0</ele><time>2026-03-29T08:33:52Z</time></trkpt><trkpt lat="15.253792325465225" lon="120.59118958300634"><ele>79.0</ele><time>2026-03-29T08:33:53Z</time></trkpt><trkpt lat="15.253636052033741" lon="120.59112175033131"><ele>79.0</ele><time>2026-03-29T08:33:54Z</time></trkpt><trkpt lat="15.253480337226598" lon="120.59105409827599"><ele>79.0</ele><time>2026-03-29T08:33:55Z</time></trkpt><trkpt lat="15.253325704826297" lon="120.59098521629859"><ele>79.0</ele><time>2026-03-29T08:33:56Z</time></trkpt><trkpt lat="15.253171566746571" lon="120.5909152918413"><ele>79.66666666666666</ele><time>2026-03-29T08:33:57Z</time></trkpt><trkpt lat="15.253017385876603" lon="120.59084501394578"><ele>80.33333333333333</ele><time>2026-03-29T08:33:58Z</time></trkpt><trkpt lat="15.252862635184377" lon="120.5907748427054"><ele>81.0</ele><time>2026-03-29T08:33:59Z</time></trkpt><trkpt lat="15.252706243425765" lon="120.59070280262421"><ele>81.0</ele><time>2026-03-29T08:34:00Z</time></trkpt><trkpt lat="15.25254836054469" lon="120.5906292803034"><ele>81.0</ele><time>2026-03-29T08:34:01Z</time></trkpt><trkpt lat="15.252388912378784" lon="120.59055226603716"><ele>81.0</ele><time>2026-03-29T08:34:02Z</time></trkpt><trkpt lat="15.25222766386724" lon="120.59047319065985"><ele>81.0</ele><time>2026-03-29T08:34:03Z</time></trkpt><trkpt lat="15.252065328809588" lon="120.590390879089"><ele>81.0</ele><time>2026-03-29T08:34:04Z</time></trkpt><trkpt lat="15.251901859625205" lon="120.59030681758618"><ele>81.0</ele><time>2026-03-29T08:34:05Z</time></trkpt><trkpt lat="15.251737454119871" lon="120.59022017867416"><ele>80.66666666666667</ele><time>2026-03-29T08:34:06Z</time></trkpt><trkpt lat="15.251571411085136" lon="120.59013029761846"><ele>80.33333333333334</ele><time>2026-03-29T08:34:07Z</time></trkpt><trkpt lat="15.251404789826566" lon="120.59003408134687"><ele>80.0</ele><time>2026-03-29T08:34:08Z</time></trkpt><trkpt lat="15.251236969238715" lon="120.58993290396536"><ele>80.66666666666667</ele><time>2026-03-29T08:34:09Z</time></trkpt><trkpt lat="15.251068091358581" lon="120.58982569056803"><ele>81.33333333333333</ele><time>2026-03-29T08:34:10Z</time></trkpt><trkpt lat="15.250897852062161" lon="120.58971302626516"><ele>82.0</ele><time>2026-03-29T08:34:11Z</time></trkpt><trkpt lat="15.250727617635555" lon="120.58959556402596"><ele>82.0</ele><time>2026-03-29T08:34:12Z</time></trkpt><trkpt lat="15.25055631033035" lon="120.58947426569105"><ele>82.0</ele><time>2026-03-29T08:34:13Z</time></trkpt><trkpt lat="15.250384143246038" lon="120.58934775096597"><ele>82.0</ele><time>2026-03-29T08:34:14Z</time></trkpt><trkpt lat="15.250212128673857" lon="120.58921653176866"><ele>82.0</ele><time>2026-03-29T08:34:15Z</time></trkpt><trkpt lat="15.250038381631589" lon="120.58908189528793"><ele>82.0</ele><time>2026-03-29T08:34:16Z</time></trkpt><trkpt lat="15.24986355670721" lon="120.58894217651516"><ele>82.0</ele><time>2026-03-29T08:34:17Z</time></trkpt><trkpt lat="15.249689071006221" lon="120.58879714866193"><ele>81.0</ele><time>2026-03-29T08:34:18Z</time></trkpt><trkpt lat="15.249515019315037" lon="120.58864566667052"><ele>80.0</ele><time>2026-03-29T08:34:19Z</time></trkpt><trkpt lat="15.249344937000169" lon="120.58848338517483"><ele>80.0</ele><time>2026-03-29T08:34:20Z</time></trkpt><trkpt lat="15.249173426540828" lon="120.58831667821575"><ele>80.0</ele><time>2026-03-29T08:34:21Z</time></trkpt><trkpt lat="15.24900421023445" lon="120.58814102649548"><ele>80.5</ele><time>2026-03-29T08:34:22Z</time></trkpt><trkpt lat="15.248834793898174" lon="120.58795995976378"><ele>81.0</ele><time>2026-03-29T08:34:23Z</time></trkpt><trkpt lat="15.248669166744005" lon="120.58776781084815"><ele>81.0</ele><time>2026-03-29T08:34:24Z</time></trkpt><trkpt lat="15.248505702654771" lon="120.58756975335413"><ele>81.0</ele><time>2026-03-29T08:34:25Z</time></trkpt><trkpt lat="15.248344671482124" lon="120.58736316465921"><ele>81.0</ele><time>2026-03-29T08:34:26Z</time></trkpt><trkpt lat="15.24818570056508" lon="120.5871508352568"><ele>81.0</ele><time>2026-03-29T08:34:27Z</time></trkpt><trkpt lat="15.248028232653425" lon="120.5869337240254"><ele>82.0</ele><time>2026-03-29T08:34:28Z</time></trkpt><trkpt lat="15.247870942174236" lon="120.58671208592925"><ele>83.0</ele><time>2026-03-29T08:34:29Z</time></trkpt><trkpt lat="15.247718732353382" lon="120.5864830120202"><ele>83.0</ele><time>2026-03-29T08:34:30Z</time></trkpt><trkpt lat="15.24757237390919" lon="120.58624537832608"><ele>83.0</ele><time>2026-03-29T08:34:31Z</time></trkpt><trkpt lat="15.247428460293778" lon="120.58600335500606"><ele>82.5</ele><time>2026-03-29T08:34:32Z</time></trkpt><trkpt lat="15.247289295698982" lon="120.585755560233"><ele>82.0</ele><time>2026-03-29T08:34:33Z</time></trkpt><trkpt lat="15.247153609097117" lon="120.58550297219044"><ele>82.5</ele><time>2026-03-29T08:34:34Z</time></trkpt><trkpt lat="15.247025917421324" lon="120.58524380913184"><ele>83.0</ele><time>2026-03-29T08:34:35Z</time></trkpt><trkpt lat="15.24690292881409" lon="120.5849808407121"><ele>83.0</ele><time>2026-03-29T08:34:36Z</time></trkpt><trkpt lat="15.246785559865007" lon="120.58471357142002"><ele>83.0</ele><time>2026-03-29T08:34:37Z</time></trkpt><trkpt lat="15.246674538604397" lon="120.58444128784774"><ele>82.5</ele><time>2026-03-29T08:34:38Z</time></trkpt><trkpt lat="15.246564093366029" lon="120.58416674009221"><ele>82.0</ele><time>2026-03-29T08:34:39Z</time></trkpt><trkpt lat="15.246457043439275" lon="120.58388887577958"><ele>82.5</ele><time>2026-03-29T08:34:40Z</time></trkpt><trkpt lat="15.246352212911638" lon="120.58360758644685"><ele>83.0</ele><time>2026-03-29T08:34:41Z</time></trkpt><trkpt lat="15.246248017859271" lon="120.5833254750638"><ele>83.0</ele><time>2026-03-29T08:34:42Z</time></trkpt><trkpt lat="15.24614573410489" lon="120.58304011646078"><ele>83.0</ele><time>2026-03-29T08:34:43Z</time></trkpt><trkpt lat="15.246044242974342" lon="120.58275243291678"><ele>83.0</ele><time>2026-03-29T08:34:44Z</time></trkpt><trkpt lat="15.2459412853564" lon="120.58246431914935"><ele>83.0</ele><time>2026-03-29T08:34:45Z</time></trkpt><trkpt lat="15.24583799137242" lon="120.58217597524062"><ele>83.5</ele><time>2026-03-29T08:34:46Z</time></trkpt><trkpt lat="15.245734154147899" lon="120.58188671519991"><ele>84.0</ele><time>2026-03-29T08:34:47Z</time></trkpt><trkpt lat="15.245626730857653" lon="120.581597053199"><ele>85.0</ele><time>2026-03-29T08:34:48Z</time></trkpt><trkpt lat="15.245518757086082" lon="120.58130833904103"><ele>86.0</ele><time>2026-03-29T08:34:49Z</time></trkpt><trkpt lat="15.245413403803537" lon="120.58101893583411"><ele>86.0</ele><time>2026-03-29T08:34:50Z</time></trkpt><trkpt lat="15.245307258652065" lon="120.58073109665627"><ele>86.0</ele><time>2026-03-29T08:34:51Z</time></trkpt><trkpt lat="15.245200640728019" lon="120.58044315489727"><ele>86.5</ele><time>2026-03-29T08:34:52Z</time></trkpt><trkpt lat="15.245095071976614" lon="120.58015721830776"><ele>87.0</ele><time>2026-03-29T08:34:53Z</time></trkpt><trkpt lat="15.244990927690658" lon="120.57987456317164"><ele>87.0</ele><time>2026-03-29T08:34:54Z</time></trkpt><trkpt lat="15.244891857607175" lon="120.57959751818748"><ele>87.0</ele><time>2026-03-29T08:34:55Z</time></trkpt><trkpt lat="15.244793572785232" lon="120.57932700521131"><ele>87.5</ele><time>2026-03-29T08:34:56Z</time></trkpt><trkpt lat="15.244699779970002" lon="120.57906150163322"><ele>88.0</ele><time>2026-03-29T08:34:57Z</time></trkpt><trkpt lat="15.244606645874034" lon="120.57880192227407"><ele>88.0</ele><time>2026-03-29T08:34:58Z</time></trkpt><trkpt lat="15.244514707244912" lon="120.57854848830543"><ele>88.0</ele><time>2026-03-29T08:34:59Z</time></trkpt><trkpt lat="15.244426155420417" lon="120.57830120799258"><ele>88.0</ele><time>2026-03-29T08:35:00Z</time></trkpt><trkpt lat="15.244340519531782" lon="120.57805945179611"><ele>88.0</ele><time>2026-03-29T08:35:01Z</time></trkpt><trkpt lat="15.244257358020548" lon="120.57782427906805"><ele>88.0</ele><time>2026-03-29T08:35:02Z</time></trkpt><trkpt lat="15.244176536482769" lon="120.57759451139603"><ele>88.0</ele><time>2026-03-29T08:35:03Z</time></trkpt><trkpt lat="15.244097254008963" lon="120.57737024262259"><ele>88.0</ele><time>2026-03-29T08:35:04Z</time></trkpt><trkpt lat="15.244018859255863" lon="120.57715128003113"><ele>88.0</ele><time>2026-03-29T08:35:05Z</time></trkpt><trkpt lat="15.24394291974076" lon="120.57693766678986"><ele>88.0</ele><time>2026-03-29T08:35:06Z</time></trkpt><trkpt lat="15.243869013947243" lon="120.57673078596105"><ele>88.33333333333333</ele><time>2026-03-29T08:35:07Z</time></trkpt><trkpt lat="15.243798377990545" lon="120.57653248648803"><ele>88.66666666666667</ele><time>2026-03-29T08:35:08Z</time></trkpt><trkpt lat="15.2437296431823" lon="120.57633928492132"><ele>89.0</ele><time>2026-03-29T08:35:09Z</time></trkpt><trkpt lat="15.243662089483886" lon="120.57614642284928"><ele>89.66666666666667</ele><time>2026-03-29T08:35:10Z</time></trkpt><trkpt lat="15.243593064423136" lon="120.57595196847205"><ele>90.33333333333333</ele><time>2026-03-29T08:35:11Z</time></trkpt><trkpt lat="15.24352369240113" lon="120.57575745328845"><ele>91.0</ele><time>2026-03-29T08:35:12Z</time></trkpt><trkpt lat="15.243454744136832" lon="120.57556489999692"><ele>91.0</ele><time>2026-03-29T08:35:13Z</time></trkpt><trkpt lat="15.243388032931685" lon="120.57537525598606"><ele>91.0</ele><time>2026-03-29T08:35:14Z</time></trkpt><trkpt lat="15.24332442343992" lon="120.5751897312148"><ele>91.0</ele><time>2026-03-29T08:35:15Z</time></trkpt><trkpt lat="15.243261028231897" lon="120.57500412185972"><ele>92.33333333333333</ele><time>2026-03-29T08:35:16Z</time></trkpt><trkpt lat="15.243196186227483" lon="120.57481771539905"><ele>93.66666666666667</ele><time>2026-03-29T08:35:17Z</time></trkpt><trkpt lat="15.24313185074708" lon="120.57463106014706"><ele>95.0</ele><time>2026-03-29T08:35:18Z</time></trkpt><trkpt lat="15.243068118655344" lon="120.5744437251561"><ele>95.33333333333334</ele><time>2026-03-29T08:35:19Z</time></trkpt><trkpt lat="15.24300315079698" lon="120.5742543162148"><ele>95.66666666666667</ele><time>2026-03-29T08:35:20Z</time></trkpt><trkpt lat="15.24293601197718" lon="120.57406134621979"><ele>96.0</ele><time>2026-03-29T08:35:21Z</time></trkpt><trkpt lat="15.242868232693615" lon="120.57386617835684"><ele>97.0</ele><time>2026-03-29T08:35:22Z</time></trkpt><trkpt lat="15.242798704125404" lon="120.57366927201468"><ele>98.0</ele><time>2026-03-29T08:35:23Z</time></trkpt><trkpt lat="15.242727985973717" lon="120.57347434781607"><ele>99.0</ele><time>2026-03-29T08:35:24Z</time></trkpt><trkpt lat="15.242657381543356" lon="120.57328392831293"><ele>99.0</ele><time>2026-03-29T08:35:25Z</time></trkpt><trkpt lat="15.242588026331248" lon="120.57309991336449"><ele>99.0</ele><time>2026-03-29T08:35:26Z</time></trkpt><trkpt lat="15.24252029977113" lon="120.57292114367777"><ele>99.0</ele><time>2026-03-29T08:35:27Z</time></trkpt><trkpt lat="15.24245440656013" lon="120.57274736572181"><ele>99.66666666666666</ele><time>2026-03-29T08:35:28Z</time></trkpt><trkpt lat="15.242390334171441" lon="120.57257745269979"><ele>100.33333333333333</ele><time>2026-03-29T08:35:29Z</time></trkpt><trkpt lat="15.242328818950597" lon="120.57241156525619"><ele>101.0</ele><time>2026-03-29T08:35:30Z</time></trkpt><trkpt lat="15.242268628032008" lon="120.57224948443378"><ele>100.0</ele><time>2026-03-29T08:35:31Z</time></trkpt><trkpt lat="15.242207263257951" lon="120.57208763476049"><ele>99.0</ele><time>2026-03-29T08:35:32Z</time></trkpt><trkpt lat="15.242143691527815" lon="120.57192700430603"><ele>98.0</ele><time>2026-03-29T08:35:33Z</time></trkpt><trkpt lat="15.24207755375408" lon="120.57176698946262"><ele>98.0</ele><time>2026-03-29T08:35:34Z</time></trkpt><trkpt lat="15.242009676636691" lon="120.57160850922594"><ele>98.0</ele><time>2026-03-29T08:35:35Z</time></trkpt><trkpt lat="15.241938252942354" lon="120.57145024315462"><ele>98.0</ele><time>2026-03-29T08:35:36Z</time></trkpt><trkpt lat="15.241861611313102" lon="120.57129185293525"><ele>99.0</ele><time>2026-03-29T08:35:37Z</time></trkpt><trkpt lat="15.241781310441755" lon="120.57113322811432"><ele>100.0</ele><time>2026-03-29T08:35:38Z</time></trkpt><trkpt lat="15.241697355516873" lon="120.57097375060094"><ele>101.0</ele><time>2026-03-29T08:35:39Z</time></trkpt><trkpt lat="15.241609118052821" lon="120.57081607991047"><ele>101.0</ele><time>2026-03-29T08:35:40Z</time></trkpt><trkpt lat="15.241516485790818" lon="120.57065944404229"><ele>101.0</ele><time>2026-03-29T08:35:41Z</time></trkpt><trkpt lat="15.241419959549138" lon="120.5705043102943"><ele>101.0</ele><time>2026-03-29T08:35:42Z</time></trkpt><trkpt lat="15.241318867343415" lon="120.57035075930622"><ele>101.0</ele><time>2026-03-29T08:35:43Z</time></trkpt><trkpt lat="15.24121271104029" lon="120.57019879601462"><ele>101.0</ele><time>2026-03-29T08:35:44Z</time></trkpt><trkpt lat="15.241103091963119" lon="120.57004976021109"><ele>101.0</ele><time>2026-03-29T08:35:45Z</time></trkpt><trkpt lat="15.240989295929358" lon="120.56990104413093"><ele>101.0</ele><time>2026-03-29T08:35:46Z</time></trkpt><trkpt lat="15.240870478293536" lon="120.56975417163171"><ele>101.0</ele><time>2026-03-29T08:35:47Z</time></trkpt><trkpt lat="15.240747190267182" lon="120.56960967545736"><ele>101.0</ele><time>2026-03-29T08:35:48Z</time></trkpt><trkpt lat="15.240619015126644" lon="120.5694687476131"><ele>101.33333333333333</ele><time>2026-03-29T08:35:49Z</time></trkpt><trkpt lat="15.240487104674473" lon="120.56933016040517"><ele>101.66666666666666</ele><time>2026-03-29T08:35:50Z</time></trkpt><trkpt lat="15.240352096080592" lon="120.56919590062394"><ele>102.0</ele><time>2026-03-29T08:35:51Z</time></trkpt><trkpt lat="15.24021583174311" lon="120.56906667385886"><ele>102.0</ele><time>2026-03-29T08:35:52Z</time></trkpt><trkpt lat="15.240075396448098" lon="120.56894086747009"><ele>102.0</ele><time>2026-03-29T08:35:53Z</time></trkpt><trkpt lat="15.23993388801012" lon="120.5688180083424"><ele>102.0</ele><time>2026-03-29T08:35:54Z</time></trkpt><trkpt lat="15.239792641406666" lon="120.56870180937965"><ele>103.66666666666666</ele><time>2026-03-29T08:35:55Z</time></trkpt><trkpt lat="15.239649173121826" lon="120.56859025605766"><ele>105.33333333333333</ele><time>2026-03-29T08:35:56Z</time></trkpt><trkpt lat="15.239499510696872" lon="120.56848032637198"><ele>107.0</ele><time>2026-03-29T08:35:57Z</time></trkpt><trkpt lat="15.239344525943903" lon="120.5683730420775"><ele>107.0</ele><time>2026-03-29T08:35:58Z</time></trkpt><trkpt lat="15.239183951840374" lon="120.56826818574137"><ele>107.0</ele><time>2026-03-29T08:35:59Z</time></trkpt><trkpt lat="15.239016657895547" lon="120.56816515704706"><ele>107.0</ele><time>2026-03-29T08:36:00Z</time></trkpt><trkpt lat="15.238842941834314" lon="120.56806631907617"><ele>107.0</ele><time>2026-03-29T08:36:01Z</time></trkpt><trkpt lat="15.238664043948997" lon="120.56797049140205"><ele>107.0</ele><time>2026-03-29T08:36:02Z</time></trkpt><trkpt lat="15.238481292783908" lon="120.56787590846835"><ele>107.0</ele><time>2026-03-29T08:36:03Z</time></trkpt><trkpt lat="15.23829585704256" lon="120.5677856582777"><ele>107.0</ele><time>2026-03-29T08:36:04Z</time></trkpt><trkpt lat="15.238107215622946" lon="120.5676997072952"><ele>107.0</ele><time>2026-03-29T08:36:05Z</time></trkpt><trkpt lat="15.237913365720054" lon="120.56762041428932"><ele>107.0</ele><time>2026-03-29T08:36:06Z</time></trkpt><trkpt lat="15.237715626686606" lon="120.56754655293108"><ele>107.0</ele><time>2026-03-29T08:36:07Z</time></trkpt><trkpt lat="15.23751507373621" lon="120.56747792226186"><ele>107.0</ele><time>2026-03-29T08:36:08Z</time></trkpt><trkpt lat="15.237311411837252" lon="120.56741592659941"><ele>107.0</ele><time>2026-03-29T08:36:09Z</time></trkpt><trkpt lat="15.237104021640612" lon="120.56735986191373"><ele>107.0</ele><time>2026-03-29T08:36:10Z</time></trkpt><trkpt lat="15.236894478752035" lon="120.56730932817716"><ele>107.0</ele><time>2026-03-29T08:36:11Z</time></trkpt><trkpt lat="15.23668213464564" lon="120.56726582893897"><ele>107.0</ele><time>2026-03-29T08:36:12Z</time></trkpt><trkpt lat="15.23646854497998" lon="120.5672292079415"><ele>107.0</ele><time>2026-03-29T08:36:13Z</time></trkpt><trkpt lat="15.236254408141871" lon="120.56719663816715"><ele>107.0</ele><time>2026-03-29T08:36:14Z</time></trkpt><trkpt lat="15.236040253298398" lon="120.56717161183487"><ele>107.0</ele><time>2026-03-29T08:36:15Z</time></trkpt><trkpt lat="15.235827069687197" lon="120.567154514415"><ele>107.0</ele><time>2026-03-29T08:36:16Z</time></trkpt><trkpt lat="15.235612488337972" lon="120.56714567604581"><ele>107.0</ele><time>2026-03-29T08:36:17Z</time></trkpt><trkpt lat="15.235396560118371" lon="120.5671429040857"><ele>107.0</ele><time>2026-03-29T08:36:18Z</time></trkpt><trkpt lat="15.235179933473546" lon="120.5671449548065"><ele>107.0</ele><time>2026-03-29T08:36:19Z</time></trkpt><trkpt lat="15.234960735624266" lon="120.56715345971229"><ele>107.0</ele><time>2026-03-29T08:36:20Z</time></trkpt><trkpt lat="15.234739484194742" lon="120.56716833892236"><ele>107.0</ele><time>2026-03-29T08:36:21Z</time></trkpt><trkpt lat="15.234519082338407" lon="120.56719038784296"><ele>107.33333333333333</ele><time>2026-03-29T08:36:22Z</time></trkpt><trkpt lat="15.234298600918265" lon="120.56721982793869"><ele>107.66666666666666</ele><time>2026-03-29T08:36:23Z</time></trkpt><trkpt lat="15.234077449664866" lon="120.56725761198966"><ele>108.0</ele><time>2026-03-29T08:36:24Z</time></trkpt><trkpt lat="15.233855339477584" lon="120.56730027837287"><ele>108.5</ele><time>2026-03-29T08:36:25Z</time></trkpt><trkpt lat="15.233635520860666" lon="120.56734937073304"><ele>109.0</ele><time>2026-03-29T08:36:26Z</time></trkpt><trkpt lat="15.23341620250691" lon="120.56740337123057"><ele>109.0</ele><time>2026-03-29T08:36:27Z</time></trkpt><trkpt lat="15.23319760292512" lon="120.56746059700527"><ele>109.0</ele><time>2026-03-29T08:36:28Z</time></trkpt><trkpt lat="15.232979546164398" lon="120.56752068965386"><ele>106.0</ele><time>2026-03-29T08:36:29Z</time></trkpt><trkpt lat="15.232761162244737" lon="120.56758263861937"><ele>103.0</ele><time>2026-03-29T08:36:30Z</time></trkpt><trkpt lat="15.232543240532763" lon="120.56764447598238"><ele>103.0</ele><time>2026-03-29T08:36:31Z</time></trkpt><trkpt lat="15.232325511475038" lon="120.56770587299404"><ele>103.0</ele><time>2026-03-29T08:36:32Z</time></trkpt><trkpt lat="15.232108894950992" lon="120.56776788860356"><ele>104.5</ele><time>2026-03-29T08:36:33Z</time></trkpt><trkpt lat="15.231889763326068" lon="120.56783026560258"><ele>106.0</ele><time>2026-03-29T08:36:34Z</time></trkpt><trkpt lat="15.231668504797623" lon="120.56789254416786"><ele>107.5</ele><time>2026-03-29T08:36:35Z</time></trkpt><trkpt lat="15.231444274095738" lon="120.56795637448629"><ele>109.0</ele><time>2026-03-29T08:36:36Z</time></trkpt><trkpt lat="15.231218838985303" lon="120.56801888331147"><ele>109.0</ele><time>2026-03-29T08:36:37Z</time></trkpt><trkpt lat="15.230990809161488" lon="120.56808428119095"><ele>109.0</ele><time>2026-03-29T08:36:38Z</time></trkpt><trkpt lat="15.230760842317794" lon="120.56814907393893"><ele>108.0</ele><time>2026-03-29T08:36:39Z</time></trkpt><trkpt lat="15.230530041345986" lon="120.56821544847004"><ele>107.0</ele><time>2026-03-29T08:36:40Z</time></trkpt><trkpt lat="15.230297334639719" lon="120.568282677893"><ele>107.0</ele><time>2026-03-29T08:36:41Z</time></trkpt><trkpt lat="15.230063462007422" lon="120.56834976758229"><ele>107.0</ele><time>2026-03-29T08:36:42Z</time></trkpt><trkpt lat="15.22982676427889" lon="120.56841856840259"><ele>106.5</ele><time>2026-03-29T08:36:43Z</time></trkpt><trkpt lat="15.22958864752789" lon="120.5684864751606"><ele>106.0</ele><time>2026-03-29T08:36:44Z</time></trkpt><trkpt lat="15.229348293284433" lon="120.56855394135005"><ele>106.0</ele><time>2026-03-29T08:36:45Z</time></trkpt><trkpt lat="15.229104496834116" lon="120.56862412909219"><ele>106.0</ele><time>2026-03-29T08:36:46Z</time></trkpt><trkpt lat="15.228857021501279" lon="120.56869439585881"><ele>107.0</ele><time>2026-03-29T08:36:47Z</time></trkpt><trkpt lat="15.228605097641012" lon="120.56876499733433"><ele>108.0</ele><time>2026-03-29T08:36:48Z</time></trkpt><trkpt lat="15.228349856594841" lon="120.56883773689286"><ele>108.5</ele><time>2026-03-29T08:36:49Z</time></trkpt><trkpt lat="15.228091524874735" lon="120.568911027926"><ele>109.0</ele><time>2026-03-29T08:36:50Z</time></trkpt><trkpt lat="15.227830594192996" lon="120.5689848847479"><ele>109.0</ele><time>2026-03-29T08:36:51Z</time></trkpt><trkpt lat="15.227566791044023" lon="120.56905939849281"><ele>109.0</ele><time>2026-03-29T08:36:52Z</time></trkpt><trkpt lat="15.227300881865723" lon="120.56913397148584"><ele>108.5</ele><time>2026-03-29T08:36:53Z</time></trkpt><trkpt lat="15.227032806857473" lon="120.56920821862174"><ele>108.0</ele><time>2026-03-29T08:36:54Z</time></trkpt><trkpt lat="15.226764083522784" lon="120.56928460748732"><ele>108.0</ele><time>2026-03-29T08:36:55Z</time></trkpt><trkpt lat="15.226493169493608" lon="120.56936152004236"><ele>108.0</ele><time>2026-03-29T08:36:56Z</time></trkpt><trkpt lat="15.226220410522695" lon="120.56943849305098"><ele>109.5</ele><time>2026-03-29T08:36:57Z</time></trkpt><trkpt lat="15.225946057121485" lon="120.56951655143571"><ele>111.0</ele><time>2026-03-29T08:36:58Z</time></trkpt><trkpt lat="15.225670294539789" lon="120.56959466840118"><ele>110.0</ele><time>2026-03-29T08:36:59Z</time></trkpt><trkpt lat="15.22539398812047" lon="120.56967243590839"><ele>109.0</ele><time>2026-03-29T08:37:00Z</time></trkpt><trkpt lat="15.225116879625991" lon="120.56975022544577"><ele>109.0</ele><time>2026-03-29T08:37:01Z</time></trkpt><trkpt lat="15.224839064434297" lon="120.56982816022837"><ele>109.0</ele><time>2026-03-29T08:37:02Z</time></trkpt><trkpt lat="15.224560237503683" lon="120.56990721322767"><ele>108.5</ele><time>2026-03-29T08:37:03Z</time></trkpt><trkpt lat="15.22428072615594" lon="120.569986021786"><ele>108.0</ele><time>2026-03-29T08:37:04Z</time></trkpt><trkpt lat="15.223999674496259" lon="120.57006493411602"><ele>107.5</ele><time>2026-03-29T08:37:05Z</time></trkpt><trkpt lat="15.223717783440012" lon="120.57014368468145"><ele>107.0</ele><time>2026-03-29T08:37:06Z</time></trkpt><trkpt lat="15.223434816481028" lon="120.57022230819992"><ele>107.0</ele><time>2026-03-29T08:37:07Z</time></trkpt><trkpt lat="15.223152024299699" lon="120.57030167755634"><ele>107.0</ele><time>2026-03-29T08:37:08Z</time></trkpt><trkpt lat="15.222869054342954" lon="120.57038086103374"><ele>106.0</ele><time>2026-03-29T08:37:09Z</time></trkpt><trkpt lat="15.222587197526641" lon="120.57045944088746"><ele>105.0</ele><time>2026-03-29T08:37:10Z</time></trkpt><trkpt lat="15.222305885163982" lon="120.57054007547121"><ele>107.0</ele><time>2026-03-29T08:37:11Z</time></trkpt><trkpt lat="15.222025120686192" lon="120.57061995986938"><ele>109.0</ele><time>2026-03-29T08:37:12Z</time></trkpt><trkpt lat="15.221744070102671" lon="120.5706979269784"><ele>111.5</ele><time>2026-03-29T08:37:13Z</time></trkpt><trkpt lat="15.221464216256562" lon="120.57077788881196"><ele>114.0</ele><time>2026-03-29T08:37:14Z</time></trkpt><trkpt lat="15.221185784154745" lon="120.57085769578146"><ele>114.0</ele><time>2026-03-29T08:37:15Z</time></trkpt><trkpt lat="15.220908622282849" lon="120.57093744472517"><ele>114.0</ele><time>2026-03-29T08:37:16Z</time></trkpt><trkpt lat="15.220632884244344" lon="120.5710173719682"><ele>115.5</ele><time>2026-03-29T08:37:17Z</time></trkpt><trkpt lat="15.220357559004553" lon="120.57109588452211"><ele>117.0</ele><time>2026-03-29T08:37:18Z</time></trkpt><trkpt lat="15.22008305283127" lon="120.57117409323503"><ele>113.5</ele><time>2026-03-29T08:37:19Z</time></trkpt><trkpt lat="15.219809310228877" lon="120.57125008880415"><ele>110.0</ele><time>2026-03-29T08:37:20Z</time></trkpt><trkpt lat="15.2195364150637" lon="120.57132697916506"><ele>110.0</ele><time>2026-03-29T08:37:21Z</time></trkpt><trkpt lat="15.219264684750318" lon="120.5714026933455"><ele>110.0</ele><time>2026-03-29T08:37:22Z</time></trkpt><trkpt lat="15.218992916211487" lon="120.57147852366441"><ele>110.0</ele><time>2026-03-29T08:37:23Z</time></trkpt><trkpt lat="15.218721410175315" lon="120.57155587712676"><ele>110.0</ele><time>2026-03-29T08:37:24Z</time></trkpt><trkpt lat="15.218449485847351" lon="120.57163343022529"><ele>110.0</ele><time>2026-03-29T08:37:25Z</time></trkpt><trkpt lat="15.218177217848718" lon="120.57170997773159"><ele>110.0</ele><time>2026-03-29T08:37:26Z</time></trkpt><trkpt lat="15.21790296883762" lon="120.57178897211531"><ele>110.0</ele><time>2026-03-29T08:37:27Z</time></trkpt><trkpt lat="15.217627300939855" lon="120.57186752399674"><ele>110.0</ele><time>2026-03-29T08:37:28Z</time></trkpt><trkpt lat="15.217350581119053" lon="120.57194415975047"><ele>109.5</ele><time>2026-03-29T08:37:29Z</time></trkpt><trkpt lat="15.217072808300061" lon="120.5720218724927"><ele>109.0</ele><time>2026-03-29T08:37:30Z</time></trkpt><trkpt lat="15.216796104819021" lon="120.57210049540551"><ele>109.0</ele><time>2026-03-29T08:37:31Z</time></trkpt><trkpt lat="15.216518459693939" lon="120.57217894336706"><ele>109.0</ele><time>2026-03-29T08:37:32Z</time></trkpt><trkpt lat="15.216241506490478" lon="120.57225956977702"><ele>110.0</ele><time>2026-03-29T08:37:33Z</time></trkpt><trkpt lat="15.215964362006106" lon="120.57233834072655"><ele>111.0</ele><time>2026-03-29T08:37:34Z</time></trkpt><trkpt lat="15.215688144711105" lon="120.5724141452839"><ele>111.0</ele><time>2026-03-29T08:37:35Z</time></trkpt><trkpt lat="15.215411450441627" lon="120.57248821564585"><ele>111.0</ele><time>2026-03-29T08:37:36Z</time></trkpt><trkpt lat="15.21513333088337" lon="120.5725627795528"><ele>111.0</ele><time>2026-03-29T08:37:37Z</time></trkpt><trkpt lat="15.214854195232032" lon="120.57263852474287"><ele>111.0</ele><time>2026-03-29T08:37:38Z</time></trkpt><trkpt lat="15.214574042041162" lon="120.57271665277156"><ele>111.0</ele><time>2026-03-29T08:37:39Z</time></trkpt><trkpt lat="15.214292378534877" lon="120.57279332245693"><ele>111.0</ele><time>2026-03-29T08:37:40Z</time></trkpt><trkpt lat="15.2140087309644" lon="120.57286982515426"><ele>108.5</ele><time>2026-03-29T08:37:41Z</time></trkpt><trkpt lat="15.213723376901232" lon="120.57294626690405"><ele>106.0</ele><time>2026-03-29T08:37:42Z</time></trkpt><trkpt lat="15.213436372655513" lon="120.57302455113873"><ele>105.0</ele><time>2026-03-29T08:37:43Z</time></trkpt><trkpt lat="15.213149540110178" lon="120.57310414855768"><ele>104.0</ele><time>2026-03-29T08:37:44Z</time></trkpt><trkpt lat="15.212862745845191" lon="120.57318386536814"><ele>104.0</ele><time>2026-03-29T08:37:45Z</time></trkpt><trkpt lat="15.212576891017404" lon="120.57326224762353"><ele>104.0</ele><time>2026-03-29T08:37:46Z</time></trkpt><trkpt lat="15.21229227214054" lon="120.57334183848728"><ele>105.0</ele><time>2026-03-29T08:37:47Z</time></trkpt><trkpt lat="15.212007742549725" lon="120.57342328662467"><ele>106.0</ele><time>2026-03-29T08:37:48Z</time></trkpt><trkpt lat="15.211722344460812" lon="120.57350506096012"><ele>107.0</ele><time>2026-03-29T08:37:49Z</time></trkpt><trkpt lat="15.21143714297416" lon="120.57358571302503"><ele>108.0</ele><time>2026-03-29T08:37:50Z</time></trkpt><trkpt lat="15.211151411361984" lon="120.57366689307744"><ele>109.0</ele><time>2026-03-29T08:37:51Z</time></trkpt><trkpt lat="15.210866521915653" lon="120.5737500177979"><ele>110.0</ele><time>2026-03-29T08:37:52Z</time></trkpt><trkpt lat="15.210583121183905" lon="120.57383476438052"><ele>110.5</ele><time>2026-03-29T08:37:53Z</time></trkpt><trkpt lat="15.210301646427169" lon="120.57391792378134"><ele>111.0</ele><time>2026-03-29T08:37:54Z</time></trkpt><trkpt lat="15.210023112553447" lon="120.57400058676211"><ele>110.5</ele><time>2026-03-29T08:37:55Z</time></trkpt><trkpt lat="15.209749668318475" lon="120.57408310091877"><ele>110.0</ele><time>2026-03-29T08:37:56Z</time></trkpt><trkpt lat="15.209480835988312" lon="120.57416087666455"><ele>110.0</ele><time>2026-03-29T08:37:57Z</time></trkpt><trkpt lat="15.209216946565967" lon="120.57423801319126"><ele>110.0</ele><time>2026-03-29T08:37:58Z</time></trkpt><trkpt lat="15.208957802743452" lon="120.57431407095221"><ele>110.5</ele><time>2026-03-29T08:37:59Z</time></trkpt><trkpt lat="15.208700426826553" lon="120.5743890386908"><ele>111.0</ele><time>2026-03-29T08:38:00Z</time></trkpt><trkpt lat="15.208443910793797" lon="120.57446244998393"><ele>111.5</ele><time>2026-03-29T08:38:01Z</time></trkpt><trkpt lat="15.208187245653324" lon="120.57453548219081"><ele>112.0</ele><time>2026-03-29T08:38:02Z</time></trkpt><trkpt lat="15.207931859093005" lon="120.57460773031123"><ele>111.0</ele><time>2026-03-29T08:38:03Z</time></trkpt><trkpt lat="15.207678637045847" lon="120.57467824395998"><ele>110.0</ele><time>2026-03-29T08:38:04Z</time></trkpt><trkpt lat="15.207426431798597" lon="120.57474767478605"><ele>110.5</ele><time>2026-03-29T08:38:05Z</time></trkpt><trkpt lat="15.207174923168685" lon="120.57481592302294"><ele>111.0</ele><time>2026-03-29T08:38:06Z</time></trkpt><trkpt lat="15.206924671916171" lon="120.5748831729663"><ele>111.0</ele><time>2026-03-29T08:38:07Z</time></trkpt><trkpt lat="15.206674879673242" lon="120.57494748421433"><ele>111.0</ele><time>2026-03-29T08:38:08Z</time></trkpt><trkpt lat="15.206428498006666" lon="120.5750082862757"><ele>111.5</ele><time>2026-03-29T08:38:09Z</time></trkpt><trkpt lat="15.206186219226735" lon="120.57506548995867"><ele>112.0</ele><time>2026-03-29T08:38:10Z</time></trkpt><trkpt lat="15.205947869051856" lon="120.57511976266166"><ele>112.0</ele><time>2026-03-29T08:38:11Z</time></trkpt><trkpt lat="15.205714023754403" lon="120.57517067051333"><ele>112.0</ele><time>2026-03-29T08:38:12Z</time></trkpt><trkpt lat="15.20548374336632" lon="120.57521863634895"><ele>111.5</ele><time>2026-03-29T08:38:13Z</time></trkpt><trkpt lat="15.205257233754345" lon="120.57526413889495"><ele>111.0</ele><time>2026-03-29T08:38:14Z</time></trkpt><trkpt lat="15.205033635906037" lon="120.57530667728952"><ele>111.0</ele><time>2026-03-29T08:38:15Z</time></trkpt><trkpt lat="15.204810652319757" lon="120.57534781660539"><ele>111.0</ele><time>2026-03-29T08:38:16Z</time></trkpt><trkpt lat="15.204588184377256" lon="120.57538594073637"><ele>111.0</ele><time>2026-03-29T08:38:17Z</time></trkpt><trkpt lat="15.20436513819007" lon="120.57542313385056"><ele>111.0</ele><time>2026-03-29T08:38:18Z</time></trkpt><trkpt lat="15.204142000500912" lon="120.5754595258601"><ele>111.66666666666666</ele><time>2026-03-29T08:38:19Z</time></trkpt><trkpt lat="15.20391944368802" lon="120.57549369949977"><ele>112.33333333333333</ele><time>2026-03-29T08:38:20Z</time></trkpt><trkpt lat="15.20369988084566" lon="120.57552580594525"><ele>113.0</ele><time>2026-03-29T08:38:21Z</time></trkpt><trkpt lat="15.203483854517536" lon="120.57555519579053"><ele>113.0</ele><time>2026-03-29T08:38:22Z</time></trkpt><trkpt lat="15.203270347442773" lon="120.57558248481001"><ele>113.0</ele><time>2026-03-29T08:38:23Z</time></trkpt><trkpt lat="15.20306019994316" lon="120.5756090328634"><ele>113.0</ele><time>2026-03-29T08:38:24Z</time></trkpt><trkpt lat="15.202848618551563" lon="120.57563335454164"><ele>113.66666666666666</ele><time>2026-03-29T08:38:25Z</time></trkpt><trkpt lat="15.202636303326935" lon="120.57565315966531"><ele>114.33333333333334</ele><time>2026-03-29T08:38:26Z</time></trkpt><trkpt lat="15.202422557181619" lon="120.57567470375274"><ele>115.0</ele><time>2026-03-29T08:38:27Z</time></trkpt><trkpt lat="15.20220669392731" lon="120.57569134567362"><ele>115.0</ele><time>2026-03-29T08:38:28Z</time></trkpt><trkpt lat="15.201989262707139" lon="120.5757085787687"><ele>115.0</ele><time>2026-03-29T08:38:29Z</time></trkpt><trkpt lat="15.201771038197162" lon="120.57572478225785"><ele>115.0</ele><time>2026-03-29T08:38:30Z</time></trkpt><trkpt lat="15.201549730908356" lon="120.57573919747792"><ele>115.0</ele><time>2026-03-29T08:38:31Z</time></trkpt><trkpt lat="15.201325668374883" lon="120.57575041400895"><ele>115.0</ele><time>2026-03-29T08:38:32Z</time></trkpt><trkpt lat="15.201099955240897" lon="120.57576363688169"><ele>115.0</ele><time>2026-03-29T08:38:33Z</time></trkpt><trkpt lat="15.200872028811032" lon="120.57577416029457"><ele>115.0</ele><time>2026-03-29T08:38:34Z</time></trkpt><trkpt lat="15.20064284952021" lon="120.57578383705685"><ele>116.0</ele><time>2026-03-29T08:38:35Z</time></trkpt><trkpt lat="15.200412542521988" lon="120.57579150306616"><ele>117.0</ele><time>2026-03-29T08:38:36Z</time></trkpt><trkpt lat="15.200179477790412" lon="120.57579787889186"><ele>117.0</ele><time>2026-03-29T08:38:37Z</time></trkpt><trkpt lat="15.19994474377967" lon="120.57579938989642"><ele>117.0</ele><time>2026-03-29T08:38:38Z</time></trkpt><trkpt lat="15.199708060392432" lon="120.57579849964415"><ele>115.0</ele><time>2026-03-29T08:38:39Z</time></trkpt><trkpt lat="15.199470133168214" lon="120.5757947256897"><ele>113.0</ele><time>2026-03-29T08:38:40Z</time></trkpt><trkpt lat="15.199231762896643" lon="120.57578921641705"><ele>112.5</ele><time>2026-03-29T08:38:41Z</time></trkpt><trkpt lat="15.198991821539806" lon="120.57578189538013"><ele>112.0</ele><time>2026-03-29T08:38:42Z</time></trkpt><trkpt lat="15.198752205537282" lon="120.57577353675045"><ele>112.0</ele><time>2026-03-29T08:38:43Z</time></trkpt><trkpt lat="15.198511350449044" lon="120.57576253330866"><ele>112.0</ele><time>2026-03-29T08:38:44Z</time></trkpt><trkpt lat="15.19826844255447" lon="120.57575008462784"><ele>113.0</ele><time>2026-03-29T08:38:45Z</time></trkpt><trkpt lat="15.198023982190644" lon="120.5757359958312"><ele>114.0</ele><time>2026-03-29T08:38:46Z</time></trkpt><trkpt lat="15.197777435717736" lon="120.57571869959213"><ele>114.0</ele><time>2026-03-29T08:38:47Z</time></trkpt><trkpt lat="15.197529713686531" lon="120.57569775159193"><ele>114.0</ele><time>2026-03-29T08:38:48Z</time></trkpt><trkpt lat="15.197278962694368" lon="120.57567567264944"><ele>114.0</ele><time>2026-03-29T08:38:49Z</time></trkpt><trkpt lat="15.197024188359327" lon="120.5756523190325"><ele>114.0</ele><time>2026-03-29T08:38:50Z</time></trkpt><trkpt lat="15.196769913367646" lon="120.57562647170863"><ele>114.0</ele><time>2026-03-29T08:38:51Z</time></trkpt><trkpt lat="15.196512175562193" lon="120.57559620574067"><ele>114.0</ele><time>2026-03-29T08:38:52Z</time></trkpt><trkpt lat="15.196252311422572" lon="120.57556262723482"><ele>113.5</ele><time>2026-03-29T08:38:53Z</time></trkpt><trkpt lat="15.195989843628194" lon="120.575527349312"><ele>113.0</ele><time>2026-03-29T08:38:54Z</time></trkpt><trkpt lat="15.19572430656447" lon="120.57548983661728"><ele>114.5</ele><time>2026-03-29T08:38:55Z</time></trkpt><trkpt lat="15.195457792955388" lon="120.57545003473565"><ele>116.0</ele><time>2026-03-29T08:38:56Z</time></trkpt><trkpt lat="15.19519139095446" lon="120.57540829933944"><ele>116.0</ele><time>2026-03-29T08:38:57Z</time></trkpt><trkpt lat="15.194925680686575" lon="120.57536480902588"><ele>116.0</ele><time>2026-03-29T08:38:58Z</time></trkpt><trkpt lat="15.194661526524646" lon="120.57531875213489"><ele>116.0</ele><time>2026-03-29T08:38:59Z</time></trkpt><trkpt lat="15.194398881271754" lon="120.57527144276607"><ele>116.0</ele><time>2026-03-29T08:39:00Z</time></trkpt><trkpt lat="15.19413758962067" lon="120.57522180498283"><ele>117.5</ele><time>2026-03-29T08:39:01Z</time></trkpt><trkpt lat="15.19387564917888" lon="120.57516897402365"><ele>119.0</ele><time>2026-03-29T08:39:02Z</time></trkpt><trkpt lat="15.193613511998096" lon="120.57511000459607"><ele>119.0</ele><time>2026-03-29T08:39:03Z</time></trkpt><trkpt lat="15.19334971626246" lon="120.5750496754017"><ele>119.0</ele><time>2026-03-29T08:39:04Z</time></trkpt><trkpt lat="15.193085209488501" lon="120.57498493342783"><ele>119.5</ele><time>2026-03-29T08:39:05Z</time></trkpt><trkpt lat="15.192821376210969" lon="120.574914043854"><ele>120.0</ele><time>2026-03-29T08:39:06Z</time></trkpt><trkpt lat="15.19255709665398" lon="120.57483801288726"><ele>120.0</ele><time>2026-03-29T08:39:07Z</time></trkpt><trkpt lat="15.19229465231272" lon="120.57475736200485"><ele>120.0</ele><time>2026-03-29T08:39:08Z</time></trkpt><trkpt lat="15.192031485883673" lon="120.57467525821029"><ele>120.0</ele><time>2026-03-29T08:39:09Z</time></trkpt><trkpt lat="15.191769324504772" lon="120.57459171631017"><ele>120.0</ele><time>2026-03-29T08:39:10Z</time></trkpt><trkpt lat="15.191507061508322" lon="120.57450814765211"><ele>120.0</ele><time>2026-03-29T08:39:11Z</time></trkpt><trkpt lat="15.191244743331886" lon="120.57442493960704"><ele>120.0</ele><time>2026-03-29T08:39:12Z</time></trkpt><trkpt lat="15.19098335670192" lon="120.57433929622471"><ele>120.0</ele><time>2026-03-29T08:39:13Z</time></trkpt><trkpt lat="15.190721606005416" lon="120.57425163425332"><ele>120.0</ele><time>2026-03-29T08:39:14Z</time></trkpt><trkpt lat="15.190461247406551" lon="120.5741609384193"><ele>118.0</ele><time>2026-03-29T08:39:15Z</time></trkpt><trkpt lat="15.19020285751055" lon="120.57406672500846"><ele>116.0</ele><time>2026-03-29T08:39:16Z</time></trkpt><trkpt lat="15.189943970611926" lon="120.57397099951481"><ele>117.0</ele><time>2026-03-29T08:39:17Z</time></trkpt><trkpt lat="15.18968651577634" lon="120.57387156593606"><ele>118.0</ele><time>2026-03-29T08:39:18Z</time></trkpt><trkpt lat="15.18942977389095" lon="120.57377092843312"><ele>118.5</ele><time>2026-03-29T08:39:19Z</time></trkpt><trkpt lat="15.189173288744144" lon="120.57366909450253"><ele>119.0</ele><time>2026-03-29T08:39:20Z</time></trkpt><trkpt lat="15.188916583584007" lon="120.57356599077573"><ele>119.5</ele><time>2026-03-29T08:39:21Z</time></trkpt><trkpt lat="15.188660178462012" lon="120.57346299804176"><ele>120.0</ele><time>2026-03-29T08:39:22Z</time></trkpt><trkpt lat="15.188403220502906" lon="120.57335930487803"><ele>119.0</ele><time>2026-03-29T08:39:23Z</time></trkpt><trkpt lat="15.188146673418704" lon="120.57325581828512"><ele>118.0</ele><time>2026-03-29T08:39:24Z</time></trkpt><trkpt lat="15.187889745573795" lon="120.57315237954205"><ele>118.0</ele><time>2026-03-29T08:39:25Z</time></trkpt><trkpt lat="15.187633474466498" lon="120.57304979485441"><ele>118.0</ele><time>2026-03-29T08:39:26Z</time></trkpt><trkpt lat="15.187376983301306" lon="120.57294675520389"><ele>119.5</ele><time>2026-03-29T08:39:27Z</time></trkpt><trkpt lat="15.18712071854693" lon="120.57284412435524"><ele>121.0</ele><time>2026-03-29T08:39:28Z</time></trkpt><trkpt lat="15.186864604894483" lon="120.57274125813903"><ele>121.0</ele><time>2026-03-29T08:39:29Z</time></trkpt><trkpt lat="15.186609253578526" lon="120.57263840614088"><ele>121.0</ele><time>2026-03-29T08:39:30Z</time></trkpt><trkpt lat="15.18635364941568" lon="120.57253593161414"><ele>120.0</ele><time>2026-03-29T08:39:31Z</time></trkpt><trkpt lat="15.186099036360691" lon="120.57243324077398"><ele>119.0</ele><time>2026-03-29T08:39:32Z</time></trkpt><trkpt lat="15.185844727567027" lon="120.57233054117498"><ele>120.5</ele><time>2026-03-29T08:39:33Z</time></trkpt><trkpt lat="15.185591035071509" lon="120.57222801908924"><ele>122.0</ele><time>2026-03-29T08:39:34Z</time></trkpt><trkpt lat="15.185338771644881" lon="120.57212549357249"><ele>122.5</ele><time>2026-03-29T08:39:35Z</time></trkpt><trkpt lat="15.185088518052742" lon="120.57202307972999"><ele>123.0</ele><time>2026-03-29T08:39:36Z</time></trkpt><trkpt lat="15.184841142618703" lon="120.5719215172255"><ele>123.0</ele><time>2026-03-29T08:39:37Z</time></trkpt><trkpt lat="15.18459555762562" lon="120.57182215035644"><ele>123.0</ele><time>2026-03-29T08:39:38Z</time></trkpt><trkpt lat="15.18435281447739" lon="120.57172384160779"><ele>123.0</ele><time>2026-03-29T08:39:39Z</time></trkpt><trkpt lat="15.184111974315657" lon="120.5716272783694"><ele>123.0</ele><time>2026-03-29T08:39:40Z</time></trkpt><trkpt lat="15.18387619433383" lon="120.5715318889738"><ele>123.5</ele><time>2026-03-29T08:39:41Z</time></trkpt><trkpt lat="15.183646901873232" lon="120.57143845148924"><ele>124.0</ele><time>2026-03-29T08:39:42Z</time></trkpt><trkpt lat="15.183423375587015" lon="120.5713475976802"><ele>124.0</ele><time>2026-03-29T08:39:43Z</time></trkpt><trkpt lat="15.183203904807453" lon="120.57125782999367"><ele>124.0</ele><time>2026-03-29T08:39:44Z</time></trkpt><trkpt lat="15.182989316756796" lon="120.5711687467079"><ele>124.66666666666667</ele><time>2026-03-29T08:39:45Z</time></trkpt><trkpt lat="15.182780463237581" lon="120.57107959587707"><ele>125.33333333333334</ele><time>2026-03-29T08:39:46Z</time></trkpt><trkpt lat="15.18257552991228" lon="120.57099016541582"><ele>126.0</ele><time>2026-03-29T08:39:47Z</time></trkpt><trkpt lat="15.182373694054151" lon="120.57090126696393"><ele>125.66666666666666</ele><time>2026-03-29T08:39:48Z</time></trkpt><trkpt lat="15.182175092358232" lon="120.57081404253253"><ele>125.33333333333333</ele><time>2026-03-29T08:39:49Z</time></trkpt><trkpt lat="15.181981471914524" lon="120.5707294941832"><ele>125.0</ele><time>2026-03-29T08:39:50Z</time></trkpt><trkpt lat="15.181797124928718" lon="120.57064933366479"><ele>125.0</ele><time>2026-03-29T08:39:51Z</time></trkpt><trkpt lat="15.181622132438559" lon="120.57057338332459"><ele>125.0</ele><time>2026-03-29T08:39:52Z</time></trkpt><trkpt lat="15.181454340251543" lon="120.57050194894019"><ele>125.0</ele><time>2026-03-29T08:39:53Z</time></trkpt><trkpt lat="15.181294628014525" lon="120.5704341482475"><ele>125.25</ele><time>2026-03-29T08:39:54Z</time></trkpt><trkpt lat="15.181147094201764" lon="120.57037016675223"><ele>125.5</ele><time>2026-03-29T08:39:55Z</time></trkpt><trkpt lat="15.18101372174321" lon="120.57030852266078"><ele>125.75</ele><time>2026-03-29T08:39:56Z</time></trkpt><trkpt lat="15.180897497715817" lon="120.5702456190645"><ele>126.0</ele><time>2026-03-29T08:39:57Z</time></trkpt><trkpt lat="15.180797051950632" lon="120.57017693617277"><ele>126.25</ele><time>2026-03-29T08:39:58Z</time></trkpt><trkpt lat="15.180709911751098" lon="120.5700935302726"><ele>126.5</ele><time>2026-03-29T08:39:59Z</time></trkpt><trkpt lat="15.180641759194502" lon="120.56999592855979"><ele>126.75</ele><time>2026-03-29T08:40:00Z</time></trkpt><trkpt lat="15.180596200914222" lon="120.56988658349285"><ele>127.0</ele><time>2026-03-29T08:40:01Z</time></trkpt><trkpt lat="15.180576041766228" lon="120.56976629674634"><ele>127.0</ele><time>2026-03-29T08:40:02Z</time></trkpt><trkpt lat="15.180585933809688" lon="120.56964257313159"><ele>127.0</ele><time>2026-03-29T08:40:03Z</time></trkpt><trkpt lat="15.180623883538086" lon="120.56952740234996"><ele>127.0</ele><time>2026-03-29T08:40:04Z</time></trkpt><trkpt lat="15.180683553391205" lon="120.5694226680683"><ele>127.0</ele><time>2026-03-29T08:40:05Z</time></trkpt><trkpt lat="15.180765741239048" lon="120.56933305153271"><ele>127.0</ele><time>2026-03-29T08:40:06Z</time></trkpt><trkpt lat="15.180862413231498" lon="120.5692634069404"><ele>127.0</ele><time>2026-03-29T08:40:07Z</time></trkpt><trkpt lat="15.18097320843009" lon="120.56921338479584"><ele>127.0</ele><time>2026-03-29T08:40:08Z</time></trkpt><trkpt lat="15.181093937896694" lon="120.56919048838598"><ele>127.0</ele><time>2026-03-29T08:40:09Z</time></trkpt><trkpt lat="15.181211030108962" lon="120.56919944222992"><ele>127.0</ele><time>2026-03-29T08:40:10Z</time></trkpt><trkpt lat="15.181321391392146" lon="120.56922981991657"><ele>126.99999999999999</ele><time>2026-03-29T08:40:11Z</time></trkpt><trkpt lat="15.181424084026856" lon="120.56927037777685"><ele>126.99999999999999</ele><time>2026-03-29T08:40:12Z</time></trkpt><trkpt lat="15.181522382196869" lon="120.56931649188553"><ele>127.0</ele><time>2026-03-29T08:40:13Z</time></trkpt><trkpt lat="15.181612262174706" lon="120.5693596567385"><ele>127.0</ele><time>2026-03-29T08:40:14Z</time></trkpt><trkpt lat="15.181693856496842" lon="120.56939825983798"><ele>127.16666666666667</ele><time>2026-03-29T08:40:15Z</time></trkpt><trkpt lat="15.181768729785558" lon="120.5694318746686"><ele>127.33333333333334</ele><time>2026-03-29T08:40:16Z</time></trkpt><trkpt lat="15.181831936451788" lon="120.56946007403695"><ele>127.5</ele><time>2026-03-29T08:40:17Z</time></trkpt><trkpt lat="15.181927267992785" lon="120.56950512398052"><ele>127.66666666666666</ele><time>2026-03-29T08:40:19Z</time></trkpt><trkpt lat="15.181986114275835" lon="120.56953507268669"><ele>127.83333333333333</ele><time>2026-03-29T08:40:21Z</time></trkpt><trkpt lat="15.182049161454753" lon="120.56955421917505"><ele>128.0</ele><time>2026-03-29T08:40:26Z</time></trkpt><trkpt lat="15.182110745014679" lon="120.5696222066305"><ele>128.0</ele><time>2026-03-29T08:40:40Z</time></trkpt><trkpt lat="15.18223179662929" lon="120.56966218317879"><ele>128.0</ele><time>2026-03-29T08:40:42Z</time></trkpt><trkpt lat="15.182325561451997" lon="120.56964558311539"><ele>128.0</ele><time>2026-03-29T08:40:43Z</time></trkpt><trkpt lat="15.18240110267804" lon="120.56967781528354"><ele>128.0</ele><time>2026-03-29T08:40:44Z</time></trkpt><trkpt lat="15.182480905482704" lon="120.56970552662592"><ele>128.0</ele><time>2026-03-29T08:40:45Z</time></trkpt><trkpt lat="15.182567496764927" lon="120.56974156536747"><ele>128.0</ele><time>2026-03-29T08:40:46Z</time></trkpt><trkpt lat="15.1826555333741" lon="120.56977765134998"><ele>128.0</ele><time>2026-03-29T08:40:47Z</time></trkpt><trkpt lat="15.182743445159842" lon="120.56981546965852"><ele>128.0</ele><time>2026-03-29T08:40:48Z</time></trkpt><trkpt lat="15.18283074923871" lon="120.56985373286945"><ele>128.0</ele><time>2026-03-29T08:40:49Z</time></trkpt><trkpt lat="15.182916320028065" lon="120.56989094693576"><ele>128.0</ele><time>2026-03-29T08:40:50Z</time></trkpt><trkpt lat="15.183000166677715" lon="120.56992674920407"><ele>128.0</ele><time>2026-03-29T08:40:51Z</time></trkpt><trkpt lat="15.183078458975775" lon="120.56996057007336"><ele>128.0</ele><time>2026-03-29T08:40:52Z</time></trkpt><trkpt lat="15.183150010960704" lon="120.5699984891872"><ele>128.0</ele><time>2026-03-29T08:40:53Z</time></trkpt><trkpt lat="15.18321969042883" lon="120.5700231044095"><ele>128.0</ele><time>2026-03-29T08:40:54Z</time></trkpt><trkpt lat="15.183282133024866" lon="120.57005044265784"><ele>128.0</ele><time>2026-03-29T08:40:55Z</time></trkpt><trkpt lat="15.183331580903271" lon="120.5702786414435"><ele>127.60000000000001</ele><time>2026-03-29T08:40:57Z</time></trkpt><trkpt lat="15.183299885529415" lon="120.57036197477916"><ele>127.20000000000002</ele><time>2026-03-29T08:40:58Z</time></trkpt><trkpt lat="15.183252074264832" lon="120.57044671299134"><ele>126.8</ele><time>2026-03-29T08:40:59Z</time></trkpt><trkpt lat="15.183218238932621" lon="120.57054308674988"><ele>126.4</ele><time>2026-03-29T08:41:00Z</time></trkpt><trkpt lat="15.183180498108248" lon="120.5706463312068"><ele>126.0</ele><time>2026-03-29T08:41:01Z</time></trkpt><trkpt lat="15.183142136098926" lon="120.57075509341011"><ele>126.0</ele><time>2026-03-29T08:41:02Z</time></trkpt><trkpt lat="15.183100831137276" lon="120.5708698948256"><ele>126.0</ele><time>2026-03-29T08:41:03Z</time></trkpt><trkpt lat="15.183058454611666" lon="120.5709903470763"><ele>126.0</ele><time>2026-03-29T08:41:04Z</time></trkpt><trkpt lat="15.183014666502768" lon="120.5711157130637"><ele>126.0</ele><time>2026-03-29T08:41:05Z</time></trkpt><trkpt lat="15.182968222546748" lon="120.57124668073753"><ele>125.75</ele><time>2026-03-29T08:41:06Z</time></trkpt><trkpt lat="15.182918734614832" lon="120.57137924212584"><ele>125.5</ele><time>2026-03-29T08:41:07Z</time></trkpt><trkpt lat="15.182867202402067" lon="120.5715132625344"><ele>125.25</ele><time>2026-03-29T08:41:08Z</time></trkpt><trkpt lat="15.182815326069301" lon="120.57164702737127"><ele>125.0</ele><time>2026-03-29T08:41:09Z</time></trkpt><trkpt lat="15.18276546310228" lon="120.57177946637745"><ele>125.0</ele><time>2026-03-29T08:41:10Z</time></trkpt><trkpt lat="15.182715667508184" lon="120.57190723189204"><ele>125.0</ele><time>2026-03-29T08:41:11Z</time></trkpt><trkpt lat="15.182667620122917" lon="120.57202729931298"><ele>125.0</ele><time>2026-03-29T08:41:12Z</time></trkpt><trkpt lat="15.182622891113395" lon="120.5721364186643"><ele>125.0</ele><time>2026-03-29T08:41:13Z</time></trkpt><trkpt lat="15.182581164885612" lon="120.57223599762969"><ele>124.8</ele><time>2026-03-29T08:41:14Z</time></trkpt><trkpt lat="15.182540946626485" lon="120.5723300497149"><ele>124.6</ele><time>2026-03-29T08:41:15Z</time></trkpt><trkpt lat="15.182502100484761" lon="120.57242071434689"><ele>124.4</ele><time>2026-03-29T08:41:16Z</time></trkpt><trkpt lat="15.182463692680187" lon="120.57250737534092"><ele>124.2</ele><time>2026-03-29T08:41:17Z</time></trkpt><trkpt lat="15.182427914350422" lon="120.57258907089262"><ele>124.0</ele><time>2026-03-29T08:41:18Z</time></trkpt><trkpt lat="15.182395880370267" lon="120.57266883502675"><ele>124.00000000000001</ele><time>2026-03-29T08:41:19Z</time></trkpt><trkpt lat="15.182366403990944" lon="120.57274783616556"><ele>124.0</ele><time>2026-03-29T08:41:20Z</time></trkpt><trkpt lat="15.182338434112893" lon="120.57282477720764"><ele>124.0</ele><time>2026-03-29T08:41:21Z</time></trkpt><trkpt lat="15.182310371485132" lon="120.57289807007527"><ele>124.0</ele><time>2026-03-29T08:41:22Z</time></trkpt><trkpt lat="15.182282683876156" lon="120.57296985866498"><ele>124.00000000000001</ele><time>2026-03-29T08:41:23Z</time></trkpt><trkpt lat="15.182252977806032" lon="120.5730446221418"><ele>124.0</ele><time>2026-03-29T08:41:24Z</time></trkpt><trkpt lat="15.18222211668139" lon="120.57312352848979"><ele>123.83333333333334</ele><time>2026-03-29T08:41:25Z</time></trkpt><trkpt lat="15.182192423838005" lon="120.57320205999025"><ele>123.66666666666667</ele><time>2026-03-29T08:41:26Z</time></trkpt><trkpt lat="15.1821647834937" lon="120.57327986216903"><ele>123.5</ele><time>2026-03-29T08:41:27Z</time></trkpt><trkpt lat="15.18213881944076" lon="120.57335781475355"><ele>123.33333333333334</ele><time>2026-03-29T08:41:28Z</time></trkpt><trkpt lat="15.182113243611965" lon="120.57343219983801"><ele>123.16666666666667</ele><time>2026-03-29T08:41:29Z</time></trkpt><trkpt lat="15.18208989199927" lon="120.57349964256034"><ele>123.0</ele><time>2026-03-29T08:41:30Z</time></trkpt><trkpt lat="15.182048961175209" lon="120.57361189862563"><ele>123.0</ele><time>2026-03-29T08:41:32Z</time></trkpt><trkpt lat="15.182019798267124" lon="120.57369489248315"><ele>123.0</ele><time>2026-03-29T08:41:34Z</time></trkpt><trkpt lat="15.181992669127974" lon="120.5737725409746"><ele>123.0</ele><time>2026-03-29T08:41:38Z</time></trkpt><trkpt lat="15.181967331629291" lon="120.57384470192207"><ele>123.0</ele><time>2026-03-29T08:41:40Z</time></trkpt><trkpt lat="15.181926551077463" lon="120.57395475210976"><ele>123.0</ele><time>2026-03-29T08:41:42Z</time></trkpt><trkpt lat="15.18190094482663" lon="120.57402095927598"><ele>123.0</ele><time>2026-03-29T08:41:43Z</time></trkpt><trkpt lat="15.181872040337542" lon="120.57409450994325"><ele>123.0</ele><time>2026-03-29T08:41:44Z</time></trkpt><trkpt lat="15.181840733828684" lon="120.57417459165966"><ele>123.00000000000001</ele><time>2026-03-29T08:41:45Z</time></trkpt><trkpt lat="15.181806581391825" lon="120.57426063868068"><ele>123.00000000000001</ele><time>2026-03-29T08:41:46Z</time></trkpt><trkpt lat="15.181770709745711" lon="120.5743517695186"><ele>123.0</ele><time>2026-03-29T08:41:47Z</time></trkpt><trkpt lat="15.181732250334854" lon="120.57444777757884"><ele>123.0</ele><time>2026-03-29T08:41:48Z</time></trkpt><trkpt lat="15.181691679737181" lon="120.57454797597913"><ele>122.60000000000001</ele><time>2026-03-29T08:41:49Z</time></trkpt><trkpt lat="15.181650187501216" lon="120.57464966884527"><ele>122.20000000000002</ele><time>2026-03-29T08:41:50Z</time></trkpt><trkpt lat="15.181607314090302" lon="120.57475428920735"><ele>121.8</ele><time>2026-03-29T08:41:51Z</time></trkpt><trkpt lat="15.181565604827975" lon="120.5748622842161"><ele>121.4</ele><time>2026-03-29T08:41:52Z</time></trkpt><trkpt lat="15.181522295091419" lon="120.57497486450049"><ele>121.0</ele><time>2026-03-29T08:41:53Z</time></trkpt><trkpt lat="15.18147719356653" lon="120.5750914775607"><ele>120.75</ele><time>2026-03-29T08:41:54Z</time></trkpt><trkpt lat="15.18143063952084" lon="120.5752121361506"><ele>120.5</ele><time>2026-03-29T08:41:55Z</time></trkpt><trkpt lat="15.181381937739758" lon="120.57533637928222"><ele>120.25</ele><time>2026-03-29T08:41:56Z</time></trkpt><trkpt lat="15.1813307474484" lon="120.57546414475499"><ele>120.0</ele><time>2026-03-29T08:41:57Z</time></trkpt><trkpt lat="15.181277245510094" lon="120.57559448467254"><ele>120.0</ele><time>2026-03-29T08:41:58Z</time></trkpt><trkpt lat="15.181222716019228" lon="120.57572803230333"><ele>120.0</ele><time>2026-03-29T08:41:59Z</time></trkpt><trkpt lat="15.181185176448674" lon="120.57586964991098"><ele>120.0</ele><time>2026-03-29T08:42:00Z</time></trkpt><trkpt lat="15.181133433833983" lon="120.57600279651044"><ele>120.0</ele><time>2026-03-29T08:42:01Z</time></trkpt><trkpt lat="15.18108272440966" lon="120.57613328445194"><ele>120.0</ele><time>2026-03-29T08:42:02Z</time></trkpt><trkpt lat="15.181034690703282" lon="120.57626036587305"><ele>120.0</ele><time>2026-03-29T08:42:03Z</time></trkpt><trkpt lat="15.180991029408725" lon="120.57638195504808"><ele>120.0</ele><time>2026-03-29T08:42:04Z</time></trkpt><trkpt lat="15.180950626270164" lon="120.5764944708202"><ele>120.0</ele><time>2026-03-29T08:42:05Z</time></trkpt><trkpt lat="15.18091313789865" lon="120.57659886946757"><ele>120.0</ele><time>2026-03-29T08:42:06Z</time></trkpt><trkpt lat="15.180877035072925" lon="120.57669592480612"><ele>120.0</ele><time>2026-03-29T08:42:07Z</time></trkpt><trkpt lat="15.180843150577484" lon="120.57678461918964"><ele>120.0</ele><time>2026-03-29T08:42:08Z</time></trkpt><trkpt lat="15.180698972156085" lon="120.57682132471687"><ele>120.0</ele><time>2026-03-29T08:42:09Z</time></trkpt><trkpt lat="15.180622299317871" lon="120.57687032310962"><ele>120.0</ele><time>2026-03-29T08:42:10Z</time></trkpt><trkpt lat="15.18053280661442" lon="120.57689692601102"><ele>119.8</ele><time>2026-03-29T08:42:11Z</time></trkpt><trkpt lat="15.180435568292111" lon="120.57690092779559"><ele>119.6</ele><time>2026-03-29T08:42:12Z</time></trkpt><trkpt lat="15.1803362168184" lon="120.57688233315938"><ele>119.4</ele><time>2026-03-29T08:42:13Z</time></trkpt><trkpt lat="15.180237565090644" lon="120.5768520699444"><ele>119.2</ele><time>2026-03-29T08:42:14Z</time></trkpt><trkpt lat="15.180135947660157" lon="120.57681508766937"><ele>119.0</ele><time>2026-03-29T08:42:15Z</time></trkpt><trkpt lat="15.180030860278283" lon="120.57677609583475"><ele>119.0</ele><time>2026-03-29T08:42:16Z</time></trkpt><trkpt lat="15.17992106125006" lon="120.57673495295165"><ele>119.0</ele><time>2026-03-29T08:42:17Z</time></trkpt><trkpt lat="15.179807670605795" lon="120.57669177081893"><ele>119.0</ele><time>2026-03-29T08:42:18Z</time></trkpt><trkpt lat="15.179690685736121" lon="120.57664901788046"><ele>119.0</ele><time>2026-03-29T08:42:19Z</time></trkpt><trkpt lat="15.179573680442905" lon="120.5766064374087"><ele>119.0</ele><time>2026-03-29T08:42:20Z</time></trkpt><trkpt lat="15.179458279121517" lon="120.57656568090148"><ele>119.0</ele><time>2026-03-29T08:42:21Z</time></trkpt><trkpt lat="15.179342398793018" lon="120.57652493565413"><ele>119.0</ele><time>2026-03-29T08:42:22Z</time></trkpt><trkpt lat="15.179227732642037" lon="120.57648390297527"><ele>119.0</ele><time>2026-03-29T08:42:23Z</time></trkpt><trkpt lat="15.17911498566765" lon="120.57644340750903"><ele>118.5</ele><time>2026-03-29T08:42:24Z</time></trkpt><trkpt lat="15.179007962572273" lon="120.57638462489292"><ele>118.0</ele><time>2026-03-29T08:42:25Z</time></trkpt><trkpt lat="15.178894953539196" lon="120.57634244498966"><ele>117.5</ele><time>2026-03-29T08:42:26Z</time></trkpt><trkpt lat="15.178780455034454" lon="120.57629932875012"><ele>117.0</ele><time>2026-03-29T08:42:27Z</time></trkpt><trkpt lat="15.17866280277827" lon="120.57625485156105"><ele>117.0</ele><time>2026-03-29T08:42:28Z</time></trkpt><trkpt lat="15.178540915168758" lon="120.5762089011803"><ele>117.0</ele><time>2026-03-29T08:42:29Z</time></trkpt><trkpt lat="15.178414213291077" lon="120.57616141619815"><ele>117.0</ele><time>2026-03-29T08:42:30Z</time></trkpt><trkpt lat="15.178283169527484" lon="120.57611201377091"><ele>117.0</ele><time>2026-03-29T08:42:31Z</time></trkpt><trkpt lat="15.178148063820402" lon="120.5760597336501"><ele>117.5</ele><time>2026-03-29T08:42:32Z</time></trkpt><trkpt lat="15.17800916685" lon="120.57600459336716"><ele>118.0</ele><time>2026-03-29T08:42:33Z</time></trkpt><trkpt lat="15.17787034148727" lon="120.5759485633168"><ele>118.5</ele><time>2026-03-29T08:42:34Z</time></trkpt><trkpt lat="15.17773174917021" lon="120.57589181997216"><ele>119.0</ele><time>2026-03-29T08:42:35Z</time></trkpt><trkpt lat="15.177596060189206" lon="120.57583605619097"><ele>119.0</ele><time>2026-03-29T08:42:36Z</time></trkpt><trkpt lat="15.177463667025165" lon="120.57578218010353"><ele>119.0</ele><time>2026-03-29T08:42:37Z</time></trkpt><trkpt lat="15.177333803709056" lon="120.57572980694307"><ele>119.0</ele><time>2026-03-29T08:42:38Z</time></trkpt><trkpt lat="15.17720766412184" lon="120.57567972463492"><ele>119.0</ele><time>2026-03-29T08:42:39Z</time></trkpt><trkpt lat="15.177089156139072" lon="120.57563301908576"><ele>119.0</ele><time>2026-03-29T08:42:40Z</time></trkpt><trkpt lat="15.176977918986433" lon="120.57558939359056"><ele>119.0</ele><time>2026-03-29T08:42:41Z</time></trkpt><trkpt lat="15.176871166463894" lon="120.57554716502143"><ele>119.0</ele><time>2026-03-29T08:42:42Z</time></trkpt><trkpt lat="15.176761195504016" lon="120.57550386024914"><ele>119.0</ele><time>2026-03-29T08:42:43Z</time></trkpt><trkpt lat="15.176647276439274" lon="120.57545935998917"><ele>119.0</ele><time>2026-03-29T08:42:44Z</time></trkpt><trkpt lat="15.17652785029205" lon="120.57541229848191"><ele>119.0</ele><time>2026-03-29T08:42:45Z</time></trkpt><trkpt lat="15.176402179245777" lon="120.57536332508299"><ele>119.0</ele><time>2026-03-29T08:42:46Z</time></trkpt><trkpt lat="15.17627135083238" lon="120.57531250035264"><ele>119.0</ele><time>2026-03-29T08:42:47Z</time></trkpt><trkpt lat="15.17613409967468" lon="120.57525903034215"><ele>118.33333333333333</ele><time>2026-03-29T08:42:48Z</time></trkpt><trkpt lat="15.175991959071641" lon="120.5752037195613"><ele>117.66666666666666</ele><time>2026-03-29T08:42:49Z</time></trkpt><trkpt lat="15.175843968364456" lon="120.57514608134518"><ele>117.0</ele><time>2026-03-29T08:42:50Z</time></trkpt><trkpt lat="15.175690294559836" lon="120.57508805383229"><ele>117.0</ele><time>2026-03-29T08:42:51Z</time></trkpt><trkpt lat="15.175538788102914" lon="120.57501224335753"><ele>117.0</ele><time>2026-03-29T08:42:52Z</time></trkpt><trkpt lat="15.17537785080455" lon="120.57494598682139"><ele>117.0</ele><time>2026-03-29T08:42:53Z</time></trkpt><trkpt lat="15.175213087128064" lon="120.57487866285456"><ele>117.0</ele><time>2026-03-29T08:42:54Z</time></trkpt><trkpt lat="15.17504518218587" lon="120.57481005533765"><ele>117.0</ele><time>2026-03-29T08:42:55Z</time></trkpt><trkpt lat="15.174873413641354" lon="120.57474446332665"><ele>117.0</ele><time>2026-03-29T08:42:56Z</time></trkpt><trkpt lat="15.174699442264032" lon="120.57467985898981"><ele>117.33333333333334</ele><time>2026-03-29T08:42:57Z</time></trkpt><trkpt lat="15.174524044223027" lon="120.57461408727954"><ele>117.66666666666667</ele><time>2026-03-29T08:42:58Z</time></trkpt><trkpt lat="15.174346753070617" lon="120.57454382428969"><ele>118.0</ele><time>2026-03-29T08:42:59Z</time></trkpt><trkpt lat="15.174167842536937" lon="120.5744730890772"><ele>117.66666666666667</ele><time>2026-03-29T08:43:00Z</time></trkpt><trkpt lat="15.173986668674182" lon="120.57440152406174"><ele>117.33333333333334</ele><time>2026-03-29T08:43:01Z</time></trkpt><trkpt lat="15.173803492332619" lon="120.57432919058623"><ele>117.0</ele><time>2026-03-29T08:43:02Z</time></trkpt><trkpt lat="15.173617858657513" lon="120.5742558867476"><ele>117.0</ele><time>2026-03-29T08:43:03Z</time></trkpt><trkpt lat="15.173430798934342" lon="120.57418201978473"><ele>117.0</ele><time>2026-03-29T08:43:04Z</time></trkpt><trkpt lat="15.173242402092859" lon="120.57410781919448"><ele>117.0</ele><time>2026-03-29T08:43:05Z</time></trkpt><trkpt lat="15.173046959990366" lon="120.57404785099051"><ele>117.66666666666666</ele><time>2026-03-29T08:43:06Z</time></trkpt><trkpt lat="15.172857568509443" lon="120.5739722742396"><ele>118.33333333333333</ele><time>2026-03-29T08:43:07Z</time></trkpt><trkpt lat="15.17266963416778" lon="120.57389605156979"><ele>119.0</ele><time>2026-03-29T08:43:08Z</time></trkpt><trkpt lat="15.172482106872657" lon="120.57382162363564"><ele>119.0</ele><time>2026-03-29T08:43:09Z</time></trkpt><trkpt lat="15.17229511057232" lon="120.57374737742185"><ele>119.0</ele><time>2026-03-29T08:43:10Z</time></trkpt><trkpt lat="15.172109888841234" lon="120.57367285025371"><ele>119.0</ele><time>2026-03-29T08:43:11Z</time></trkpt><trkpt lat="15.171926045723492" lon="120.57359990333876"><ele>120.33333333333333</ele><time>2026-03-29T08:43:12Z</time></trkpt><trkpt lat="15.17174301647815" lon="120.57352828283672"><ele>121.66666666666666</ele><time>2026-03-29T08:43:13Z</time></trkpt><trkpt lat="15.171561253736618" lon="120.57345691470003"><ele>123.0</ele><time>2026-03-29T08:43:14Z</time></trkpt><trkpt lat="15.171380944746279" lon="120.57338539524993"><ele>123.0</ele><time>2026-03-29T08:43:15Z</time></trkpt><trkpt lat="15.171202506860514" lon="120.5733147247385"><ele>123.0</ele><time>2026-03-29T08:43:16Z</time></trkpt><trkpt lat="15.17102542191105" lon="120.57324521638803"><ele>123.0</ele><time>2026-03-29T08:43:17Z</time></trkpt><trkpt lat="15.170848179190939" lon="120.57317531794631"><ele>122.66666666666666</ele><time>2026-03-29T08:43:18Z</time></trkpt><trkpt lat="15.170672051872849" lon="120.57310541353446"><ele>122.33333333333333</ele><time>2026-03-29T08:43:19Z</time></trkpt><trkpt lat="15.170498256631577" lon="120.57303639276788"><ele>122.0</ele><time>2026-03-29T08:43:20Z</time></trkpt><trkpt lat="15.170328501054286" lon="120.57296882805579"><ele>122.0</ele><time>2026-03-29T08:43:21Z</time></trkpt><trkpt lat="15.170162012660871" lon="120.57290224360271"><ele>122.0</ele><time>2026-03-29T08:43:22Z</time></trkpt><trkpt lat="15.169999584819815" lon="120.57283736473143"><ele>122.0</ele><time>2026-03-29T08:43:23Z</time></trkpt><trkpt lat="15.16984385045171" lon="120.57275896779795"><ele>122.33333333333333</ele><time>2026-03-29T08:43:24Z</time></trkpt><trkpt lat="15.169684219147392" lon="120.57269775452887"><ele>122.66666666666666</ele><time>2026-03-29T08:43:25Z</time></trkpt><trkpt lat="15.169523689345688" lon="120.5726378373929"><ele>123.0</ele><time>2026-03-29T08:43:26Z</time></trkpt><trkpt lat="15.169362177866757" lon="120.57257883633851"><ele>123.0</ele><time>2026-03-29T08:43:27Z</time></trkpt><trkpt lat="15.169198730067462" lon="120.57252078455302"><ele>123.0</ele><time>2026-03-29T08:43:28Z</time></trkpt><trkpt lat="15.169033882337484" lon="120.5724642074103"><ele>123.0</ele><time>2026-03-29T08:43:29Z</time></trkpt><trkpt lat="15.1688696341415" lon="120.57241093950506"><ele>123.0</ele><time>2026-03-29T08:43:30Z</time></trkpt><trkpt lat="15.168706422809727" lon="120.57235903041538"><ele>123.0</ele><time>2026-03-29T08:43:31Z</time></trkpt><trkpt lat="15.168547523145083" lon="120.57230894556962"><ele>123.0</ele><time>2026-03-29T08:43:32Z</time></trkpt><trkpt lat="15.168392210765093" lon="120.57225975094303"><ele>123.0</ele><time>2026-03-29T08:43:33Z</time></trkpt><trkpt lat="15.168240637525981" lon="120.57221126221901"><ele>123.0</ele><time>2026-03-29T08:43:34Z</time></trkpt><trkpt lat="15.16809354249633" lon="120.57216329542936"><ele>123.0</ele><time>2026-03-29T08:43:35Z</time></trkpt><trkpt lat="15.16795118242198" lon="120.57211645826025"><ele>123.0</ele><time>2026-03-29T08:43:36Z</time></trkpt><trkpt lat="15.16781381231613" lon="120.57207136369813"><ele>123.0</ele><time>2026-03-29T08:43:37Z</time></trkpt><trkpt lat="15.16767980151855" lon="120.57202806110332"><ele>123.0</ele><time>2026-03-29T08:43:38Z</time></trkpt><trkpt lat="15.167553069538958" lon="120.5719875399504"><ele>123.0</ele><time>2026-03-29T08:43:39Z</time></trkpt><trkpt lat="15.16743371770467" lon="120.57194911748597"><ele>123.80000000000001</ele><time>2026-03-29T08:43:40Z</time></trkpt><trkpt lat="15.167323244855096" lon="120.57191159739202"><ele>124.60000000000001</ele><time>2026-03-29T08:43:41Z</time></trkpt><trkpt lat="15.167224146305758" lon="120.57187616424768"><ele>125.39999999999999</ele><time>2026-03-29T08:43:42Z</time></trkpt><trkpt lat="15.167137652627313" lon="120.57184275767561"><ele>126.19999999999999</ele><time>2026-03-29T08:43:43Z</time></trkpt><trkpt lat="15.167063076285006" lon="120.57181313176282"><ele>127.0</ele><time>2026-03-29T08:43:44Z</time></trkpt><trkpt lat="15.167002734985655" lon="120.57178821447906"><ele>127.00000000000001</ele><time>2026-03-29T08:43:45Z</time></trkpt><trkpt lat="15.166901852551234" lon="120.57175144466109"><ele>127.0</ele><time>2026-03-29T08:43:47Z</time></trkpt><trkpt lat="15.166823778918216" lon="120.57172604308872"><ele>127.0</ele><time>2026-03-29T08:43:49Z</time></trkpt><trkpt lat="15.166757446489274" lon="120.57170422794478"><ele>127.0</ele><time>2026-03-29T08:43:51Z</time></trkpt><trkpt lat="15.16669097256345" lon="120.57167640057243"><ele>127.00000000000001</ele><time>2026-03-29T08:43:53Z</time></trkpt><trkpt lat="15.166629211873898" lon="120.57165466164773"><ele>127.0</ele><time>2026-03-29T08:43:55Z</time></trkpt><trkpt lat="15.166631577737702" lon="120.57156584518077"><ele>127.0</ele><time>2026-03-29T08:43:56Z</time></trkpt><trkpt lat="15.16663800858188" lon="120.57143214711591"><ele>126.99999999999999</ele><time>2026-03-29T08:43:58Z</time></trkpt><trkpt lat="15.166648152296977" lon="120.57135122267673"><ele>126.99999999999999</ele><time>2026-03-29T08:43:59Z</time></trkpt><trkpt lat="15.16665871807927" lon="120.57126181574908"><ele>127.0</ele><time>2026-03-29T08:44:00Z</time></trkpt><trkpt lat="15.166672248921923" lon="120.57116414296803"><ele>127.0</ele><time>2026-03-29T08:44:01Z</time></trkpt><trkpt lat="15.166687930555218" lon="120.5710597392218"><ele>126.75</ele><time>2026-03-29T08:44:02Z</time></trkpt><trkpt lat="15.166704232014432" lon="120.57094858007201"><ele>126.5</ele><time>2026-03-29T08:44:03Z</time></trkpt><trkpt lat="15.166722166306931" lon="120.57083221807072"><ele>126.25</ele><time>2026-03-29T08:44:04Z</time></trkpt><trkpt lat="15.166741925126269" lon="120.57071099901272"><ele>126.0</ele><time>2026-03-29T08:44:05Z</time></trkpt><trkpt lat="15.16676225003007" lon="120.57058464246157"><ele>126.0</ele><time>2026-03-29T08:44:06Z</time></trkpt><trkpt lat="15.166782073244685" lon="120.57045355578121"><ele>126.0</ele><time>2026-03-29T08:44:07Z</time></trkpt><trkpt lat="15.166802822532958" lon="120.5703171716788"><ele>126.0</ele><time>2026-03-29T08:44:08Z</time></trkpt><trkpt lat="15.166823955615893" lon="120.57017584515351"><ele>126.0</ele><time>2026-03-29T08:44:09Z</time></trkpt><trkpt lat="15.166845134350883" lon="120.57003055630626"><ele>126.33333333333334</ele><time>2026-03-29T08:44:10Z</time></trkpt><trkpt lat="15.166868128500766" lon="120.5698798385742"><ele>126.66666666666667</ele><time>2026-03-29T08:44:11Z</time></trkpt><trkpt lat="15.16689257744652" lon="120.56972491337491"><ele>127.0</ele><time>2026-03-29T08:44:12Z</time></trkpt><trkpt lat="15.166917874514434" lon="120.56956549505136"><ele>127.0</ele><time>2026-03-29T08:44:13Z</time></trkpt><trkpt lat="15.16694281308113" lon="120.5694029244913"><ele>127.0</ele><time>2026-03-29T08:44:14Z</time></trkpt><trkpt lat="15.166967814939047" lon="120.56923592045017"><ele>127.0</ele><time>2026-03-29T08:44:15Z</time></trkpt><trkpt lat="15.166993362637713" lon="120.56906450799936"><ele>127.0</ele><time>2026-03-29T08:44:16Z</time></trkpt><trkpt lat="15.167019092168376" lon="120.56889112415476"><ele>127.0</ele><time>2026-03-29T08:44:17Z</time></trkpt><trkpt lat="15.16704563142735" lon="120.56871472422522"><ele>127.0</ele><time>2026-03-29T08:44:18Z</time></trkpt><trkpt lat="15.167072738193873" lon="120.56853551856085"><ele>127.66666666666667</ele><time>2026-03-29T08:44:19Z</time></trkpt><trkpt lat="15.167101529313802" lon="120.56835365776385"><ele>128.33333333333334</ele><time>2026-03-29T08:44:20Z</time></trkpt><trkpt lat="15.167130750952234" lon="120.56816959788155"><ele>129.0</ele><time>2026-03-29T08:44:21Z</time></trkpt><trkpt lat="15.167160144602573" lon="120.56798515352897"><ele>129.0</ele><time>2026-03-29T08:44:22Z</time></trkpt><trkpt lat="15.16718846217055" lon="120.56779821888338"><ele>129.0</ele><time>2026-03-29T08:44:23Z</time></trkpt><trkpt lat="15.167216806387286" lon="120.56761130048987"><ele>129.0</ele><time>2026-03-29T08:44:24Z</time></trkpt><trkpt lat="15.167245771027764" lon="120.56742647363187"><ele>129.0</ele><time>2026-03-29T08:44:25Z</time></trkpt><trkpt lat="15.167273776722158" lon="120.56724237542875"><ele>129.0</ele><time>2026-03-29T08:44:26Z</time></trkpt><trkpt lat="15.167300573321786" lon="120.56705837790328"><ele>129.0</ele><time>2026-03-29T08:44:27Z</time></trkpt><trkpt lat="15.16734530322399" lon="120.56687868696883"><ele>129.66666666666666</ele><time>2026-03-29T08:44:28Z</time></trkpt><trkpt lat="15.167373594627122" lon="120.56669581134412"><ele>130.33333333333331</ele><time>2026-03-29T08:44:29Z</time></trkpt><trkpt lat="15.167395190517745" lon="120.56651478697867"><ele>131.0</ele><time>2026-03-29T08:44:30Z</time></trkpt><trkpt lat="15.16741619977827" lon="120.5663345618714"><ele>131.33333333333331</ele><time>2026-03-29T08:44:31Z</time></trkpt><trkpt lat="15.16743371021598" lon="120.56615475838123"><ele>131.66666666666666</ele><time>2026-03-29T08:44:32Z</time></trkpt><trkpt lat="15.1674261788177" lon="120.56597439946349"><ele>132.0</ele><time>2026-03-29T08:44:33Z</time></trkpt><trkpt lat="15.167433368150535" lon="120.56579734461475"><ele>132.0</ele><time>2026-03-29T08:44:34Z</time></trkpt><trkpt lat="15.167435358481754" lon="120.56562331407939"><ele>132.0</ele><time>2026-03-29T08:44:35Z</time></trkpt><trkpt lat="15.167431749439931" lon="120.56545191291595"><ele>132.0</ele><time>2026-03-29T08:44:36Z</time></trkpt><trkpt lat="15.16742309927775" lon="120.56528441555857"><ele>132.33333333333334</ele><time>2026-03-29T08:44:37Z</time></trkpt><trkpt lat="15.167410043198702" lon="120.56512051778599"><ele>132.66666666666669</ele><time>2026-03-29T08:44:38Z</time></trkpt><trkpt lat="15.167395008254372" lon="120.56495967557123"><ele>133.0</ele><time>2026-03-29T08:44:39Z</time></trkpt><trkpt lat="15.167380320069164" lon="120.56480011617244"><ele>133.0</ele><time>2026-03-29T08:44:40Z</time></trkpt><trkpt lat="15.167364652631028" lon="120.56464152211714"><ele>133.0</ele><time>2026-03-29T08:44:41Z</time></trkpt><trkpt lat="15.167348236768987" lon="120.56448341185704"><ele>133.0</ele><time>2026-03-29T08:44:42Z</time></trkpt><trkpt lat="15.167330400933876" lon="120.56432557840813"><ele>133.0</ele><time>2026-03-29T08:44:43Z</time></trkpt><trkpt lat="15.167312298695132" lon="120.56416729187507"><ele>133.0</ele><time>2026-03-29T08:44:44Z</time></trkpt><trkpt lat="15.167294472069274" lon="120.56401001407083"><ele>133.0</ele><time>2026-03-29T08:44:45Z</time></trkpt><trkpt lat="15.167275694364317" lon="120.56385494544742"><ele>133.0</ele><time>2026-03-29T08:44:46Z</time></trkpt><trkpt lat="15.167255502545252" lon="120.56370285118896"><ele>133.0</ele><time>2026-03-29T08:44:47Z</time></trkpt><trkpt lat="15.16723386833304" lon="120.56355289632779"><ele>133.0</ele><time>2026-03-29T08:44:48Z</time></trkpt><trkpt lat="15.167211294168139" lon="120.56340570743761"><ele>133.0</ele><time>2026-03-29T08:44:49Z</time></trkpt><trkpt lat="15.167188827100436" lon="120.56326216067417"><ele>133.0</ele><time>2026-03-29T08:44:50Z</time></trkpt><trkpt lat="15.167167507188845" lon="120.5631193566563"><ele>133.0</ele><time>2026-03-29T08:44:51Z</time></trkpt><trkpt lat="15.167146948904474" lon="120.5629783515908"><ele>133.0</ele><time>2026-03-29T08:44:52Z</time></trkpt><trkpt lat="15.167127700365173" lon="120.56283874756652"><ele>133.0</ele><time>2026-03-29T08:44:53Z</time></trkpt><trkpt lat="15.16710935959289" lon="120.5626975494011"><ele>133.0</ele><time>2026-03-29T08:44:54Z</time></trkpt><trkpt lat="15.167093748060353" lon="120.56255561821722"><ele>133.0</ele><time>2026-03-29T08:44:55Z</time></trkpt><trkpt lat="15.167079476061607" lon="120.56241125901091"><ele>133.0</ele><time>2026-03-29T08:44:56Z</time></trkpt><trkpt lat="15.167064766275269" lon="120.56226528451498"><ele>133.0</ele><time>2026-03-29T08:44:57Z</time></trkpt><trkpt lat="15.167049929664499" lon="120.56211687551709"><ele>133.25</ele><time>2026-03-29T08:44:58Z</time></trkpt><trkpt lat="15.16703581801196" lon="120.56196568654069"><ele>133.5</ele><time>2026-03-29T08:44:59Z</time></trkpt><trkpt lat="15.167021635226835" lon="120.56181283303614"><ele>133.75</ele><time>2026-03-29T08:45:00Z</time></trkpt><trkpt lat="15.167006068939468" lon="120.56165927193383"><ele>134.0</ele><time>2026-03-29T08:45:01Z</time></trkpt><trkpt lat="15.166989768027282" lon="120.56150697651182"><ele>134.0</ele><time>2026-03-29T08:45:02Z</time></trkpt><trkpt lat="15.166973811439503" lon="120.56135714005758"><ele>134.0</ele><time>2026-03-29T08:45:03Z</time></trkpt><trkpt lat="15.166964246833635" lon="120.56119714148355"><ele>134.0</ele><time>2026-03-29T08:45:04Z</time></trkpt><trkpt lat="15.16696017288059" lon="120.56107158735026"><ele>134.0</ele><time>2026-03-29T08:45:05Z</time></trkpt><trkpt lat="15.166949898946601" lon="120.56094718838938"><ele>134.5</ele><time>2026-03-29T08:45:06Z</time></trkpt><trkpt lat="15.166936516865368" lon="120.5608226047069"><ele>135.0</ele><time>2026-03-29T08:45:07Z</time></trkpt><trkpt lat="15.166917119529941" lon="120.56070499905454"><ele>135.5</ele><time>2026-03-29T08:45:08Z</time></trkpt><trkpt lat="15.166895523882848" lon="120.56058948787305"><ele>136.0</ele><time>2026-03-29T08:45:09Z</time></trkpt><trkpt lat="15.166867964313015" lon="120.56047843041728"><ele>136.0</ele><time>2026-03-29T08:45:10Z</time></trkpt><trkpt lat="15.166835741713957" lon="120.56037351747938"><ele>136.0</ele><time>2026-03-29T08:45:11Z</time></trkpt><trkpt lat="15.16679950443379" lon="120.56027081721376"><ele>136.0</ele><time>2026-03-29T08:45:12Z</time></trkpt><trkpt lat="15.166757169232355" lon="120.56016888627919"><ele>136.0</ele><time>2026-03-29T08:45:13Z</time></trkpt><trkpt lat="15.166708312629424" lon="120.56006753957685"><ele>136.0</ele><time>2026-03-29T08:45:14Z</time></trkpt><trkpt lat="15.166658575272903" lon="120.55996475457573"><ele>135.8</ele><time>2026-03-29T08:45:15Z</time></trkpt><trkpt lat="15.16660751536377" lon="120.55986211313444"><ele>135.6</ele><time>2026-03-29T08:45:16Z</time></trkpt><trkpt lat="15.166557572208024" lon="120.55976249985333"><ele>135.4</ele><time>2026-03-29T08:45:17Z</time></trkpt><trkpt lat="15.166510741233067" lon="120.55967148178074"><ele>135.2</ele><time>2026-03-29T08:45:18Z</time></trkpt><trkpt lat="15.166469574995528" lon="120.55959000687567"><ele>135.0</ele><time>2026-03-29T08:45:19Z</time></trkpt><trkpt lat="15.166434412241184" lon="120.55952078467209"><ele>135.0</ele><time>2026-03-29T08:45:20Z</time></trkpt><trkpt lat="15.166404154142302" lon="120.55946087942961"><ele>135.0</ele><time>2026-03-29T08:45:21Z</time></trkpt><trkpt lat="15.16635497995942" lon="120.55936280584795"><ele>135.0</ele><time>2026-03-29T08:45:23Z</time></trkpt><trkpt lat="15.166295354272108" lon="120.55924759492386"><ele>135.0</ele><time>2026-03-29T08:45:25Z</time></trkpt><trkpt lat="15.166256217407508" lon="120.55917498340158"><ele>135.0</ele><time>2026-03-29T08:45:26Z</time></trkpt><trkpt lat="15.166211129636295" lon="120.55909222839787"><ele>135.0</ele><time>2026-03-29T08:45:27Z</time></trkpt><trkpt lat="15.166160289025466" lon="120.5590010684382"><ele>135.0</ele><time>2026-03-29T08:45:28Z</time></trkpt><trkpt lat="15.166119542534613" lon="120.55889361668379"><ele>135.0</ele><time>2026-03-29T08:45:29Z</time></trkpt><trkpt lat="15.166065446539921" lon="120.55878441839461"><ele>135.0</ele><time>2026-03-29T08:45:30Z</time></trkpt><trkpt lat="15.16600829940564" lon="120.5586685677479"><ele>135.0</ele><time>2026-03-29T08:45:31Z</time></trkpt><trkpt lat="15.165948235744933" lon="120.55854648116654"><ele>135.0</ele><time>2026-03-29T08:45:32Z</time></trkpt><trkpt lat="15.165885531075341" lon="120.55841902641603"><ele>135.0</ele><time>2026-03-29T08:45:33Z</time></trkpt><trkpt lat="15.165820466958317" lon="120.55828677580325"><ele>135.0</ele><time>2026-03-29T08:45:34Z</time></trkpt><trkpt lat="15.165752805338945" lon="120.55814924545403"><ele>135.33333333333334</ele><time>2026-03-29T08:45:35Z</time></trkpt><trkpt lat="15.165682837266164" lon="120.55800702696476"><ele>135.66666666666669</ele><time>2026-03-29T08:45:36Z</time></trkpt><trkpt lat="15.165610891880743" lon="120.55786078934717"><ele>136.0</ele><time>2026-03-29T08:45:37Z</time></trkpt><trkpt lat="15.165537210296755" lon="120.5577110227016"><ele>136.0</ele><time>2026-03-29T08:45:38Z</time></trkpt><trkpt lat="15.165462172461428" lon="120.55755849931064"><ele>136.0</ele><time>2026-03-29T08:45:39Z</time></trkpt><trkpt lat="15.16538676750409" lon="120.55740522970223"><ele>136.0</ele><time>2026-03-29T08:45:40Z</time></trkpt><trkpt lat="15.165310761154606" lon="120.55725073769048"><ele>136.0</ele><time>2026-03-29T08:45:41Z</time></trkpt><trkpt lat="15.165234355715892" lon="120.55709543448359"><ele>136.0</ele><time>2026-03-29T08:45:42Z</time></trkpt><trkpt lat="15.165157680719684" lon="120.55693957922068"><ele>136.0</ele><time>2026-03-29T08:45:43Z</time></trkpt><trkpt lat="15.165080535570997" lon="120.55678466794126"><ele>136.0</ele><time>2026-03-29T08:45:44Z</time></trkpt><trkpt lat="15.16500372913214" lon="120.55663204482747"><ele>136.0</ele><time>2026-03-29T08:45:45Z</time></trkpt><trkpt lat="15.164927251283087" lon="120.55648092606442"><ele>136.0</ele><time>2026-03-29T08:45:46Z</time></trkpt><trkpt lat="15.164851568714665" lon="120.55633137876163"><ele>137.66666666666669</ele><time>2026-03-29T08:45:47Z</time></trkpt><trkpt lat="15.164775848981309" lon="120.55618174684136"><ele>139.33333333333334</ele><time>2026-03-29T08:45:48Z</time></trkpt><trkpt lat="15.164700401852595" lon="120.55603219291382"><ele>141.0</ele><time>2026-03-29T08:45:49Z</time></trkpt><trkpt lat="15.164626488940415" lon="120.55588568016752"><ele>141.0</ele><time>2026-03-29T08:45:50Z</time></trkpt><trkpt lat="15.164553908050168" lon="120.55574180779817"><ele>141.0</ele><time>2026-03-29T08:45:51Z</time></trkpt><trkpt lat="15.164482501279918" lon="120.55560026281093"><ele>141.0</ele><time>2026-03-29T08:45:52Z</time></trkpt><trkpt lat="15.164412537924411" lon="120.55546157901131"><ele>141.25</ele><time>2026-03-29T08:45:53Z</time></trkpt><trkpt lat="15.164344844730733" lon="120.55532525970112"><ele>141.5</ele><time>2026-03-29T08:45:54Z</time></trkpt><trkpt lat="15.164277917189944" lon="120.55518936783027"><ele>141.75</ele><time>2026-03-29T08:45:55Z</time></trkpt><trkpt lat="15.164211113073693" lon="120.55505372651461"><ele>142.0</ele><time>2026-03-29T08:45:56Z</time></trkpt><trkpt lat="15.164144093803463" lon="120.55491764837423"><ele>142.0</ele><time>2026-03-29T08:45:57Z</time></trkpt><trkpt lat="15.164078865182203" lon="120.55478116821288"><ele>142.0</ele><time>2026-03-29T08:45:58Z</time></trkpt><trkpt lat="15.164014501518274" lon="120.55464565168819"><ele>142.0</ele><time>2026-03-29T08:45:59Z</time></trkpt><trkpt lat="15.163959084698543" lon="120.55450896462231"><ele>142.0</ele><time>2026-03-29T08:46:00Z</time></trkpt><trkpt lat="15.163904232616488" lon="120.55437261802352"><ele>142.5</ele><time>2026-03-29T08:46:01Z</time></trkpt><trkpt lat="15.163853264815302" lon="120.55423773139857"><ele>143.0</ele><time>2026-03-29T08:46:02Z</time></trkpt><trkpt lat="15.163804175703058" lon="120.55410149597373"><ele>143.5</ele><time>2026-03-29T08:46:03Z</time></trkpt><trkpt lat="15.163758573819246" lon="120.5539657397448"><ele>144.0</ele><time>2026-03-29T08:46:04Z</time></trkpt><trkpt lat="15.163716532188989" lon="120.55383107078968"><ele>143.75</ele><time>2026-03-29T08:46:05Z</time></trkpt><trkpt lat="15.163681571836792" lon="120.55369423026133"><ele>143.5</ele><time>2026-03-29T08:46:06Z</time></trkpt><trkpt lat="15.163650126550404" lon="120.55356028569588"><ele>143.25</ele><time>2026-03-29T08:46:07Z</time></trkpt><trkpt lat="15.16362458579509" lon="120.55343208037466"><ele>143.0</ele><time>2026-03-29T08:46:08Z</time></trkpt><trkpt lat="15.163602797404698" lon="120.55330487692157"><ele>143.0</ele><time>2026-03-29T08:46:09Z</time></trkpt><trkpt lat="15.163582213713129" lon="120.55318725807628"><ele>143.0</ele><time>2026-03-29T08:46:10Z</time></trkpt><trkpt lat="15.163566469216223" lon="120.55307421608032"><ele>143.0</ele><time>2026-03-29T08:46:11Z</time></trkpt><trkpt lat="15.163550247381764" lon="120.55297375013299"><ele>143.0</ele><time>2026-03-29T08:46:12Z</time></trkpt><trkpt lat="15.163544099629602" lon="120.5528779403434"><ele>143.0</ele><time>2026-03-29T08:46:13Z</time></trkpt><trkpt lat="15.163538462856962" lon="120.55279009398225"><ele>143.33333333333331</ele><time>2026-03-29T08:46:14Z</time></trkpt><trkpt lat="15.163534503277324" lon="120.55271396797048"><ele>143.66666666666666</ele><time>2026-03-29T08:46:15Z</time></trkpt><trkpt lat="15.163532984120893" lon="120.5526450215219"><ele>144.0</ele><time>2026-03-29T08:46:16Z</time></trkpt><trkpt lat="15.163531728662957" lon="120.55253168064733"><ele>144.33333333333334</ele><time>2026-03-29T08:46:18Z</time></trkpt><trkpt lat="15.163533666280985" lon="120.55245827920446"><ele>144.66666666666669</ele><time>2026-03-29T08:46:20Z</time></trkpt><trkpt lat="15.16353578298926" lon="120.55237809345736"><ele>145.0</ele><time>2026-03-29T08:46:24Z</time></trkpt><trkpt lat="15.163538638746973" lon="120.55230791600131"><ele>145.0</ele><time>2026-03-29T08:46:27Z</time></trkpt><trkpt lat="15.16354160178837" lon="120.55224152438731"><ele>145.0</ele><time>2026-03-29T08:46:30Z</time></trkpt><trkpt lat="15.163544181097087" lon="120.55216680407308"><ele>145.0</ele><time>2026-03-29T08:46:34Z</time></trkpt><trkpt lat="15.163553886813517" lon="120.55208871041299"><ele>145.0</ele><time>2026-03-29T08:46:38Z</time></trkpt><trkpt lat="15.163561863770333" lon="120.55202191090505"><ele>145.0</ele><time>2026-03-29T08:46:42Z</time></trkpt><trkpt lat="15.16356942894547" lon="120.55195514209711"><ele>145.0</ele><time>2026-03-29T08:46:49Z</time></trkpt><trkpt lat="15.163580749259504" lon="120.55185923847723"><ele>145.0</ele><time>2026-03-29T08:48:17Z</time></trkpt><trkpt lat="15.16358901196297" lon="120.55179122188574"><ele>145.66666666666669</ele><time>2026-03-29T08:48:19Z</time></trkpt><trkpt lat="15.163600635129965" lon="120.55170280500559"><ele>146.33333333333334</ele><time>2026-03-29T08:48:21Z</time></trkpt><trkpt lat="15.163613119405769" lon="120.5516282060003"><ele>147.0</ele><time>2026-03-29T08:48:23Z</time></trkpt><trkpt lat="15.16362430630917" lon="120.5515613593578"><ele>147.66666666666666</ele><time>2026-03-29T08:48:25Z</time></trkpt><trkpt lat="15.16364400935519" lon="120.55147392333826"><ele>148.33333333333331</ele><time>2026-03-29T08:48:28Z</time></trkpt><trkpt lat="15.163667291637298" lon="120.55137902472852"><ele>149.0</ele><time>2026-03-29T08:50:15Z</time></trkpt><trkpt lat="15.163693560771247" lon="120.5512837568417"><ele>149.33333333333331</ele><time>2026-03-29T08:50:19Z</time></trkpt><trkpt lat="15.163722276053335" lon="120.55119335638493"><ele>149.66666666666666</ele><time>2026-03-29T08:50:21Z</time></trkpt><trkpt lat="15.163751919692988" lon="120.55111328939306"><ele>150.0</ele><time>2026-03-29T08:50:23Z</time></trkpt><trkpt lat="15.16377586199788" lon="120.55104862160697"><ele>150.33333333333334</ele><time>2026-03-29T08:50:25Z</time></trkpt><trkpt lat="15.163802979021293" lon="120.55097537894638"><ele>150.66666666666669</ele><time>2026-03-29T08:50:27Z</time></trkpt><trkpt lat="15.163826577929104" lon="120.55091163868578"><ele>151.0</ele><time>2026-03-29T08:50:33Z</time></trkpt><trkpt lat="15.163852845312755" lon="120.5508438576146"><ele>151.0</ele><time>2026-03-29T08:52:21Z</time></trkpt><trkpt lat="15.163890602597755" lon="120.55075137347986"><ele>151.0</ele><time>2026-03-29T08:52:23Z</time></trkpt><trkpt lat="15.163921277806365" lon="120.55067949067754"><ele>151.0</ele><time>2026-03-29T08:52:25Z</time></trkpt><trkpt lat="15.163745853015762" lon="120.55059059139178"><ele>151.0</ele><time>2026-03-29T08:52:26Z</time></trkpt><trkpt lat="15.16365845691904" lon="120.55056685295042"><ele>151.0</ele><time>2026-03-29T08:52:28Z</time></trkpt><trkpt lat="15.163539051551433" lon="120.55056152516981"><ele>151.0</ele><time>2026-03-29T08:52:30Z</time></trkpt><trkpt lat="15.163463921655422" lon="120.55055664787147"><ele>151.0</ele><time>2026-03-29T08:52:31Z</time></trkpt><trkpt lat="15.163376132464881" lon="120.55055144614141"><ele>151.0</ele><time>2026-03-29T08:52:32Z</time></trkpt><trkpt lat="15.163278772954282" lon="120.55054487250317"><ele>151.0</ele><time>2026-03-29T08:52:33Z</time></trkpt><trkpt lat="15.163171773610912" lon="120.5505372732514"><ele>150.5</ele><time>2026-03-29T08:52:34Z</time></trkpt><trkpt lat="15.163058072294833" lon="120.55052921627993"><ele>150.0</ele><time>2026-03-29T08:52:35Z</time></trkpt><trkpt lat="15.162938665116158" lon="120.55052027945926"><ele>149.5</ele><time>2026-03-29T08:52:36Z</time></trkpt><trkpt lat="15.162813992140782" lon="120.5505102431495"><ele>149.0</ele><time>2026-03-29T08:52:37Z</time></trkpt><trkpt lat="15.162688043588952" lon="120.550500553396"><ele>149.0</ele><time>2026-03-29T08:52:38Z</time></trkpt><trkpt lat="15.162564138012575" lon="120.55049132803693"><ele>149.0</ele><time>2026-03-29T08:52:39Z</time></trkpt><trkpt lat="15.162448222917797" lon="120.55048147788852"><ele>149.0</ele><time>2026-03-29T08:52:40Z</time></trkpt><trkpt lat="15.16234204373939" lon="120.55047305868008"><ele>149.0</ele><time>2026-03-29T08:52:41Z</time></trkpt><trkpt lat="15.162246371630973" lon="120.5504740764785"><ele>149.0</ele><time>2026-03-29T08:52:42Z</time></trkpt><trkpt lat="15.162155662323734" lon="120.5504899472705"><ele>149.33333333333331</ele><time>2026-03-29T08:52:43Z</time></trkpt><trkpt lat="15.162071392177364" lon="120.55052199241139"><ele>149.66666666666666</ele><time>2026-03-29T08:52:44Z</time></trkpt><trkpt lat="15.161995094074983" lon="120.55056536778454"><ele>150.0</ele><time>2026-03-29T08:52:45Z</time></trkpt><trkpt lat="15.161928330831344" lon="120.55061632590309"><ele>150.33333333333334</ele><time>2026-03-29T08:52:46Z</time></trkpt><trkpt lat="15.161874116351866" lon="120.55067192398018"><ele>150.66666666666669</ele><time>2026-03-29T08:52:47Z</time></trkpt><trkpt lat="15.161831423202614" lon="120.55073030550462"><ele>151.0</ele><time>2026-03-29T08:52:48Z</time></trkpt><trkpt lat="15.161799954023934" lon="120.55079148329988"><ele>151.0</ele><time>2026-03-29T08:52:49Z</time></trkpt><trkpt lat="15.16177335232518" lon="120.55091102931006"><ele>151.0</ele><time>2026-03-29T08:52:51Z</time></trkpt><trkpt lat="15.161781203343804" lon="120.5510213448592"><ele>151.0</ele><time>2026-03-29T08:52:53Z</time></trkpt><trkpt lat="15.161782871669539" lon="120.55112564437114"><ele>151.0</ele><time>2026-03-29T08:52:55Z</time></trkpt><trkpt lat="15.161782617792667" lon="120.55122614020897"><ele>151.0</ele><time>2026-03-29T08:52:57Z</time></trkpt><trkpt lat="15.161781094439608" lon="120.55131694739782"><ele>151.2</ele><time>2026-03-29T08:52:59Z</time></trkpt><trkpt lat="15.161789617059133" lon="120.5514004601926"><ele>151.39999999999998</ele><time>2026-03-29T08:53:01Z</time></trkpt><trkpt lat="15.161805858479644" lon="120.55147066001356"><ele>151.6</ele><time>2026-03-29T08:53:04Z</time></trkpt><trkpt lat="15.161859347266097" lon="120.5515642812338"><ele>151.79999999999998</ele><time>2026-03-29T08:53:08Z</time></trkpt><trkpt lat="15.161945071812871" lon="120.55158217439923"><ele>152.0</ele><time>2026-03-29T08:53:10Z</time></trkpt><trkpt lat="15.162053756004683" lon="120.55161703559426"><ele>152.0</ele><time>2026-03-29T08:53:12Z</time></trkpt><trkpt lat="15.162114754642571" lon="120.55163330540297"><ele>152.0</ele><time>2026-03-29T08:53:13Z</time></trkpt><trkpt lat="15.162177271569664" lon="120.55164941009117"><ele>152.0</ele><time>2026-03-29T08:53:14Z</time></trkpt><trkpt lat="15.16223889660359" lon="120.551667034115"><ele>152.0</ele><time>2026-03-29T08:53:15Z</time></trkpt><trkpt lat="15.162357933343884" lon="120.55170372829043"><ele>152.0</ele><time>2026-03-29T08:53:17Z</time></trkpt><trkpt lat="15.16245318145684" lon="120.55175462365919"><ele>152.0</ele><time>2026-03-29T08:53:19Z</time></trkpt><trkpt lat="15.162508486173655" lon="120.55185133680448"><ele>151.0</ele><time>2026-03-29T08:53:21Z</time></trkpt><trkpt lat="15.162518368818825" lon="120.55198478780305"><ele>150.0</ele><time>2026-03-29T08:53:23Z</time></trkpt><trkpt lat="15.162516423093113" lon="120.55205585749033"><ele>149.0</ele><time>2026-03-29T08:53:24Z</time></trkpt><trkpt lat="15.16251460358778" lon="120.55212544537265"><ele>148.0</ele><time>2026-03-29T08:53:25Z</time></trkpt><trkpt lat="15.162512159767516" lon="120.55219765029489"><ele>147.0</ele><time>2026-03-29T08:53:26Z</time></trkpt><trkpt lat="15.162506425388381" lon="120.55226939356739"><ele>146.0</ele><time>2026-03-29T08:53:27Z</time></trkpt><trkpt lat="15.162500497047748" lon="120.55233978637214"><ele>145.83333333333331</ele><time>2026-03-29T08:53:28Z</time></trkpt><trkpt lat="15.16249323903771" lon="120.55240844640183"><ele>145.66666666666666</ele><time>2026-03-29T08:53:29Z</time></trkpt><trkpt lat="15.162480460367036" lon="120.55253796419315"><ele>145.5</ele><time>2026-03-29T08:53:31Z</time></trkpt><trkpt lat="15.162475644035114" lon="120.5526046337026"><ele>145.33333333333334</ele><time>2026-03-29T08:53:32Z</time></trkpt><trkpt lat="15.162471569784678" lon="120.55267565367022"><ele>145.16666666666669</ele><time>2026-03-29T08:53:33Z</time></trkpt><trkpt lat="15.162469610467653" lon="120.55275253539561"><ele>145.0</ele><time>2026-03-29T08:53:34Z</time></trkpt><trkpt lat="15.162469617996768" lon="120.55283511609892"><ele>144.66666666666669</ele><time>2026-03-29T08:53:35Z</time></trkpt><trkpt lat="15.162472658083079" lon="120.55292283370436"><ele>144.33333333333334</ele><time>2026-03-29T08:53:36Z</time></trkpt><trkpt lat="15.162477250064432" lon="120.5530151294557"><ele>144.0</ele><time>2026-03-29T08:53:37Z</time></trkpt><trkpt lat="15.162483524740917" lon="120.55310781628056"><ele>143.66666666666666</ele><time>2026-03-29T08:53:38Z</time></trkpt><trkpt lat="15.162491206161844" lon="120.5532000853191"><ele>143.33333333333331</ele><time>2026-03-29T08:53:39Z</time></trkpt><trkpt lat="15.162499924115526" lon="120.55329158708813"><ele>143.0</ele><time>2026-03-29T08:53:40Z</time></trkpt><trkpt lat="15.162511121145178" lon="120.55338585756775"><ele>143.0</ele><time>2026-03-29T08:53:41Z</time></trkpt><trkpt lat="15.162524152237397" lon="120.55348014066354"><ele>143.0</ele><time>2026-03-29T08:53:42Z</time></trkpt><trkpt lat="15.162539641278679" lon="120.55357381609419"><ele>143.0</ele><time>2026-03-29T08:53:43Z</time></trkpt><trkpt lat="15.16256078133407" lon="120.55366714998142"><ele>143.0</ele><time>2026-03-29T08:53:44Z</time></trkpt><trkpt lat="15.162585498047394" lon="120.55376055979451"><ele>143.0</ele><time>2026-03-29T08:53:45Z</time></trkpt><trkpt lat="15.162612405582006" lon="120.553851432119"><ele>143.0</ele><time>2026-03-29T08:53:46Z</time></trkpt><trkpt lat="15.162642362607574" lon="120.5539377843852"><ele>143.0</ele><time>2026-03-29T08:53:47Z</time></trkpt><trkpt lat="15.162673439935983" lon="120.55402110248613"><ele>143.0</ele><time>2026-03-29T08:53:48Z</time></trkpt><trkpt lat="15.162706437505575" lon="120.55410198586978"><ele>143.0</ele><time>2026-03-29T08:53:49Z</time></trkpt><trkpt lat="15.162740489617008" lon="120.55418059007248"><ele>143.0</ele><time>2026-03-29T08:53:50Z</time></trkpt><trkpt lat="15.16277512181964" lon="120.55425507582072"><ele>143.0</ele><time>2026-03-29T08:53:51Z</time></trkpt><trkpt lat="15.16281303669577" lon="120.55433101774383"><ele>143.0</ele><time>2026-03-29T08:53:52Z</time></trkpt><trkpt lat="15.162849899898488" lon="120.55440655223244"><ele>143.0</ele><time>2026-03-29T08:53:53Z</time></trkpt><trkpt lat="15.162884884360404" lon="120.55447897772032"><ele>143.0</ele><time>2026-03-29T08:53:54Z</time></trkpt><trkpt lat="15.16291548547071" lon="120.55454756769684"><ele>143.0</ele><time>2026-03-29T08:53:55Z</time></trkpt><trkpt lat="15.162938283149023" lon="120.55461095450603"><ele>143.0</ele><time>2026-03-29T08:53:56Z</time></trkpt><trkpt lat="15.16295130235742" lon="120.55471048270991"><ele>143.0</ele><time>2026-03-29T08:53:58Z</time></trkpt><trkpt lat="15.162896075443854" lon="120.5547885698664"><ele>142.83333333333331</ele><time>2026-03-29T08:54:00Z</time></trkpt><trkpt lat="15.162792884472308" lon="120.55485225231396"><ele>142.66666666666666</ele><time>2026-03-29T08:54:02Z</time></trkpt><trkpt lat="15.162731282022522" lon="120.55488625091051"><ele>142.5</ele><time>2026-03-29T08:54:03Z</time></trkpt><trkpt lat="15.162663448933687" lon="120.55492370104764"><ele>142.33333333333334</ele><time>2026-03-29T08:54:04Z</time></trkpt><trkpt lat="15.162590249195267" lon="120.55496376543395"><ele>142.16666666666669</ele><time>2026-03-29T08:54:05Z</time></trkpt><trkpt lat="15.162512684576544" lon="120.55500640428332"><ele>142.0</ele><time>2026-03-29T08:54:06Z</time></trkpt><trkpt lat="15.16243361058696" lon="120.55504900050425"><ele>142.0</ele><time>2026-03-29T08:54:07Z</time></trkpt><trkpt lat="15.162354491441963" lon="120.55509082367688"><ele>142.0</ele><time>2026-03-29T08:54:08Z</time></trkpt><trkpt lat="15.162275933761695" lon="120.55513200688239"><ele>142.0</ele><time>2026-03-29T08:54:09Z</time></trkpt><trkpt lat="15.162198523060184" lon="120.55517151382776"><ele>142.0</ele><time>2026-03-29T08:54:10Z</time></trkpt><trkpt lat="15.162122285619747" lon="120.55521174266275"><ele>142.0</ele><time>2026-03-29T08:54:11Z</time></trkpt><trkpt lat="15.16204696703115" lon="120.55525176294337"><ele>142.0</ele><time>2026-03-29T08:54:12Z</time></trkpt><trkpt lat="15.161972761133487" lon="120.55529125584424"><ele>142.0</ele><time>2026-03-29T08:54:13Z</time></trkpt><trkpt lat="15.161901824477276" lon="120.5553286067791"><ele>142.0</ele><time>2026-03-29T08:54:14Z</time></trkpt><trkpt lat="15.161833967850821" lon="120.55536014584912"><ele>142.0</ele><time>2026-03-29T08:54:15Z</time></trkpt><trkpt lat="15.161767680470241" lon="120.55538958977095"><ele>142.0</ele><time>2026-03-29T08:54:16Z</time></trkpt><trkpt lat="15.16170416097762" lon="120.55542230556293"><ele>142.0</ele><time>2026-03-29T08:54:17Z</time></trkpt><trkpt lat="15.161640503853802" lon="120.5554601598065"><ele>142.0</ele><time>2026-03-29T08:54:18Z</time></trkpt><trkpt lat="15.161575176507071" lon="120.555499193747"><ele>142.0</ele><time>2026-03-29T08:54:19Z</time></trkpt><trkpt lat="15.161510737314309" lon="120.55553619998472"><ele>141.5</ele><time>2026-03-29T08:54:20Z</time></trkpt><trkpt lat="15.16145293602485" lon="120.55556942579884"><ele>141.0</ele><time>2026-03-29T08:54:21Z</time></trkpt><trkpt lat="15.161396751092342" lon="120.55560182521658"><ele>140.5</ele><time>2026-03-29T08:54:22Z</time></trkpt><trkpt lat="15.1613417572967" lon="120.55563415199873"><ele>140.0</ele><time>2026-03-29T08:54:23Z</time></trkpt><trkpt lat="15.161233948284368" lon="120.55569598280319"><ele>139.5</ele><time>2026-03-29T08:54:25Z</time></trkpt><trkpt lat="15.161123260603011" lon="120.55575546887438"><ele>139.0</ele><time>2026-03-29T08:54:27Z</time></trkpt><trkpt lat="15.161062974255469" lon="120.55578762996215"><ele>139.0</ele><time>2026-03-29T08:54:28Z</time></trkpt><trkpt lat="15.161001653988105" lon="120.55582099114574"><ele>139.0</ele><time>2026-03-29T08:54:29Z</time></trkpt><trkpt lat="15.160933688782837" lon="120.55583792282158"><ele>139.0</ele><time>2026-03-29T08:54:30Z</time></trkpt><trkpt lat="15.160871001891268" lon="120.55587104760384"><ele>139.0</ele><time>2026-03-29T08:54:31Z</time></trkpt><trkpt lat="15.16080422998062" lon="120.55590633098085"><ele>139.0</ele><time>2026-03-29T08:54:32Z</time></trkpt><trkpt lat="15.160744547730381" lon="120.55595703738973"><ele>139.0</ele><time>2026-03-29T08:54:33Z</time></trkpt><trkpt lat="15.16067665587477" lon="120.55599249898698"><ele>139.0</ele><time>2026-03-29T08:54:34Z</time></trkpt><trkpt lat="15.160609110964147" lon="120.55602752252183"><ele>139.0</ele><time>2026-03-29T08:54:35Z</time></trkpt><trkpt lat="15.160542041787009" lon="120.5560617213715"><ele>139.0</ele><time>2026-03-29T08:54:36Z</time></trkpt><trkpt lat="15.160475183940829" lon="120.55609658208488"><ele>139.0</ele><time>2026-03-29T08:54:37Z</time></trkpt><trkpt lat="15.160408415619962" lon="120.55613335310127"><ele>139.0</ele><time>2026-03-29T08:54:38Z</time></trkpt><trkpt lat="15.160335276240607" lon="120.55615413384027"><ele>139.0</ele><time>2026-03-29T08:54:39Z</time></trkpt><trkpt lat="15.160269045155905" lon="120.55618913143225"><ele>139.0</ele><time>2026-03-29T08:54:40Z</time></trkpt><trkpt lat="15.160201934082364" lon="120.55622459402636"><ele>138.83333333333334</ele><time>2026-03-29T08:54:41Z</time></trkpt><trkpt lat="15.160132907203634" lon="120.55626167537352"><ele>138.66666666666669</ele><time>2026-03-29T08:54:42Z</time></trkpt><trkpt lat="15.160063733863593" lon="120.55629910920244"><ele>138.5</ele><time>2026-03-29T08:54:43Z</time></trkpt><trkpt lat="15.159992102198222" lon="120.55633787337926"><ele>138.33333333333334</ele><time>2026-03-29T08:54:44Z</time></trkpt><trkpt lat="15.159917247940662" lon="120.55637838149349"><ele>138.16666666666666</ele><time>2026-03-29T08:54:45Z</time></trkpt><trkpt lat="15.159843494967522" lon="120.55641829363303"><ele>138.0</ele><time>2026-03-29T08:54:46Z</time></trkpt><trkpt lat="15.15978168662811" lon="120.5564705579479"><ele>138.0</ele><time>2026-03-29T08:54:47Z</time></trkpt><trkpt lat="15.159712200161264" lon="120.5565064218341"><ele>138.0</ele><time>2026-03-29T08:54:48Z</time></trkpt><trkpt lat="15.159640499801366" lon="120.55654592146935"><ele>138.0</ele><time>2026-03-29T08:54:49Z</time></trkpt><trkpt lat="15.159568863858524" lon="120.55658584328044"><ele>138.0</ele><time>2026-03-29T08:54:50Z</time></trkpt><trkpt lat="15.159498157017497" lon="120.55662772548081"><ele>138.0</ele><time>2026-03-29T08:54:51Z</time></trkpt><trkpt lat="15.15942774242142" lon="120.55667150937461"><ele>138.0</ele><time>2026-03-29T08:54:52Z</time></trkpt><trkpt lat="15.159358358805035" lon="120.55671717498491"><ele>138.0</ele><time>2026-03-29T08:54:53Z</time></trkpt><trkpt lat="15.159293580483597" lon="120.55676590517045"><ele>138.0</ele><time>2026-03-29T08:54:54Z</time></trkpt><trkpt lat="15.159232481083322" lon="120.55681902179657"><ele>138.0</ele><time>2026-03-29T08:54:55Z</time></trkpt><trkpt lat="15.159172052879228" lon="120.55687613098875"><ele>138.0</ele><time>2026-03-29T08:54:56Z</time></trkpt><trkpt lat="15.159115310635292" lon="120.55693581081148"><ele>138.0</ele><time>2026-03-29T08:54:57Z</time></trkpt><trkpt lat="15.159063464684008" lon="120.55699495240371"><ele>138.0</ele><time>2026-03-29T08:54:58Z</time></trkpt><trkpt lat="15.159002599571018" lon="120.55704092829676"><ele>138.33333333333334</ele><time>2026-03-29T08:54:59Z</time></trkpt><trkpt lat="15.158954233393631" lon="120.55709729225919"><ele>138.66666666666666</ele><time>2026-03-29T08:55:00Z</time></trkpt><trkpt lat="15.1589074938164" lon="120.55716107216446"><ele>139.0</ele><time>2026-03-29T08:55:01Z</time></trkpt><trkpt lat="15.158864856453901" lon="120.55722774145691"><ele>139.33333333333331</ele><time>2026-03-29T08:55:02Z</time></trkpt><trkpt lat="15.158821920498372" lon="120.5572983016497"><ele>139.66666666666666</ele><time>2026-03-29T08:55:03Z</time></trkpt><trkpt lat="15.158776453615626" lon="120.55737599822535"><ele>140.0</ele><time>2026-03-29T08:55:04Z</time></trkpt><trkpt lat="15.15874011973872" lon="120.5574559828658"><ele>140.0</ele><time>2026-03-29T08:55:05Z</time></trkpt><trkpt lat="15.15870359107847" lon="120.55753639640733"><ele>140.0</ele><time>2026-03-29T08:55:06Z</time></trkpt><trkpt lat="15.158677035073197" lon="120.55762859643578"><ele>140.0</ele><time>2026-03-29T08:55:07Z</time></trkpt><trkpt lat="15.158651122082384" lon="120.55771353095089"><ele>140.0</ele><time>2026-03-29T08:55:08Z</time></trkpt><trkpt lat="15.158624063164307" lon="120.55779745551655"><ele>140.0</ele><time>2026-03-29T08:55:09Z</time></trkpt><trkpt lat="15.158597028489046" lon="120.55788140300228"><ele>140.0</ele><time>2026-03-29T08:55:10Z</time></trkpt><trkpt lat="15.15857055294624" lon="120.55796369285555"><ele>139.66666666666666</ele><time>2026-03-29T08:55:11Z</time></trkpt><trkpt lat="15.158543979376383" lon="120.55804628739068"><ele>139.33333333333331</ele><time>2026-03-29T08:55:12Z</time></trkpt><trkpt lat="15.158516903987904" lon="120.55813044165292"><ele>139.0</ele><time>2026-03-29T08:55:13Z</time></trkpt><trkpt lat="15.158489510703431" lon="120.5582155839824"><ele>138.66666666666666</ele><time>2026-03-29T08:55:14Z</time></trkpt><trkpt lat="15.158461985233293" lon="120.55830128109467"><ele>138.33333333333334</ele><time>2026-03-29T08:55:15Z</time></trkpt><trkpt lat="15.158434792243682" lon="120.55838639045655"><ele>138.0</ele><time>2026-03-29T08:55:16Z</time></trkpt><trkpt lat="15.15840811541464" lon="120.55846988432623"><ele>138.0</ele><time>2026-03-29T08:55:17Z</time></trkpt><trkpt lat="15.158383236645754" lon="120.55854775058566"><ele>138.0</ele><time>2026-03-29T08:55:18Z</time></trkpt><trkpt lat="15.158361193228927" lon="120.55861674265836"><ele>138.0</ele><time>2026-03-29T08:55:19Z</time></trkpt><trkpt lat="15.158328334423798" lon="120.55872849294875"><ele>138.0</ele><time>2026-03-29T08:55:21Z</time></trkpt><trkpt lat="15.158315215402435" lon="120.55883407087312"><ele>138.0</ele><time>2026-03-29T08:55:23Z</time></trkpt><trkpt lat="15.158283168546488" lon="120.55893743641006"><ele>137.66666666666666</ele><time>2026-03-29T08:55:25Z</time></trkpt><trkpt lat="15.158244494390487" lon="120.55906348501122"><ele>137.33333333333334</ele><time>2026-03-29T08:55:27Z</time></trkpt><trkpt lat="15.158222034315756" lon="120.55913421736645"><ele>137.0</ele><time>2026-03-29T08:55:28Z</time></trkpt><trkpt lat="15.158197825616222" lon="120.55920688722692"><ele>136.66666666666669</ele><time>2026-03-29T08:55:29Z</time></trkpt><trkpt lat="15.158171208682251" lon="120.55928288043839"><ele>136.33333333333334</ele><time>2026-03-29T08:55:30Z</time></trkpt><trkpt lat="15.158143144572005" lon="120.55935933515916"><ele>136.0</ele><time>2026-03-29T08:55:31Z</time></trkpt><trkpt lat="15.158114186004598" lon="120.55943537487873"><ele>135.16666666666669</ele><time>2026-03-29T08:55:32Z</time></trkpt><trkpt lat="15.158079380258954" lon="120.55951046702567"><ele>134.33333333333334</ele><time>2026-03-29T08:55:33Z</time></trkpt><trkpt lat="15.15803191116642" lon="120.55958119265071"><ele>133.5</ele><time>2026-03-29T08:55:34Z</time></trkpt><trkpt lat="15.157970489343404" lon="120.55964562662056"><ele>132.66666666666666</ele><time>2026-03-29T08:55:35Z</time></trkpt><trkpt lat="15.157898624633235" lon="120.55969602308915"><ele>131.83333333333331</ele><time>2026-03-29T08:55:36Z</time></trkpt><trkpt lat="15.15781834886797" lon="120.55973316366192"><ele>131.0</ele><time>2026-03-29T08:55:37Z</time></trkpt><trkpt lat="15.157733194899008" lon="120.55975905712377"><ele>131.0</ele><time>2026-03-29T08:55:38Z</time></trkpt><trkpt lat="15.157642545603457" lon="120.5597795310775"><ele>131.0</ele><time>2026-03-29T08:55:39Z</time></trkpt><trkpt lat="15.157546903844917" lon="120.55979764036394"><ele>131.0</ele><time>2026-03-29T08:55:40Z</time></trkpt><trkpt lat="15.157448483164515" lon="120.55981749036265"><ele>131.0</ele><time>2026-03-29T08:55:41Z</time></trkpt><trkpt lat="15.157346775931275" lon="120.55983646610404"><ele>131.0</ele><time>2026-03-29T08:55:42Z</time></trkpt><trkpt lat="15.15724258042325" lon="120.5598556554899"><ele>130.8</ele><time>2026-03-29T08:55:43Z</time></trkpt><trkpt lat="15.15713610697707" lon="120.55987503768654"><ele>130.6</ele><time>2026-03-29T08:55:44Z</time></trkpt><trkpt lat="15.157031572252532" lon="120.55989385747715"><ele>130.4</ele><time>2026-03-29T08:55:45Z</time></trkpt><trkpt lat="15.156926634506174" lon="120.55991368289905"><ele>130.2</ele><time>2026-03-29T08:55:46Z</time></trkpt><trkpt lat="15.156821420458115" lon="120.55993362931831"><ele>130.0</ele><time>2026-03-29T08:55:47Z</time></trkpt><trkpt lat="15.156718582753234" lon="120.55995296079413"><ele>130.0</ele><time>2026-03-29T08:55:48Z</time></trkpt><trkpt lat="15.156616600627865" lon="120.55997122360006"><ele>130.0</ele><time>2026-03-29T08:55:49Z</time></trkpt><trkpt lat="15.156517179597026" lon="120.55998932255011"><ele>130.0</ele><time>2026-03-29T08:55:50Z</time></trkpt><trkpt lat="15.156420101737544" lon="120.56000678801611"><ele>130.0</ele><time>2026-03-29T08:55:51Z</time></trkpt><trkpt lat="15.156326042559797" lon="120.56002493711833"><ele>130.0</ele><time>2026-03-29T08:55:52Z</time></trkpt><trkpt lat="15.156233481478136" lon="120.56004223918386"><ele>130.33333333333334</ele><time>2026-03-29T08:55:53Z</time></trkpt><trkpt lat="15.156143067526104" lon="120.56005961579909"><ele>130.66666666666669</ele><time>2026-03-29T08:55:54Z</time></trkpt><trkpt lat="15.156054595734195" lon="120.5600762917173"><ele>131.0</ele><time>2026-03-29T08:55:55Z</time></trkpt><trkpt lat="15.155967007811379" lon="120.5600921034902"><ele>131.33333333333334</ele><time>2026-03-29T08:55:56Z</time></trkpt><trkpt lat="15.155882339541794" lon="120.56010838253742"><ele>131.66666666666666</ele><time>2026-03-29T08:55:57Z</time></trkpt><trkpt lat="15.155799068738743" lon="120.56012424937853"><ele>132.0</ele><time>2026-03-29T08:55:58Z</time></trkpt><trkpt lat="15.155716694524827" lon="120.5601397987518"><ele>132.5</ele><time>2026-03-29T08:55:59Z</time></trkpt><trkpt lat="15.155634299493894" lon="120.56015570024525"><ele>133.0</ele><time>2026-03-29T08:56:00Z</time></trkpt><trkpt lat="15.155552263746166" lon="120.56017190815307"><ele>133.5</ele><time>2026-03-29T08:56:01Z</time></trkpt><trkpt lat="15.15547103331772" lon="120.56018679249128"><ele>134.0</ele><time>2026-03-29T08:56:02Z</time></trkpt><trkpt lat="15.155389802142398" lon="120.56020306721977"><ele>134.5</ele><time>2026-03-29T08:56:03Z</time></trkpt><trkpt lat="15.155306958543262" lon="120.56021983568259"><ele>135.0</ele><time>2026-03-29T08:56:04Z</time></trkpt><trkpt lat="15.155220962078426" lon="120.56023614800752"><ele>135.0</ele><time>2026-03-29T08:56:05Z</time></trkpt><trkpt lat="15.155130583395652" lon="120.5602504207491"><ele>135.0</ele><time>2026-03-29T08:56:06Z</time></trkpt><trkpt lat="15.155041411526641" lon="120.56025861735236"><ele>135.0</ele><time>2026-03-29T08:56:07Z</time></trkpt><trkpt lat="15.15495233818674" lon="120.56026366571862"><ele>135.0</ele><time>2026-03-29T08:56:08Z</time></trkpt><trkpt lat="15.154863055742826" lon="120.56026736670289"><ele>135.0</ele><time>2026-03-29T08:56:09Z</time></trkpt><trkpt lat="15.154773856483668" lon="120.56026950095065"><ele>135.0</ele><time>2026-03-29T08:56:10Z</time></trkpt><trkpt lat="15.154685189536794" lon="120.56027187847077"><ele>135.0</ele><time>2026-03-29T08:56:11Z</time></trkpt><trkpt lat="15.154596178537643" lon="120.5602731677053"><ele>135.0</ele><time>2026-03-29T08:56:12Z</time></trkpt><trkpt lat="15.154508034884817" lon="120.5602743376025"><ele>135.0</ele><time>2026-03-29T08:56:13Z</time></trkpt><trkpt lat="15.15441954417474" lon="120.56027548235095"><ele>135.0</ele><time>2026-03-29T08:56:14Z</time></trkpt><trkpt lat="15.154328065533733" lon="120.56027682499281"><ele>135.0</ele><time>2026-03-29T08:56:15Z</time></trkpt><trkpt lat="15.154234780761922" lon="120.560278064328"><ele>135.0</ele><time>2026-03-29T08:56:16Z</time></trkpt><trkpt lat="15.15413913499893" lon="120.56027433299496"><ele>135.0</ele><time>2026-03-29T08:56:17Z</time></trkpt><trkpt lat="15.15403765595945" lon="120.56026408409916"><ele>135.0</ele><time>2026-03-29T08:56:18Z</time></trkpt><trkpt lat="15.15392994446378" lon="120.56025138391618"><ele>135.0</ele><time>2026-03-29T08:56:19Z</time></trkpt><trkpt lat="15.153820535918138" lon="120.56024142813388"><ele>135.0</ele><time>2026-03-29T08:56:20Z</time></trkpt><trkpt lat="15.153713519968111" lon="120.56022916997185"><ele>135.2</ele><time>2026-03-29T08:56:21Z</time></trkpt><trkpt lat="15.153614830519082" lon="120.56021518739145"><ele>135.4</ele><time>2026-03-29T08:56:22Z</time></trkpt><trkpt lat="15.153527581648211" lon="120.56019563557794"><ele>135.6</ele><time>2026-03-29T08:56:23Z</time></trkpt><trkpt lat="15.153456320306194" lon="120.5601726822659"><ele>135.8</ele><time>2026-03-29T08:56:24Z</time></trkpt><trkpt lat="15.15339671232122" lon="120.56014773488363"><ele>136.0</ele><time>2026-03-29T08:56:25Z</time></trkpt><trkpt lat="15.153282525023476" lon="120.56008507699781"><ele>136.0</ele><time>2026-03-29T08:56:27Z</time></trkpt><trkpt lat="15.153216134975269" lon="120.56004085944565"><ele>136.0</ele><time>2026-03-29T08:56:28Z</time></trkpt><trkpt lat="15.153147863473178" lon="120.5599925741785"><ele>136.0</ele><time>2026-03-29T08:56:29Z</time></trkpt><trkpt lat="15.153077946977" lon="120.5599406075284"><ele>136.0</ele><time>2026-03-29T08:56:30Z</time></trkpt><trkpt lat="15.153002393009853" lon="120.5598831035524"><ele>136.0</ele><time>2026-03-29T08:56:31Z</time></trkpt><trkpt lat="15.152920718519267" lon="120.55982019121292"><ele>136.0</ele><time>2026-03-29T08:56:32Z</time></trkpt><trkpt lat="15.152833782931573" lon="120.55975312811691"><ele>135.75</ele><time>2026-03-29T08:56:33Z</time></trkpt><trkpt lat="15.152740631668715" lon="120.5596837687317"><ele>135.5</ele><time>2026-03-29T08:56:34Z</time></trkpt><trkpt lat="15.152641607821804" lon="120.5596149243282"><ele>135.25</ele><time>2026-03-29T08:56:35Z</time></trkpt><trkpt lat="15.152538619789093" lon="120.55955200715448"><ele>135.0</ele><time>2026-03-29T08:56:36Z</time></trkpt><trkpt lat="15.152435207252335" lon="120.5594986084689"><ele>135.25</ele><time>2026-03-29T08:56:37Z</time></trkpt><trkpt lat="15.152330982015677" lon="120.55945600586705"><ele>135.5</ele><time>2026-03-29T08:56:38Z</time></trkpt><trkpt lat="15.152223729167968" lon="120.5594224018625"><ele>135.75</ele><time>2026-03-29T08:56:39Z</time></trkpt><trkpt lat="15.152112939742732" lon="120.55939841377642"><ele>136.0</ele><time>2026-03-29T08:56:40Z</time></trkpt><trkpt lat="15.15199889889632" lon="120.55938453911565"><ele>136.0</ele><time>2026-03-29T08:56:41Z</time></trkpt><trkpt lat="15.151881833266584" lon="120.55937944967387"><ele>136.0</ele><time>2026-03-29T08:56:42Z</time></trkpt><trkpt lat="15.151761554795726" lon="120.5593776484871"><ele>136.0</ele><time>2026-03-29T08:56:43Z</time></trkpt><trkpt lat="15.151636734857409" lon="120.55937860476911"><ele>136.0</ele><time>2026-03-29T08:56:44Z</time></trkpt><trkpt lat="15.151510627547042" lon="120.55937839332802"><ele>136.25</ele><time>2026-03-29T08:56:45Z</time></trkpt><trkpt lat="15.15138603782517" lon="120.55937657251857"><ele>136.5</ele><time>2026-03-29T08:56:46Z</time></trkpt><trkpt lat="15.151264615168278" lon="120.55937523998846"><ele>136.75</ele><time>2026-03-29T08:56:47Z</time></trkpt><trkpt lat="15.151148277400523" lon="120.55937447371942"><ele>137.0</ele><time>2026-03-29T08:56:48Z</time></trkpt><trkpt lat="15.151038358288897" lon="120.55937414913654"><ele>137.0</ele><time>2026-03-29T08:56:49Z</time></trkpt><trkpt lat="15.15093530016041" lon="120.55937397074943"><ele>137.0</ele><time>2026-03-29T08:56:50Z</time></trkpt><trkpt lat="15.150837799018493" lon="120.55937364554748"><ele>137.0</ele><time>2026-03-29T08:56:51Z</time></trkpt><trkpt lat="15.150749238612823" lon="120.559373802971"><ele>137.0</ele><time>2026-03-29T08:56:52Z</time></trkpt><trkpt lat="15.150670071182034" lon="120.55937387824946"><ele>137.0</ele><time>2026-03-29T08:56:53Z</time></trkpt><trkpt lat="15.15059895733208" lon="120.55937407224721"><ele>137.0</ele><time>2026-03-29T08:56:54Z</time></trkpt><trkpt lat="15.150534693891382" lon="120.55937394567897"><ele>136.79999999999998</ele><time>2026-03-29T08:56:55Z</time></trkpt><trkpt lat="15.150435958323149" lon="120.55937325689638"><ele>136.6</ele><time>2026-03-29T08:56:57Z</time></trkpt><trkpt lat="15.150369900422872" lon="120.55937335419476"><ele>136.39999999999998</ele><time>2026-03-29T08:57:00Z</time></trkpt><trkpt lat="15.150306787160327" lon="120.55937218204305"><ele>136.2</ele><time>2026-03-29T08:57:08Z</time></trkpt><trkpt lat="15.150173659873353" lon="120.55946290165953"><ele>136.0</ele><time>2026-03-29T08:57:13Z</time></trkpt><trkpt lat="15.150174178086996" lon="120.5595318635127"><ele>136.0</ele><time>2026-03-29T08:57:20Z</time></trkpt><trkpt lat="15.15030416606179" lon="120.55953158032219"><ele>136.0</ele><time>2026-03-29T08:58:33Z</time></trkpt><trkpt lat="15.15032978387795" lon="120.55946623486723"><ele>136.0</ele><time>2026-03-29T09:46:31Z</time></trkpt><trkpt lat="15.150328190832061" lon="120.55938527412872"><ele>136.0</ele><time>2026-03-29T09:46:36Z</time></trkpt><trkpt lat="15.150318956340499" lon="120.5593202426773"><ele>136.0</ele><time>2026-03-29T09:46:43Z</time></trkpt><trkpt lat="15.1503633592282" lon="120.55942958806669"><ele>136.0</ele><time>2026-03-29T09:51:04.999Z</time></trkpt><trkpt lat="15.150317687866808" lon="120.55947968448133"><ele>136.0</ele><time>2026-03-29T09:51:38Z</time></trkpt><trkpt lat="15.15029145415582" lon="120.55954355413341"><ele>136.0</ele><time>2026-03-29T09:51:56Z</time></trkpt><trkpt lat="15.150262480571614" lon="120.55945862039137"><ele>136.0</ele><time>2026-03-29T09:53:30.001Z</time></trkpt><trkpt lat="15.150246899807915" lon="120.55937895872393"><ele>136.0</ele><time>2026-03-29T09:53:36.001Z</time></trkpt><trkpt lat="15.150056528175627" lon="120.55937766839729"><ele>136.0</ele><time>2026-03-29T09:53:38.002Z</time></trkpt><trkpt lat="15.149979848079253" lon="120.55937982205361"><ele>136.0</ele><time>2026-03-29T09:53:39.002Z</time></trkpt><trkpt lat="15.149900145726999" lon="120.55936377039012"><ele>136.0</ele><time>2026-03-29T09:53:40.002Z</time></trkpt><trkpt lat="15.149819856923141" lon="120.55937556849996"><ele>136.0</ele><time>2026-03-29T09:53:41.002Z</time></trkpt><trkpt lat="15.149735091187162" lon="120.55937639987593"><ele>136.0</ele><time>2026-03-29T09:53:42.002Z</time></trkpt><trkpt lat="15.149641667186543" lon="120.55937558233585"><ele>136.0</ele><time>2026-03-29T09:53:43.002Z</time></trkpt><trkpt lat="15.149542330866492" lon="120.55936093122101"><ele>136.4</ele><time>2026-03-29T09:53:44.002Z</time></trkpt><trkpt lat="15.149439515378829" lon="120.55935893918686"><ele>136.8</ele><time>2026-03-29T09:53:45.002Z</time></trkpt><trkpt lat="15.14933850995649" lon="120.55935688098553"><ele>137.20000000000002</ele><time>2026-03-29T09:53:46.002Z</time></trkpt><trkpt lat="15.149236848316361" lon="120.5593657079883"><ele>137.6</ele><time>2026-03-29T09:53:47.002Z</time></trkpt><trkpt lat="15.149139318183433" lon="120.55936049519457"><ele>138.0</ele><time>2026-03-29T09:53:48.002Z</time></trkpt><trkpt lat="15.14904333643644" lon="120.55935795518243"><ele>138.4</ele><time>2026-03-29T09:53:49.002Z</time></trkpt><trkpt lat="15.148943303093787" lon="120.55936001249904"><ele>138.8</ele><time>2026-03-29T09:53:50.002Z</time></trkpt><trkpt lat="15.148843558865941" lon="120.55936353122144"><ele>139.2</ele><time>2026-03-29T09:53:51.002Z</time></trkpt><trkpt lat="15.148744245573967" lon="120.5593606314813"><ele>139.6</ele><time>2026-03-29T09:53:52.002Z</time></trkpt><trkpt lat="15.14864912610271" lon="120.55936343718975"><ele>140.0</ele><time>2026-03-29T09:53:53.002Z</time></trkpt><trkpt lat="15.148557323904399" lon="120.55936414278447"><ele>140.0</ele><time>2026-03-29T09:53:54.002Z</time></trkpt><trkpt lat="15.148465329803024" lon="120.55936561415609"><ele>140.0</ele><time>2026-03-29T09:53:55.002Z</time></trkpt><trkpt lat="15.148376571688067" lon="120.55936565995377"><ele>140.0</ele><time>2026-03-29T09:53:56.002Z</time></trkpt><trkpt lat="15.148289878819298" lon="120.55936557444032"><ele>140.0</ele><time>2026-03-29T09:53:57.002Z</time></trkpt><trkpt lat="15.148202582740504" lon="120.55936957981162"><ele>140.0</ele><time>2026-03-29T09:53:58.002Z</time></trkpt><trkpt lat="15.148116147569722" lon="120.55937001448075"><ele>140.0</ele><time>2026-03-29T09:53:59.002Z</time></trkpt><trkpt lat="15.148027227660027" lon="120.55937106940371"><ele>139.4</ele><time>2026-03-29T09:54:00.002Z</time></trkpt><trkpt lat="15.147932094867377" lon="120.55936526018509"><ele>138.8</ele><time>2026-03-29T09:54:01.002Z</time></trkpt><trkpt lat="15.14783927327596" lon="120.5593646339641"><ele>138.2</ele><time>2026-03-29T09:54:02.002Z</time></trkpt><trkpt lat="15.147750259353057" lon="120.55936490429262"><ele>137.6</ele><time>2026-03-29T09:54:03.001Z</time></trkpt><trkpt lat="15.147662604942223" lon="120.55936371155899"><ele>137.0</ele><time>2026-03-29T09:54:04.001Z</time></trkpt><trkpt lat="15.14757514871157" lon="120.55936410120933"><ele>137.0</ele><time>2026-03-29T09:54:05.001Z</time></trkpt><trkpt lat="15.147484490175344" lon="120.55936293108049"><ele>137.0</ele><time>2026-03-29T09:54:06.001Z</time></trkpt><trkpt lat="15.147389855246512" lon="120.5593629531524"><ele>137.0</ele><time>2026-03-29T09:54:07.001Z</time></trkpt><trkpt lat="15.147295403321511" lon="120.55936407045485"><ele>137.0</ele><time>2026-03-29T09:54:08.001Z</time></trkpt><trkpt lat="15.147198610518315" lon="120.55936381860214"><ele>137.0</ele><time>2026-03-29T09:54:09.001Z</time></trkpt><trkpt lat="15.147099254049433" lon="120.55936244241735"><ele>137.0</ele><time>2026-03-29T09:54:10.001Z</time></trkpt><trkpt lat="15.146998047640745" lon="120.55936115530807"><ele>137.0</ele><time>2026-03-29T09:54:11.001Z</time></trkpt><trkpt lat="15.146894712556621" lon="120.55935983140127"><ele>137.0</ele><time>2026-03-29T09:54:12.001Z</time></trkpt><trkpt lat="15.146791480450746" lon="120.55935912262707"><ele>137.0</ele><time>2026-03-29T09:54:13.001Z</time></trkpt><trkpt lat="15.146688418923599" lon="120.55935784297351"><ele>137.0</ele><time>2026-03-29T09:54:14.001Z</time></trkpt><trkpt lat="15.146583350528486" lon="120.55935697023338"><ele>136.79999999999998</ele><time>2026-03-29T09:54:15.001Z</time></trkpt><trkpt lat="15.146478044999373" lon="120.5593572356891"><ele>136.6</ele><time>2026-03-29T09:54:16.001Z</time></trkpt><trkpt lat="15.146376162507787" lon="120.55935771769711"><ele>136.39999999999998</ele><time>2026-03-29T09:54:17.001Z</time></trkpt><trkpt lat="15.146276341419883" lon="120.55935773992927"><ele>136.2</ele><time>2026-03-29T09:54:18.001Z</time></trkpt><trkpt lat="15.146178905383007" lon="120.55935830656304"><ele>136.0</ele><time>2026-03-29T09:54:19.001Z</time></trkpt><trkpt lat="15.146082975173462" lon="120.55936120879049"><ele>136.0</ele><time>2026-03-29T09:54:20.001Z</time></trkpt><trkpt lat="15.14598816092281" lon="120.5593619489569"><ele>136.0</ele><time>2026-03-29T09:54:21.001Z</time></trkpt><trkpt lat="15.145889063526376" lon="120.55936067386052"><ele>136.0</ele><time>2026-03-29T09:54:22.001Z</time></trkpt><trkpt lat="15.145790162328247" lon="120.55936079833299"><ele>136.0</ele><time>2026-03-29T09:54:23.001Z</time></trkpt><trkpt lat="15.145692551608612" lon="120.55935953059773"><ele>136.0</ele><time>2026-03-29T09:54:24.001Z</time></trkpt><trkpt lat="15.145598615678898" lon="120.5593589742533"><ele>135.66666666666669</ele><time>2026-03-29T09:54:25.001Z</time></trkpt><trkpt lat="15.145503089801247" lon="120.55935986975425"><ele>135.33333333333334</ele><time>2026-03-29T09:54:26.001Z</time></trkpt><trkpt lat="15.145411753711263" lon="120.55935897943574"><ele>135.0</ele><time>2026-03-29T09:54:27.001Z</time></trkpt><trkpt lat="15.145322511781519" lon="120.55935953272144"><ele>134.66666666666666</ele><time>2026-03-29T09:54:28.001Z</time></trkpt><trkpt lat="15.145233915008177" lon="120.55935866402432"><ele>134.33333333333331</ele><time>2026-03-29T09:54:29.001Z</time></trkpt><trkpt lat="15.145150298938253" lon="120.55935763998095"><ele>134.0</ele><time>2026-03-29T09:54:30.001Z</time></trkpt><trkpt lat="15.145079994315205" lon="120.55935902894238"><ele>134.0</ele><time>2026-03-29T09:54:31.001Z</time></trkpt><trkpt lat="15.144969215988782" lon="120.55936186578695"><ele>134.0</ele><time>2026-03-29T09:54:33.001Z</time></trkpt><trkpt lat="15.144894715073043" lon="120.55936098725593"><ele>134.0</ele><time>2026-03-29T09:54:35.001Z</time></trkpt><trkpt lat="15.144822825201654" lon="120.5593593095731"><ele>134.0</ele><time>2026-03-29T09:55:55.002Z</time></trkpt><trkpt lat="15.144738331782818" lon="120.55936066395124"><ele>134.0</ele><time>2026-03-29T09:55:58.002Z</time></trkpt><trkpt lat="15.144656322804208" lon="120.55937562863163"><ele>134.0</ele><time>2026-03-29T09:56:00.002Z</time></trkpt><trkpt lat="15.144551540498993" lon="120.5593794071053"><ele>134.4</ele><time>2026-03-29T09:56:02.002Z</time></trkpt><trkpt lat="15.144472457856436" lon="120.55938033080125"><ele>134.8</ele><time>2026-03-29T09:56:04.002Z</time></trkpt><trkpt lat="15.144449478672996" lon="120.55950129051325"><ele>135.2</ele><time>2026-03-29T09:56:05.002Z</time></trkpt><trkpt lat="15.144438030995444" lon="120.55958558032486"><ele>135.6</ele><time>2026-03-29T09:56:07.002Z</time></trkpt><trkpt lat="15.14444792733469" lon="120.5596912690859"><ele>136.0</ele><time>2026-03-29T09:56:08.999Z</time></trkpt><trkpt lat="15.144462502847047" lon="120.55982652856743"><ele>135.16666666666669</ele><time>2026-03-29T09:56:10.999Z</time></trkpt><trkpt lat="15.144472105697778" lon="120.55990434676843"><ele>134.33333333333334</ele><time>2026-03-29T09:56:11.999Z</time></trkpt><trkpt lat="15.144482171635726" lon="120.55998706362074"><ele>133.5</ele><time>2026-03-29T09:56:12.999Z</time></trkpt><trkpt lat="15.144492987690839" lon="120.56007451216932"><ele>132.66666666666666</ele><time>2026-03-29T09:56:13.999Z</time></trkpt><trkpt lat="15.144503009442097" lon="120.56016562836801"><ele>131.83333333333331</ele><time>2026-03-29T09:56:14.999Z</time></trkpt><trkpt lat="15.144513959000143" lon="120.56026287681806"><ele>131.0</ele><time>2026-03-29T09:56:15.999Z</time></trkpt><trkpt lat="15.14452571200782" lon="120.56036381689749"><ele>131.2</ele><time>2026-03-29T09:56:16.999Z</time></trkpt><trkpt lat="15.144538977781261" lon="120.56046955177004"><ele>131.39999999999998</ele><time>2026-03-29T09:56:17.999Z</time></trkpt><trkpt lat="15.14455152316434" lon="120.56058059356876"><ele>131.6</ele><time>2026-03-29T09:56:18.999Z</time></trkpt><trkpt lat="15.144562558554657" lon="120.56069614997853"><ele>131.79999999999998</ele><time>2026-03-29T09:56:19.999Z</time></trkpt><trkpt lat="15.144572266839761" lon="120.56081499558483"><ele>132.0</ele><time>2026-03-29T09:56:20.999Z</time></trkpt><trkpt lat="15.144584024974197" lon="120.56093828641465"><ele>132.0</ele><time>2026-03-29T09:56:21.999Z</time></trkpt><trkpt lat="15.144597150975486" lon="120.56106294295294"><ele>132.0</ele><time>2026-03-29T09:56:23Z</time></trkpt><trkpt lat="15.14461011746" lon="120.5611902707807"><ele>132.0</ele><time>2026-03-29T09:56:24Z</time></trkpt><trkpt lat="15.144622973465273" lon="120.5613195279746"><ele>132.0</ele><time>2026-03-29T09:56:25Z</time></trkpt><trkpt lat="15.144636644532264" lon="120.56144979533376"><ele>131.25</ele><time>2026-03-29T09:56:26Z</time></trkpt><trkpt lat="15.144651430069151" lon="120.56158296551975"><ele>130.5</ele><time>2026-03-29T09:56:27Z</time></trkpt><trkpt lat="15.144666591104306" lon="120.56171814748917"><ele>129.75</ele><time>2026-03-29T09:56:28Z</time></trkpt><trkpt lat="15.144682110200566" lon="120.56185727314741"><ele>129.0</ele><time>2026-03-29T09:56:29Z</time></trkpt><trkpt lat="15.14469727957321" lon="120.5619981252752"><ele>128.5</ele><time>2026-03-29T09:56:30Z</time></trkpt><trkpt lat="15.144711365575949" lon="120.56214041502564"><ele>128.0</ele><time>2026-03-29T09:56:31Z</time></trkpt><trkpt lat="15.14472528738516" lon="120.56228313727294"><ele>127.5</ele><time>2026-03-29T09:56:32Z</time></trkpt><trkpt lat="15.144740186662716" lon="120.56242709141532"><ele>127.0</ele><time>2026-03-29T09:56:33Z</time></trkpt><trkpt lat="15.144753627842706" lon="120.56257004067794"><ele>127.0</ele><time>2026-03-29T09:56:34Z</time></trkpt><trkpt lat="15.14476548201744" lon="120.5627123452507"><ele>127.0</ele><time>2026-03-29T09:56:35Z</time></trkpt><trkpt lat="15.144778168953614" lon="120.56285277951785"><ele>127.0</ele><time>2026-03-29T09:56:36Z</time></trkpt><trkpt lat="15.144791521637028" lon="120.56298987077753"><ele>127.0</ele><time>2026-03-29T09:56:37Z</time></trkpt><trkpt lat="15.14480501629509" lon="120.56312433348023"><ele>127.25</ele><time>2026-03-29T09:56:38Z</time></trkpt><trkpt lat="15.144818554955917" lon="120.56325637147833"><ele>127.5</ele><time>2026-03-29T09:56:39Z</time></trkpt><trkpt lat="15.144832181644041" lon="120.56338769379158"><ele>127.75</ele><time>2026-03-29T09:56:40Z</time></trkpt><trkpt lat="15.144847256664159" lon="120.56351723363284"><ele>128.0</ele><time>2026-03-29T09:56:41Z</time></trkpt><trkpt lat="15.144862009062559" lon="120.56364660682601"><ele>128.0</ele><time>2026-03-29T09:56:42Z</time></trkpt><trkpt lat="15.14487571061186" lon="120.56377423193742"><ele>128.0</ele><time>2026-03-29T09:56:43Z</time></trkpt><trkpt lat="15.144890280859164" lon="120.56389921874032"><ele>128.0</ele><time>2026-03-29T09:56:44Z</time></trkpt><trkpt lat="15.144903857979152" lon="120.5640210625661"><ele>128.0</ele><time>2026-03-29T09:56:45Z</time></trkpt><trkpt lat="15.144917407569075" lon="120.56413884568518"><ele>128.0</ele><time>2026-03-29T09:56:46Z</time></trkpt><trkpt lat="15.144930874440556" lon="120.56425298472105"><ele>128.0</ele><time>2026-03-29T09:56:47Z</time></trkpt><trkpt lat="15.144945229912631" lon="120.56436190896554"><ele>128.0</ele><time>2026-03-29T09:56:48Z</time></trkpt><trkpt lat="15.144960701720636" lon="120.56446834830943"><ele>128.0</ele><time>2026-03-29T09:56:49Z</time></trkpt><trkpt lat="15.144974977611493" lon="120.56457156520301"><ele>128.0</ele><time>2026-03-29T09:56:50Z</time></trkpt><trkpt lat="15.144989093656275" lon="120.56467175312262"><ele>127.80000000000001</ele><time>2026-03-29T09:56:51Z</time></trkpt><trkpt lat="15.145003359099253" lon="120.564770421828"><ele>127.60000000000001</ele><time>2026-03-29T09:56:52Z</time></trkpt><trkpt lat="15.145017285720474" lon="120.56486825655244"><ele>127.39999999999999</ele><time>2026-03-29T09:56:53Z</time></trkpt><trkpt lat="15.14503086861318" lon="120.56496426014891"><ele>127.19999999999999</ele><time>2026-03-29T09:56:54Z</time></trkpt><trkpt lat="15.145043247110248" lon="120.56505764879869"><ele>127.0</ele><time>2026-03-29T09:56:55Z</time></trkpt><trkpt lat="15.14505489466162" lon="120.56514567973694"><ele>127.00000000000001</ele><time>2026-03-29T09:56:56Z</time></trkpt><trkpt lat="15.145067716105732" lon="120.5652304440265"><ele>127.0</ele><time>2026-03-29T09:56:57Z</time></trkpt><trkpt lat="15.145081378876304" lon="120.56531228675827"><ele>127.0</ele><time>2026-03-29T09:56:58Z</time></trkpt><trkpt lat="15.14509583557854" lon="120.56539201251223"><ele>127.0</ele><time>2026-03-29T09:56:59Z</time></trkpt><trkpt lat="15.145111554687954" lon="120.56547177490631"><ele>127.00000000000001</ele><time>2026-03-29T09:57:00Z</time></trkpt><trkpt lat="15.145123110516215" lon="120.5655512908746"><ele>127.0</ele><time>2026-03-29T09:57:01Z</time></trkpt><trkpt lat="15.145134614856449" lon="120.5656317395321"><ele>127.00000000000001</ele><time>2026-03-29T09:57:02Z</time></trkpt><trkpt lat="15.145148807182823" lon="120.56571037791902"><ele>127.0</ele><time>2026-03-29T09:57:03.001Z</time></trkpt><trkpt lat="15.14516491873903" lon="120.56578758262053"><ele>127.0</ele><time>2026-03-29T09:57:04.001Z</time></trkpt><trkpt lat="15.145180884966058" lon="120.56586227554462"><ele>127.0</ele><time>2026-03-29T09:57:05.001Z</time></trkpt><trkpt lat="15.145195408631658" lon="120.56593194513259"><ele>127.00000000000001</ele><time>2026-03-29T09:57:06.001Z</time></trkpt><trkpt lat="15.145208660860485" lon="120.56599857078007"><ele>127.0</ele><time>2026-03-29T09:57:07.001Z</time></trkpt><trkpt lat="15.145230187670327" lon="120.56610653018137"><ele>127.00000000000001</ele><time>2026-03-29T09:57:09.001Z</time></trkpt><trkpt lat="15.145248084646672" lon="120.56619255970926"><ele>127.0</ele><time>2026-03-29T09:57:11.001Z</time></trkpt><trkpt lat="15.145269175096466" lon="120.56628731932175"><ele>127.0</ele><time>2026-03-29T09:57:13.001Z</time></trkpt><trkpt lat="15.145298150784463" lon="120.56639869983918"><ele>127.0</ele><time>2026-03-29T09:57:15.001Z</time></trkpt><trkpt lat="15.145316628333273" lon="120.56646242185077"><ele>127.00000000000001</ele><time>2026-03-29T09:57:16.001Z</time></trkpt><trkpt lat="15.145336458805222" lon="120.56653275450277"><ele>127.0</ele><time>2026-03-29T09:57:17.001Z</time></trkpt><trkpt lat="15.14535756143865" lon="120.56660985013957"><ele>126.8</ele><time>2026-03-29T09:57:18.001Z</time></trkpt><trkpt lat="15.145380373800338" lon="120.56669153589827"><ele>126.6</ele><time>2026-03-29T09:57:19.001Z</time></trkpt><trkpt lat="15.145404369485053" lon="120.56677873267435"><ele>126.39999999999999</ele><time>2026-03-29T09:57:20.001Z</time></trkpt><trkpt lat="15.145429605140247" lon="120.56687163415882"><ele>126.19999999999999</ele><time>2026-03-29T09:57:21.001Z</time></trkpt><trkpt lat="15.145455217867378" lon="120.56696779950279"><ele>126.0</ele><time>2026-03-29T09:57:22.001Z</time></trkpt><trkpt lat="15.145480353658582" lon="120.56706174209062"><ele>125.66666666666667</ele><time>2026-03-29T09:57:23.001Z</time></trkpt><trkpt lat="15.145503707745972" lon="120.5671464817624"><ele>125.33333333333334</ele><time>2026-03-29T09:57:24.001Z</time></trkpt><trkpt lat="15.145522269921242" lon="120.56721812766234"><ele>125.0</ele><time>2026-03-29T09:57:25.001Z</time></trkpt><trkpt lat="15.145536565408177" lon="120.56728233035129"><ele>124.66666666666667</ele><time>2026-03-29T09:57:26.001Z</time></trkpt><trkpt lat="15.145563475344622" lon="120.56740658469897"><ele>124.33333333333334</ele><time>2026-03-29T09:57:28.001Z</time></trkpt><trkpt lat="15.14558196044926" lon="120.56747259801831"><ele>124.0</ele><time>2026-03-29T09:57:29.001Z</time></trkpt><trkpt lat="15.145600646805887" lon="120.56753625441164"><ele>124.00000000000001</ele><time>2026-03-29T09:57:30.001Z</time></trkpt><trkpt lat="15.145631476333568" lon="120.56766175963507"><ele>124.0</ele><time>2026-03-29T09:57:32.001Z</time></trkpt><trkpt lat="15.145647146528457" lon="120.56772747276192"><ele>124.0</ele><time>2026-03-29T09:57:33.001Z</time></trkpt><trkpt lat="15.145665680603049" lon="120.56780034027778"><ele>124.0</ele><time>2026-03-29T09:57:34.001Z</time></trkpt><trkpt lat="15.145684987461037" lon="120.56787732456274"><ele>124.00000000000001</ele><time>2026-03-29T09:57:35.001Z</time></trkpt><trkpt lat="15.145705357704683" lon="120.56795963487838"><ele>124.0</ele><time>2026-03-29T09:57:36.001Z</time></trkpt><trkpt lat="15.14572654530052" lon="120.5680459959931"><ele>123.66666666666667</ele><time>2026-03-29T09:57:37.001Z</time></trkpt><trkpt lat="15.14574943235642" lon="120.56813355305816"><ele>123.33333333333334</ele><time>2026-03-29T09:57:38.001Z</time></trkpt><trkpt lat="15.145772658257028" lon="120.56822046817308"><ele>123.0</ele><time>2026-03-29T09:57:39.001Z</time></trkpt><trkpt lat="15.145795465957107" lon="120.56830607520523"><ele>122.66666666666666</ele><time>2026-03-29T09:57:40.001Z</time></trkpt><trkpt lat="15.145818040766956" lon="120.56838626504594"><ele>122.33333333333333</ele><time>2026-03-29T09:57:41.001Z</time></trkpt><trkpt lat="15.145837636797829" lon="120.56845336950778"><ele>122.0</ele><time>2026-03-29T09:57:42.001Z</time></trkpt><trkpt lat="15.145867848531742" lon="120.56854053821932"><ele>121.99999999999999</ele><time>2026-03-29T09:57:44.001Z</time></trkpt><trkpt lat="15.145896957877286" lon="120.56862814874142"><ele>122.0</ele><time>2026-03-29T09:57:47.001Z</time></trkpt><trkpt lat="15.145924199712907" lon="120.56872784152199"><ele>122.0</ele><time>2026-03-29T09:57:49.001Z</time></trkpt><trkpt lat="15.145941842086794" lon="120.56879378573184"><ele>122.0</ele><time>2026-03-29T09:57:50.001Z</time></trkpt><trkpt lat="15.145968372498691" lon="120.56886311459516"><ele>121.99999999999999</ele><time>2026-03-29T09:57:51.001Z</time></trkpt><trkpt lat="15.145997654736655" lon="120.5689387678572"><ele>122.0</ele><time>2026-03-29T09:57:52.001Z</time></trkpt><trkpt lat="15.146028892807818" lon="120.56902140870234"><ele>122.19999999999999</ele><time>2026-03-29T09:57:53.001Z</time></trkpt><trkpt lat="15.146062590897122" lon="120.56911055757448"><ele>122.39999999999999</ele><time>2026-03-29T09:57:54.001Z</time></trkpt><trkpt lat="15.146098830219614" lon="120.56920478385591"><ele>122.60000000000001</ele><time>2026-03-29T09:57:55.001Z</time></trkpt><trkpt lat="15.146136359262382" lon="120.5693037573842"><ele>122.80000000000001</ele><time>2026-03-29T09:57:56.001Z</time></trkpt><trkpt lat="15.146175873940159" lon="120.56940828602201"><ele>123.0</ele><time>2026-03-29T09:57:57.001Z</time></trkpt><trkpt lat="15.14620991851947" lon="120.5695173343166"><ele>122.0</ele><time>2026-03-29T09:57:58.001Z</time></trkpt><trkpt lat="15.146246213779715" lon="120.56963251969883"><ele>121.0</ele><time>2026-03-29T09:57:59.001Z</time></trkpt><trkpt lat="15.146283680149175" lon="120.5697510588741"><ele>120.0</ele><time>2026-03-29T09:58:00.001Z</time></trkpt><trkpt lat="15.146400173521469" lon="120.56984491789161"><ele>119.0</ele><time>2026-03-29T09:58:01.001Z</time></trkpt><trkpt lat="15.146446440353385" lon="120.56996320989622"><ele>119.0</ele><time>2026-03-29T09:58:02.001Z</time></trkpt><trkpt lat="15.146492186711052" lon="120.57008288524032"><ele>119.0</ele><time>2026-03-29T09:58:03.001Z</time></trkpt><trkpt lat="15.14653681763892" lon="120.57020109478009"><ele>119.0</ele><time>2026-03-29T09:58:04.001Z</time></trkpt><trkpt lat="15.146498574834999" lon="120.5703533647477"><ele>119.0</ele><time>2026-03-29T09:58:05.001Z</time></trkpt><trkpt lat="15.146544439967405" lon="120.57047305826949"><ele>119.75</ele><time>2026-03-29T09:58:06.001Z</time></trkpt><trkpt lat="15.146590605642597" lon="120.57059325792154"><ele>120.5</ele><time>2026-03-29T09:58:07.001Z</time></trkpt><trkpt lat="15.146636251003025" lon="120.57071237892386"><ele>121.25</ele><time>2026-03-29T09:58:08.001Z</time></trkpt><trkpt lat="15.146683412534408" lon="120.57083500320834"><ele>122.0</ele><time>2026-03-29T09:58:09.001Z</time></trkpt><trkpt lat="15.146728577858417" lon="120.57095238016566"><ele>122.0</ele><time>2026-03-29T09:58:10.001Z</time></trkpt><trkpt lat="15.146772275206867" lon="120.57106735213881"><ele>122.0</ele><time>2026-03-29T09:58:11.001Z</time></trkpt><trkpt lat="15.146815662998312" lon="120.57118104060721"><ele>122.0</ele><time>2026-03-29T09:58:12.001Z</time></trkpt><trkpt lat="15.146857818113041" lon="120.57129069166372"><ele>122.0</ele><time>2026-03-29T09:58:13.002Z</time></trkpt><trkpt lat="15.146897873467111" lon="120.57139651697972"><ele>121.6</ele><time>2026-03-29T09:58:14.002Z</time></trkpt><trkpt lat="15.146938314915667" lon="120.5714992356563"><ele>121.19999999999999</ele><time>2026-03-29T09:58:14.999Z</time></trkpt><trkpt lat="15.146990687588875" lon="120.57159891961933"><ele>120.8</ele><time>2026-03-29T09:58:15.999Z</time></trkpt><trkpt lat="15.147034215583746" lon="120.57168975306749"><ele>120.4</ele><time>2026-03-29T09:58:16.999Z</time></trkpt><trkpt lat="15.147093955594709" lon="120.57177139435146"><ele>120.0</ele><time>2026-03-29T09:58:17.999Z</time></trkpt><trkpt lat="15.147118766275334" lon="120.57187037249419"><ele>120.0</ele><time>2026-03-29T09:58:18.999Z</time></trkpt><trkpt lat="15.147150188080182" lon="120.5719701564948"><ele>120.0</ele><time>2026-03-29T09:58:19.999Z</time></trkpt><trkpt lat="15.147186974965052" lon="120.5720702221148"><ele>120.0</ele><time>2026-03-29T09:58:20.999Z</time></trkpt><trkpt lat="15.147226496668464" lon="120.57217291900105"><ele>120.0</ele><time>2026-03-29T09:58:21.999Z</time></trkpt><trkpt lat="15.147268561510796" lon="120.57227894365946"><ele>120.0</ele><time>2026-03-29T09:58:22.999Z</time></trkpt><trkpt lat="15.147312792563385" lon="120.57238753770211"><ele>120.0</ele><time>2026-03-29T09:58:23.999Z</time></trkpt><trkpt lat="15.147356924725669" lon="120.57249736734288"><ele>120.0</ele><time>2026-03-29T09:58:24.999Z</time></trkpt><trkpt lat="15.147403006397553" lon="120.57260828633017"><ele>120.0</ele><time>2026-03-29T09:58:25.999Z</time></trkpt><trkpt lat="15.147448953668015" lon="120.57271861844661"><ele>120.0</ele><time>2026-03-29T09:58:27Z</time></trkpt><trkpt lat="15.147494565397837" lon="120.57282736219143"><ele>120.0</ele><time>2026-03-29T09:58:28Z</time></trkpt><trkpt lat="15.147543360781285" lon="120.57293262611812"><ele>120.0</ele><time>2026-03-29T09:58:29Z</time></trkpt><trkpt lat="15.147595457619657" lon="120.57303816595395"><ele>120.0</ele><time>2026-03-29T09:58:30Z</time></trkpt><trkpt lat="15.14764847471318" lon="120.57314519018371"><ele>120.0</ele><time>2026-03-29T09:58:31Z</time></trkpt><trkpt lat="15.147702838885081" lon="120.57325256811708"><ele>120.0</ele><time>2026-03-29T09:58:32Z</time></trkpt><trkpt lat="15.147758459946875" lon="120.5733576328297"><ele>120.0</ele><time>2026-03-29T09:58:33Z</time></trkpt><trkpt lat="15.147812382257005" lon="120.57346238099845"><ele>120.0</ele><time>2026-03-29T09:58:34Z</time></trkpt><trkpt lat="15.147865265132417" lon="120.57356497145547"><ele>120.0</ele><time>2026-03-29T09:58:35Z</time></trkpt><trkpt lat="15.147915220814266" lon="120.57366992969057"><ele>119.6</ele><time>2026-03-29T09:58:36Z</time></trkpt><trkpt lat="15.147962929037513" lon="120.57377495125802"><ele>119.2</ele><time>2026-03-29T09:58:37Z</time></trkpt><trkpt lat="15.148009389570115" lon="120.57387889717954"><ele>118.80000000000001</ele><time>2026-03-29T09:58:38Z</time></trkpt><trkpt lat="15.148052137496292" lon="120.57398049409639"><ele>118.4</ele><time>2026-03-29T09:58:39Z</time></trkpt><trkpt lat="15.148093281139543" lon="120.57407850527669"><ele>118.0</ele><time>2026-03-29T09:58:40Z</time></trkpt><trkpt lat="15.14813124268414" lon="120.57416826661704"><ele>118.0</ele><time>2026-03-29T09:58:41Z</time></trkpt><trkpt lat="15.148167223328368" lon="120.57425538250585"><ele>118.00000000000001</ele><time>2026-03-29T09:58:42Z</time></trkpt><trkpt lat="15.148203137715667" lon="120.57434182363922"><ele>118.00000000000001</ele><time>2026-03-29T09:58:43Z</time></trkpt><trkpt lat="15.148239234017222" lon="120.57442857518276"><ele>118.0</ele><time>2026-03-29T09:58:44Z</time></trkpt><trkpt lat="15.148275327545246" lon="120.57452028435235"><ele>118.0</ele><time>2026-03-29T09:58:45Z</time></trkpt><trkpt lat="15.148310035364151" lon="120.57461851883083"><ele>117.60000000000001</ele><time>2026-03-29T09:58:46Z</time></trkpt><trkpt lat="15.148344901099238" lon="120.57472103312077"><ele>117.20000000000002</ele><time>2026-03-29T09:58:47Z</time></trkpt><trkpt lat="15.148378775322282" lon="120.57482773894856"><ele>116.8</ele><time>2026-03-29T09:58:48Z</time></trkpt><trkpt lat="15.148412605439189" lon="120.57493665972919"><ele>116.4</ele><time>2026-03-29T09:58:49Z</time></trkpt><trkpt lat="15.148446428844533" lon="120.57504833883122"><ele>116.0</ele><time>2026-03-29T09:58:50Z</time></trkpt><trkpt lat="15.14847971269965" lon="120.5751623551094"><ele>116.0</ele><time>2026-03-29T09:58:51Z</time></trkpt><trkpt lat="15.148511949746043" lon="120.57527996745097"><ele>116.0</ele><time>2026-03-29T09:58:52Z</time></trkpt><trkpt lat="15.148543304000627" lon="120.5753996808558"><ele>116.0</ele><time>2026-03-29T09:58:53Z</time></trkpt><trkpt lat="15.14857774951306" lon="120.57552317049787"><ele>116.0</ele><time>2026-03-29T09:58:54Z</time></trkpt><trkpt lat="15.148610749905625" lon="120.57565040462288"><ele>115.0</ele><time>2026-03-29T09:58:55Z</time></trkpt><trkpt lat="15.148643307416302" lon="120.57577903158484"><ele>114.0</ele><time>2026-03-29T09:58:56Z</time></trkpt><trkpt lat="15.148675772278956" lon="120.57590928920484"><ele>113.0</ele><time>2026-03-29T09:58:57Z</time></trkpt><trkpt lat="15.14870861237193" lon="120.5760412952527"><ele>112.0</ele><time>2026-03-29T09:58:58Z</time></trkpt><trkpt lat="15.14874251308115" lon="120.57617438452593"><ele>112.5</ele><time>2026-03-29T09:58:59Z</time></trkpt><trkpt lat="15.148776101145272" lon="120.57630818879278"><ele>113.0</ele><time>2026-03-29T09:59:00Z</time></trkpt><trkpt lat="15.148811135378272" lon="120.57644344028895"><ele>113.5</ele><time>2026-03-29T09:59:01Z</time></trkpt><trkpt lat="15.148847026533929" lon="120.5765791365941"><ele>114.0</ele><time>2026-03-29T09:59:02Z</time></trkpt><trkpt lat="15.148882301476078" lon="120.5767139541601"><ele>114.0</ele><time>2026-03-29T09:59:03Z</time></trkpt><trkpt lat="15.148916096404887" lon="120.57684462465662"><ele>114.0</ele><time>2026-03-29T09:59:04.001Z</time></trkpt><trkpt lat="15.148951070524193" lon="120.57697627883428"><ele>114.0</ele><time>2026-03-29T09:59:05.001Z</time></trkpt><trkpt lat="15.148985804771302" lon="120.57710697326183"><ele>114.0</ele><time>2026-03-29T09:59:06.001Z</time></trkpt><trkpt lat="15.148987517029772" lon="120.5772470579309"><ele>113.5</ele><time>2026-03-29T09:59:07.001Z</time></trkpt><trkpt lat="15.149053572476667" lon="120.57736622502738"><ele>113.0</ele><time>2026-03-29T09:59:08.001Z</time></trkpt><trkpt lat="15.149086614447565" lon="120.57749184064932"><ele>112.5</ele><time>2026-03-29T09:59:09.001Z</time></trkpt><trkpt lat="15.149119231450728" lon="120.57761557761066"><ele>112.0</ele><time>2026-03-29T09:59:10.001Z</time></trkpt><trkpt lat="15.149151839410198" lon="120.5777370674798"><ele>112.0</ele><time>2026-03-29T09:59:11.001Z</time></trkpt><trkpt lat="15.149184020390887" lon="120.5778562740485"><ele>112.0</ele><time>2026-03-29T09:59:12.001Z</time></trkpt><trkpt lat="15.14921555892867" lon="120.5779735357068"><ele>112.0</ele><time>2026-03-29T09:59:13.001Z</time></trkpt><trkpt lat="15.149246195813255" lon="120.57809094303556"><ele>112.0</ele><time>2026-03-29T09:59:14.001Z</time></trkpt><trkpt lat="15.149275309232044" lon="120.57820877672307"><ele>112.0</ele><time>2026-03-29T09:59:15.001Z</time></trkpt><trkpt lat="15.14930080543543" lon="120.57832435243859"><ele>112.0</ele><time>2026-03-29T09:59:16.001Z</time></trkpt><trkpt lat="15.149322149276147" lon="120.57844000451587"><ele>112.0</ele><time>2026-03-29T09:59:17.001Z</time></trkpt><trkpt lat="15.149334767451572" lon="120.57855255419123"><ele>112.0</ele><time>2026-03-29T09:59:18.001Z</time></trkpt><trkpt lat="15.149293365725555" lon="120.57866510355798"><ele>112.19999999999999</ele><time>2026-03-29T09:59:19.001Z</time></trkpt><trkpt lat="15.149297562570139" lon="120.57877303170163"><ele>112.39999999999999</ele><time>2026-03-29T09:59:20.001Z</time></trkpt><trkpt lat="15.149301611396973" lon="120.57887715335292"><ele>112.60000000000001</ele><time>2026-03-29T09:59:21.001Z</time></trkpt><trkpt lat="15.149307216208628" lon="120.57898058182751"><ele>112.80000000000001</ele><time>2026-03-29T09:59:22.001Z</time></trkpt><trkpt lat="15.149313785039437" lon="120.57908450410036"><ele>113.0</ele><time>2026-03-29T09:59:23.001Z</time></trkpt><trkpt lat="15.149318631910475" lon="120.57919544428346"><ele>113.0</ele><time>2026-03-29T09:59:24.001Z</time></trkpt><trkpt lat="15.149322498506196" lon="120.57931344261375"><ele>113.0</ele><time>2026-03-29T09:59:25.001Z</time></trkpt><trkpt lat="15.149326800049062" lon="120.57943491578108"><ele>113.0</ele><time>2026-03-29T09:59:26.001Z</time></trkpt><trkpt lat="15.149331071213602" lon="120.57956087358448"><ele>113.0</ele><time>2026-03-29T09:59:27.001Z</time></trkpt><trkpt lat="15.14933540136828" lon="120.57968984264885"><ele>112.5</ele><time>2026-03-29T09:59:28.001Z</time></trkpt><trkpt lat="15.149339898969641" lon="120.57982107023956"><ele>112.0</ele><time>2026-03-29T09:59:29.001Z</time></trkpt><trkpt lat="15.149344350047324" lon="120.57995489606117"><ele>111.5</ele><time>2026-03-29T09:59:30.001Z</time></trkpt><trkpt lat="15.14934892220944" lon="120.58009236258829"><ele>111.0</ele><time>2026-03-29T09:59:31.001Z</time></trkpt><trkpt lat="15.149350202224204" lon="120.5802294811067"><ele>110.5</ele><time>2026-03-29T09:59:32.001Z</time></trkpt><trkpt lat="15.149353018088043" lon="120.58037130977021"><ele>110.0</ele><time>2026-03-29T09:59:33.001Z</time></trkpt><trkpt lat="15.149356845365878" lon="120.58050951703989"><ele>109.5</ele><time>2026-03-29T09:59:34.001Z</time></trkpt><trkpt lat="15.149360603996396" lon="120.58064524537127"><ele>109.0</ele><time>2026-03-29T09:59:35.001Z</time></trkpt><trkpt lat="15.149364935971107" lon="120.58077743858024"><ele>109.0</ele><time>2026-03-29T09:59:36.001Z</time></trkpt><trkpt lat="15.149368347054061" lon="120.58090385108133"><ele>109.0</ele><time>2026-03-29T09:59:37.001Z</time></trkpt><trkpt lat="15.149371691513304" lon="120.5810185974399"><ele>109.0</ele><time>2026-03-29T09:59:38.001Z</time></trkpt><trkpt lat="15.149374684675202" lon="120.58112129102858"><ele>109.0</ele><time>2026-03-29T09:59:39.001Z</time></trkpt><trkpt lat="15.149377312163667" lon="120.58121143856584"><ele>109.0</ele><time>2026-03-29T09:59:40.001Z</time></trkpt><trkpt lat="15.149379494304458" lon="120.58128630652267"><ele>108.80000000000001</ele><time>2026-03-29T09:59:41.001Z</time></trkpt><trkpt lat="15.14938268293737" lon="120.5813957066258"><ele>108.60000000000001</ele><time>2026-03-29T09:59:43.001Z</time></trkpt><trkpt lat="15.149385013029091" lon="120.58147565064938"><ele>108.4</ele><time>2026-03-29T09:59:45.001Z</time></trkpt><trkpt lat="15.149528266372517" lon="120.58153106512626"><ele>108.2</ele><time>2026-03-29T09:59:49.001Z</time></trkpt><trkpt lat="15.149594961287345" lon="120.58152929933716"><ele>108.0</ele><time>2026-03-29T09:59:51.001Z</time></trkpt><trkpt lat="15.149683479141716" lon="120.58151725204901"><ele>108.0</ele><time>2026-03-29T09:59:53.001Z</time></trkpt><trkpt lat="15.149804274459521" lon="120.58152891055875"><ele>108.0</ele><time>2026-03-29T09:59:55.001Z</time></trkpt><trkpt lat="15.149873721833623" lon="120.5815194293373"><ele>108.0</ele><time>2026-03-29T09:59:56.001Z</time></trkpt><trkpt lat="15.149946641768137" lon="120.58151740280753"><ele>108.0</ele><time>2026-03-29T09:59:57.001Z</time></trkpt><trkpt lat="15.150022935677455" lon="120.58151723069624"><ele>108.0</ele><time>2026-03-29T09:59:58.001Z</time></trkpt><trkpt lat="15.150099953063041" lon="120.58151795201263"><ele>108.0</ele><time>2026-03-29T09:59:59.001Z</time></trkpt><trkpt lat="15.150176425913324" lon="120.58151958438266"><ele>106.66666666666667</ele><time>2026-03-29T10:00:00.001Z</time></trkpt><trkpt lat="15.150251216105758" lon="120.58152364644802"><ele>105.33333333333334</ele><time>2026-03-29T10:00:01.001Z</time></trkpt><trkpt lat="15.150325095710594" lon="120.58152983321759"><ele>104.0</ele><time>2026-03-29T10:00:02.001Z</time></trkpt><trkpt lat="15.150398252301814" lon="120.58153966774113"><ele>102.66666666666667</ele><time>2026-03-29T10:00:03.001Z</time></trkpt><trkpt lat="15.150468785653603" lon="120.58155060283272"><ele>101.33333333333334</ele><time>2026-03-29T10:00:04.001Z</time></trkpt><trkpt lat="15.150536217860973" lon="120.58156128339733"><ele>100.0</ele><time>2026-03-29T10:00:05.002Z</time></trkpt><trkpt lat="15.150643072119374" lon="120.58157765141695"><ele>99.16666666666667</ele><time>2026-03-29T10:00:07.002Z</time></trkpt><trkpt lat="15.150725648140067" lon="120.58159171921126"><ele>98.33333333333334</ele><time>2026-03-29T10:00:09.002Z</time></trkpt><trkpt lat="15.15079596290689" lon="120.58160357893055"><ele>97.5</ele><time>2026-03-29T10:00:12.002Z</time></trkpt><trkpt lat="15.150861230035416" lon="120.58162107448676"><ele>96.66666666666667</ele><time>2026-03-29T10:00:23.001Z</time></trkpt><trkpt lat="15.150911070982062" lon="120.58169173340279"><ele>95.83333333333334</ele><time>2026-03-29T10:00:27.001Z</time></trkpt><trkpt lat="15.150904198165746" lon="120.58176547053986"><ele>95.0</ele><time>2026-03-29T10:00:29.001Z</time></trkpt><trkpt lat="15.150896733367098" lon="120.58184556650696"><ele>95.0</ele><time>2026-03-29T10:00:31.001Z</time></trkpt><trkpt lat="15.150888671040082" lon="120.58193207382119"><ele>95.0</ele><time>2026-03-29T10:00:33.001Z</time></trkpt><trkpt lat="15.150880006785671" lon="120.582023410661"><ele>95.0</ele><time>2026-03-29T10:00:35.001Z</time></trkpt><trkpt lat="15.150876002658473" lon="120.58209753818805"><ele>95.0</ele><time>2026-03-29T10:00:37.001Z</time></trkpt><trkpt lat="15.150872991927393" lon="120.58217150959108"><ele>95.0</ele><time>2026-03-29T10:00:39.001Z</time></trkpt><trkpt lat="15.15086846015302" lon="120.58226024503487"><ele>95.0</ele><time>2026-03-29T10:00:41.001Z</time></trkpt><trkpt lat="15.150855034823177" lon="120.582361305057"><ele>95.2</ele><time>2026-03-29T10:00:43.001Z</time></trkpt><trkpt lat="15.150841335495471" lon="120.5824677753757"><ele>95.4</ele><time>2026-03-29T10:00:45.001Z</time></trkpt><trkpt lat="15.150830131948451" lon="120.5825722061767"><ele>95.6</ele><time>2026-03-29T10:00:47.001Z</time></trkpt><trkpt lat="15.150816135562327" lon="120.58267787331668"><ele>95.8</ele><time>2026-03-29T10:00:49.001Z</time></trkpt><trkpt lat="15.150801041454955" lon="120.58279413552319"><ele>96.0</ele><time>2026-03-29T10:00:51.001Z</time></trkpt><trkpt lat="15.150788963594028" lon="120.58290069191946"><ele>96.0</ele><time>2026-03-29T10:00:53.001Z</time></trkpt><trkpt lat="15.150776778232427" lon="120.58299247039811"><ele>96.0</ele><time>2026-03-29T10:00:55.001Z</time></trkpt><trkpt lat="15.150773038087387" lon="120.58308420896971"><ele>96.0</ele><time>2026-03-29T10:00:57.001Z</time></trkpt><trkpt lat="15.150769456812416" lon="120.58317496050294"><ele>96.0</ele><time>2026-03-29T10:00:59.001Z</time></trkpt><trkpt lat="15.150759652722414" lon="120.58327008907531"><ele>96.0</ele><time>2026-03-29T10:01:01.001Z</time></trkpt><trkpt lat="15.150748914180703" lon="120.5833687383909"><ele>96.0</ele><time>2026-03-29T10:01:03.001Z</time></trkpt><trkpt lat="15.150739164955793" lon="120.58347212496183"><ele>96.0</ele><time>2026-03-29T10:01:05.001Z</time></trkpt><trkpt lat="15.15073016332516" lon="120.58358160004664"><ele>96.0</ele><time>2026-03-29T10:01:07.001Z</time></trkpt><trkpt lat="15.15072058373214" lon="120.58368771427307"><ele>96.0</ele><time>2026-03-29T10:01:09.001Z</time></trkpt><trkpt lat="15.150711226172417" lon="120.58378982395519"><ele>96.0</ele><time>2026-03-29T10:01:11.001Z</time></trkpt><trkpt lat="15.150710152339238" lon="120.58387589962491"><ele>96.8</ele><time>2026-03-29T10:01:13.001Z</time></trkpt><trkpt lat="15.150731456817901" lon="120.58395216237723"><ele>97.6</ele><time>2026-03-29T10:01:15.001Z</time></trkpt><trkpt lat="15.1507760711073" lon="120.58401724452085"><ele>98.4</ele><time>2026-03-29T10:01:17.001Z</time></trkpt><trkpt lat="15.150850773925065" lon="120.58409835186687"><ele>99.2</ele><time>2026-03-29T10:01:19.001Z</time></trkpt><trkpt lat="15.150917940557061" lon="120.58417769748995"><ele>100.0</ele><time>2026-03-29T10:01:21.001Z</time></trkpt><trkpt lat="15.150980810872586" lon="120.58426734541376"><ele>100.00000000000001</ele><time>2026-03-29T10:01:23.001Z</time></trkpt><trkpt lat="15.151044540466577" lon="120.58437504073478"><ele>100.0</ele><time>2026-03-29T10:01:25.001Z</time></trkpt><trkpt lat="15.151077864097767" lon="120.58443854006681"><ele>100.0</ele><time>2026-03-29T10:01:26.001Z</time></trkpt><trkpt lat="15.151111438067595" lon="120.58450601320341"><ele>100.0</ele><time>2026-03-29T10:01:27.001Z</time></trkpt><trkpt lat="15.151144364880262" lon="120.58457567879005"><ele>100.00000000000001</ele><time>2026-03-29T10:01:28.001Z</time></trkpt><trkpt lat="15.151176565776536" lon="120.58464632341692"><ele>100.0</ele><time>2026-03-29T10:01:29.001Z</time></trkpt><trkpt lat="15.15120779459715" lon="120.58471675531474"><ele>100.16666666666667</ele><time>2026-03-29T10:01:30.001Z</time></trkpt><trkpt lat="15.15123674894492" lon="120.58478765925395"><ele>100.33333333333334</ele><time>2026-03-29T10:01:31.001Z</time></trkpt><trkpt lat="15.151265681758607" lon="120.58485937130708"><ele>100.5</ele><time>2026-03-29T10:01:32.002Z</time></trkpt><trkpt lat="15.151294801656661" lon="120.58493266948723"><ele>100.66666666666666</ele><time>2026-03-29T10:01:33.002Z</time></trkpt><trkpt lat="15.151325232908174" lon="120.58500757791462"><ele>100.83333333333333</ele><time>2026-03-29T10:01:34.002Z</time></trkpt><trkpt lat="15.151354747841975" lon="120.5850866702854"><ele>101.0</ele><time>2026-03-29T10:01:35.002Z</time></trkpt><trkpt lat="15.151382649464953" lon="120.58516718786156"><ele>100.99999999999999</ele><time>2026-03-29T10:01:36.002Z</time></trkpt><trkpt lat="15.151410119758136" lon="120.58524765876767"><ele>101.0</ele><time>2026-03-29T10:01:37.002Z</time></trkpt><trkpt lat="15.15143648264305" lon="120.5853280641313"><ele>101.0</ele><time>2026-03-29T10:01:38.002Z</time></trkpt><trkpt lat="15.151461304395571" lon="120.58540842026306"><ele>101.0</ele><time>2026-03-29T10:01:39.002Z</time></trkpt><trkpt lat="15.151484331457784" lon="120.58548482097865"><ele>100.99999999999999</ele><time>2026-03-29T10:01:40.002Z</time></trkpt><trkpt lat="15.15150525849784" lon="120.58555303550685"><ele>101.0</ele><time>2026-03-29T10:01:41.002Z</time></trkpt><trkpt lat="15.15152416820659" lon="120.58561679120257"><ele>100.19999999999999</ele><time>2026-03-29T10:01:42.002Z</time></trkpt><trkpt lat="15.151556066810326" lon="120.5857212316269"><ele>99.39999999999999</ele><time>2026-03-29T10:01:44.002Z</time></trkpt><trkpt lat="15.151589105120312" lon="120.58582026520726"><ele>98.6</ele><time>2026-03-29T10:01:46.002Z</time></trkpt><trkpt lat="15.15162366350773" lon="120.5859178338855"><ele>97.8</ele><time>2026-03-29T10:01:48.002Z</time></trkpt><trkpt lat="15.151655479116206" lon="120.58601477475726"><ele>97.0</ele><time>2026-03-29T10:01:50.002Z</time></trkpt><trkpt lat="15.151684485039024" lon="120.58610749046879"><ele>97.33333333333334</ele><time>2026-03-29T10:01:52.002Z</time></trkpt><trkpt lat="15.15171166096654" lon="120.58618924398961"><ele>97.66666666666667</ele><time>2026-03-29T10:01:54.002Z</time></trkpt><trkpt lat="15.151737544510281" lon="120.58626338219554"><ele>98.0</ele><time>2026-03-29T10:01:56.002Z</time></trkpt><trkpt lat="15.15176109381669" lon="120.58632833884809"><ele>98.33333333333334</ele><time>2026-03-29T10:01:58.002Z</time></trkpt><trkpt lat="15.151787935732953" lon="120.58640067082445"><ele>98.66666666666667</ele><time>2026-03-29T10:02:00.002Z</time></trkpt><trkpt lat="15.151816844305387" lon="120.58647596601784"><ele>99.0</ele><time>2026-03-29T10:02:02.002Z</time></trkpt><trkpt lat="15.151849117827313" lon="120.5865548563759"><ele>99.0</ele><time>2026-03-29T10:02:04.002Z</time></trkpt><trkpt lat="15.151883221701276" lon="120.58663545642925"><ele>99.0</ele><time>2026-03-29T10:02:06.002Z</time></trkpt><trkpt lat="15.151929093912429" lon="120.58672432426523"><ele>99.0</ele><time>2026-03-29T10:02:08.002Z</time></trkpt><trkpt lat="15.151990240856607" lon="120.58683136371337"><ele>99.0</ele><time>2026-03-29T10:02:10.002Z</time></trkpt><trkpt lat="15.152024033765809" lon="120.5868917197844"><ele>99.0</ele><time>2026-03-29T10:02:11.002Z</time></trkpt><trkpt lat="15.152061235560081" lon="120.58695856681587"><ele>99.0</ele><time>2026-03-29T10:02:12.002Z</time></trkpt><trkpt lat="15.152099859584984" lon="120.58702981887751"><ele>99.33333333333333</ele><time>2026-03-29T10:02:13.002Z</time></trkpt><trkpt lat="15.152138315143821" lon="120.58710388023717"><ele>99.66666666666666</ele><time>2026-03-29T10:02:14.002Z</time></trkpt><trkpt lat="15.152177857309896" lon="120.58717943944409"><ele>100.0</ele><time>2026-03-29T10:02:15.002Z</time></trkpt><trkpt lat="15.152214623529792" lon="120.58725546411999"><ele>100.33333333333333</ele><time>2026-03-29T10:02:16.002Z</time></trkpt><trkpt lat="15.15224866438236" lon="120.58733226172144"><ele>100.66666666666666</ele><time>2026-03-29T10:02:17.002Z</time></trkpt><trkpt lat="15.152279637282478" lon="120.58740821202947"><ele>101.0</ele><time>2026-03-29T10:02:18.002Z</time></trkpt><trkpt lat="15.152306060980049" lon="120.58748188387031"><ele>100.99999999999999</ele><time>2026-03-29T10:02:19.002Z</time></trkpt><trkpt lat="15.15233015737503" lon="120.5875538101969"><ele>101.0</ele><time>2026-03-29T10:02:20.002Z</time></trkpt><trkpt lat="15.152354332750033" lon="120.5876246232603"><ele>101.0</ele><time>2026-03-29T10:02:21.002Z</time></trkpt><trkpt lat="15.152377205818661" lon="120.58769672937485"><ele>101.0</ele><time>2026-03-29T10:02:22.002Z</time></trkpt><trkpt lat="15.15239881321973" lon="120.58777671313898"><ele>100.99999999999999</ele><time>2026-03-29T10:02:23.002Z</time></trkpt><trkpt lat="15.152415731516905" lon="120.5878605728887"><ele>101.0</ele><time>2026-03-29T10:02:24.002Z</time></trkpt><trkpt lat="15.152430162857522" lon="120.58794445812035"><ele>99.66666666666666</ele><time>2026-03-29T10:02:25.002Z</time></trkpt><trkpt lat="15.152443751064016" lon="120.5880250492896"><ele>98.33333333333333</ele><time>2026-03-29T10:02:26.002Z</time></trkpt><trkpt lat="15.152456562600232" lon="120.58810292030024"><ele>97.0</ele><time>2026-03-29T10:02:27.002Z</time></trkpt><trkpt lat="15.152470037223162" lon="120.58818814225775"><ele>95.66666666666666</ele><time>2026-03-29T10:02:28.002Z</time></trkpt><trkpt lat="15.152475995262433" lon="120.58828002829439"><ele>94.33333333333333</ele><time>2026-03-29T10:02:29.002Z</time></trkpt><trkpt lat="15.152479523992053" lon="120.58837009357715"><ele>93.0</ele><time>2026-03-29T10:02:30.002Z</time></trkpt><trkpt lat="15.152486152294733" lon="120.58845971374481"><ele>93.0</ele><time>2026-03-29T10:02:31.002Z</time></trkpt><trkpt lat="15.152495180363895" lon="120.58854487071389"><ele>93.0</ele><time>2026-03-29T10:02:32.002Z</time></trkpt><trkpt lat="15.152504586235013" lon="120.58861596970041"><ele>93.0</ele><time>2026-03-29T10:02:33.002Z</time></trkpt><trkpt lat="15.15252042682322" lon="120.5887209816295"><ele>93.0</ele><time>2026-03-29T10:02:35.002Z</time></trkpt><trkpt lat="15.152541422124472" lon="120.58882469851649"><ele>93.0</ele><time>2026-03-29T10:02:37.001Z</time></trkpt><trkpt lat="15.152565890295273" lon="120.58893088862148"><ele>93.80000000000001</ele><time>2026-03-29T10:02:39.001Z</time></trkpt><trkpt lat="15.152587207105322" lon="120.58904967830581"><ele>94.6</ele><time>2026-03-29T10:02:41.001Z</time></trkpt><trkpt lat="15.152606377110018" lon="120.58914885401977"><ele>95.4</ele><time>2026-03-29T10:02:43.001Z</time></trkpt><trkpt lat="15.15262278595483" lon="120.58923339053874"><ele>96.19999999999999</ele><time>2026-03-29T10:02:47.001Z</time></trkpt><trkpt lat="15.152632091524787" lon="120.58929797227874"><ele>97.0</ele><time>2026-03-29T10:02:49.001Z</time></trkpt><trkpt lat="15.152647712225205" lon="120.58939090283619"><ele>97.0</ele><time>2026-03-29T10:02:51.001Z</time></trkpt><trkpt lat="15.152672331333287" lon="120.58949874950311"><ele>97.0</ele><time>2026-03-29T10:02:53.001Z</time></trkpt><trkpt lat="15.152704249976647" lon="120.58961246422173"><ele>97.0</ele><time>2026-03-29T10:02:55.001Z</time></trkpt><trkpt lat="15.152722049836953" lon="120.58973949776919"><ele>97.0</ele><time>2026-03-29T10:02:57.001Z</time></trkpt><trkpt lat="15.152746275187118" lon="120.5898583728213"><ele>97.50000000000001</ele><time>2026-03-29T10:02:59.001Z</time></trkpt><trkpt lat="15.152787207682229" lon="120.58997395679164"><ele>98.0</ele><time>2026-03-29T10:03:01.001Z</time></trkpt><trkpt lat="15.152811698491378" lon="120.59003442956603"><ele>98.5</ele><time>2026-03-29T10:03:02.001Z</time></trkpt><trkpt lat="15.152838111625043" lon="120.59009721455563"><ele>99.0</ele><time>2026-03-29T10:03:03.001Z</time></trkpt><trkpt lat="15.152865300556678" lon="120.59016167897862"><ele>99.50000000000001</ele><time>2026-03-29T10:03:04.001Z</time></trkpt><trkpt lat="15.152896890372613" lon="120.5902254770779"><ele>100.0</ele><time>2026-03-29T10:03:05.001Z</time></trkpt><trkpt lat="15.152930055367174" lon="120.59028746868282"><ele>100.00000000000001</ele><time>2026-03-29T10:03:06.001Z</time></trkpt><trkpt lat="15.152964887584417" lon="120.59035261166301"><ele>100.0</ele><time>2026-03-29T10:03:07.001Z</time></trkpt><trkpt lat="15.153004616228415" lon="120.59042258501"><ele>100.0</ele><time>2026-03-29T10:03:08.001Z</time></trkpt><trkpt lat="15.153047139383114" lon="120.59049362558873"><ele>100.0</ele><time>2026-03-29T10:03:09.001Z</time></trkpt><trkpt lat="15.153089996027688" lon="120.59056803380453"><ele>100.00000000000001</ele><time>2026-03-29T10:03:10.001Z</time></trkpt><trkpt lat="15.153133019769477" lon="120.59064667439628"><ele>100.0</ele><time>2026-03-29T10:03:11.001Z</time></trkpt><trkpt lat="15.153177862326782" lon="120.59072874089541"><ele>99.66666666666667</ele><time>2026-03-29T10:03:12.002Z</time></trkpt><trkpt lat="15.153222657940034" lon="120.59081176941064"><ele>99.33333333333334</ele><time>2026-03-29T10:03:13.002Z</time></trkpt><trkpt lat="15.153267828949682" lon="120.59089266189821"><ele>99.0</ele><time>2026-03-29T10:03:14.002Z</time></trkpt><trkpt lat="15.153313891585213" lon="120.59097014677072"><ele>98.66666666666666</ele><time>2026-03-29T10:03:15.002Z</time></trkpt><trkpt lat="15.153361890226881" lon="120.5910464615081"><ele>98.33333333333333</ele><time>2026-03-29T10:03:16.002Z</time></trkpt><trkpt lat="15.153407981637244" lon="120.59111954888895"><ele>98.0</ele><time>2026-03-29T10:03:17.002Z</time></trkpt><trkpt lat="15.153453485806498" lon="120.59119283460423"><ele>98.0</ele><time>2026-03-29T10:03:18.002Z</time></trkpt><trkpt lat="15.153496709821773" lon="120.59126361522648"><ele>98.0</ele><time>2026-03-29T10:03:19.002Z</time></trkpt><trkpt lat="15.15353853322566" lon="120.59132961168241"><ele>98.0</ele><time>2026-03-29T10:03:20.002Z</time></trkpt><trkpt lat="15.153580625032324" lon="120.5913926139602"><ele>98.0</ele><time>2026-03-29T10:03:21.002Z</time></trkpt><trkpt lat="15.153621138528026" lon="120.5914495513517"><ele>98.0</ele><time>2026-03-29T10:03:22.002Z</time></trkpt><trkpt lat="15.153665206784535" lon="120.5915091114763"><ele>98.0</ele><time>2026-03-29T10:03:23.002Z</time></trkpt><trkpt lat="15.153712862003673" lon="120.59156887487599"><ele>98.0</ele><time>2026-03-29T10:03:24.002Z</time></trkpt><trkpt lat="15.153750717159" lon="120.59164019047195"><ele>97.99999999999999</ele><time>2026-03-29T10:03:25.002Z</time></trkpt><trkpt lat="15.153809390974702" lon="120.59170101639836"><ele>98.0</ele><time>2026-03-29T10:03:26.002Z</time></trkpt><trkpt lat="15.153872302309756" lon="120.5917509810922"><ele>98.0</ele><time>2026-03-29T10:03:27.002Z</time></trkpt><trkpt lat="15.153945548595262" lon="120.59178924613417"><ele>98.0</ele><time>2026-03-29T10:03:28.002Z</time></trkpt><trkpt lat="15.154008943306128" lon="120.59184077894761"><ele>97.99999999999999</ele><time>2026-03-29T10:03:29.002Z</time></trkpt><trkpt lat="15.154071183430164" lon="120.5918889813763"><ele>98.0</ele><time>2026-03-29T10:03:30.002Z</time></trkpt><trkpt lat="15.154126720669288" lon="120.59193449109019"><ele>97.33333333333333</ele><time>2026-03-29T10:03:31.002Z</time></trkpt><trkpt lat="15.15417478438958" lon="120.5919801111869"><ele>96.66666666666666</ele><time>2026-03-29T10:03:32.002Z</time></trkpt><trkpt lat="15.15423543404751" lon="120.59206731776429"><ele>96.0</ele><time>2026-03-29T10:03:34.002Z</time></trkpt><trkpt lat="15.15430454960929" lon="120.59214197427005"><ele>95.33333333333333</ele><time>2026-03-29T10:03:36.002Z</time></trkpt><trkpt lat="15.154393518590357" lon="120.59220355006475"><ele>94.66666666666666</ele><time>2026-03-29T10:03:38.002Z</time></trkpt><trkpt lat="15.15444176430377" lon="120.59224643866432"><ele>94.0</ele><time>2026-03-29T10:03:39.002Z</time></trkpt><trkpt lat="15.15452900757937" lon="120.59234763121866"><ele>94.0</ele><time>2026-03-29T10:03:41.002Z</time></trkpt><trkpt lat="15.154571931729349" lon="120.59240251348672"><ele>94.0</ele><time>2026-03-29T10:03:42.002Z</time></trkpt><trkpt lat="15.154616597546168" lon="120.59246242658733"><ele>94.0</ele><time>2026-03-29T10:03:43.002Z</time></trkpt><trkpt lat="15.154664096665307" lon="120.59252299411231"><ele>94.0</ele><time>2026-03-29T10:03:44.002Z</time></trkpt><trkpt lat="15.154716340636302" lon="120.59258135529497"><ele>94.0</ele><time>2026-03-29T10:03:45.002Z</time></trkpt><trkpt lat="15.154765420060556" lon="120.59263891224464"><ele>94.0</ele><time>2026-03-29T10:03:46.002Z</time></trkpt><trkpt lat="15.154811577764654" lon="120.59270472494858"><ele>94.0</ele><time>2026-03-29T10:03:47.002Z</time></trkpt><trkpt lat="15.154855178040982" lon="120.59277482801646"><ele>94.0</ele><time>2026-03-29T10:03:48.002Z</time></trkpt><trkpt lat="15.154898423867941" lon="120.59284222900517"><ele>94.0</ele><time>2026-03-29T10:03:49.002Z</time></trkpt><trkpt lat="15.15494613748214" lon="120.592904674392"><ele>94.0</ele><time>2026-03-29T10:03:50.002Z</time></trkpt><trkpt lat="15.154999424915161" lon="120.5929652832173"><ele>94.0</ele><time>2026-03-29T10:03:51.002Z</time></trkpt><trkpt lat="15.155054125132663" lon="120.59302509543805"><ele>94.0</ele><time>2026-03-29T10:03:52.002Z</time></trkpt><trkpt lat="15.155113182274546" lon="120.59308456439247"><ele>94.0</ele><time>2026-03-29T10:03:53.002Z</time></trkpt><trkpt lat="15.155180834818438" lon="120.59314545681823"><ele>94.0</ele><time>2026-03-29T10:03:54.002Z</time></trkpt><trkpt lat="15.155253454722322" lon="120.5932066190732"><ele>94.0</ele><time>2026-03-29T10:03:55.002Z</time></trkpt><trkpt lat="15.15532111780847" lon="120.59328295434827"><ele>94.0</ele><time>2026-03-29T10:03:56.002Z</time></trkpt><trkpt lat="15.155396013659592" lon="120.59335249002628"><ele>94.0</ele><time>2026-03-29T10:03:57.002Z</time></trkpt><trkpt lat="15.155472497853838" lon="120.59342516568823"><ele>94.0</ele><time>2026-03-29T10:03:58.002Z</time></trkpt><trkpt lat="15.155556036499577" lon="120.59349095909737"><ele>94.0</ele><time>2026-03-29T10:03:59.002Z</time></trkpt><trkpt lat="15.155620013655273" lon="120.59357155760239"><ele>94.0</ele><time>2026-03-29T10:04:00.002Z</time></trkpt><trkpt lat="15.155683113764105" lon="120.59365560371076"><ele>94.0</ele><time>2026-03-29T10:04:01.002Z</time></trkpt><trkpt lat="15.155744899286047" lon="120.59373969434628"><ele>94.0</ele><time>2026-03-29T10:04:02.002Z</time></trkpt><trkpt lat="15.15580780180961" lon="120.59382142525334"><ele>94.0</ele><time>2026-03-29T10:04:03.002Z</time></trkpt><trkpt lat="15.155869777827165" lon="120.5939030658438"><ele>93.2</ele><time>2026-03-29T10:04:04.002Z</time></trkpt><trkpt lat="15.155932025926823" lon="120.59398587249764"><ele>92.4</ele><time>2026-03-29T10:04:05.002Z</time></trkpt><trkpt lat="15.155995094935752" lon="120.59407076756348"><ele>91.6</ele><time>2026-03-29T10:04:06.002Z</time></trkpt><trkpt lat="15.15606007343158" lon="120.59415755803677"><ele>90.8</ele><time>2026-03-29T10:04:07.002Z</time></trkpt><trkpt lat="15.156126984462846" lon="120.59424758936505"><ele>90.0</ele><time>2026-03-29T10:04:08.002Z</time></trkpt><trkpt lat="15.156195718900353" lon="120.59433891523472"><ele>90.0</ele><time>2026-03-29T10:04:09.002Z</time></trkpt><trkpt lat="15.15626489469473" lon="120.5944305140338"><ele>90.0</ele><time>2026-03-29T10:04:10.002Z</time></trkpt><trkpt lat="15.156330851405816" lon="120.59452039413152"><ele>90.0</ele><time>2026-03-29T10:04:11.002Z</time></trkpt><trkpt lat="15.156393280753898" lon="120.5946068655159"><ele>90.0</ele><time>2026-03-29T10:04:12.002Z</time></trkpt><trkpt lat="15.156454315155198" lon="120.59468916803654"><ele>90.0</ele><time>2026-03-29T10:04:13.002Z</time></trkpt><trkpt lat="15.156513562699713" lon="120.59476926595558"><ele>89.4</ele><time>2026-03-29T10:04:14.002Z</time></trkpt><trkpt lat="15.156573301476046" lon="120.59484760864255"><ele>88.8</ele><time>2026-03-29T10:04:15.002Z</time></trkpt><trkpt lat="15.15662981020057" lon="120.59492483994485"><ele>88.19999999999999</ele><time>2026-03-29T10:04:16.002Z</time></trkpt><trkpt lat="15.156686366162326" lon="120.59500040253012"><ele>87.6</ele><time>2026-03-29T10:04:17.002Z</time></trkpt><trkpt lat="15.156743374753319" lon="120.59507304734849"><ele>87.0</ele><time>2026-03-29T10:04:18.002Z</time></trkpt><trkpt lat="15.156799214341845" lon="120.59514590484795"><ele>87.0</ele><time>2026-03-29T10:04:19.002Z</time></trkpt><trkpt lat="15.156847917015146" lon="120.59522270063846"><ele>87.0</ele><time>2026-03-29T10:04:20.002Z</time></trkpt><trkpt lat="15.156885562290336" lon="120.59530323422237"><ele>87.0</ele><time>2026-03-29T10:04:21.002Z</time></trkpt><trkpt lat="15.15691198035578" lon="120.59538515236962"><ele>87.0</ele><time>2026-03-29T10:04:22.002Z</time></trkpt><trkpt lat="15.156935190601269" lon="120.5954694550719"><ele>87.0</ele><time>2026-03-29T10:04:23.002Z</time></trkpt><trkpt lat="15.156960254472256" lon="120.59555666326956"><ele>87.0</ele><time>2026-03-29T10:04:24.002Z</time></trkpt><trkpt lat="15.156988390979278" lon="120.59564972618129"><ele>87.39999999999999</ele><time>2026-03-29T10:04:25.002Z</time></trkpt><trkpt lat="15.157018874093986" lon="120.59574863639783"><ele>87.8</ele><time>2026-03-29T10:04:26.002Z</time></trkpt><trkpt lat="15.157051344887083" lon="120.59585430826378"><ele>88.2</ele><time>2026-03-29T10:04:27.003Z</time></trkpt><trkpt lat="15.157084121108285" lon="120.59596704725412"><ele>88.6</ele><time>2026-03-29T10:04:28.003Z</time></trkpt><trkpt lat="15.157113866590864" lon="120.596081962479"><ele>89.0</ele><time>2026-03-29T10:04:29.003Z</time></trkpt><trkpt lat="15.157141788969232" lon="120.59619733656345"><ele>89.4</ele><time>2026-03-29T10:04:30.003Z</time></trkpt><trkpt lat="15.157167407731617" lon="120.59631211325676"><ele>89.80000000000001</ele><time>2026-03-29T10:04:31.003Z</time></trkpt><trkpt lat="15.157191098502983" lon="120.59642550668634"><ele>90.19999999999999</ele><time>2026-03-29T10:04:32.003Z</time></trkpt><trkpt lat="15.15721547330215" lon="120.59653582917953"><ele>90.6</ele><time>2026-03-29T10:04:33.002Z</time></trkpt><trkpt lat="15.157238833330583" lon="120.59664315810012"><ele>91.0</ele><time>2026-03-29T10:04:34.002Z</time></trkpt><trkpt lat="15.157260720400604" lon="120.59674995779092"><ele>91.0</ele><time>2026-03-29T10:04:35.002Z</time></trkpt><trkpt lat="15.157280714027902" lon="120.59685009306936"><ele>91.0</ele><time>2026-03-29T10:04:36.002Z</time></trkpt><trkpt lat="15.157298232184711" lon="120.59694623182224"><ele>91.0</ele><time>2026-03-29T10:04:37.002Z</time></trkpt><trkpt lat="15.157314806365129" lon="120.59704122706128"><ele>91.0</ele><time>2026-03-29T10:04:38.002Z</time></trkpt><trkpt lat="15.157330762775866" lon="120.59713348639049"><ele>91.0</ele><time>2026-03-29T10:04:39.002Z</time></trkpt><trkpt lat="15.157347794532726" lon="120.59722666131594"><ele>91.0</ele><time>2026-03-29T10:04:40.002Z</time></trkpt><trkpt lat="15.157368752143599" lon="120.59731957322686"><ele>91.0</ele><time>2026-03-29T10:04:41.002Z</time></trkpt><trkpt lat="15.15738166502752" lon="120.59741056727958"><ele>91.0</ele><time>2026-03-29T10:04:42.002Z</time></trkpt><trkpt lat="15.157395566084562" lon="120.59750136448136"><ele>91.0</ele><time>2026-03-29T10:04:43.002Z</time></trkpt><trkpt lat="15.157409989195788" lon="120.59758749092884"><ele>91.0</ele><time>2026-03-29T10:04:44.002Z</time></trkpt><trkpt lat="15.157423730358083" lon="120.59767170705207"><ele>91.0</ele><time>2026-03-29T10:04:45.002Z</time></trkpt><trkpt lat="15.157437571593471" lon="120.59775300749176"><ele>90.66666666666666</ele><time>2026-03-29T10:04:46.002Z</time></trkpt><trkpt lat="15.157451550578864" lon="120.59783776948576"><ele>90.33333333333333</ele><time>2026-03-29T10:04:47.002Z</time></trkpt><trkpt lat="15.157465831631109" lon="120.59792411178941"><ele>90.0</ele><time>2026-03-29T10:04:48.002Z</time></trkpt><trkpt lat="15.157480880769487" lon="120.59800773431574"><ele>89.66666666666667</ele><time>2026-03-29T10:04:49.002Z</time></trkpt><trkpt lat="15.157495653878899" lon="120.5980897540231"><ele>89.33333333333334</ele><time>2026-03-29T10:04:50.002Z</time></trkpt><trkpt lat="15.157509718709438" lon="120.59817112444604"><ele>89.0</ele><time>2026-03-29T10:04:51.002Z</time></trkpt><trkpt lat="15.157522456590119" lon="120.59825309543936"><ele>89.0</ele><time>2026-03-29T10:04:52.002Z</time></trkpt><trkpt lat="15.157535980001116" lon="120.59833341370079"><ele>89.0</ele><time>2026-03-29T10:04:53.002Z</time></trkpt><trkpt lat="15.157548622201512" lon="120.59841306201518"><ele>89.0</ele><time>2026-03-29T10:04:54.002Z</time></trkpt><trkpt lat="15.157561198575578" lon="120.59849007569917"><ele>89.0</ele><time>2026-03-29T10:04:55.002Z</time></trkpt><trkpt lat="15.157571647088387" lon="120.59855734392215"><ele>89.0</ele><time>2026-03-29T10:04:56.002Z</time></trkpt><trkpt lat="15.15758152623179" lon="120.59862316267233"><ele>89.0</ele><time>2026-03-29T10:04:57.002Z</time></trkpt><trkpt lat="15.157601633663795" lon="120.59874981119373"><ele>88.33333333333334</ele><time>2026-03-29T10:04:59.002Z</time></trkpt><trkpt lat="15.157621515734256" lon="120.59887671826523"><ele>87.66666666666667</ele><time>2026-03-29T10:05:01.002Z</time></trkpt><trkpt lat="15.157630506979425" lon="120.5989442176146"><ele>87.0</ele><time>2026-03-29T10:05:02.002Z</time></trkpt><trkpt lat="15.15763908029479" lon="120.59901092112506"><ele>86.33333333333333</ele><time>2026-03-29T10:05:03.002Z</time></trkpt><trkpt lat="15.157647553175165" lon="120.5990763753358"><ele>85.66666666666666</ele><time>2026-03-29T10:05:04.002Z</time></trkpt><trkpt lat="15.157665254746558" lon="120.59920145499333"><ele>85.0</ele><time>2026-03-29T10:05:06.002Z</time></trkpt><trkpt lat="15.157680689909292" lon="120.59930758706646"><ele>85.0</ele><time>2026-03-29T10:05:08.002Z</time></trkpt><trkpt lat="15.15769967273445" lon="120.59941329541107"><ele>85.0</ele><time>2026-03-29T10:05:10.002Z</time></trkpt><trkpt lat="15.157713209077667" lon="120.59953290251006"><ele>85.0</ele><time>2026-03-29T10:05:12.002Z</time></trkpt><trkpt lat="15.15772281161067" lon="120.5995997147546"><ele>85.0</ele><time>2026-03-29T10:05:13.002Z</time></trkpt><trkpt lat="15.15773290308857" lon="120.59966950407656"><ele>85.0</ele><time>2026-03-29T10:05:14.002Z</time></trkpt><trkpt lat="15.157743688844644" lon="120.5997406980129"><ele>85.0</ele><time>2026-03-29T10:05:15.002Z</time></trkpt><trkpt lat="15.157753730559829" lon="120.59981167012096"><ele>85.0</ele><time>2026-03-29T10:05:16.002Z</time></trkpt><trkpt lat="15.157764695172615" lon="120.59988082592037"><ele>85.0</ele><time>2026-03-29T10:05:17.002Z</time></trkpt><trkpt lat="15.157777138291172" lon="120.59995105075973"><ele>85.0</ele><time>2026-03-29T10:05:18.002Z</time></trkpt><trkpt lat="15.157787836159299" lon="120.60002240531485"><ele>85.0</ele><time>2026-03-29T10:05:19.002Z</time></trkpt><trkpt lat="15.157797062814119" lon="120.60009724834663"><ele>85.0</ele><time>2026-03-29T10:05:20.002Z</time></trkpt><trkpt lat="15.157806628611334" lon="120.6001722647969"><ele>85.0</ele><time>2026-03-29T10:05:21.002Z</time></trkpt><trkpt lat="15.157816308521092" lon="120.60024962332912"><ele>85.0</ele><time>2026-03-29T10:05:22.002Z</time></trkpt><trkpt lat="15.157825300758788" lon="120.6003264176516"><ele>84.83333333333333</ele><time>2026-03-29T10:05:23.002Z</time></trkpt><trkpt lat="15.157833561426402" lon="120.60040359755895"><ele>84.66666666666666</ele><time>2026-03-29T10:05:24.002Z</time></trkpt><trkpt lat="15.15784182860674" lon="120.60048186937236"><ele>84.5</ele><time>2026-03-29T10:05:25.002Z</time></trkpt><trkpt lat="15.157849896582594" lon="120.60056144613087"><ele>84.33333333333333</ele><time>2026-03-29T10:05:26.002Z</time></trkpt><trkpt lat="15.157859574422357" lon="120.60064141951338"><ele>84.16666666666667</ele><time>2026-03-29T10:05:27.002Z</time></trkpt><trkpt lat="15.157870413995347" lon="120.60072360974586"><ele>84.0</ele><time>2026-03-29T10:05:28.002Z</time></trkpt><trkpt lat="15.157882126128262" lon="120.60080703825109"><ele>84.0</ele><time>2026-03-29T10:05:29.002Z</time></trkpt><trkpt lat="15.15789404548914" lon="120.60089385284576"><ele>84.0</ele><time>2026-03-29T10:05:30.002Z</time></trkpt><trkpt lat="15.15790521537273" lon="120.60098238710192"><ele>84.0</ele><time>2026-03-29T10:05:31.002Z</time></trkpt><trkpt lat="15.157916610681943" lon="120.60107422697598"><ele>84.0</ele><time>2026-03-29T10:05:32.002Z</time></trkpt><trkpt lat="15.157927564613646" lon="120.60116685821662"><ele>84.0</ele><time>2026-03-29T10:05:33.002Z</time></trkpt><trkpt lat="15.157938806276515" lon="120.60126078095385"><ele>84.0</ele><time>2026-03-29T10:05:34.002Z</time></trkpt><trkpt lat="15.15794783855478" lon="120.60135466009248"><ele>84.2</ele><time>2026-03-29T10:05:35.002Z</time></trkpt><trkpt lat="15.15795721057485" lon="120.601450787451"><ele>84.4</ele><time>2026-03-29T10:05:36.002Z</time></trkpt><trkpt lat="15.157966135847696" lon="120.60154685900106"><ele>84.6</ele><time>2026-03-29T10:05:37.002Z</time></trkpt><trkpt lat="15.157975359190479" lon="120.60164140465074"><ele>84.8</ele><time>2026-03-29T10:05:38.002Z</time></trkpt><trkpt lat="15.157985213525269" lon="120.60173434897145"><ele>85.0</ele><time>2026-03-29T10:05:39.002Z</time></trkpt><trkpt lat="15.157996037654978" lon="120.60182502442278"><ele>85.0</ele><time>2026-03-29T10:05:40.002Z</time></trkpt><trkpt lat="15.158005911447768" lon="120.60191205853275"><ele>85.0</ele><time>2026-03-29T10:05:41.002Z</time></trkpt><trkpt lat="15.158013683563613" lon="120.601990397667"><ele>85.0</ele><time>2026-03-29T10:05:42.002Z</time></trkpt><trkpt lat="15.158020608515661" lon="120.60206482482141"><ele>85.0</ele><time>2026-03-29T10:05:43.002Z</time></trkpt><trkpt lat="15.158027173897558" lon="120.60213382921377"><ele>85.0</ele><time>2026-03-29T10:05:44.002Z</time></trkpt><trkpt lat="15.158041551102656" lon="120.6022500700269"><ele>85.0</ele><time>2026-03-29T10:05:46.002Z</time></trkpt><trkpt lat="15.158079318550408" lon="120.60233487961582"><ele>84.66666666666666</ele><time>2026-03-29T10:05:48.002Z</time></trkpt><trkpt lat="15.158159502757192" lon="120.60239564846134"><ele>84.33333333333333</ele><time>2026-03-29T10:05:50.002Z</time></trkpt><trkpt lat="15.158254461274181" lon="120.60237771816412"><ele>84.0</ele><time>2026-03-29T10:05:52.002Z</time></trkpt><trkpt lat="15.158372302629598" lon="120.60236315017282"><ele>83.66666666666667</ele><time>2026-03-29T10:05:54.002Z</time></trkpt><trkpt lat="15.158436681231949" lon="120.60235495335934"><ele>83.33333333333334</ele><time>2026-03-29T10:05:55.002Z</time></trkpt><trkpt lat="15.158502870533109" lon="120.60234610936878"><ele>83.0</ele><time>2026-03-29T10:05:56.002Z</time></trkpt><trkpt lat="15.158571474381938" lon="120.60233726647402"><ele>82.16666666666667</ele><time>2026-03-29T10:05:57.002Z</time></trkpt><trkpt lat="15.15863635074878" lon="120.60232920985428"><ele>81.33333333333334</ele><time>2026-03-29T10:05:58.002Z</time></trkpt><trkpt lat="15.158745634708675" lon="120.60231583252624"><ele>80.5</ele><time>2026-03-29T10:06:00.002Z</time></trkpt><trkpt lat="15.158820935460934" lon="120.60230737074072"><ele>79.66666666666667</ele><time>2026-03-29T10:06:02.002Z</time></trkpt><trkpt lat="15.158890580192512" lon="120.60233829551433"><ele>78.83333333333333</ele><time>2026-03-29T10:06:05.002Z</time></trkpt><trkpt lat="15.158916320273539" lon="120.6024131063419"><ele>78.0</ele><time>2026-03-29T10:06:07.002Z</time></trkpt><trkpt lat="15.158929298173739" lon="120.60252924040427"><ele>78.0</ele><time>2026-03-29T10:06:09.002Z</time></trkpt><trkpt lat="15.158936133180784" lon="120.60260157615802"><ele>78.0</ele><time>2026-03-29T10:06:10.002Z</time></trkpt><trkpt lat="15.158944141441623" lon="120.60268077539642"><ele>78.0</ele><time>2026-03-29T10:06:11.002Z</time></trkpt><trkpt lat="15.158954588224802" lon="120.60276653212277"><ele>78.0</ele><time>2026-03-29T10:06:12.002Z</time></trkpt><trkpt lat="15.158965689661073" lon="120.60285617255967"><ele>78.0</ele><time>2026-03-29T10:06:13.002Z</time></trkpt><trkpt lat="15.158976020346989" lon="120.60295047073376"><ele>78.0</ele><time>2026-03-29T10:06:14.002Z</time></trkpt><trkpt lat="15.158985431977971" lon="120.60304718581293"><ele>78.0</ele><time>2026-03-29T10:06:15.002Z</time></trkpt><trkpt lat="15.158994515786864" lon="120.60314724059887"><ele>78.0</ele><time>2026-03-29T10:06:16.002Z</time></trkpt><trkpt lat="15.159004187123012" lon="120.6032467694281"><ele>78.0</ele><time>2026-03-29T10:06:17.002Z</time></trkpt><trkpt lat="15.15901340858218" lon="120.60334428461013"><ele>78.0</ele><time>2026-03-29T10:06:18.002Z</time></trkpt><trkpt lat="15.159022968760006" lon="120.60344149727617"><ele>78.0</ele><time>2026-03-29T10:06:19.002Z</time></trkpt><trkpt lat="15.159033055348987" lon="120.60353792432552"><ele>77.6</ele><time>2026-03-29T10:06:20.002Z</time></trkpt><trkpt lat="15.159044047977071" lon="120.60363521727109"><ele>77.19999999999999</ele><time>2026-03-29T10:06:21.002Z</time></trkpt><trkpt lat="15.159055062804212" lon="120.60373453985449"><ele>76.8</ele><time>2026-03-29T10:06:22.002Z</time></trkpt><trkpt lat="15.159066818492361" lon="120.6038362094856"><ele>76.39999999999999</ele><time>2026-03-29T10:06:23.002Z</time></trkpt><trkpt lat="15.159078473889293" lon="120.6039395865319"><ele>76.0</ele><time>2026-03-29T10:06:24.002Z</time></trkpt><trkpt lat="15.159090347236917" lon="120.60404609605646"><ele>76.0</ele><time>2026-03-29T10:06:25.002Z</time></trkpt><trkpt lat="15.159101985755475" lon="120.60415557231893"><ele>76.0</ele><time>2026-03-29T10:06:26.002Z</time></trkpt><trkpt lat="15.159114123571237" lon="120.60426756799443"><ele>76.0</ele><time>2026-03-29T10:06:27.002Z</time></trkpt><trkpt lat="15.159127013890933" lon="120.60438112451664"><ele>76.0</ele><time>2026-03-29T10:06:28.002Z</time></trkpt><trkpt lat="15.15913981454695" lon="120.60449567429427"><ele>76.0</ele><time>2026-03-29T10:06:29.002Z</time></trkpt><trkpt lat="15.159152210699656" lon="120.60460964128009"><ele>76.0</ele><time>2026-03-29T10:06:30.002Z</time></trkpt><trkpt lat="15.159164207622158" lon="120.60472091740509"><ele>76.0</ele><time>2026-03-29T10:06:31.002Z</time></trkpt><trkpt lat="15.159175858718982" lon="120.60483029600366"><ele>76.0</ele><time>2026-03-29T10:06:32.002Z</time></trkpt><trkpt lat="15.159186754060629" lon="120.60493765972593"><ele>76.0</ele><time>2026-03-29T10:06:33.002Z</time></trkpt><trkpt lat="15.159197590801417" lon="120.60504292559717"><ele>76.0</ele><time>2026-03-29T10:06:34.002Z</time></trkpt><trkpt lat="15.159206179545029" lon="120.60514660531143"><ele>76.0</ele><time>2026-03-29T10:06:35.002Z</time></trkpt><trkpt lat="15.159210386760845" lon="120.60524817473738"><ele>76.0</ele><time>2026-03-29T10:06:36.002Z</time></trkpt><trkpt lat="15.159210548198148" lon="120.60534864774944"><ele>76.0</ele><time>2026-03-29T10:06:37.002Z</time></trkpt><trkpt lat="15.159208542421352" lon="120.6054496254531"><ele>76.0</ele><time>2026-03-29T10:06:38.002Z</time></trkpt><trkpt lat="15.159206535162733" lon="120.6055496781921"><ele>76.0</ele><time>2026-03-29T10:06:39.002Z</time></trkpt><trkpt lat="15.159204240734772" lon="120.60565168292462"><ele>76.2</ele><time>2026-03-29T10:06:40.002Z</time></trkpt><trkpt lat="15.15920081716472" lon="120.60575247153388"><ele>76.39999999999999</ele><time>2026-03-29T10:06:41.002Z</time></trkpt><trkpt lat="15.159196791284884" lon="120.60585188214469"><ele>76.6</ele><time>2026-03-29T10:06:42.002Z</time></trkpt><trkpt lat="15.159193588293135" lon="120.60595032384488"><ele>76.8</ele><time>2026-03-29T10:06:43.002Z</time></trkpt><trkpt lat="15.159191421191982" lon="120.60604799815256"><ele>77.0</ele><time>2026-03-29T10:06:44.002Z</time></trkpt><trkpt lat="15.159190240162241" lon="120.60614410203283"><ele>76.83333333333334</ele><time>2026-03-29T10:06:45.002Z</time></trkpt><trkpt lat="15.159189382337033" lon="120.60623840911094"><ele>76.66666666666667</ele><time>2026-03-29T10:06:46.002Z</time></trkpt><trkpt lat="15.159188668906294" lon="120.6063296040963"><ele>76.5</ele><time>2026-03-29T10:06:47.002Z</time></trkpt><trkpt lat="15.159189124722234" lon="120.6064195799036"><ele>76.33333333333333</ele><time>2026-03-29T10:06:48.002Z</time></trkpt><trkpt lat="15.159190580989387" lon="120.60650816698127"><ele>76.16666666666666</ele><time>2026-03-29T10:06:49.002Z</time></trkpt><trkpt lat="15.159193469817696" lon="120.60659694125799"><ele>76.0</ele><time>2026-03-29T10:06:50.002Z</time></trkpt><trkpt lat="15.159195947215686" lon="120.60668394369785"><ele>76.0</ele><time>2026-03-29T10:06:51.002Z</time></trkpt><trkpt lat="15.15919842636559" lon="120.60677007149803"><ele>76.0</ele><time>2026-03-29T10:06:52.002Z</time></trkpt><trkpt lat="15.159200434373734" lon="120.60685557186534"><ele>76.0</ele><time>2026-03-29T10:06:53.002Z</time></trkpt><trkpt lat="15.159202817459471" lon="120.6069390934244"><ele>76.0</ele><time>2026-03-29T10:06:54.002Z</time></trkpt><trkpt lat="15.15920558404907" lon="120.60701861925293"><ele>76.0</ele><time>2026-03-29T10:06:55.002Z</time></trkpt><trkpt lat="15.159208339278454" lon="120.6070941109287"><ele>76.0</ele><time>2026-03-29T10:06:56.002Z</time></trkpt><trkpt lat="15.159210607041123" lon="120.6071648832344"><ele>76.6</ele><time>2026-03-29T10:06:57.002Z</time></trkpt><trkpt lat="15.159212065181649" lon="120.60723148590904"><ele>77.19999999999999</ele><time>2026-03-29T10:06:58.002Z</time></trkpt><trkpt lat="15.159209426313518" lon="120.60735994344272"><ele>77.80000000000001</ele><time>2026-03-29T10:07:00.002Z</time></trkpt><trkpt lat="15.15919880401293" lon="120.60748615395927"><ele>78.4</ele><time>2026-03-29T10:07:02.001Z</time></trkpt><trkpt lat="15.159174359194592" lon="120.60761316378911"><ele>79.0</ele><time>2026-03-29T10:07:04.001Z</time></trkpt><trkpt lat="15.159145123165862" lon="120.60773218044841"><ele>79.0</ele><time>2026-03-29T10:07:06.001Z</time></trkpt><trkpt lat="15.1591353122694" lon="120.60782462086587"><ele>79.0</ele><time>2026-03-29T10:07:08.001Z</time></trkpt><trkpt lat="15.159176984917153" lon="120.6079485760242"><ele>79.0</ele><time>2026-03-29T10:07:10.001Z</time></trkpt><trkpt lat="15.1592573136561" lon="120.60797186165013"><ele>79.0</ele><time>2026-03-29T10:07:12.001Z</time></trkpt><trkpt lat="15.159336921071509" lon="120.60799492518196"><ele>79.0</ele><time>2026-03-29T10:07:14.001Z</time></trkpt><trkpt lat="15.159417546212872" lon="120.60800484398415"><ele>79.4</ele><time>2026-03-29T10:07:16.001Z</time></trkpt><trkpt lat="15.159502657271757" lon="120.60804057142981"><ele>79.80000000000001</ele><time>2026-03-29T10:07:18.001Z</time></trkpt><trkpt lat="15.159604353523148" lon="120.60808692598785"><ele>80.19999999999999</ele><time>2026-03-29T10:07:20.001Z</time></trkpt><trkpt lat="15.159714230733714" lon="120.60814406830534"><ele>80.6</ele><time>2026-03-29T10:07:22.001Z</time></trkpt><trkpt lat="15.159771526471404" lon="120.6081737777257"><ele>81.0</ele><time>2026-03-29T10:07:23.001Z</time></trkpt><trkpt lat="15.159829605957796" lon="120.6082006907037"><ele>81.4</ele><time>2026-03-29T10:07:24.001Z</time></trkpt><trkpt lat="15.1599205765534" lon="120.6082498985719"><ele>81.8</ele><time>2026-03-29T10:07:26.001Z</time></trkpt><trkpt lat="15.160004905853128" lon="120.60828017741733"><ele>82.2</ele><time>2026-03-29T10:07:29.002Z</time></trkpt><trkpt lat="15.160091268482711" lon="120.60828702617164"><ele>82.60000000000001</ele><time>2026-03-29T10:07:31.002Z</time></trkpt><trkpt lat="15.160181919756742" lon="120.60835750439773"><ele>83.0</ele><time>2026-03-29T10:07:33.002Z</time></trkpt><trkpt lat="15.160231418900993" lon="120.60840443307603"><ele>83.0</ele><time>2026-03-29T10:07:34.002Z</time></trkpt><trkpt lat="15.160280477871922" lon="120.6084579007064"><ele>83.0</ele><time>2026-03-29T10:07:35.002Z</time></trkpt><trkpt lat="15.160326496515962" lon="120.6085137571525"><ele>83.0</ele><time>2026-03-29T10:07:36.002Z</time></trkpt><trkpt lat="15.160369454778966" lon="120.60857635070803"><ele>83.0</ele><time>2026-03-29T10:07:37.002Z</time></trkpt><trkpt lat="15.160408138469995" lon="120.60864278565894"><ele>83.0</ele><time>2026-03-29T10:07:38.002Z</time></trkpt><trkpt lat="15.160441849889208" lon="120.60871176034539"><ele>83.0</ele><time>2026-03-29T10:07:39.002Z</time></trkpt><trkpt lat="15.160470857145723" lon="120.60878110491662"><ele>83.0</ele><time>2026-03-29T10:07:40.002Z</time></trkpt><trkpt lat="15.160496593751695" lon="120.60885343459768"><ele>82.66666666666667</ele><time>2026-03-29T10:07:41.002Z</time></trkpt><trkpt lat="15.160519554490676" lon="120.60892450680434"><ele>82.33333333333334</ele><time>2026-03-29T10:07:42.002Z</time></trkpt><trkpt lat="15.160544034416603" lon="120.60899512763568"><ele>82.0</ele><time>2026-03-29T10:07:43.002Z</time></trkpt><trkpt lat="15.160569522023613" lon="120.60905949530121"><ele>81.66666666666667</ele><time>2026-03-29T10:07:44.002Z</time></trkpt><trkpt lat="15.160624200073292" lon="120.60917285802785"><ele>81.33333333333333</ele><time>2026-03-29T10:07:46.002Z</time></trkpt><trkpt lat="15.16068026937961" lon="120.60926407150751"><ele>81.0</ele><time>2026-03-29T10:07:48.002Z</time></trkpt><trkpt lat="15.160719471703578" lon="120.60933443038934"><ele>81.0</ele><time>2026-03-29T10:07:50.002Z</time></trkpt><trkpt lat="15.160748926606843" lon="120.60940401176484"><ele>81.0</ele><time>2026-03-29T10:07:52.002Z</time></trkpt><trkpt lat="15.160776823626426" lon="120.60947815671186"><ele>81.0</ele><time>2026-03-29T10:07:55.002Z</time></trkpt><trkpt lat="15.160812426948306" lon="120.60954579415741"><ele>81.0</ele><time>2026-03-29T10:07:59.002Z</time></trkpt><trkpt lat="15.1608565936872" lon="120.60960865862621"><ele>81.0</ele><time>2026-03-29T10:08:03.002Z</time></trkpt><trkpt lat="15.160926168742545" lon="120.60962902452503"><ele>81.0</ele><time>2026-03-29T10:08:05.002Z</time></trkpt><trkpt lat="15.160987783283003" lon="120.60971648734606"><ele>81.0</ele><time>2026-03-29T10:08:07.002Z</time></trkpt><trkpt lat="15.161029701364999" lon="120.6097811270799"><ele>81.0</ele><time>2026-03-29T10:08:08.002Z</time></trkpt><trkpt lat="15.16107419531525" lon="120.6098536825557"><ele>81.0</ele><time>2026-03-29T10:08:09.002Z</time></trkpt><trkpt lat="15.161121393668145" lon="120.6099443669086"><ele>81.0</ele><time>2026-03-29T10:08:10.002Z</time></trkpt><trkpt lat="15.161161439871833" lon="120.61003319656461"><ele>81.0</ele><time>2026-03-29T10:08:11.002Z</time></trkpt><trkpt lat="15.16120161618328" lon="120.61012224218555"><ele>81.0</ele><time>2026-03-29T10:08:12.002Z</time></trkpt><trkpt lat="15.161240334489252" lon="120.61020805637477"><ele>81.0</ele><time>2026-03-29T10:08:13.002Z</time></trkpt><trkpt lat="15.161277928420152" lon="120.61029137850976"><ele>81.0</ele><time>2026-03-29T10:08:14.002Z</time></trkpt><trkpt lat="15.161314153496695" lon="120.61037166671387"><ele>81.0</ele><time>2026-03-29T10:08:15.002Z</time></trkpt><trkpt lat="15.161347018560154" lon="120.61044450791364"><ele>81.0</ele><time>2026-03-29T10:08:16.002Z</time></trkpt><trkpt lat="15.16137714782066" lon="120.6105112855853"><ele>81.0</ele><time>2026-03-29T10:08:17.002Z</time></trkpt><trkpt lat="15.161404104695457" lon="120.61057103167336"><ele>81.0</ele><time>2026-03-29T10:08:18.002Z</time></trkpt><trkpt lat="15.161449148687518" lon="120.6106590868837"><ele>80.6</ele><time>2026-03-29T10:08:20.002Z</time></trkpt><trkpt lat="15.161487036399999" lon="120.61072496385593"><ele>80.19999999999999</ele><time>2026-03-29T10:08:23.002Z</time></trkpt><trkpt lat="15.161528072079161" lon="120.61079405511705"><ele>79.80000000000001</ele><time>2026-03-29T10:08:34.002Z</time></trkpt><trkpt lat="15.161587984456451" lon="120.61088836056715"><ele>79.4</ele><time>2026-03-29T10:08:37.002Z</time></trkpt><trkpt lat="15.161656899065292" lon="120.61099215973347"><ele>79.0</ele><time>2026-03-29T10:08:39.002Z</time></trkpt><trkpt lat="15.161697896288663" lon="120.61105057808464"><ele>78.83333333333333</ele><time>2026-03-29T10:08:40.002Z</time></trkpt><trkpt lat="15.161734799985526" lon="120.6111118998071"><ele>78.66666666666666</ele><time>2026-03-29T10:08:41.002Z</time></trkpt><trkpt lat="15.161791697730704" lon="120.61117573474279"><ele>78.5</ele><time>2026-03-29T10:08:42.002Z</time></trkpt><trkpt lat="15.161852172794553" lon="120.61124358377285"><ele>78.33333333333333</ele><time>2026-03-29T10:08:43.002Z</time></trkpt><trkpt lat="15.161916511234338" lon="120.6113157541324"><ele>78.16666666666667</ele><time>2026-03-29T10:08:44.002Z</time></trkpt><trkpt lat="15.16197406391063" lon="120.61140237820958"><ele>78.0</ele><time>2026-03-29T10:08:45.002Z</time></trkpt><trkpt lat="15.16205071407248" lon="120.61147580013882"><ele>78.0</ele><time>2026-03-29T10:08:46.002Z</time></trkpt><trkpt lat="15.162127403960259" lon="120.61155437781196"><ele>78.0</ele><time>2026-03-29T10:08:47.002Z</time></trkpt><trkpt lat="15.162202564649778" lon="120.61163929363967"><ele>78.0</ele><time>2026-03-29T10:08:48.002Z</time></trkpt><trkpt lat="15.162276577121775" lon="120.61172892028641"><ele>78.0</ele><time>2026-03-29T10:08:49.002Z</time></trkpt><trkpt lat="15.16234682625753" lon="120.6118232416553"><ele>78.0</ele><time>2026-03-29T10:08:50.002Z</time></trkpt><trkpt lat="15.162415397005677" lon="120.61191907386109"><ele>77.75</ele><time>2026-03-29T10:08:51.002Z</time></trkpt><trkpt lat="15.162499032777813" lon="120.61200543011923"><ele>77.5</ele><time>2026-03-29T10:08:52.002Z</time></trkpt><trkpt lat="15.162564714119851" lon="120.61210148208106"><ele>77.25</ele><time>2026-03-29T10:08:53.002Z</time></trkpt><trkpt lat="15.162626698951547" lon="120.61219808642939"><ele>77.0</ele><time>2026-03-29T10:08:54.001Z</time></trkpt><trkpt lat="15.162684705292117" lon="120.61229162040071"><ele>77.0</ele><time>2026-03-29T10:08:55.001Z</time></trkpt><trkpt lat="15.162660147427852" lon="120.6124329585228"><ele>77.0</ele><time>2026-03-29T10:08:56.001Z</time></trkpt><trkpt lat="15.162685925933086" lon="120.61253695465861"><ele>77.0</ele><time>2026-03-29T10:08:57.001Z</time></trkpt><trkpt lat="15.162700568597257" lon="120.61264227993786"><ele>77.0</ele><time>2026-03-29T10:08:58.001Z</time></trkpt><trkpt lat="15.162705844695607" lon="120.61274855463363"><ele>77.0</ele><time>2026-03-29T10:08:59.001Z</time></trkpt><trkpt lat="15.162700758643613" lon="120.61285676156588"><ele>77.0</ele><time>2026-03-29T10:09:00.001Z</time></trkpt><trkpt lat="15.162688643487165" lon="120.61296769745346"><ele>77.0</ele><time>2026-03-29T10:09:01.001Z</time></trkpt><trkpt lat="15.162666827619226" lon="120.61308064972137"><ele>77.0</ele><time>2026-03-29T10:09:02.001Z</time></trkpt><trkpt lat="15.162633439237222" lon="120.61319380046321"><ele>77.0</ele><time>2026-03-29T10:09:03.001Z</time></trkpt><trkpt lat="15.16258893843969" lon="120.61330678364445"><ele>77.0</ele><time>2026-03-29T10:09:04.001Z</time></trkpt><trkpt lat="15.162535243277691" lon="120.61341607171651"><ele>77.0</ele><time>2026-03-29T10:09:05.001Z</time></trkpt><trkpt lat="15.162476249107632" lon="120.61353511429971"><ele>77.0</ele><time>2026-03-29T10:09:06.001Z</time></trkpt><trkpt lat="15.162399942140349" lon="120.61362230388222"><ele>77.0</ele><time>2026-03-29T10:09:07.001Z</time></trkpt><trkpt lat="15.162318183083949" lon="120.61370594353544"><ele>76.75</ele><time>2026-03-29T10:09:08.001Z</time></trkpt><trkpt lat="15.16222618149903" lon="120.61378441435507"><ele>76.5</ele><time>2026-03-29T10:09:09.001Z</time></trkpt><trkpt lat="15.162129801453986" lon="120.61385948985219"><ele>76.25</ele><time>2026-03-29T10:09:10.001Z</time></trkpt><trkpt lat="15.162051170145098" lon="120.61395797439604"><ele>76.0</ele><time>2026-03-29T10:09:11.001Z</time></trkpt><trkpt lat="15.161922694833168" lon="120.61401038637675"><ele>76.0</ele><time>2026-03-29T10:09:12.001Z</time></trkpt><trkpt lat="15.161812428062811" lon="120.61409121715731"><ele>76.0</ele><time>2026-03-29T10:09:13.001Z</time></trkpt><trkpt lat="15.161697651426119" lon="120.61417580739686"><ele>76.0</ele><time>2026-03-29T10:09:14.001Z</time></trkpt><trkpt lat="15.161578690913208" lon="120.61426320671742"><ele>76.0</ele><time>2026-03-29T10:09:15.001Z</time></trkpt><trkpt lat="15.161455573122371" lon="120.61435293192638"><ele>75.33333333333333</ele><time>2026-03-29T10:09:16.001Z</time></trkpt><trkpt lat="15.161328542571798" lon="120.61444616230602"><ele>74.66666666666667</ele><time>2026-03-29T10:09:17.001Z</time></trkpt><trkpt lat="15.161198005092984" lon="120.61454086663835"><ele>74.0</ele><time>2026-03-29T10:09:18.001Z</time></trkpt><trkpt lat="15.161062783288877" lon="120.61463911984144"><ele>74.66666666666667</ele><time>2026-03-29T10:09:19.001Z</time></trkpt><trkpt lat="15.16092349195837" lon="120.6147402452327"><ele>75.33333333333333</ele><time>2026-03-29T10:09:20.001Z</time></trkpt><trkpt lat="15.160779963818115" lon="120.61484363729134"><ele>76.0</ele><time>2026-03-29T10:09:21.001Z</time></trkpt><trkpt lat="15.160631148685578" lon="120.61495065234378"><ele>76.0</ele><time>2026-03-29T10:09:22.001Z</time></trkpt><trkpt lat="15.160481190778913" lon="120.61505945904621"><ele>76.0</ele><time>2026-03-29T10:09:23.001Z</time></trkpt><trkpt lat="15.16032809302119" lon="120.61517000012547"><ele>76.0</ele><time>2026-03-29T10:09:24.001Z</time></trkpt><trkpt lat="15.160171756728172" lon="120.6152822645675"><ele>76.0</ele><time>2026-03-29T10:09:25.001Z</time></trkpt><trkpt lat="15.160013370941094" lon="120.61539637985241"><ele>76.0</ele><time>2026-03-29T10:09:26.001Z</time></trkpt><trkpt lat="15.159852573114547" lon="120.61551216709901"><ele>76.0</ele><time>2026-03-29T10:09:27.001Z</time></trkpt><trkpt lat="15.159689935061785" lon="120.61562967175304"><ele>76.0</ele><time>2026-03-29T10:09:28.001Z</time></trkpt><trkpt lat="15.15952645417952" lon="120.61574970006282"><ele>76.0</ele><time>2026-03-29T10:09:29.001Z</time></trkpt><trkpt lat="15.159361077633402" lon="120.61587172598941"><ele>76.0</ele><time>2026-03-29T10:09:30.001Z</time></trkpt><trkpt lat="15.159194358770389" lon="120.61599416225896"><ele>76.0</ele><time>2026-03-29T10:09:31.001Z</time></trkpt><trkpt lat="15.159025813265202" lon="120.61611698001252"><ele>76.0</ele><time>2026-03-29T10:09:32.001Z</time></trkpt><trkpt lat="15.158854939910318" lon="120.61624007114196"><ele>76.0</ele><time>2026-03-29T10:09:33.001Z</time></trkpt><trkpt lat="15.158683322419396" lon="120.61636490169298"><ele>76.0</ele><time>2026-03-29T10:09:34.001Z</time></trkpt><trkpt lat="15.15851170182864" lon="120.61648929602067"><ele>76.0</ele><time>2026-03-29T10:09:35.001Z</time></trkpt><trkpt lat="15.158340001994844" lon="120.61661533276721"><ele>76.0</ele><time>2026-03-29T10:09:36.001Z</time></trkpt><trkpt lat="15.158167393225435" lon="120.61674178103827"><ele>75.66666666666666</ele><time>2026-03-29T10:09:37.001Z</time></trkpt><trkpt lat="15.157994557211351" lon="120.61686887678647"><ele>75.33333333333333</ele><time>2026-03-29T10:09:38.001Z</time></trkpt><trkpt lat="15.157821096894846" lon="120.61699742925302"><ele>75.0</ele><time>2026-03-29T10:09:39.001Z</time></trkpt><trkpt lat="15.157645985838174" lon="120.61712746463468"><ele>75.33333333333333</ele><time>2026-03-29T10:09:40.001Z</time></trkpt><trkpt lat="15.157470232635912" lon="120.61725824312086"><ele>75.66666666666666</ele><time>2026-03-29T10:09:41.001Z</time></trkpt><trkpt lat="15.15729374666787" lon="120.61739110853627"><ele>76.0</ele><time>2026-03-29T10:09:42.001Z</time></trkpt><trkpt lat="15.157116119541342" lon="120.61752635951335"><ele>76.0</ele><time>2026-03-29T10:09:43.001Z</time></trkpt><trkpt lat="15.15693934694797" lon="120.61766476751345"><ele>76.0</ele><time>2026-03-29T10:09:44.001Z</time></trkpt><trkpt lat="15.1567630119343" lon="120.61780463590524"><ele>76.0</ele><time>2026-03-29T10:09:45.001Z</time></trkpt><trkpt lat="15.156584608028242" lon="120.61794526102395"><ele>75.5</ele><time>2026-03-29T10:09:46.001Z</time></trkpt><trkpt lat="15.156405717540665" lon="120.61808700119815"><ele>75.0</ele><time>2026-03-29T10:09:47.001Z</time></trkpt><trkpt lat="15.156225631406484" lon="120.61822998146047"><ele>75.0</ele><time>2026-03-29T10:09:48.001Z</time></trkpt><trkpt lat="15.1560406189394" lon="120.61836798424319"><ele>75.0</ele><time>2026-03-29T10:09:49.001Z</time></trkpt><trkpt lat="15.155856266876901" lon="120.61851018307168"><ele>74.0</ele><time>2026-03-29T10:09:50.001Z</time></trkpt><trkpt lat="15.155668799578018" lon="120.61865097826018"><ele>73.0</ele><time>2026-03-29T10:09:51.001Z</time></trkpt><trkpt lat="15.155480526483053" lon="120.61879444348567"><ele>73.0</ele><time>2026-03-29T10:09:52.001Z</time></trkpt><trkpt lat="15.155291918972367" lon="120.61894091666477"><ele>73.0</ele><time>2026-03-29T10:09:53.001Z</time></trkpt><trkpt lat="15.15510209833089" lon="120.61908902168894"><ele>73.0</ele><time>2026-03-29T10:09:54.001Z</time></trkpt><trkpt lat="15.154910858768634" lon="120.61923804221563"><ele>73.0</ele><time>2026-03-29T10:09:55.001Z</time></trkpt><trkpt lat="15.154718399135648" lon="120.61938796311377"><ele>72.0</ele><time>2026-03-29T10:09:56.001Z</time></trkpt><trkpt lat="15.154527180768074" lon="120.61954031880485"><ele>71.0</ele><time>2026-03-29T10:09:57.001Z</time></trkpt><trkpt lat="15.154336597239775" lon="120.61969354828253"><ele>71.0</ele><time>2026-03-29T10:09:58.001Z</time></trkpt><trkpt lat="15.154148566160092" lon="120.61985075390122"><ele>71.0</ele><time>2026-03-29T10:09:59.001Z</time></trkpt><trkpt lat="15.153958558539037" lon="120.6200071027235"><ele>71.0</ele><time>2026-03-29T10:10:00.001Z</time></trkpt><trkpt lat="15.153770252666506" lon="120.62016516771749"><ele>71.0</ele><time>2026-03-29T10:10:01.001Z</time></trkpt><trkpt lat="15.15358356721509" lon="120.62032444181338"><ele>71.0</ele><time>2026-03-29T10:10:02.001Z</time></trkpt><trkpt lat="15.153394300569154" lon="120.62048015508219"><ele>71.0</ele><time>2026-03-29T10:10:03.001Z</time></trkpt><trkpt lat="15.1532062492932" lon="120.62063821767485"><ele>70.0</ele><time>2026-03-29T10:10:04.001Z</time></trkpt><trkpt lat="15.1530180980121" lon="120.62079153466036"><ele>69.0</ele><time>2026-03-29T10:10:05.001Z</time></trkpt><trkpt lat="15.152831377180158" lon="120.62094614841034"><ele>69.0</ele><time>2026-03-29T10:10:06.001Z</time></trkpt><trkpt lat="15.152644096104673" lon="120.62109965896884"><ele>69.0</ele><time>2026-03-29T10:10:07.001Z</time></trkpt><trkpt lat="15.152457562760912" lon="120.62125363559996"><ele>68.5</ele><time>2026-03-29T10:10:08.001Z</time></trkpt><trkpt lat="15.152269431434872" lon="120.62140705029498"><ele>68.0</ele><time>2026-03-29T10:10:09.001Z</time></trkpt><trkpt lat="15.152081056370063" lon="120.62155914795338"><ele>68.0</ele><time>2026-03-29T10:10:10.001Z</time></trkpt><trkpt lat="15.151894942417345" lon="120.62171541472381"><ele>68.0</ele><time>2026-03-29T10:10:11.001Z</time></trkpt><trkpt lat="15.151707534877824" lon="120.62186887440963"><ele>68.5</ele><time>2026-03-29T10:10:12.001Z</time></trkpt><trkpt lat="15.151523410783453" lon="120.62202362423356"><ele>69.0</ele><time>2026-03-29T10:10:13.002Z</time></trkpt><trkpt lat="15.151343546723675" lon="120.62217742764567"><ele>69.0</ele><time>2026-03-29T10:10:14.002Z</time></trkpt><trkpt lat="15.151165750245596" lon="120.62232650564017"><ele>69.0</ele><time>2026-03-29T10:10:15.002Z</time></trkpt><trkpt lat="15.150991731239252" lon="120.62247625548808"><ele>69.0</ele><time>2026-03-29T10:10:16.002Z</time></trkpt><trkpt lat="15.150817677241626" lon="120.62262202140823"><ele>69.0</ele><time>2026-03-29T10:10:17.002Z</time></trkpt><trkpt lat="15.150646100087414" lon="120.62276825455186"><ele>69.0</ele><time>2026-03-29T10:10:18.002Z</time></trkpt><trkpt lat="15.150475513724071" lon="120.62291106499437"><ele>67.66666666666667</ele><time>2026-03-29T10:10:19.002Z</time></trkpt><trkpt lat="15.150307297103591" lon="120.62305334579641"><ele>66.33333333333334</ele><time>2026-03-29T10:10:20.002Z</time></trkpt><trkpt lat="15.15013961439685" lon="120.62319574335041"><ele>65.0</ele><time>2026-03-29T10:10:21.002Z</time></trkpt><trkpt lat="15.149973266510951" lon="120.623340210899"><ele>63.0</ele><time>2026-03-29T10:10:22.002Z</time></trkpt><trkpt lat="15.149807004619174" lon="120.62348297797055"><ele>61.0</ele><time>2026-03-29T10:10:23.002Z</time></trkpt><trkpt lat="15.149642354136958" lon="120.62362831154144"><ele>59.0</ele><time>2026-03-29T10:10:24.002Z</time></trkpt><trkpt lat="15.149477875019915" lon="120.6237728650945"><ele>59.0</ele><time>2026-03-29T10:10:25.002Z</time></trkpt><trkpt lat="15.149314229772296" lon="120.62391829537506"><ele>59.0</ele><time>2026-03-29T10:10:26.002Z</time></trkpt><trkpt lat="15.14915081043037" lon="120.62406340031308"><ele>59.0</ele><time>2026-03-29T10:10:27.002Z</time></trkpt><trkpt lat="15.14898762651182" lon="120.62420810166707"><ele>60.0</ele><time>2026-03-29T10:10:28.002Z</time></trkpt><trkpt lat="15.148825018187182" lon="120.62435473773492"><ele>61.0</ele><time>2026-03-29T10:10:29.002Z</time></trkpt><trkpt lat="15.148662486415349" lon="120.62450009555032"><ele>62.0</ele><time>2026-03-29T10:10:30.002Z</time></trkpt><trkpt lat="15.148498738305687" lon="120.62464484639284"><ele>62.0</ele><time>2026-03-29T10:10:31.002Z</time></trkpt><trkpt lat="15.148335807964648" lon="120.62478930288856"><ele>62.0</ele><time>2026-03-29T10:10:32.002Z</time></trkpt><trkpt lat="15.14817331086204" lon="120.62493518898332"><ele>62.0</ele><time>2026-03-29T10:10:33.002Z</time></trkpt><trkpt lat="15.148010889277796" lon="120.6250811828769"><ele>62.66666666666667</ele><time>2026-03-29T10:10:34.002Z</time></trkpt><trkpt lat="15.147848629866468" lon="120.62522819223297"><ele>63.33333333333333</ele><time>2026-03-29T10:10:35.002Z</time></trkpt><trkpt lat="15.147686665211975" lon="120.62537589927317"><ele>64.0</ele><time>2026-03-29T10:10:36.002Z</time></trkpt><trkpt lat="15.147523463648655" lon="120.62552396666278"><ele>63.666666666666664</ele><time>2026-03-29T10:10:37.002Z</time></trkpt><trkpt lat="15.147359647599565" lon="120.62567212528504"><ele>63.33333333333333</ele><time>2026-03-29T10:10:38.002Z</time></trkpt><trkpt lat="15.147196138466724" lon="120.62582292121309"><ele>63.0</ele><time>2026-03-29T10:10:39.002Z</time></trkpt><trkpt lat="15.147031993863655" lon="120.62597429122845"><ele>63.0</ele><time>2026-03-29T10:10:40.002Z</time></trkpt><trkpt lat="15.14686684224796" lon="120.62612641273542"><ele>63.0</ele><time>2026-03-29T10:10:41.002Z</time></trkpt><trkpt lat="15.146700469829586" lon="120.62627970010642"><ele>63.0</ele><time>2026-03-29T10:10:42.002Z</time></trkpt><trkpt lat="15.1465331570076" lon="120.62643353101436"><ele>62.0</ele><time>2026-03-29T10:10:43.002Z</time></trkpt><trkpt lat="15.146365582314372" lon="120.62658825665862"><ele>61.0</ele><time>2026-03-29T10:10:44.002Z</time></trkpt><trkpt lat="15.146197806964901" lon="120.62674505215018"><ele>61.0</ele><time>2026-03-29T10:10:45.002Z</time></trkpt><trkpt lat="15.146028928529654" lon="120.62690254143268"><ele>61.0</ele><time>2026-03-29T10:10:46.002Z</time></trkpt><trkpt lat="15.145859959078452" lon="120.62706179518581"><ele>62.5</ele><time>2026-03-29T10:10:47.002Z</time></trkpt><trkpt lat="15.145689740434007" lon="120.62722221836844"><ele>64.0</ele><time>2026-03-29T10:10:48.002Z</time></trkpt><trkpt lat="15.145518822852356" lon="120.62738249520748"><ele>64.0</ele><time>2026-03-29T10:10:49.002Z</time></trkpt><trkpt lat="15.145347107364096" lon="120.6275411364762"><ele>64.0</ele><time>2026-03-29T10:10:50.002Z</time></trkpt><trkpt lat="15.145176807088866" lon="120.62770165266588"><ele>63.5</ele><time>2026-03-29T10:10:51.001Z</time></trkpt><trkpt lat="15.145006270411892" lon="120.62786274399204"><ele>63.0</ele><time>2026-03-29T10:10:52.001Z</time></trkpt><trkpt lat="15.144836534598824" lon="120.62802475877244"><ele>63.0</ele><time>2026-03-29T10:10:53.001Z</time></trkpt><trkpt lat="15.144666879974762" lon="120.6281872796466"><ele>63.0</ele><time>2026-03-29T10:10:54.001Z</time></trkpt><trkpt lat="15.14449796793679" lon="120.6283506030805"><ele>63.0</ele><time>2026-03-29T10:10:55.001Z</time></trkpt><trkpt lat="15.144328899864515" lon="120.62851471551255"><ele>63.0</ele><time>2026-03-29T10:10:56.001Z</time></trkpt><trkpt lat="15.144158619243242" lon="120.62867891780105"><ele>63.0</ele><time>2026-03-29T10:10:57.001Z</time></trkpt><trkpt lat="15.143989912758867" lon="120.6288438243577"><ele>63.0</ele><time>2026-03-29T10:10:58.001Z</time></trkpt><trkpt lat="15.143821676605857" lon="120.6290094661725"><ele>63.0</ele><time>2026-03-29T10:10:59.001Z</time></trkpt><trkpt lat="15.14365309918647" lon="120.62917543300873"><ele>63.0</ele><time>2026-03-29T10:11:00.001Z</time></trkpt><trkpt lat="15.143484619845793" lon="120.62934010067622"><ele>63.0</ele><time>2026-03-29T10:11:01.001Z</time></trkpt><trkpt lat="15.1433166668686" lon="120.62950506493355"><ele>63.0</ele><time>2026-03-29T10:11:02.001Z</time></trkpt><trkpt lat="15.143150002126216" lon="120.6296703117815"><ele>63.0</ele><time>2026-03-29T10:11:03.001Z</time></trkpt><trkpt lat="15.142983683834782" lon="120.6298359084478"><ele>63.0</ele><time>2026-03-29T10:11:04.001Z</time></trkpt><trkpt lat="15.142817432004268" lon="120.63000187225342"><ele>63.0</ele><time>2026-03-29T10:11:05.001Z</time></trkpt><trkpt lat="15.142651038398755" lon="120.63016845426682"><ele>63.0</ele><time>2026-03-29T10:11:06.001Z</time></trkpt><trkpt lat="15.142484489291816" lon="120.63033392241454"><ele>64.0</ele><time>2026-03-29T10:11:07.001Z</time></trkpt><trkpt lat="15.142318090291223" lon="120.63049937753225"><ele>65.0</ele><time>2026-03-29T10:11:08.001Z</time></trkpt><trkpt lat="15.142151067399027" lon="120.63066486889083"><ele>65.0</ele><time>2026-03-29T10:11:09.001Z</time></trkpt><trkpt lat="15.14198556699026" lon="120.6308314569337"><ele>65.0</ele><time>2026-03-29T10:11:10.001Z</time></trkpt><trkpt lat="15.141821624296066" lon="120.63099838833685"><ele>63.5</ele><time>2026-03-29T10:11:11.001Z</time></trkpt><trkpt lat="15.14165708886069" lon="120.6311657470379"><ele>62.0</ele><time>2026-03-29T10:11:12.001Z</time></trkpt><trkpt lat="15.14149394457933" lon="120.63133378559012"><ele>61.5</ele><time>2026-03-29T10:11:13.001Z</time></trkpt><trkpt lat="15.141331307649633" lon="120.6315009667525"><ele>61.0</ele><time>2026-03-29T10:11:14.001Z</time></trkpt><trkpt lat="15.14116900392785" lon="120.63166741238625"><ele>61.0</ele><time>2026-03-29T10:11:15.001Z</time></trkpt><trkpt lat="15.141005697362889" lon="120.63183357776057"><ele>61.0</ele><time>2026-03-29T10:11:16.001Z</time></trkpt><trkpt lat="15.140843254875174" lon="120.63199985709312"><ele>61.0</ele><time>2026-03-29T10:11:17.001Z</time></trkpt><trkpt lat="15.140682082507391" lon="120.63216742896736"><ele>61.0</ele><time>2026-03-29T10:11:18.001Z</time></trkpt><trkpt lat="15.140520974370501" lon="120.63233574208168"><ele>61.0</ele><time>2026-03-29T10:11:19.001Z</time></trkpt><trkpt lat="15.140359653305751" lon="120.63250470634364"><ele>61.0</ele><time>2026-03-29T10:11:20.001Z</time></trkpt><trkpt lat="15.140200069764784" lon="120.63267503143793"><ele>61.0</ele><time>2026-03-29T10:11:21.001Z</time></trkpt><trkpt lat="15.14003907675925" lon="120.63284534780307"><ele>61.0</ele><time>2026-03-29T10:11:22.001Z</time></trkpt><trkpt lat="15.139878924473427" lon="120.63301658472166"><ele>59.5</ele><time>2026-03-29T10:11:23.001Z</time></trkpt><trkpt lat="15.13971722651902" lon="120.6331871122199"><ele>58.0</ele><time>2026-03-29T10:11:24.001Z</time></trkpt><trkpt lat="15.139556976252484" lon="120.6333583950421"><ele>58.0</ele><time>2026-03-29T10:11:25.001Z</time></trkpt><trkpt lat="15.139395914184835" lon="120.63353136644187"><ele>58.0</ele><time>2026-03-29T10:11:26.001Z</time></trkpt><trkpt lat="15.139235689215687" lon="120.63370393363276"><ele>59.0</ele><time>2026-03-29T10:11:27.001Z</time></trkpt><trkpt lat="15.13907527327905" lon="120.63387714097807"><ele>60.0</ele><time>2026-03-29T10:11:28.001Z</time></trkpt><trkpt lat="15.138914538087326" lon="120.63405166696099"><ele>61.0</ele><time>2026-03-29T10:11:29.001Z</time></trkpt><trkpt lat="15.13875340401609" lon="120.63422742964083"><ele>62.0</ele><time>2026-03-29T10:11:30.001Z</time></trkpt><trkpt lat="15.138592170360917" lon="120.63440207884473"><ele>62.0</ele><time>2026-03-29T10:11:31.001Z</time></trkpt><trkpt lat="15.1384310085507" lon="120.63457792129974"><ele>62.0</ele><time>2026-03-29T10:11:32.001Z</time></trkpt><trkpt lat="15.13826996802146" lon="120.63475430393561"><ele>60.5</ele><time>2026-03-29T10:11:33.001Z</time></trkpt><trkpt lat="15.138109857016506" lon="120.63493079522404"><ele>59.0</ele><time>2026-03-29T10:11:34.001Z</time></trkpt><trkpt lat="15.137950452513826" lon="120.63510887790774"><ele>59.0</ele><time>2026-03-29T10:11:35.001Z</time></trkpt><trkpt lat="15.13779154867237" lon="120.63528734479304"><ele>59.0</ele><time>2026-03-29T10:11:36.001Z</time></trkpt><trkpt lat="15.13763179859403" lon="120.63546626303751"><ele>59.0</ele><time>2026-03-29T10:11:37.001Z</time></trkpt><trkpt lat="15.137471785749142" lon="120.63564334709406"><ele>59.0</ele><time>2026-03-29T10:11:38.001Z</time></trkpt><trkpt lat="15.137311806752177" lon="120.63582186962348"><ele>59.0</ele><time>2026-03-29T10:11:39.001Z</time></trkpt><trkpt lat="15.137151030521204" lon="120.63599977156436"><ele>59.0</ele><time>2026-03-29T10:11:40.001Z</time></trkpt><trkpt lat="15.136991706495197" lon="120.63617789832378"><ele>57.0</ele><time>2026-03-29T10:11:41.001Z</time></trkpt><trkpt lat="15.136832568190316" lon="120.63635537671203"><ele>55.0</ele><time>2026-03-29T10:11:42.001Z</time></trkpt><trkpt lat="15.136674442909564" lon="120.63653440764675"><ele>56.5</ele><time>2026-03-29T10:11:43.001Z</time></trkpt><trkpt lat="15.136515552894107" lon="120.63671320034564"><ele>58.0</ele><time>2026-03-29T10:11:44.001Z</time></trkpt><trkpt lat="15.136359048131265" lon="120.63689290518327"><ele>57.5</ele><time>2026-03-29T10:11:45.001Z</time></trkpt><trkpt lat="15.13620225705875" lon="120.63707320249692"><ele>57.0</ele><time>2026-03-29T10:11:46.001Z</time></trkpt><trkpt lat="15.136045940380901" lon="120.63725263046639"><ele>57.0</ele><time>2026-03-29T10:11:47.001Z</time></trkpt><trkpt lat="15.13588990145588" lon="120.63742917311868"><ele>57.0</ele><time>2026-03-29T10:11:48.001Z</time></trkpt><trkpt lat="15.135734604187908" lon="120.63760486325523"><ele>57.0</ele><time>2026-03-29T10:11:49.001Z</time></trkpt><trkpt lat="15.135580168495581" lon="120.63778074371442"><ele>57.0</ele><time>2026-03-29T10:11:50.001Z</time></trkpt><trkpt lat="15.135424998200348" lon="120.6379564073864"><ele>57.0</ele><time>2026-03-29T10:11:51.001Z</time></trkpt><trkpt lat="15.135269906519506" lon="120.63813114988216"><ele>57.0</ele><time>2026-03-29T10:11:52.001Z</time></trkpt><trkpt lat="15.135114354823452" lon="120.63830493780644"><ele>57.0</ele><time>2026-03-29T10:11:53.001Z</time></trkpt><trkpt lat="15.134958127837951" lon="120.6384784183183"><ele>57.0</ele><time>2026-03-29T10:11:54.001Z</time></trkpt><trkpt lat="15.134801993002343" lon="120.63865189384939"><ele>56.5</ele><time>2026-03-29T10:11:55.001Z</time></trkpt><trkpt lat="15.134644892921324" lon="120.63882549482923"><ele>56.0</ele><time>2026-03-29T10:11:56.001Z</time></trkpt><trkpt lat="15.134488040019328" lon="120.63899874775808"><ele>56.0</ele><time>2026-03-29T10:11:57.001Z</time></trkpt><trkpt lat="15.134330869683321" lon="120.63917224242904"><ele>56.0</ele><time>2026-03-29T10:11:58.001Z</time></trkpt><trkpt lat="15.13417333115961" lon="120.63934425303171"><ele>55.0</ele><time>2026-03-29T10:11:59.001Z</time></trkpt><trkpt lat="15.13401649507986" lon="120.6395167928506"><ele>54.0</ele><time>2026-03-29T10:12:00.001Z</time></trkpt><trkpt lat="15.133857695049963" lon="120.63968997235042"><ele>54.0</ele><time>2026-03-29T10:12:01.001Z</time></trkpt><trkpt lat="15.133698646633297" lon="120.63986115086517"><ele>54.0</ele><time>2026-03-29T10:12:02.001Z</time></trkpt><trkpt lat="15.133539464110092" lon="120.64003145671175"><ele>54.0</ele><time>2026-03-29T10:12:03.001Z</time></trkpt><trkpt lat="15.133381086352426" lon="120.64020308546864"><ele>54.0</ele><time>2026-03-29T10:12:04.001Z</time></trkpt><trkpt lat="15.133221935265343" lon="120.64037342706891"><ele>54.0</ele><time>2026-03-29T10:12:05.001Z</time></trkpt><trkpt lat="15.133062915960949" lon="120.64054347301452"><ele>54.0</ele><time>2026-03-29T10:12:06.001Z</time></trkpt><trkpt lat="15.132904519324757" lon="120.64071313186477"><ele>54.0</ele><time>2026-03-29T10:12:07.001Z</time></trkpt><trkpt lat="15.132747510419264" lon="120.6408822329737"><ele>54.0</ele><time>2026-03-29T10:12:08.001Z</time></trkpt><trkpt lat="15.132587942233421" lon="120.64105077505894"><ele>53.0</ele><time>2026-03-29T10:12:09.001Z</time></trkpt><trkpt lat="15.132427659524222" lon="120.64121851100728"><ele>52.0</ele><time>2026-03-29T10:12:10.001Z</time></trkpt><trkpt lat="15.132266413857055" lon="120.64138358355993"><ele>52.0</ele><time>2026-03-29T10:12:11.001Z</time></trkpt><trkpt lat="15.13210696833867" lon="120.64155135763386"><ele>52.0</ele><time>2026-03-29T10:12:12.001Z</time></trkpt><trkpt lat="15.131946650699012" lon="120.64171816104363"><ele>52.0</ele><time>2026-03-29T10:12:13.001Z</time></trkpt><trkpt lat="15.131787009425013" lon="120.64188563903186"><ele>52.0</ele><time>2026-03-29T10:12:14.001Z</time></trkpt><trkpt lat="15.131626966608055" lon="120.64205243004105"><ele>51.666666666666664</ele><time>2026-03-29T10:12:15.001Z</time></trkpt><trkpt lat="15.13146769790784" lon="120.64221626983728"><ele>51.33333333333333</ele><time>2026-03-29T10:12:16.001Z</time></trkpt><trkpt lat="15.131307883386512" lon="120.64237508973437"><ele>51.0</ele><time>2026-03-29T10:12:17.001Z</time></trkpt><trkpt lat="15.131152368636513" lon="120.64253436619214"><ele>51.0</ele><time>2026-03-29T10:12:18.001Z</time></trkpt><trkpt lat="15.130999105211734" lon="120.64269121910361"><ele>51.0</ele><time>2026-03-29T10:12:19.001Z</time></trkpt><trkpt lat="15.13084683998182" lon="120.64284473642314"><ele>51.0</ele><time>2026-03-29T10:12:20.001Z</time></trkpt><trkpt lat="15.130699348803395" lon="120.64299972612604"><ele>51.66666666666667</ele><time>2026-03-29T10:12:21.001Z</time></trkpt><trkpt lat="15.130553506973062" lon="120.64315149712772"><ele>52.333333333333336</ele><time>2026-03-29T10:12:22.001Z</time></trkpt><trkpt lat="15.130408873380771" lon="120.64330129240142"><ele>53.0</ele><time>2026-03-29T10:12:23.001Z</time></trkpt><trkpt lat="15.130263970677813" lon="120.6434474366767"><ele>53.0</ele><time>2026-03-29T10:12:24.001Z</time></trkpt><trkpt lat="15.130122834502483" lon="120.64359209347398"><ele>53.0</ele><time>2026-03-29T10:12:25.001Z</time></trkpt><trkpt lat="15.12998403026355" lon="120.64373529776311"><ele>53.0</ele><time>2026-03-29T10:12:26.001Z</time></trkpt><trkpt lat="15.129846763312239" lon="120.64387855874278"><ele>53.0</ele><time>2026-03-29T10:12:27.001Z</time></trkpt><trkpt lat="15.129706434633533" lon="120.64401769402457"><ele>53.0</ele><time>2026-03-29T10:12:28.001Z</time></trkpt><trkpt lat="15.12956617950582" lon="120.64415693358275"><ele>53.0</ele><time>2026-03-29T10:12:29.001Z</time></trkpt><trkpt lat="15.12942615616398" lon="120.64429628717357"><ele>53.0</ele><time>2026-03-29T10:12:30.001Z</time></trkpt><trkpt lat="15.129284921637955" lon="120.64443475191631"><ele>53.0</ele><time>2026-03-29T10:12:31.001Z</time></trkpt><trkpt lat="15.129143737094548" lon="120.64457172318397"><ele>53.0</ele><time>2026-03-29T10:12:32.001Z</time></trkpt><trkpt lat="15.129003343385671" lon="120.64471041111189"><ele>51.66666666666667</ele><time>2026-03-29T10:12:33.001Z</time></trkpt><trkpt lat="15.128862933943024" lon="120.64484808439899"><ele>50.33333333333333</ele><time>2026-03-29T10:12:34.001Z</time></trkpt><trkpt lat="15.128721680868978" lon="120.64498507109703"><ele>49.0</ele><time>2026-03-29T10:12:35.001Z</time></trkpt><trkpt lat="15.128580981006444" lon="120.64512237275963"><ele>49.0</ele><time>2026-03-29T10:12:36.001Z</time></trkpt><trkpt lat="15.128439695732206" lon="120.64525948597014"><ele>49.0</ele><time>2026-03-29T10:12:37.001Z</time></trkpt><trkpt lat="15.128298117748738" lon="120.64539743393134"><ele>49.0</ele><time>2026-03-29T10:12:38.001Z</time></trkpt><trkpt lat="15.128154990893005" lon="120.64553484891569"><ele>49.33333333333333</ele><time>2026-03-29T10:12:39.001Z</time></trkpt><trkpt lat="15.12801087013727" lon="120.64567356608838"><ele>49.66666666666667</ele><time>2026-03-29T10:12:40.001Z</time></trkpt><trkpt lat="15.12786646850456" lon="120.64581357037517"><ele>50.0</ele><time>2026-03-29T10:12:41.001Z</time></trkpt><trkpt lat="15.127721958342475" lon="120.64595432209414"><ele>50.0</ele><time>2026-03-29T10:12:42.001Z</time></trkpt><trkpt lat="15.127577102519753" lon="120.64609613053238"><ele>50.0</ele><time>2026-03-29T10:12:43.001Z</time></trkpt><trkpt lat="15.127431794386169" lon="120.64623735516749"><ele>50.0</ele><time>2026-03-29T10:12:44.001Z</time></trkpt><trkpt lat="15.127284429516031" lon="120.64637873019686"><ele>48.66666666666667</ele><time>2026-03-29T10:12:45.001Z</time></trkpt><trkpt lat="15.127134225987842" lon="120.6465179622681"><ele>47.333333333333336</ele><time>2026-03-29T10:12:46.001Z</time></trkpt><trkpt lat="15.1269838326906" lon="120.64665992342982"><ele>46.0</ele><time>2026-03-29T10:12:47.001Z</time></trkpt><trkpt lat="15.12683196899076" lon="120.64680309305565"><ele>46.0</ele><time>2026-03-29T10:12:48.001Z</time></trkpt><trkpt lat="15.126679628834522" lon="120.64694645011453"><ele>46.0</ele><time>2026-03-29T10:12:49.001Z</time></trkpt><trkpt lat="15.12652644523092" lon="120.64708835056098"><ele>46.0</ele><time>2026-03-29T10:12:50.001Z</time></trkpt><trkpt lat="15.12637580484902" lon="120.64723194812571"><ele>46.66666666666667</ele><time>2026-03-29T10:12:51.001Z</time></trkpt><trkpt lat="15.126224806511342" lon="120.64737124816465"><ele>47.333333333333336</ele><time>2026-03-29T10:12:52.001Z</time></trkpt><trkpt lat="15.12607530572561" lon="120.64750943306262"><ele>48.0</ele><time>2026-03-29T10:12:53.001Z</time></trkpt><trkpt lat="15.125927586662387" lon="120.6476448780723"><ele>48.0</ele><time>2026-03-29T10:12:54.001Z</time></trkpt><trkpt lat="15.125782875199238" lon="120.64778017315017"><ele>48.0</ele><time>2026-03-29T10:12:55.001Z</time></trkpt><trkpt lat="15.125638077563485" lon="120.64791263795087"><ele>48.0</ele><time>2026-03-29T10:12:56.001Z</time></trkpt><trkpt lat="15.125495854887529" lon="120.64804452716142"><ele>48.66666666666667</ele><time>2026-03-29T10:12:57.001Z</time></trkpt><trkpt lat="15.125352471841314" lon="120.64817489024041"><ele>49.333333333333336</ele><time>2026-03-29T10:12:58.001Z</time></trkpt><trkpt lat="15.125209976144953" lon="120.64830399737012"><ele>50.0</ele><time>2026-03-29T10:12:59.001Z</time></trkpt><trkpt lat="15.125067135795769" lon="120.64843302824188"><ele>50.0</ele><time>2026-03-29T10:13:00.001Z</time></trkpt><trkpt lat="15.124924729457769" lon="120.64856251349568"><ele>50.0</ele><time>2026-03-29T10:13:01.001Z</time></trkpt><trkpt lat="15.12478088675157" lon="120.64869211810014"><ele>50.0</ele><time>2026-03-29T10:13:02.001Z</time></trkpt><trkpt lat="15.124637397241484" lon="120.64882220694561"><ele>49.66666666666667</ele><time>2026-03-29T10:13:03.001Z</time></trkpt><trkpt lat="15.12449194277702" lon="120.64895322215335"><ele>49.33333333333333</ele><time>2026-03-29T10:13:04.001Z</time></trkpt><trkpt lat="15.124345463883635" lon="120.64908309048423"><ele>49.0</ele><time>2026-03-29T10:13:05.001Z</time></trkpt><trkpt lat="15.124198150515097" lon="120.64921409985519"><ele>49.0</ele><time>2026-03-29T10:13:06.001Z</time></trkpt><trkpt lat="15.124049816922998" lon="120.64934617130784"><ele>49.0</ele><time>2026-03-29T10:13:07.001Z</time></trkpt><trkpt lat="15.123900426669303" lon="120.64947948862658"><ele>49.0</ele><time>2026-03-29T10:13:08.001Z</time></trkpt><trkpt lat="15.123749212031035" lon="120.64961187411855"><ele>49.0</ele><time>2026-03-29T10:13:09.001Z</time></trkpt><trkpt lat="15.123597947738897" lon="120.64974718272039"><ele>49.0</ele><time>2026-03-29T10:13:10.001Z</time></trkpt><trkpt lat="15.123445404700721" lon="120.64988154121478"><ele>49.0</ele><time>2026-03-29T10:13:11.001Z</time></trkpt><trkpt lat="15.123290484675445" lon="120.65001634541555"><ele>48.666666666666664</ele><time>2026-03-29T10:13:12.001Z</time></trkpt><trkpt lat="15.123135797436225" lon="120.65015266056291"><ele>48.33333333333333</ele><time>2026-03-29T10:13:13.001Z</time></trkpt><trkpt lat="15.122979996049544" lon="120.65029104296795"><ele>48.0</ele><time>2026-03-29T10:13:14.001Z</time></trkpt><trkpt lat="15.12282164276143" lon="120.6504277527368"><ele>47.666666666666664</ele><time>2026-03-29T10:13:15.001Z</time></trkpt><trkpt lat="15.122663118806681" lon="120.65056675927052"><ele>47.33333333333333</ele><time>2026-03-29T10:13:16.001Z</time></trkpt><trkpt lat="15.12250436135993" lon="120.65070562725364"><ele>47.0</ele><time>2026-03-29T10:13:17.001Z</time></trkpt><trkpt lat="15.122343669062742" lon="120.65084498367537"><ele>46.666666666666664</ele><time>2026-03-29T10:13:18.001Z</time></trkpt><trkpt lat="15.122181482192746" lon="120.65098487778296"><ele>46.333333333333336</ele><time>2026-03-29T10:13:19.001Z</time></trkpt><trkpt lat="15.122020065531071" lon="120.65112563871749"><ele>46.0</ele><time>2026-03-29T10:13:20.001Z</time></trkpt><trkpt lat="15.12185855050717" lon="120.65126556567846"><ele>45.66666666666667</ele><time>2026-03-29T10:13:21.001Z</time></trkpt><trkpt lat="15.121695550844716" lon="120.65140100946454"><ele>45.333333333333336</ele><time>2026-03-29T10:13:22.001Z</time></trkpt><trkpt lat="15.121531508421107" lon="120.65153815446926"><ele>45.0</ele><time>2026-03-29T10:13:23.001Z</time></trkpt><trkpt lat="15.121365817349938" lon="120.65167569718197"><ele>45.0</ele><time>2026-03-29T10:13:24.001Z</time></trkpt><trkpt lat="15.12120232091165" lon="120.6518160901755"><ele>45.0</ele><time>2026-03-29T10:13:25.001Z</time></trkpt><trkpt lat="15.121036463504852" lon="120.6519555838193"><ele>45.0</ele><time>2026-03-29T10:13:26.001Z</time></trkpt><trkpt lat="15.120868586839078" lon="120.65209567086522"><ele>45.333333333333336</ele><time>2026-03-29T10:13:27.001Z</time></trkpt><trkpt lat="15.120700215478784" lon="120.65223497613802"><ele>45.66666666666667</ele><time>2026-03-29T10:13:28.001Z</time></trkpt><trkpt lat="15.120529871975267" lon="120.65237671149814"><ele>46.0</ele><time>2026-03-29T10:13:29.001Z</time></trkpt><trkpt lat="15.120358960304841" lon="120.652518211075"><ele>46.0</ele><time>2026-03-29T10:13:30.001Z</time></trkpt><trkpt lat="15.120186838460492" lon="120.65266161752628"><ele>46.0</ele><time>2026-03-29T10:13:31.001Z</time></trkpt><trkpt lat="15.120013590166028" lon="120.65280500118327"><ele>46.0</ele><time>2026-03-29T10:13:32.001Z</time></trkpt><trkpt lat="15.119840029501608" lon="120.65294870975656"><ele>46.0</ele><time>2026-03-29T10:13:33.001Z</time></trkpt><trkpt lat="15.119664522354338" lon="120.653092823119"><ele>46.0</ele><time>2026-03-29T10:13:34.001Z</time></trkpt><trkpt lat="15.119487605263817" lon="120.65323546245959"><ele>46.0</ele><time>2026-03-29T10:13:35.001Z</time></trkpt><trkpt lat="15.119310002159793" lon="120.6533812480218"><ele>46.0</ele><time>2026-03-29T10:13:36.001Z</time></trkpt><trkpt lat="15.11913073268873" lon="120.65352520678307"><ele>46.0</ele><time>2026-03-29T10:13:37.001Z</time></trkpt><trkpt lat="15.118950690768733" lon="120.65367066182726"><ele>45.5</ele><time>2026-03-29T10:13:38.001Z</time></trkpt><trkpt lat="15.118770522636" lon="120.65381626942062"><ele>45.0</ele><time>2026-03-29T10:13:39.001Z</time></trkpt><trkpt lat="15.118591448282732" lon="120.6539616316269"><ele>45.0</ele><time>2026-03-29T10:13:40.001Z</time></trkpt><trkpt lat="15.11841252621164" lon="120.65410569455938"><ele>45.0</ele><time>2026-03-29T10:13:41.001Z</time></trkpt><trkpt lat="15.118232204984082" lon="120.65424967787753"><ele>43.0</ele><time>2026-03-29T10:13:42.001Z</time></trkpt><trkpt lat="15.118051973160618" lon="120.65439364401244"><ele>41.0</ele><time>2026-03-29T10:13:43.001Z</time></trkpt><trkpt lat="15.117870970659993" lon="120.65453594306021"><ele>41.0</ele><time>2026-03-29T10:13:44.001Z</time></trkpt><trkpt lat="15.117688837226432" lon="120.65468036121362"><ele>41.0</ele><time>2026-03-29T10:13:45.001Z</time></trkpt><trkpt lat="15.117505820853502" lon="120.65482448837378"><ele>42.0</ele><time>2026-03-29T10:13:46.001Z</time></trkpt><trkpt lat="15.117321601704356" lon="120.65496870360111"><ele>43.0</ele><time>2026-03-29T10:13:47.001Z</time></trkpt><trkpt lat="15.117135565718089" lon="120.65511326071768"><ele>43.0</ele><time>2026-03-29T10:13:48.001Z</time></trkpt><trkpt lat="15.116949002890378" lon="120.65525761661243"><ele>43.0</ele><time>2026-03-29T10:13:49.001Z</time></trkpt><trkpt lat="15.11676132818174" lon="120.65540119441276"><ele>43.0</ele><time>2026-03-29T10:13:50.001Z</time></trkpt><trkpt lat="15.116573501003279" lon="120.65554496220135"><ele>43.0</ele><time>2026-03-29T10:13:51.001Z</time></trkpt><trkpt lat="15.116384876079557" lon="120.65568798268816"><ele>42.5</ele><time>2026-03-29T10:13:52.001Z</time></trkpt><trkpt lat="15.116197691521535" lon="120.6558321584184"><ele>42.0</ele><time>2026-03-29T10:13:53.001Z</time></trkpt><trkpt lat="15.116012809173922" lon="120.65597308954814"><ele>42.0</ele><time>2026-03-29T10:13:54.001Z</time></trkpt><trkpt lat="15.115829448669883" lon="120.65611054205742"><ele>42.0</ele><time>2026-03-29T10:13:55.001Z</time></trkpt><trkpt lat="15.115647713891851" lon="120.65624664295046"><ele>43.0</ele><time>2026-03-29T10:13:56.001Z</time></trkpt><trkpt lat="15.115467978469548" lon="120.65638053750767"><ele>44.0</ele><time>2026-03-29T10:13:57.001Z</time></trkpt><trkpt lat="15.115288993083007" lon="120.65651326404436"><ele>45.0</ele><time>2026-03-29T10:13:58.001Z</time></trkpt><trkpt lat="15.11511180213119" lon="120.65664638445216"><ele>45.0</ele><time>2026-03-29T10:13:59.001Z</time></trkpt><trkpt lat="15.114935911854138" lon="120.65677706313897"><ele>45.0</ele><time>2026-03-29T10:14:00.001Z</time></trkpt><trkpt lat="15.114760561484495" lon="120.65690634878607"><ele>45.0</ele><time>2026-03-29T10:14:01.001Z</time></trkpt><trkpt lat="15.114585839065796" lon="120.65703524333219"><ele>44.333333333333336</ele><time>2026-03-29T10:14:02.001Z</time></trkpt><trkpt lat="15.114410425835885" lon="120.65716287795581"><ele>43.66666666666667</ele><time>2026-03-29T10:14:03.001Z</time></trkpt><trkpt lat="15.114236008367033" lon="120.65729190049335"><ele>43.0</ele><time>2026-03-29T10:14:04.001Z</time></trkpt><trkpt lat="15.114060922486988" lon="120.65742084400125"><ele>43.0</ele><time>2026-03-29T10:14:05.001Z</time></trkpt><trkpt lat="15.11388464688004" lon="120.65755001765679"><ele>43.0</ele><time>2026-03-29T10:14:06.001Z</time></trkpt><trkpt lat="15.11370780164688" lon="120.6576802507597"><ele>43.0</ele><time>2026-03-29T10:14:07.001Z</time></trkpt><trkpt lat="15.113530571397723" lon="120.65781140048148"><ele>43.333333333333336</ele><time>2026-03-29T10:14:08.001Z</time></trkpt><trkpt lat="15.11335083457934" lon="120.65794045420796"><ele>43.666666666666664</ele><time>2026-03-29T10:14:09.001Z</time></trkpt><trkpt lat="15.113170247037827" lon="120.65806931818035"><ele>44.0</ele><time>2026-03-29T10:14:10.001Z</time></trkpt><trkpt lat="15.112989802309833" lon="120.65819826701718"><ele>44.0</ele><time>2026-03-29T10:14:11.001Z</time></trkpt><trkpt lat="15.112808569546052" lon="120.65832676715996"><ele>44.0</ele><time>2026-03-29T10:14:12.001Z</time></trkpt><trkpt lat="15.112629206500317" lon="120.65845469438457"><ele>44.0</ele><time>2026-03-29T10:14:13.001Z</time></trkpt><trkpt lat="15.112451989010719" lon="120.65858135990733"><ele>44.0</ele><time>2026-03-29T10:14:14.001Z</time></trkpt><trkpt lat="15.112274878362593" lon="120.65870685673299"><ele>44.0</ele><time>2026-03-29T10:14:15.001Z</time></trkpt><trkpt lat="15.112098488976065" lon="120.6588310540881"><ele>44.0</ele><time>2026-03-29T10:14:16.001Z</time></trkpt><trkpt lat="15.111923360540876" lon="120.65895509993719"><ele>44.0</ele><time>2026-03-29T10:14:17.001Z</time></trkpt><trkpt lat="15.111747088952825" lon="120.6590789547948"><ele>44.0</ele><time>2026-03-29T10:14:18.001Z</time></trkpt><trkpt lat="15.111570450063033" lon="120.65920194550232"><ele>44.0</ele><time>2026-03-29T10:14:19.001Z</time></trkpt><trkpt lat="15.111392476267246" lon="120.65932454841274"><ele>44.0</ele><time>2026-03-29T10:14:20.001Z</time></trkpt><trkpt lat="15.111213402426142" lon="120.6594470798477"><ele>44.0</ele><time>2026-03-29T10:14:21.001Z</time></trkpt><trkpt lat="15.111032558687093" lon="120.65957076654593"><ele>44.0</ele><time>2026-03-29T10:14:22.001Z</time></trkpt><trkpt lat="15.11085062154565" lon="120.65969542951596"><ele>44.33333333333333</ele><time>2026-03-29T10:14:23.001Z</time></trkpt><trkpt lat="15.110666220154783" lon="120.65981984471921"><ele>44.666666666666664</ele><time>2026-03-29T10:14:24.001Z</time></trkpt><trkpt lat="15.11048043541428" lon="120.65994502802675"><ele>45.0</ele><time>2026-03-29T10:14:25.001Z</time></trkpt><trkpt lat="15.11029349032156" lon="120.6600718496142"><ele>45.0</ele><time>2026-03-29T10:14:26.001Z</time></trkpt><trkpt lat="15.110105556956281" lon="120.66020022557552"><ele>45.0</ele><time>2026-03-29T10:14:27.001Z</time></trkpt><trkpt lat="15.109917182089218" lon="120.66032759573218"><ele>43.5</ele><time>2026-03-29T10:14:28.001Z</time></trkpt><trkpt lat="15.109728185702634" lon="120.6604550996539"><ele>42.0</ele><time>2026-03-29T10:14:29.001Z</time></trkpt><trkpt lat="15.10953878338051" lon="120.66058371783788"><ele>42.0</ele><time>2026-03-29T10:14:30.001Z</time></trkpt><trkpt lat="15.109348046491462" lon="120.6607116444682"><ele>42.0</ele><time>2026-03-29T10:14:31.001Z</time></trkpt><trkpt lat="15.109156686303596" lon="120.66083988658957"><ele>41.5</ele><time>2026-03-29T10:14:32.001Z</time></trkpt><trkpt lat="15.108963515814665" lon="120.66096766663821"><ele>41.0</ele><time>2026-03-29T10:14:33.001Z</time></trkpt><trkpt lat="15.108769755849911" lon="120.6610967787448"><ele>40.0</ele><time>2026-03-29T10:14:34.001Z</time></trkpt><trkpt lat="15.108575812696179" lon="120.66122542823602"><ele>39.0</ele><time>2026-03-29T10:14:35.001Z</time></trkpt><trkpt lat="15.108382703570562" lon="120.66135368566334"><ele>38.5</ele><time>2026-03-29T10:14:36.001Z</time></trkpt><trkpt lat="15.108189091825922" lon="120.66148198935895"><ele>38.0</ele><time>2026-03-29T10:14:37.001Z</time></trkpt><trkpt lat="15.107997470792295" lon="120.66160898102484"><ele>38.0</ele><time>2026-03-29T10:14:38.001Z</time></trkpt><trkpt lat="15.107804427774916" lon="120.6617356829451"><ele>38.0</ele><time>2026-03-29T10:14:39.001Z</time></trkpt><trkpt lat="15.107610385820559" lon="120.66186207222003"><ele>38.5</ele><time>2026-03-29T10:14:40.001Z</time></trkpt><trkpt lat="15.10741506332781" lon="120.66198912387497"><ele>39.0</ele><time>2026-03-29T10:14:41.001Z</time></trkpt><trkpt lat="15.107217919498765" lon="120.66211634470203"><ele>39.0</ele><time>2026-03-29T10:14:42.001Z</time></trkpt><trkpt lat="15.107018106107443" lon="120.66224187344197"><ele>39.0</ele><time>2026-03-29T10:14:43.001Z</time></trkpt><trkpt lat="15.106816371500457" lon="120.66236769533826"><ele>39.0</ele><time>2026-03-29T10:14:44.001Z</time></trkpt><trkpt lat="15.106613784740663" lon="120.66249608247264"><ele>39.0</ele><time>2026-03-29T10:14:45.001Z</time></trkpt><trkpt lat="15.106409667074859" lon="120.66262520606644"><ele>38.5</ele><time>2026-03-29T10:14:46.001Z</time></trkpt><trkpt lat="15.106203883448122" lon="120.6627547259641"><ele>38.0</ele><time>2026-03-29T10:14:47.001Z</time></trkpt><trkpt lat="15.105997650579136" lon="120.66288411688592"><ele>37.0</ele><time>2026-03-29T10:14:48.001Z</time></trkpt><trkpt lat="15.105791155741509" lon="120.66301489332312"><ele>36.0</ele><time>2026-03-29T10:14:49.001Z</time></trkpt><trkpt lat="15.105584859263368" lon="120.66314494774244"><ele>36.0</ele><time>2026-03-29T10:14:50.001Z</time></trkpt><trkpt lat="15.105377626829583" lon="120.66327412273836"><ele>36.0</ele><time>2026-03-29T10:14:51.001Z</time></trkpt><trkpt lat="15.105169210325634" lon="120.66340537096136"><ele>36.0</ele><time>2026-03-29T10:14:52.001Z</time></trkpt><trkpt lat="15.104960336245705" lon="120.66353514344814"><ele>36.0</ele><time>2026-03-29T10:14:53.001Z</time></trkpt><trkpt lat="15.104750663297793" lon="120.66366377156147"><ele>35.5</ele><time>2026-03-29T10:14:54.001Z</time></trkpt><trkpt lat="15.104541029301796" lon="120.66379337973675"><ele>35.0</ele><time>2026-03-29T10:14:55.001Z</time></trkpt><trkpt lat="15.104331771283794" lon="120.66391964824493"><ele>35.0</ele><time>2026-03-29T10:14:56.001Z</time></trkpt><trkpt lat="15.104120962601085" lon="120.66404708691921"><ele>35.0</ele><time>2026-03-29T10:14:57.001Z</time></trkpt><trkpt lat="15.103910208208793" lon="120.66417357570046"><ele>35.0</ele><time>2026-03-29T10:14:58.001Z</time></trkpt><trkpt lat="15.103699532350907" lon="120.66430098913709"><ele>35.0</ele><time>2026-03-29T10:14:59.001Z</time></trkpt><trkpt lat="15.103487723062608" lon="120.66442836555207"><ele>34.5</ele><time>2026-03-29T10:15:00.001Z</time></trkpt><trkpt lat="15.10327586044585" lon="120.66455579357967"><ele>34.0</ele><time>2026-03-29T10:15:01.001Z</time></trkpt><trkpt lat="15.10306370121305" lon="120.66468260513253"><ele>35.5</ele><time>2026-03-29T10:15:02.001Z</time></trkpt><trkpt lat="15.102851366526924" lon="120.66480859752346"><ele>37.0</ele><time>2026-03-29T10:15:03.001Z</time></trkpt><trkpt lat="15.102639069978009" lon="120.66493418775529"><ele>37.0</ele><time>2026-03-29T10:15:04.001Z</time></trkpt><trkpt lat="15.102427350944515" lon="120.66505899877968"><ele>37.0</ele><time>2026-03-29T10:15:05.001Z</time></trkpt><trkpt lat="15.102215731539507" lon="120.66518310200152"><ele>36.0</ele><time>2026-03-29T10:15:06.001Z</time></trkpt><trkpt lat="15.1020051963477" lon="120.66530693619804"><ele>35.0</ele><time>2026-03-29T10:15:07.001Z</time></trkpt><trkpt lat="15.101794452161371" lon="120.66542939072002"><ele>35.0</ele><time>2026-03-29T10:15:08.001Z</time></trkpt><trkpt lat="15.10158295817954" lon="120.66555048812205"><ele>35.0</ele><time>2026-03-29T10:15:09.001Z</time></trkpt><trkpt lat="15.101370364402833" lon="120.66567038678915"><ele>35.0</ele><time>2026-03-29T10:15:10.001Z</time></trkpt><trkpt lat="15.10115767868003" lon="120.66579009261564"><ele>35.0</ele><time>2026-03-29T10:15:11.001Z</time></trkpt><trkpt lat="15.10094500485763" lon="120.6659109566096"><ele>36.0</ele><time>2026-03-29T10:15:12.001Z</time></trkpt><trkpt lat="15.100733435716224" lon="120.66603284452027"><ele>37.0</ele><time>2026-03-29T10:15:13.001Z</time></trkpt><trkpt lat="15.100522879891397" lon="120.66615513423375"><ele>37.0</ele><time>2026-03-29T10:15:14.001Z</time></trkpt><trkpt lat="15.100312391672531" lon="120.66627513106761"><ele>37.0</ele><time>2026-03-29T10:15:15.001Z</time></trkpt><trkpt lat="15.100101996442469" lon="120.66639352271855"><ele>36.0</ele><time>2026-03-29T10:15:16.001Z</time></trkpt><trkpt lat="15.099891967059312" lon="120.66651082334857"><ele>35.0</ele><time>2026-03-29T10:15:17.001Z</time></trkpt><trkpt lat="15.099682990836284" lon="120.66662649134973"><ele>35.0</ele><time>2026-03-29T10:15:18.001Z</time></trkpt><trkpt lat="15.099474003683294" lon="120.66674242674068"><ele>35.0</ele><time>2026-03-29T10:15:19.001Z</time></trkpt><trkpt lat="15.099266239042024" lon="120.66685708884044"><ele>35.0</ele><time>2026-03-29T10:15:20.001Z</time></trkpt><trkpt lat="15.099059013371054" lon="120.66697051258272"><ele>35.0</ele><time>2026-03-29T10:15:21.001Z</time></trkpt><trkpt lat="15.098852725512707" lon="120.66708354186247"><ele>35.0</ele><time>2026-03-29T10:15:22.001Z</time></trkpt><trkpt lat="15.098646961124622" lon="120.6671953262268"><ele>35.0</ele><time>2026-03-29T10:15:23.001Z</time></trkpt><trkpt lat="15.09844090573345" lon="120.66730555078989"><ele>34.0</ele><time>2026-03-29T10:15:24.001Z</time></trkpt><trkpt lat="15.098235110517289" lon="120.66741529865132"><ele>33.0</ele><time>2026-03-29T10:15:25.001Z</time></trkpt><trkpt lat="15.098030276118743" lon="120.66752609664168"><ele>33.0</ele><time>2026-03-29T10:15:26.001Z</time></trkpt><trkpt lat="15.09782581032009" lon="120.66763668232377"><ele>33.0</ele><time>2026-03-29T10:15:27.001Z</time></trkpt><trkpt lat="15.097622335287708" lon="120.66774588129685"><ele>33.0</ele><time>2026-03-29T10:15:28.001Z</time></trkpt><trkpt lat="15.097419436566677" lon="120.66785346718734"><ele>33.0</ele><time>2026-03-29T10:15:29.001Z</time></trkpt><trkpt lat="15.097216162590422" lon="120.6679614810977"><ele>33.0</ele><time>2026-03-29T10:15:30.001Z</time></trkpt><trkpt lat="15.09701357610353" lon="120.66806737591968"><ele>33.0</ele><time>2026-03-29T10:15:31.001Z</time></trkpt><trkpt lat="15.096811002186177" lon="120.66817278363"><ele>33.0</ele><time>2026-03-29T10:15:32.001Z</time></trkpt><trkpt lat="15.096608333769368" lon="120.66827790181209"><ele>33.0</ele><time>2026-03-29T10:15:33.001Z</time></trkpt><trkpt lat="15.09640566233914" lon="120.66838226487907"><ele>32.0</ele><time>2026-03-29T10:15:34.001Z</time></trkpt><trkpt lat="15.09620310584522" lon="120.66848614519091"><ele>31.0</ele><time>2026-03-29T10:15:35.001Z</time></trkpt><trkpt lat="15.096000794620933" lon="120.6685906867457"><ele>31.5</ele><time>2026-03-29T10:15:36.001Z</time></trkpt><trkpt lat="15.095798043283137" lon="120.66869639985639"><ele>32.0</ele><time>2026-03-29T10:15:37.001Z</time></trkpt><trkpt lat="15.095592236405984" lon="120.6688016495825"><ele>32.5</ele><time>2026-03-29T10:15:38.001Z</time></trkpt><trkpt lat="15.095384515901996" lon="120.66890795621809"><ele>33.0</ele><time>2026-03-29T10:15:39.001Z</time></trkpt><trkpt lat="15.095174741382472" lon="120.66901383475799"><ele>33.0</ele><time>2026-03-29T10:15:40.001Z</time></trkpt><trkpt lat="15.094962158657598" lon="120.66911947312502"><ele>33.0</ele><time>2026-03-29T10:15:41.001Z</time></trkpt><trkpt lat="15.09474722120034" lon="120.66922395387914"><ele>32.5</ele><time>2026-03-29T10:15:42.001Z</time></trkpt><trkpt lat="15.094531371644074" lon="120.66933128155252"><ele>32.0</ele><time>2026-03-29T10:15:43.001Z</time></trkpt><trkpt lat="15.094312861913991" lon="120.66943664508304"><ele>31.5</ele><time>2026-03-29T10:15:44.001Z</time></trkpt><trkpt lat="15.094093980008072" lon="120.66954441514493"><ele>31.0</ele><time>2026-03-29T10:15:45.001Z</time></trkpt><trkpt lat="15.093873402893694" lon="120.66965273534183"><ele>30.5</ele><time>2026-03-29T10:15:46.001Z</time></trkpt><trkpt lat="15.093652562385179" lon="120.6697622293871"><ele>30.0</ele><time>2026-03-29T10:15:47.001Z</time></trkpt><trkpt lat="15.09342847964744" lon="120.66987152233482"><ele>30.0</ele><time>2026-03-29T10:15:48.001Z</time></trkpt><trkpt lat="15.093202156012838" lon="120.66997899415021"><ele>30.0</ele><time>2026-03-29T10:15:49.001Z</time></trkpt><trkpt lat="15.092974895345522" lon="120.67008912464453"><ele>30.0</ele><time>2026-03-29T10:15:50.001Z</time></trkpt><trkpt lat="15.092747230589765" lon="120.6701988248439"><ele>30.0</ele><time>2026-03-29T10:15:51.001Z</time></trkpt><trkpt lat="15.092520567112373" lon="120.67031030616668"><ele>29.5</ele><time>2026-03-29T10:15:52.001Z</time></trkpt><trkpt lat="15.092292397799325" lon="120.67041910710536"><ele>29.0</ele><time>2026-03-29T10:15:53.001Z</time></trkpt><trkpt lat="15.09206430638505" lon="120.670526874504"><ele>29.0</ele><time>2026-03-29T10:15:54.001Z</time></trkpt><trkpt lat="15.091834912199669" lon="120.67063415776934"><ele>29.0</ele><time>2026-03-29T10:15:55.001Z</time></trkpt><trkpt lat="15.091604398543508" lon="120.67074008287635"><ele>29.0</ele><time>2026-03-29T10:15:56.001Z</time></trkpt><trkpt lat="15.091372963142902" lon="120.67084722012308"><ele>29.0</ele><time>2026-03-29T10:15:57.001Z</time></trkpt><trkpt lat="15.091139743566304" lon="120.67095704467111"><ele>29.0</ele><time>2026-03-29T10:15:58.001Z</time></trkpt><trkpt lat="15.090904788033201" lon="120.6710655826474"><ele>29.0</ele><time>2026-03-29T10:15:59.001Z</time></trkpt><trkpt lat="15.090668383762383" lon="120.67117401088771"><ele>29.0</ele><time>2026-03-29T10:16:00.001Z</time></trkpt><trkpt lat="15.090429085403855" lon="120.67128253297707"><ele>29.0</ele><time>2026-03-29T10:16:01.001Z</time></trkpt><trkpt lat="15.090190041403558" lon="120.67139174642438"><ele>29.0</ele><time>2026-03-29T10:16:02.001Z</time></trkpt><trkpt lat="15.089950515466278" lon="120.67149767226101"><ele>29.0</ele><time>2026-03-29T10:16:03.001Z</time></trkpt><trkpt lat="15.089711850011199" lon="120.67160897275964"><ele>28.5</ele><time>2026-03-29T10:16:04.001Z</time></trkpt><trkpt lat="15.089473225084808" lon="120.67171401061167"><ele>28.0</ele><time>2026-03-29T10:16:05.001Z</time></trkpt><trkpt lat="15.089236756181014" lon="120.67182173991083"><ele>28.0</ele><time>2026-03-29T10:16:06.001Z</time></trkpt><trkpt lat="15.088999463474847" lon="120.67192663568332"><ele>28.0</ele><time>2026-03-29T10:16:07.001Z</time></trkpt><trkpt lat="15.088761971498343" lon="120.67202795131915"><ele>28.0</ele><time>2026-03-29T10:16:08.001Z</time></trkpt><trkpt lat="15.088526343119108" lon="120.6721339044818"><ele>28.0</ele><time>2026-03-29T10:16:09.001Z</time></trkpt><trkpt lat="15.088290370636471" lon="120.67223634502885"><ele>28.5</ele><time>2026-03-29T10:16:10.001Z</time></trkpt><trkpt lat="15.088053976178125" lon="120.67233887877063"><ele>29.0</ele><time>2026-03-29T10:16:11.001Z</time></trkpt><trkpt lat="15.087818561046905" lon="120.67243665560403"><ele>29.0</ele><time>2026-03-29T10:16:12.001Z</time></trkpt><trkpt lat="15.087584345060334" lon="120.67254109827621"><ele>29.0</ele><time>2026-03-29T10:16:13.001Z</time></trkpt><trkpt lat="15.08735040516432" lon="120.67264073489335"><ele>28.0</ele><time>2026-03-29T10:16:14.001Z</time></trkpt><trkpt lat="15.087118547012949" lon="120.67274389993023"><ele>27.0</ele><time>2026-03-29T10:16:15.001Z</time></trkpt><trkpt lat="15.086885701517643" lon="120.67284320414112"><ele>27.0</ele><time>2026-03-29T10:16:16.001Z</time></trkpt><trkpt lat="15.086652709467337" lon="120.672939423553"><ele>27.0</ele><time>2026-03-29T10:16:17.001Z</time></trkpt><trkpt lat="15.086420696431041" lon="120.67303509197258"><ele>27.0</ele><time>2026-03-29T10:16:18.001Z</time></trkpt><trkpt lat="15.086189684216238" lon="120.6731313765275"><ele>27.0</ele><time>2026-03-29T10:16:19.001Z</time></trkpt><trkpt lat="15.085957780915681" lon="120.67322596779564"><ele>26.5</ele><time>2026-03-29T10:16:20.001Z</time></trkpt><trkpt lat="15.085726848222798" lon="120.67332080581586"><ele>26.0</ele><time>2026-03-29T10:16:21.001Z</time></trkpt><trkpt lat="15.085497049676727" lon="120.67341555734792"><ele>26.0</ele><time>2026-03-29T10:16:22.001Z</time></trkpt><trkpt lat="15.085268041356247" lon="120.67350853658913"><ele>26.0</ele><time>2026-03-29T10:16:23.001Z</time></trkpt><trkpt lat="15.085039891302737" lon="120.67360021167178"><ele>25.0</ele><time>2026-03-29T10:16:24.001Z</time></trkpt><trkpt lat="15.084811697676212" lon="120.67369174884594"><ele>24.0</ele><time>2026-03-29T10:16:25.001Z</time></trkpt><trkpt lat="15.084584986438111" lon="120.67378206691161"><ele>24.0</ele><time>2026-03-29T10:16:26.001Z</time></trkpt><trkpt lat="15.084357007661172" lon="120.67387132699389"><ele>24.0</ele><time>2026-03-29T10:16:27.001Z</time></trkpt><trkpt lat="15.084129604907288" lon="120.67396054742314"><ele>25.0</ele><time>2026-03-29T10:16:28.001Z</time></trkpt><trkpt lat="15.08390176711548" lon="120.67404869033804"><ele>26.0</ele><time>2026-03-29T10:16:29.001Z</time></trkpt><trkpt lat="15.083673617402937" lon="120.67413767965093"><ele>26.0</ele><time>2026-03-29T10:16:30.001Z</time></trkpt><trkpt lat="15.083445648132708" lon="120.67422671382246"><ele>26.0</ele><time>2026-03-29T10:16:31.001Z</time></trkpt><trkpt lat="15.083217853095935" lon="120.67431517007758"><ele>26.0</ele><time>2026-03-29T10:16:32.001Z</time></trkpt><trkpt lat="15.082988544835324" lon="120.67440486255089"><ele>26.0</ele><time>2026-03-29T10:16:33.001Z</time></trkpt><trkpt lat="15.082760353347982" lon="120.6744945905475"><ele>25.0</ele><time>2026-03-29T10:16:34.001Z</time></trkpt><trkpt lat="15.08253042506398" lon="120.67458428917527"><ele>24.0</ele><time>2026-03-29T10:16:35.001Z</time></trkpt><trkpt lat="15.082299074652736" lon="120.6746749465244"><ele>24.0</ele><time>2026-03-29T10:16:36.001Z</time></trkpt><trkpt lat="15.08206709026143" lon="120.6747655166525"><ele>24.0</ele><time>2026-03-29T10:16:37.001Z</time></trkpt><trkpt lat="15.08183447008382" lon="120.67485591450816"><ele>24.0</ele><time>2026-03-29T10:16:38.001Z</time></trkpt><trkpt lat="15.081601312387123" lon="120.67494893400868"><ele>24.0</ele><time>2026-03-29T10:16:39.001Z</time></trkpt><trkpt lat="15.081367542234643" lon="120.67504152198848"><ele>26.5</ele><time>2026-03-29T10:16:40.001Z</time></trkpt><trkpt lat="15.081133997634328" lon="120.67513564498825"><ele>29.0</ele><time>2026-03-29T10:16:41.001Z</time></trkpt><trkpt lat="15.080901109138177" lon="120.67523087127088"><ele>27.0</ele><time>2026-03-29T10:16:42.001Z</time></trkpt><trkpt lat="15.080669644062061" lon="120.67532754958448"><ele>25.0</ele><time>2026-03-29T10:16:43.001Z</time></trkpt><trkpt lat="15.080438384048602" lon="120.67542512867225"><ele>25.0</ele><time>2026-03-29T10:16:44.001Z</time></trkpt><trkpt lat="15.08021021820777" lon="120.67551985323857"><ele>25.0</ele><time>2026-03-29T10:16:45.001Z</time></trkpt><trkpt lat="15.079981955922374" lon="120.67561620158675"><ele>25.5</ele><time>2026-03-29T10:16:46.001Z</time></trkpt><trkpt lat="15.079754867835284" lon="120.67570963594697"><ele>26.0</ele><time>2026-03-29T10:16:47.001Z</time></trkpt><trkpt lat="15.079529113868862" lon="120.67580300693567"><ele>26.0</ele><time>2026-03-29T10:16:48.001Z</time></trkpt><trkpt lat="15.079305226254533" lon="120.67589671387486"><ele>26.0</ele><time>2026-03-29T10:16:49.001Z</time></trkpt><trkpt lat="15.079084577867619" lon="120.67599157008448"><ele>26.0</ele><time>2026-03-29T10:16:50.001Z</time></trkpt><trkpt lat="15.078863713364642" lon="120.67608641360668"><ele>26.0</ele><time>2026-03-29T10:16:51.001Z</time></trkpt><trkpt lat="15.078645254361424" lon="120.67618181138411"><ele>26.5</ele><time>2026-03-29T10:16:52.001Z</time></trkpt><trkpt lat="15.078426311540252" lon="120.67627655994862"><ele>27.0</ele><time>2026-03-29T10:16:53.001Z</time></trkpt><trkpt lat="15.078207485978162" lon="120.67637111796644"><ele>26.0</ele><time>2026-03-29T10:16:54.001Z</time></trkpt><trkpt lat="15.077986984943097" lon="120.67646732080321"><ele>25.0</ele><time>2026-03-29T10:16:55.001Z</time></trkpt><trkpt lat="15.077767160924335" lon="120.67656642959675"><ele>25.0</ele><time>2026-03-29T10:16:56.001Z</time></trkpt><trkpt lat="15.077545414758617" lon="120.67666444567924"><ele>25.0</ele><time>2026-03-29T10:16:57.001Z</time></trkpt><trkpt lat="15.07732509192037" lon="120.67676839918617"><ele>25.0</ele><time>2026-03-29T10:16:58.001Z</time></trkpt><trkpt lat="15.077101916272147" lon="120.67686884335518"><ele>25.0</ele><time>2026-03-29T10:16:59.001Z</time></trkpt><trkpt lat="15.076877823236313" lon="120.6769691914541"><ele>25.0</ele><time>2026-03-29T10:17:00.001Z</time></trkpt><trkpt lat="15.076655100566928" lon="120.6770720853741"><ele>25.0</ele><time>2026-03-29T10:17:01.001Z</time></trkpt><trkpt lat="15.076434887295337" lon="120.677174984016"><ele>24.5</ele><time>2026-03-29T10:17:02.001Z</time></trkpt><trkpt lat="15.076214561895235" lon="120.67727562964417"><ele>24.0</ele><time>2026-03-29T10:17:03.001Z</time></trkpt><trkpt lat="15.075994314868339" lon="120.67737854349892"><ele>24.0</ele><time>2026-03-29T10:17:04.001Z</time></trkpt><trkpt lat="15.075773659035917" lon="120.67747895409401"><ele>24.0</ele><time>2026-03-29T10:17:05.001Z</time></trkpt><trkpt lat="15.075557272989402" lon="120.6775818623311"><ele>24.0</ele><time>2026-03-29T10:17:06.001Z</time></trkpt><trkpt lat="15.075343608076775" lon="120.67768353580497"><ele>24.0</ele><time>2026-03-29T10:17:07.001Z</time></trkpt><trkpt lat="15.075134740056551" lon="120.6777826026383"><ele>25.0</ele><time>2026-03-29T10:17:08Z</time></trkpt><trkpt lat="15.074928442982172" lon="120.6778833392699"><ele>26.0</ele><time>2026-03-29T10:17:09Z</time></trkpt><trkpt lat="15.074725157936827" lon="120.67798138025844"><ele>26.0</ele><time>2026-03-29T10:17:10Z</time></trkpt><trkpt lat="15.074523364272462" lon="120.67807833466316"><ele>26.0</ele><time>2026-03-29T10:17:11Z</time></trkpt><trkpt lat="15.074322674643907" lon="120.67817378027391"><ele>26.0</ele><time>2026-03-29T10:17:12Z</time></trkpt><trkpt lat="15.07412722592311" lon="120.67827256328663"><ele>25.0</ele><time>2026-03-29T10:17:13Z</time></trkpt><trkpt lat="15.073928805054916" lon="120.6783657288222"><ele>24.0</ele><time>2026-03-29T10:17:14Z</time></trkpt><trkpt lat="15.073734060043845" lon="120.67846086014454"><ele>23.0</ele><time>2026-03-29T10:17:15Z</time></trkpt><trkpt lat="15.073540630108981" lon="120.67855493622152"><ele>23.333333333333336</ele><time>2026-03-29T10:17:16Z</time></trkpt><trkpt lat="15.073347078447144" lon="120.67864474163859"><ele>23.666666666666668</ele><time>2026-03-29T10:17:17Z</time></trkpt><trkpt lat="15.073157372160319" lon="120.67873787006086"><ele>24.0</ele><time>2026-03-29T10:17:18Z</time></trkpt><trkpt lat="15.07297039404666" lon="120.67882745640722"><ele>24.0</ele><time>2026-03-29T10:17:19Z</time></trkpt><trkpt lat="15.07278621334352" lon="120.67891883636148"><ele>24.0</ele><time>2026-03-29T10:17:20Z</time></trkpt><trkpt lat="15.072604360173532" lon="120.67900962946908"><ele>24.0</ele><time>2026-03-29T10:17:21Z</time></trkpt><trkpt lat="15.072425452315503" lon="120.67910068066949"><ele>23.333333333333332</ele><time>2026-03-29T10:17:22Z</time></trkpt><trkpt lat="15.072247871753936" lon="120.67919213073249"><ele>22.666666666666664</ele><time>2026-03-29T10:17:23Z</time></trkpt><trkpt lat="15.072068566048825" lon="120.6792845851324"><ele>22.0</ele><time>2026-03-29T10:17:24Z</time></trkpt><trkpt lat="15.071888060844604" lon="120.67938073199585"><ele>21.666666666666664</ele><time>2026-03-29T10:17:25Z</time></trkpt><trkpt lat="15.071705018600793" lon="120.6794800512349"><ele>21.333333333333332</ele><time>2026-03-29T10:17:26Z</time></trkpt><trkpt lat="15.071518853444289" lon="120.6795814124402"><ele>21.0</ele><time>2026-03-29T10:17:27Z</time></trkpt><trkpt lat="15.071328103981703" lon="120.67967992926513"><ele>21.666666666666668</ele><time>2026-03-29T10:17:28Z</time></trkpt><trkpt lat="15.071134357224922" lon="120.67977980139459"><ele>22.333333333333336</ele><time>2026-03-29T10:17:29Z</time></trkpt><trkpt lat="15.070935186876246" lon="120.67987950798062"><ele>23.0</ele><time>2026-03-29T10:17:30Z</time></trkpt><trkpt lat="15.070734114821557" lon="120.67998204648424"><ele>23.0</ele><time>2026-03-29T10:17:31Z</time></trkpt><trkpt lat="15.070529639010857" lon="120.68008723765737"><ele>23.0</ele><time>2026-03-29T10:17:32Z</time></trkpt><trkpt lat="15.070323979548785" lon="120.68019551985185"><ele>22.0</ele><time>2026-03-29T10:17:33Z</time></trkpt><trkpt lat="15.070119175025168" lon="120.68030880392445"><ele>21.0</ele><time>2026-03-29T10:17:34Z</time></trkpt><trkpt lat="15.069914401305613" lon="120.6804198038647"><ele>21.0</ele><time>2026-03-29T10:17:35Z</time></trkpt><trkpt lat="15.069713751619803" lon="120.6805339876809"><ele>21.0</ele><time>2026-03-29T10:17:36Z</time></trkpt><trkpt lat="15.069512746618214" lon="120.68064362971333"><ele>21.0</ele><time>2026-03-29T10:17:37Z</time></trkpt><trkpt lat="15.069315130872836" lon="120.68075221832329"><ele>21.0</ele><time>2026-03-29T10:17:38Z</time></trkpt><trkpt lat="15.069120050674465" lon="120.68086225299264"><ele>21.0</ele><time>2026-03-29T10:17:39Z</time></trkpt><trkpt lat="15.068925950664646" lon="120.68096830309698"><ele>21.0</ele><time>2026-03-29T10:17:40Z</time></trkpt><trkpt lat="15.068734790801932" lon="120.68107706265855"><ele>21.0</ele><time>2026-03-29T10:17:41Z</time></trkpt><trkpt lat="15.068543028156538" lon="120.68118578402375"><ele>21.0</ele><time>2026-03-29T10:17:42Z</time></trkpt><trkpt lat="15.068352274158398" lon="120.68129481403173"><ele>20.666666666666668</ele><time>2026-03-29T10:17:43Z</time></trkpt><trkpt lat="15.068163058529485" lon="120.68140160424286"><ele>20.333333333333336</ele><time>2026-03-29T10:17:44Z</time></trkpt><trkpt lat="15.06797751008729" lon="120.68150607181174"><ele>20.0</ele><time>2026-03-29T10:17:45Z</time></trkpt><trkpt lat="15.06779283444728" lon="120.68161219959318"><ele>20.0</ele><time>2026-03-29T10:17:46Z</time></trkpt><trkpt lat="15.067611189241367" lon="120.68171713364409"><ele>20.0</ele><time>2026-03-29T10:17:47Z</time></trkpt><trkpt lat="15.067432646848363" lon="120.68182172818678"><ele>20.0</ele><time>2026-03-29T10:17:48Z</time></trkpt><trkpt lat="15.06725399007036" lon="120.68192475799967"><ele>19.0</ele><time>2026-03-29T10:17:49Z</time></trkpt><trkpt lat="15.067075292856213" lon="120.68202896055166"><ele>18.0</ele><time>2026-03-29T10:17:50Z</time></trkpt><trkpt lat="15.066896809847261" lon="120.68213419378966"><ele>17.0</ele><time>2026-03-29T10:17:51Z</time></trkpt><trkpt lat="15.066716900871162" lon="120.68224021034426"><ele>17.333333333333336</ele><time>2026-03-29T10:17:52Z</time></trkpt><trkpt lat="15.066536936574282" lon="120.68234449493312"><ele>17.666666666666668</ele><time>2026-03-29T10:17:53Z</time></trkpt><trkpt lat="15.066358672853406" lon="120.68245021178558"><ele>18.0</ele><time>2026-03-29T10:17:54Z</time></trkpt><trkpt lat="15.066181329099138" lon="120.68255544692526"><ele>18.0</ele><time>2026-03-29T10:17:55.001Z</time></trkpt><trkpt lat="15.066005544707817" lon="120.68265927023288"><ele>18.0</ele><time>2026-03-29T10:17:56.001Z</time></trkpt><trkpt lat="15.065831533286904" lon="120.68276387050902"><ele>18.0</ele><time>2026-03-29T10:17:57.001Z</time></trkpt><trkpt lat="15.065659211593937" lon="120.68286788767116"><ele>18.0</ele><time>2026-03-29T10:17:58.001Z</time></trkpt><trkpt lat="15.065488032164383" lon="120.68297176507902"><ele>18.0</ele><time>2026-03-29T10:17:59.001Z</time></trkpt><trkpt lat="15.065315138377484" lon="120.68307592259146"><ele>18.0</ele><time>2026-03-29T10:18:00.001Z</time></trkpt><trkpt lat="15.065140492252144" lon="120.68318145315139"><ele>18.0</ele><time>2026-03-29T10:18:01.001Z</time></trkpt><trkpt lat="15.064963116521032" lon="120.68328813766298"><ele>18.0</ele><time>2026-03-29T10:18:02.001Z</time></trkpt><trkpt lat="15.064786696209264" lon="120.68339598551638"><ele>18.0</ele><time>2026-03-29T10:18:03.001Z</time></trkpt><trkpt lat="15.064609010557055" lon="120.68350392299494"><ele>17.333333333333332</ele><time>2026-03-29T10:18:04.001Z</time></trkpt><trkpt lat="15.064430774685448" lon="120.68361524768167"><ele>16.666666666666664</ele><time>2026-03-29T10:18:05.001Z</time></trkpt><trkpt lat="15.064250276524994" lon="120.68372745378575"><ele>16.0</ele><time>2026-03-29T10:18:06.001Z</time></trkpt><trkpt lat="15.06406986561285" lon="120.68383980464523"><ele>16.0</ele><time>2026-03-29T10:18:07.001Z</time></trkpt><trkpt lat="15.063891928539581" lon="120.68395116090457"><ele>16.0</ele><time>2026-03-29T10:18:08.001Z</time></trkpt><trkpt lat="15.063716713324064" lon="120.68406205908258"><ele>16.0</ele><time>2026-03-29T10:18:09.001Z</time></trkpt><trkpt lat="15.06354876097148" lon="120.68417057591644"><ele>16.0</ele><time>2026-03-29T10:18:10.001Z</time></trkpt><trkpt lat="15.063386021607894" lon="120.68427631368509"><ele>16.0</ele><time>2026-03-29T10:18:11.001Z</time></trkpt><trkpt lat="15.06322504135608" lon="120.68438160030928"><ele>16.0</ele><time>2026-03-29T10:18:12.001Z</time></trkpt><trkpt lat="15.063064375213543" lon="120.68448567371196"><ele>16.0</ele><time>2026-03-29T10:18:13.001Z</time></trkpt><trkpt lat="15.062902897433197" lon="120.6845918270583"><ele>16.0</ele><time>2026-03-29T10:18:14.001Z</time></trkpt><trkpt lat="15.06273878876232" lon="120.6847009223493"><ele>16.0</ele><time>2026-03-29T10:18:15.001Z</time></trkpt><trkpt lat="15.062572377724022" lon="120.68481125527241"><ele>15.333333333333332</ele><time>2026-03-29T10:18:16.001Z</time></trkpt><trkpt lat="15.062403359097756" lon="120.68492194440779"><ele>14.666666666666668</ele><time>2026-03-29T10:18:17.001Z</time></trkpt><trkpt lat="15.062233647952045" lon="120.68503102964401"><ele>14.0</ele><time>2026-03-29T10:18:18.001Z</time></trkpt><trkpt lat="15.06206930547215" lon="120.68513796067467"><ele>14.0</ele><time>2026-03-29T10:18:19.001Z</time></trkpt><trkpt lat="15.061913255054616" lon="120.68524029393842"><ele>14.0</ele><time>2026-03-29T10:18:20.001Z</time></trkpt><trkpt lat="15.061760331052954" lon="120.68534082417975"><ele>14.0</ele><time>2026-03-29T10:18:21.001Z</time></trkpt><trkpt lat="15.061609852470458" lon="120.68543929418146"><ele>14.0</ele><time>2026-03-29T10:18:22.001Z</time></trkpt><trkpt lat="15.061462438856958" lon="120.685534045185"><ele>14.0</ele><time>2026-03-29T10:18:23.001Z</time></trkpt><trkpt lat="15.06131519938993" lon="120.68562995117047"><ele>14.0</ele><time>2026-03-29T10:18:24.001Z</time></trkpt><trkpt lat="15.061164732235497" lon="120.68572954285273"><ele>14.0</ele><time>2026-03-29T10:18:25.001Z</time></trkpt><trkpt lat="15.061009836925608" lon="120.6858311574871"><ele>14.0</ele><time>2026-03-29T10:18:26.001Z</time></trkpt><trkpt lat="15.060849560780046" lon="120.68593759803476"><ele>14.0</ele><time>2026-03-29T10:18:27.001Z</time></trkpt><trkpt lat="15.060680691427715" lon="120.68604735854082"><ele>14.333333333333334</ele><time>2026-03-29T10:18:28.001Z</time></trkpt><trkpt lat="15.060506393964726" lon="120.6861631811369"><ele>14.666666666666668</ele><time>2026-03-29T10:18:29.001Z</time></trkpt><trkpt lat="15.060325621029673" lon="120.6862834431444"><ele>15.0</ele><time>2026-03-29T10:18:30.001Z</time></trkpt><trkpt lat="15.060139982881815" lon="120.68640714875255"><ele>15.0</ele><time>2026-03-29T10:18:31.001Z</time></trkpt><trkpt lat="15.059950933537614" lon="120.68653620947201"><ele>15.0</ele><time>2026-03-29T10:18:32.001Z</time></trkpt><trkpt lat="15.059760587709212" lon="120.68667062202343"><ele>15.0</ele><time>2026-03-29T10:18:33.001Z</time></trkpt><trkpt lat="15.059570993318117" lon="120.68680871527634"><ele>15.0</ele><time>2026-03-29T10:18:34.001Z</time></trkpt><trkpt lat="15.059381431955968" lon="120.68694708222392"><ele>14.5</ele><time>2026-03-29T10:18:35.001Z</time></trkpt><trkpt lat="15.059194375843482" lon="120.68708410561769"><ele>14.0</ele><time>2026-03-29T10:18:36.001Z</time></trkpt><trkpt lat="15.059009658634443" lon="120.68721988679248"><ele>14.0</ele><time>2026-03-29T10:18:37.001Z</time></trkpt><trkpt lat="15.058827249670802" lon="120.68735303241641"><ele>14.0</ele><time>2026-03-29T10:18:38.001Z</time></trkpt><trkpt lat="15.05864622464395" lon="120.68748438479376"><ele>14.0</ele><time>2026-03-29T10:18:39.001Z</time></trkpt><trkpt lat="15.058465884186473" lon="120.68761613830353"><ele>14.0</ele><time>2026-03-29T10:18:40.001Z</time></trkpt><trkpt lat="15.058286764513394" lon="120.68774683927103"><ele>14.0</ele><time>2026-03-29T10:18:41.001Z</time></trkpt><trkpt lat="15.058107007094874" lon="120.68787714477963"><ele>14.0</ele><time>2026-03-29T10:18:42.001Z</time></trkpt><trkpt lat="15.057928821021276" lon="120.68800687968563"><ele>14.0</ele><time>2026-03-29T10:18:43.001Z</time></trkpt><trkpt lat="15.057753089394382" lon="120.68813564747776"><ele>14.0</ele><time>2026-03-29T10:18:44.001Z</time></trkpt><trkpt lat="15.057579737381257" lon="120.68826190275524"><ele>14.0</ele><time>2026-03-29T10:18:45.001Z</time></trkpt><trkpt lat="15.057409495881998" lon="120.68838683908321"><ele>13.666666666666668</ele><time>2026-03-29T10:18:46.001Z</time></trkpt><trkpt lat="15.057242630587485" lon="120.68850893057069"><ele>13.333333333333332</ele><time>2026-03-29T10:18:47.001Z</time></trkpt><trkpt lat="15.05708284746841" lon="120.68862699101194"><ele>13.0</ele><time>2026-03-29T10:18:48.001Z</time></trkpt><trkpt lat="15.05693116284868" lon="120.6887391580598"><ele>12.0</ele><time>2026-03-29T10:18:49.001Z</time></trkpt><trkpt lat="15.056782909347465" lon="120.6888495464189"><ele>11.0</ele><time>2026-03-29T10:18:50.001Z</time></trkpt><trkpt lat="15.056636566995678" lon="120.6889580061176"><ele>10.0</ele><time>2026-03-29T10:18:51.001Z</time></trkpt><trkpt lat="15.056493471914377" lon="120.68906482399115"><ele>10.0</ele><time>2026-03-29T10:18:52.001Z</time></trkpt><trkpt lat="15.056352415389615" lon="120.68917175489469"><ele>10.0</ele><time>2026-03-29T10:18:53.001Z</time></trkpt><trkpt lat="15.056210396989549" lon="120.68927908615781"><ele>10.0</ele><time>2026-03-29T10:18:54.001Z</time></trkpt><trkpt lat="15.056070233353708" lon="120.68938449883261"><ele>10.0</ele><time>2026-03-29T10:18:55.001Z</time></trkpt><trkpt lat="15.055928271468373" lon="120.6894905291017"><ele>10.0</ele><time>2026-03-29T10:18:56.001Z</time></trkpt><trkpt lat="15.055783840692612" lon="120.68959662053693"><ele>10.0</ele><time>2026-03-29T10:18:57.001Z</time></trkpt><trkpt lat="15.055641564818535" lon="120.68970873638524"><ele>10.0</ele><time>2026-03-29T10:18:58.001Z</time></trkpt><trkpt lat="15.05549647035456" lon="120.68982428087055"><ele>10.0</ele><time>2026-03-29T10:18:59.001Z</time></trkpt><trkpt lat="15.055346415020901" lon="120.68994342494577"><ele>10.0</ele><time>2026-03-29T10:19:00.001Z</time></trkpt><trkpt lat="15.055194926111167" lon="120.69006331429551"><ele>10.0</ele><time>2026-03-29T10:19:01.001Z</time></trkpt><trkpt lat="15.055040120200754" lon="120.69018440877836"><ele>10.0</ele><time>2026-03-29T10:19:02.001Z</time></trkpt><trkpt lat="15.054885106678233" lon="120.69030648777871"><ele>10.0</ele><time>2026-03-29T10:19:03.001Z</time></trkpt><trkpt lat="15.054729232916984" lon="120.69042932168564"><ele>10.0</ele><time>2026-03-29T10:19:04.001Z</time></trkpt><trkpt lat="15.054572516661167" lon="120.69055351023194"><ele>10.0</ele><time>2026-03-29T10:19:05.001Z</time></trkpt><trkpt lat="15.054414460734812" lon="120.69067791687493"><ele>10.0</ele><time>2026-03-29T10:19:06.001Z</time></trkpt><trkpt lat="15.05425513039714" lon="120.69080295835653"><ele>10.333333333333334</ele><time>2026-03-29T10:19:07.001Z</time></trkpt><trkpt lat="15.054098004069253" lon="120.6909270941078"><ele>10.666666666666666</ele><time>2026-03-29T10:19:08.001Z</time></trkpt><trkpt lat="15.053944698084111" lon="120.6910497737716"><ele>11.0</ele><time>2026-03-29T10:19:09.001Z</time></trkpt><trkpt lat="15.053793957860645" lon="120.69117122172794"><ele>11.0</ele><time>2026-03-29T10:19:10.001Z</time></trkpt><trkpt lat="15.05364619080127" lon="120.69128909314311"><ele>11.0</ele><time>2026-03-29T10:19:11.001Z</time></trkpt><trkpt lat="15.053501151455444" lon="120.6914038155343"><ele>11.0</ele><time>2026-03-29T10:19:12.001Z</time></trkpt><trkpt lat="15.053358279855939" lon="120.69151742438741"><ele>10.0</ele><time>2026-03-29T10:19:13Z</time></trkpt><trkpt lat="15.053218062395715" lon="120.69163207055983"><ele>9.0</ele><time>2026-03-29T10:19:14Z</time></trkpt><trkpt lat="15.053080161120265" lon="120.69174603530516"><ele>8.0</ele><time>2026-03-29T10:19:15Z</time></trkpt><trkpt lat="15.052944672521075" lon="120.6918585211458"><ele>9.0</ele><time>2026-03-29T10:19:16Z</time></trkpt><trkpt lat="15.05280929477153" lon="120.69196933367932"><ele>10.0</ele><time>2026-03-29T10:19:17Z</time></trkpt><trkpt lat="15.052675786854694" lon="120.69207746841646"><ele>11.0</ele><time>2026-03-29T10:19:18Z</time></trkpt><trkpt lat="15.052544055618567" lon="120.69218440431392"><ele>11.333333333333332</ele><time>2026-03-29T10:19:19Z</time></trkpt><trkpt lat="15.052415500891398" lon="120.69229100664151"><ele>11.666666666666666</ele><time>2026-03-29T10:19:20Z</time></trkpt><trkpt lat="15.052288060433485" lon="120.69239699857512"><ele>12.0</ele><time>2026-03-29T10:19:21Z</time></trkpt><trkpt lat="15.052163714053096" lon="120.69250174759968"><ele>12.0</ele><time>2026-03-29T10:19:22Z</time></trkpt><trkpt lat="15.052041733271635" lon="120.69260692986943"><ele>12.0</ele><time>2026-03-29T10:19:23Z</time></trkpt><trkpt lat="15.051921958628661" lon="120.6927083198123"><ele>12.0</ele><time>2026-03-29T10:19:24Z</time></trkpt><trkpt lat="15.0518058335195" lon="120.69280561054464"><ele>11.5</ele><time>2026-03-29T10:19:25Z</time></trkpt><trkpt lat="15.051694388945878" lon="120.69289762010035"><ele>11.0</ele><time>2026-03-29T10:19:26Z</time></trkpt><trkpt lat="15.051586403029766" lon="120.69298758569533"><ele>10.5</ele><time>2026-03-29T10:19:27Z</time></trkpt><trkpt lat="15.051480558475046" lon="120.69307702775289"><ele>10.0</ele><time>2026-03-29T10:19:28Z</time></trkpt><trkpt lat="15.051370398607528" lon="120.69316945020142"><ele>11.333333333333334</ele><time>2026-03-29T10:19:29Z</time></trkpt><trkpt lat="15.051255375044315" lon="120.69326425592375"><ele>12.666666666666668</ele><time>2026-03-29T10:19:30Z</time></trkpt><trkpt lat="15.051137614153387" lon="120.6933694618419"><ele>14.0</ele><time>2026-03-29T10:19:31Z</time></trkpt><trkpt lat="15.05101628930041" lon="120.69347982768161"><ele>13.0</ele><time>2026-03-29T10:19:32Z</time></trkpt><trkpt lat="15.050890598162747" lon="120.69359516199991"><ele>12.0</ele><time>2026-03-29T10:19:33Z</time></trkpt><trkpt lat="15.050760432832709" lon="120.69371514690927"><ele>11.0</ele><time>2026-03-29T10:19:34Z</time></trkpt><trkpt lat="15.050625269623902" lon="120.69383725630017"><ele>10.333333333333332</ele><time>2026-03-29T10:19:35Z</time></trkpt><trkpt lat="15.05048694477316" lon="120.69396243408663"><ele>9.666666666666666</ele><time>2026-03-29T10:19:36Z</time></trkpt><trkpt lat="15.05034558453321" lon="120.69408891031101"><ele>9.0</ele><time>2026-03-29T10:19:37Z</time></trkpt><trkpt lat="15.050201154477906" lon="120.6942180463685"><ele>9.0</ele><time>2026-03-29T10:19:38Z</time></trkpt><trkpt lat="15.050054082697388" lon="120.69434871472714"><ele>9.0</ele><time>2026-03-29T10:19:39Z</time></trkpt><trkpt lat="15.049906490208759" lon="120.69447967819967"><ele>9.0</ele><time>2026-03-29T10:19:40Z</time></trkpt><trkpt lat="15.049756985125981" lon="120.69461383914518"><ele>9.666666666666666</ele><time>2026-03-29T10:19:41Z</time></trkpt><trkpt lat="15.049606138473644" lon="120.69474885177037"><ele>10.333333333333332</ele><time>2026-03-29T10:19:42Z</time></trkpt><trkpt lat="15.049451620735702" lon="120.69488620930746"><ele>11.0</ele><time>2026-03-29T10:19:43Z</time></trkpt><trkpt lat="15.049296848106936" lon="120.69502474979922"><ele>11.0</ele><time>2026-03-29T10:19:44Z</time></trkpt><trkpt lat="15.049140672383663" lon="120.69516473101856"><ele>11.0</ele><time>2026-03-29T10:19:45Z</time></trkpt><trkpt lat="15.048984744325402" lon="120.69530489552385"><ele>11.0</ele><time>2026-03-29T10:19:46Z</time></trkpt><trkpt lat="15.048830056517273" lon="120.69544379530657"><ele>10.0</ele><time>2026-03-29T10:19:47Z</time></trkpt><trkpt lat="15.048676742091915" lon="120.695582641842"><ele>9.0</ele><time>2026-03-29T10:19:48Z</time></trkpt><trkpt lat="15.04852154526703" lon="120.69572124598936"><ele>8.0</ele><time>2026-03-29T10:19:49Z</time></trkpt><trkpt lat="15.048368772542485" lon="120.69585966407581"><ele>8.333333333333332</ele><time>2026-03-29T10:19:50Z</time></trkpt><trkpt lat="15.048218365492431" lon="120.69599753119347"><ele>8.666666666666666</ele><time>2026-03-29T10:19:51Z</time></trkpt><trkpt lat="15.048067859908963" lon="120.69613548212627"><ele>9.0</ele><time>2026-03-29T10:19:52Z</time></trkpt><trkpt lat="15.047917433082013" lon="120.69627390228746"><ele>9.0</ele><time>2026-03-29T10:19:53Z</time></trkpt><trkpt lat="15.047768164418077" lon="120.69641299364343"><ele>9.0</ele><time>2026-03-29T10:19:54Z</time></trkpt><trkpt lat="15.047620772408541" lon="120.69655183102242"><ele>9.0</ele><time>2026-03-29T10:19:55Z</time></trkpt><trkpt lat="15.047475389057464" lon="120.69668838361129"><ele>9.0</ele><time>2026-03-29T10:19:56Z</time></trkpt><trkpt lat="15.047330811395424" lon="120.69682596921838"><ele>9.0</ele><time>2026-03-29T10:19:57Z</time></trkpt><trkpt lat="15.047184707778747" lon="120.69696323142212"><ele>9.0</ele><time>2026-03-29T10:19:58Z</time></trkpt><trkpt lat="15.0470388064193" lon="120.69710135557328"><ele>9.0</ele><time>2026-03-29T10:19:59Z</time></trkpt><trkpt lat="15.04689240480324" lon="120.69724068505161"><ele>9.0</ele><time>2026-03-29T10:20:00Z</time></trkpt><trkpt lat="15.046745075947165" lon="120.69738085907868"><ele>9.0</ele><time>2026-03-29T10:20:01Z</time></trkpt><trkpt lat="15.04659803576113" lon="120.69752248239313"><ele>8.0</ele><time>2026-03-29T10:20:02Z</time></trkpt><trkpt lat="15.046450808599287" lon="120.69766486955326"><ele>7.0</ele><time>2026-03-29T10:20:03Z</time></trkpt><trkpt lat="15.046302333910779" lon="120.69780706045464"><ele>6.0</ele><time>2026-03-29T10:20:04Z</time></trkpt><trkpt lat="15.046154122141223" lon="120.69795090258197"><ele>5.666666666666667</ele><time>2026-03-29T10:20:05Z</time></trkpt><trkpt lat="15.046006422099314" lon="120.69809571961676"><ele>5.333333333333334</ele><time>2026-03-29T10:20:06Z</time></trkpt><trkpt lat="15.045859897994404" lon="120.69824129827414"><ele>5.0</ele><time>2026-03-29T10:20:07.001Z</time></trkpt><trkpt lat="15.045714761734594" lon="120.6983864369445"><ele>5.666666666666667</ele><time>2026-03-29T10:20:08.001Z</time></trkpt><trkpt lat="15.045567891397654" lon="120.69853331318589"><ele>6.333333333333334</ele><time>2026-03-29T10:20:09.001Z</time></trkpt><trkpt lat="15.045419578373282" lon="120.6986796392208"><ele>7.0</ele><time>2026-03-29T10:20:10.001Z</time></trkpt><trkpt lat="15.045271940292036" lon="120.69882632276118"><ele>7.0</ele><time>2026-03-29T10:20:11.001Z</time></trkpt><trkpt lat="15.04512375292475" lon="120.69897387906686"><ele>7.0</ele><time>2026-03-29T10:20:12.001Z</time></trkpt><trkpt lat="15.04497486902734" lon="120.6991213246405"><ele>7.0</ele><time>2026-03-29T10:20:13.001Z</time></trkpt><trkpt lat="15.044826606123564" lon="120.69926985008759"><ele>7.333333333333334</ele><time>2026-03-29T10:20:14.001Z</time></trkpt><trkpt lat="15.044678502750726" lon="120.69941791790195"><ele>7.666666666666666</ele><time>2026-03-29T10:20:15.001Z</time></trkpt><trkpt lat="15.044527974805607" lon="120.69956711481977"><ele>8.0</ele><time>2026-03-29T10:20:16.001Z</time></trkpt><trkpt lat="15.044378718384136" lon="120.69971937566096"><ele>8.0</ele><time>2026-03-29T10:20:17.001Z</time></trkpt><trkpt lat="15.044227912079158" lon="120.6998710154917"><ele>8.0</ele><time>2026-03-29T10:20:18.001Z</time></trkpt><trkpt lat="15.044077026434481" lon="120.70002503785625"><ele>8.0</ele><time>2026-03-29T10:20:19.001Z</time></trkpt><trkpt lat="15.043928031191184" lon="120.70017850876391"><ele>7.666666666666666</ele><time>2026-03-29T10:20:20.001Z</time></trkpt><trkpt lat="15.043778729058094" lon="120.70032830517908"><ele>7.333333333333334</ele><time>2026-03-29T10:20:21.001Z</time></trkpt><trkpt lat="15.043631850409382" lon="120.70047882500215"><ele>7.0</ele><time>2026-03-29T10:20:22.001Z</time></trkpt><trkpt lat="15.043485727998196" lon="120.70062913038619"><ele>7.0</ele><time>2026-03-29T10:20:23.001Z</time></trkpt><trkpt lat="15.043341049539773" lon="120.7007784684393"><ele>7.0</ele><time>2026-03-29T10:20:24.001Z</time></trkpt><trkpt lat="15.043198073812956" lon="120.7009251424237"><ele>7.0</ele><time>2026-03-29T10:20:25.001Z</time></trkpt><trkpt lat="15.043058994248764" lon="120.70106853613898"><ele>8.0</ele><time>2026-03-29T10:20:26.001Z</time></trkpt><trkpt lat="15.04292369176458" lon="120.70120625253693"><ele>9.0</ele><time>2026-03-29T10:20:27.001Z</time></trkpt><trkpt lat="15.04279187614358" lon="120.7013375268492"><ele>10.0</ele><time>2026-03-29T10:20:28.001Z</time></trkpt><trkpt lat="15.0426639950744" lon="120.70146632815084"><ele>10.0</ele><time>2026-03-29T10:20:29.001Z</time></trkpt><trkpt lat="15.042539656987481" lon="120.70159210389536"><ele>10.0</ele><time>2026-03-29T10:20:30.001Z</time></trkpt><trkpt lat="15.042421678975312" lon="120.70171330936006"><ele>10.0</ele><time>2026-03-29T10:20:31.001Z</time></trkpt><trkpt lat="15.04230657959227" lon="120.70183418165946"><ele>9.666666666666668</ele><time>2026-03-29T10:20:32.001Z</time></trkpt><trkpt lat="15.042192599327468" lon="120.70195084349112"><ele>9.333333333333334</ele><time>2026-03-29T10:20:33.001Z</time></trkpt><trkpt lat="15.042078103048134" lon="120.7020681630513"><ele>9.0</ele><time>2026-03-29T10:20:34.001Z</time></trkpt><trkpt lat="15.041964865827756" lon="120.70218666123338"><ele>9.0</ele><time>2026-03-29T10:20:35.001Z</time></trkpt><trkpt lat="15.041851757262993" lon="120.70230599585493"><ele>9.0</ele><time>2026-03-29T10:20:36.001Z</time></trkpt><trkpt lat="15.041738945096007" lon="120.7024257199228"><ele>9.0</ele><time>2026-03-29T10:20:37.001Z</time></trkpt><trkpt lat="15.041627531232335" lon="120.7025465780313"><ele>8.666666666666666</ele><time>2026-03-29T10:20:38.001Z</time></trkpt><trkpt lat="15.041516837153878" lon="120.70266493570466"><ele>8.333333333333332</ele><time>2026-03-29T10:20:39.001Z</time></trkpt><trkpt lat="15.041407094939576" lon="120.70278429486761"><ele>8.0</ele><time>2026-03-29T10:20:40.001Z</time></trkpt><trkpt lat="15.041299584047826" lon="120.7029018934339"><ele>8.0</ele><time>2026-03-29T10:20:41.001Z</time></trkpt><trkpt lat="15.04119102026927" lon="120.70301833872954"><ele>8.0</ele><time>2026-03-29T10:20:42.001Z</time></trkpt><trkpt lat="15.041082809536618" lon="120.7031351814911"><ele>8.0</ele><time>2026-03-29T10:20:43.001Z</time></trkpt><trkpt lat="15.040976490437897" lon="120.70325333254395"><ele>8.0</ele><time>2026-03-29T10:20:44.001Z</time></trkpt><trkpt lat="15.040872011409842" lon="120.7033750721554"><ele>8.0</ele><time>2026-03-29T10:20:45.001Z</time></trkpt><trkpt lat="15.04076593221455" lon="120.70349834451912"><ele>8.0</ele><time>2026-03-29T10:20:46.001Z</time></trkpt><trkpt lat="15.040659205747236" lon="120.70362138724799"><ele>7.666666666666666</ele><time>2026-03-29T10:20:47.001Z</time></trkpt><trkpt lat="15.040554291123485" lon="120.7037463033378"><ele>7.333333333333334</ele><time>2026-03-29T10:20:48.001Z</time></trkpt><trkpt lat="15.040450938411375" lon="120.70386979520401"><ele>7.0</ele><time>2026-03-29T10:20:49.001Z</time></trkpt><trkpt lat="15.04034763173956" lon="120.70399007084474"><ele>7.0</ele><time>2026-03-29T10:20:50.001Z</time></trkpt><trkpt lat="15.040244828890298" lon="120.70410841290264"><ele>7.0</ele><time>2026-03-29T10:20:51.001Z</time></trkpt><trkpt lat="15.040142685309583" lon="120.70422634681299"><ele>7.0</ele><time>2026-03-29T10:20:52.001Z</time></trkpt><trkpt lat="15.040041000259912" lon="120.7043447765914"><ele>6.333333333333334</ele><time>2026-03-29T10:20:53.001Z</time></trkpt><trkpt lat="15.039936280266751" lon="120.7044633893007"><ele>5.666666666666667</ele><time>2026-03-29T10:20:54.001Z</time></trkpt><trkpt lat="15.039830934677523" lon="120.70458430856362"><ele>5.0</ele><time>2026-03-29T10:20:55.001Z</time></trkpt><trkpt lat="15.039722360395407" lon="120.70470631715855"><ele>5.0</ele><time>2026-03-29T10:20:56.001Z</time></trkpt><trkpt lat="15.039611695769718" lon="120.70483598017877"><ele>5.0</ele><time>2026-03-29T10:20:57.001Z</time></trkpt><trkpt lat="15.039496621500088" lon="120.70496946760554"><ele>5.0</ele><time>2026-03-29T10:20:58.001Z</time></trkpt><trkpt lat="15.039380191054164" lon="120.70510693871222"><ele>5.0</ele><time>2026-03-29T10:20:59.001Z</time></trkpt><trkpt lat="15.039261883889326" lon="120.70524496419853"><ele>5.0</ele><time>2026-03-29T10:21:00.001Z</time></trkpt><trkpt lat="15.039143784803622" lon="120.70538244296817"><ele>5.0</ele><time>2026-03-29T10:21:01.001Z</time></trkpt><trkpt lat="15.039028377471292" lon="120.70551794402594"><ele>6.333333333333334</ele><time>2026-03-29T10:21:02.001Z</time></trkpt><trkpt lat="15.038913202950674" lon="120.70565103232934"><ele>7.666666666666667</ele><time>2026-03-29T10:21:03.001Z</time></trkpt><trkpt lat="15.038800891274581" lon="120.70578186105725"><ele>9.0</ele><time>2026-03-29T10:21:04.001Z</time></trkpt><trkpt lat="15.038691923577485" lon="120.7059130973173"><ele>9.0</ele><time>2026-03-29T10:21:05.001Z</time></trkpt><trkpt lat="15.038583848951436" lon="120.70604220127817"><ele>9.0</ele><time>2026-03-29T10:21:06.001Z</time></trkpt><trkpt lat="15.038475753294174" lon="120.70617071288552"><ele>9.0</ele><time>2026-03-29T10:21:07.001Z</time></trkpt><trkpt lat="15.038368981009606" lon="120.70629734051485"><ele>8.666666666666666</ele><time>2026-03-29T10:21:08.001Z</time></trkpt><trkpt lat="15.038264451544903" lon="120.70642064771137"><ele>8.333333333333332</ele><time>2026-03-29T10:21:09.001Z</time></trkpt><trkpt lat="15.03816395802837" lon="120.70653848351901"><ele>8.0</ele><time>2026-03-29T10:21:10.001Z</time></trkpt><trkpt lat="15.038065834508185" lon="120.70665347125808"><ele>8.0</ele><time>2026-03-29T10:21:11.001Z</time></trkpt><trkpt lat="15.03797050399375" lon="120.70676862276967"><ele>8.0</ele><time>2026-03-29T10:21:12.001Z</time></trkpt><trkpt lat="15.03787693910062" lon="120.70688079448294"><ele>8.0</ele><time>2026-03-29T10:21:13.001Z</time></trkpt><trkpt lat="15.037784290583062" lon="120.70699083037714"><ele>8.0</ele><time>2026-03-29T10:21:14.001Z</time></trkpt><trkpt lat="15.037692307391662" lon="120.70709846174927"><ele>8.0</ele><time>2026-03-29T10:21:15.001Z</time></trkpt><trkpt lat="15.037599491412927" lon="120.7072046836303"><ele>8.0</ele><time>2026-03-29T10:21:16.001Z</time></trkpt><trkpt lat="15.037508314370957" lon="120.70731308886937"><ele>8.0</ele><time>2026-03-29T10:21:17.001Z</time></trkpt><trkpt lat="15.03741680284931" lon="120.70742015613185"><ele>8.0</ele><time>2026-03-29T10:21:18.001Z</time></trkpt><trkpt lat="15.037323575432893" lon="120.70752936491297"><ele>8.0</ele><time>2026-03-29T10:21:19Z</time></trkpt><trkpt lat="15.037229645252795" lon="120.70764175279157"><ele>8.0</ele><time>2026-03-29T10:21:20Z</time></trkpt><trkpt lat="15.0371326959376" lon="120.70775693682224"><ele>8.0</ele><time>2026-03-29T10:21:21Z</time></trkpt><trkpt lat="15.037033544328514" lon="120.70787567702851"><ele>8.0</ele><time>2026-03-29T10:21:22Z</time></trkpt><trkpt lat="15.03693160616275" lon="120.70799948193167"><ele>8.0</ele><time>2026-03-29T10:21:23Z</time></trkpt><trkpt lat="15.03683060778151" lon="120.70812557995747"><ele>8.0</ele><time>2026-03-29T10:21:24Z</time></trkpt><trkpt lat="15.036729087867949" lon="120.70825412085043"><ele>8.0</ele><time>2026-03-29T10:21:25Z</time></trkpt><trkpt lat="15.036630898621587" lon="120.70838225643381"><ele>8.0</ele><time>2026-03-29T10:21:26Z</time></trkpt><trkpt lat="15.036533450634968" lon="120.70850648248897"><ele>8.0</ele><time>2026-03-29T10:21:27Z</time></trkpt><trkpt lat="15.036436843203006" lon="120.70862798657484"><ele>8.0</ele><time>2026-03-29T10:21:28Z</time></trkpt><trkpt lat="15.03634401687961" lon="120.7087444639103"><ele>8.25</ele><time>2026-03-29T10:21:29Z</time></trkpt><trkpt lat="15.036254763767854" lon="120.70885666890457"><ele>8.5</ele><time>2026-03-29T10:21:30Z</time></trkpt><trkpt lat="15.036167473497152" lon="120.70896612476815"><ele>8.75</ele><time>2026-03-29T10:21:31Z</time></trkpt><trkpt lat="15.036083825089428" lon="120.70907485223914"><ele>9.0</ele><time>2026-03-29T10:21:32Z</time></trkpt><trkpt lat="15.035999790044535" lon="120.70918425774002"><ele>9.0</ele><time>2026-03-29T10:21:33Z</time></trkpt><trkpt lat="15.035915627706514" lon="120.70929685102968"><ele>9.0</ele><time>2026-03-29T10:21:34Z</time></trkpt><trkpt lat="15.03582984694716" lon="120.7094125870919"><ele>9.0</ele><time>2026-03-29T10:21:35Z</time></trkpt><trkpt lat="15.035742455944249" lon="120.70953088483603"><ele>9.0</ele><time>2026-03-29T10:21:36Z</time></trkpt><trkpt lat="15.035652559052952" lon="120.70965365895347"><ele>8.666666666666666</ele><time>2026-03-29T10:21:37Z</time></trkpt><trkpt lat="15.03556293975579" lon="120.70977860102462"><ele>8.333333333333332</ele><time>2026-03-29T10:21:38Z</time></trkpt><trkpt lat="15.035470167503542" lon="120.70990503886728"><ele>8.0</ele><time>2026-03-29T10:21:39Z</time></trkpt><trkpt lat="15.035374496329544" lon="120.71003442620123"><ele>8.0</ele><time>2026-03-29T10:21:40Z</time></trkpt><trkpt lat="15.035274898255318" lon="120.71016565218527"><ele>8.0</ele><time>2026-03-29T10:21:41Z</time></trkpt><trkpt lat="15.03517423908158" lon="120.71029845983342"><ele>8.0</ele><time>2026-03-29T10:21:42Z</time></trkpt><trkpt lat="15.035073848502435" lon="120.710431980838"><ele>7.666666666666666</ele><time>2026-03-29T10:21:43Z</time></trkpt><trkpt lat="15.034972202490971" lon="120.71056695747149"><ele>7.333333333333334</ele><time>2026-03-29T10:21:44Z</time></trkpt><trkpt lat="15.034870731818579" lon="120.71070263505405"><ele>7.0</ele><time>2026-03-29T10:21:45Z</time></trkpt><trkpt lat="15.034767266378704" lon="120.71084035132797"><ele>7.0</ele><time>2026-03-29T10:21:46Z</time></trkpt><trkpt lat="15.03466131767707" lon="120.71098017899712"><ele>7.0</ele><time>2026-03-29T10:21:47Z</time></trkpt><trkpt lat="15.03455390952363" lon="120.71112189688778"><ele>7.0</ele><time>2026-03-29T10:21:48Z</time></trkpt><trkpt lat="15.034445652675245" lon="120.71126425483796"><ele>7.666666666666667</ele><time>2026-03-29T10:21:49Z</time></trkpt><trkpt lat="15.03433794344574" lon="120.71140751839302"><ele>8.333333333333334</ele><time>2026-03-29T10:21:50Z</time></trkpt><trkpt lat="15.034230725453066" lon="120.7115526161236"><ele>9.0</ele><time>2026-03-29T10:21:51Z</time></trkpt><trkpt lat="15.03412509348426" lon="120.71169854439896"><ele>9.0</ele><time>2026-03-29T10:21:52Z</time></trkpt><trkpt lat="15.034019951463195" lon="120.71184500190606"><ele>9.0</ele><time>2026-03-29T10:21:53Z</time></trkpt><trkpt lat="15.033912086867568" lon="120.71199324502376"><ele>9.0</ele><time>2026-03-29T10:21:54Z</time></trkpt><trkpt lat="15.033801802193988" lon="120.71214282951105"><ele>8.0</ele><time>2026-03-29T10:21:55Z</time></trkpt><trkpt lat="15.033688757622976" lon="120.71229269070717"><ele>7.0</ele><time>2026-03-29T10:21:56Z</time></trkpt><trkpt lat="15.033573771761695" lon="120.71244293364194"><ele>6.0</ele><time>2026-03-29T10:21:57Z</time></trkpt><trkpt lat="15.03345745965639" lon="120.71259349364564"><ele>6.0</ele><time>2026-03-29T10:21:58Z</time></trkpt><trkpt lat="15.03334184442174" lon="120.71274264134547"><ele>6.0</ele><time>2026-03-29T10:21:59Z</time></trkpt><trkpt lat="15.033226439674563" lon="120.7128919682829"><ele>6.0</ele><time>2026-03-29T10:22:00Z</time></trkpt><trkpt lat="15.033110839579246" lon="120.71304202370688"><ele>6.0</ele><time>2026-03-29T10:22:01Z</time></trkpt><trkpt lat="15.032995486962843" lon="120.71319195125545"><ele>6.0</ele><time>2026-03-29T10:22:02Z</time></trkpt><trkpt lat="15.032880424891523" lon="120.7133417752096"><ele>6.0</ele><time>2026-03-29T10:22:03Z</time></trkpt><trkpt lat="15.032765447200754" lon="120.7134924630154"><ele>5.666666666666667</ele><time>2026-03-29T10:22:04Z</time></trkpt><trkpt lat="15.032649376732845" lon="120.7136433022616"><ele>5.333333333333334</ele><time>2026-03-29T10:22:05.001Z</time></trkpt><trkpt lat="15.032532455432294" lon="120.71379491705935"><ele>5.0</ele><time>2026-03-29T10:22:06.001Z</time></trkpt><trkpt lat="15.032415871264988" lon="120.71394568355292"><ele>5.0</ele><time>2026-03-29T10:22:07.001Z</time></trkpt><trkpt lat="15.032301908091311" lon="120.7140922595213"><ele>5.0</ele><time>2026-03-29T10:22:08.001Z</time></trkpt><trkpt lat="15.032189469906214" lon="120.7142366167289"><ele>5.0</ele><time>2026-03-29T10:22:09.001Z</time></trkpt><trkpt lat="15.03207741948652" lon="120.71437796947653"><ele>5.0</ele><time>2026-03-29T10:22:10.001Z</time></trkpt><trkpt lat="15.031967222360162" lon="120.71451619833559"><ele>5.0</ele><time>2026-03-29T10:22:11.001Z</time></trkpt><trkpt lat="15.031859639356378" lon="120.71465239411947"><ele>5.0</ele><time>2026-03-29T10:22:12.001Z</time></trkpt><trkpt lat="15.03175419326754" lon="120.71478593773318"><ele>5.0</ele><time>2026-03-29T10:22:13.001Z</time></trkpt><trkpt lat="15.031648381308301" lon="120.71491899891724"><ele>5.0</ele><time>2026-03-29T10:22:14.001Z</time></trkpt><trkpt lat="15.031542414092666" lon="120.71504985372535"><ele>5.0</ele><time>2026-03-29T10:22:15.001Z</time></trkpt><trkpt lat="15.031436018200923" lon="120.71518101328355"><ele>5.333333333333334</ele><time>2026-03-29T10:22:16.001Z</time></trkpt><trkpt lat="15.031329896434604" lon="120.71531070101388"><ele>5.666666666666667</ele><time>2026-03-29T10:22:17.001Z</time></trkpt><trkpt lat="15.031225039371343" lon="120.71544039890703"><ele>6.0</ele><time>2026-03-29T10:22:18.001Z</time></trkpt><trkpt lat="15.031121124107454" lon="120.71556892001631"><ele>6.0</ele><time>2026-03-29T10:22:19.001Z</time></trkpt><trkpt lat="15.031017060446958" lon="120.71569858507688"><ele>6.0</ele><time>2026-03-29T10:22:20.001Z</time></trkpt><trkpt lat="15.030911927543917" lon="120.71582894770783"><ele>6.0</ele><time>2026-03-29T10:22:21.001Z</time></trkpt><trkpt lat="15.030805468737311" lon="120.71596080271117"><ele>6.333333333333334</ele><time>2026-03-29T10:22:22.001Z</time></trkpt><trkpt lat="15.030698065351025" lon="120.71609441806126"><ele>6.666666666666667</ele><time>2026-03-29T10:22:23.001Z</time></trkpt><trkpt lat="15.030590289159072" lon="120.71622782458172"><ele>7.0</ele><time>2026-03-29T10:22:24.001Z</time></trkpt><trkpt lat="15.030483069466634" lon="120.71636118568598"><ele>7.0</ele><time>2026-03-29T10:22:25.001Z</time></trkpt><trkpt lat="15.030376487643597" lon="120.71649432067541"><ele>7.0</ele><time>2026-03-29T10:22:26.001Z</time></trkpt><trkpt lat="15.030269515213748" lon="120.71662754746167"><ele>7.0</ele><time>2026-03-29T10:22:27.001Z</time></trkpt><trkpt lat="15.030162386575666" lon="120.71676044129914"><ele>7.0</ele><time>2026-03-29T10:22:28.001Z</time></trkpt><trkpt lat="15.030054333862777" lon="120.7168910489944"><ele>7.0</ele><time>2026-03-29T10:22:29.001Z</time></trkpt><trkpt lat="15.029945593064596" lon="120.71702039638583"><ele>7.0</ele><time>2026-03-29T10:22:30.001Z</time></trkpt><trkpt lat="15.029837516628124" lon="120.71714937501358"><ele>7.0</ele><time>2026-03-29T10:22:31.001Z</time></trkpt><trkpt lat="15.029729126550363" lon="120.71727846850776"><ele>7.0</ele><time>2026-03-29T10:22:32.001Z</time></trkpt><trkpt lat="15.029621824236541" lon="120.71740796250396"><ele>7.0</ele><time>2026-03-29T10:22:33.001Z</time></trkpt><trkpt lat="15.029513599042007" lon="120.71753775619771"><ele>7.0</ele><time>2026-03-29T10:22:34.001Z</time></trkpt><trkpt lat="15.029404656438501" lon="120.71766852879176"><ele>7.0</ele><time>2026-03-29T10:22:35.001Z</time></trkpt><trkpt lat="15.029295115389473" lon="120.71780027335559"><ele>7.0</ele><time>2026-03-29T10:22:36.001Z</time></trkpt><trkpt lat="15.029183851923184" lon="120.71793361565506"><ele>6.333333333333334</ele><time>2026-03-29T10:22:37.001Z</time></trkpt><trkpt lat="15.029071570667039" lon="120.71806792570699"><ele>5.666666666666667</ele><time>2026-03-29T10:22:38.001Z</time></trkpt><trkpt lat="15.028957763282417" lon="120.71820168020331"><ele>5.0</ele><time>2026-03-29T10:22:39.001Z</time></trkpt><trkpt lat="15.028843767416866" lon="120.7183365689047"><ele>5.0</ele><time>2026-03-29T10:22:40.001Z</time></trkpt><trkpt lat="15.028729860276442" lon="120.71846988491906"><ele>5.0</ele><time>2026-03-29T10:22:41.001Z</time></trkpt><trkpt lat="15.02861761043822" lon="120.71860259149169"><ele>5.0</ele><time>2026-03-29T10:22:42.001Z</time></trkpt><trkpt lat="15.028505280345533" lon="120.7187324593335"><ele>5.333333333333334</ele><time>2026-03-29T10:22:43.001Z</time></trkpt><trkpt lat="15.028395099981996" lon="120.7188614968193"><ele>5.666666666666667</ele><time>2026-03-29T10:22:44.001Z</time></trkpt><trkpt lat="15.028286729065186" lon="120.71898911797672"><ele>6.0</ele><time>2026-03-29T10:22:45.001Z</time></trkpt><trkpt lat="15.028180283007545" lon="120.71911473616262"><ele>6.0</ele><time>2026-03-29T10:22:46.001Z</time></trkpt><trkpt lat="15.028074441445588" lon="120.71923805716489"><ele>6.0</ele><time>2026-03-29T10:22:47.001Z</time></trkpt><trkpt lat="15.027969930597417" lon="120.71935867065665"><ele>6.0</ele><time>2026-03-29T10:22:48.001Z</time></trkpt><trkpt lat="15.027865201650474" lon="120.71947982810207"><ele>5.666666666666667</ele><time>2026-03-29T10:22:49.001Z</time></trkpt><trkpt lat="15.027760430255737" lon="120.7195992580716"><ele>5.333333333333334</ele><time>2026-03-29T10:22:50.001Z</time></trkpt><trkpt lat="15.027655837804344" lon="120.71971839440371"><ele>5.0</ele><time>2026-03-29T10:22:51.001Z</time></trkpt><trkpt lat="15.0275508531503" lon="120.71983972646227"><ele>5.666666666666667</ele><time>2026-03-29T10:22:52.001Z</time></trkpt><trkpt lat="15.027444394742556" lon="120.7199620808814"><ele>6.333333333333334</ele><time>2026-03-29T10:22:53.001Z</time></trkpt><trkpt lat="15.027336564043734" lon="120.72008794904542"><ele>7.0</ele><time>2026-03-29T10:22:54.001Z</time></trkpt><trkpt lat="15.02722758643244" lon="120.72021530899625"><ele>6.666666666666667</ele><time>2026-03-29T10:22:55.001Z</time></trkpt><trkpt lat="15.027117739346764" lon="120.72034247631557"><ele>6.333333333333334</ele><time>2026-03-29T10:22:56.001Z</time></trkpt><trkpt lat="15.027007225436641" lon="120.72046960017593"><ele>6.0</ele><time>2026-03-29T10:22:57.001Z</time></trkpt><trkpt lat="15.026896183825391" lon="120.72059744570105"><ele>6.0</ele><time>2026-03-29T10:22:58.001Z</time></trkpt><trkpt lat="15.026783478247895" lon="120.72072452313488"><ele>6.0</ele><time>2026-03-29T10:22:59.001Z</time></trkpt><trkpt lat="15.02666995654009" lon="120.72085314317553"><ele>6.0</ele><time>2026-03-29T10:23:00.001Z</time></trkpt><trkpt lat="15.026555789935399" lon="120.72098111895309"><ele>6.0</ele><time>2026-03-29T10:23:01.001Z</time></trkpt><trkpt lat="15.026441468569908" lon="120.72110807908703"><ele>6.0</ele><time>2026-03-29T10:23:02.001Z</time></trkpt><trkpt lat="15.02632914561435" lon="120.72123373147184"><ele>6.0</ele><time>2026-03-29T10:23:03.001Z</time></trkpt><trkpt lat="15.026217591070816" lon="120.72135906075987"><ele>6.0</ele><time>2026-03-29T10:23:04.001Z</time></trkpt><trkpt lat="15.026106636166734" lon="120.72148373750362"><ele>6.0</ele><time>2026-03-29T10:23:05.001Z</time></trkpt><trkpt lat="15.025996073219238" lon="120.72160766101358"><ele>6.0</ele><time>2026-03-29T10:23:06.001Z</time></trkpt><trkpt lat="15.025884170282566" lon="120.72173159905813"><ele>5.333333333333333</ele><time>2026-03-29T10:23:07.001Z</time></trkpt><trkpt lat="15.025771100198893" lon="120.72185741857811"><ele>4.666666666666666</ele><time>2026-03-29T10:23:08.001Z</time></trkpt><trkpt lat="15.02565523878538" lon="120.72198346491906"><ele>4.0</ele><time>2026-03-29T10:23:09.001Z</time></trkpt><trkpt lat="15.025538648688777" lon="120.72211144907183"><ele>3.6666666666666665</ele><time>2026-03-29T10:23:10.001Z</time></trkpt><trkpt lat="15.02542118671332" lon="120.72224050234169"><ele>3.333333333333333</ele><time>2026-03-29T10:23:11.001Z</time></trkpt><trkpt lat="15.025302534326881" lon="120.72237194544633"><ele>3.0</ele><time>2026-03-29T10:23:12.001Z</time></trkpt><trkpt lat="15.025181951136506" lon="120.72250391027657"><ele>3.0</ele><time>2026-03-29T10:23:13.001Z</time></trkpt><trkpt lat="15.025059060498576" lon="120.72263468966015"><ele>3.0</ele><time>2026-03-29T10:23:14.001Z</time></trkpt><trkpt lat="15.024935242913616" lon="120.72276235162951"><ele>3.0</ele><time>2026-03-29T10:23:15.001Z</time></trkpt><trkpt lat="15.024811318121984" lon="120.72288813729942"><ele>4.333333333333334</ele><time>2026-03-29T10:23:16.001Z</time></trkpt><trkpt lat="15.02468982637413" lon="120.72301296732981"><ele>5.666666666666667</ele><time>2026-03-29T10:23:17.001Z</time></trkpt><trkpt lat="15.024570392934516" lon="120.72313610943098"><ele>7.0</ele><time>2026-03-29T10:23:18.001Z</time></trkpt><trkpt lat="15.024452643119224" lon="120.72325495981231"><ele>7.0</ele><time>2026-03-29T10:23:19.001Z</time></trkpt><trkpt lat="15.024336497966758" lon="120.7233724303333"><ele>7.0</ele><time>2026-03-29T10:23:20.001Z</time></trkpt><trkpt lat="15.02422456348406" lon="120.72348977007242"><ele>7.0</ele><time>2026-03-29T10:23:21.001Z</time></trkpt><trkpt lat="15.024116721669934" lon="120.72360331458917"><ele>7.0</ele><time>2026-03-29T10:23:22.001Z</time></trkpt><trkpt lat="15.024013034971238" lon="120.72371261846048"><ele>7.0</ele><time>2026-03-29T10:23:23.001Z</time></trkpt><trkpt lat="15.023918311501426" lon="120.72381335625849"><ele>7.0</ele><time>2026-03-29T10:23:24.001Z</time></trkpt><trkpt lat="15.023828705919188" lon="120.72390580931567"><ele>7.0</ele><time>2026-03-29T10:23:25Z</time></trkpt><trkpt lat="15.023746437726917" lon="120.72399127502705"><ele>7.0</ele><time>2026-03-29T10:23:26Z</time></trkpt><trkpt lat="15.023670415393719" lon="120.72407177184733"><ele>7.0</ele><time>2026-03-29T10:23:27Z</time></trkpt><trkpt lat="15.023591955709227" lon="120.72415548937413"><ele>7.0</ele><time>2026-03-29T10:23:28Z</time></trkpt><trkpt lat="15.023511426763672" lon="120.72424142703443"><ele>7.0</ele><time>2026-03-29T10:23:29Z</time></trkpt><trkpt lat="15.023429034547812" lon="120.72432979385155"><ele>7.0</ele><time>2026-03-29T10:23:30Z</time></trkpt><trkpt lat="15.023345500054038" lon="120.72442037590326"><ele>7.0</ele><time>2026-03-29T10:23:31Z</time></trkpt><trkpt lat="15.023259909636339" lon="120.72451514224528"><ele>7.0</ele><time>2026-03-29T10:23:32Z</time></trkpt><trkpt lat="15.023171563416177" lon="120.72461384112192"><ele>7.0</ele><time>2026-03-29T10:23:33Z</time></trkpt><trkpt lat="15.023079825669289" lon="120.72471667282764"><ele>7.0</ele><time>2026-03-29T10:23:34Z</time></trkpt><trkpt lat="15.022985515495153" lon="120.72482229289805"><ele>7.0</ele><time>2026-03-29T10:23:35Z</time></trkpt><trkpt lat="15.022887767615678" lon="120.72493178653616"><ele>7.0</ele><time>2026-03-29T10:23:36Z</time></trkpt><trkpt lat="15.02278634904865" lon="120.72504408035147"><ele>7.0</ele><time>2026-03-29T10:23:37Z</time></trkpt><trkpt lat="15.02267888848183" lon="120.72515739081021"><ele>6.666666666666667</ele><time>2026-03-29T10:23:38Z</time></trkpt><trkpt lat="15.022566857029979" lon="120.72527336109691"><ele>6.333333333333334</ele><time>2026-03-29T10:23:39Z</time></trkpt><trkpt lat="15.022450259829563" lon="120.72539278155159"><ele>6.0</ele><time>2026-03-29T10:23:40Z</time></trkpt><trkpt lat="15.022330849770816" lon="120.72551625702734"><ele>6.666666666666666</ele><time>2026-03-29T10:23:41Z</time></trkpt><trkpt lat="15.022206836013794" lon="120.7256421253906"><ele>7.333333333333333</ele><time>2026-03-29T10:23:42Z</time></trkpt><trkpt lat="15.022080035032392" lon="120.72577085755027"><ele>8.0</ele><time>2026-03-29T10:23:43Z</time></trkpt><trkpt lat="15.021951957012819" lon="120.72590316401501"><ele>8.0</ele><time>2026-03-29T10:23:44Z</time></trkpt><trkpt lat="15.021818353778658" lon="120.72603624881773"><ele>8.0</ele><time>2026-03-29T10:23:45Z</time></trkpt><trkpt lat="15.021680033407929" lon="120.72617391576584"><ele>8.0</ele><time>2026-03-29T10:23:46Z</time></trkpt><trkpt lat="15.021539238397091" lon="120.72631619017687"><ele>6.666666666666666</ele><time>2026-03-29T10:23:47Z</time></trkpt><trkpt lat="15.021394245811695" lon="120.72646028896614"><ele>5.333333333333333</ele><time>2026-03-29T10:23:48Z</time></trkpt><trkpt lat="15.021244814554601" lon="120.72660772983576"><ele>4.0</ele><time>2026-03-29T10:23:49Z</time></trkpt><trkpt lat="15.021094011318047" lon="120.72675779563426"><ele>4.0</ele><time>2026-03-29T10:23:50Z</time></trkpt><trkpt lat="15.020941811365036" lon="120.72691092450005"><ele>4.0</ele><time>2026-03-29T10:23:51Z</time></trkpt><trkpt lat="15.020787368339075" lon="120.72706566047141"><ele>4.0</ele><time>2026-03-29T10:23:52Z</time></trkpt><trkpt lat="15.020632727291698" lon="120.72721916570244"><ele>3.0</ele><time>2026-03-29T10:23:53Z</time></trkpt><trkpt lat="15.020480575363312" lon="120.72736899038765"><ele>2.0</ele><time>2026-03-29T10:23:54Z</time></trkpt><trkpt lat="15.020334790822357" lon="120.7275107741404"><ele>1.0</ele><time>2026-03-29T10:23:55Z</time></trkpt><trkpt lat="15.020196094938981" lon="120.7276436195952"><ele>1.3333333333333333</ele><time>2026-03-29T10:23:56Z</time></trkpt><trkpt lat="15.020066156781294" lon="120.7277698847039"><ele>1.6666666666666665</ele><time>2026-03-29T10:23:57Z</time></trkpt><trkpt lat="15.019940299588228" lon="120.72788868170426"><ele>2.0</ele><time>2026-03-29T10:23:58Z</time></trkpt><trkpt lat="15.01981747976198" lon="120.72800826992653"><ele>2.0</ele><time>2026-03-29T10:23:59Z</time></trkpt><trkpt lat="15.019695028947122" lon="120.72812841853049"><ele>2.0</ele><time>2026-03-29T10:24:00Z</time></trkpt><trkpt lat="15.019570849066568" lon="120.7282502322652"><ele>2.0</ele><time>2026-03-29T10:24:01Z</time></trkpt><trkpt lat="15.019444641876381" lon="120.72837258609745"><ele>2.0</ele><time>2026-03-29T10:24:02Z</time></trkpt><trkpt lat="15.01931516435501" lon="120.72849638994255"><ele>2.0</ele><time>2026-03-29T10:24:03Z</time></trkpt><trkpt lat="15.019184825617781" lon="120.72862304795437"><ele>2.0</ele><time>2026-03-29T10:24:04Z</time></trkpt><trkpt lat="15.019053577725638" lon="120.72874846699352"><ele>2.6666666666666665</ele><time>2026-03-29T10:24:05Z</time></trkpt><trkpt lat="15.018922764790457" lon="120.72887528517006"><ele>3.333333333333333</ele><time>2026-03-29T10:24:06Z</time></trkpt><trkpt lat="15.018792338552554" lon="120.72900097468744"><ele>4.0</ele><time>2026-03-29T10:24:07Z</time></trkpt><trkpt lat="15.018660981906438" lon="120.72912431189897"><ele>4.0</ele><time>2026-03-29T10:24:08.001Z</time></trkpt><trkpt lat="15.018529615094826" lon="120.72924888027882"><ele>4.0</ele><time>2026-03-29T10:24:09.001Z</time></trkpt><trkpt lat="15.01839858924405" lon="120.7293730022758"><ele>4.0</ele><time>2026-03-29T10:24:10.001Z</time></trkpt><trkpt lat="15.01826899062203" lon="120.72949728299524"><ele>5.333333333333333</ele><time>2026-03-29T10:24:11.001Z</time></trkpt><trkpt lat="15.018139286094398" lon="120.72962015123993"><ele>6.666666666666666</ele><time>2026-03-29T10:24:12.001Z</time></trkpt><trkpt lat="15.018010488791639" lon="120.72974165962981"><ele>8.0</ele><time>2026-03-29T10:24:13.001Z</time></trkpt><trkpt lat="15.017880829226039" lon="120.72986388579854"><ele>8.0</ele><time>2026-03-29T10:24:14.001Z</time></trkpt><trkpt lat="15.017748563462012" lon="120.7299856522058"><ele>8.0</ele><time>2026-03-29T10:24:15.001Z</time></trkpt><trkpt lat="15.017615741325528" lon="120.73010973415059"><ele>8.0</ele><time>2026-03-29T10:24:16.001Z</time></trkpt><trkpt lat="15.017482622591702" lon="120.73023483304354"><ele>7.333333333333333</ele><time>2026-03-29T10:24:17.001Z</time></trkpt><trkpt lat="15.017347054718858" lon="120.7303595692976"><ele>6.666666666666666</ele><time>2026-03-29T10:24:18.001Z</time></trkpt><trkpt lat="15.01721152631573" lon="120.73048430190963"><ele>6.0</ele><time>2026-03-29T10:24:19.001Z</time></trkpt><trkpt lat="15.01707607025115" lon="120.73060757464252"><ele>6.0</ele><time>2026-03-29T10:24:20.001Z</time></trkpt><trkpt lat="15.016937835160784" lon="120.73072521736775"><ele>6.0</ele><time>2026-03-29T10:24:21.001Z</time></trkpt><trkpt lat="15.016800378665648" lon="120.73084495433325"><ele>6.0</ele><time>2026-03-29T10:24:22.001Z</time></trkpt><trkpt lat="15.01666248630776" lon="120.73096176138482"><ele>6.333333333333334</ele><time>2026-03-29T10:24:23.001Z</time></trkpt><trkpt lat="15.016526239761415" lon="120.73108117167054"><ele>6.666666666666667</ele><time>2026-03-29T10:24:24.001Z</time></trkpt><trkpt lat="15.016389263335899" lon="120.73119691230892"><ele>7.0</ele><time>2026-03-29T10:24:25.001Z</time></trkpt><trkpt lat="15.016259781550124" lon="120.7313124730076"><ele>7.0</ele><time>2026-03-29T10:24:26.001Z</time></trkpt><trkpt lat="15.016133564222942" lon="120.73142381406444"><ele>7.0</ele><time>2026-03-29T10:24:27.001Z</time></trkpt><trkpt lat="15.016011386992213" lon="120.73153397495823"><ele>7.0</ele><time>2026-03-29T10:24:28.001Z</time></trkpt><trkpt lat="15.01589111792195" lon="120.73164064342797"><ele>6.666666666666667</ele><time>2026-03-29T10:24:29.001Z</time></trkpt><trkpt lat="15.015768134996337" lon="120.73174823537987"><ele>6.333333333333334</ele><time>2026-03-29T10:24:30.001Z</time></trkpt><trkpt lat="15.015645065436484" lon="120.73185733687538"><ele>6.0</ele><time>2026-03-29T10:24:31.001Z</time></trkpt><trkpt lat="15.015520657962481" lon="120.73196640645986"><ele>6.0</ele><time>2026-03-29T10:24:32.001Z</time></trkpt><trkpt lat="15.015396381403601" lon="120.73207720629784"><ele>6.0</ele><time>2026-03-29T10:24:33.001Z</time></trkpt><trkpt lat="15.01527211735002" lon="120.73218866183605"><ele>6.0</ele><time>2026-03-29T10:24:34.001Z</time></trkpt><trkpt lat="15.01514696769989" lon="120.73230079251991"><ele>6.0</ele><time>2026-03-29T10:24:35.001Z</time></trkpt><trkpt lat="15.015019379070221" lon="120.73241434095243"><ele>6.0</ele><time>2026-03-29T10:24:36.001Z</time></trkpt><trkpt lat="15.014890853295249" lon="120.73252730123572"><ele>6.0</ele><time>2026-03-29T10:24:37.001Z</time></trkpt><trkpt lat="15.014761508861445" lon="120.73264239948384"><ele>6.0</ele><time>2026-03-29T10:24:38.001Z</time></trkpt><trkpt lat="15.014630543106392" lon="120.73275728009536"><ele>6.0</ele><time>2026-03-29T10:24:39.001Z</time></trkpt><trkpt lat="15.014498154342762" lon="120.7328739587398"><ele>6.0</ele><time>2026-03-29T10:24:40.001Z</time></trkpt><trkpt lat="15.014364212280947" lon="120.73299091842755"><ele>6.0</ele><time>2026-03-29T10:24:41.001Z</time></trkpt><trkpt lat="15.014229004760233" lon="120.73310815637174"><ele>6.0</ele><time>2026-03-29T10:24:42.001Z</time></trkpt><trkpt lat="15.014094287326074" lon="120.73322499353577"><ele>6.0</ele><time>2026-03-29T10:24:43.001Z</time></trkpt><trkpt lat="15.01395963615931" lon="120.73334082142364"><ele>6.0</ele><time>2026-03-29T10:24:44.001Z</time></trkpt><trkpt lat="15.013827389240042" lon="120.7334542828952"><ele>6.0</ele><time>2026-03-29T10:24:45.001Z</time></trkpt><trkpt lat="15.01369755009368" lon="120.73356572036457"><ele>6.0</ele><time>2026-03-29T10:24:46.001Z</time></trkpt><trkpt lat="15.01356756207917" lon="120.73367891390845"><ele>6.0</ele><time>2026-03-29T10:24:47.001Z</time></trkpt><trkpt lat="15.013437029461539" lon="120.73379346932686"><ele>6.0</ele><time>2026-03-29T10:24:48.001Z</time></trkpt><trkpt lat="15.013302256467975" lon="120.73391017471943"><ele>6.0</ele><time>2026-03-29T10:24:49.001Z</time></trkpt><trkpt lat="15.013166971008438" lon="120.73403081163211"><ele>6.333333333333334</ele><time>2026-03-29T10:24:50.001Z</time></trkpt><trkpt lat="15.013030048799365" lon="120.7341542326497"><ele>6.666666666666667</ele><time>2026-03-29T10:24:51.001Z</time></trkpt><trkpt lat="15.012889422723738" lon="120.73427802043389"><ele>7.0</ele><time>2026-03-29T10:24:52.001Z</time></trkpt><trkpt lat="15.012748431535428" lon="120.73440201378973"><ele>7.333333333333334</ele><time>2026-03-29T10:24:53.001Z</time></trkpt><trkpt lat="15.012606746547286" lon="120.73452512858425"><ele>7.666666666666666</ele><time>2026-03-29T10:24:54.001Z</time></trkpt><trkpt lat="15.012464389422902" lon="120.73464798714478"><ele>8.0</ele><time>2026-03-29T10:24:55.001Z</time></trkpt><trkpt lat="15.012320255789776" lon="120.7347709965706"><ele>8.333333333333332</ele><time>2026-03-29T10:24:56.001Z</time></trkpt><trkpt lat="15.012174572776313" lon="120.73489444725932"><ele>8.666666666666666</ele><time>2026-03-29T10:24:57.001Z</time></trkpt><trkpt lat="15.012027523120453" lon="120.73501784306639"><ele>9.0</ele><time>2026-03-29T10:24:58.001Z</time></trkpt><trkpt lat="15.011877728175262" lon="120.73514317773176"><ele>8.333333333333334</ele><time>2026-03-29T10:24:59.001Z</time></trkpt><trkpt lat="15.011727208867915" lon="120.73526785397746"><ele>7.666666666666667</ele><time>2026-03-29T10:25:00.001Z</time></trkpt><trkpt lat="15.011574606126496" lon="120.73539406884079"><ele>7.0</ele><time>2026-03-29T10:25:01.001Z</time></trkpt><trkpt lat="15.01142106401703" lon="120.7355203551635"><ele>6.666666666666667</ele><time>2026-03-29T10:25:02.001Z</time></trkpt><trkpt lat="15.011266080491778" lon="120.73564698183749"><ele>6.333333333333334</ele><time>2026-03-29T10:25:03.001Z</time></trkpt><trkpt lat="15.011109600270213" lon="120.73577561569107"><ele>6.0</ele><time>2026-03-29T10:25:04.001Z</time></trkpt><trkpt lat="15.010951715053212" lon="120.73590461417913"><ele>6.0</ele><time>2026-03-29T10:25:05.001Z</time></trkpt><trkpt lat="15.010792467153637" lon="120.73603382563078"><ele>6.0</ele><time>2026-03-29T10:25:06.001Z</time></trkpt><trkpt lat="15.01063246438711" lon="120.73616354349441"><ele>6.0</ele><time>2026-03-29T10:25:07.001Z</time></trkpt><trkpt lat="15.010470889043624" lon="120.73629304728772"><ele>5.666666666666667</ele><time>2026-03-29T10:25:08.001Z</time></trkpt><trkpt lat="15.010309313721697" lon="120.73642316569386"><ele>5.333333333333334</ele><time>2026-03-29T10:25:09.001Z</time></trkpt><trkpt lat="15.010147926372486" lon="120.7365538734234"><ele>5.0</ele><time>2026-03-29T10:25:10.001Z</time></trkpt><trkpt lat="15.009986249852602" lon="120.73668520914222"><ele>4.666666666666667</ele><time>2026-03-29T10:25:11.001Z</time></trkpt><trkpt lat="15.009824460644621" lon="120.73681813706843"><ele>4.333333333333333</ele><time>2026-03-29T10:25:12.001Z</time></trkpt><trkpt lat="15.00966179406526" lon="120.73695190962427"><ele>4.0</ele><time>2026-03-29T10:25:13.001Z</time></trkpt><trkpt lat="15.00949536556519" lon="120.73708392309744"><ele>4.0</ele><time>2026-03-29T10:25:14.001Z</time></trkpt><trkpt lat="15.009327773160988" lon="120.73721500026122"><ele>4.0</ele><time>2026-03-29T10:25:15.001Z</time></trkpt><trkpt lat="15.00916030128497" lon="120.73734567695634"><ele>4.0</ele><time>2026-03-29T10:25:16.001Z</time></trkpt><trkpt lat="15.008993241779754" lon="120.73747634106728"><ele>4.0</ele><time>2026-03-29T10:25:17.001Z</time></trkpt><trkpt lat="15.008824706783203" lon="120.73760629990514"><ele>4.0</ele><time>2026-03-29T10:25:18.001Z</time></trkpt><trkpt lat="15.00865730022789" lon="120.73773377597217"><ele>4.0</ele><time>2026-03-29T10:25:19.001Z</time></trkpt><trkpt lat="15.008491537338994" lon="120.73786049341317"><ele>4.333333333333333</ele><time>2026-03-29T10:25:20.001Z</time></trkpt><trkpt lat="15.008327072519673" lon="120.73798693285241"><ele>4.666666666666667</ele><time>2026-03-29T10:25:21.001Z</time></trkpt><trkpt lat="15.008162777987238" lon="120.73811319376615"><ele>5.0</ele><time>2026-03-29T10:25:22.001Z</time></trkpt><trkpt lat="15.008000011758924" lon="120.73823964175757"><ele>5.0</ele><time>2026-03-29T10:25:23.001Z</time></trkpt><trkpt lat="15.007837241263283" lon="120.73836582556098"><ele>5.0</ele><time>2026-03-29T10:25:24.001Z</time></trkpt><trkpt lat="15.007674988496106" lon="120.7384922291182"><ele>5.0</ele><time>2026-03-29T10:25:25.001Z</time></trkpt><trkpt lat="15.00751278757932" lon="120.73861764709858"><ele>5.666666666666667</ele><time>2026-03-29T10:25:26.001Z</time></trkpt><trkpt lat="15.00734971034332" lon="120.73874283836122"><ele>6.333333333333334</ele><time>2026-03-29T10:25:27.001Z</time></trkpt><trkpt lat="15.007185154524265" lon="120.73886765007751"><ele>7.0</ele><time>2026-03-29T10:25:28.001Z</time></trkpt><trkpt lat="15.007019499135767" lon="120.73899128559435"><ele>7.0</ele><time>2026-03-29T10:25:29.001Z</time></trkpt><trkpt lat="15.006855209831903" lon="120.73911453119732"><ele>7.0</ele><time>2026-03-29T10:25:30.001Z</time></trkpt><trkpt lat="15.006693788176134" lon="120.73923561605672"><ele>7.0</ele><time>2026-03-29T10:25:31Z</time></trkpt><trkpt lat="15.006531958562086" lon="120.73935812419049"><ele>6.333333333333334</ele><time>2026-03-29T10:25:32Z</time></trkpt><trkpt lat="15.006371621449336" lon="120.73947732758361"><ele>5.666666666666667</ele><time>2026-03-29T10:25:33Z</time></trkpt><trkpt lat="15.006212598457068" lon="120.73959511497335"><ele>5.0</ele><time>2026-03-29T10:25:34Z</time></trkpt><trkpt lat="15.006056048027503" lon="120.73971001513246"><ele>5.0</ele><time>2026-03-29T10:25:35Z</time></trkpt><trkpt lat="15.005901869156169" lon="120.73982292339599"><ele>5.0</ele><time>2026-03-29T10:25:36Z</time></trkpt><trkpt lat="15.005749092564312" lon="120.73993446502185"><ele>5.0</ele><time>2026-03-29T10:25:37Z</time></trkpt><trkpt lat="15.005596926859617" lon="120.74004506310095"><ele>5.0</ele><time>2026-03-29T10:25:38Z</time></trkpt><trkpt lat="15.005444658934957" lon="120.74015669385022"><ele>5.0</ele><time>2026-03-29T10:25:39Z</time></trkpt><trkpt lat="15.00529210101316" lon="120.74026927104029"><ele>5.0</ele><time>2026-03-29T10:25:40Z</time></trkpt><trkpt lat="15.005138302879537" lon="120.74038096024597"><ele>5.333333333333334</ele><time>2026-03-29T10:25:41Z</time></trkpt><trkpt lat="15.004984165136777" lon="120.74049367263447"><ele>5.666666666666667</ele><time>2026-03-29T10:25:42Z</time></trkpt><trkpt lat="15.004829053956122" lon="120.74060643521887"><ele>6.0</ele><time>2026-03-29T10:25:43Z</time></trkpt><trkpt lat="15.004673200313182" lon="120.74071900981434"><ele>6.0</ele><time>2026-03-29T10:25:44Z</time></trkpt><trkpt lat="15.004516031342492" lon="120.74083147869793"><ele>6.0</ele><time>2026-03-29T10:25:45Z</time></trkpt><trkpt lat="15.004359565484943" lon="120.74094484759199"><ele>6.0</ele><time>2026-03-29T10:25:46Z</time></trkpt><trkpt lat="15.004201309682916" lon="120.7410583470062"><ele>6.0</ele><time>2026-03-29T10:25:47Z</time></trkpt><trkpt lat="15.004042241652863" lon="120.74117215220366"><ele>6.0</ele><time>2026-03-29T10:25:48Z</time></trkpt><trkpt lat="15.003881635580418" lon="120.741288040551"><ele>6.0</ele><time>2026-03-29T10:25:49Z</time></trkpt><trkpt lat="15.00372067703392" lon="120.74140401911238"><ele>6.0</ele><time>2026-03-29T10:25:50Z</time></trkpt><trkpt lat="15.003559152136605" lon="120.74151962619557"><ele>6.0</ele><time>2026-03-29T10:25:51Z</time></trkpt><trkpt lat="15.00339624858594" lon="120.74163625625563"><ele>6.0</ele><time>2026-03-29T10:25:52Z</time></trkpt><trkpt lat="15.003234094909507" lon="120.7417526959041"><ele>6.666666666666666</ele><time>2026-03-29T10:25:53Z</time></trkpt><trkpt lat="15.003071654252077" lon="120.74186847123289"><ele>7.333333333333333</ele><time>2026-03-29T10:25:54Z</time></trkpt><trkpt lat="15.002909916756876" lon="120.74198415663996"><ele>8.0</ele><time>2026-03-29T10:25:55Z</time></trkpt><trkpt lat="15.002747663978326" lon="120.74210067221624"><ele>8.0</ele><time>2026-03-29T10:25:56Z</time></trkpt><trkpt lat="15.002585789651576" lon="120.74221526443654"><ele>8.0</ele><time>2026-03-29T10:25:57Z</time></trkpt><trkpt lat="15.00242329750953" lon="120.74232829829502"><ele>8.0</ele><time>2026-03-29T10:25:58Z</time></trkpt><trkpt lat="15.002260862712214" lon="120.74244082833438"><ele>8.0</ele><time>2026-03-29T10:25:59Z</time></trkpt><trkpt lat="15.002097669185874" lon="120.7425528521266"><ele>8.0</ele><time>2026-03-29T10:26:00Z</time></trkpt><trkpt lat="15.001933730140024" lon="120.74266623740468"><ele>8.0</ele><time>2026-03-29T10:26:01Z</time></trkpt><trkpt lat="15.001768685964164" lon="120.7427787711328"><ele>7.333333333333333</ele><time>2026-03-29T10:26:02Z</time></trkpt><trkpt lat="15.001602789005736" lon="120.74289234700447"><ele>6.666666666666666</ele><time>2026-03-29T10:26:03Z</time></trkpt><trkpt lat="15.001435885092233" lon="120.74300614418411"><ele>6.0</ele><time>2026-03-29T10:26:04Z</time></trkpt><trkpt lat="15.0012683221266" lon="120.74312029152043"><ele>6.0</ele><time>2026-03-29T10:26:05Z</time></trkpt><trkpt lat="15.001099905489456" lon="120.74323313028567"><ele>6.0</ele><time>2026-03-29T10:26:06Z</time></trkpt><trkpt lat="15.000930945056417" lon="120.74334608250493"><ele>6.0</ele><time>2026-03-29T10:26:07Z</time></trkpt><trkpt lat="15.000761795443887" lon="120.74345853313835"><ele>6.333333333333334</ele><time>2026-03-29T10:26:08Z</time></trkpt><trkpt lat="15.000592806846727" lon="120.74357092132281"><ele>6.666666666666667</ele><time>2026-03-29T10:26:09.001Z</time></trkpt><trkpt lat="15.000424667120987" lon="120.74368328535982"><ele>7.0</ele><time>2026-03-29T10:26:10.001Z</time></trkpt><trkpt lat="15.00025674775282" lon="120.74379489796634"><ele>7.0</ele><time>2026-03-29T10:26:11.001Z</time></trkpt><trkpt lat="15.000087341169806" lon="120.74390673146272"><ele>7.0</ele><time>2026-03-29T10:26:12.001Z</time></trkpt><trkpt lat="14.999916507708463" lon="120.74401873796958"><ele>7.0</ele><time>2026-03-29T10:26:13.001Z</time></trkpt><trkpt lat="14.999744014857555" lon="120.74413243888425"><ele>7.0</ele><time>2026-03-29T10:26:14.001Z</time></trkpt><trkpt lat="14.999571125685188" lon="120.74424595805013"><ele>7.0</ele><time>2026-03-29T10:26:15.001Z</time></trkpt><trkpt lat="14.99939808853166" lon="120.74435956914904"><ele>7.0</ele><time>2026-03-29T10:26:16.001Z</time></trkpt><trkpt lat="14.99922656757361" lon="120.74447177025327"><ele>6.333333333333334</ele><time>2026-03-29T10:26:17.001Z</time></trkpt><trkpt lat="14.999056589868394" lon="120.74458272573456"><ele>5.666666666666667</ele><time>2026-03-29T10:26:18.001Z</time></trkpt><trkpt lat="14.998887285755963" lon="120.74469288613261"><ele>5.0</ele><time>2026-03-29T10:26:19.001Z</time></trkpt><trkpt lat="14.998719549403765" lon="120.74480133655693"><ele>5.0</ele><time>2026-03-29T10:26:20.001Z</time></trkpt><trkpt lat="14.998555597765202" lon="120.74490889643334"><ele>5.0</ele><time>2026-03-29T10:26:21.001Z</time></trkpt><trkpt lat="14.998392791721407" lon="120.74501460172428"><ele>5.0</ele><time>2026-03-29T10:26:22.001Z</time></trkpt><trkpt lat="14.998233463559757" lon="120.74511819370052"><ele>4.666666666666667</ele><time>2026-03-29T10:26:23.001Z</time></trkpt><trkpt lat="14.998075759138374" lon="120.74522008526904"><ele>4.333333333333333</ele><time>2026-03-29T10:26:24.001Z</time></trkpt><trkpt lat="14.997920091593969" lon="120.7453194411616"><ele>4.0</ele><time>2026-03-29T10:26:25.001Z</time></trkpt><trkpt lat="14.997765302119682" lon="120.74541633370312"><ele>4.0</ele><time>2026-03-29T10:26:26.001Z</time></trkpt><trkpt lat="14.997610960750752" lon="120.74551433989562"><ele>4.0</ele><time>2026-03-29T10:26:27.001Z</time></trkpt><trkpt lat="14.997456079768813" lon="120.74561294954465"><ele>4.0</ele><time>2026-03-29T10:26:28.001Z</time></trkpt><trkpt lat="14.997300485129234" lon="120.74571081237919"><ele>4.666666666666666</ele><time>2026-03-29T10:26:29.001Z</time></trkpt><trkpt lat="14.997143649816557" lon="120.74580969851792"><ele>5.333333333333333</ele><time>2026-03-29T10:26:30.001Z</time></trkpt><trkpt lat="14.996985679088151" lon="120.74590883132565"><ele>6.0</ele><time>2026-03-29T10:26:31.001Z</time></trkpt><trkpt lat="14.996826262871508" lon="120.74600739616169"><ele>6.0</ele><time>2026-03-29T10:26:32.001Z</time></trkpt><trkpt lat="14.996666103722948" lon="120.74610686862441"><ele>6.0</ele><time>2026-03-29T10:26:33.001Z</time></trkpt><trkpt lat="14.996505085122129" lon="120.74620544193769"><ele>6.0</ele><time>2026-03-29T10:26:34.001Z</time></trkpt><trkpt lat="14.996342839042503" lon="120.74630591797374"><ele>6.0</ele><time>2026-03-29T10:26:35.001Z</time></trkpt><trkpt lat="14.996178368424339" lon="120.74640647013588"><ele>6.0</ele><time>2026-03-29T10:26:36.001Z</time></trkpt><trkpt lat="14.996011756776154" lon="120.74650795593622"><ele>6.0</ele><time>2026-03-29T10:26:37.001Z</time></trkpt><trkpt lat="14.99584337371151" lon="120.74661148076031"><ele>6.666666666666666</ele><time>2026-03-29T10:26:38.001Z</time></trkpt><trkpt lat="14.995672360377123" lon="120.7467151978139"><ele>7.333333333333333</ele><time>2026-03-29T10:26:39.001Z</time></trkpt><trkpt lat="14.995499542711324" lon="120.74681865493733"><ele>8.0</ele><time>2026-03-29T10:26:40.001Z</time></trkpt><trkpt lat="14.99532514071115" lon="120.746925261167"><ele>8.0</ele><time>2026-03-29T10:26:41.001Z</time></trkpt><trkpt lat="14.99514856656548" lon="120.74703176387253"><ele>8.0</ele><time>2026-03-29T10:26:42.001Z</time></trkpt><trkpt lat="14.99497055700166" lon="120.74713792361499"><ele>8.0</ele><time>2026-03-29T10:26:43.001Z</time></trkpt><trkpt lat="14.994791260791759" lon="120.74724255502548"><ele>8.0</ele><time>2026-03-29T10:26:44.001Z</time></trkpt><trkpt lat="14.99461037154911" lon="120.74735049091673"><ele>8.0</ele><time>2026-03-29T10:26:45.001Z</time></trkpt><trkpt lat="14.994426313435264" lon="120.7474616298939"><ele>8.0</ele><time>2026-03-29T10:26:46.001Z</time></trkpt><trkpt lat="14.994237929030675" lon="120.74757233301483"><ele>8.0</ele><time>2026-03-29T10:26:47.001Z</time></trkpt><trkpt lat="14.994046181007313" lon="120.74768492305928"><ele>8.0</ele><time>2026-03-29T10:26:48.001Z</time></trkpt><trkpt lat="14.993851791290645" lon="120.74779722299898"><ele>8.0</ele><time>2026-03-29T10:26:49.001Z</time></trkpt><trkpt lat="14.99365632523153" lon="120.74790945296877"><ele>8.0</ele><time>2026-03-29T10:26:50.001Z</time></trkpt><trkpt lat="14.99345875108686" lon="120.74802177673902"><ele>8.0</ele><time>2026-03-29T10:26:51.001Z</time></trkpt><trkpt lat="14.993260434170718" lon="120.74813604480117"><ele>10.5</ele><time>2026-03-29T10:26:52.001Z</time></trkpt><trkpt lat="14.993060915011238" lon="120.74825096928267"><ele>13.0</ele><time>2026-03-29T10:26:53.001Z</time></trkpt><trkpt lat="14.992861685356335" lon="120.74836522765769"><ele>13.0</ele><time>2026-03-29T10:26:54.001Z</time></trkpt><trkpt lat="14.992664482148644" lon="120.74847835193887"><ele>13.0</ele><time>2026-03-29T10:26:55.001Z</time></trkpt><trkpt lat="14.992467924424872" lon="120.74859074092053"><ele>12.666666666666666</ele><time>2026-03-29T10:26:56.001Z</time></trkpt><trkpt lat="14.992271364699846" lon="120.74870382033885"><ele>12.333333333333332</ele><time>2026-03-29T10:26:57.001Z</time></trkpt><trkpt lat="14.99207504430689" lon="120.74881517451036"><ele>12.0</ele><time>2026-03-29T10:26:58.001Z</time></trkpt><trkpt lat="14.991877618788848" lon="120.74892642091689"><ele>12.0</ele><time>2026-03-29T10:26:59.001Z</time></trkpt><trkpt lat="14.991682417163359" lon="120.74903754193757"><ele>12.0</ele><time>2026-03-29T10:27:00.001Z</time></trkpt><trkpt lat="14.991487787666893" lon="120.7491464615506"><ele>12.0</ele><time>2026-03-29T10:27:01.001Z</time></trkpt><trkpt lat="14.991294255828318" lon="120.74925383228839"><ele>11.666666666666666</ele><time>2026-03-29T10:27:02.001Z</time></trkpt><trkpt lat="14.991103740450693" lon="120.74936141495897"><ele>11.333333333333332</ele><time>2026-03-29T10:27:03.001Z</time></trkpt><trkpt lat="14.990914579736781" lon="120.74946460003302"><ele>11.0</ele><time>2026-03-29T10:27:04.001Z</time></trkpt><trkpt lat="14.990725903802302" lon="120.74956932671013"><ele>11.0</ele><time>2026-03-29T10:27:05.001Z</time></trkpt><trkpt lat="14.990536767521542" lon="120.74967183225283"><ele>11.0</ele><time>2026-03-29T10:27:06.001Z</time></trkpt><trkpt lat="14.9903466052646" lon="120.74977735091595"><ele>11.0</ele><time>2026-03-29T10:27:07.001Z</time></trkpt><trkpt lat="14.990157158227902" lon="120.74988174544572"><ele>10.666666666666666</ele><time>2026-03-29T10:27:08.001Z</time></trkpt><trkpt lat="14.989972145914257" lon="120.74998713940913"><ele>10.333333333333334</ele><time>2026-03-29T10:27:09.001Z</time></trkpt><trkpt lat="14.989784291560133" lon="120.75009048328486"><ele>10.0</ele><time>2026-03-29T10:27:10.001Z</time></trkpt><trkpt lat="14.989597909873941" lon="120.75019253503427"><ele>9.666666666666668</ele><time>2026-03-29T10:27:11.001Z</time></trkpt><trkpt lat="14.989410131728825" lon="120.75029430886121"><ele>9.333333333333334</ele><time>2026-03-29T10:27:12.001Z</time></trkpt><trkpt lat="14.989222491775115" lon="120.75039444176515"><ele>9.0</ele><time>2026-03-29T10:27:13.001Z</time></trkpt><trkpt lat="14.989037362979097" lon="120.75049708670068"><ele>9.0</ele><time>2026-03-29T10:27:14.001Z</time></trkpt><trkpt lat="14.988852852724648" lon="120.75059667620415"><ele>9.0</ele><time>2026-03-29T10:27:15.001Z</time></trkpt><trkpt lat="14.988672072978469" lon="120.75069744586499"><ele>9.0</ele><time>2026-03-29T10:27:16.001Z</time></trkpt><trkpt lat="14.988492333626446" lon="120.75079556073342"><ele>9.0</ele><time>2026-03-29T10:27:17.001Z</time></trkpt><trkpt lat="14.988315868020292" lon="120.75089266846767"><ele>9.0</ele><time>2026-03-29T10:27:18.001Z</time></trkpt><trkpt lat="14.988138940370135" lon="120.75098821917892"><ele>9.0</ele><time>2026-03-29T10:27:19.001Z</time></trkpt><trkpt lat="14.987963727326113" lon="120.75108398620849"><ele>8.333333333333334</ele><time>2026-03-29T10:27:20.001Z</time></trkpt><trkpt lat="14.987789238549174" lon="120.75118207031618"><ele>7.666666666666667</ele><time>2026-03-29T10:27:21.001Z</time></trkpt><trkpt lat="14.987614314643098" lon="120.75127716558566"><ele>7.0</ele><time>2026-03-29T10:27:22.001Z</time></trkpt><trkpt lat="14.987440923566648" lon="120.75137738282623"><ele>7.0</ele><time>2026-03-29T10:27:23.001Z</time></trkpt><trkpt lat="14.9872666565119" lon="120.75147688503591"><ele>7.0</ele><time>2026-03-29T10:27:24.001Z</time></trkpt><trkpt lat="14.98709147899592" lon="120.75157745836582"><ele>7.0</ele><time>2026-03-29T10:27:25.001Z</time></trkpt><trkpt lat="14.986915893247897" lon="120.75167808916585"><ele>7.0</ele><time>2026-03-29T10:27:26.001Z</time></trkpt><trkpt lat="14.98673982311498" lon="120.75177715222229"><ele>7.0</ele><time>2026-03-29T10:27:27.001Z</time></trkpt><trkpt lat="14.986564999393062" lon="120.75187815161136"><ele>7.0</ele><time>2026-03-29T10:27:28.001Z</time></trkpt><trkpt lat="14.986390690483857" lon="120.75198003489922"><ele>7.0</ele><time>2026-03-29T10:27:29.001Z</time></trkpt><trkpt lat="14.986217149144993" lon="120.752081237547"><ele>7.0</ele><time>2026-03-29T10:27:30.001Z</time></trkpt><trkpt lat="14.986043035998257" lon="120.7521820297871"><ele>7.0</ele><time>2026-03-29T10:27:31.001Z</time></trkpt><trkpt lat="14.985868429918463" lon="120.75227979825478"><ele>6.666666666666667</ele><time>2026-03-29T10:27:32.001Z</time></trkpt><trkpt lat="14.9856921313627" lon="120.75237833876662"><ele>6.333333333333334</ele><time>2026-03-29T10:27:33.001Z</time></trkpt><trkpt lat="14.985514139106819" lon="120.75247518797306"><ele>6.0</ele><time>2026-03-29T10:27:34.001Z</time></trkpt><trkpt lat="14.985337094981608" lon="120.75257115247244"><ele>6.0</ele><time>2026-03-29T10:27:35.001Z</time></trkpt><trkpt lat="14.985162835288245" lon="120.75266577182994"><ele>6.0</ele><time>2026-03-29T10:27:36.001Z</time></trkpt><trkpt lat="14.984987751059801" lon="120.75276140823146"><ele>6.0</ele><time>2026-03-29T10:27:37Z</time></trkpt><trkpt lat="14.9848112989171" lon="120.75285912706336"><ele>5.666666666666667</ele><time>2026-03-29T10:27:38Z</time></trkpt><trkpt lat="14.98463347026401" lon="120.75296238790834"><ele>5.333333333333334</ele><time>2026-03-29T10:27:39Z</time></trkpt><trkpt lat="14.984455920724972" lon="120.75306763676973"><ele>5.0</ele><time>2026-03-29T10:27:40Z</time></trkpt><trkpt lat="14.98427413370598" lon="120.75317443463842"><ele>5.0</ele><time>2026-03-29T10:27:41Z</time></trkpt><trkpt lat="14.984089527823006" lon="120.75328434486154"><ele>5.0</ele><time>2026-03-29T10:27:42Z</time></trkpt><trkpt lat="14.98390265936557" lon="120.75339726770183"><ele>5.0</ele><time>2026-03-29T10:27:43Z</time></trkpt><trkpt lat="14.983719507548773" lon="120.75350960355577"><ele>5.0</ele><time>2026-03-29T10:27:44Z</time></trkpt><trkpt lat="14.983535468600019" lon="120.7536273480276"><ele>5.0</ele><time>2026-03-29T10:27:45Z</time></trkpt><trkpt lat="14.983351254849179" lon="120.75374674998693"><ele>5.0</ele><time>2026-03-29T10:27:46Z</time></trkpt><trkpt lat="14.983165215480238" lon="120.75386499733511"><ele>5.0</ele><time>2026-03-29T10:27:47Z</time></trkpt><trkpt lat="14.982977701438292" lon="120.75398258640071"><ele>5.0</ele><time>2026-03-29T10:27:48Z</time></trkpt><trkpt lat="14.982791463167057" lon="120.75409863538437"><ele>5.0</ele><time>2026-03-29T10:27:49Z</time></trkpt><trkpt lat="14.982608313935028" lon="120.75421320991708"><ele>5.0</ele><time>2026-03-29T10:27:50Z</time></trkpt><trkpt lat="14.982428862693421" lon="120.75432621315763"><ele>5.0</ele><time>2026-03-29T10:27:51Z</time></trkpt><trkpt lat="14.982251217050694" lon="120.75443578281214"><ele>5.0</ele><time>2026-03-29T10:27:52Z</time></trkpt><trkpt lat="14.982077290742566" lon="120.75454554711565"><ele>4.666666666666667</ele><time>2026-03-29T10:27:53Z</time></trkpt><trkpt lat="14.98190526441227" lon="120.75465287816277"><ele>4.333333333333333</ele><time>2026-03-29T10:27:54Z</time></trkpt><trkpt lat="14.981737393149288" lon="120.75476040686247"><ele>4.0</ele><time>2026-03-29T10:27:55Z</time></trkpt><trkpt lat="14.981569284698821" lon="120.75486698555767"><ele>4.666666666666666</ele><time>2026-03-29T10:27:56Z</time></trkpt><trkpt lat="14.981401065235946" lon="120.75497521995591"><ele>5.333333333333333</ele><time>2026-03-29T10:27:57Z</time></trkpt><trkpt lat="14.98123256394323" lon="120.75508434648387"><ele>6.0</ele><time>2026-03-29T10:27:58Z</time></trkpt><trkpt lat="14.981062905221513" lon="120.75519684371615"><ele>6.666666666666666</ele><time>2026-03-29T10:27:59Z</time></trkpt><trkpt lat="14.98089150373666" lon="120.75531142786328"><ele>7.333333333333333</ele><time>2026-03-29T10:28:00Z</time></trkpt><trkpt lat="14.980716629738549" lon="120.75542558467986"><ele>8.0</ele><time>2026-03-29T10:28:01Z</time></trkpt><trkpt lat="14.980539636455708" lon="120.75554002701483"><ele>8.0</ele><time>2026-03-29T10:28:02Z</time></trkpt><trkpt lat="14.980361302050955" lon="120.75565419695992"><ele>8.0</ele><time>2026-03-29T10:28:03Z</time></trkpt><trkpt lat="14.980180796872924" lon="120.75576993810853"><ele>8.0</ele><time>2026-03-29T10:28:04Z</time></trkpt><trkpt lat="14.979998763193118" lon="120.75588744683719"><ele>7.666666666666666</ele><time>2026-03-29T10:28:05Z</time></trkpt><trkpt lat="14.979814941304975" lon="120.75600654966689"><ele>7.333333333333334</ele><time>2026-03-29T10:28:06Z</time></trkpt><trkpt lat="14.979629917046577" lon="120.75612665177268"><ele>7.0</ele><time>2026-03-29T10:28:07Z</time></trkpt><trkpt lat="14.979446034524333" lon="120.75624913937979"><ele>7.0</ele><time>2026-03-29T10:28:08Z</time></trkpt><trkpt lat="14.979261170594016" lon="120.75637138960982"><ele>7.0</ele><time>2026-03-29T10:28:09Z</time></trkpt><trkpt lat="14.979077691954364" lon="120.75649592438036"><ele>7.0</ele><time>2026-03-29T10:28:10Z</time></trkpt><trkpt lat="14.9788959298522" lon="120.75662263035024"><ele>7.0</ele><time>2026-03-29T10:28:11Z</time></trkpt><trkpt lat="14.97871349235268" lon="120.75674820576589"><ele>7.0</ele><time>2026-03-29T10:28:12Z</time></trkpt><trkpt lat="14.978532179353282" lon="120.75687396168567"><ele>7.0</ele><time>2026-03-29T10:28:13Z</time></trkpt><trkpt lat="14.97835123174553" lon="120.75699976886901"><ele>7.0</ele><time>2026-03-29T10:28:14Z</time></trkpt><trkpt lat="14.978169694160576" lon="120.75712397697663"><ele>7.0</ele><time>2026-03-29T10:28:15Z</time></trkpt><trkpt lat="14.977990509986773" lon="120.75724726476665"><ele>7.0</ele><time>2026-03-29T10:28:16Z</time></trkpt><trkpt lat="14.97781266538389" lon="120.75736812819592"><ele>7.0</ele><time>2026-03-29T10:28:17Z</time></trkpt><trkpt lat="14.977636327281001" lon="120.75749072662379"><ele>7.0</ele><time>2026-03-29T10:28:18Z</time></trkpt><trkpt lat="14.977460141790058" lon="120.75761230258064"><ele>7.0</ele><time>2026-03-29T10:28:19Z</time></trkpt><trkpt lat="14.97728399272834" lon="120.75773275462892"><ele>6.333333333333334</ele><time>2026-03-29T10:28:20Z</time></trkpt><trkpt lat="14.977107968823823" lon="120.75785551061122"><ele>5.666666666666667</ele><time>2026-03-29T10:28:21Z</time></trkpt><trkpt lat="14.976932274629188" lon="120.75797721730619"><ele>5.0</ele><time>2026-03-29T10:28:22Z</time></trkpt><trkpt lat="14.97675943163923" lon="120.75809599213191"><ele>5.0</ele><time>2026-03-29T10:28:23Z</time></trkpt><trkpt lat="14.976590619431473" lon="120.75821438492099"><ele>5.0</ele><time>2026-03-29T10:28:24Z</time></trkpt><trkpt lat="14.976421176386962" lon="120.75833311852398"><ele>5.0</ele><time>2026-03-29T10:28:25Z</time></trkpt><trkpt lat="14.976253184949616" lon="120.75845116231817"><ele>5.0</ele><time>2026-03-29T10:28:26Z</time></trkpt><trkpt lat="14.976083752034771" lon="120.75856799948626"><ele>5.0</ele><time>2026-03-29T10:28:27.001Z</time></trkpt><trkpt lat="14.97591602445232" lon="120.75868909307876"><ele>5.0</ele><time>2026-03-29T10:28:28.001Z</time></trkpt><trkpt lat="14.975747163296072" lon="120.75880902279627"><ele>5.333333333333334</ele><time>2026-03-29T10:28:29.001Z</time></trkpt><trkpt lat="14.975577764512293" lon="120.75892946573467"><ele>5.666666666666667</ele><time>2026-03-29T10:28:30.001Z</time></trkpt><trkpt lat="14.97540836358948" lon="120.75905049806968"><ele>6.0</ele><time>2026-03-29T10:28:31.001Z</time></trkpt><trkpt lat="14.975239173454028" lon="120.75917367301552"><ele>6.0</ele><time>2026-03-29T10:28:32.001Z</time></trkpt><trkpt lat="14.975068620959247" lon="120.75929511375939"><ele>6.0</ele><time>2026-03-29T10:28:33.001Z</time></trkpt><trkpt lat="14.974898454300048" lon="120.75941891814121"><ele>6.0</ele><time>2026-03-29T10:28:34.001Z</time></trkpt><trkpt lat="14.974727821535257" lon="120.7595439035454"><ele>5.666666666666667</ele><time>2026-03-29T10:28:35.001Z</time></trkpt><trkpt lat="14.974556819409395" lon="120.75966859629969"><ele>5.333333333333334</ele><time>2026-03-29T10:28:36.001Z</time></trkpt><trkpt lat="14.974385616693928" lon="120.75979339341862"><ele>5.0</ele><time>2026-03-29T10:28:37.001Z</time></trkpt><trkpt lat="14.974214056592032" lon="120.75991752867208"><ele>5.0</ele><time>2026-03-29T10:28:38.001Z</time></trkpt><trkpt lat="14.974042100323137" lon="120.76004230086812"><ele>5.0</ele><time>2026-03-29T10:28:39.001Z</time></trkpt><trkpt lat="14.97387109267729" lon="120.76016713933163"><ele>5.0</ele><time>2026-03-29T10:28:40.001Z</time></trkpt><trkpt lat="14.973701755233652" lon="120.76029098983429"><ele>5.333333333333334</ele><time>2026-03-29T10:28:41.001Z</time></trkpt><trkpt lat="14.973533964140351" lon="120.76041498041306"><ele>5.666666666666667</ele><time>2026-03-29T10:28:42.001Z</time></trkpt><trkpt lat="14.9733675465361" lon="120.76054018800464"><ele>6.0</ele><time>2026-03-29T10:28:43.001Z</time></trkpt><trkpt lat="14.973198244348016" lon="120.76066774126815"><ele>6.0</ele><time>2026-03-29T10:28:44.001Z</time></trkpt><trkpt lat="14.973027337536678" lon="120.76079308694415"><ele>6.0</ele><time>2026-03-29T10:28:45.001Z</time></trkpt><trkpt lat="14.972856556149774" lon="120.7609172872777"><ele>6.0</ele><time>2026-03-29T10:28:46.001Z</time></trkpt><trkpt lat="14.972686496902194" lon="120.76104188766242"><ele>5.666666666666667</ele><time>2026-03-29T10:28:47.001Z</time></trkpt><trkpt lat="14.972520125052057" lon="120.7611676347096"><ele>5.333333333333334</ele><time>2026-03-29T10:28:48.001Z</time></trkpt><trkpt lat="14.972357389680683" lon="120.76129169869407"><ele>5.0</ele><time>2026-03-29T10:28:49.001Z</time></trkpt><trkpt lat="14.972196427263643" lon="120.76141335204576"><ele>5.0</ele><time>2026-03-29T10:28:50.001Z</time></trkpt><trkpt lat="14.972037445967393" lon="120.76153172365801"><ele>5.0</ele><time>2026-03-29T10:28:51.001Z</time></trkpt><trkpt lat="14.971880455713098" lon="120.76165192189154"><ele>5.0</ele><time>2026-03-29T10:28:52.001Z</time></trkpt><trkpt lat="14.971724994916947" lon="120.76177131476224"><ele>5.0</ele><time>2026-03-29T10:28:53.001Z</time></trkpt><trkpt lat="14.971569822927686" lon="120.76188906054344"><ele>5.0</ele><time>2026-03-29T10:28:54.001Z</time></trkpt><trkpt lat="14.971416903441861" lon="120.76200704171332"><ele>5.0</ele><time>2026-03-29T10:28:55.001Z</time></trkpt><trkpt lat="14.971265405089708" lon="120.76212401436386"><ele>5.0</ele><time>2026-03-29T10:28:56.001Z</time></trkpt><trkpt lat="14.971117207923921" lon="120.76223987008139"><ele>5.0</ele><time>2026-03-29T10:28:57.001Z</time></trkpt><trkpt lat="14.970968865424418" lon="120.76235437413294"><ele>5.0</ele><time>2026-03-29T10:28:58.001Z</time></trkpt><trkpt lat="14.970821452119944" lon="120.76246924591442"><ele>5.666666666666667</ele><time>2026-03-29T10:28:59.001Z</time></trkpt><trkpt lat="14.970675623480941" lon="120.76258438114361"><ele>6.333333333333334</ele><time>2026-03-29T10:29:00.001Z</time></trkpt><trkpt lat="14.970528159646523" lon="120.7626989730503"><ele>7.0</ele><time>2026-03-29T10:29:01.001Z</time></trkpt><trkpt lat="14.970379819049283" lon="120.76281337718879"><ele>7.0</ele><time>2026-03-29T10:29:02.001Z</time></trkpt><trkpt lat="14.970230977496385" lon="120.76292869603182"><ele>7.0</ele><time>2026-03-29T10:29:03.001Z</time></trkpt><trkpt lat="14.970082216338998" lon="120.76304521659657"><ele>7.0</ele><time>2026-03-29T10:29:04.001Z</time></trkpt><trkpt lat="14.969933838345078" lon="120.76316272889603"><ele>7.666666666666667</ele><time>2026-03-29T10:29:05.001Z</time></trkpt><trkpt lat="14.969787385626283" lon="120.76328043949513"><ele>8.333333333333334</ele><time>2026-03-29T10:29:06.001Z</time></trkpt><trkpt lat="14.969640779580121" lon="120.7633976693831"><ele>9.0</ele><time>2026-03-29T10:29:07.001Z</time></trkpt><trkpt lat="14.969493311967062" lon="120.76351481723161"><ele>8.666666666666666</ele><time>2026-03-29T10:29:08.001Z</time></trkpt><trkpt lat="14.969346951603272" lon="120.76363180900243"><ele>8.333333333333332</ele><time>2026-03-29T10:29:09.001Z</time></trkpt><trkpt lat="14.96920382483749" lon="120.76374852131879"><ele>8.0</ele><time>2026-03-29T10:29:10.001Z</time></trkpt><trkpt lat="14.969060903602731" lon="120.76386451150421"><ele>8.666666666666666</ele><time>2026-03-29T10:29:11.001Z</time></trkpt><trkpt lat="14.968918219488454" lon="120.76397890331498"><ele>9.333333333333334</ele><time>2026-03-29T10:29:12.001Z</time></trkpt><trkpt lat="14.968774345612147" lon="120.76409547594032"><ele>10.0</ele><time>2026-03-29T10:29:13.001Z</time></trkpt><trkpt lat="14.968628829448203" lon="120.76421159711205"><ele>10.0</ele><time>2026-03-29T10:29:14.001Z</time></trkpt><trkpt lat="14.9684841824198" lon="120.76432892431339"><ele>10.0</ele><time>2026-03-29T10:29:15.001Z</time></trkpt><trkpt lat="14.968340002032201" lon="120.76444667066104"><ele>10.0</ele><time>2026-03-29T10:29:16.001Z</time></trkpt><trkpt lat="14.968196378607658" lon="120.76456443740652"><ele>8.0</ele><time>2026-03-29T10:29:17.001Z</time></trkpt><trkpt lat="14.968051811242182" lon="120.76468355070463"><ele>6.0</ele><time>2026-03-29T10:29:18.001Z</time></trkpt><trkpt lat="14.96790661946509" lon="120.7648036283165"><ele>4.0</ele><time>2026-03-29T10:29:19.001Z</time></trkpt><trkpt lat="14.967758832511816" lon="120.76492433326854"><ele>4.0</ele><time>2026-03-29T10:29:20.001Z</time></trkpt><trkpt lat="14.967611408932603" lon="120.76504631842207"><ele>4.0</ele><time>2026-03-29T10:29:21.001Z</time></trkpt><trkpt lat="14.967462890318" lon="120.76517063693687"><ele>4.0</ele><time>2026-03-29T10:29:22.001Z</time></trkpt><trkpt lat="14.967314284464031" lon="120.76529631204544"><ele>4.0</ele><time>2026-03-29T10:29:23.001Z</time></trkpt><trkpt lat="14.967164533557018" lon="120.76542292121121"><ele>4.0</ele><time>2026-03-29T10:29:24.001Z</time></trkpt><trkpt lat="14.967014026938477" lon="120.76554995106675"><ele>4.0</ele><time>2026-03-29T10:29:25.001Z</time></trkpt><trkpt lat="14.966862516032183" lon="120.7656786187702"><ele>4.0</ele><time>2026-03-29T10:29:26.001Z</time></trkpt><trkpt lat="14.966710155328164" lon="120.76580762962907"><ele>4.0</ele><time>2026-03-29T10:29:27.001Z</time></trkpt><trkpt lat="14.966557040542684" lon="120.76593752774467"><ele>4.0</ele><time>2026-03-29T10:29:28.001Z</time></trkpt><trkpt lat="14.96640317787339" lon="120.7660672445975"><ele>3.333333333333333</ele><time>2026-03-29T10:29:29.001Z</time></trkpt><trkpt lat="14.96625032605175" lon="120.7661950471453"><ele>2.6666666666666665</ele><time>2026-03-29T10:29:30.001Z</time></trkpt><trkpt lat="14.966098905007769" lon="120.76632244798706"><ele>2.0</ele><time>2026-03-29T10:29:31.001Z</time></trkpt><trkpt lat="14.965950328331587" lon="120.76644964554444"><ele>3.0</ele><time>2026-03-29T10:29:32.001Z</time></trkpt><trkpt lat="14.965801959846344" lon="120.76657548283615"><ele>4.0</ele><time>2026-03-29T10:29:33.001Z</time></trkpt><trkpt lat="14.965654340495542" lon="120.76670264483843"><ele>5.0</ele><time>2026-03-29T10:29:34.001Z</time></trkpt><trkpt lat="14.965506498021256" lon="120.76682975640831"><ele>5.0</ele><time>2026-03-29T10:29:35.001Z</time></trkpt><trkpt lat="14.965358173947813" lon="120.76695531967125"><ele>5.0</ele><time>2026-03-29T10:29:36.001Z</time></trkpt><trkpt lat="14.96521042272605" lon="120.76708536381405"><ele>5.0</ele><time>2026-03-29T10:29:37.001Z</time></trkpt><trkpt lat="14.965061522314084" lon="120.76721649393102"><ele>5.0</ele><time>2026-03-29T10:29:38.001Z</time></trkpt><trkpt lat="14.964911590236857" lon="120.76734872003986"><ele>5.0</ele><time>2026-03-29T10:29:39.001Z</time></trkpt><trkpt lat="14.964759752086396" lon="120.76748044664326"><ele>5.0</ele><time>2026-03-29T10:29:40.001Z</time></trkpt><trkpt lat="14.96460818552623" lon="120.76761355953643"><ele>5.0</ele><time>2026-03-29T10:29:41.001Z</time></trkpt><trkpt lat="14.964455294370207" lon="120.76774690056"><ele>5.0</ele><time>2026-03-29T10:29:42.001Z</time></trkpt><trkpt lat="14.964301874639663" lon="120.76788028115328"><ele>5.0</ele><time>2026-03-29T10:29:43Z</time></trkpt><trkpt lat="14.964148147045952" lon="120.76801190468225"><ele>5.0</ele><time>2026-03-29T10:29:44Z</time></trkpt><trkpt lat="14.963994663728185" lon="120.76814494395434"><ele>5.0</ele><time>2026-03-29T10:29:45Z</time></trkpt><trkpt lat="14.96384163839665" lon="120.76828020946773"><ele>5.0</ele><time>2026-03-29T10:29:46Z</time></trkpt><trkpt lat="14.963685868230272" lon="120.76841495454235"><ele>5.0</ele><time>2026-03-29T10:29:47Z</time></trkpt><trkpt lat="14.96353058626539" lon="120.76855035687308"><ele>5.0</ele><time>2026-03-29T10:29:48Z</time></trkpt><trkpt lat="14.96337350522292" lon="120.76868810122438"><ele>5.0</ele><time>2026-03-29T10:29:49Z</time></trkpt><trkpt lat="14.963216500422273" lon="120.76882589342776"><ele>5.0</ele><time>2026-03-29T10:29:50Z</time></trkpt><trkpt lat="14.963060365508646" lon="120.76896460657531"><ele>5.0</ele><time>2026-03-29T10:29:51Z</time></trkpt><trkpt lat="14.962903299181324" lon="120.7691044565063"><ele>5.0</ele><time>2026-03-29T10:29:52Z</time></trkpt><trkpt lat="14.962745414996478" lon="120.76924475307933"><ele>5.333333333333334</ele><time>2026-03-29T10:29:53Z</time></trkpt><trkpt lat="14.96258655878853" lon="120.76938537217904"><ele>5.666666666666667</ele><time>2026-03-29T10:29:54Z</time></trkpt><trkpt lat="14.962427058408226" lon="120.76952570396762"><ele>6.0</ele><time>2026-03-29T10:29:55Z</time></trkpt><trkpt lat="14.96226767126366" lon="120.76966634730782"><ele>6.0</ele><time>2026-03-29T10:29:56Z</time></trkpt><trkpt lat="14.962108535269584" lon="120.76980670591138"><ele>6.0</ele><time>2026-03-29T10:29:57Z</time></trkpt><trkpt lat="14.961948429925828" lon="120.76994733137153"><ele>6.0</ele><time>2026-03-29T10:29:58Z</time></trkpt><trkpt lat="14.961788365199673" lon="120.77008738828872"><ele>6.333333333333334</ele><time>2026-03-29T10:29:59Z</time></trkpt><trkpt lat="14.961629443146123" lon="120.77022848769303"><ele>6.666666666666667</ele><time>2026-03-29T10:30:00Z</time></trkpt><trkpt lat="14.961468383580204" lon="120.77036824734598"><ele>7.0</ele><time>2026-03-29T10:30:01Z</time></trkpt><trkpt lat="14.961308531273207" lon="120.77050875702521"><ele>7.0</ele><time>2026-03-29T10:30:02Z</time></trkpt><trkpt lat="14.961149205659783" lon="120.77064752479941"><ele>7.0</ele><time>2026-03-29T10:30:03Z</time></trkpt><trkpt lat="14.96099144074493" lon="120.77078489082373"><ele>7.0</ele><time>2026-03-29T10:30:04Z</time></trkpt><trkpt lat="14.960835464048435" lon="120.77092322895187"><ele>6.333333333333334</ele><time>2026-03-29T10:30:05Z</time></trkpt><trkpt lat="14.960680845034842" lon="120.77105663386287"><ele>5.666666666666667</ele><time>2026-03-29T10:30:06Z</time></trkpt><trkpt lat="14.960529747206497" lon="120.77118834092005"><ele>5.0</ele><time>2026-03-29T10:30:07Z</time></trkpt><trkpt lat="14.960381171544638" lon="120.77131978192592"><ele>5.0</ele><time>2026-03-29T10:30:08Z</time></trkpt><trkpt lat="14.96023401331971" lon="120.77144688118844"><ele>5.0</ele><time>2026-03-29T10:30:09Z</time></trkpt><trkpt lat="14.960089882182393" lon="120.77157288599696"><ele>5.0</ele><time>2026-03-29T10:30:10Z</time></trkpt><trkpt lat="14.959948221716399" lon="120.7716985137619"><ele>5.666666666666667</ele><time>2026-03-29T10:30:11Z</time></trkpt><trkpt lat="14.959807711030363" lon="120.7718216154508"><ele>6.333333333333334</ele><time>2026-03-29T10:30:12Z</time></trkpt><trkpt lat="14.959667122617722" lon="120.7719443883852"><ele>7.0</ele><time>2026-03-29T10:30:13Z</time></trkpt><trkpt lat="14.959527910075241" lon="120.77206867771201"><ele>7.0</ele><time>2026-03-29T10:30:14Z</time></trkpt><trkpt lat="14.959385806329738" lon="120.77219239964946"><ele>7.0</ele><time>2026-03-29T10:30:15Z</time></trkpt><trkpt lat="14.95924362723019" lon="120.77231717553825"><ele>7.0</ele><time>2026-03-29T10:30:16Z</time></trkpt><trkpt lat="14.95910067279476" lon="120.7724427535571"><ele>7.0</ele><time>2026-03-29T10:30:17Z</time></trkpt><trkpt lat="14.95895666467756" lon="120.77256943225572"><ele>7.0</ele><time>2026-03-29T10:30:18Z</time></trkpt><trkpt lat="14.958811559547696" lon="120.7726961095885"><ele>7.0</ele><time>2026-03-29T10:30:19Z</time></trkpt><trkpt lat="14.958665953817993" lon="120.77282430434379"><ele>7.0</ele><time>2026-03-29T10:30:20.001Z</time></trkpt><trkpt lat="14.958521333042572" lon="120.77295139179603"><ele>7.0</ele><time>2026-03-29T10:30:21.001Z</time></trkpt><trkpt lat="14.958378240346915" lon="120.77307491627542"><ele>7.0</ele><time>2026-03-29T10:30:22.001Z</time></trkpt><trkpt lat="14.958235888932434" lon="120.77319950869308"><ele>7.0</ele><time>2026-03-29T10:30:23.001Z</time></trkpt><trkpt lat="14.95809604598454" lon="120.77332121953094"><ele>7.0</ele><time>2026-03-29T10:30:24.001Z</time></trkpt><trkpt lat="14.957958159581796" lon="120.77344163093504"><ele>7.0</ele><time>2026-03-29T10:30:25.001Z</time></trkpt><trkpt lat="14.95782170816517" lon="120.77356165997622"><ele>7.0</ele><time>2026-03-29T10:30:26.001Z</time></trkpt><trkpt lat="14.957686910066483" lon="120.77368034309808"><ele>7.0</ele><time>2026-03-29T10:30:27.001Z</time></trkpt><trkpt lat="14.957531988062277" lon="120.7737686528678"><ele>7.0</ele><time>2026-03-29T10:30:28.001Z</time></trkpt><trkpt lat="14.957403291293538" lon="120.7738829345114"><ele>7.333333333333334</ele><time>2026-03-29T10:30:29.001Z</time></trkpt><trkpt lat="14.95727538778711" lon="120.77399499272414"><ele>7.666666666666666</ele><time>2026-03-29T10:30:30.001Z</time></trkpt><trkpt lat="14.957148469552004" lon="120.77410650529087"><ele>8.0</ele><time>2026-03-29T10:30:31.001Z</time></trkpt><trkpt lat="14.957023708434123" lon="120.77421576746272"><ele>8.0</ele><time>2026-03-29T10:30:32.001Z</time></trkpt><trkpt lat="14.956900028831877" lon="120.77432506795714"><ele>8.0</ele><time>2026-03-29T10:30:33.001Z</time></trkpt><trkpt lat="14.956809212467126" lon="120.7744711493709"><ele>8.0</ele><time>2026-03-29T10:30:34.001Z</time></trkpt><trkpt lat="14.95669217849109" lon="120.77458576349643"><ele>8.333333333333332</ele><time>2026-03-29T10:30:35.001Z</time></trkpt><trkpt lat="14.956572710017332" lon="120.77469868451132"><ele>8.666666666666666</ele><time>2026-03-29T10:30:36.001Z</time></trkpt><trkpt lat="14.956454232108525" lon="120.77481276216007"><ele>9.0</ele><time>2026-03-29T10:30:37.001Z</time></trkpt><trkpt lat="14.956336758634011" lon="120.77492810398823"><ele>9.0</ele><time>2026-03-29T10:30:38.001Z</time></trkpt><trkpt lat="14.95621735350104" lon="120.77504223025197"><ele>9.0</ele><time>2026-03-29T10:30:39.001Z</time></trkpt><trkpt lat="14.95609774962434" lon="120.77515213351352"><ele>9.0</ele><time>2026-03-29T10:30:40.001Z</time></trkpt><trkpt lat="14.955976041278037" lon="120.77526074487652"><ele>9.666666666666666</ele><time>2026-03-29T10:30:41.001Z</time></trkpt><trkpt lat="14.95585416495227" lon="120.77537129592535"><ele>10.333333333333332</ele><time>2026-03-29T10:30:42.001Z</time></trkpt><trkpt lat="14.955731552341083" lon="120.77548183274426"><ele>11.0</ele><time>2026-03-29T10:30:43.001Z</time></trkpt><trkpt lat="14.955606847633055" lon="120.77559295269279"><ele>11.0</ele><time>2026-03-29T10:30:44.001Z</time></trkpt><trkpt lat="14.955481322104408" lon="120.77570495210993"><ele>11.0</ele><time>2026-03-29T10:30:45.001Z</time></trkpt><trkpt lat="14.955355884216146" lon="120.77581653734639"><ele>11.0</ele><time>2026-03-29T10:30:46.001Z</time></trkpt><trkpt lat="14.955230409459189" lon="120.77592907040463"><ele>11.0</ele><time>2026-03-29T10:30:47.001Z</time></trkpt><trkpt lat="14.95510483076767" lon="120.77604383510129"><ele>11.0</ele><time>2026-03-29T10:30:48.001Z</time></trkpt><trkpt lat="14.95497791658125" lon="120.7761573533278"><ele>11.0</ele><time>2026-03-29T10:30:49.001Z</time></trkpt><trkpt lat="14.954848098369038" lon="120.7762719764442"><ele>10.333333333333332</ele><time>2026-03-29T10:30:50.001Z</time></trkpt><trkpt lat="14.954715417304328" lon="120.77638741507458"><ele>9.666666666666666</ele><time>2026-03-29T10:30:51.001Z</time></trkpt><trkpt lat="14.954580330609351" lon="120.77650150084082"><ele>9.0</ele><time>2026-03-29T10:30:52.001Z</time></trkpt><trkpt lat="14.95444536897921" lon="120.77661860521717"><ele>9.0</ele><time>2026-03-29T10:30:53.001Z</time></trkpt><trkpt lat="14.954310554973452" lon="120.77673819027528"><ele>9.0</ele><time>2026-03-29T10:30:54.001Z</time></trkpt><trkpt lat="14.954173143067884" lon="120.77685714031529"><ele>9.0</ele><time>2026-03-29T10:30:55.001Z</time></trkpt><trkpt lat="14.954035895004678" lon="120.77697891929972"><ele>9.333333333333334</ele><time>2026-03-29T10:30:56.001Z</time></trkpt><trkpt lat="14.953898220574544" lon="120.77709978796217"><ele>9.666666666666668</ele><time>2026-03-29T10:30:57.001Z</time></trkpt><trkpt lat="14.953759797841727" lon="120.77722019580179"><ele>10.0</ele><time>2026-03-29T10:30:58.001Z</time></trkpt><trkpt lat="14.953621769063735" lon="120.77734201789364"><ele>10.0</ele><time>2026-03-29T10:30:59.001Z</time></trkpt><trkpt lat="14.9534836314624" lon="120.77746311107713"><ele>10.0</ele><time>2026-03-29T10:31:00.001Z</time></trkpt><trkpt lat="14.953344497808958" lon="120.77758455682692"><ele>10.0</ele><time>2026-03-29T10:31:01.001Z</time></trkpt><trkpt lat="14.953204261719865" lon="120.77770593487125"><ele>9.666666666666668</ele><time>2026-03-29T10:31:02.001Z</time></trkpt><trkpt lat="14.953063521277542" lon="120.77783004188395"><ele>9.333333333333334</ele><time>2026-03-29T10:31:03.001Z</time></trkpt><trkpt lat="14.952921190498362" lon="120.77795493877842"><ele>9.0</ele><time>2026-03-29T10:31:04.001Z</time></trkpt><trkpt lat="14.95277812450001" lon="120.77808194628467"><ele>9.0</ele><time>2026-03-29T10:31:05.001Z</time></trkpt><trkpt lat="14.952632832871743" lon="120.77820979830987"><ele>9.0</ele><time>2026-03-29T10:31:06.001Z</time></trkpt><trkpt lat="14.952487012362203" lon="120.7783371573724"><ele>9.0</ele><time>2026-03-29T10:31:07.001Z</time></trkpt><trkpt lat="14.95233988251826" lon="120.77846679034477"><ele>9.333333333333334</ele><time>2026-03-29T10:31:08.001Z</time></trkpt><trkpt lat="14.952189641410822" lon="120.77859718864258"><ele>9.666666666666668</ele><time>2026-03-29T10:31:09.001Z</time></trkpt><trkpt lat="14.952037102906887" lon="120.77872791923495"><ele>10.0</ele><time>2026-03-29T10:31:10.001Z</time></trkpt><trkpt lat="14.951882168164671" lon="120.7788595560314"><ele>10.0</ele><time>2026-03-29T10:31:11.001Z</time></trkpt><trkpt lat="14.951723864885055" lon="120.77899490842576"><ele>10.0</ele><time>2026-03-29T10:31:12.001Z</time></trkpt><trkpt lat="14.951562869124535" lon="120.77913248282908"><ele>10.0</ele><time>2026-03-29T10:31:13.001Z</time></trkpt><trkpt lat="14.951399097108599" lon="120.77927235198686"><ele>10.0</ele><time>2026-03-29T10:31:14.001Z</time></trkpt><trkpt lat="14.951233502679774" lon="120.77941627449029"><ele>10.0</ele><time>2026-03-29T10:31:15.001Z</time></trkpt><trkpt lat="14.951066609405078" lon="120.77956071274343"><ele>10.0</ele><time>2026-03-29T10:31:16.001Z</time></trkpt><trkpt lat="14.950898601314782" lon="120.77970668795999"><ele>9.666666666666668</ele><time>2026-03-29T10:31:17.001Z</time></trkpt><trkpt lat="14.95072977992914" lon="120.77985386951428"><ele>9.333333333333334</ele><time>2026-03-29T10:31:18.001Z</time></trkpt><trkpt lat="14.9505596213975" lon="120.78000151013433"><ele>9.0</ele><time>2026-03-29T10:31:19.001Z</time></trkpt><trkpt lat="14.950388778746861" lon="120.78015042353881"><ele>8.666666666666666</ele><time>2026-03-29T10:31:20.001Z</time></trkpt><trkpt lat="14.9502182509034" lon="120.78030011629015"><ele>8.333333333333332</ele><time>2026-03-29T10:31:21.001Z</time></trkpt><trkpt lat="14.950046394746856" lon="120.78045047117153"><ele>8.0</ele><time>2026-03-29T10:31:22.001Z</time></trkpt><trkpt lat="14.949873188766883" lon="120.78059942712157"><ele>8.0</ele><time>2026-03-29T10:31:23.001Z</time></trkpt><trkpt lat="14.94970144857057" lon="120.78074963601583"><ele>8.0</ele><time>2026-03-29T10:31:24.001Z</time></trkpt><trkpt lat="14.949531663291243" lon="120.78089987650752"><ele>8.0</ele><time>2026-03-29T10:31:25.001Z</time></trkpt><trkpt lat="14.949360834654575" lon="120.78104887594475"><ele>8.333333333333332</ele><time>2026-03-29T10:31:26.001Z</time></trkpt><trkpt lat="14.9491917354923" lon="120.7811960442754"><ele>8.666666666666666</ele><time>2026-03-29T10:31:27.001Z</time></trkpt><trkpt lat="14.949021881258172" lon="120.78134291293965"><ele>9.0</ele><time>2026-03-29T10:31:28.001Z</time></trkpt><trkpt lat="14.94885432063798" lon="120.78149066666452"><ele>9.0</ele><time>2026-03-29T10:31:29.001Z</time></trkpt><trkpt lat="14.9486887192104" lon="120.78163836051911"><ele>9.0</ele><time>2026-03-29T10:31:30.001Z</time></trkpt><trkpt lat="14.948520722286009" lon="120.781784290129"><ele>9.0</ele><time>2026-03-29T10:31:31.001Z</time></trkpt><trkpt lat="14.948354128720284" lon="120.78193052312625"><ele>8.666666666666666</ele><time>2026-03-29T10:31:32.001Z</time></trkpt><trkpt lat="14.948189428769085" lon="120.78207655946082"><ele>8.333333333333332</ele><time>2026-03-29T10:31:33.001Z</time></trkpt><trkpt lat="14.948025787361866" lon="120.78222035822613"><ele>8.0</ele><time>2026-03-29T10:31:34.001Z</time></trkpt><trkpt lat="14.947863103420653" lon="120.78236372177689"><ele>8.0</ele><time>2026-03-29T10:31:35.001Z</time></trkpt><trkpt lat="14.947700988515534" lon="120.7825050199679"><ele>8.0</ele><time>2026-03-29T10:31:36.001Z</time></trkpt><trkpt lat="14.947542652542216" lon="120.78264452498347"><ele>8.0</ele><time>2026-03-29T10:31:37.001Z</time></trkpt><trkpt lat="14.947387095942863" lon="120.78278187137789"><ele>7.666666666666666</ele><time>2026-03-29T10:31:38.001Z</time></trkpt><trkpt lat="14.947235200253582" lon="120.78291907689203"><ele>7.333333333333334</ele><time>2026-03-29T10:31:39.001Z</time></trkpt><trkpt lat="14.947086013898483" lon="120.78305582412257"><ele>7.0</ele><time>2026-03-29T10:31:40.001Z</time></trkpt><trkpt lat="14.946934363144058" lon="120.78319065052008"><ele>7.0</ele><time>2026-03-29T10:31:41.001Z</time></trkpt><trkpt lat="14.946784225597447" lon="120.78332484882215"><ele>7.0</ele><time>2026-03-29T10:31:42.001Z</time></trkpt><trkpt lat="14.946633640023034" lon="120.78346238319409"><ele>7.0</ele><time>2026-03-29T10:31:43.001Z</time></trkpt><trkpt lat="14.94647984579952" lon="120.78359793936964"><ele>6.333333333333334</ele><time>2026-03-29T10:31:44.001Z</time></trkpt><trkpt lat="14.946324273764832" lon="120.7837321875325"><ele>5.666666666666667</ele><time>2026-03-29T10:31:45.001Z</time></trkpt><trkpt lat="14.946079811676169" lon="120.78376476780967"><ele>5.0</ele><time>2026-03-29T10:31:46.001Z</time></trkpt><trkpt lat="14.945921662913243" lon="120.78390325487509"><ele>5.333333333333334</ele><time>2026-03-29T10:31:47.001Z</time></trkpt><trkpt lat="14.94576245634508" lon="120.78404266823497"><ele>5.666666666666667</ele><time>2026-03-29T10:31:48.001Z</time></trkpt><trkpt lat="14.94560686536592" lon="120.78418816483851"><ele>6.0</ele><time>2026-03-29T10:31:49.001Z</time></trkpt><trkpt lat="14.945532319213664" lon="120.78443106721251"><ele>6.0</ele><time>2026-03-29T10:31:50.001Z</time></trkpt><trkpt lat="14.945372157180806" lon="120.78457044833358"><ele>6.0</ele><time>2026-03-29T10:31:51.001Z</time></trkpt><trkpt lat="14.945212913475318" lon="120.78471148957766"><ele>6.0</ele><time>2026-03-29T10:31:52.001Z</time></trkpt><trkpt lat="14.945055225840123" lon="120.78484998468605"><ele>6.0</ele><time>2026-03-29T10:31:53.001Z</time></trkpt><trkpt lat="14.94489841576373" lon="120.78498791792313"><ele>6.0</ele><time>2026-03-29T10:31:54.001Z</time></trkpt><trkpt lat="14.944740754701414" lon="120.78512607499981"><ele>6.0</ele><time>2026-03-29T10:31:55.001Z</time></trkpt><trkpt lat="14.944582052768526" lon="120.78526476998971"><ele>5.666666666666667</ele><time>2026-03-29T10:31:56.001Z</time></trkpt><trkpt lat="14.944421673082706" lon="120.78540322555443"><ele>5.333333333333334</ele><time>2026-03-29T10:31:57.001Z</time></trkpt><trkpt lat="14.944260918560492" lon="120.78554250550009"><ele>5.0</ele><time>2026-03-29T10:31:58.001Z</time></trkpt><trkpt lat="14.944099927295424" lon="120.78568435893676"><ele>5.0</ele><time>2026-03-29T10:31:59Z</time></trkpt><trkpt lat="14.943938473198175" lon="120.78582734153726"><ele>5.0</ele><time>2026-03-29T10:32:00Z</time></trkpt><trkpt lat="14.943774299665732" lon="120.78597240070222"><ele>5.0</ele><time>2026-03-29T10:32:01Z</time></trkpt><trkpt lat="14.943610277304696" lon="120.78611687183762"><ele>4.666666666666667</ele><time>2026-03-29T10:32:02Z</time></trkpt><trkpt lat="14.943445246079069" lon="120.78626203885118"><ele>4.333333333333333</ele><time>2026-03-29T10:32:03Z</time></trkpt><trkpt lat="14.94328035365176" lon="120.7864061585661"><ele>4.0</ele><time>2026-03-29T10:32:04Z</time></trkpt><trkpt lat="14.943114545468541" lon="120.78655084165415"><ele>4.0</ele><time>2026-03-29T10:32:05Z</time></trkpt><trkpt lat="14.942945395146838" lon="120.78669851903356"><ele>4.0</ele><time>2026-03-29T10:32:06Z</time></trkpt><trkpt lat="14.942774729978419" lon="120.78684797058844"><ele>4.0</ele><time>2026-03-29T10:32:07Z</time></trkpt><trkpt lat="14.94260171227405" lon="120.78699873218751"><ele>4.0</ele><time>2026-03-29T10:32:08Z</time></trkpt><trkpt lat="14.94242800356302" lon="120.78715069686709"><ele>4.0</ele><time>2026-03-29T10:32:09Z</time></trkpt><trkpt lat="14.942252621522385" lon="120.78730482331761"><ele>4.0</ele><time>2026-03-29T10:32:10Z</time></trkpt><trkpt lat="14.942075917776846" lon="120.78746019982341"><ele>4.0</ele><time>2026-03-29T10:32:11Z</time></trkpt><trkpt lat="14.94189746777491" lon="120.78761650482001"><ele>4.5</ele><time>2026-03-29T10:32:12Z</time></trkpt><trkpt lat="14.941718025819478" lon="120.78777356533804"><ele>5.0</ele><time>2026-03-29T10:32:13Z</time></trkpt><trkpt lat="14.941539291298989" lon="120.78793239993746"><ele>6.0</ele><time>2026-03-29T10:32:14Z</time></trkpt><trkpt lat="14.941358575007733" lon="120.7880915152853"><ele>7.0</ele><time>2026-03-29T10:32:15Z</time></trkpt><trkpt lat="14.94117640943571" lon="120.78825068676088"><ele>7.0</ele><time>2026-03-29T10:32:16Z</time></trkpt><trkpt lat="14.940992864958623" lon="120.78841078526136"><ele>7.0</ele><time>2026-03-29T10:32:17Z</time></trkpt><trkpt lat="14.940808905596722" lon="120.7885710013909"><ele>7.0</ele><time>2026-03-29T10:32:18Z</time></trkpt><trkpt lat="14.940625022750597" lon="120.78873227780045"><ele>7.0</ele><time>2026-03-29T10:32:19Z</time></trkpt><trkpt lat="14.940440299112542" lon="120.78889390723955"><ele>7.0</ele><time>2026-03-29T10:32:20Z</time></trkpt><trkpt lat="14.940254943748162" lon="120.78905554135514"><ele>7.0</ele><time>2026-03-29T10:32:21Z</time></trkpt><trkpt lat="14.940070966203487" lon="120.78921782804802"><ele>6.5</ele><time>2026-03-29T10:32:22Z</time></trkpt><trkpt lat="14.939887908020978" lon="120.7893776633259"><ele>6.0</ele><time>2026-03-29T10:32:23.001Z</time></trkpt><trkpt lat="14.939706899643804" lon="120.78953524958162"><ele>6.0</ele><time>2026-03-29T10:32:24.001Z</time></trkpt><trkpt lat="14.939528371018902" lon="120.78969093307886"><ele>6.0</ele><time>2026-03-29T10:32:25.001Z</time></trkpt><trkpt lat="14.939352385333093" lon="120.7898446153872"><ele>5.5</ele><time>2026-03-29T10:32:26.001Z</time></trkpt><trkpt lat="14.939179960000617" lon="120.78999518617842"><ele>5.0</ele><time>2026-03-29T10:32:27.001Z</time></trkpt><trkpt lat="14.939008375244502" lon="120.79014580490922"><ele>4.5</ele><time>2026-03-29T10:32:28.001Z</time></trkpt><trkpt lat="14.938836676899488" lon="120.79029791559762"><ele>4.0</ele><time>2026-03-29T10:32:29.001Z</time></trkpt><trkpt lat="14.938663544005271" lon="120.7904491018474"><ele>4.0</ele><time>2026-03-29T10:32:30.001Z</time></trkpt><trkpt lat="14.938490366608212" lon="120.79060290183786"><ele>4.0</ele><time>2026-03-29T10:32:31.001Z</time></trkpt><trkpt lat="14.938315870012744" lon="120.79075576424762"><ele>4.0</ele><time>2026-03-29T10:32:32.001Z</time></trkpt><trkpt lat="14.938145209378916" lon="120.79090684897977"><ele>4.0</ele><time>2026-03-29T10:32:33.001Z</time></trkpt><trkpt lat="14.937979364536089" lon="120.79105126346766"><ele>4.0</ele><time>2026-03-29T10:32:34.001Z</time></trkpt><trkpt lat="14.937818578560817" lon="120.79119269110186"><ele>4.333333333333333</ele><time>2026-03-29T10:32:35.001Z</time></trkpt><trkpt lat="14.937657937158614" lon="120.79132962836051"><ele>4.666666666666667</ele><time>2026-03-29T10:32:36.001Z</time></trkpt><trkpt lat="14.937496345639063" lon="120.79146770642926"><ele>5.0</ele><time>2026-03-29T10:32:37.001Z</time></trkpt><trkpt lat="14.937331804723518" lon="120.79160732178683"><ele>5.0</ele><time>2026-03-29T10:32:38.001Z</time></trkpt><trkpt lat="14.937169851920357" lon="120.79175226224862"><ele>5.0</ele><time>2026-03-29T10:32:39.001Z</time></trkpt><trkpt lat="14.937003528460496" lon="120.79189768537074"><ele>5.0</ele><time>2026-03-29T10:32:40.001Z</time></trkpt><trkpt lat="14.936835897454431" lon="120.7920450463511"><ele>5.333333333333334</ele><time>2026-03-29T10:32:41.001Z</time></trkpt><trkpt lat="14.936667161884674" lon="120.79219176298712"><ele>5.666666666666667</ele><time>2026-03-29T10:32:42.001Z</time></trkpt><trkpt lat="14.936497817337791" lon="120.79233915678637"><ele>6.0</ele><time>2026-03-29T10:32:43.001Z</time></trkpt><trkpt lat="14.936327397504817" lon="120.79248520439445"><ele>6.0</ele><time>2026-03-29T10:32:44.001Z</time></trkpt><trkpt lat="14.936155914517856" lon="120.79263161256002"><ele>6.0</ele><time>2026-03-29T10:32:45.001Z</time></trkpt><trkpt lat="14.935984716670077" lon="120.79277979139907"><ele>6.0</ele><time>2026-03-29T10:32:46.001Z</time></trkpt><trkpt lat="14.935813598558354" lon="120.79292824033759"><ele>5.333333333333333</ele><time>2026-03-29T10:32:47.001Z</time></trkpt><trkpt lat="14.935641571968429" lon="120.79307726395072"><ele>4.666666666666666</ele><time>2026-03-29T10:32:48.001Z</time></trkpt><trkpt lat="14.935470490188472" lon="120.79322631693717"><ele>4.0</ele><time>2026-03-29T10:32:49.001Z</time></trkpt><trkpt lat="14.935301661351826" lon="120.79337270936001"><ele>4.333333333333333</ele><time>2026-03-29T10:32:50.001Z</time></trkpt><trkpt lat="14.935134447860662" lon="120.79351910333911"><ele>4.666666666666667</ele><time>2026-03-29T10:32:51.001Z</time></trkpt><trkpt lat="14.934969093651542" lon="120.79366334264945"><ele>5.0</ele><time>2026-03-29T10:32:52.001Z</time></trkpt><trkpt lat="14.934806733163478" lon="120.79380532961373"><ele>5.666666666666667</ele><time>2026-03-29T10:32:53.001Z</time></trkpt><trkpt lat="14.934646798010819" lon="120.79394489737825"><ele>6.333333333333334</ele><time>2026-03-29T10:32:54.001Z</time></trkpt><trkpt lat="14.934490266373025" lon="120.79408307717196"><ele>7.0</ele><time>2026-03-29T10:32:55.001Z</time></trkpt><trkpt lat="14.93433619456143" lon="120.7942166444774"><ele>7.0</ele><time>2026-03-29T10:32:56.001Z</time></trkpt><trkpt lat="14.934184996983742" lon="120.79434705064146"><ele>7.0</ele><time>2026-03-29T10:32:57.001Z</time></trkpt><trkpt lat="14.934037305281644" lon="120.79447620066594"><ele>7.0</ele><time>2026-03-29T10:32:58.001Z</time></trkpt><trkpt lat="14.933892956028378" lon="120.79460351739256"><ele>7.0</ele><time>2026-03-29T10:32:59.001Z</time></trkpt><trkpt lat="14.933749683358919" lon="120.79472910715033"><ele>7.0</ele><time>2026-03-29T10:33:00.001Z</time></trkpt><trkpt lat="14.933611996880176" lon="120.79485166972937"><ele>7.0</ele><time>2026-03-29T10:33:01.001Z</time></trkpt><trkpt lat="14.933474336546338" lon="120.79497438587906"><ele>6.666666666666667</ele><time>2026-03-29T10:33:02.001Z</time></trkpt><trkpt lat="14.933338270849038" lon="120.79509318722725"><ele>6.333333333333334</ele><time>2026-03-29T10:33:03.001Z</time></trkpt><trkpt lat="14.93320292698606" lon="120.79521042914723"><ele>6.0</ele><time>2026-03-29T10:33:04.001Z</time></trkpt><trkpt lat="14.93307040396418" lon="120.79532722936693"><ele>5.666666666666667</ele><time>2026-03-29T10:33:05.001Z</time></trkpt><trkpt lat="14.932940653461062" lon="120.79544224749208"><ele>5.333333333333334</ele><time>2026-03-29T10:33:06.001Z</time></trkpt><trkpt lat="14.932813716165377" lon="120.79555404854223"><ele>5.0</ele><time>2026-03-29T10:33:07.001Z</time></trkpt><trkpt lat="14.93268930986817" lon="120.79566375053237"><ele>5.0</ele><time>2026-03-29T10:33:08.001Z</time></trkpt><trkpt lat="14.93256545562507" lon="120.79577257815146"><ele>5.0</ele><time>2026-03-29T10:33:09.001Z</time></trkpt><trkpt lat="14.932439494289758" lon="120.7958829734905"><ele>5.0</ele><time>2026-03-29T10:33:10.001Z</time></trkpt><trkpt lat="14.932312287056629" lon="120.79599625427058"><ele>5.333333333333334</ele><time>2026-03-29T10:33:11.001Z</time></trkpt><trkpt lat="14.932183684413946" lon="120.79610957043231"><ele>5.666666666666667</ele><time>2026-03-29T10:33:12.001Z</time></trkpt><trkpt lat="14.932051138913371" lon="120.7962256508641"><ele>6.0</ele><time>2026-03-29T10:33:13.001Z</time></trkpt><trkpt lat="14.931913570921138" lon="120.79634574942502"><ele>6.0</ele><time>2026-03-29T10:33:14.001Z</time></trkpt><trkpt lat="14.931774161755545" lon="120.79646958987354"><ele>6.0</ele><time>2026-03-29T10:33:15.001Z</time></trkpt><trkpt lat="14.931636869504151" lon="120.79659319178445"><ele>6.0</ele><time>2026-03-29T10:33:16.001Z</time></trkpt><trkpt lat="14.93149918500415" lon="120.79671910811302"><ele>6.0</ele><time>2026-03-29T10:33:17.001Z</time></trkpt><trkpt lat="14.931358016647676" lon="120.79684856262487"><ele>6.0</ele><time>2026-03-29T10:33:18.001Z</time></trkpt><trkpt lat="14.931212231644091" lon="120.79698070718545"><ele>6.0</ele><time>2026-03-29T10:33:19.001Z</time></trkpt><trkpt lat="14.931061842318396" lon="120.79711260559577"><ele>6.0</ele><time>2026-03-29T10:33:20.001Z</time></trkpt><trkpt lat="14.930912995706198" lon="120.79724845386141"><ele>6.0</ele><time>2026-03-29T10:33:21.001Z</time></trkpt><trkpt lat="14.930766059432148" lon="120.79738268083484"><ele>6.0</ele><time>2026-03-29T10:33:22.001Z</time></trkpt><trkpt lat="14.930616841578658" lon="120.79751579852527"><ele>6.0</ele><time>2026-03-29T10:33:23.001Z</time></trkpt><trkpt lat="14.930467799377013" lon="120.79764813290923"><ele>6.0</ele><time>2026-03-29T10:33:24.001Z</time></trkpt><trkpt lat="14.930318362960534" lon="120.7977785995606"><ele>6.0</ele><time>2026-03-29T10:33:25.001Z</time></trkpt><trkpt lat="14.930169333686594" lon="120.79790844367062"><ele>5.666666666666667</ele><time>2026-03-29T10:33:26.001Z</time></trkpt><trkpt lat="14.93002140831058" lon="120.79803617010285"><ele>5.333333333333334</ele><time>2026-03-29T10:33:27.001Z</time></trkpt><trkpt lat="14.929876730110388" lon="120.7981631558494"><ele>5.0</ele><time>2026-03-29T10:33:28.001Z</time></trkpt><trkpt lat="14.929734265066818" lon="120.7982882969324"><ele>5.0</ele><time>2026-03-29T10:33:29.001Z</time></trkpt><trkpt lat="14.929591605743708" lon="120.79841496430602"><ele>5.0</ele><time>2026-03-29T10:33:30.001Z</time></trkpt><trkpt lat="14.929446977961511" lon="120.79854028822082"><ele>5.0</ele><time>2026-03-29T10:33:31.001Z</time></trkpt><trkpt lat="14.929302817669377" lon="120.79866710473169"><ele>5.0</ele><time>2026-03-29T10:33:32.001Z</time></trkpt><trkpt lat="14.929159899966653" lon="120.79879253469112"><ele>5.0</ele><time>2026-03-29T10:33:33.001Z</time></trkpt><trkpt lat="14.929016545973697" lon="120.79891694493797"><ele>5.0</ele><time>2026-03-29T10:33:34.001Z</time></trkpt><trkpt lat="14.928875109955547" lon="120.79904045907654"><ele>5.0</ele><time>2026-03-29T10:33:35.001Z</time></trkpt><trkpt lat="14.928733055514915" lon="120.79916395252488"><ele>5.0</ele><time>2026-03-29T10:33:36.001Z</time></trkpt><trkpt lat="14.928592512627983" lon="120.79928661007978"><ele>5.0</ele><time>2026-03-29T10:33:37.001Z</time></trkpt><trkpt lat="14.928452525030737" lon="120.79941015324808"><ele>4.333333333333334</ele><time>2026-03-29T10:33:38.001Z</time></trkpt><trkpt lat="14.928311711642353" lon="120.79953347866547"><ele>3.666666666666667</ele><time>2026-03-29T10:33:39.001Z</time></trkpt><trkpt lat="14.92817204977478" lon="120.7996554095368"><ele>3.0</ele><time>2026-03-29T10:33:40.001Z</time></trkpt><trkpt lat="14.928030829769202" lon="120.79978143011746"><ele>3.0</ele><time>2026-03-29T10:33:41.001Z</time></trkpt><trkpt lat="14.927889740956735" lon="120.79990583797031"><ele>3.0</ele><time>2026-03-29T10:33:42.001Z</time></trkpt><trkpt lat="14.927748152471041" lon="120.80003038830968"><ele>3.0</ele><time>2026-03-29T10:33:43.001Z</time></trkpt><trkpt lat="14.927605495203448" lon="120.80015489375319"><ele>3.333333333333333</ele><time>2026-03-29T10:33:44.001Z</time></trkpt><trkpt lat="14.927462940208015" lon="120.8002808474864"><ele>3.6666666666666665</ele><time>2026-03-29T10:33:45.001Z</time></trkpt><trkpt lat="14.927320050245815" lon="120.80040677923984"><ele>4.0</ele><time>2026-03-29T10:33:46.001Z</time></trkpt><trkpt lat="14.927176448995931" lon="120.80053093299236"><ele>4.0</ele><time>2026-03-29T10:33:47.001Z</time></trkpt><trkpt lat="14.927033909410731" lon="120.80065424725589"><ele>4.0</ele><time>2026-03-29T10:33:48.001Z</time></trkpt><trkpt lat="14.92689316600413" lon="120.80077721004575"><ele>4.0</ele><time>2026-03-29T10:33:49.001Z</time></trkpt><trkpt lat="14.926753651479906" lon="120.80089969727368"><ele>4.333333333333333</ele><time>2026-03-29T10:33:50.001Z</time></trkpt><trkpt lat="14.926616076449672" lon="120.80102063777859"><ele>4.666666666666667</ele><time>2026-03-29T10:33:51.001Z</time></trkpt><trkpt lat="14.926479215170296" lon="120.80113950108246"><ele>5.0</ele><time>2026-03-29T10:33:52.001Z</time></trkpt><trkpt lat="14.926344239141056" lon="120.801256348348"><ele>5.0</ele><time>2026-03-29T10:33:53.001Z</time></trkpt><trkpt lat="14.926210472774102" lon="120.8013748103345"><ele>5.0</ele><time>2026-03-29T10:33:54.001Z</time></trkpt><trkpt lat="14.926076268493699" lon="120.80149390663657"><ele>5.0</ele><time>2026-03-29T10:33:55.001Z</time></trkpt><trkpt lat="14.925939571104404" lon="120.80161037299507"><ele>5.333333333333334</ele><time>2026-03-29T10:33:56.001Z</time></trkpt><trkpt lat="14.925803713513666" lon="120.80172913689526"><ele>5.666666666666667</ele><time>2026-03-29T10:33:57.001Z</time></trkpt><trkpt lat="14.92566802022154" lon="120.80184926832867"><ele>6.0</ele><time>2026-03-29T10:33:58.001Z</time></trkpt><trkpt lat="14.925530594051112" lon="120.80197101930459"><ele>6.0</ele><time>2026-03-29T10:33:59.001Z</time></trkpt><trkpt lat="14.925393293190355" lon="120.80209309839903"><ele>6.0</ele><time>2026-03-29T10:34:00.001Z</time></trkpt><trkpt lat="14.925251380028964" lon="120.80221707745903"><ele>6.0</ele><time>2026-03-29T10:34:01.001Z</time></trkpt><trkpt lat="14.92511175083323" lon="120.80233993007025"><ele>6.333333333333334</ele><time>2026-03-29T10:34:02.001Z</time></trkpt><trkpt lat="14.924969122315726" lon="120.8024670402086"><ele>6.666666666666667</ele><time>2026-03-29T10:34:03.001Z</time></trkpt><trkpt lat="14.92482398920898" lon="120.80259405872616"><ele>7.0</ele><time>2026-03-29T10:34:04.001Z</time></trkpt><trkpt lat="14.924678089419157" lon="120.80272149169198"><ele>7.0</ele><time>2026-03-29T10:34:05Z</time></trkpt><trkpt lat="14.9245327092346" lon="120.80284845957402"><ele>7.0</ele><time>2026-03-29T10:34:06Z</time></trkpt><trkpt lat="14.924388737609863" lon="120.80297526659163"><ele>7.0</ele><time>2026-03-29T10:34:07Z</time></trkpt><trkpt lat="14.924245298122655" lon="120.803100905345"><ele>7.0</ele><time>2026-03-29T10:34:08Z</time></trkpt><trkpt lat="14.924103926760155" lon="120.80322486621588"><ele>7.0</ele><time>2026-03-29T10:34:09Z</time></trkpt><trkpt lat="14.923965032816742" lon="120.803348880094"><ele>7.0</ele><time>2026-03-29T10:34:10Z</time></trkpt><trkpt lat="14.923825499810432" lon="120.80347037463598"><ele>6.666666666666667</ele><time>2026-03-29T10:34:11Z</time></trkpt><trkpt lat="14.92368659978853" lon="120.8035893971926"><ele>6.333333333333334</ele><time>2026-03-29T10:34:12Z</time></trkpt><trkpt lat="14.923550882484083" lon="120.803708173957"><ele>6.0</ele><time>2026-03-29T10:34:13Z</time></trkpt><trkpt lat="14.92341717169853" lon="120.8038246931037"><ele>6.666666666666666</ele><time>2026-03-29T10:34:14Z</time></trkpt><trkpt lat="14.923285266497954" lon="120.80394131860751"><ele>7.333333333333333</ele><time>2026-03-29T10:34:15Z</time></trkpt><trkpt lat="14.923153326429134" lon="120.80405666913072"><ele>8.0</ele><time>2026-03-29T10:34:16Z</time></trkpt><trkpt lat="14.923021589729775" lon="120.80417301414366"><ele>8.0</ele><time>2026-03-29T10:34:17Z</time></trkpt><trkpt lat="14.922890152758582" lon="120.804288150748"><ele>8.0</ele><time>2026-03-29T10:34:18Z</time></trkpt><trkpt lat="14.922757163764027" lon="120.80440419221425"><ele>8.0</ele><time>2026-03-29T10:34:19Z</time></trkpt><trkpt lat="14.922624099136014" lon="120.8045204587502"><ele>7.0</ele><time>2026-03-29T10:34:20Z</time></trkpt><trkpt lat="14.922491304357582" lon="120.80463814366931"><ele>6.0</ele><time>2026-03-29T10:34:21Z</time></trkpt><trkpt lat="14.922358683650865" lon="120.80475342568535"><ele>5.0</ele><time>2026-03-29T10:34:22Z</time></trkpt><trkpt lat="14.92222645452685" lon="120.80487084316819"><ele>5.0</ele><time>2026-03-29T10:34:23Z</time></trkpt><trkpt lat="14.92209267484048" lon="120.80498659893418"><ele>5.0</ele><time>2026-03-29T10:34:24Z</time></trkpt><trkpt lat="14.92196020244344" lon="120.80510343518458"><ele>5.0</ele><time>2026-03-29T10:34:25Z</time></trkpt><trkpt lat="14.921827250386198" lon="120.805217847312"><ele>5.333333333333334</ele><time>2026-03-29T10:34:26Z</time></trkpt><trkpt lat="14.921695164824957" lon="120.80533516333718"><ele>5.666666666666667</ele><time>2026-03-29T10:34:27Z</time></trkpt><trkpt lat="14.92156285505138" lon="120.80545139492125"><ele>6.0</ele><time>2026-03-29T10:34:28Z</time></trkpt><trkpt lat="14.921432882127036" lon="120.8055674241548"><ele>6.0</ele><time>2026-03-29T10:34:29Z</time></trkpt><trkpt lat="14.921301409837517" lon="120.80568298938046"><ele>6.0</ele><time>2026-03-29T10:34:30Z</time></trkpt><trkpt lat="14.921168863443679" lon="120.8057969959618"><ele>6.0</ele><time>2026-03-29T10:34:31Z</time></trkpt><trkpt lat="14.921036856039766" lon="120.80591274597097"><ele>6.333333333333334</ele><time>2026-03-29T10:34:32Z</time></trkpt><trkpt lat="14.920905183163905" lon="120.80602863075983"><ele>6.666666666666667</ele><time>2026-03-29T10:34:33Z</time></trkpt><trkpt lat="14.920777707898988" lon="120.80614219546369"><ele>7.0</ele><time>2026-03-29T10:34:34Z</time></trkpt><trkpt lat="14.920649007114113" lon="120.80625171790241"><ele>7.0</ele><time>2026-03-29T10:34:35Z</time></trkpt><trkpt lat="14.920524429644646" lon="120.80635961258659"><ele>7.0</ele><time>2026-03-29T10:34:36Z</time></trkpt><trkpt lat="14.92040176110861" lon="120.80646529123473"><ele>7.0</ele><time>2026-03-29T10:34:37.001Z</time></trkpt><trkpt lat="14.920281852244713" lon="120.80656881223564"><ele>7.0</ele><time>2026-03-29T10:34:38.001Z</time></trkpt><trkpt lat="14.920165074305261" lon="120.80667206785155"><ele>7.0</ele><time>2026-03-29T10:34:39.001Z</time></trkpt><trkpt lat="14.920048558971356" lon="120.80677255791295"><ele>7.0</ele><time>2026-03-29T10:34:40.001Z</time></trkpt><trkpt lat="14.91993399755696" lon="120.80687329212208"><ele>7.25</ele><time>2026-03-29T10:34:41.001Z</time></trkpt><trkpt lat="14.919820856248847" lon="120.8069722292066"><ele>7.5</ele><time>2026-03-29T10:34:42.001Z</time></trkpt><trkpt lat="14.919706702670734" lon="120.80707126561173"><ele>7.75</ele><time>2026-03-29T10:34:43.001Z</time></trkpt><trkpt lat="14.919592453760691" lon="120.80716945695433"><ele>8.0</ele><time>2026-03-29T10:34:44.001Z</time></trkpt><trkpt lat="14.919480886834611" lon="120.80726711426614"><ele>8.0</ele><time>2026-03-29T10:34:45.001Z</time></trkpt><trkpt lat="14.919370959390468" lon="120.8073633564581"><ele>8.0</ele><time>2026-03-29T10:34:46.001Z</time></trkpt><trkpt lat="14.919261426851342" lon="120.80745778353909"><ele>8.0</ele><time>2026-03-29T10:34:47.001Z</time></trkpt><trkpt lat="14.9191498579608" lon="120.80755086282493"><ele>8.0</ele><time>2026-03-29T10:34:48.001Z</time></trkpt><trkpt lat="14.919037540376355" lon="120.80764147336079"><ele>8.25</ele><time>2026-03-29T10:34:49.001Z</time></trkpt><trkpt lat="14.918926188765818" lon="120.80773496895063"><ele>8.5</ele><time>2026-03-29T10:34:50.001Z</time></trkpt><trkpt lat="14.918812180195227" lon="120.80782615727344"><ele>8.75</ele><time>2026-03-29T10:34:51.001Z</time></trkpt><trkpt lat="14.918697787848817" lon="120.80791695384661"><ele>9.0</ele><time>2026-03-29T10:34:52.001Z</time></trkpt><trkpt lat="14.918582114668187" lon="120.8080095881233"><ele>9.0</ele><time>2026-03-29T10:34:53.001Z</time></trkpt><trkpt lat="14.918464296106787" lon="120.80810220887479"><ele>9.0</ele><time>2026-03-29T10:34:54.001Z</time></trkpt><trkpt lat="14.918345300834904" lon="120.80819721788598"><ele>9.0</ele><time>2026-03-29T10:34:55.001Z</time></trkpt><trkpt lat="14.918224530433505" lon="120.80829355499884"><ele>9.666666666666666</ele><time>2026-03-29T10:34:56.001Z</time></trkpt><trkpt lat="14.918105672432004" lon="120.8083914373094"><ele>10.333333333333332</ele><time>2026-03-29T10:34:57.001Z</time></trkpt><trkpt lat="14.917985927173202" lon="120.80849103886563"><ele>11.0</ele><time>2026-03-29T10:34:58.001Z</time></trkpt><trkpt lat="14.9178656375927" lon="120.8085911526373"><ele>10.333333333333332</ele><time>2026-03-29T10:34:59.001Z</time></trkpt><trkpt lat="14.917744409735231" lon="120.80869242884349"><ele>9.666666666666666</ele><time>2026-03-29T10:35:00.001Z</time></trkpt><trkpt lat="14.917623576830296" lon="120.80879702444857"><ele>9.0</ele><time>2026-03-29T10:35:01.001Z</time></trkpt><trkpt lat="14.917500933198127" lon="120.80890138671117"><ele>9.0</ele><time>2026-03-29T10:35:02.001Z</time></trkpt><trkpt lat="14.917351673781841" lon="120.808976588391"><ele>9.0</ele><time>2026-03-29T10:35:03.001Z</time></trkpt><trkpt lat="14.9172532177489" lon="120.80911514666823"><ele>9.0</ele><time>2026-03-29T10:35:04.001Z</time></trkpt><trkpt lat="14.917128483965811" lon="120.80922291285867"><ele>8.0</ele><time>2026-03-29T10:35:05.001Z</time></trkpt><trkpt lat="14.917002477565692" lon="120.80933294870422"><ele>7.0</ele><time>2026-03-29T10:35:06.001Z</time></trkpt><trkpt lat="14.916874008930575" lon="120.8094453349733"><ele>6.0</ele><time>2026-03-29T10:35:07.001Z</time></trkpt><trkpt lat="14.916744248115343" lon="120.80956016632777"><ele>6.333333333333334</ele><time>2026-03-29T10:35:08.001Z</time></trkpt><trkpt lat="14.916611258983385" lon="120.80967739935437"><ele>6.666666666666667</ele><time>2026-03-29T10:35:09.001Z</time></trkpt><trkpt lat="14.916476328610605" lon="120.80979679243454"><ele>7.0</ele><time>2026-03-29T10:35:10.001Z</time></trkpt><trkpt lat="14.916338719838524" lon="120.80991737582409"><ele>7.0</ele><time>2026-03-29T10:35:11.001Z</time></trkpt><trkpt lat="14.916199468129307" lon="120.81003899739906"><ele>7.0</ele><time>2026-03-29T10:35:12.001Z</time></trkpt><trkpt lat="14.91606024999685" lon="120.81016190121271"><ele>7.0</ele><time>2026-03-29T10:35:13.001Z</time></trkpt><trkpt lat="14.915920433688356" lon="120.81028204952942"><ele>7.333333333333334</ele><time>2026-03-29T10:35:14.001Z</time></trkpt><trkpt lat="14.915783099250747" lon="120.81040154770312"><ele>7.666666666666666</ele><time>2026-03-29T10:35:15.001Z</time></trkpt><trkpt lat="14.915646892235689" lon="120.81051882806153"><ele>8.0</ele><time>2026-03-29T10:35:16.001Z</time></trkpt><trkpt lat="14.915513480741978" lon="120.81063460583033"><ele>8.0</ele><time>2026-03-29T10:35:17.001Z</time></trkpt><trkpt lat="14.915381286946362" lon="120.81074973074277"><ele>8.0</ele><time>2026-03-29T10:35:18.001Z</time></trkpt><trkpt lat="14.91524980536644" lon="120.81086692345228"><ele>8.0</ele><time>2026-03-29T10:35:19.001Z</time></trkpt><trkpt lat="14.915121038425276" lon="120.81098680127592"><ele>8.0</ele><time>2026-03-29T10:35:20.001Z</time></trkpt><trkpt lat="14.914989578229836" lon="120.81110089543596"><ele>8.0</ele><time>2026-03-29T10:35:21.001Z</time></trkpt><trkpt lat="14.914858968074101" lon="120.8112133140921"><ele>8.0</ele><time>2026-03-29T10:35:22.001Z</time></trkpt><trkpt lat="14.91473081523114" lon="120.81132523318549"><ele>8.0</ele><time>2026-03-29T10:35:23.001Z</time></trkpt><trkpt lat="14.914604794562894" lon="120.81143616986179"><ele>8.0</ele><time>2026-03-29T10:35:24.001Z</time></trkpt><trkpt lat="14.91448228626615" lon="120.81154281761943"><ele>8.0</ele><time>2026-03-29T10:35:25.001Z</time></trkpt><trkpt lat="14.914365035199001" lon="120.81164441342456"><ele>8.0</ele><time>2026-03-29T10:35:26.001Z</time></trkpt><trkpt lat="14.914252074887052" lon="120.81174339102843"><ele>8.0</ele><time>2026-03-29T10:35:27.001Z</time></trkpt><trkpt lat="14.914141119012987" lon="120.81184146239062"><ele>8.0</ele><time>2026-03-29T10:35:28.001Z</time></trkpt><trkpt lat="14.914032141817021" lon="120.81193558054396"><ele>8.0</ele><time>2026-03-29T10:35:29.001Z</time></trkpt><trkpt lat="14.913929701400544" lon="120.81202698309036"><ele>8.0</ele><time>2026-03-29T10:35:30.001Z</time></trkpt><trkpt lat="14.913830897358654" lon="120.81211356194308"><ele>8.0</ele><time>2026-03-29T10:35:31.001Z</time></trkpt><trkpt lat="14.91373482954486" lon="120.81219817992041"><ele>8.0</ele><time>2026-03-29T10:35:32.001Z</time></trkpt><trkpt lat="14.913638705458116" lon="120.81228022501973"><ele>8.0</ele><time>2026-03-29T10:35:33.001Z</time></trkpt><trkpt lat="14.913540384720305" lon="120.8123660948182"><ele>8.0</ele><time>2026-03-29T10:35:34.001Z</time></trkpt><trkpt lat="14.913440658951412" lon="120.81245583974784"><ele>8.0</ele><time>2026-03-29T10:35:35.001Z</time></trkpt><trkpt lat="14.91333688654768" lon="120.81254655839989"><ele>8.0</ele><time>2026-03-29T10:35:36.001Z</time></trkpt><trkpt lat="14.913231806489842" lon="120.8126412246111"><ele>8.0</ele><time>2026-03-29T10:35:37.001Z</time></trkpt><trkpt lat="14.91312529090953" lon="120.81273561122303"><ele>7.75</ele><time>2026-03-29T10:35:38.001Z</time></trkpt><trkpt lat="14.9130166002817" lon="120.81283169230089"><ele>7.5</ele><time>2026-03-29T10:35:39.001Z</time></trkpt><trkpt lat="14.912906516050294" lon="120.81292834362742"><ele>7.25</ele><time>2026-03-29T10:35:40.001Z</time></trkpt><trkpt lat="14.912795536275517" lon="120.81302534906982"><ele>7.0</ele><time>2026-03-29T10:35:41.001Z</time></trkpt><trkpt lat="14.912685483859836" lon="120.81312157823679"><ele>7.0</ele><time>2026-03-29T10:35:42.001Z</time></trkpt><trkpt lat="14.912576865135348" lon="120.81321610214233"><ele>7.0</ele><time>2026-03-29T10:35:43.001Z</time></trkpt><trkpt lat="14.912466904385735" lon="120.81331269425161"><ele>7.0</ele><time>2026-03-29T10:35:44.001Z</time></trkpt><trkpt lat="14.912356188128154" lon="120.8134109518924"><ele>7.0</ele><time>2026-03-29T10:35:45.001Z</time></trkpt><trkpt lat="14.912244908420089" lon="120.81350813630188"><ele>6.75</ele><time>2026-03-29T10:35:46.001Z</time></trkpt><trkpt lat="14.912133690267842" lon="120.8136093514142"><ele>6.5</ele><time>2026-03-29T10:35:47.001Z</time></trkpt><trkpt lat="14.912021483653831" lon="120.81370803089952"><ele>6.25</ele><time>2026-03-29T10:35:48.001Z</time></trkpt><trkpt lat="14.91190822825343" lon="120.81381011494013"><ele>6.0</ele><time>2026-03-29T10:35:49.001Z</time></trkpt><trkpt lat="14.911797265250396" lon="120.81390961239423"><ele>7.0</ele><time>2026-03-29T10:35:50.001Z</time></trkpt><trkpt lat="14.91168698880207" lon="120.81400620349932"><ele>8.0</ele><time>2026-03-29T10:35:51.001Z</time></trkpt><trkpt lat="14.911578885201115" lon="120.81409893369374"><ele>9.0</ele><time>2026-03-29T10:35:52.001Z</time></trkpt><trkpt lat="14.911473144948836" lon="120.81418823739219"><ele>10.0</ele><time>2026-03-29T10:35:53.001Z</time></trkpt><trkpt lat="14.911367538020832" lon="120.81427995515966"><ele>9.5</ele><time>2026-03-29T10:35:54.001Z</time></trkpt><trkpt lat="14.911260814012959" lon="120.81437313121886"><ele>9.0</ele><time>2026-03-29T10:35:55.001Z</time></trkpt><trkpt lat="14.911152849749776" lon="120.81446667636978"><ele>8.5</ele><time>2026-03-29T10:35:56.001Z</time></trkpt><trkpt lat="14.91104566679222" lon="120.81455986910619"><ele>8.0</ele><time>2026-03-29T10:35:57.001Z</time></trkpt><trkpt lat="14.91093883773449" lon="120.81465331182473"><ele>8.5</ele><time>2026-03-29T10:35:58.001Z</time></trkpt><trkpt lat="14.910831002026502" lon="120.81474801005746"><ele>9.0</ele><time>2026-03-29T10:35:59.001Z</time></trkpt><trkpt lat="14.910720896675205" lon="120.81484504385615"><ele>9.5</ele><time>2026-03-29T10:36:00.001Z</time></trkpt><trkpt lat="14.910609246813761" lon="120.81494285246447"><ele>10.0</ele><time>2026-03-29T10:36:01Z</time></trkpt><trkpt lat="14.910495336177497" lon="120.81504181564706"><ele>10.0</ele><time>2026-03-29T10:36:02Z</time></trkpt><trkpt lat="14.910380892543202" lon="120.81514188463942"><ele>10.0</ele><time>2026-03-29T10:36:03Z</time></trkpt><trkpt lat="14.910265706886108" lon="120.81524312874932"><ele>10.0</ele><time>2026-03-29T10:36:04Z</time></trkpt><trkpt lat="14.91015389562508" lon="120.81534185898148"><ele>10.0</ele><time>2026-03-29T10:36:05Z</time></trkpt><trkpt lat="14.910044235198855" lon="120.81543928645307"><ele>10.25</ele><time>2026-03-29T10:36:06Z</time></trkpt><trkpt lat="14.90993578160703" lon="120.81553469793677"><ele>10.5</ele><time>2026-03-29T10:36:07Z</time></trkpt><trkpt lat="14.909828596010588" lon="120.815628958869"><ele>10.75</ele><time>2026-03-29T10:36:08Z</time></trkpt><trkpt lat="14.909723430833488" lon="120.81571977505742"><ele>11.0</ele><time>2026-03-29T10:36:09Z</time></trkpt><trkpt lat="14.9096169058942" lon="120.8158117015117"><ele>11.0</ele><time>2026-03-29T10:36:10Z</time></trkpt><trkpt lat="14.909508880224408" lon="120.81590496129742"><ele>11.0</ele><time>2026-03-29T10:36:11Z</time></trkpt><trkpt lat="14.909399330531631" lon="120.81599986990577"><ele>11.0</ele><time>2026-03-29T10:36:12Z</time></trkpt><trkpt lat="14.909286055610302" lon="120.81609666019038"><ele>11.0</ele><time>2026-03-29T10:36:13Z</time></trkpt><trkpt lat="14.909172349362619" lon="120.81619701299057"><ele>11.0</ele><time>2026-03-29T10:36:14Z</time></trkpt><trkpt lat="14.90905569018766" lon="120.81630088689214"><ele>11.0</ele><time>2026-03-29T10:36:15Z</time></trkpt><trkpt lat="14.908935659835475" lon="120.81640812155946"><ele>11.0</ele><time>2026-03-29T10:36:16Z</time></trkpt><trkpt lat="14.908811712550422" lon="120.81651682411332"><ele>11.0</ele><time>2026-03-29T10:36:17Z</time></trkpt><trkpt lat="14.908685576931626" lon="120.8166264844579"><ele>11.0</ele><time>2026-03-29T10:36:18Z</time></trkpt><trkpt lat="14.908558216013862" lon="120.81673775107627"><ele>11.0</ele><time>2026-03-29T10:36:19Z</time></trkpt><trkpt lat="14.908430356806349" lon="120.81684786820689"><ele>11.666666666666666</ele><time>2026-03-29T10:36:20Z</time></trkpt><trkpt lat="14.90830123303013" lon="120.81696044494714"><ele>12.333333333333332</ele><time>2026-03-29T10:36:21Z</time></trkpt><trkpt lat="14.908172005619058" lon="120.81707398941033"><ele>13.0</ele><time>2026-03-29T10:36:22Z</time></trkpt><trkpt lat="14.908040485575059" lon="120.81719059795023"><ele>13.0</ele><time>2026-03-29T10:36:23Z</time></trkpt><trkpt lat="14.907905858311407" lon="120.81730929328883"><ele>13.0</ele><time>2026-03-29T10:36:24Z</time></trkpt><trkpt lat="14.90777133258158" lon="120.81742671693205"><ele>13.0</ele><time>2026-03-29T10:36:25Z</time></trkpt><trkpt lat="14.907637425469211" lon="120.81754420696547"><ele>12.666666666666666</ele><time>2026-03-29T10:36:26Z</time></trkpt><trkpt lat="14.907505369578764" lon="120.81766010295982"><ele>12.333333333333332</ele><time>2026-03-29T10:36:27Z</time></trkpt><trkpt lat="14.90737582625574" lon="120.81777387007253"><ele>12.0</ele><time>2026-03-29T10:36:28Z</time></trkpt><trkpt lat="14.907247972192767" lon="120.81788651559138"><ele>12.0</ele><time>2026-03-29T10:36:29Z</time></trkpt><trkpt lat="14.907120156604206" lon="120.81799863367195"><ele>12.0</ele><time>2026-03-29T10:36:30Z</time></trkpt><trkpt lat="14.906991105091935" lon="120.81811308665306"><ele>12.0</ele><time>2026-03-29T10:36:31Z</time></trkpt><trkpt lat="14.906858512794726" lon="120.81822895786166"><ele>12.666666666666668</ele><time>2026-03-29T10:36:32Z</time></trkpt><trkpt lat="14.906724968921468" lon="120.81834626287235"><ele>13.333333333333334</ele><time>2026-03-29T10:36:33Z</time></trkpt><trkpt lat="14.90658891027568" lon="120.81846404792798"><ele>14.0</ele><time>2026-03-29T10:36:34Z</time></trkpt><trkpt lat="14.906452474497684" lon="120.81858460042483"><ele>12.666666666666668</ele><time>2026-03-29T10:36:35Z</time></trkpt><trkpt lat="14.906316243559878" lon="120.81870515995122"><ele>11.333333333333334</ele><time>2026-03-29T10:36:36Z</time></trkpt><trkpt lat="14.906182541011264" lon="120.81882302092262"><ele>10.0</ele><time>2026-03-29T10:36:37Z</time></trkpt><trkpt lat="14.906049429608814" lon="120.81893862399286"><ele>10.0</ele><time>2026-03-29T10:36:38Z</time></trkpt><trkpt lat="14.905918446710642" lon="120.81905195521492"><ele>10.0</ele><time>2026-03-29T10:36:39Z</time></trkpt><trkpt lat="14.905786543830468" lon="120.81916681774959"><ele>10.0</ele><time>2026-03-29T10:36:40Z</time></trkpt><trkpt lat="14.905654475159077" lon="120.81928256838205"><ele>9.333333333333334</ele><time>2026-03-29T10:36:41Z</time></trkpt><trkpt lat="14.905521062557826" lon="120.81939881637045"><ele>8.666666666666666</ele><time>2026-03-29T10:36:42Z</time></trkpt><trkpt lat="14.905386326000269" lon="120.81951559090248"><ele>8.0</ele><time>2026-03-29T10:36:43Z</time></trkpt><trkpt lat="14.905252996170205" lon="120.81963394225873"><ele>8.0</ele><time>2026-03-29T10:36:44Z</time></trkpt><trkpt lat="14.905118583332065" lon="120.81975109652419"><ele>8.0</ele><time>2026-03-29T10:36:45Z</time></trkpt><trkpt lat="14.904982067670407" lon="120.8198660329252"><ele>8.0</ele><time>2026-03-29T10:36:46Z</time></trkpt><trkpt lat="14.904843795848887" lon="120.81998045802098"><ele>9.0</ele><time>2026-03-29T10:36:47Z</time></trkpt><trkpt lat="14.904703624961474" lon="120.82009352720877"><ele>10.0</ele><time>2026-03-29T10:36:48Z</time></trkpt><trkpt lat="14.90456202862817" lon="120.82021049983707"><ele>11.0</ele><time>2026-03-29T10:36:49Z</time></trkpt><trkpt lat="14.904420763333386" lon="120.82032803733487"><ele>11.666666666666666</ele><time>2026-03-29T10:36:50Z</time></trkpt><trkpt lat="14.90428177831995" lon="120.82044418025586"><ele>12.333333333333332</ele><time>2026-03-29T10:36:51Z</time></trkpt><trkpt lat="14.904147168153983" lon="120.82056239643171"><ele>13.0</ele><time>2026-03-29T10:36:52Z</time></trkpt><trkpt lat="14.904014799864488" lon="120.82067719113437"><ele>13.0</ele><time>2026-03-29T10:36:53Z</time></trkpt><trkpt lat="14.90388224785002" lon="120.82079316295584"><ele>13.0</ele><time>2026-03-29T10:36:54Z</time></trkpt><trkpt lat="14.90375226927976" lon="120.82090773601867"><ele>13.0</ele><time>2026-03-29T10:36:55Z</time></trkpt><trkpt lat="14.903620291049018" lon="120.82102398869144"><ele>13.0</ele><time>2026-03-29T10:36:56Z</time></trkpt><trkpt lat="14.903488024628517" lon="120.8211390824953"><ele>13.0</ele><time>2026-03-29T10:36:57Z</time></trkpt><trkpt lat="14.903354716226689" lon="120.82125525044488"><ele>13.0</ele><time>2026-03-29T10:36:58Z</time></trkpt><trkpt lat="14.903221318428223" lon="120.82137152836137"><ele>10.666666666666666</ele><time>2026-03-29T10:36:59Z</time></trkpt><trkpt lat="14.90308873015073" lon="120.82148627812461"><ele>8.333333333333332</ele><time>2026-03-29T10:37:00Z</time></trkpt><trkpt lat="14.902955857638863" lon="120.82160219913432"><ele>6.0</ele><time>2026-03-29T10:37:01Z</time></trkpt><trkpt lat="14.902822772058272" lon="120.8217175688146"><ele>8.333333333333332</ele><time>2026-03-29T10:37:02Z</time></trkpt><trkpt lat="14.902688806220528" lon="120.82183542875062"><ele>10.666666666666666</ele><time>2026-03-29T10:37:03Z</time></trkpt><trkpt lat="14.902554598431172" lon="120.82195225162238"><ele>13.0</ele><time>2026-03-29T10:37:04Z</time></trkpt><trkpt lat="14.902421731863736" lon="120.82206917354769"><ele>14.0</ele><time>2026-03-29T10:37:05Z</time></trkpt><trkpt lat="14.90228749318828" lon="120.82218834122038"><ele>15.0</ele><time>2026-03-29T10:37:06Z</time></trkpt><trkpt lat="14.902152527994213" lon="120.8223089293205"><ele>16.0</ele><time>2026-03-29T10:37:07.001Z</time></trkpt><trkpt lat="14.902016461343143" lon="120.82243181859316"><ele>16.0</ele><time>2026-03-29T10:37:08.001Z</time></trkpt><trkpt lat="14.901880478608923" lon="120.82255662915792"><ele>16.0</ele><time>2026-03-29T10:37:09.001Z</time></trkpt><trkpt lat="14.901746137016522" lon="120.82268219918336"><ele>16.0</ele><time>2026-03-29T10:37:10.001Z</time></trkpt><trkpt lat="14.901612634403845" lon="120.82280711436606"><ele>16.0</ele><time>2026-03-29T10:37:11.001Z</time></trkpt><trkpt lat="14.901478032016461" lon="120.82293062114144"><ele>16.0</ele><time>2026-03-29T10:37:12.001Z</time></trkpt><trkpt lat="14.90134200944676" lon="120.82305294528429"><ele>16.0</ele><time>2026-03-29T10:37:13.001Z</time></trkpt><trkpt lat="14.901202934141386" lon="120.82317462271368"><ele>16.0</ele><time>2026-03-29T10:37:14.001Z</time></trkpt><trkpt lat="14.901063226353516" lon="120.82329827099342"><ele>16.0</ele><time>2026-03-29T10:37:15.001Z</time></trkpt><trkpt lat="14.900921669607955" lon="120.82342406822927"><ele>16.0</ele><time>2026-03-29T10:37:16.001Z</time></trkpt><trkpt lat="14.900778686783367" lon="120.82355051072962"><ele>16.333333333333332</ele><time>2026-03-29T10:37:17.001Z</time></trkpt><trkpt lat="14.900632300125658" lon="120.8236794782494"><ele>16.666666666666668</ele><time>2026-03-29T10:37:18.001Z</time></trkpt><trkpt lat="14.90048661912338" lon="120.82380854688125"><ele>17.0</ele><time>2026-03-29T10:37:19.001Z</time></trkpt><trkpt lat="14.900340552000355" lon="120.82393684358998"><ele>17.0</ele><time>2026-03-29T10:37:20.001Z</time></trkpt><trkpt lat="14.900194696699838" lon="120.82406622574703"><ele>17.0</ele><time>2026-03-29T10:37:21.001Z</time></trkpt><trkpt lat="14.900047651751509" lon="120.82419480158282"><ele>17.0</ele><time>2026-03-29T10:37:22.001Z</time></trkpt><trkpt lat="14.899898816337153" lon="120.8243245186062"><ele>16.333333333333336</ele><time>2026-03-29T10:37:23.001Z</time></trkpt><trkpt lat="14.899748465272948" lon="120.82445591707126"><ele>15.666666666666668</ele><time>2026-03-29T10:37:24.001Z</time></trkpt><trkpt lat="14.899596619519297" lon="120.8245879147751"><ele>15.0</ele><time>2026-03-29T10:37:25.001Z</time></trkpt><trkpt lat="14.899445064130324" lon="120.82472047451505"><ele>15.0</ele><time>2026-03-29T10:37:26.001Z</time></trkpt><trkpt lat="14.89929333498026" lon="120.82485346516219"><ele>15.0</ele><time>2026-03-29T10:37:27.001Z</time></trkpt><trkpt lat="14.89914198109267" lon="120.82498545791444"><ele>15.0</ele><time>2026-03-29T10:37:28.001Z</time></trkpt><trkpt lat="14.898991961069646" lon="120.82511841019766"><ele>14.0</ele><time>2026-03-29T10:37:29.001Z</time></trkpt><trkpt lat="14.898841579220752" lon="120.825248461645"><ele>13.0</ele><time>2026-03-29T10:37:30.001Z</time></trkpt><trkpt lat="14.89869255194549" lon="120.82537684623247"><ele>12.0</ele><time>2026-03-29T10:37:31.001Z</time></trkpt><trkpt lat="14.898545928718907" lon="120.82550441858682"><ele>12.333333333333332</ele><time>2026-03-29T10:37:32.001Z</time></trkpt><trkpt lat="14.898399875367556" lon="120.82563052497913"><ele>12.666666666666666</ele><time>2026-03-29T10:37:33.001Z</time></trkpt><trkpt lat="14.898256309653208" lon="120.82575458468739"><ele>13.0</ele><time>2026-03-29T10:37:34.001Z</time></trkpt><trkpt lat="14.898114359370803" lon="120.82587638376233"><ele>13.0</ele><time>2026-03-29T10:37:35.001Z</time></trkpt><trkpt lat="14.897973847370622" lon="120.82599774059706"><ele>13.0</ele><time>2026-03-29T10:37:36.001Z</time></trkpt><trkpt lat="14.897833456120305" lon="120.82611806071023"><ele>13.0</ele><time>2026-03-29T10:37:37.001Z</time></trkpt><trkpt lat="14.89769305638313" lon="120.82623850826164"><ele>12.666666666666666</ele><time>2026-03-29T10:37:38.001Z</time></trkpt><trkpt lat="14.897552447349806" lon="120.82635834079065"><ele>12.333333333333332</ele><time>2026-03-29T10:37:39.001Z</time></trkpt><trkpt lat="14.897411107203979" lon="120.82647832581493"><ele>12.0</ele><time>2026-03-29T10:37:40.001Z</time></trkpt><trkpt lat="14.89726874198701" lon="120.8265975608859"><ele>12.0</ele><time>2026-03-29T10:37:41.001Z</time></trkpt><trkpt lat="14.897124729750022" lon="120.82671716992486"><ele>12.0</ele><time>2026-03-29T10:37:42.001Z</time></trkpt><trkpt lat="14.89698321493714" lon="120.82683607937193"><ele>12.0</ele><time>2026-03-29T10:37:43.001Z</time></trkpt><trkpt lat="14.896842827987044" lon="120.8269509775018"><ele>11.0</ele><time>2026-03-29T10:37:44.001Z</time></trkpt><trkpt lat="14.896705747335965" lon="120.8270631220663"><ele>10.0</ele><time>2026-03-29T10:37:45.001Z</time></trkpt><trkpt lat="14.89657103641647" lon="120.82717347419809"><ele>9.0</ele><time>2026-03-29T10:37:46.001Z</time></trkpt><trkpt lat="14.89643851859054" lon="120.82728278161237"><ele>9.0</ele><time>2026-03-29T10:37:47.001Z</time></trkpt><trkpt lat="14.896306256754256" lon="120.82739121196278"><ele>9.0</ele><time>2026-03-29T10:37:48.001Z</time></trkpt><trkpt lat="14.896171669498054" lon="120.82750059509196"><ele>9.0</ele><time>2026-03-29T10:37:49.001Z</time></trkpt><trkpt lat="14.896036294763498" lon="120.82761060446906"><ele>10.333333333333332</ele><time>2026-03-29T10:37:50.001Z</time></trkpt><trkpt lat="14.89589906514894" lon="120.82772027332413"><ele>11.666666666666666</ele><time>2026-03-29T10:37:51.001Z</time></trkpt><trkpt lat="14.895759526593194" lon="120.8278306507372"><ele>13.0</ele><time>2026-03-29T10:37:52.001Z</time></trkpt><trkpt lat="14.895620235909147" lon="120.82794105059335"><ele>13.0</ele><time>2026-03-29T10:37:53.001Z</time></trkpt><trkpt lat="14.895477777527228" lon="120.82805367531515"><ele>13.0</ele><time>2026-03-29T10:37:54.001Z</time></trkpt><trkpt lat="14.895335241100101" lon="120.82816723932223"><ele>13.0</ele><time>2026-03-29T10:37:55.001Z</time></trkpt><trkpt lat="14.895189943924864" lon="120.82828068985204"><ele>13.333333333333332</ele><time>2026-03-29T10:37:56.001Z</time></trkpt><trkpt lat="14.895043808150938" lon="120.82839492361201"><ele>13.666666666666668</ele><time>2026-03-29T10:37:57.001Z</time></trkpt><trkpt lat="14.89489626406551" lon="120.82850894066436"><ele>14.0</ele><time>2026-03-29T10:37:58.001Z</time></trkpt><trkpt lat="14.894748133493133" lon="120.8286241366586"><ele>13.333333333333334</ele><time>2026-03-29T10:37:59.001Z</time></trkpt><trkpt lat="14.894600594273628" lon="120.82873759300769"><ele>12.666666666666668</ele><time>2026-03-29T10:38:00.001Z</time></trkpt><trkpt lat="14.894452145866012" lon="120.828851917022"><ele>12.0</ele><time>2026-03-29T10:38:01.001Z</time></trkpt><trkpt lat="14.894304054594455" lon="120.82896799010224"><ele>12.0</ele><time>2026-03-29T10:38:02.001Z</time></trkpt><trkpt lat="14.894155051780881" lon="120.82908365119091"><ele>12.0</ele><time>2026-03-29T10:38:03.001Z</time></trkpt><trkpt lat="14.89400420129865" lon="120.82919819232903"><ele>12.0</ele><time>2026-03-29T10:38:04.001Z</time></trkpt><trkpt lat="14.89385209119262" lon="120.82931220739091"><ele>12.0</ele><time>2026-03-29T10:38:05.001Z</time></trkpt><trkpt lat="14.893697587015378" lon="120.82942513290821"><ele>12.0</ele><time>2026-03-29T10:38:06.001Z</time></trkpt><trkpt lat="14.893545453709732" lon="120.82953863395097"><ele>12.0</ele><time>2026-03-29T10:38:07Z</time></trkpt><trkpt lat="14.893395338866007" lon="120.82965084915938"><ele>12.0</ele><time>2026-03-29T10:38:08Z</time></trkpt><trkpt lat="14.893247029534932" lon="120.82976141737909"><ele>12.0</ele><time>2026-03-29T10:38:09Z</time></trkpt><trkpt lat="14.893099753366027" lon="120.8298710230369"><ele>12.0</ele><time>2026-03-29T10:38:10Z</time></trkpt><trkpt lat="14.892951460925582" lon="120.82998016381283"><ele>12.0</ele><time>2026-03-29T10:38:11Z</time></trkpt><trkpt lat="14.892803242527792" lon="120.8300891984994"><ele>12.0</ele><time>2026-03-29T10:38:12Z</time></trkpt><trkpt lat="14.892651897044102" lon="120.8301973470925"><ele>12.0</ele><time>2026-03-29T10:38:13Z</time></trkpt><trkpt lat="14.89250022286007" lon="120.83030690942236"><ele>11.666666666666666</ele><time>2026-03-29T10:38:14Z</time></trkpt><trkpt lat="14.892348013909354" lon="120.83041652430735"><ele>11.333333333333332</ele><time>2026-03-29T10:38:15Z</time></trkpt><trkpt lat="14.89219453438656" lon="120.8305268926057"><ele>11.0</ele><time>2026-03-29T10:38:16Z</time></trkpt><trkpt lat="14.892041527686686" lon="120.83063617056861"><ele>11.0</ele><time>2026-03-29T10:38:17Z</time></trkpt><trkpt lat="14.89188643947371" lon="120.83074534463942"><ele>11.0</ele><time>2026-03-29T10:38:18Z</time></trkpt><trkpt lat="14.891731486524096" lon="120.8308546675111"><ele>11.0</ele><time>2026-03-29T10:38:19Z</time></trkpt><trkpt lat="14.891575329953739" lon="120.83096557968759"><ele>10.0</ele><time>2026-03-29T10:38:20Z</time></trkpt><trkpt lat="14.89141732064816" lon="120.8310765272732"><ele>9.0</ele><time>2026-03-29T10:38:21Z</time></trkpt><trkpt lat="14.891258193205774" lon="120.83118783568845"><ele>8.0</ele><time>2026-03-29T10:38:22Z</time></trkpt><trkpt lat="14.89109668523226" lon="120.83129913889259"><ele>8.0</ele><time>2026-03-29T10:38:23Z</time></trkpt><trkpt lat="14.890934439704655" lon="120.83141135544467"><ele>8.0</ele><time>2026-03-29T10:38:24Z</time></trkpt><trkpt lat="14.890771558257656" lon="120.8315238510141"><ele>8.0</ele><time>2026-03-29T10:38:25Z</time></trkpt><trkpt lat="14.890607354320338" lon="120.83163467125966"><ele>8.0</ele><time>2026-03-29T10:38:26Z</time></trkpt><trkpt lat="14.890442347871929" lon="120.8317468802853"><ele>8.0</ele><time>2026-03-29T10:38:27Z</time></trkpt><trkpt lat="14.890278366937302" lon="120.83185966131995"><ele>8.0</ele><time>2026-03-29T10:38:28Z</time></trkpt><trkpt lat="14.89011367967965" lon="120.8319709367722"><ele>8.333333333333332</ele><time>2026-03-29T10:38:29Z</time></trkpt><trkpt lat="14.889948388938617" lon="120.83208262705249"><ele>8.666666666666666</ele><time>2026-03-29T10:38:30Z</time></trkpt><trkpt lat="14.889782068535851" lon="120.83219271743732"><ele>9.0</ele><time>2026-03-29T10:38:31Z</time></trkpt><trkpt lat="14.889616704100952" lon="120.83230192776355"><ele>9.0</ele><time>2026-03-29T10:38:32Z</time></trkpt><trkpt lat="14.889453200311483" lon="120.83240827598121"><ele>9.0</ele><time>2026-03-29T10:38:33Z</time></trkpt><trkpt lat="14.889289244630897" lon="120.83251363511712"><ele>9.0</ele><time>2026-03-29T10:38:34Z</time></trkpt><trkpt lat="14.889125409090754" lon="120.83261914237328"><ele>9.333333333333334</ele><time>2026-03-29T10:38:35Z</time></trkpt><trkpt lat="14.888961560962665" lon="120.8327246066956"><ele>9.666666666666668</ele><time>2026-03-29T10:38:36Z</time></trkpt><trkpt lat="14.88879683758882" lon="120.83283039817744"><ele>10.0</ele><time>2026-03-29T10:38:37Z</time></trkpt><trkpt lat="14.888631483465051" lon="120.83293816839567"><ele>10.0</ele><time>2026-03-29T10:38:38Z</time></trkpt><trkpt lat="14.888464548533728" lon="120.83304645956727"><ele>10.0</ele><time>2026-03-29T10:38:39Z</time></trkpt><trkpt lat="14.8882957623246" lon="120.83315452550322"><ele>10.0</ele><time>2026-03-29T10:38:40Z</time></trkpt><trkpt lat="14.88812442717353" lon="120.83326269862646"><ele>9.666666666666668</ele><time>2026-03-29T10:38:41Z</time></trkpt><trkpt lat="14.887950492610216" lon="120.83337174628137"><ele>9.333333333333334</ele><time>2026-03-29T10:38:42Z</time></trkpt><trkpt lat="14.887774460345465" lon="120.83348163500222"><ele>9.0</ele><time>2026-03-29T10:38:43Z</time></trkpt><trkpt lat="14.887596052393942" lon="120.8335935588677"><ele>9.0</ele><time>2026-03-29T10:38:44Z</time></trkpt><trkpt lat="14.887416692746088" lon="120.83370624418568"><ele>9.0</ele><time>2026-03-29T10:38:45Z</time></trkpt><trkpt lat="14.887235820695954" lon="120.83382112110866"><ele>9.0</ele><time>2026-03-29T10:38:46Z</time></trkpt><trkpt lat="14.887055133587964" lon="120.83393896683502"><ele>9.0</ele><time>2026-03-29T10:38:47Z</time></trkpt><trkpt lat="14.886873251282342" lon="120.83405737217335"><ele>9.0</ele><time>2026-03-29T10:38:48Z</time></trkpt><trkpt lat="14.886691286732518" lon="120.83417581612095"><ele>9.0</ele><time>2026-03-29T10:38:49Z</time></trkpt><trkpt lat="14.886509700619467" lon="120.83429412956205"><ele>9.666666666666666</ele><time>2026-03-29T10:38:50Z</time></trkpt><trkpt lat="14.886328908364334" lon="120.83441311333874"><ele>10.333333333333332</ele><time>2026-03-29T10:38:51Z</time></trkpt><trkpt lat="14.886148158706893" lon="120.83453243048272"><ele>11.0</ele><time>2026-03-29T10:38:52Z</time></trkpt><trkpt lat="14.885968204065044" lon="120.83465112325459"><ele>11.0</ele><time>2026-03-29T10:38:53Z</time></trkpt><trkpt lat="14.885790487697804" lon="120.83476944950344"><ele>11.0</ele><time>2026-03-29T10:38:54Z</time></trkpt><trkpt lat="14.885615804681363" lon="120.83488590415504"><ele>11.0</ele><time>2026-03-29T10:38:55Z</time></trkpt><trkpt lat="14.885442193489755" lon="120.83500264837923"><ele>11.0</ele><time>2026-03-29T10:38:56Z</time></trkpt><trkpt lat="14.885270589298647" lon="120.83511938407302"><ele>11.0</ele><time>2026-03-29T10:38:57Z</time></trkpt><trkpt lat="14.88510365771835" lon="120.83523481848071"><ele>11.0</ele><time>2026-03-29T10:38:58Z</time></trkpt><trkpt lat="14.884941045169473" lon="120.83534726396742"><ele>11.333333333333332</ele><time>2026-03-29T10:38:59Z</time></trkpt><trkpt lat="14.884781123768784" lon="120.8354582946793"><ele>11.666666666666666</ele><time>2026-03-29T10:39:00Z</time></trkpt><trkpt lat="14.884623780604691" lon="120.83556671608801"><ele>12.0</ele><time>2026-03-29T10:39:01Z</time></trkpt><trkpt lat="14.884468085410496" lon="120.83567375717506"><ele>12.0</ele><time>2026-03-29T10:39:02Z</time></trkpt><trkpt lat="14.884315724405639" lon="120.83578045305691"><ele>12.0</ele><time>2026-03-29T10:39:03Z</time></trkpt><trkpt lat="14.884163430184913" lon="120.83588760481533"><ele>12.0</ele><time>2026-03-29T10:39:04Z</time></trkpt><trkpt lat="14.884011203402789" lon="120.83599502438109"><ele>11.0</ele><time>2026-03-29T10:39:05Z</time></trkpt><trkpt lat="14.883858486074619" lon="120.83610292297287"><ele>10.0</ele><time>2026-03-29T10:39:06Z</time></trkpt><trkpt lat="14.883703827203005" lon="120.83621071620156"><ele>9.0</ele><time>2026-03-29T10:39:07Z</time></trkpt><trkpt lat="14.88354747347974" lon="120.83631996244209"><ele>9.666666666666666</ele><time>2026-03-29T10:39:08Z</time></trkpt><trkpt lat="14.883392284900571" lon="120.83643233889592"><ele>10.333333333333332</ele><time>2026-03-29T10:39:09Z</time></trkpt><trkpt lat="14.883239404846154" lon="120.83654407683778"><ele>11.0</ele><time>2026-03-29T10:39:10Z</time></trkpt><trkpt lat="14.883089988895716" lon="120.83665521861232"><ele>11.0</ele><time>2026-03-29T10:39:11Z</time></trkpt><trkpt lat="14.882941094856116" lon="120.83676406787899"><ele>11.0</ele><time>2026-03-29T10:39:12Z</time></trkpt><trkpt lat="14.882794747677853" lon="120.83687047956872"><ele>11.0</ele><time>2026-03-29T10:39:13Z</time></trkpt><trkpt lat="14.882650831352267" lon="120.83697731902255"><ele>11.666666666666666</ele><time>2026-03-29T10:39:14Z</time></trkpt><trkpt lat="14.88251110001942" lon="120.8370802108698"><ele>12.333333333333332</ele><time>2026-03-29T10:39:15Z</time></trkpt><trkpt lat="14.882377154669618" lon="120.83717896856979"><ele>13.0</ele><time>2026-03-29T10:39:16Z</time></trkpt><trkpt lat="14.882246929011659" lon="120.83727653226751"><ele>13.0</ele><time>2026-03-29T10:39:17Z</time></trkpt><trkpt lat="14.882119385874608" lon="120.83737132091382"><ele>13.0</ele><time>2026-03-29T10:39:18Z</time></trkpt><trkpt lat="14.881992069886435" lon="120.83746612006298"><ele>13.0</ele><time>2026-03-29T10:39:19Z</time></trkpt><trkpt lat="14.881864747183593" lon="120.83756154057393"><ele>12.333333333333332</ele><time>2026-03-29T10:39:20Z</time></trkpt><trkpt lat="14.881737392351218" lon="120.83765783810784"><ele>11.666666666666666</ele><time>2026-03-29T10:39:21.001Z</time></trkpt><trkpt lat="14.88160965492241" lon="120.83775617200938"><ele>11.0</ele><time>2026-03-29T10:39:22.001Z</time></trkpt><trkpt lat="14.881479991918665" lon="120.8378549819797"><ele>11.0</ele><time>2026-03-29T10:39:23.001Z</time></trkpt><trkpt lat="14.881347615956306" lon="120.83795648873485"><ele>11.0</ele><time>2026-03-29T10:39:24.001Z</time></trkpt><trkpt lat="14.88121193848652" lon="120.83805939935993"><ele>11.0</ele><time>2026-03-29T10:39:25.001Z</time></trkpt><trkpt lat="14.88107504076901" lon="120.83816609173024"><ele>11.0</ele><time>2026-03-29T10:39:26.001Z</time></trkpt><trkpt lat="14.880936192158877" lon="120.8382749100425"><ele>11.0</ele><time>2026-03-29T10:39:27.001Z</time></trkpt><trkpt lat="14.880794149955411" lon="120.83838576050164"><ele>11.0</ele><time>2026-03-29T10:39:28.001Z</time></trkpt><trkpt lat="14.880650019779894" lon="120.83849931360874"><ele>11.0</ele><time>2026-03-29T10:39:29.001Z</time></trkpt><trkpt lat="14.880504088922843" lon="120.83861477166127"><ele>11.0</ele><time>2026-03-29T10:39:30.001Z</time></trkpt><trkpt lat="14.880354457603282" lon="120.83873342595575"><ele>11.0</ele><time>2026-03-29T10:39:31.001Z</time></trkpt><trkpt lat="14.880204537661639" lon="120.83885299484115"><ele>10.666666666666666</ele><time>2026-03-29T10:39:32.001Z</time></trkpt><trkpt lat="14.88005188702259" lon="120.8389762679571"><ele>10.333333333333334</ele><time>2026-03-29T10:39:33.001Z</time></trkpt><trkpt lat="14.87989766180679" lon="120.8391011956414"><ele>10.0</ele><time>2026-03-29T10:39:34.001Z</time></trkpt><trkpt lat="14.879744135548345" lon="120.83922572211202"><ele>10.666666666666668</ele><time>2026-03-29T10:39:35.001Z</time></trkpt><trkpt lat="14.879589938508362" lon="120.83935119590537"><ele>11.333333333333334</ele><time>2026-03-29T10:39:36.001Z</time></trkpt><trkpt lat="14.87943460928367" lon="120.83947832387167"><ele>12.0</ele><time>2026-03-29T10:39:37.001Z</time></trkpt><trkpt lat="14.879277606211474" lon="120.83960658341788"><ele>11.333333333333334</ele><time>2026-03-29T10:39:38.001Z</time></trkpt><trkpt lat="14.879119648809443" lon="120.83973871630977"><ele>10.666666666666668</ele><time>2026-03-29T10:39:39.001Z</time></trkpt><trkpt lat="14.878960933504853" lon="120.83987074921575"><ele>10.0</ele><time>2026-03-29T10:39:40.001Z</time></trkpt><trkpt lat="14.87880364946809" lon="120.84000222659121"><ele>10.0</ele><time>2026-03-29T10:39:41.001Z</time></trkpt><trkpt lat="14.878648615483035" lon="120.8401331701354"><ele>10.0</ele><time>2026-03-29T10:39:42.001Z</time></trkpt><trkpt lat="14.878494118528605" lon="120.8402640119816"><ele>10.0</ele><time>2026-03-29T10:39:43.001Z</time></trkpt><trkpt lat="14.87834049660507" lon="120.8403929238435"><ele>11.0</ele><time>2026-03-29T10:39:44.001Z</time></trkpt><trkpt lat="14.878186775303469" lon="120.84052201380734"><ele>12.0</ele><time>2026-03-29T10:39:45.001Z</time></trkpt><trkpt lat="14.878032057586289" lon="120.84064950339729"><ele>13.0</ele><time>2026-03-29T10:39:46.001Z</time></trkpt><trkpt lat="14.877880591940219" lon="120.84077734688711"><ele>13.0</ele><time>2026-03-29T10:39:47.001Z</time></trkpt><trkpt lat="14.877731776270082" lon="120.84090580499341"><ele>13.0</ele><time>2026-03-29T10:39:48.001Z</time></trkpt><trkpt lat="14.877583089983052" lon="120.84103545072654"><ele>13.0</ele><time>2026-03-29T10:39:49.001Z</time></trkpt><trkpt lat="14.877432965042148" lon="120.84116729832367"><ele>12.666666666666666</ele><time>2026-03-29T10:39:50.001Z</time></trkpt><trkpt lat="14.877280866641138" lon="120.84130077625574"><ele>12.333333333333332</ele><time>2026-03-29T10:39:51.001Z</time></trkpt><trkpt lat="14.877126638805404" lon="120.8414362510171"><ele>12.0</ele><time>2026-03-29T10:39:52.001Z</time></trkpt><trkpt lat="14.87697111519591" lon="120.84157499946262"><ele>12.0</ele><time>2026-03-29T10:39:53.001Z</time></trkpt><trkpt lat="14.876814015658333" lon="120.84171553812732"><ele>12.0</ele><time>2026-03-29T10:39:54.001Z</time></trkpt><trkpt lat="14.87665525954622" lon="120.84185752269201"><ele>12.0</ele><time>2026-03-29T10:39:55.001Z</time></trkpt><trkpt lat="14.876493980850674" lon="120.84200130633667"><ele>11.666666666666666</ele><time>2026-03-29T10:39:56.001Z</time></trkpt><trkpt lat="14.876332360367622" lon="120.84214667562786"><ele>11.333333333333332</ele><time>2026-03-29T10:39:57.001Z</time></trkpt><trkpt lat="14.876172258227696" lon="120.84229055806755"><ele>11.0</ele><time>2026-03-29T10:39:58.001Z</time></trkpt><trkpt lat="14.876014474512349" lon="120.8424324883169"><ele>11.333333333333332</ele><time>2026-03-29T10:39:59.001Z</time></trkpt><trkpt lat="14.875859457904221" lon="120.8425732682495"><ele>11.666666666666666</ele><time>2026-03-29T10:40:00.001Z</time></trkpt><trkpt lat="14.875707015082527" lon="120.84271382497894"><ele>12.0</ele><time>2026-03-29T10:40:01.001Z</time></trkpt><trkpt lat="14.87555486956252" lon="120.84285394667172"><ele>11.333333333333334</ele><time>2026-03-29T10:40:02.001Z</time></trkpt><trkpt lat="14.875403985388422" lon="120.8429955339263"><ele>10.666666666666668</ele><time>2026-03-29T10:40:03.001Z</time></trkpt><trkpt lat="14.875251644283424" lon="120.84313736066831"><ele>10.0</ele><time>2026-03-29T10:40:04.001Z</time></trkpt><trkpt lat="14.875098853382688" lon="120.84328012417902"><ele>10.0</ele><time>2026-03-29T10:40:05.001Z</time></trkpt><trkpt lat="14.87494723170837" lon="120.8434232578712"><ele>10.0</ele><time>2026-03-29T10:40:06.001Z</time></trkpt><trkpt lat="14.874796223024083" lon="120.84356708080277"><ele>10.0</ele><time>2026-03-29T10:40:07.001Z</time></trkpt><trkpt lat="14.874646104921645" lon="120.84371184458777"><ele>9.333333333333334</ele><time>2026-03-29T10:40:08.001Z</time></trkpt><trkpt lat="14.874495730000657" lon="120.8438574426399"><ele>8.666666666666666</ele><time>2026-03-29T10:40:09.001Z</time></trkpt><trkpt lat="14.874345183793597" lon="120.84400446379566"><ele>8.0</ele><time>2026-03-29T10:40:10.001Z</time></trkpt><trkpt lat="14.874195825098852" lon="120.84414979767328"><ele>9.0</ele><time>2026-03-29T10:40:11.001Z</time></trkpt><trkpt lat="14.874046160020539" lon="120.8442963883124"><ele>10.0</ele><time>2026-03-29T10:40:12.001Z</time></trkpt><trkpt lat="14.873896166586427" lon="120.84444445617592"><ele>11.0</ele><time>2026-03-29T10:40:13Z</time></trkpt><trkpt lat="14.873745670594099" lon="120.84459232599536"><ele>11.0</ele><time>2026-03-29T10:40:14Z</time></trkpt><trkpt lat="14.873595201572845" lon="120.84474154211608"><ele>11.0</ele><time>2026-03-29T10:40:15Z</time></trkpt><trkpt lat="14.873444145258263" lon="120.84489161373563"><ele>11.0</ele><time>2026-03-29T10:40:16Z</time></trkpt><trkpt lat="14.873292530112307" lon="120.84504456130493"><ele>10.666666666666666</ele><time>2026-03-29T10:40:17Z</time></trkpt><trkpt lat="14.873139054550487" lon="120.8451985502638"><ele>10.333333333333334</ele><time>2026-03-29T10:40:18Z</time></trkpt><trkpt lat="14.872984809600093" lon="120.84535440081197"><ele>10.0</ele><time>2026-03-29T10:40:19Z</time></trkpt><trkpt lat="14.872829455309514" lon="120.84551282379906"><ele>10.0</ele><time>2026-03-29T10:40:20Z</time></trkpt><trkpt lat="14.872672837075932" lon="120.84567319314405"><ele>10.0</ele><time>2026-03-29T10:40:21Z</time></trkpt><trkpt lat="14.872515624648669" lon="120.8458344095066"><ele>10.0</ele><time>2026-03-29T10:40:22Z</time></trkpt><trkpt lat="14.872358149955277" lon="120.84599528718694"><ele>9.666666666666668</ele><time>2026-03-29T10:40:23Z</time></trkpt><trkpt lat="14.872201404077492" lon="120.84615643443645"><ele>9.333333333333334</ele><time>2026-03-29T10:40:24Z</time></trkpt><trkpt lat="14.872044895883764" lon="120.84631743910393"><ele>9.0</ele><time>2026-03-29T10:40:25Z</time></trkpt><trkpt lat="14.87188744652325" lon="120.84648040473473"><ele>9.0</ele><time>2026-03-29T10:40:26Z</time></trkpt><trkpt lat="14.871728546266633" lon="120.84664620024101"><ele>9.0</ele><time>2026-03-29T10:40:27Z</time></trkpt><trkpt lat="14.871567092405623" lon="120.84681326163162"><ele>9.0</ele><time>2026-03-29T10:40:28Z</time></trkpt><trkpt lat="14.871402710845514" lon="120.84698204767432"><ele>9.0</ele><time>2026-03-29T10:40:29Z</time></trkpt><trkpt lat="14.871235935773873" lon="120.84715505864675"><ele>9.0</ele><time>2026-03-29T10:40:30Z</time></trkpt><trkpt lat="14.87106658534632" lon="120.84733127499165"><ele>9.0</ele><time>2026-03-29T10:40:31Z</time></trkpt><trkpt lat="14.870896729382093" lon="120.84751062864053"><ele>9.0</ele><time>2026-03-29T10:40:32Z</time></trkpt><trkpt lat="14.870729171355467" lon="120.84769315181718"><ele>9.0</ele><time>2026-03-29T10:40:33Z</time></trkpt><trkpt lat="14.870561416952214" lon="120.84787708269882"><ele>9.0</ele><time>2026-03-29T10:40:34Z</time></trkpt><trkpt lat="14.87039209929555" lon="120.84806271999818"><ele>9.0</ele><time>2026-03-29T10:40:35Z</time></trkpt><trkpt lat="14.870221123119277" lon="120.84824678499591"><ele>9.5</ele><time>2026-03-29T10:40:36Z</time></trkpt><trkpt lat="14.8700538381614" lon="120.84843227457179"><ele>10.0</ele><time>2026-03-29T10:40:37Z</time></trkpt><trkpt lat="14.869889457059244" lon="120.84861497180167"><ele>10.0</ele><time>2026-03-29T10:40:38Z</time></trkpt><trkpt lat="14.86973200584946" lon="120.8487945019392"><ele>10.0</ele><time>2026-03-29T10:40:39Z</time></trkpt><trkpt lat="14.869579171495056" lon="120.84896941142824"><ele>10.0</ele><time>2026-03-29T10:40:40Z</time></trkpt><trkpt lat="14.869428736771399" lon="120.84914254772872"><ele>10.0</ele><time>2026-03-29T10:40:41Z</time></trkpt><trkpt lat="14.869277169971586" lon="120.8493160704115"><ele>9.666666666666668</ele><time>2026-03-29T10:40:42Z</time></trkpt><trkpt lat="14.869129519077482" lon="120.8494902290148"><ele>9.333333333333334</ele><time>2026-03-29T10:40:43Z</time></trkpt><trkpt lat="14.868986367720693" lon="120.84966494262378"><ele>9.0</ele><time>2026-03-29T10:40:44Z</time></trkpt><trkpt lat="14.868844038574519" lon="120.84983917016335"><ele>9.0</ele><time>2026-03-29T10:40:45Z</time></trkpt><trkpt lat="14.86870106022574" lon="120.85001162422053"><ele>9.0</ele><time>2026-03-29T10:40:46Z</time></trkpt><trkpt lat="14.868561396117455" lon="120.85018463297789"><ele>9.0</ele><time>2026-03-29T10:40:47Z</time></trkpt><trkpt lat="14.868422321159857" lon="120.85035479848102"><ele>9.666666666666666</ele><time>2026-03-29T10:40:48Z</time></trkpt><trkpt lat="14.868286329513264" lon="120.850523616485"><ele>10.333333333333332</ele><time>2026-03-29T10:40:49Z</time></trkpt><trkpt lat="14.86814843807166" lon="120.85069129227631"><ele>11.0</ele><time>2026-03-29T10:40:50Z</time></trkpt><trkpt lat="14.86800919978663" lon="120.85086080444935"><ele>10.666666666666666</ele><time>2026-03-29T10:40:51Z</time></trkpt><trkpt lat="14.867870155005068" lon="120.85103117460257"><ele>10.333333333333334</ele><time>2026-03-29T10:40:52Z</time></trkpt><trkpt lat="14.867729666115574" lon="120.85120220232736"><ele>10.0</ele><time>2026-03-29T10:40:53Z</time></trkpt><trkpt lat="14.867589846792102" lon="120.85137377464638"><ele>10.666666666666668</ele><time>2026-03-29T10:40:54Z</time></trkpt><trkpt lat="14.867448810782129" lon="120.85154470412859"><ele>11.333333333333334</ele><time>2026-03-29T10:40:55Z</time></trkpt><trkpt lat="14.867308868811303" lon="120.85171693413857"><ele>12.0</ele><time>2026-03-29T10:40:56Z</time></trkpt><trkpt lat="14.867171102481336" lon="120.85188842616003"><ele>11.666666666666666</ele><time>2026-03-29T10:40:57Z</time></trkpt><trkpt lat="14.867033568272019" lon="120.85205728282098"><ele>11.333333333333332</ele><time>2026-03-29T10:40:58Z</time></trkpt><trkpt lat="14.86689747225404" lon="120.8522292387393"><ele>11.0</ele><time>2026-03-29T10:40:59Z</time></trkpt><trkpt lat="14.866758429419342" lon="120.8524013401351"><ele>11.0</ele><time>2026-03-29T10:41:00Z</time></trkpt><trkpt lat="14.86661680808053" lon="120.85257327358974"><ele>11.0</ele><time>2026-03-29T10:41:01Z</time></trkpt><trkpt lat="14.866474038610132" lon="120.85274901910614"><ele>11.0</ele><time>2026-03-29T10:41:02Z</time></trkpt><trkpt lat="14.866330075763566" lon="120.85292697493261"><ele>10.0</ele><time>2026-03-29T10:41:03Z</time></trkpt><trkpt lat="14.86618560470345" lon="120.85310728313658"><ele>9.0</ele><time>2026-03-29T10:41:04Z</time></trkpt><trkpt lat="14.866043133370844" lon="120.85329124179418"><ele>11.5</ele><time>2026-03-29T10:41:05Z</time></trkpt><trkpt lat="14.865899822450443" lon="120.85347455231613"><ele>14.0</ele><time>2026-03-29T10:41:06Z</time></trkpt><trkpt lat="14.865758953404683" lon="120.85365949877604"><ele>14.0</ele><time>2026-03-29T10:41:07Z</time></trkpt><trkpt lat="14.865620866452364" lon="120.85384490077234"><ele>14.0</ele><time>2026-03-29T10:41:08Z</time></trkpt><trkpt lat="14.865483039004618" lon="120.85403050551028"><ele>14.0</ele><time>2026-03-29T10:41:09Z</time></trkpt><trkpt lat="14.86534548409894" lon="120.85421494249637"><ele>14.0</ele><time>2026-03-29T10:41:10Z</time></trkpt><trkpt lat="14.865208930539355" lon="120.85439870722361"><ele>14.0</ele><time>2026-03-29T10:41:11Z</time></trkpt><trkpt lat="14.865072394888433" lon="120.85458064526537"><ele>13.666666666666668</ele><time>2026-03-29T10:41:12Z</time></trkpt><trkpt lat="14.86493926701237" lon="120.8547651972047"><ele>13.333333333333332</ele><time>2026-03-29T10:41:13Z</time></trkpt><trkpt lat="14.86480548331778" lon="120.85494774210082"><ele>13.0</ele><time>2026-03-29T10:41:14Z</time></trkpt><trkpt lat="14.864676322631384" lon="120.85513234181174"><ele>13.0</ele><time>2026-03-29T10:41:15Z</time></trkpt><trkpt lat="14.864545247860654" lon="120.85531486879633"><ele>13.0</ele><time>2026-03-29T10:41:16Z</time></trkpt><trkpt lat="14.864417225079329" lon="120.85549968037179"><ele>13.0</ele><time>2026-03-29T10:41:17Z</time></trkpt><trkpt lat="14.864285956637163" lon="120.8556815196788"><ele>13.0</ele><time>2026-03-29T10:41:18Z</time></trkpt><trkpt lat="14.864156897013075" lon="120.85586565332086"><ele>13.0</ele><time>2026-03-29T10:41:19Z</time></trkpt><trkpt lat="14.864030221814785" lon="120.85604840799604"><ele>13.0</ele><time>2026-03-29T10:41:20Z</time></trkpt><trkpt lat="14.86390249088232" lon="120.85623230324052"><ele>13.0</ele><time>2026-03-29T10:41:21Z</time></trkpt><trkpt lat="14.863775995345025" lon="120.85641853911844"><ele>13.0</ele><time>2026-03-29T10:41:22Z</time></trkpt><trkpt lat="14.863645813564412" lon="120.85660365292243"><ele>13.0</ele><time>2026-03-29T10:41:23Z</time></trkpt><trkpt lat="14.863517519846805" lon="120.85679336204946"><ele>13.0</ele><time>2026-03-29T10:41:24Z</time></trkpt><trkpt lat="14.863388495864916" lon="120.85698482589687"><ele>13.0</ele><time>2026-03-29T10:41:25Z</time></trkpt><trkpt lat="14.863258036319198" lon="120.8571774407085"><ele>13.0</ele><time>2026-03-29T10:41:26Z</time></trkpt><trkpt lat="14.863129952801286" lon="120.85737328665289"><ele>13.0</ele><time>2026-03-29T10:41:27.001Z</time></trkpt><trkpt lat="14.863000501883413" lon="120.85756790402006"><ele>13.0</ele><time>2026-03-29T10:41:28.001Z</time></trkpt><trkpt lat="14.862871197008499" lon="120.85776276314068"><ele>13.0</ele><time>2026-03-29T10:41:29.001Z</time></trkpt><trkpt lat="14.862741871251455" lon="120.85795745607396"><ele>13.0</ele><time>2026-03-29T10:41:30.001Z</time></trkpt><trkpt lat="14.862612640460627" lon="120.85815309982812"><ele>13.0</ele><time>2026-03-29T10:41:31.001Z</time></trkpt><trkpt lat="14.8624833343957" lon="120.85834957427711"><ele>13.5</ele><time>2026-03-29T10:41:32.001Z</time></trkpt><trkpt lat="14.862355331502949" lon="120.85854585503239"><ele>14.0</ele><time>2026-03-29T10:41:33.001Z</time></trkpt><trkpt lat="14.862228169087677" lon="120.85874353664245"><ele>14.0</ele><time>2026-03-29T10:41:34.001Z</time></trkpt><trkpt lat="14.862101828942427" lon="120.85894236914464"><ele>14.0</ele><time>2026-03-29T10:41:35.001Z</time></trkpt><trkpt lat="14.861974757173614" lon="120.85913987841366"><ele>13.5</ele><time>2026-03-29T10:41:36.001Z</time></trkpt><trkpt lat="14.861849161082567" lon="120.85933787611798"><ele>13.0</ele><time>2026-03-29T10:41:37.001Z</time></trkpt><trkpt lat="14.861725045049411" lon="120.8595382583107"><ele>12.5</ele><time>2026-03-29T10:41:38.001Z</time></trkpt><trkpt lat="14.861602022516157" lon="120.85974090472241"><ele>12.0</ele><time>2026-03-29T10:41:39.001Z</time></trkpt><trkpt lat="14.861482226660415" lon="120.85994795342002"><ele>11.5</ele><time>2026-03-29T10:41:40.001Z</time></trkpt><trkpt lat="14.861361309993443" lon="120.86015646698931"><ele>11.0</ele><time>2026-03-29T10:41:41.001Z</time></trkpt><trkpt lat="14.861239119040182" lon="120.86036545495948"><ele>11.0</ele><time>2026-03-29T10:41:42.001Z</time></trkpt><trkpt lat="14.86111597970664" lon="120.8605749116776"><ele>11.0</ele><time>2026-03-29T10:41:43.001Z</time></trkpt><trkpt lat="14.860991772275149" lon="120.86078192569225"><ele>11.5</ele><time>2026-03-29T10:41:44.001Z</time></trkpt><trkpt lat="14.860867429518104" lon="120.8609885467741"><ele>12.0</ele><time>2026-03-29T10:41:45.001Z</time></trkpt><trkpt lat="14.860744094060284" lon="120.86119547368673"><ele>12.0</ele><time>2026-03-29T10:41:46.001Z</time></trkpt><trkpt lat="14.860621541880313" lon="120.8614022533198"><ele>12.0</ele><time>2026-03-29T10:41:47.001Z</time></trkpt><trkpt lat="14.860498614790837" lon="120.86160750021261"><ele>10.5</ele><time>2026-03-29T10:41:48.001Z</time></trkpt><trkpt lat="14.860375906539184" lon="120.86181216081218"><ele>9.0</ele><time>2026-03-29T10:41:49.001Z</time></trkpt><trkpt lat="14.860253410646653" lon="120.86201453758883"><ele>9.0</ele><time>2026-03-29T10:41:50.001Z</time></trkpt><trkpt lat="14.860132459925882" lon="120.86221533166683"><ele>9.0</ele><time>2026-03-29T10:41:51.001Z</time></trkpt><trkpt lat="14.86001235270557" lon="120.86241481593939"><ele>9.333333333333334</ele><time>2026-03-29T10:41:52.001Z</time></trkpt><trkpt lat="14.859893485776928" lon="120.86261281260165"><ele>9.666666666666668</ele><time>2026-03-29T10:41:53.001Z</time></trkpt><trkpt lat="14.859775055288733" lon="120.86280979642217"><ele>10.0</ele><time>2026-03-29T10:41:54.001Z</time></trkpt><trkpt lat="14.859657157889728" lon="120.86300660315888"><ele>10.0</ele><time>2026-03-29T10:41:55.001Z</time></trkpt><trkpt lat="14.859540315564052" lon="120.86320242482094"><ele>10.0</ele><time>2026-03-29T10:41:56.001Z</time></trkpt><trkpt lat="14.859426762039302" lon="120.86339608875133"><ele>10.0</ele><time>2026-03-29T10:41:57.001Z</time></trkpt><trkpt lat="14.859313448564942" lon="120.86358818679619"><ele>9.666666666666668</ele><time>2026-03-29T10:41:58.001Z</time></trkpt><trkpt lat="14.859200733585194" lon="120.86377640207057"><ele>9.333333333333334</ele><time>2026-03-29T10:41:59.001Z</time></trkpt><trkpt lat="14.859089220311068" lon="120.86396182063855"><ele>9.0</ele><time>2026-03-29T10:42:00.001Z</time></trkpt><trkpt lat="14.858978917539886" lon="120.86414490527196"><ele>8.666666666666666</ele><time>2026-03-29T10:42:01.001Z</time></trkpt><trkpt lat="14.858869644050523" lon="120.86432761193356"><ele>8.333333333333332</ele><time>2026-03-29T10:42:02.001Z</time></trkpt><trkpt lat="14.858761786795482" lon="120.86450849203028"><ele>8.0</ele><time>2026-03-29T10:42:03.001Z</time></trkpt><trkpt lat="14.858653237496974" lon="120.86468805029963"><ele>8.0</ele><time>2026-03-29T10:42:04.001Z</time></trkpt><trkpt lat="14.858544873493166" lon="120.86486713540478"><ele>8.0</ele><time>2026-03-29T10:42:05.001Z</time></trkpt><trkpt lat="14.8584386170292" lon="120.86504447498201"><ele>8.0</ele><time>2026-03-29T10:42:06.001Z</time></trkpt><trkpt lat="14.858332958092104" lon="120.86522142221243"><ele>8.666666666666666</ele><time>2026-03-29T10:42:07.001Z</time></trkpt><trkpt lat="14.858225942390543" lon="120.86539847473112"><ele>9.333333333333334</ele><time>2026-03-29T10:42:08.001Z</time></trkpt><trkpt lat="14.858119194400803" lon="120.86557520931802"><ele>10.0</ele><time>2026-03-29T10:42:09.001Z</time></trkpt><trkpt lat="14.85801333591894" lon="120.86575343114632"><ele>10.0</ele><time>2026-03-29T10:42:10.001Z</time></trkpt><trkpt lat="14.857908143261444" lon="120.86593239433752"><ele>10.0</ele><time>2026-03-29T10:42:11.001Z</time></trkpt><trkpt lat="14.857804506193002" lon="120.86611251477657"><ele>10.0</ele><time>2026-03-29T10:42:12.001Z</time></trkpt><trkpt lat="14.857699840225074" lon="120.86629152957785"><ele>10.0</ele><time>2026-03-29T10:42:13.001Z</time></trkpt><trkpt lat="14.857594515311769" lon="120.86646787367675"><ele>10.0</ele><time>2026-03-29T10:42:14.001Z</time></trkpt><trkpt lat="14.857488805430014" lon="120.86664340834143"><ele>10.0</ele><time>2026-03-29T10:42:15.001Z</time></trkpt><trkpt lat="14.857383874894728" lon="120.86681815492439"><ele>10.0</ele><time>2026-03-29T10:42:16.001Z</time></trkpt><trkpt lat="14.857280200531132" lon="120.866990476149"><ele>10.0</ele><time>2026-03-29T10:42:17.001Z</time></trkpt><trkpt lat="14.857177249963202" lon="120.86716230852282"><ele>10.0</ele><time>2026-03-29T10:42:18.001Z</time></trkpt><trkpt lat="14.8570761795659" lon="120.86733252226018"><ele>10.0</ele><time>2026-03-29T10:42:19Z</time></trkpt><trkpt lat="14.85697465348934" lon="120.86750158038139"><ele>10.0</ele><time>2026-03-29T10:42:20Z</time></trkpt><trkpt lat="14.856874737234122" lon="120.86767092024564"><ele>10.0</ele><time>2026-03-29T10:42:21Z</time></trkpt><trkpt lat="14.856773859294876" lon="120.86783801740675"><ele>10.333333333333334</ele><time>2026-03-29T10:42:22Z</time></trkpt><trkpt lat="14.856675006157365" lon="120.86800303842674"><ele>10.666666666666666</ele><time>2026-03-29T10:42:23Z</time></trkpt><trkpt lat="14.85657787692037" lon="120.8681660215243"><ele>11.0</ele><time>2026-03-29T10:42:24Z</time></trkpt><trkpt lat="14.856481480965826" lon="120.86832694222124"><ele>10.666666666666666</ele><time>2026-03-29T10:42:25Z</time></trkpt><trkpt lat="14.8563855471685" lon="120.86848713415013"><ele>10.333333333333334</ele><time>2026-03-29T10:42:26Z</time></trkpt><trkpt lat="14.856289807123115" lon="120.86864700680512"><ele>10.0</ele><time>2026-03-29T10:42:27Z</time></trkpt><trkpt lat="14.8561927731848" lon="120.86880523010952"><ele>10.0</ele><time>2026-03-29T10:42:28Z</time></trkpt><trkpt lat="14.856097198773199" lon="120.86896736653564"><ele>10.0</ele><time>2026-03-29T10:42:29Z</time></trkpt><trkpt lat="14.855998231604373" lon="120.86913112711586"><ele>10.0</ele><time>2026-03-29T10:42:30Z</time></trkpt><trkpt lat="14.855898831844481" lon="120.86929813494584"><ele>9.0</ele><time>2026-03-29T10:42:31Z</time></trkpt><trkpt lat="14.855796885370744" lon="120.86946858464182"><ele>8.0</ele><time>2026-03-29T10:42:32Z</time></trkpt><trkpt lat="14.855692672434056" lon="120.86964059392328"><ele>7.0</ele><time>2026-03-29T10:42:33Z</time></trkpt><trkpt lat="14.8555857362781" lon="120.86981505435918"><ele>7.0</ele><time>2026-03-29T10:42:34Z</time></trkpt><trkpt lat="14.855476053031094" lon="120.86999202488866"><ele>7.0</ele><time>2026-03-29T10:42:35Z</time></trkpt><trkpt lat="14.855364395113018" lon="120.87017042707592"><ele>7.0</ele><time>2026-03-29T10:42:36Z</time></trkpt><trkpt lat="14.855251001875935" lon="120.8703525068145"><ele>7.0</ele><time>2026-03-29T10:42:37Z</time></trkpt><trkpt lat="14.855137093954008" lon="120.87053686956492"><ele>7.0</ele><time>2026-03-29T10:42:38Z</time></trkpt><trkpt lat="14.855023989994514" lon="120.87072274632504"><ele>7.0</ele><time>2026-03-29T10:42:39Z</time></trkpt><trkpt lat="14.854909755265638" lon="120.87091016736865"><ele>8.0</ele><time>2026-03-29T10:42:40Z</time></trkpt><trkpt lat="14.854795755857852" lon="120.8710954323751"><ele>9.0</ele><time>2026-03-29T10:42:41Z</time></trkpt><trkpt lat="14.85468248726755" lon="120.87127961128097"><ele>10.0</ele><time>2026-03-29T10:42:42Z</time></trkpt><trkpt lat="14.854567888489758" lon="120.87146196652816"><ele>10.0</ele><time>2026-03-29T10:42:43Z</time></trkpt><trkpt lat="14.854452351129408" lon="120.87164485955518"><ele>10.0</ele><time>2026-03-29T10:42:44Z</time></trkpt><trkpt lat="14.854337005847851" lon="120.87182701874855"><ele>10.0</ele><time>2026-03-29T10:42:45Z</time></trkpt><trkpt lat="14.854222029811423" lon="120.87200734027219"><ele>10.0</ele><time>2026-03-29T10:42:46Z</time></trkpt><trkpt lat="14.854108506562408" lon="120.87218346819691"><ele>10.0</ele><time>2026-03-29T10:42:47Z</time></trkpt><trkpt lat="14.85399480955702" lon="120.8723568847278"><ele>10.0</ele><time>2026-03-29T10:42:48Z</time></trkpt><trkpt lat="14.853883630501958" lon="120.87252649382059"><ele>9.666666666666668</ele><time>2026-03-29T10:42:49Z</time></trkpt><trkpt lat="14.853777882848853" lon="120.8726894865749"><ele>9.333333333333334</ele><time>2026-03-29T10:42:50Z</time></trkpt><trkpt lat="14.853674154665358" lon="120.87284869159302"><ele>9.0</ele><time>2026-03-29T10:42:51Z</time></trkpt><trkpt lat="14.853571369089835" lon="120.87300518693105"><ele>9.0</ele><time>2026-03-29T10:42:52Z</time></trkpt><trkpt lat="14.853469919581393" lon="120.87316265959282"><ele>9.0</ele><time>2026-03-29T10:42:53Z</time></trkpt><trkpt lat="14.853368955744598" lon="120.8733196838848"><ele>9.0</ele><time>2026-03-29T10:42:54Z</time></trkpt><trkpt lat="14.853269905394225" lon="120.87347466329555"><ele>9.0</ele><time>2026-03-29T10:42:55Z</time></trkpt><trkpt lat="14.853168762452128" lon="120.87362481647163"><ele>9.0</ele><time>2026-03-29T10:42:56Z</time></trkpt><trkpt lat="14.853068553247248" lon="120.87377208134828"><ele>9.0</ele><time>2026-03-29T10:42:57Z</time></trkpt><trkpt lat="14.852969598203424" lon="120.87391806833135"><ele>9.0</ele><time>2026-03-29T10:42:58Z</time></trkpt><trkpt lat="14.852871833784794" lon="120.87406227343597"><ele>9.0</ele><time>2026-03-29T10:42:59Z</time></trkpt><trkpt lat="14.852773371152322" lon="120.87420485242491"><ele>9.0</ele><time>2026-03-29T10:43:00Z</time></trkpt><trkpt lat="14.852674663049903" lon="120.87434556489849"><ele>9.333333333333334</ele><time>2026-03-29T10:43:01Z</time></trkpt><trkpt lat="14.852575263876204" lon="120.87448612002018"><ele>9.666666666666668</ele><time>2026-03-29T10:43:02Z</time></trkpt><trkpt lat="14.852475241806344" lon="120.87462904597037"><ele>10.0</ele><time>2026-03-29T10:43:03Z</time></trkpt><trkpt lat="14.852375454387213" lon="120.87477068265797"><ele>10.0</ele><time>2026-03-29T10:43:04Z</time></trkpt><trkpt lat="14.852274012249966" lon="120.87491385947692"><ele>10.0</ele><time>2026-03-29T10:43:05Z</time></trkpt><trkpt lat="14.852170806586521" lon="120.87505493199501"><ele>10.0</ele><time>2026-03-29T10:43:06Z</time></trkpt><trkpt lat="14.85206823217327" lon="120.87519713643432"><ele>9.666666666666668</ele><time>2026-03-29T10:43:07Z</time></trkpt><trkpt lat="14.851966768530382" lon="120.87533974316693"><ele>9.333333333333334</ele><time>2026-03-29T10:43:08Z</time></trkpt><trkpt lat="14.851865103324323" lon="120.87548470198335"><ele>9.0</ele><time>2026-03-29T10:43:09Z</time></trkpt><trkpt lat="14.851761666561385" lon="120.8756318395233"><ele>9.0</ele><time>2026-03-29T10:43:10Z</time></trkpt><trkpt lat="14.851654609797116" lon="120.87578068672308"><ele>9.0</ele><time>2026-03-29T10:43:11Z</time></trkpt><trkpt lat="14.851547153063157" lon="120.87593114908123"><ele>9.0</ele><time>2026-03-29T10:43:12Z</time></trkpt><trkpt lat="14.851435557439714" lon="120.87608215825323"><ele>8.0</ele><time>2026-03-29T10:43:13Z</time></trkpt><trkpt lat="14.851324344934694" lon="120.87623388507033"><ele>7.0</ele><time>2026-03-29T10:43:14Z</time></trkpt><trkpt lat="14.851213488069396" lon="120.87638671413052"><ele>6.0</ele><time>2026-03-29T10:43:15Z</time></trkpt><trkpt lat="14.851099789224671" lon="120.8765381923018"><ele>6.0</ele><time>2026-03-29T10:43:16Z</time></trkpt><trkpt lat="14.850988440854579" lon="120.876690902396"><ele>6.0</ele><time>2026-03-29T10:43:17Z</time></trkpt><trkpt lat="14.85087489451807" lon="120.87684378914874"><ele>6.0</ele><time>2026-03-29T10:43:18Z</time></trkpt><trkpt lat="14.850760832785625" lon="120.87699777955054"><ele>6.0</ele><time>2026-03-29T10:43:19Z</time></trkpt><trkpt lat="14.850644058509737" lon="120.87715224918969"><ele>6.0</ele><time>2026-03-29T10:43:20Z</time></trkpt><trkpt lat="14.850528375684569" lon="120.87730882875424"><ele>6.0</ele><time>2026-03-29T10:43:21Z</time></trkpt><trkpt lat="14.850409779618568" lon="120.87746681143283"><ele>6.333333333333334</ele><time>2026-03-29T10:43:22Z</time></trkpt><trkpt lat="14.85028984977302" lon="120.87762662111501"><ele>6.666666666666667</ele><time>2026-03-29T10:43:23Z</time></trkpt><trkpt lat="14.850168235663665" lon="120.87778793510559"><ele>7.0</ele><time>2026-03-29T10:43:24Z</time></trkpt><trkpt lat="14.850042348697881" lon="120.8779478379393"><ele>7.333333333333334</ele><time>2026-03-29T10:43:25Z</time></trkpt><trkpt lat="14.84991620230934" lon="120.878111477895"><ele>7.666666666666666</ele><time>2026-03-29T10:43:26Z</time></trkpt><trkpt lat="14.849789723877342" lon="120.87827795671815"><ele>8.0</ele><time>2026-03-29T10:43:27Z</time></trkpt><trkpt lat="14.84965933655898" lon="120.8784445584659"><ele>8.0</ele><time>2026-03-29T10:43:28Z</time></trkpt><trkpt lat="14.84952560538329" lon="120.8786115794401"><ele>8.0</ele><time>2026-03-29T10:43:29Z</time></trkpt><trkpt lat="14.849393566469034" lon="120.87878319675119"><ele>8.0</ele><time>2026-03-29T10:43:30Z</time></trkpt><trkpt lat="14.849258055308205" lon="120.87895488517056"><ele>8.0</ele><time>2026-03-29T10:43:31Z</time></trkpt><trkpt lat="14.849120923573544" lon="120.87912782847668"><ele>8.0</ele><time>2026-03-29T10:43:32Z</time></trkpt><trkpt lat="14.84898294146344" lon="120.87930069681614"><ele>8.0</ele><time>2026-03-29T10:43:33Z</time></trkpt><trkpt lat="14.84884335289051" lon="120.87947579061175"><ele>7.666666666666666</ele><time>2026-03-29T10:43:34Z</time></trkpt><trkpt lat="14.848700708949782" lon="120.87965046759014"><ele>7.333333333333334</ele><time>2026-03-29T10:43:35Z</time></trkpt><trkpt lat="14.848557911978151" lon="120.87982700344227"><ele>7.0</ele><time>2026-03-29T10:43:36Z</time></trkpt><trkpt lat="14.84841385956366" lon="120.88000478866594"><ele>6.5</ele><time>2026-03-29T10:43:37Z</time></trkpt><trkpt lat="14.84826835535089" lon="120.88018451661073"><ele>6.0</ele><time>2026-03-29T10:43:38Z</time></trkpt><trkpt lat="14.848122925120675" lon="120.88036587732408"><ele>6.0</ele><time>2026-03-29T10:43:39Z</time></trkpt><trkpt lat="14.847974694266474" lon="120.88054694640273"><ele>6.0</ele><time>2026-03-29T10:43:40Z</time></trkpt><trkpt lat="14.847826574338391" lon="120.88072952824356"><ele>6.0</ele><time>2026-03-29T10:43:41Z</time></trkpt><trkpt lat="14.847677165416687" lon="120.88091354038401"><ele>6.0</ele><time>2026-03-29T10:43:42Z</time></trkpt><trkpt lat="14.847525897851037" lon="120.88109736521619"><ele>8.0</ele><time>2026-03-29T10:43:43Z</time></trkpt><trkpt lat="14.847372813152765" lon="120.88128117115205"><ele>10.0</ele><time>2026-03-29T10:43:44Z</time></trkpt><trkpt lat="14.84721862805448" lon="120.88146549869225"><ele>10.0</ele><time>2026-03-29T10:43:45Z</time></trkpt><trkpt lat="14.84706434883404" lon="120.88165052871312"><ele>10.0</ele><time>2026-03-29T10:43:46.001Z</time></trkpt><trkpt lat="14.846911686001745" lon="120.88183205567462"><ele>9.666666666666668</ele><time>2026-03-29T10:43:47.001Z</time></trkpt><trkpt lat="14.846764063792552" lon="120.88200704939807"><ele>9.333333333333334</ele><time>2026-03-29T10:43:48.001Z</time></trkpt><trkpt lat="14.84662506056578" lon="120.88217272275907"><ele>9.0</ele><time>2026-03-29T10:43:49.001Z</time></trkpt><trkpt lat="14.846490230782502" lon="120.88233411453952"><ele>9.0</ele><time>2026-03-29T10:43:50.001Z</time></trkpt><trkpt lat="14.846361441683122" lon="120.88249553604973"><ele>9.0</ele><time>2026-03-29T10:43:51.001Z</time></trkpt><trkpt lat="14.84623451688826" lon="120.88265454724723"><ele>9.0</ele><time>2026-03-29T10:43:52.001Z</time></trkpt><trkpt lat="14.846108360645141" lon="120.88280994901886"><ele>8.666666666666666</ele><time>2026-03-29T10:43:53.001Z</time></trkpt><trkpt lat="14.845983185425704" lon="120.88296600908265"><ele>8.333333333333332</ele><time>2026-03-29T10:43:54.001Z</time></trkpt><trkpt lat="14.845857769776371" lon="120.88312280092711"><ele>8.0</ele><time>2026-03-29T10:43:55.001Z</time></trkpt><trkpt lat="14.845730711186842" lon="120.88327973308401"><ele>7.333333333333333</ele><time>2026-03-29T10:43:56.001Z</time></trkpt><trkpt lat="14.845603840899544" lon="120.88343962215293"><ele>6.666666666666666</ele><time>2026-03-29T10:43:57.001Z</time></trkpt><trkpt lat="14.845478354462196" lon="120.88359974657934"><ele>6.0</ele><time>2026-03-29T10:43:58.001Z</time></trkpt><trkpt lat="14.845352954088119" lon="120.88376053505753"><ele>6.0</ele><time>2026-03-29T10:43:59.001Z</time></trkpt><trkpt lat="14.84522615223708" lon="120.88392088413697"><ele>6.0</ele><time>2026-03-29T10:44:00.001Z</time></trkpt><trkpt lat="14.845100201110625" lon="120.88408031327221"><ele>6.0</ele><time>2026-03-29T10:44:01.001Z</time></trkpt><trkpt lat="14.844975686091635" lon="120.8842376420474"><ele>6.333333333333334</ele><time>2026-03-29T10:44:02.001Z</time></trkpt><trkpt lat="14.844854138764488" lon="120.88439292040657"><ele>6.666666666666667</ele><time>2026-03-29T10:44:03.001Z</time></trkpt><trkpt lat="14.84473171916482" lon="120.88455167643771"><ele>7.0</ele><time>2026-03-29T10:44:04.001Z</time></trkpt><trkpt lat="14.844607380106478" lon="120.8847103469564"><ele>7.0</ele><time>2026-03-29T10:44:05.001Z</time></trkpt><trkpt lat="14.844480757896605" lon="120.88487186887785"><ele>7.0</ele><time>2026-03-29T10:44:06.001Z</time></trkpt><trkpt lat="14.844352429807138" lon="120.88503543015712"><ele>7.0</ele><time>2026-03-29T10:44:07.001Z</time></trkpt><trkpt lat="14.84422007118151" lon="120.8852013659627"><ele>7.0</ele><time>2026-03-29T10:44:08.001Z</time></trkpt><trkpt lat="14.84408630114656" lon="120.88537045942637"><ele>7.0</ele><time>2026-03-29T10:44:09.001Z</time></trkpt><trkpt lat="14.843950448876384" lon="120.88554002020605"><ele>7.0</ele><time>2026-03-29T10:44:10.001Z</time></trkpt><trkpt lat="14.843816441867805" lon="120.88571359906919"><ele>7.0</ele><time>2026-03-29T10:44:11.001Z</time></trkpt><trkpt lat="14.843682204064693" lon="120.88588915109763"><ele>7.0</ele><time>2026-03-29T10:44:12.001Z</time></trkpt><trkpt lat="14.843549212809663" lon="120.88606695541932"><ele>7.0</ele><time>2026-03-29T10:44:13.001Z</time></trkpt><trkpt lat="14.843417806804995" lon="120.88624344984821"><ele>7.0</ele><time>2026-03-29T10:44:14.001Z</time></trkpt><trkpt lat="14.843289251070736" lon="120.88641989734262"><ele>7.0</ele><time>2026-03-29T10:44:15.001Z</time></trkpt><trkpt lat="14.843161434748536" lon="120.8865949287963"><ele>7.0</ele><time>2026-03-29T10:44:16.001Z</time></trkpt><trkpt lat="14.843035103384839" lon="120.8867693807362"><ele>7.666666666666667</ele><time>2026-03-29T10:44:17.001Z</time></trkpt><trkpt lat="14.842908918051037" lon="120.88694221883894"><ele>8.333333333333334</ele><time>2026-03-29T10:44:18.001Z</time></trkpt><trkpt lat="14.842783047075105" lon="120.88711539472033"><ele>9.0</ele><time>2026-03-29T10:44:19.001Z</time></trkpt><trkpt lat="14.842657886778952" lon="120.88728630793476"><ele>9.0</ele><time>2026-03-29T10:44:20.001Z</time></trkpt><trkpt lat="14.842535886741057" lon="120.88745393156869"><ele>9.0</ele><time>2026-03-29T10:44:21.001Z</time></trkpt><trkpt lat="14.842415408695357" lon="120.88761998560145"><ele>9.0</ele><time>2026-03-29T10:44:22.001Z</time></trkpt><trkpt lat="14.842300396342749" lon="120.88778512570151"><ele>9.333333333333334</ele><time>2026-03-29T10:44:23.001Z</time></trkpt><trkpt lat="14.842188797779373" lon="120.88794707218491"><ele>9.666666666666668</ele><time>2026-03-29T10:44:24.001Z</time></trkpt><trkpt lat="14.842078341310303" lon="120.88810622373022"><ele>10.0</ele><time>2026-03-29T10:44:25Z</time></trkpt><trkpt lat="14.841970658990043" lon="120.88826201780005"><ele>10.0</ele><time>2026-03-29T10:44:26Z</time></trkpt><trkpt lat="14.841864171042998" lon="120.88841498405166"><ele>10.0</ele><time>2026-03-29T10:44:27Z</time></trkpt><trkpt lat="14.84176250931821" lon="120.88856277523028"><ele>10.0</ele><time>2026-03-29T10:44:28Z</time></trkpt><trkpt lat="14.841660452001108" lon="120.8887077481611"><ele>10.666666666666668</ele><time>2026-03-29T10:44:29Z</time></trkpt><trkpt lat="14.841561930260431" lon="120.88885186856679"><ele>11.333333333333334</ele><time>2026-03-29T10:44:30Z</time></trkpt><trkpt lat="14.841463677368067" lon="120.88899234042216"><ele>12.0</ele><time>2026-03-29T10:44:31Z</time></trkpt><trkpt lat="14.841368426170124" lon="120.88913105894225"><ele>11.666666666666666</ele><time>2026-03-29T10:44:32Z</time></trkpt><trkpt lat="14.841273803374536" lon="120.8892717661422"><ele>11.333333333333332</ele><time>2026-03-29T10:44:33Z</time></trkpt><trkpt lat="14.841176102974153" lon="120.88940965719108"><ele>11.0</ele><time>2026-03-29T10:44:34Z</time></trkpt><trkpt lat="14.841079646797871" lon="120.88955101906717"><ele>11.0</ele><time>2026-03-29T10:44:35Z</time></trkpt><trkpt lat="14.840985412960489" lon="120.88969303351215"><ele>11.0</ele><time>2026-03-29T10:44:36Z</time></trkpt><trkpt lat="14.840888437393229" lon="120.88983340936251"><ele>11.0</ele><time>2026-03-29T10:44:37Z</time></trkpt><trkpt lat="14.840794110615656" lon="120.88997364294298"><ele>10.666666666666666</ele><time>2026-03-29T10:44:38Z</time></trkpt><trkpt lat="14.840700841165358" lon="120.890114135973"><ele>10.333333333333334</ele><time>2026-03-29T10:44:39Z</time></trkpt><trkpt lat="14.840608656105474" lon="120.89025399212741"><ele>10.0</ele><time>2026-03-29T10:44:40Z</time></trkpt><trkpt lat="14.840514969420049" lon="120.89039273843626"><ele>10.0</ele><time>2026-03-29T10:44:41Z</time></trkpt><trkpt lat="14.84042216398595" lon="120.89053128029614"><ele>10.0</ele><time>2026-03-29T10:44:42Z</time></trkpt><trkpt lat="14.840329253344255" lon="120.89066955456308"><ele>10.0</ele><time>2026-03-29T10:44:43Z</time></trkpt><trkpt lat="14.840235389688392" lon="120.89080648114896"><ele>10.333333333333334</ele><time>2026-03-29T10:44:44Z</time></trkpt><trkpt lat="14.840143475823488" lon="120.89094583339924"><ele>10.666666666666666</ele><time>2026-03-29T10:44:45Z</time></trkpt><trkpt lat="14.840051234145646" lon="120.89108570463105"><ele>11.0</ele><time>2026-03-29T10:44:46Z</time></trkpt><trkpt lat="14.839957599117966" lon="120.89122767475392"><ele>11.0</ele><time>2026-03-29T10:44:47Z</time></trkpt><trkpt lat="14.839863820639666" lon="120.8913724082031"><ele>11.0</ele><time>2026-03-29T10:44:48Z</time></trkpt><trkpt lat="14.83976935137417" lon="120.89151944113014"><ele>11.0</ele><time>2026-03-29T10:44:49Z</time></trkpt><trkpt lat="14.839673267058153" lon="120.89166617041377"><ele>11.666666666666666</ele><time>2026-03-29T10:44:50Z</time></trkpt><trkpt lat="14.839578704570012" lon="120.89181325206599"><ele>12.333333333333332</ele><time>2026-03-29T10:44:51Z</time></trkpt><trkpt lat="14.839483947634182" lon="120.8919606548777"><ele>13.0</ele><time>2026-03-29T10:44:52Z</time></trkpt><trkpt lat="14.839390592426314" lon="120.89210656667467"><ele>13.0</ele><time>2026-03-29T10:44:53Z</time></trkpt><trkpt lat="14.839298427590597" lon="120.89224845234192"><ele>13.0</ele><time>2026-03-29T10:44:54Z</time></trkpt><trkpt lat="14.839208722202795" lon="120.89238627349053"><ele>13.0</ele><time>2026-03-29T10:44:55Z</time></trkpt><trkpt lat="14.839121027461307" lon="120.8925210269508"><ele>13.0</ele><time>2026-03-29T10:44:56Z</time></trkpt><trkpt lat="14.839036345401386" lon="120.89265172692642"><ele>13.0</ele><time>2026-03-29T10:44:57Z</time></trkpt><trkpt lat="14.838953568650401" lon="120.8927800440142"><ele>13.0</ele><time>2026-03-29T10:44:58Z</time></trkpt><trkpt lat="14.838873467786762" lon="120.89290767368813"><ele>13.0</ele><time>2026-03-29T10:44:59Z</time></trkpt><trkpt lat="14.838793962595117" lon="120.89303327417322"><ele>13.0</ele><time>2026-03-29T10:45:00Z</time></trkpt><trkpt lat="14.838716090044707" lon="120.89315526616927"><ele>13.0</ele><time>2026-03-29T10:45:01Z</time></trkpt><trkpt lat="14.838638488154244" lon="120.89327508311042"><ele>13.0</ele><time>2026-03-29T10:45:02Z</time></trkpt><trkpt lat="14.838563534168069" lon="120.89339636762593"><ele>13.0</ele><time>2026-03-29T10:45:03Z</time></trkpt><trkpt lat="14.838487120788663" lon="120.89351873147845"><ele>13.0</ele><time>2026-03-29T10:45:04Z</time></trkpt><trkpt lat="14.838410618382792" lon="120.89364193383261"><ele>13.0</ele><time>2026-03-29T10:45:05Z</time></trkpt><trkpt lat="14.83833193242946" lon="120.89376681701266"><ele>13.0</ele><time>2026-03-29T10:45:06Z</time></trkpt><trkpt lat="14.838252851653872" lon="120.89389308607444"><ele>13.0</ele><time>2026-03-29T10:45:07Z</time></trkpt><trkpt lat="14.838172452220299" lon="120.89402119720287"><ele>13.0</ele><time>2026-03-29T10:45:08Z</time></trkpt><trkpt lat="14.838093032450299" lon="120.89414950605452"><ele>13.0</ele><time>2026-03-29T10:45:09Z</time></trkpt><trkpt lat="14.838013452989633" lon="120.8942787342201"><ele>13.0</ele><time>2026-03-29T10:45:10Z</time></trkpt><trkpt lat="14.837934164696158" lon="120.89440847734433"><ele>13.0</ele><time>2026-03-29T10:45:11Z</time></trkpt><trkpt lat="14.837854992371927" lon="120.89453810122842"><ele>12.333333333333332</ele><time>2026-03-29T10:45:12Z</time></trkpt><trkpt lat="14.837775083997007" lon="120.89466932068142"><ele>11.666666666666666</ele><time>2026-03-29T10:45:13Z</time></trkpt><trkpt lat="14.837694274814739" lon="120.89480169191414"><ele>11.0</ele><time>2026-03-29T10:45:14Z</time></trkpt><trkpt lat="14.837612940524036" lon="120.89493455720756"><ele>10.666666666666666</ele><time>2026-03-29T10:45:15Z</time></trkpt><trkpt lat="14.837531674259305" lon="120.89506863510425"><ele>10.333333333333334</ele><time>2026-03-29T10:45:16Z</time></trkpt><trkpt lat="14.837450097326133" lon="120.89520362873485"><ele>10.0</ele><time>2026-03-29T10:45:17Z</time></trkpt><trkpt lat="14.837367804792795" lon="120.89533913669065"><ele>9.666666666666668</ele><time>2026-03-29T10:45:18Z</time></trkpt><trkpt lat="14.837285188912997" lon="120.89547611197258"><ele>9.333333333333334</ele><time>2026-03-29T10:45:19Z</time></trkpt><trkpt lat="14.837201969931622" lon="120.89561501092068"><ele>9.0</ele><time>2026-03-29T10:45:20Z</time></trkpt><trkpt lat="14.837119752490485" lon="120.8957563146451"><ele>9.0</ele><time>2026-03-29T10:45:21Z</time></trkpt><trkpt lat="14.837036731728693" lon="120.8958979424169"><ele>9.0</ele><time>2026-03-29T10:45:22Z</time></trkpt><trkpt lat="14.836952667492753" lon="120.89603922478057"><ele>9.0</ele><time>2026-03-29T10:45:23Z</time></trkpt><trkpt lat="14.836867539243915" lon="120.89618166992537"><ele>9.666666666666666</ele><time>2026-03-29T10:45:24Z</time></trkpt><trkpt lat="14.836783472449572" lon="120.89632487259082"><ele>10.333333333333332</ele><time>2026-03-29T10:45:25Z</time></trkpt><trkpt lat="14.836698215431534" lon="120.89646886711527"><ele>11.0</ele><time>2026-03-29T10:45:26Z</time></trkpt><trkpt lat="14.836613939042472" lon="120.89661260215523"><ele>11.666666666666666</ele><time>2026-03-29T10:45:27Z</time></trkpt><trkpt lat="14.8365298523772" lon="120.89675573479454"><ele>12.333333333333332</ele><time>2026-03-29T10:45:28Z</time></trkpt><trkpt lat="14.836446214504488" lon="120.89689860445515"><ele>13.0</ele><time>2026-03-29T10:45:29Z</time></trkpt><trkpt lat="14.836362514005804" lon="120.89704228817955"><ele>13.0</ele><time>2026-03-29T10:45:30Z</time></trkpt><trkpt lat="14.83627850939093" lon="120.89718698696103"><ele>13.0</ele><time>2026-03-29T10:45:31Z</time></trkpt><trkpt lat="14.836195243875755" lon="120.897332927089"><ele>13.0</ele><time>2026-03-29T10:45:32Z</time></trkpt><trkpt lat="14.83611041988915" lon="120.89747958366551"><ele>11.333333333333332</ele><time>2026-03-29T10:45:33Z</time></trkpt><trkpt lat="14.836024724520316" lon="120.89762942221762"><ele>9.666666666666666</ele><time>2026-03-29T10:45:34Z</time></trkpt><trkpt lat="14.835938268304425" lon="120.89778089315628"><ele>8.0</ele><time>2026-03-29T10:45:35Z</time></trkpt><trkpt lat="14.835852029044196" lon="120.89793605099503"><ele>8.0</ele><time>2026-03-29T10:45:36Z</time></trkpt><trkpt lat="14.835764282236003" lon="120.89809332024366"><ele>8.0</ele><time>2026-03-29T10:45:37Z</time></trkpt><trkpt lat="14.835676850599501" lon="120.89825314337507"><ele>8.0</ele><time>2026-03-29T10:45:38Z</time></trkpt><trkpt lat="14.835587908793135" lon="120.89841496866885"><ele>7.333333333333333</ele><time>2026-03-29T10:45:39Z</time></trkpt><trkpt lat="14.835496416374207" lon="120.89857909710858"><ele>6.666666666666666</ele><time>2026-03-29T10:45:40Z</time></trkpt><trkpt lat="14.835404759665817" lon="120.89874313090634"><ele>6.0</ele><time>2026-03-29T10:45:41Z</time></trkpt><trkpt lat="14.835312759736606" lon="120.8989099104992"><ele>6.0</ele><time>2026-03-29T10:45:42Z</time></trkpt><trkpt lat="14.83522144001064" lon="120.8990768610694"><ele>6.0</ele><time>2026-03-29T10:45:43Z</time></trkpt><trkpt lat="14.835130129006016" lon="120.89924455984294"><ele>6.0</ele><time>2026-03-29T10:45:44Z</time></trkpt><trkpt lat="14.835038156329626" lon="120.89941345306012"><ele>7.666666666666666</ele><time>2026-03-29T10:45:45Z</time></trkpt><trkpt lat="14.83494543675851" lon="120.89958226950681"><ele>9.333333333333332</ele><time>2026-03-29T10:45:46Z</time></trkpt><trkpt lat="14.83485220948514" lon="120.89975069077893"><ele>11.0</ele><time>2026-03-29T10:45:47Z</time></trkpt><trkpt lat="14.834759227932636" lon="120.89992028447021"><ele>9.333333333333332</ele><time>2026-03-29T10:45:48Z</time></trkpt><trkpt lat="14.834667459342217" lon="120.90008997502592"><ele>7.666666666666666</ele><time>2026-03-29T10:45:49Z</time></trkpt><trkpt lat="14.834577230230474" lon="120.90025872908821"><ele>6.0</ele><time>2026-03-29T10:45:50Z</time></trkpt><trkpt lat="14.834487268341961" lon="120.90042772686301"><ele>6.0</ele><time>2026-03-29T10:45:51Z</time></trkpt><trkpt lat="14.834398156810186" lon="120.90059580752204"><ele>6.0</ele><time>2026-03-29T10:45:52Z</time></trkpt><trkpt lat="14.834309639133382" lon="120.90076354443764"><ele>6.0</ele><time>2026-03-29T10:45:53Z</time></trkpt><trkpt lat="14.834222582415332" lon="120.90093020436807"><ele>7.333333333333334</ele><time>2026-03-29T10:45:54Z</time></trkpt><trkpt lat="14.834137311036834" lon="120.90109594363884"><ele>8.666666666666668</ele><time>2026-03-29T10:45:55Z</time></trkpt><trkpt lat="14.834052680218358" lon="120.9012584225214"><ele>10.0</ele><time>2026-03-29T10:45:56Z</time></trkpt><trkpt lat="14.833969144794628" lon="120.90141937358288"><ele>10.0</ele><time>2026-03-29T10:45:57Z</time></trkpt><trkpt lat="14.8338858093125" lon="120.90158141537405"><ele>10.0</ele><time>2026-03-29T10:45:58Z</time></trkpt><trkpt lat="14.833802073845742" lon="120.90174433910185"><ele>10.0</ele><time>2026-03-29T10:45:59Z</time></trkpt><trkpt lat="14.833716358900446" lon="120.90190754409706"><ele>10.0</ele><time>2026-03-29T10:46:00Z</time></trkpt><trkpt lat="14.833627065952403" lon="120.90207477477594"><ele>10.0</ele><time>2026-03-29T10:46:01Z</time></trkpt><trkpt lat="14.833538702234371" lon="120.9022433907832"><ele>10.0</ele><time>2026-03-29T10:46:02.001Z</time></trkpt><trkpt lat="14.83345072304129" lon="120.90240964660926"><ele>10.0</ele><time>2026-03-29T10:46:03.001Z</time></trkpt><trkpt lat="14.833360287116873" lon="120.9025778626895"><ele>10.0</ele><time>2026-03-29T10:46:04.001Z</time></trkpt><trkpt lat="14.833268386215632" lon="120.90274729487396"><ele>10.0</ele><time>2026-03-29T10:46:05.001Z</time></trkpt><trkpt lat="14.833175728065727" lon="120.90291891639419"><ele>9.333333333333334</ele><time>2026-03-29T10:46:06.001Z</time></trkpt><trkpt lat="14.83308255604015" lon="120.90309206586366"><ele>8.666666666666666</ele><time>2026-03-29T10:46:07.001Z</time></trkpt><trkpt lat="14.832989522585422" lon="120.90326696332811"><ele>8.0</ele><time>2026-03-29T10:46:08.001Z</time></trkpt><trkpt lat="14.832896785715944" lon="120.90344188720408"><ele>8.0</ele><time>2026-03-29T10:46:09.001Z</time></trkpt><trkpt lat="14.832802902105755" lon="120.90361735482259"><ele>8.0</ele><time>2026-03-29T10:46:10.001Z</time></trkpt><trkpt lat="14.832708107483352" lon="120.90379248108313"><ele>8.0</ele><time>2026-03-29T10:46:11.001Z</time></trkpt><trkpt lat="14.8326131245508" lon="120.90396809728907"><ele>7.666666666666666</ele><time>2026-03-29T10:46:12.001Z</time></trkpt><trkpt lat="14.832518983176328" lon="120.90414210420009"><ele>7.333333333333334</ele><time>2026-03-29T10:46:13.001Z</time></trkpt><trkpt lat="14.832425095819664" lon="120.90431667985764"><ele>7.0</ele><time>2026-03-29T10:46:14.001Z</time></trkpt><trkpt lat="14.83233108219511" lon="120.90449045451409"><ele>8.0</ele><time>2026-03-29T10:46:15.001Z</time></trkpt><trkpt lat="14.832236174335222" lon="120.9046647128339"><ele>9.0</ele><time>2026-03-29T10:46:16.001Z</time></trkpt><trkpt lat="14.832141272733374" lon="120.90484115311551"><ele>10.0</ele><time>2026-03-29T10:46:17.001Z</time></trkpt><trkpt lat="14.832045793001488" lon="120.90501890253896"><ele>10.0</ele><time>2026-03-29T10:46:18.001Z</time></trkpt><trkpt lat="14.831951077920545" lon="120.90519844580375"><ele>10.0</ele><time>2026-03-29T10:46:19.001Z</time></trkpt><trkpt lat="14.831860389604788" lon="120.90537693327776"><ele>10.0</ele><time>2026-03-29T10:46:20.001Z</time></trkpt><trkpt lat="14.831763956160316" lon="120.90555903962247"><ele>10.0</ele><time>2026-03-29T10:46:21.001Z</time></trkpt><trkpt lat="14.831665904770949" lon="120.90574313597617"><ele>10.0</ele><time>2026-03-29T10:46:22.001Z</time></trkpt><trkpt lat="14.831566857730339" lon="120.90592893449956"><ele>10.0</ele><time>2026-03-29T10:46:23.001Z</time></trkpt><trkpt lat="14.831466801569714" lon="120.90611515347676"><ele>9.0</ele><time>2026-03-29T10:46:24.001Z</time></trkpt><trkpt lat="14.831365818249191" lon="120.90630291570513"><ele>8.0</ele><time>2026-03-29T10:46:25.001Z</time></trkpt><trkpt lat="14.831264991382708" lon="120.90649223857996"><ele>7.0</ele><time>2026-03-29T10:46:26.001Z</time></trkpt><trkpt lat="14.831164834730956" lon="120.90668346667017"><ele>7.0</ele><time>2026-03-29T10:46:27.001Z</time></trkpt><trkpt lat="14.831063246071578" lon="120.90687541666752"><ele>7.0</ele><time>2026-03-29T10:46:28.001Z</time></trkpt><trkpt lat="14.830960166358848" lon="120.90706833090674"><ele>7.0</ele><time>2026-03-29T10:46:29.001Z</time></trkpt><trkpt lat="14.830855962612132" lon="120.90726178210798"><ele>7.0</ele><time>2026-03-29T10:46:30.001Z</time></trkpt><trkpt lat="14.830750740819349" lon="120.90745743999771"><ele>7.0</ele><time>2026-03-29T10:46:31Z</time></trkpt><trkpt lat="14.830644251113126" lon="120.9076554076795"><ele>7.0</ele><time>2026-03-29T10:46:32Z</time></trkpt><trkpt lat="14.830536702787526" lon="120.90785505634602"><ele>7.0</ele><time>2026-03-29T10:46:33Z</time></trkpt><trkpt lat="14.830428886582535" lon="120.90805822934368"><ele>7.0</ele><time>2026-03-29T10:46:34Z</time></trkpt><trkpt lat="14.8303201938399" lon="120.908263790809"><ele>6.5</ele><time>2026-03-29T10:46:35Z</time></trkpt><trkpt lat="14.830209369003096" lon="120.90847094669698"><ele>6.0</ele><time>2026-03-29T10:46:36Z</time></trkpt><trkpt lat="14.83009621919806" lon="120.90868055824359"><ele>7.0</ele><time>2026-03-29T10:46:37Z</time></trkpt><trkpt lat="14.82998276593535" lon="120.90889284831543"><ele>8.0</ele><time>2026-03-29T10:46:38Z</time></trkpt><trkpt lat="14.829868781869093" lon="120.90910704059226"><ele>7.0</ele><time>2026-03-29T10:46:39Z</time></trkpt><trkpt lat="14.829754562842105" lon="120.90932285171283"><ele>6.0</ele><time>2026-03-29T10:46:40Z</time></trkpt><trkpt lat="14.829639933153253" lon="120.90953919699737"><ele>6.0</ele><time>2026-03-29T10:46:41Z</time></trkpt><trkpt lat="14.829525525209414" lon="120.90975614454216"><ele>6.0</ele><time>2026-03-29T10:46:42Z</time></trkpt><trkpt lat="14.829409884179496" lon="120.90997291054798"><ele>5.5</ele><time>2026-03-29T10:46:43Z</time></trkpt><trkpt lat="14.829293250531968" lon="120.91019039886147"><ele>5.0</ele><time>2026-03-29T10:46:44Z</time></trkpt><trkpt lat="14.82917642364173" lon="120.91040792546963"><ele>5.0</ele><time>2026-03-29T10:46:45Z</time></trkpt><trkpt lat="14.829059013559135" lon="120.91062497567918"><ele>5.0</ele><time>2026-03-29T10:46:46Z</time></trkpt><trkpt lat="14.82894062183905" lon="120.9108431704337"><ele>5.0</ele><time>2026-03-29T10:46:47Z</time></trkpt><trkpt lat="14.82881977049778" lon="120.9110628559945"><ele>5.0</ele><time>2026-03-29T10:46:48Z</time></trkpt><trkpt lat="14.828696034159437" lon="120.91128300042547"><ele>5.0</ele><time>2026-03-29T10:46:49Z</time></trkpt><trkpt lat="14.82857121215908" lon="120.91150651901181"><ele>5.0</ele><time>2026-03-29T10:46:50Z</time></trkpt><trkpt lat="14.828445064116917" lon="120.911733838059"><ele>5.5</ele><time>2026-03-29T10:46:51Z</time></trkpt><trkpt lat="14.828319614732768" lon="120.91196430288477"><ele>6.0</ele><time>2026-03-29T10:46:52Z</time></trkpt><trkpt lat="14.828193346559207" lon="120.91219756949462"><ele>6.0</ele><time>2026-03-29T10:46:53Z</time></trkpt><trkpt lat="14.828066387706233" lon="120.91243281964101"><ele>6.0</ele><time>2026-03-29T10:46:54Z</time></trkpt><trkpt lat="14.827939239735256" lon="120.91266976038696"><ele>6.0</ele><time>2026-03-29T10:46:55Z</time></trkpt><trkpt lat="14.827812281555502" lon="120.91290763590095"><ele>6.0</ele><time>2026-03-29T10:46:56Z</time></trkpt><trkpt lat="14.827684538579108" lon="120.9131462493174"><ele>6.5</ele><time>2026-03-29T10:46:57Z</time></trkpt><trkpt lat="14.827556392968951" lon="120.91338492683744"><ele>7.0</ele><time>2026-03-29T10:46:58Z</time></trkpt><trkpt lat="14.827428290139652" lon="120.91362438420542"><ele>6.0</ele><time>2026-03-29T10:46:59Z</time></trkpt><trkpt lat="14.827299486739541" lon="120.91386498988848"><ele>5.0</ele><time>2026-03-29T10:47:00Z</time></trkpt><trkpt lat="14.827172861272718" lon="120.91410825135921"><ele>5.5</ele><time>2026-03-29T10:47:01Z</time></trkpt><trkpt lat="14.82705062057668" lon="120.91434985133338"><ele>6.0</ele><time>2026-03-29T10:47:02Z</time></trkpt><trkpt lat="14.826929411886685" lon="120.91458793879042"><ele>6.0</ele><time>2026-03-29T10:47:03Z</time></trkpt><trkpt lat="14.826811059675242" lon="120.91482091602208"><ele>6.0</ele><time>2026-03-29T10:47:04Z</time></trkpt><trkpt lat="14.826695216632334" lon="120.91504569994702"><ele>7.0</ele><time>2026-03-29T10:47:05Z</time></trkpt><trkpt lat="14.826581574699507" lon="120.91526718681492"><ele>8.0</ele><time>2026-03-29T10:47:06Z</time></trkpt><trkpt lat="14.826468171357396" lon="120.9154824700823"><ele>8.0</ele><time>2026-03-29T10:47:07Z</time></trkpt><trkpt lat="14.826356090001335" lon="120.91569465579339"><ele>8.0</ele><time>2026-03-29T10:47:08Z</time></trkpt><trkpt lat="14.826245294078497" lon="120.91590464688493"><ele>7.5</ele><time>2026-03-29T10:47:09Z</time></trkpt><trkpt lat="14.826135963329481" lon="120.91611276394796"><ele>7.0</ele><time>2026-03-29T10:47:10Z</time></trkpt><trkpt lat="14.826027907227031" lon="120.91631847836275"><ele>7.5</ele><time>2026-03-29T10:47:11Z</time></trkpt><trkpt lat="14.825919628663339" lon="120.91652296705519"><ele>8.0</ele><time>2026-03-29T10:47:12Z</time></trkpt><trkpt lat="14.825810822495706" lon="120.916728648504"><ele>7.0</ele><time>2026-03-29T10:47:13Z</time></trkpt><trkpt lat="14.825699004128827" lon="120.91693610217476"><ele>6.0</ele><time>2026-03-29T10:47:14Z</time></trkpt><trkpt lat="14.825587125157755" lon="120.91714507768944"><ele>6.0</ele><time>2026-03-29T10:47:15Z</time></trkpt><trkpt lat="14.82547316477146" lon="120.91735564710096"><ele>6.0</ele><time>2026-03-29T10:47:16Z</time></trkpt><trkpt lat="14.825360205090183" lon="120.9175663292639"><ele>6.5</ele><time>2026-03-29T10:47:17Z</time></trkpt><trkpt lat="14.825245320380725" lon="120.91777603805251"><ele>7.0</ele><time>2026-03-29T10:47:18Z</time></trkpt><trkpt lat="14.825127259583015" lon="120.91798701048022"><ele>7.0</ele><time>2026-03-29T10:47:19Z</time></trkpt><trkpt lat="14.82500821197318" lon="120.91820012374657"><ele>7.0</ele><time>2026-03-29T10:47:20Z</time></trkpt><trkpt lat="14.82488645235794" lon="120.9184152530867"><ele>7.5</ele><time>2026-03-29T10:47:21Z</time></trkpt><trkpt lat="14.824764224009556" lon="120.91863487044627"><ele>8.0</ele><time>2026-03-29T10:47:22Z</time></trkpt><trkpt lat="14.824641900529574" lon="120.91885774216043"><ele>8.0</ele><time>2026-03-29T10:47:23Z</time></trkpt><trkpt lat="14.824518137567628" lon="120.91908328059289"><ele>8.0</ele><time>2026-03-29T10:47:24Z</time></trkpt><trkpt lat="14.824397065042097" lon="120.91931087603153"><ele>8.0</ele><time>2026-03-29T10:47:25Z</time></trkpt><trkpt lat="14.824275460830153" lon="120.91953915025042"><ele>8.0</ele><time>2026-03-29T10:47:26Z</time></trkpt><trkpt lat="14.824151702157796" lon="120.919767663515"><ele>8.0</ele><time>2026-03-29T10:47:27Z</time></trkpt><trkpt lat="14.824030499812887" lon="120.919998211522"><ele>8.0</ele><time>2026-03-29T10:47:28Z</time></trkpt><trkpt lat="14.823908511289172" lon="120.92022736213937"><ele>8.0</ele><time>2026-03-29T10:47:29Z</time></trkpt><trkpt lat="14.823787961841159" lon="120.92045577162615"><ele>8.0</ele><time>2026-03-29T10:47:30Z</time></trkpt><trkpt lat="14.823666690728533" lon="120.92068011512741"><ele>8.0</ele><time>2026-03-29T10:47:31Z</time></trkpt><trkpt lat="14.823550171824854" lon="120.92090350832747"><ele>8.0</ele><time>2026-03-29T10:47:32Z</time></trkpt><trkpt lat="14.823432900343569" lon="120.92111781729591"><ele>8.0</ele><time>2026-03-29T10:47:33Z</time></trkpt><trkpt lat="14.82331817072835" lon="120.92133244547193"><ele>8.0</ele><time>2026-03-29T10:47:34Z</time></trkpt><trkpt lat="14.823207462915853" lon="120.92154455444586"><ele>7.0</ele><time>2026-03-29T10:47:35Z</time></trkpt><trkpt lat="14.823094921877733" lon="120.92175626921274"><ele>6.0</ele><time>2026-03-29T10:47:36Z</time></trkpt><trkpt lat="14.822979723857394" lon="120.92196815675318"><ele>6.0</ele><time>2026-03-29T10:47:37Z</time></trkpt><trkpt lat="14.822864725573412" lon="120.92218095489714"><ele>6.0</ele><time>2026-03-29T10:47:38Z</time></trkpt><trkpt lat="14.822750310649505" lon="120.92239523764954"><ele>6.0</ele><time>2026-03-29T10:47:39Z</time></trkpt><trkpt lat="14.822636593856604" lon="120.92261243263243"><ele>6.0</ele><time>2026-03-29T10:47:40Z</time></trkpt><trkpt lat="14.822518799422529" lon="120.92283013011433"><ele>6.0</ele><time>2026-03-29T10:47:41Z</time></trkpt><trkpt lat="14.822402939658893" lon="120.92304996194879"><ele>6.0</ele><time>2026-03-29T10:47:42Z</time></trkpt><trkpt lat="14.822284670066324" lon="120.92326913183082"><ele>6.0</ele><time>2026-03-29T10:47:43Z</time></trkpt><trkpt lat="14.822168520892282" lon="120.92348781692942"><ele>6.0</ele><time>2026-03-29T10:47:44Z</time></trkpt><trkpt lat="14.822053667189415" lon="120.92370553927478"><ele>6.0</ele><time>2026-03-29T10:47:45Z</time></trkpt><trkpt lat="14.821937095463916" lon="120.9239202671089"><ele>6.0</ele><time>2026-03-29T10:47:46Z</time></trkpt><trkpt lat="14.821823995230389" lon="120.92413680325909"><ele>6.0</ele><time>2026-03-29T10:47:47Z</time></trkpt><trkpt lat="14.821710043534104" lon="120.9243510497736"><ele>6.0</ele><time>2026-03-29T10:47:48Z</time></trkpt><trkpt lat="14.821597222589773" lon="120.92456376785316"><ele>6.0</ele><time>2026-03-29T10:47:49Z</time></trkpt><trkpt lat="14.821482850718585" lon="120.92477317040631"><ele>6.0</ele><time>2026-03-29T10:47:50Z</time></trkpt><trkpt lat="14.821369306843046" lon="120.92498400084534"><ele>6.0</ele><time>2026-03-29T10:47:51Z</time></trkpt><trkpt lat="14.82125464569548" lon="120.9251962933262"><ele>6.0</ele><time>2026-03-29T10:47:52Z</time></trkpt><trkpt lat="14.821142042316765" lon="120.9254105085879"><ele>6.0</ele><time>2026-03-29T10:47:53Z</time></trkpt><trkpt lat="14.82102560793172" lon="120.92562611498717"><ele>6.0</ele><time>2026-03-29T10:47:54Z</time></trkpt><trkpt lat="14.820911953807784" lon="120.92584272021867"><ele>7.0</ele><time>2026-03-29T10:47:55Z</time></trkpt><trkpt lat="14.820800390194503" lon="120.92606110600518"><ele>8.0</ele><time>2026-03-29T10:47:56Z</time></trkpt><trkpt lat="14.820690390193827" lon="120.92628156976215"><ele>8.0</ele><time>2026-03-29T10:47:57Z</time></trkpt><trkpt lat="14.820579014093235" lon="120.9265036400169"><ele>8.0</ele><time>2026-03-29T10:47:58Z</time></trkpt><trkpt lat="14.820466402945" lon="120.92672568158633"><ele>9.0</ele><time>2026-03-29T10:47:59Z</time></trkpt><trkpt lat="14.82035112435393" lon="120.92694655875957"><ele>10.0</ele><time>2026-03-29T10:48:00Z</time></trkpt><trkpt lat="14.820234769862298" lon="120.92716724944849"><ele>9.0</ele><time>2026-03-29T10:48:01Z</time></trkpt><trkpt lat="14.820115460684265" lon="120.92738646060346"><ele>8.0</ele><time>2026-03-29T10:48:02Z</time></trkpt><trkpt lat="14.819998976944365" lon="120.92760632287275"><ele>8.0</ele><time>2026-03-29T10:48:03Z</time></trkpt><trkpt lat="14.819881846470324" lon="120.92782517269161"><ele>8.0</ele><time>2026-03-29T10:48:04Z</time></trkpt><trkpt lat="14.819764279556955" lon="120.92804539866938"><ele>8.0</ele><time>2026-03-29T10:48:05Z</time></trkpt><trkpt lat="14.819646334232736" lon="120.92826430143315"><ele>8.0</ele><time>2026-03-29T10:48:06Z</time></trkpt><trkpt lat="14.819527746530209" lon="120.92848247174184"><ele>7.5</ele><time>2026-03-29T10:48:07.001Z</time></trkpt><trkpt lat="14.819409599270063" lon="120.92870397908912"><ele>7.0</ele><time>2026-03-29T10:48:08.001Z</time></trkpt><trkpt lat="14.8192907954304" lon="120.92892427632408"><ele>8.0</ele><time>2026-03-29T10:48:09.001Z</time></trkpt><trkpt lat="14.819173722458842" lon="120.9291453592828"><ele>9.0</ele><time>2026-03-29T10:48:10.001Z</time></trkpt><trkpt lat="14.819054641160458" lon="120.92936694281282"><ele>9.0</ele><time>2026-03-29T10:48:11.001Z</time></trkpt><trkpt lat="14.818935669138353" lon="120.92958885960033"><ele>9.0</ele><time>2026-03-29T10:48:12.001Z</time></trkpt><trkpt lat="14.818817181726585" lon="120.9298108036787"><ele>9.0</ele><time>2026-03-29T10:48:13.001Z</time></trkpt><trkpt lat="14.818698992933074" lon="120.93003299949163"><ele>9.0</ele><time>2026-03-29T10:48:14.001Z</time></trkpt><trkpt lat="14.818581346859574" lon="120.93025495331496"><ele>9.0</ele><time>2026-03-29T10:48:15.001Z</time></trkpt><trkpt lat="14.818464523058468" lon="120.93047501228395"><ele>9.0</ele><time>2026-03-29T10:48:16.001Z</time></trkpt><trkpt lat="14.818348799395485" lon="120.93069297836085"><ele>9.5</ele><time>2026-03-29T10:48:17.001Z</time></trkpt><trkpt lat="14.8182330926158" lon="120.93090596501787"><ele>10.0</ele><time>2026-03-29T10:48:18.001Z</time></trkpt><trkpt lat="14.818119869159613" lon="120.9311190481939"><ele>10.0</ele><time>2026-03-29T10:48:19.001Z</time></trkpt><trkpt lat="14.818008261991045" lon="120.93133154368341"><ele>10.0</ele><time>2026-03-29T10:48:20.001Z</time></trkpt><trkpt lat="14.81789391450688" lon="120.93154204695722"><ele>8.0</ele><time>2026-03-29T10:48:21.001Z</time></trkpt><trkpt lat="14.81777958799056" lon="120.93175092055112"><ele>6.0</ele><time>2026-03-29T10:48:22.001Z</time></trkpt><trkpt lat="14.817664095346144" lon="120.93195659228977"><ele>7.0</ele><time>2026-03-29T10:48:23.001Z</time></trkpt><trkpt lat="14.81754703942" lon="120.93215959916334"><ele>8.0</ele><time>2026-03-29T10:48:24.001Z</time></trkpt><trkpt lat="14.817427154477997" lon="120.93235928442763"><ele>8.0</ele><time>2026-03-29T10:48:25.001Z</time></trkpt><trkpt lat="14.817303882207584" lon="120.93255687355496"><ele>8.0</ele><time>2026-03-29T10:48:26.001Z</time></trkpt><trkpt lat="14.817175150853673" lon="120.93275020063682"><ele>8.0</ele><time>2026-03-29T10:48:27.001Z</time></trkpt><trkpt lat="14.81704095967247" lon="120.93293894340307"><ele>8.0</ele><time>2026-03-29T10:48:28.001Z</time></trkpt><trkpt lat="14.816902092206345" lon="120.93312262258229"><ele>8.0</ele><time>2026-03-29T10:48:29.001Z</time></trkpt><trkpt lat="14.816761101153595" lon="120.9333021617789"><ele>8.0</ele><time>2026-03-29T10:48:30.001Z</time></trkpt><trkpt lat="14.816619657661962" lon="120.93347554551858"><ele>8.0</ele><time>2026-03-29T10:48:31.001Z</time></trkpt><trkpt lat="14.81647670831154" lon="120.9336426494179"><ele>8.0</ele><time>2026-03-29T10:48:32.001Z</time></trkpt><trkpt lat="14.816334947532768" lon="120.93380173593452"><ele>8.0</ele><time>2026-03-29T10:48:33.001Z</time></trkpt><trkpt lat="14.816193152450742" lon="120.93395581964161"><ele>8.0</ele><time>2026-03-29T10:48:34.001Z</time></trkpt><trkpt lat="14.816051655114107" lon="120.93410559147733"><ele>8.666666666666666</ele><time>2026-03-29T10:48:35.001Z</time></trkpt><trkpt lat="14.815909042907776" lon="120.9342504327021"><ele>9.333333333333334</ele><time>2026-03-29T10:48:36.001Z</time></trkpt><trkpt lat="14.815765226302224" lon="120.934391691937"><ele>10.0</ele><time>2026-03-29T10:48:37Z</time></trkpt><trkpt lat="14.815619466269256" lon="120.93452973865907"><ele>10.0</ele><time>2026-03-29T10:48:38Z</time></trkpt><trkpt lat="14.815472573787751" lon="120.93466288656272"><ele>10.0</ele><time>2026-03-29T10:48:39Z</time></trkpt><trkpt lat="14.815326147009351" lon="120.93479089828296"><ele>10.0</ele><time>2026-03-29T10:48:40Z</time></trkpt><trkpt lat="14.815177666535211" lon="120.93491570780026"><ele>11.0</ele><time>2026-03-29T10:48:41Z</time></trkpt><trkpt lat="14.815025116855924" lon="120.93503707738374"><ele>12.0</ele><time>2026-03-29T10:48:42Z</time></trkpt><trkpt lat="14.814870663480148" lon="120.93515834641181"><ele>13.0</ele><time>2026-03-29T10:48:43Z</time></trkpt><trkpt lat="14.814711372053427" lon="120.9352739092728"><ele>13.0</ele><time>2026-03-29T10:48:44Z</time></trkpt><trkpt lat="14.814547908363606" lon="120.93538927542536"><ele>13.0</ele><time>2026-03-29T10:48:45Z</time></trkpt><trkpt lat="14.814382973582893" lon="120.93550224819553"><ele>13.0</ele><time>2026-03-29T10:48:46Z</time></trkpt><trkpt lat="14.81421604861259" lon="120.93561257220396"><ele>12.333333333333332</ele><time>2026-03-29T10:48:47Z</time></trkpt><trkpt lat="14.814049639842818" lon="120.93571827122602"><ele>11.666666666666666</ele><time>2026-03-29T10:48:48Z</time></trkpt><trkpt lat="14.813881719646417" lon="120.93582063560375"><ele>11.0</ele><time>2026-03-29T10:48:49Z</time></trkpt><trkpt lat="14.81371297223326" lon="120.93591845058307"><ele>10.333333333333332</ele><time>2026-03-29T10:48:50Z</time></trkpt><trkpt lat="14.813547046113237" lon="120.93601112909346"><ele>9.666666666666666</ele><time>2026-03-29T10:48:51Z</time></trkpt><trkpt lat="14.813382286162533" lon="120.93610105649226"><ele>9.0</ele><time>2026-03-29T10:48:52Z</time></trkpt><trkpt lat="14.813219764342346" lon="120.93618856527051"><ele>9.0</ele><time>2026-03-29T10:48:53Z</time></trkpt><trkpt lat="14.813059788943825" lon="120.93627521221735"><ele>9.0</ele><time>2026-03-29T10:48:54Z</time></trkpt><trkpt lat="14.812901038913523" lon="120.93636127599181"><ele>9.0</ele><time>2026-03-29T10:48:55Z</time></trkpt><trkpt lat="14.81274210411893" lon="120.93644750618697"><ele>9.666666666666666</ele><time>2026-03-29T10:48:56Z</time></trkpt><trkpt lat="14.812582618205237" lon="120.93653333336466"><ele>10.333333333333332</ele><time>2026-03-29T10:48:57Z</time></trkpt><trkpt lat="14.81242282368681" lon="120.93662058681613"><ele>11.0</ele><time>2026-03-29T10:48:58Z</time></trkpt><trkpt lat="14.812261839222224" lon="120.93670752857741"><ele>10.333333333333332</ele><time>2026-03-29T10:48:59Z</time></trkpt><trkpt lat="14.812101259915508" lon="120.93679521578166"><ele>9.666666666666666</ele><time>2026-03-29T10:49:00Z</time></trkpt><trkpt lat="14.811941005235882" lon="120.93688166157659"><ele>9.0</ele><time>2026-03-29T10:49:01Z</time></trkpt><trkpt lat="14.81178120481266" lon="120.93696839927341"><ele>9.0</ele><time>2026-03-29T10:49:02Z</time></trkpt><trkpt lat="14.81162284009435" lon="120.93705293901702"><ele>9.0</ele><time>2026-03-29T10:49:03Z</time></trkpt><trkpt lat="14.811465805005259" lon="120.9371385912779"><ele>9.0</ele><time>2026-03-29T10:49:04Z</time></trkpt><trkpt lat="14.811311656131268" lon="120.93722229801372"><ele>9.0</ele><time>2026-03-29T10:49:05Z</time></trkpt><trkpt lat="14.811158644886268" lon="120.93730495230912"><ele>9.0</ele><time>2026-03-29T10:49:06Z</time></trkpt><trkpt lat="14.811008825816492" lon="120.93738610136067"><ele>9.0</ele><time>2026-03-29T10:49:07Z</time></trkpt><trkpt lat="14.810861227434067" lon="120.93746641956648"><ele>9.666666666666666</ele><time>2026-03-29T10:49:08Z</time></trkpt><trkpt lat="14.810716973645116" lon="120.93754612511343"><ele>10.333333333333332</ele><time>2026-03-29T10:49:09Z</time></trkpt><trkpt lat="14.810574420529248" lon="120.93762334581308"><ele>11.0</ele><time>2026-03-29T10:49:10Z</time></trkpt><trkpt lat="14.81043400926237" lon="120.93769903763776"><ele>11.0</ele><time>2026-03-29T10:49:11Z</time></trkpt><trkpt lat="14.810284770965602" lon="120.93775807746965"><ele>11.0</ele><time>2026-03-29T10:49:12Z</time></trkpt><trkpt lat="14.810144564099398" lon="120.93783101587866"><ele>11.0</ele><time>2026-03-29T10:49:13Z</time></trkpt><trkpt lat="14.8100069041845" lon="120.93790233545303"><ele>10.75</ele><time>2026-03-29T10:49:14Z</time></trkpt><trkpt lat="14.809875395374346" lon="120.93797046825678"><ele>10.5</ele><time>2026-03-29T10:49:15Z</time></trkpt><trkpt lat="14.809746663215742" lon="120.93803716245303"><ele>10.25</ele><time>2026-03-29T10:49:16Z</time></trkpt><trkpt lat="14.809619218226805" lon="120.93810318979264"><ele>10.0</ele><time>2026-03-29T10:49:17Z</time></trkpt><trkpt lat="14.809493245464127" lon="120.93816845501483"><ele>10.0</ele><time>2026-03-29T10:49:18Z</time></trkpt><trkpt lat="14.809370293788746" lon="120.93823995020801"><ele>10.0</ele><time>2026-03-29T10:49:19Z</time></trkpt><trkpt lat="14.809263442676922" lon="120.93833257098198"><ele>10.0</ele><time>2026-03-29T10:49:20Z</time></trkpt><trkpt lat="14.809142685481635" lon="120.93839947571489"><ele>10.0</ele><time>2026-03-29T10:49:21Z</time></trkpt><trkpt lat="14.809020536782334" lon="120.93846761812658"><ele>10.0</ele><time>2026-03-29T10:49:22Z</time></trkpt><trkpt lat="14.808898256628602" lon="120.93853360996324"><ele>10.0</ele><time>2026-03-29T10:49:23Z</time></trkpt><trkpt lat="14.808774128009716" lon="120.93860192642155"><ele>10.0</ele><time>2026-03-29T10:49:24Z</time></trkpt><trkpt lat="14.808649054842553" lon="120.93867133454674"><ele>10.0</ele><time>2026-03-29T10:49:25Z</time></trkpt><trkpt lat="14.80852324646761" lon="120.9387416696882"><ele>9.75</ele><time>2026-03-29T10:49:26Z</time></trkpt><trkpt lat="14.8083944066708" lon="120.9388135816444"><ele>9.5</ele><time>2026-03-29T10:49:27Z</time></trkpt><trkpt lat="14.808263318317849" lon="120.9388856059234"><ele>9.25</ele><time>2026-03-29T10:49:28Z</time></trkpt><trkpt lat="14.808130896871713" lon="120.93895912935686"><ele>9.0</ele><time>2026-03-29T10:49:29Z</time></trkpt><trkpt lat="14.807997277479517" lon="120.939031541075"><ele>9.0</ele><time>2026-03-29T10:49:30Z</time></trkpt><trkpt lat="14.807862744678955" lon="120.93910493327466"><ele>9.0</ele><time>2026-03-29T10:49:31Z</time></trkpt><trkpt lat="14.807730277891832" lon="120.93917683198003"><ele>9.0</ele><time>2026-03-29T10:49:32Z</time></trkpt><trkpt lat="14.807596098661623" lon="120.93925058490214"><ele>9.666666666666666</ele><time>2026-03-29T10:49:33Z</time></trkpt><trkpt lat="14.807460660330952" lon="120.93932501874964"><ele>10.333333333333332</ele><time>2026-03-29T10:49:34Z</time></trkpt><trkpt lat="14.807324090227816" lon="120.93939941146057"><ele>11.0</ele><time>2026-03-29T10:49:35Z</time></trkpt><trkpt lat="14.807185335588253" lon="120.93947351894516"><ele>11.0</ele><time>2026-03-29T10:49:36Z</time></trkpt><trkpt lat="14.807046590290682" lon="120.9395477964718"><ele>11.0</ele><time>2026-03-29T10:49:37Z</time></trkpt><trkpt lat="14.806909598588794" lon="120.9396210544807"><ele>11.0</ele><time>2026-03-29T10:49:38Z</time></trkpt><trkpt lat="14.806774859093142" lon="120.9396932513763"><ele>11.25</ele><time>2026-03-29T10:49:39Z</time></trkpt><trkpt lat="14.806644098335049" lon="120.93976383253865"><ele>11.5</ele><time>2026-03-29T10:49:40Z</time></trkpt><trkpt lat="14.806515860732121" lon="120.93983336839463"><ele>11.75</ele><time>2026-03-29T10:49:41Z</time></trkpt><trkpt lat="14.806390937768777" lon="120.9399012306212"><ele>12.0</ele><time>2026-03-29T10:49:42Z</time></trkpt><trkpt lat="14.806267570253562" lon="120.9399680725452"><ele>12.0</ele><time>2026-03-29T10:49:43Z</time></trkpt><trkpt lat="14.806148414560155" lon="120.94003283538534"><ele>12.0</ele><time>2026-03-29T10:49:44Z</time></trkpt><trkpt lat="14.806032430015174" lon="120.94009539756402"><ele>12.0</ele><time>2026-03-29T10:49:45Z</time></trkpt><trkpt lat="14.805918300251676" lon="120.94015726231733"><ele>12.0</ele><time>2026-03-29T10:49:46Z</time></trkpt><trkpt lat="14.805807325994468" lon="120.94021852707728"><ele>11.0</ele><time>2026-03-29T10:49:47Z</time></trkpt><trkpt lat="14.805698672965653" lon="120.9402775970434"><ele>10.0</ele><time>2026-03-29T10:49:48Z</time></trkpt><trkpt lat="14.80559012191968" lon="120.94033806593241"><ele>9.0</ele><time>2026-03-29T10:49:49Z</time></trkpt><trkpt lat="14.805480591225662" lon="120.94040118346041"><ele>8.0</ele><time>2026-03-29T10:49:50Z</time></trkpt><trkpt lat="14.805374805631677" lon="120.94047370774543"><ele>8.0</ele><time>2026-03-29T10:49:51Z</time></trkpt><trkpt lat="14.80527088195914" lon="120.94055518453393"><ele>8.0</ele><time>2026-03-29T10:49:52Z</time></trkpt><trkpt lat="14.805157697569541" lon="120.94063114027944"><ele>8.0</ele><time>2026-03-29T10:49:53Z</time></trkpt><trkpt lat="14.80506192645155" lon="120.94074103354774"><ele>8.0</ele><time>2026-03-29T10:49:54Z</time></trkpt><trkpt lat="14.804955400995011" lon="120.94083897146243"><ele>8.0</ele><time>2026-03-29T10:49:55Z</time></trkpt><trkpt lat="14.804846149969938" lon="120.94093950164712"><ele>8.0</ele><time>2026-03-29T10:49:56Z</time></trkpt><trkpt lat="14.804736728364977" lon="120.9410414525474"><ele>8.0</ele><time>2026-03-29T10:49:57Z</time></trkpt><trkpt lat="14.80462837975215" lon="120.94114294386753"><ele>8.0</ele><time>2026-03-29T10:49:58Z</time></trkpt><trkpt lat="14.804522217464934" lon="120.94123993330655"><ele>8.0</ele><time>2026-03-29T10:49:59Z</time></trkpt><trkpt lat="14.804414551140086" lon="120.94133263675097"><ele>8.0</ele><time>2026-03-29T10:50:00Z</time></trkpt><trkpt lat="14.804304409343063" lon="120.94142453798656"><ele>8.0</ele><time>2026-03-29T10:50:01Z</time></trkpt><trkpt lat="14.804193801801885" lon="120.94151685156255"><ele>8.0</ele><time>2026-03-29T10:50:02Z</time></trkpt><trkpt lat="14.804081478611131" lon="120.94161018338991"><ele>7.666666666666666</ele><time>2026-03-29T10:50:03Z</time></trkpt><trkpt lat="14.803969601970957" lon="120.94170124990222"><ele>7.333333333333334</ele><time>2026-03-29T10:50:04Z</time></trkpt><trkpt lat="14.803860039643675" lon="120.94179175693465"><ele>7.0</ele><time>2026-03-29T10:50:05Z</time></trkpt><trkpt lat="14.803880947256372" lon="120.94202384568956"><ele>7.0</ele><time>2026-03-29T10:50:06Z</time></trkpt><trkpt lat="14.803779600384896" lon="120.94212338350215"><ele>7.0</ele><time>2026-03-29T10:50:07Z</time></trkpt><trkpt lat="14.803681462455522" lon="120.94221964916527"><ele>7.0</ele><time>2026-03-29T10:50:08Z</time></trkpt><trkpt lat="14.80358778604988" lon="120.94231132882415"><ele>7.0</ele><time>2026-03-29T10:50:09Z</time></trkpt><trkpt lat="14.803476551319067" lon="120.94240505306986"><ele>7.0</ele><time>2026-03-29T10:50:10Z</time></trkpt><trkpt lat="14.803390185212777" lon="120.94247251428386"><ele>6.999999999999999</ele><time>2026-03-29T10:50:11Z</time></trkpt><trkpt lat="14.803305217535689" lon="120.94253911985429"><ele>6.999999999999999</ele><time>2026-03-29T10:50:12Z</time></trkpt><trkpt lat="14.803226484390098" lon="120.94260083821838"><ele>7.0</ele><time>2026-03-29T10:50:13Z</time></trkpt><trkpt lat="14.80315291619896" lon="120.94265850781255"><ele>7.0</ele><time>2026-03-29T10:50:14Z</time></trkpt><trkpt lat="14.803052519328965" lon="120.94271766439944"><ele>7.000000000000001</ele><time>2026-03-29T10:50:15Z</time></trkpt><trkpt lat="14.802988695749391" lon="120.94275387338219"><ele>7.0</ele><time>2026-03-29T10:50:16Z</time></trkpt><trkpt lat="14.80288798304052" lon="120.94281101064828"><ele>7.0</ele><time>2026-03-29T10:50:18Z</time></trkpt><trkpt lat="14.80281247955558" lon="120.9428538459841"><ele>7.0</ele><time>2026-03-29T10:50:20Z</time></trkpt><trkpt lat="14.802738504697386" lon="120.94289581407766"><ele>7.000000000000001</ele><time>2026-03-29T10:50:23Z</time></trkpt><trkpt lat="14.802683196630147" lon="120.9429271919361"><ele>7.0</ele><time>2026-03-29T10:50:33Z</time></trkpt><trkpt lat="14.802616440459161" lon="120.94296506465386"><ele>7.0</ele><time>2026-03-29T10:50:36Z</time></trkpt><trkpt lat="14.802524303861924" lon="120.94301733645301"><ele>6.999999999999999</ele><time>2026-03-29T10:50:38Z</time></trkpt><trkpt lat="14.802426647290542" lon="120.94305783413773"><ele>6.999999999999999</ele><time>2026-03-29T10:50:39Z</time></trkpt><trkpt lat="14.802356960515278" lon="120.94307933188053"><ele>7.0</ele><time>2026-03-29T10:50:40Z</time></trkpt><trkpt lat="14.802279007072375" lon="120.94310337981011"><ele>7.0</ele><time>2026-03-29T10:50:41Z</time></trkpt><trkpt lat="14.802151401631189" lon="120.94312706912268"><ele>7.0</ele><time>2026-03-29T10:50:42Z</time></trkpt><trkpt lat="14.802052802984427" lon="120.94313718726211"><ele>6.999999999999999</ele><time>2026-03-29T10:50:43Z</time></trkpt><trkpt lat="14.80195057191208" lon="120.94314767816124"><ele>6.999999999999999</ele><time>2026-03-29T10:50:44Z</time></trkpt><trkpt lat="14.801848921579042" lon="120.94315810946333"><ele>7.0</ele><time>2026-03-29T10:50:45Z</time></trkpt><trkpt lat="14.80174651212111" lon="120.9431686186675"><ele>7.0</ele><time>2026-03-29T10:50:46Z</time></trkpt><trkpt lat="14.801641077105732" lon="120.94317943835078"><ele>6.75</ele><time>2026-03-29T10:50:47Z</time></trkpt><trkpt lat="14.8015307255117" lon="120.94319076257048"><ele>6.5</ele><time>2026-03-29T10:50:48Z</time></trkpt><trkpt lat="14.801417011000476" lon="120.94320243189317"><ele>6.25</ele><time>2026-03-29T10:50:49Z</time></trkpt><trkpt lat="14.801301391808014" lon="120.94321429667004"><ele>6.0</ele><time>2026-03-29T10:50:50Z</time></trkpt><trkpt lat="14.801187590509306" lon="120.94322651688212"><ele>6.0</ele><time>2026-03-29T10:50:51Z</time></trkpt><trkpt lat="14.801071441603813" lon="120.94324081972015"><ele>6.0</ele><time>2026-03-29T10:50:52Z</time></trkpt><trkpt lat="14.800949943811737" lon="120.9432403512589"><ele>6.0</ele><time>2026-03-29T10:50:53Z</time></trkpt><trkpt lat="14.800835068663027" lon="120.94325014912377"><ele>6.0</ele><time>2026-03-29T10:50:54Z</time></trkpt><trkpt lat="14.80071794729649" lon="120.9432601385731"><ele>6.5</ele><time>2026-03-29T10:50:55Z</time></trkpt><trkpt lat="14.800600589778806" lon="120.94327014816355"><ele>7.0</ele><time>2026-03-29T10:50:56Z</time></trkpt><trkpt lat="14.800483358551158" lon="120.94328014698554"><ele>7.5</ele><time>2026-03-29T10:50:57Z</time></trkpt><trkpt lat="14.800365119274472" lon="120.94329023178241"><ele>8.0</ele><time>2026-03-29T10:50:58Z</time></trkpt><trkpt lat="14.800245868032937" lon="120.94330040289339"><ele>8.25</ele><time>2026-03-29T10:50:59Z</time></trkpt><trkpt lat="14.800134949226619" lon="120.9433152035876"><ele>8.5</ele><time>2026-03-29T10:51:00Z</time></trkpt><trkpt lat="14.800020278968512" lon="120.94336118522543"><ele>8.75</ele><time>2026-03-29T10:51:01Z</time></trkpt><trkpt lat="14.799904585194753" lon="120.94340757728104"><ele>9.0</ele><time>2026-03-29T10:51:02Z</time></trkpt><trkpt lat="14.79979131755143" lon="120.94345299648229"><ele>9.0</ele><time>2026-03-29T10:51:03Z</time></trkpt><trkpt lat="14.799682664247335" lon="120.94349656538142"><ele>9.0</ele><time>2026-03-29T10:51:04Z</time></trkpt><trkpt lat="14.799572180068632" lon="120.94352447626504"><ele>9.0</ele><time>2026-03-29T10:51:05Z</time></trkpt><trkpt lat="14.799478435184133" lon="120.94357486415342"><ele>9.0</ele><time>2026-03-29T10:51:06Z</time></trkpt><trkpt lat="14.799387595344546" lon="120.94362376702314"><ele>9.0</ele><time>2026-03-29T10:51:07Z</time></trkpt><trkpt lat="14.799299983157768" lon="120.94367202257008"><ele>9.2</ele><time>2026-03-29T10:51:08Z</time></trkpt><trkpt lat="14.799213923828122" lon="120.94372000288422"><ele>9.4</ele><time>2026-03-29T10:51:09Z</time></trkpt><trkpt lat="14.7991257226012" lon="120.94376929191729"><ele>9.6</ele><time>2026-03-29T10:51:10Z</time></trkpt><trkpt lat="14.79903272432038" lon="120.94382185653491"><ele>9.8</ele><time>2026-03-29T10:51:11Z</time></trkpt><trkpt lat="14.798935680594367" lon="120.94387737801806"><ele>10.0</ele><time>2026-03-29T10:51:12Z</time></trkpt><trkpt lat="14.798834901105353" lon="120.9439358554797"><ele>10.0</ele><time>2026-03-29T10:51:13Z</time></trkpt><trkpt lat="14.798732919083987" lon="120.94400035282096"><ele>10.0</ele><time>2026-03-29T10:51:14Z</time></trkpt><trkpt lat="14.798630763174316" lon="120.94406797304934"><ele>10.0</ele><time>2026-03-29T10:51:15Z</time></trkpt><trkpt lat="14.798526000222047" lon="120.94413663354075"><ele>10.0</ele><time>2026-03-29T10:51:16Z</time></trkpt><trkpt lat="14.798415965786269" lon="120.94420541780961"><ele>9.5</ele><time>2026-03-29T10:51:17Z</time></trkpt><trkpt lat="14.798303007768562" lon="120.94427490222674"><ele>9.0</ele><time>2026-03-29T10:51:18Z</time></trkpt><trkpt lat="14.798191793090988" lon="120.94434038193685"><ele>8.5</ele><time>2026-03-29T10:51:19Z</time></trkpt><trkpt lat="14.79808578424051" lon="120.94440002862346"><ele>8.0</ele><time>2026-03-29T10:51:20Z</time></trkpt><trkpt lat="14.797982018946675" lon="120.9444575175036"><ele>8.0</ele><time>2026-03-29T10:51:21Z</time></trkpt><trkpt lat="14.797880189157864" lon="120.94451608081665"><ele>8.0</ele><time>2026-03-29T10:51:22Z</time></trkpt><trkpt lat="14.797778061877537" lon="120.94457344310402"><ele>8.0</ele><time>2026-03-29T10:51:23Z</time></trkpt><trkpt lat="14.797673683317985" lon="120.94463112033807"><ele>8.0</ele><time>2026-03-29T10:51:24Z</time></trkpt><trkpt lat="14.797565664896732" lon="120.94468970711135"><ele>7.5</ele><time>2026-03-29T10:51:25Z</time></trkpt><trkpt lat="14.797455355651561" lon="120.94474946317739"><ele>7.0</ele><time>2026-03-29T10:51:26Z</time></trkpt><trkpt lat="14.797343356849437" lon="120.94481013697134"><ele>6.5</ele><time>2026-03-29T10:51:27Z</time></trkpt><trkpt lat="14.79722655763978" lon="120.94487344149942"><ele>6.0</ele><time>2026-03-29T10:51:28Z</time></trkpt><trkpt lat="14.797104508107825" lon="120.9449375503706"><ele>6.0</ele><time>2026-03-29T10:51:29Z</time></trkpt><trkpt lat="14.796976354783506" lon="120.94500385463692"><ele>6.0</ele><time>2026-03-29T10:51:30Z</time></trkpt><trkpt lat="14.796844133178313" lon="120.94507314776091"><ele>6.0</ele><time>2026-03-29T10:51:31Z</time></trkpt><trkpt lat="14.796706019006322" lon="120.94514302154114"><ele>6.0</ele><time>2026-03-29T10:51:32Z</time></trkpt><trkpt lat="14.79656408418407" lon="120.94521717567295"><ele>6.666666666666666</ele><time>2026-03-29T10:51:33Z</time></trkpt><trkpt lat="14.796417135041928" lon="120.94529441583617"><ele>7.333333333333333</ele><time>2026-03-29T10:51:34Z</time></trkpt><trkpt lat="14.796268078286873" lon="120.94537298425573"><ele>8.0</ele><time>2026-03-29T10:51:35Z</time></trkpt><trkpt lat="14.796116106910466" lon="120.94545292956691"><ele>8.0</ele><time>2026-03-29T10:51:36Z</time></trkpt><trkpt lat="14.795962552128973" lon="120.94553538731938"><ele>8.0</ele><time>2026-03-29T10:51:37Z</time></trkpt><trkpt lat="14.795806724760087" lon="120.94561890699065"><ele>8.0</ele><time>2026-03-29T10:51:38Z</time></trkpt><trkpt lat="14.79564932231289" lon="120.94570364602744"><ele>8.0</ele><time>2026-03-29T10:51:39Z</time></trkpt><trkpt lat="14.795491169572998" lon="120.94578997731666"><ele>8.0</ele><time>2026-03-29T10:51:40Z</time></trkpt><trkpt lat="14.795332015856037" lon="120.94587773624247"><ele>8.0</ele><time>2026-03-29T10:51:41Z</time></trkpt><trkpt lat="14.795174488670977" lon="120.94596496323857"><ele>7.666666666666666</ele><time>2026-03-29T10:51:42Z</time></trkpt><trkpt lat="14.795016756486593" lon="120.94605033921022"><ele>7.333333333333334</ele><time>2026-03-29T10:51:43Z</time></trkpt><trkpt lat="14.794857325097137" lon="120.9461364037149"><ele>7.0</ele><time>2026-03-29T10:51:44Z</time></trkpt><trkpt lat="14.794697442168708" lon="120.94622288367056"><ele>7.0</ele><time>2026-03-29T10:51:45Z</time></trkpt><trkpt lat="14.79453656608237" lon="120.94630934895672"><ele>7.0</ele><time>2026-03-29T10:51:46Z</time></trkpt><trkpt lat="14.794373981874552" lon="120.94639746682277"><ele>7.0</ele><time>2026-03-29T10:51:47Z</time></trkpt><trkpt lat="14.79421219733916" lon="120.94648544531023"><ele>7.666666666666667</ele><time>2026-03-29T10:51:48Z</time></trkpt><trkpt lat="14.79404890180583" lon="120.94657368173608"><ele>8.333333333333334</ele><time>2026-03-29T10:51:49Z</time></trkpt><trkpt lat="14.79388466191664" lon="120.94666193878918"><ele>9.0</ele><time>2026-03-29T10:51:50Z</time></trkpt><trkpt lat="14.793720608366753" lon="120.94675096355778"><ele>8.0</ele><time>2026-03-29T10:51:51Z</time></trkpt><trkpt lat="14.793558141204757" lon="120.94683932845352"><ele>7.0</ele><time>2026-03-29T10:51:52Z</time></trkpt><trkpt lat="14.793396272424447" lon="120.94692615265997"><ele>6.0</ele><time>2026-03-29T10:51:53Z</time></trkpt><trkpt lat="14.79323487848349" lon="120.94701338978815"><ele>6.0</ele><time>2026-03-29T10:51:54Z</time></trkpt><trkpt lat="14.793074085730469" lon="120.9471020291835"><ele>6.0</ele><time>2026-03-29T10:51:55Z</time></trkpt><trkpt lat="14.792911151663073" lon="120.94719122999776"><ele>6.0</ele><time>2026-03-29T10:51:56Z</time></trkpt><trkpt lat="14.792745983947873" lon="120.94728112658943"><ele>6.666666666666666</ele><time>2026-03-29T10:51:57Z</time></trkpt><trkpt lat="14.792581158428876" lon="120.9473721422736"><ele>7.333333333333333</ele><time>2026-03-29T10:51:58Z</time></trkpt><trkpt lat="14.792415895818824" lon="120.94746450735916"><ele>8.0</ele><time>2026-03-29T10:51:59Z</time></trkpt><trkpt lat="14.792249693694648" lon="120.9475552167654"><ele>8.0</ele><time>2026-03-29T10:52:00Z</time></trkpt><trkpt lat="14.792082727752847" lon="120.94764535018537"><ele>8.0</ele><time>2026-03-29T10:52:01Z</time></trkpt><trkpt lat="14.791914786136823" lon="120.9477359505678"><ele>8.0</ele><time>2026-03-29T10:52:02Z</time></trkpt><trkpt lat="14.791745342667749" lon="120.94782744368834"><ele>8.666666666666666</ele><time>2026-03-29T10:52:03Z</time></trkpt><trkpt lat="14.791574991152501" lon="120.94791969596936"><ele>9.333333333333334</ele><time>2026-03-29T10:52:04Z</time></trkpt><trkpt lat="14.791403886154797" lon="120.94801263349208"><ele>10.0</ele><time>2026-03-29T10:52:05Z</time></trkpt><trkpt lat="14.79123241947366" lon="120.94810567213109"><ele>10.0</ele><time>2026-03-29T10:52:06Z</time></trkpt><trkpt lat="14.791061836726056" lon="120.9482003937747"><ele>10.0</ele><time>2026-03-29T10:52:07Z</time></trkpt><trkpt lat="14.790891481751123" lon="120.94829433708038"><ele>10.0</ele><time>2026-03-29T10:52:08Z</time></trkpt><trkpt lat="14.790720722562426" lon="120.94838774780007"><ele>10.0</ele><time>2026-03-29T10:52:09Z</time></trkpt><trkpt lat="14.790550427957552" lon="120.94848078033085"><ele>10.0</ele><time>2026-03-29T10:52:10Z</time></trkpt><trkpt lat="14.790378638502721" lon="120.94857432873579"><ele>10.0</ele><time>2026-03-29T10:52:11Z</time></trkpt><trkpt lat="14.7902061379673" lon="120.94867037647695"><ele>10.0</ele><time>2026-03-29T10:52:12Z</time></trkpt><trkpt lat="14.790032593672167" lon="120.94876424743622"><ele>10.0</ele><time>2026-03-29T10:52:13Z</time></trkpt><trkpt lat="14.789858486050099" lon="120.94885836985668"><ele>10.0</ele><time>2026-03-29T10:52:14Z</time></trkpt><trkpt lat="14.789683865121848" lon="120.94895278864242"><ele>10.0</ele><time>2026-03-29T10:52:15Z</time></trkpt><trkpt lat="14.789510769493603" lon="120.94904672374804"><ele>10.0</ele><time>2026-03-29T10:52:16Z</time></trkpt><trkpt lat="14.789337379359587" lon="120.94914014387251"><ele>10.0</ele><time>2026-03-29T10:52:17Z</time></trkpt><trkpt lat="14.789165129413398" lon="120.94923306579913"><ele>10.333333333333334</ele><time>2026-03-29T10:52:18Z</time></trkpt><trkpt lat="14.788994495036585" lon="120.94932517537555"><ele>10.666666666666666</ele><time>2026-03-29T10:52:19Z</time></trkpt><trkpt lat="14.788824889693869" lon="120.94941743728909"><ele>11.0</ele><time>2026-03-29T10:52:20Z</time></trkpt><trkpt lat="14.788656191669576" lon="120.9495104747773"><ele>12.333333333333332</ele><time>2026-03-29T10:52:21Z</time></trkpt><trkpt lat="14.788486793966515" lon="120.94960296292396"><ele>13.666666666666666</ele><time>2026-03-29T10:52:22Z</time></trkpt><trkpt lat="14.788316124899117" lon="120.94969543625622"><ele>15.0</ele><time>2026-03-29T10:52:23Z</time></trkpt><trkpt lat="14.788145286903989" lon="120.94978780736582"><ele>15.0</ele><time>2026-03-29T10:52:24Z</time></trkpt><trkpt lat="14.787974627865383" lon="120.94987881804884"><ele>15.0</ele><time>2026-03-29T10:52:25Z</time></trkpt><trkpt lat="14.787805767878213" lon="120.94996818770953"><ele>15.0</ele><time>2026-03-29T10:52:26Z</time></trkpt><trkpt lat="14.787638411698238" lon="120.9500572229096"><ele>14.666666666666668</ele><time>2026-03-29T10:52:27Z</time></trkpt><trkpt lat="14.787471233198175" lon="120.95014665172978"><ele>14.333333333333334</ele><time>2026-03-29T10:52:28Z</time></trkpt><trkpt lat="14.787305087426068" lon="120.95023540905959"><ele>14.0</ele><time>2026-03-29T10:52:29Z</time></trkpt><trkpt lat="14.787140560950919" lon="120.95032360686906"><ele>14.0</ele><time>2026-03-29T10:52:30Z</time></trkpt><trkpt lat="14.786979365942576" lon="120.95041020415051"><ele>14.0</ele><time>2026-03-29T10:52:31Z</time></trkpt><trkpt lat="14.78682060024575" lon="120.95049565979177"><ele>14.0</ele><time>2026-03-29T10:52:32Z</time></trkpt><trkpt lat="14.786663571271657" lon="120.95058056425638"><ele>14.333333333333334</ele><time>2026-03-29T10:52:33Z</time></trkpt><trkpt lat="14.786508614490115" lon="120.95066480163226"><ele>14.666666666666668</ele><time>2026-03-29T10:52:34Z</time></trkpt><trkpt lat="14.78635569573096" lon="120.95074817399302"><ele>15.0</ele><time>2026-03-29T10:52:35Z</time></trkpt><trkpt lat="14.786199887269898" lon="120.95083493255044"><ele>15.333333333333332</ele><time>2026-03-29T10:52:36Z</time></trkpt><trkpt lat="14.786043274213121" lon="120.95092207759868"><ele>15.666666666666666</ele><time>2026-03-29T10:52:37Z</time></trkpt><trkpt lat="14.78588516002215" lon="120.95100758047491"><ele>16.0</ele><time>2026-03-29T10:52:38Z</time></trkpt><trkpt lat="14.785725711062076" lon="120.95109302063386"><ele>16.0</ele><time>2026-03-29T10:52:39Z</time></trkpt><trkpt lat="14.785565335607538" lon="120.95117976336545"><ele>16.0</ele><time>2026-03-29T10:52:40Z</time></trkpt><trkpt lat="14.785403696648377" lon="120.95126672611642"><ele>16.0</ele><time>2026-03-29T10:52:41Z</time></trkpt><trkpt lat="14.78524217014152" lon="120.95135385984065"><ele>15.333333333333332</ele><time>2026-03-29T10:52:42Z</time></trkpt><trkpt lat="14.785079736038067" lon="120.95144062227646"><ele>14.666666666666668</ele><time>2026-03-29T10:52:43Z</time></trkpt><trkpt lat="14.784917108059924" lon="120.95152614126295"><ele>14.0</ele><time>2026-03-29T10:52:44Z</time></trkpt><trkpt lat="14.78475380124326" lon="120.95161251580635"><ele>14.0</ele><time>2026-03-29T10:52:45Z</time></trkpt><trkpt lat="14.784590701009607" lon="120.95169871034041"><ele>14.0</ele><time>2026-03-29T10:52:46Z</time></trkpt><trkpt lat="14.784427470086113" lon="120.95178462301429"><ele>14.0</ele><time>2026-03-29T10:52:47Z</time></trkpt><trkpt lat="14.78426516212874" lon="120.95187150979457"><ele>14.0</ele><time>2026-03-29T10:52:48Z</time></trkpt><trkpt lat="14.784103932101742" lon="120.95195757365566"><ele>14.0</ele><time>2026-03-29T10:52:49Z</time></trkpt><trkpt lat="14.783943576709566" lon="120.95204381337172"><ele>14.0</ele><time>2026-03-29T10:52:50Z</time></trkpt><trkpt lat="14.783785110746104" lon="120.95212954940867"><ele>14.0</ele><time>2026-03-29T10:52:51Z</time></trkpt><trkpt lat="14.78363024686611" lon="120.95221364992587"><ele>14.0</ele><time>2026-03-29T10:52:52Z</time></trkpt><trkpt lat="14.783476986495684" lon="120.95229569426394"><ele>14.0</ele><time>2026-03-29T10:52:53Z</time></trkpt><trkpt lat="14.783326507676144" lon="120.95237744475965"><ele>14.333333333333334</ele><time>2026-03-29T10:52:54Z</time></trkpt><trkpt lat="14.783178433903814" lon="120.95245804701247"><ele>14.666666666666668</ele><time>2026-03-29T10:52:55Z</time></trkpt><trkpt lat="14.78302972833906" lon="120.95254088358419"><ele>15.0</ele><time>2026-03-29T10:52:56Z</time></trkpt><trkpt lat="14.782879089892921" lon="120.95262649650613"><ele>15.333333333333332</ele><time>2026-03-29T10:52:57Z</time></trkpt><trkpt lat="14.782727411260733" lon="120.95271480567379"><ele>15.666666666666666</ele><time>2026-03-29T10:52:58Z</time></trkpt><trkpt lat="14.782572683359213" lon="120.95280268803837"><ele>16.0</ele><time>2026-03-29T10:52:59Z</time></trkpt><trkpt lat="14.782413553547347" lon="120.95289314718866"><ele>16.0</ele><time>2026-03-29T10:53:00Z</time></trkpt><trkpt lat="14.782250402806017" lon="120.95298509140316"><ele>16.0</ele><time>2026-03-29T10:53:01Z</time></trkpt><trkpt lat="14.782084409364218" lon="120.95307753182942"><ele>16.0</ele><time>2026-03-29T10:53:02Z</time></trkpt><trkpt lat="14.781915529196242" lon="120.95317014648421"><ele>15.666666666666666</ele><time>2026-03-29T10:53:03Z</time></trkpt><trkpt lat="14.781744206808959" lon="120.95326368801948"><ele>15.333333333333332</ele><time>2026-03-29T10:53:04Z</time></trkpt><trkpt lat="14.781571265668479" lon="120.95335815672738"><ele>15.0</ele><time>2026-03-29T10:53:05Z</time></trkpt><trkpt lat="14.78139647096575" lon="120.95345319760801"><ele>14.666666666666668</ele><time>2026-03-29T10:53:06Z</time></trkpt><trkpt lat="14.781218720774739" lon="120.95354868686849"><ele>14.333333333333334</ele><time>2026-03-29T10:53:07Z</time></trkpt><trkpt lat="14.781038911827963" lon="120.95364615291714"><ele>14.0</ele><time>2026-03-29T10:53:08Z</time></trkpt><trkpt lat="14.780859002371137" lon="120.95374340649995"><ele>13.0</ele><time>2026-03-29T10:53:09Z</time></trkpt><trkpt lat="14.780679377339421" lon="120.95383968738395"><ele>12.0</ele><time>2026-03-29T10:53:10Z</time></trkpt><trkpt lat="14.780500211763316" lon="120.95393561325827"><ele>11.0</ele><time>2026-03-29T10:53:11Z</time></trkpt><trkpt lat="14.780322541559146" lon="120.95403103455713"><ele>11.0</ele><time>2026-03-29T10:53:12Z</time></trkpt><trkpt lat="14.78014757297286" lon="120.95412504336664"><ele>11.0</ele><time>2026-03-29T10:53:13Z</time></trkpt><trkpt lat="14.779974845487683" lon="120.95421914355046"><ele>11.0</ele><time>2026-03-29T10:53:14Z</time></trkpt><trkpt lat="14.77980474765557" lon="120.95431292817456"><ele>10.333333333333332</ele><time>2026-03-29T10:53:15Z</time></trkpt><trkpt lat="14.779635361967806" lon="120.9544044017984"><ele>9.666666666666666</ele><time>2026-03-29T10:53:16Z</time></trkpt><trkpt lat="14.779466749305179" lon="120.95449506628283"><ele>9.0</ele><time>2026-03-29T10:53:17Z</time></trkpt><trkpt lat="14.77929699481246" lon="120.95458542134512"><ele>9.0</ele><time>2026-03-29T10:53:18Z</time></trkpt><trkpt lat="14.779127361104758" lon="120.95467745722921"><ele>9.0</ele><time>2026-03-29T10:53:19Z</time></trkpt><trkpt lat="14.778957146150365" lon="120.9547685163983"><ele>9.0</ele><time>2026-03-29T10:53:20Z</time></trkpt><trkpt lat="14.778787126878111" lon="120.95486035542059"><ele>9.0</ele><time>2026-03-29T10:53:21Z</time></trkpt><trkpt lat="14.778616783866534" lon="120.95495304914262"><ele>9.0</ele><time>2026-03-29T10:53:22Z</time></trkpt><trkpt lat="14.778444168782865" lon="120.95504338361168"><ele>9.0</ele><time>2026-03-29T10:53:23Z</time></trkpt><trkpt lat="14.77827209477538" lon="120.95513489956852"><ele>9.0</ele><time>2026-03-29T10:53:24Z</time></trkpt><trkpt lat="14.77809854950475" lon="120.95522790795061"><ele>9.0</ele><time>2026-03-29T10:53:25Z</time></trkpt><trkpt lat="14.77792510350623" lon="120.95532090564392"><ele>9.0</ele><time>2026-03-29T10:53:26Z</time></trkpt><trkpt lat="14.777750559193288" lon="120.9554152865972"><ele>9.333333333333334</ele><time>2026-03-29T10:53:27Z</time></trkpt><trkpt lat="14.777574308844702" lon="120.95550828614843"><ele>9.666666666666668</ele><time>2026-03-29T10:53:28Z</time></trkpt><trkpt lat="14.777398078669373" lon="120.9556016901658"><ele>10.0</ele><time>2026-03-29T10:53:29Z</time></trkpt><trkpt lat="14.777222419817946" lon="120.95569387873937"><ele>10.0</ele><time>2026-03-29T10:53:30Z</time></trkpt><trkpt lat="14.777047410641533" lon="120.955787671866"><ele>10.0</ele><time>2026-03-29T10:53:31Z</time></trkpt><trkpt lat="14.776873094155263" lon="120.9558834337705"><ele>10.0</ele><time>2026-03-29T10:53:32Z</time></trkpt><trkpt lat="14.776698043568405" lon="120.95597729673652"><ele>9.0</ele><time>2026-03-29T10:53:33Z</time></trkpt><trkpt lat="14.776522140928705" lon="120.95607128572556"><ele>8.0</ele><time>2026-03-29T10:53:34Z</time></trkpt><trkpt lat="14.776345243001035" lon="120.95616317401443"><ele>7.0</ele><time>2026-03-29T10:53:35Z</time></trkpt><trkpt lat="14.776172768810095" lon="120.95625540097244"><ele>8.0</ele><time>2026-03-29T10:53:36Z</time></trkpt><trkpt lat="14.776002031017983" lon="120.95634325464385"><ele>9.0</ele><time>2026-03-29T10:53:37Z</time></trkpt><trkpt lat="14.775833885184488" lon="120.9564333204945"><ele>10.0</ele><time>2026-03-29T10:53:38Z</time></trkpt><trkpt lat="14.775670024853907" lon="120.95652236243484"><ele>10.0</ele><time>2026-03-29T10:53:39Z</time></trkpt><trkpt lat="14.775506895798936" lon="120.95660884290483"><ele>10.0</ele><time>2026-03-29T10:53:40Z</time></trkpt><trkpt lat="14.775343670849503" lon="120.95669797977895"><ele>10.0</ele><time>2026-03-29T10:53:41Z</time></trkpt><trkpt lat="14.775178719848705" lon="120.9567854849445"><ele>10.666666666666668</ele><time>2026-03-29T10:53:42Z</time></trkpt><trkpt lat="14.775012756872457" lon="120.95687427287066"><ele>11.333333333333334</ele><time>2026-03-29T10:53:43Z</time></trkpt><trkpt lat="14.774845538933663" lon="120.95696531684848"><ele>12.0</ele><time>2026-03-29T10:53:44Z</time></trkpt><trkpt lat="14.774676906820458" lon="120.95705950728731"><ele>12.0</ele><time>2026-03-29T10:53:45Z</time></trkpt><trkpt lat="14.774505136669832" lon="120.9571507571525"><ele>12.0</ele><time>2026-03-29T10:53:46Z</time></trkpt><trkpt lat="14.774333707320572" lon="120.95724560310231"><ele>12.0</ele><time>2026-03-29T10:53:47Z</time></trkpt><trkpt lat="14.774160937995191" lon="120.9573396197255"><ele>12.0</ele><time>2026-03-29T10:53:48Z</time></trkpt><trkpt lat="14.773985573702738" lon="120.9574324190988"><ele>12.0</ele><time>2026-03-29T10:53:49Z</time></trkpt><trkpt lat="14.77381025708507" lon="120.9575250370054"><ele>12.0</ele><time>2026-03-29T10:53:50Z</time></trkpt><trkpt lat="14.773636952624232" lon="120.95761496010923"><ele>11.333333333333334</ele><time>2026-03-29T10:53:51Z</time></trkpt><trkpt lat="14.773465534067558" lon="120.95770466304842"><ele>10.666666666666668</ele><time>2026-03-29T10:53:52Z</time></trkpt><trkpt lat="14.773296379490477" lon="120.95779510313497"><ele>10.0</ele><time>2026-03-29T10:53:53Z</time></trkpt><trkpt lat="14.773129142474861" lon="120.95788325109318"><ele>10.0</ele><time>2026-03-29T10:53:54Z</time></trkpt><trkpt lat="14.772964523399148" lon="120.95797080462667"><ele>10.0</ele><time>2026-03-29T10:53:55Z</time></trkpt><trkpt lat="14.772801544548948" lon="120.95805799560382"><ele>10.0</ele><time>2026-03-29T10:53:56Z</time></trkpt><trkpt lat="14.77264121390956" lon="120.95814395762032"><ele>10.333333333333334</ele><time>2026-03-29T10:53:57Z</time></trkpt><trkpt lat="14.772480937161971" lon="120.95822970340137"><ele>10.666666666666666</ele><time>2026-03-29T10:53:58Z</time></trkpt><trkpt lat="14.772320934742819" lon="120.95831634894931"><ele>11.0</ele><time>2026-03-29T10:53:59Z</time></trkpt><trkpt lat="14.772160197260604" lon="120.9584047999808"><ele>11.0</ele><time>2026-03-29T10:54:00Z</time></trkpt><trkpt lat="14.77199712475933" lon="120.95849315120464"><ele>11.0</ele><time>2026-03-29T10:54:01Z</time></trkpt><trkpt lat="14.771832487759333" lon="120.95858264853311"><ele>11.0</ele><time>2026-03-29T10:54:02Z</time></trkpt><trkpt lat="14.771665514405074" lon="120.95867162808952"><ele>11.0</ele><time>2026-03-29T10:54:03Z</time></trkpt><trkpt lat="14.771498099805937" lon="120.95876234633543"><ele>11.0</ele><time>2026-03-29T10:54:04Z</time></trkpt><trkpt lat="14.771331267085339" lon="120.9588510989741"><ele>11.0</ele><time>2026-03-29T10:54:05Z</time></trkpt><trkpt lat="14.771162009614962" lon="120.95894092789682"><ele>10.666666666666666</ele><time>2026-03-29T10:54:06Z</time></trkpt><trkpt lat="14.770991148992156" lon="120.95903172147646"><ele>10.333333333333334</ele><time>2026-03-29T10:54:07Z</time></trkpt><trkpt lat="14.770817683350849" lon="120.95912268819544"><ele>10.0</ele><time>2026-03-29T10:54:08Z</time></trkpt><trkpt lat="14.770640971182539" lon="120.95921234009953"><ele>10.0</ele><time>2026-03-29T10:54:09Z</time></trkpt><trkpt lat="14.770461408771277" lon="120.95930288864398"><ele>10.0</ele><time>2026-03-29T10:54:10Z</time></trkpt><trkpt lat="14.770280907640567" lon="120.95939583343879"><ele>10.0</ele><time>2026-03-29T10:54:11Z</time></trkpt><trkpt lat="14.770096591618543" lon="120.95948941905309"><ele>9.666666666666668</ele><time>2026-03-29T10:54:12Z</time></trkpt><trkpt lat="14.769910561052015" lon="120.9595843594387"><ele>9.333333333333334</ele><time>2026-03-29T10:54:13Z</time></trkpt><trkpt lat="14.769723536387042" lon="120.9596832162282"><ele>9.0</ele><time>2026-03-29T10:54:14Z</time></trkpt><trkpt lat="14.769533872984526" lon="120.95978367687968"><ele>9.0</ele><time>2026-03-29T10:54:15Z</time></trkpt><trkpt lat="14.769342526684191" lon="120.95988470990332"><ele>9.0</ele><time>2026-03-29T10:54:16Z</time></trkpt><trkpt lat="14.769148181131008" lon="120.95998641430809"><ele>9.0</ele><time>2026-03-29T10:54:17Z</time></trkpt><trkpt lat="14.768952103495142" lon="120.9600903578889"><ele>9.333333333333334</ele><time>2026-03-29T10:54:18Z</time></trkpt><trkpt lat="14.76875546246134" lon="120.9601962340767"><ele>9.666666666666668</ele><time>2026-03-29T10:54:19Z</time></trkpt><trkpt lat="14.768557198766791" lon="120.96030363964186"><ele>10.0</ele><time>2026-03-29T10:54:20Z</time></trkpt><trkpt lat="14.7683567035321" lon="120.96041265451196"><ele>10.0</ele><time>2026-03-29T10:54:21Z</time></trkpt><trkpt lat="14.768155201752199" lon="120.96052264193786"><ele>10.0</ele><time>2026-03-29T10:54:22Z</time></trkpt><trkpt lat="14.767951888837674" lon="120.96063368501407"><ele>10.0</ele><time>2026-03-29T10:54:23Z</time></trkpt><trkpt lat="14.767746924562624" lon="120.96074317423343"><ele>10.0</ele><time>2026-03-29T10:54:24Z</time></trkpt><trkpt lat="14.767540647190376" lon="120.96085318456001"><ele>11.0</ele><time>2026-03-29T10:54:25Z</time></trkpt><trkpt lat="14.767334581801022" lon="120.96096488998396"><ele>12.0</ele><time>2026-03-29T10:54:26Z</time></trkpt><trkpt lat="14.767130893969897" lon="120.96107890309817"><ele>12.0</ele><time>2026-03-29T10:54:27Z</time></trkpt><trkpt lat="14.766930753528678" lon="120.96119517121785"><ele>12.0</ele><time>2026-03-29T10:54:28Z</time></trkpt><trkpt lat="14.766731529740644" lon="120.9613102858143"><ele>11.0</ele><time>2026-03-29T10:54:29Z</time></trkpt><trkpt lat="14.766531835875757" lon="120.96142364212903"><ele>10.0</ele><time>2026-03-29T10:54:30Z</time></trkpt><trkpt lat="14.766330931964255" lon="120.96153635633694"><ele>10.0</ele><time>2026-03-29T10:54:31Z</time></trkpt><trkpt lat="14.76612920792098" lon="120.96165081569161"><ele>10.0</ele><time>2026-03-29T10:54:32Z</time></trkpt><trkpt lat="14.765925605564082" lon="120.96176180594932"><ele>10.5</ele><time>2026-03-29T10:54:33Z</time></trkpt><trkpt lat="14.765720243732812" lon="120.96187130290994"><ele>11.0</ele><time>2026-03-29T10:54:34Z</time></trkpt><trkpt lat="14.76551426157259" lon="120.96198186490376"><ele>11.0</ele><time>2026-03-29T10:54:35.001Z</time></trkpt><trkpt lat="14.765307063975515" lon="120.96209051514633"><ele>11.0</ele><time>2026-03-29T10:54:36.001Z</time></trkpt><trkpt lat="14.765097565600767" lon="120.96219738054417"><ele>11.0</ele><time>2026-03-29T10:54:37.001Z</time></trkpt><trkpt lat="14.764887634499832" lon="120.96230592252618"><ele>11.0</ele><time>2026-03-29T10:54:38.001Z</time></trkpt><trkpt lat="14.764678128161655" lon="120.96241381780189"><ele>11.0</ele><time>2026-03-29T10:54:39.001Z</time></trkpt><trkpt lat="14.764468994831088" lon="120.9625225361571"><ele>11.0</ele><time>2026-03-29T10:54:40.001Z</time></trkpt><trkpt lat="14.764260313786881" lon="120.96263056902413"><ele>13.5</ele><time>2026-03-29T10:54:41.001Z</time></trkpt><trkpt lat="14.764053379641705" lon="120.96273944868636"><ele>16.0</ele><time>2026-03-29T10:54:42.001Z</time></trkpt><trkpt lat="14.763848308550111" lon="120.96284742622575"><ele>16.0</ele><time>2026-03-29T10:54:43.001Z</time></trkpt><trkpt lat="14.763644754800836" lon="120.9629547345337"><ele>16.0</ele><time>2026-03-29T10:54:44.001Z</time></trkpt><trkpt lat="14.763445015514009" lon="120.96306156492908"><ele>16.0</ele><time>2026-03-29T10:54:45.001Z</time></trkpt><trkpt lat="14.763247188433072" lon="120.96316714729555"><ele>16.0</ele><time>2026-03-29T10:54:46.001Z</time></trkpt><trkpt lat="14.763050407713294" lon="120.96327188581668"><ele>16.0</ele><time>2026-03-29T10:54:47.001Z</time></trkpt><trkpt lat="14.762855016381618" lon="120.96337921862747"><ele>15.333333333333332</ele><time>2026-03-29T10:54:48.001Z</time></trkpt><trkpt lat="14.762660130740022" lon="120.96348392605067"><ele>14.666666666666668</ele><time>2026-03-29T10:54:49.001Z</time></trkpt><trkpt lat="14.762467080046248" lon="120.96359025222522"><ele>14.0</ele><time>2026-03-29T10:54:50.001Z</time></trkpt><trkpt lat="14.762278908173739" lon="120.9636957568002"><ele>14.0</ele><time>2026-03-29T10:54:51.001Z</time></trkpt><trkpt lat="14.762092803002592" lon="120.9637978119515"><ele>14.0</ele><time>2026-03-29T10:54:52.001Z</time></trkpt><trkpt lat="14.761910651918754" lon="120.96389762193154"><ele>14.0</ele><time>2026-03-29T10:54:53.001Z</time></trkpt><trkpt lat="14.761732698190665" lon="120.96399439384705"><ele>15.0</ele><time>2026-03-29T10:54:54.001Z</time></trkpt><trkpt lat="14.761560080538205" lon="120.96408781386711"><ele>16.0</ele><time>2026-03-29T10:54:54.999Z</time></trkpt><trkpt lat="14.76138954196636" lon="120.96417697779437"><ele>17.0</ele><time>2026-03-29T10:54:55.999Z</time></trkpt><trkpt lat="14.761223833530543" lon="120.96426721171511"><ele>17.333333333333336</ele><time>2026-03-29T10:54:56.999Z</time></trkpt><trkpt lat="14.761060472713798" lon="120.96435538058171"><ele>17.666666666666668</ele><time>2026-03-29T10:54:57.999Z</time></trkpt><trkpt lat="14.760898203588681" lon="120.96444217954871"><ele>18.0</ele><time>2026-03-29T10:54:58.999Z</time></trkpt><trkpt lat="14.76073965123255" lon="120.96452848006038"><ele>18.333333333333332</ele><time>2026-03-29T10:54:59.999Z</time></trkpt><trkpt lat="14.76058390473638" lon="120.9646130104223"><ele>18.666666666666664</ele><time>2026-03-29T10:55:00.999Z</time></trkpt><trkpt lat="14.760426849841203" lon="120.96470127151471"><ele>19.0</ele><time>2026-03-29T10:55:01.999Z</time></trkpt><trkpt lat="14.760269545374392" lon="120.96479528518552"><ele>18.0</ele><time>2026-03-29T10:55:02.999Z</time></trkpt><trkpt lat="14.760108901806722" lon="120.96488736043278"><ele>17.0</ele><time>2026-03-29T10:55:03.999Z</time></trkpt><trkpt lat="14.759947233064793" lon="120.96498007455618"><ele>16.0</ele><time>2026-03-29T10:55:04.999Z</time></trkpt><trkpt lat="14.759782903916609" lon="120.9650719278362"><ele>15.0</ele><time>2026-03-29T10:55:05.999Z</time></trkpt><trkpt lat="14.759616426841996" lon="120.96516288869086"><ele>14.0</ele><time>2026-03-29T10:55:06.999Z</time></trkpt><trkpt lat="14.759451351444927" lon="120.9652538725953"><ele>13.0</ele><time>2026-03-29T10:55:07.999Z</time></trkpt><trkpt lat="14.759286987972382" lon="120.96534413561119"><ele>13.0</ele><time>2026-03-29T10:55:08.999Z</time></trkpt><trkpt lat="14.759121568860524" lon="120.96543420887157"><ele>13.0</ele><time>2026-03-29T10:55:09.999Z</time></trkpt><trkpt lat="14.758954498839007" lon="120.9655245830004"><ele>13.0</ele><time>2026-03-29T10:55:10.999Z</time></trkpt><trkpt lat="14.758786521268547" lon="120.96561478842281"><ele>13.0</ele><time>2026-03-29T10:55:11.999Z</time></trkpt><trkpt lat="14.758616796800514" lon="120.96570687451504"><ele>13.0</ele><time>2026-03-29T10:55:12.999Z</time></trkpt><trkpt lat="14.758445562026191" lon="120.96580058572354"><ele>13.0</ele><time>2026-03-29T10:55:13.999Z</time></trkpt><trkpt lat="14.758273100948813" lon="120.96589616524487"><ele>12.333333333333332</ele><time>2026-03-29T10:55:15Z</time></trkpt><trkpt lat="14.758098388294345" lon="120.96599058671158"><ele>11.666666666666666</ele><time>2026-03-29T10:55:16Z</time></trkpt><trkpt lat="14.757921585693005" lon="120.96608450185666"><ele>11.0</ele><time>2026-03-29T10:55:17Z</time></trkpt><trkpt lat="14.757743725620204" lon="120.96617969240049"><ele>11.0</ele><time>2026-03-29T10:55:18Z</time></trkpt><trkpt lat="14.757566532678739" lon="120.96627506349719"><ele>11.0</ele><time>2026-03-29T10:55:19Z</time></trkpt><trkpt lat="14.757388933448675" lon="120.9663707541369"><ele>11.0</ele><time>2026-03-29T10:55:20Z</time></trkpt><trkpt lat="14.757211697582747" lon="120.96646628091446"><ele>11.0</ele><time>2026-03-29T10:55:21Z</time></trkpt><trkpt lat="14.757032837610318" lon="120.9665628496608"><ele>11.0</ele><time>2026-03-29T10:55:22Z</time></trkpt><trkpt lat="14.756851802969077" lon="120.9666603874013"><ele>11.0</ele><time>2026-03-29T10:55:23Z</time></trkpt><trkpt lat="14.756668838518877" lon="120.96676062118505"><ele>11.666666666666666</ele><time>2026-03-29T10:55:24Z</time></trkpt><trkpt lat="14.756483890974343" lon="120.96686172851349"><ele>12.333333333333332</ele><time>2026-03-29T10:55:25Z</time></trkpt><trkpt lat="14.756298071980892" lon="120.96696352090977"><ele>13.0</ele><time>2026-03-29T10:55:26Z</time></trkpt><trkpt lat="14.756112644815111" lon="120.96706489021314"><ele>11.666666666666666</ele><time>2026-03-29T10:55:27Z</time></trkpt><trkpt lat="14.75592711207434" lon="120.96716490146189"><ele>10.333333333333332</ele><time>2026-03-29T10:55:28Z</time></trkpt><trkpt lat="14.755741102917453" lon="120.96726487084531"><ele>9.0</ele><time>2026-03-29T10:55:29Z</time></trkpt><trkpt lat="14.755555055290364" lon="120.96736467014787"><ele>9.0</ele><time>2026-03-29T10:55:30Z</time></trkpt><trkpt lat="14.755368330784885" lon="120.96746439992587"><ele>9.0</ele><time>2026-03-29T10:55:31Z</time></trkpt><trkpt lat="14.755180561414722" lon="120.96756492973961"><ele>9.0</ele><time>2026-03-29T10:55:32Z</time></trkpt><trkpt lat="14.754993188802121" lon="120.96766870031259"><ele>9.333333333333334</ele><time>2026-03-29T10:55:33Z</time></trkpt><trkpt lat="14.754804986066935" lon="120.96777298240643"><ele>9.666666666666668</ele><time>2026-03-29T10:55:34Z</time></trkpt><trkpt lat="14.754614986999625" lon="120.96787525178806"><ele>10.0</ele><time>2026-03-29T10:55:35Z</time></trkpt><trkpt lat="14.754423182041329" lon="120.96797698330107"><ele>10.0</ele><time>2026-03-29T10:55:36Z</time></trkpt><trkpt lat="14.754229930564586" lon="120.96808055959964"><ele>10.0</ele><time>2026-03-29T10:55:37Z</time></trkpt><trkpt lat="14.754036678080448" lon="120.96818534266681"><ele>10.0</ele><time>2026-03-29T10:55:38Z</time></trkpt><trkpt lat="14.75384151480995" lon="120.96828892510926"><ele>9.666666666666668</ele><time>2026-03-29T10:55:39Z</time></trkpt><trkpt lat="14.75364599804811" lon="120.96839397561808"><ele>9.333333333333334</ele><time>2026-03-29T10:55:40Z</time></trkpt><trkpt lat="14.753448132140296" lon="120.96849783141768"><ele>9.0</ele><time>2026-03-29T10:55:41Z</time></trkpt><trkpt lat="14.7532472381043" lon="120.96860256604138"><ele>9.0</ele><time>2026-03-29T10:55:42Z</time></trkpt><trkpt lat="14.75304470009654" lon="120.96870929744976"><ele>9.0</ele><time>2026-03-29T10:55:43Z</time></trkpt><trkpt lat="14.752841346639627" lon="120.96881542609876"><ele>10.5</ele><time>2026-03-29T10:55:44Z</time></trkpt><trkpt lat="14.7526371586857" lon="120.96892178036269"><ele>12.0</ele><time>2026-03-29T10:55:45Z</time></trkpt><trkpt lat="14.75243130910898" lon="120.96902990435916"><ele>12.0</ele><time>2026-03-29T10:55:46Z</time></trkpt><trkpt lat="14.752224923315614" lon="120.96914117372975"><ele>12.0</ele><time>2026-03-29T10:55:47Z</time></trkpt><trkpt lat="14.752016668927839" lon="120.96925129442535"><ele>11.0</ele><time>2026-03-29T10:55:48Z</time></trkpt><trkpt lat="14.75180799572296" lon="120.96936151371469"><ele>10.0</ele><time>2026-03-29T10:55:49Z</time></trkpt><trkpt lat="14.751601623689929" lon="120.96947271350213"><ele>10.0</ele><time>2026-03-29T10:55:50Z</time></trkpt><trkpt lat="14.751397518904138" lon="120.96958513049759"><ele>10.0</ele><time>2026-03-29T10:55:51Z</time></trkpt><trkpt lat="14.751193295426297" lon="120.96969634791189"><ele>10.0</ele><time>2026-03-29T10:55:52Z</time></trkpt><trkpt lat="14.75098944407614" lon="120.96980596797125"><ele>10.0</ele><time>2026-03-29T10:55:53Z</time></trkpt><trkpt lat="14.750785240348243" lon="120.96991587629472"><ele>11.0</ele><time>2026-03-29T10:55:54Z</time></trkpt><trkpt lat="14.750582882593813" lon="120.9700253570038"><ele>12.0</ele><time>2026-03-29T10:55:55Z</time></trkpt><trkpt lat="14.750379919249559" lon="120.97013432396014"><ele>13.5</ele><time>2026-03-29T10:55:56Z</time></trkpt><trkpt lat="14.750177671334614" lon="120.97024289370627"><ele>15.0</ele><time>2026-03-29T10:55:57Z</time></trkpt><trkpt lat="14.749977457212072" lon="120.97035144548676"><ele>15.0</ele><time>2026-03-29T10:55:58Z</time></trkpt><trkpt lat="14.749780827153943" lon="120.97045754890827"><ele>15.0</ele><time>2026-03-29T10:55:59Z</time></trkpt><trkpt lat="14.749588589969775" lon="120.97056281621818"><ele>15.0</ele><time>2026-03-29T10:56:00Z</time></trkpt><trkpt lat="14.749399509357675" lon="120.97066501811602"><ele>15.0</ele><time>2026-03-29T10:56:01Z</time></trkpt><trkpt lat="14.749213625681243" lon="120.97076508843864"><ele>15.0</ele><time>2026-03-29T10:56:02Z</time></trkpt><trkpt lat="14.749030571408822" lon="120.9708650251425"><ele>15.0</ele><time>2026-03-29T10:56:03Z</time></trkpt><trkpt lat="14.748849534727803" lon="120.97096672855484"><ele>16.0</ele><time>2026-03-29T10:56:04Z</time></trkpt><trkpt lat="14.748667586795921" lon="120.97106993806243"><ele>17.0</ele><time>2026-03-29T10:56:05Z</time></trkpt><trkpt lat="14.748483814005057" lon="120.9711738691285"><ele>18.0</ele><time>2026-03-29T10:56:06Z</time></trkpt><trkpt lat="14.748297460910045" lon="120.97127711786736"><ele>18.0</ele><time>2026-03-29T10:56:07Z</time></trkpt><trkpt lat="14.748107834524465" lon="120.97138186403663"><ele>18.0</ele><time>2026-03-29T10:56:08Z</time></trkpt><trkpt lat="14.747916764341008" lon="120.971489513316"><ele>18.0</ele><time>2026-03-29T10:56:09Z</time></trkpt><trkpt lat="14.747724948574955" lon="120.97159754508965"><ele>17.333333333333332</ele><time>2026-03-29T10:56:10Z</time></trkpt><trkpt lat="14.747530831913776" lon="120.97170211136239"><ele>16.666666666666664</ele><time>2026-03-29T10:56:11Z</time></trkpt><trkpt lat="14.747333337784442" lon="120.97180581104864"><ele>16.0</ele><time>2026-03-29T10:56:12Z</time></trkpt><trkpt lat="14.747131689346318" lon="120.9719076942535"><ele>16.0</ele><time>2026-03-29T10:56:13Z</time></trkpt><trkpt lat="14.746928978206698" lon="120.97201223991328"><ele>16.0</ele><time>2026-03-29T10:56:14Z</time></trkpt><trkpt lat="14.7467257327505" lon="120.97211732329818"><ele>15.0</ele><time>2026-03-29T10:56:15Z</time></trkpt><trkpt lat="14.746522630212638" lon="120.97222486365196"><ele>14.0</ele><time>2026-03-29T10:56:16Z</time></trkpt><trkpt lat="14.746318921934384" lon="120.97233283724339"><ele>14.0</ele><time>2026-03-29T10:56:17Z</time></trkpt><trkpt lat="14.746115260575158" lon="120.97244173174568"><ele>14.0</ele><time>2026-03-29T10:56:18Z</time></trkpt><trkpt lat="14.745914533406948" lon="120.97255122472507"><ele>14.0</ele><time>2026-03-29T10:56:19Z</time></trkpt><trkpt lat="14.745711702453006" lon="120.97266073743488"><ele>14.0</ele><time>2026-03-29T10:56:20Z</time></trkpt><trkpt lat="14.745505796692099" lon="120.97276956388318"><ele>14.0</ele><time>2026-03-29T10:56:21Z</time></trkpt><trkpt lat="14.745302579209731" lon="120.9728798988321"><ele>14.0</ele><time>2026-03-29T10:56:22Z</time></trkpt><trkpt lat="14.745100316327441" lon="120.97298838506786"><ele>13.0</ele><time>2026-03-29T10:56:23Z</time></trkpt><trkpt lat="14.744900881373514" lon="120.97309707439182"><ele>12.0</ele><time>2026-03-29T10:56:24Z</time></trkpt><trkpt lat="14.74470345225532" lon="120.97320633359412"><ele>11.0</ele><time>2026-03-29T10:56:25Z</time></trkpt><trkpt lat="14.74450684485969" lon="120.9733121652388"><ele>10.0</ele><time>2026-03-29T10:56:26Z</time></trkpt><trkpt lat="14.744311842976195" lon="120.97341687196942"><ele>9.0</ele><time>2026-03-29T10:56:27Z</time></trkpt><trkpt lat="14.74411789009476" lon="120.97352127235557"><ele>8.0</ele><time>2026-03-29T10:56:28Z</time></trkpt><trkpt lat="14.743926101537188" lon="120.97362434234222"><ele>8.0</ele><time>2026-03-29T10:56:29Z</time></trkpt><trkpt lat="14.743738326159884" lon="120.97372577917407"><ele>8.0</ele><time>2026-03-29T10:56:30Z</time></trkpt><trkpt lat="14.743555761650693" lon="120.97382764279638"><ele>8.0</ele><time>2026-03-29T10:56:31Z</time></trkpt><trkpt lat="14.743373440405612" lon="120.97392748134801"><ele>7.666666666666666</ele><time>2026-03-29T10:56:32Z</time></trkpt><trkpt lat="14.743193966897556" lon="120.97402597492514"><ele>7.333333333333334</ele><time>2026-03-29T10:56:33Z</time></trkpt><trkpt lat="14.743015909540778" lon="120.97412140344045"><ele>7.0</ele><time>2026-03-29T10:56:34Z</time></trkpt><trkpt lat="14.742840112820392" lon="120.97421779610934"><ele>7.0</ele><time>2026-03-29T10:56:35Z</time></trkpt><trkpt lat="14.74266537780241" lon="120.97431390426237"><ele>7.0</ele><time>2026-03-29T10:56:36Z</time></trkpt><trkpt lat="14.742490113892188" lon="120.97440658550961"><ele>7.0</ele><time>2026-03-29T10:56:37Z</time></trkpt><trkpt lat="14.742317574534361" lon="120.97449809764976"><ele>7.0</ele><time>2026-03-29T10:56:38Z</time></trkpt><trkpt lat="14.742147687608234" lon="120.97458938713018"><ele>7.0</ele><time>2026-03-29T10:56:39Z</time></trkpt><trkpt lat="14.74197852302971" lon="120.9746796901612"><ele>7.0</ele><time>2026-03-29T10:56:40Z</time></trkpt><trkpt lat="14.741812471654553" lon="120.97477079391824"><ele>6.666666666666667</ele><time>2026-03-29T10:56:41Z</time></trkpt><trkpt lat="14.741645471710596" lon="120.9748593930394"><ele>6.333333333333334</ele><time>2026-03-29T10:56:42Z</time></trkpt><trkpt lat="14.741479631435519" lon="120.97494719705345"><ele>6.0</ele><time>2026-03-29T10:56:43Z</time></trkpt><trkpt lat="14.741315517682033" lon="120.97503600611388"><ele>6.0</ele><time>2026-03-29T10:56:44Z</time></trkpt><trkpt lat="14.741152597626803" lon="120.97512301253063"><ele>6.0</ele><time>2026-03-29T10:56:45Z</time></trkpt><trkpt lat="14.740990996294547" lon="120.9752112881189"><ele>6.0</ele><time>2026-03-29T10:56:46Z</time></trkpt><trkpt lat="14.740830799065808" lon="120.97529995248411"><ele>6.333333333333334</ele><time>2026-03-29T10:56:47Z</time></trkpt><trkpt lat="14.740669710294075" lon="120.9753859811513"><ele>6.666666666666667</ele><time>2026-03-29T10:56:48Z</time></trkpt><trkpt lat="14.740506478800901" lon="120.97547078915964"><ele>7.0</ele><time>2026-03-29T10:56:49Z</time></trkpt><trkpt lat="14.740342052701763" lon="120.97555712744322"><ele>7.0</ele><time>2026-03-29T10:56:50Z</time></trkpt><trkpt lat="14.740176341690276" lon="120.97564508963161"><ele>7.0</ele><time>2026-03-29T10:56:51Z</time></trkpt><trkpt lat="14.740010961540486" lon="120.97573485236902"><ele>7.0</ele><time>2026-03-29T10:56:52Z</time></trkpt><trkpt lat="14.739847159936728" lon="120.97582424418725"><ele>6.333333333333334</ele><time>2026-03-29T10:56:53Z</time></trkpt><trkpt lat="14.73968588991118" lon="120.97591140745243"><ele>5.666666666666667</ele><time>2026-03-29T10:56:54Z</time></trkpt><trkpt lat="14.739527321388408" lon="120.9759974183215"><ele>5.0</ele><time>2026-03-29T10:56:55Z</time></trkpt><trkpt lat="14.739371840260123" lon="120.97607947156708"><ele>5.0</ele><time>2026-03-29T10:56:56Z</time></trkpt><trkpt lat="14.739219825295688" lon="120.97616141219635"><ele>5.0</ele><time>2026-03-29T10:56:57Z</time></trkpt><trkpt lat="14.739070284210024" lon="120.97624260714184"><ele>5.0</ele><time>2026-03-29T10:56:58Z</time></trkpt><trkpt lat="14.738922723231566" lon="120.97632358634289"><ele>5.0</ele><time>2026-03-29T10:56:59Z</time></trkpt><trkpt lat="14.738775421956813" lon="120.976404779344"><ele>5.0</ele><time>2026-03-29T10:57:00Z</time></trkpt><trkpt lat="14.738624995029134" lon="120.9764833693215"><ele>5.0</ele><time>2026-03-29T10:57:00.998Z</time></trkpt><trkpt lat="14.738473826524555" lon="120.97656480289089"><ele>5.333333333333334</ele><time>2026-03-29T10:57:01.998Z</time></trkpt><trkpt lat="14.738322691930557" lon="120.97664534909948"><ele>5.666666666666667</ele><time>2026-03-29T10:57:02.998Z</time></trkpt><trkpt lat="14.738171838357012" lon="120.97672714048822"><ele>6.0</ele><time>2026-03-29T10:57:03.998Z</time></trkpt><trkpt lat="14.73802052478774" lon="120.97680910868503"><ele>6.0</ele><time>2026-03-29T10:57:04.998Z</time></trkpt><trkpt lat="14.737869571376233" lon="120.9768908108541"><ele>6.0</ele><time>2026-03-29T10:57:05.998Z</time></trkpt><trkpt lat="14.737718457004394" lon="120.9769733360987"><ele>6.0</ele><time>2026-03-29T10:57:06.998Z</time></trkpt><trkpt lat="14.73756728820269" lon="120.97705552920829"><ele>6.666666666666666</ele><time>2026-03-29T10:57:07.998Z</time></trkpt><trkpt lat="14.737415169602853" lon="120.97713671077337"><ele>7.333333333333333</ele><time>2026-03-29T10:57:08.999Z</time></trkpt><trkpt lat="14.737263421045032" lon="120.97721867547789"><ele>8.0</ele><time>2026-03-29T10:57:09.999Z</time></trkpt><trkpt lat="14.737111172852705" lon="120.9773015172155"><ele>8.0</ele><time>2026-03-29T10:57:10.999Z</time></trkpt><trkpt lat="14.736958224199784" lon="120.97738448393885"><ele>8.0</ele><time>2026-03-29T10:57:11.999Z</time></trkpt><trkpt lat="14.736805936954244" lon="120.97746768806886"><ele>8.0</ele><time>2026-03-29T10:57:12.999Z</time></trkpt><trkpt lat="14.736653873999986" lon="120.97755054636687"><ele>9.333333333333332</ele><time>2026-03-29T10:57:13.999Z</time></trkpt><trkpt lat="14.736503529181494" lon="120.9776325526882"><ele>10.666666666666666</ele><time>2026-03-29T10:57:14.999Z</time></trkpt><trkpt lat="14.736355787954288" lon="120.97771260129338"><ele>12.0</ele><time>2026-03-29T10:57:15.999Z</time></trkpt><trkpt lat="14.736209825869325" lon="120.97779117908462"><ele>12.0</ele><time>2026-03-29T10:57:16.999Z</time></trkpt><trkpt lat="14.736065472928752" lon="120.97786904652035"><ele>12.0</ele><time>2026-03-29T10:57:17.999Z</time></trkpt><trkpt lat="14.73592100457442" lon="120.97794623380568"><ele>12.0</ele><time>2026-03-29T10:57:18.999Z</time></trkpt><trkpt lat="14.73577585297783" lon="120.97802365460471"><ele>12.0</ele><time>2026-03-29T10:57:19.999Z</time></trkpt><trkpt lat="14.735629766437624" lon="120.97810100353588"><ele>12.0</ele><time>2026-03-29T10:57:20.999Z</time></trkpt><trkpt lat="14.735483687379638" lon="120.97818067349091"><ele>12.0</ele><time>2026-03-29T10:57:21.999Z</time></trkpt><trkpt lat="14.73533666596456" lon="120.97826156332256"><ele>12.333333333333332</ele><time>2026-03-29T10:57:22.999Z</time></trkpt><trkpt lat="14.73519003569006" lon="120.97834190958883"><ele>12.666666666666666</ele><time>2026-03-29T10:57:23.999Z</time></trkpt><trkpt lat="14.735043649288983" lon="120.97842206914197"><ele>13.0</ele><time>2026-03-29T10:57:24.999Z</time></trkpt><trkpt lat="14.734899249435752" lon="120.97850169021856"><ele>13.0</ele><time>2026-03-29T10:57:25.999Z</time></trkpt><trkpt lat="14.734757208506764" lon="120.97857917586214"><ele>13.0</ele><time>2026-03-29T10:57:26.999Z</time></trkpt><trkpt lat="14.73461681872922" lon="120.97865523731917"><ele>13.0</ele><time>2026-03-29T10:57:27.999Z</time></trkpt><trkpt lat="14.734477863423951" lon="120.97873009834903"><ele>13.333333333333332</ele><time>2026-03-29T10:57:28.999Z</time></trkpt><trkpt lat="14.73434068333003" lon="120.97880360807034"><ele>13.666666666666668</ele><time>2026-03-29T10:57:29.999Z</time></trkpt><trkpt lat="14.734205602636761" lon="120.97887453083138"><ele>14.0</ele><time>2026-03-29T10:57:30.999Z</time></trkpt><trkpt lat="14.734073356162257" lon="120.97894583342467"><ele>14.0</ele><time>2026-03-29T10:57:31.999Z</time></trkpt><trkpt lat="14.733943303502818" lon="120.97901616443777"><ele>14.0</ele><time>2026-03-29T10:57:32.999Z</time></trkpt><trkpt lat="14.733814599078324" lon="120.97908594986058"><ele>14.0</ele><time>2026-03-29T10:57:33.999Z</time></trkpt><trkpt lat="14.733687395053229" lon="120.97915528637226"><ele>14.0</ele><time>2026-03-29T10:57:34.999Z</time></trkpt><trkpt lat="14.733560008757951" lon="120.97922463689515"><ele>14.25</ele><time>2026-03-29T10:57:35.999Z</time></trkpt><trkpt lat="14.733431427793283" lon="120.97929438206023"><ele>14.5</ele><time>2026-03-29T10:57:36.999Z</time></trkpt><trkpt lat="14.733300968893172" lon="120.97936405682451"><ele>14.75</ele><time>2026-03-29T10:57:37.999Z</time></trkpt><trkpt lat="14.733169039365663" lon="120.97943423121302"><ele>15.0</ele><time>2026-03-29T10:57:38.999Z</time></trkpt><trkpt lat="14.733034876166483" lon="120.9795078135474"><ele>15.0</ele><time>2026-03-29T10:57:39.999Z</time></trkpt><trkpt lat="14.732897579185888" lon="120.97958279831262"><ele>15.0</ele><time>2026-03-29T10:57:40.999Z</time></trkpt><trkpt lat="14.732757778967349" lon="120.97965926982641"><ele>15.0</ele><time>2026-03-29T10:57:41.999Z</time></trkpt><trkpt lat="14.73261615683348" lon="120.979736259168"><ele>15.333333333333332</ele><time>2026-03-29T10:57:42.999Z</time></trkpt><trkpt lat="14.73247300070021" lon="120.97981400101936"><ele>15.666666666666666</ele><time>2026-03-29T10:57:43.999Z</time></trkpt><trkpt lat="14.73232816028658" lon="120.97989270062929"><ele>16.0</ele><time>2026-03-29T10:57:44.999Z</time></trkpt><trkpt lat="14.7321823848078" lon="120.97997200113821"><ele>16.666666666666664</ele><time>2026-03-29T10:57:46Z</time></trkpt><trkpt lat="14.732036257583236" lon="120.9800507354686"><ele>17.333333333333332</ele><time>2026-03-29T10:57:47Z</time></trkpt><trkpt lat="14.731890460283699" lon="120.98012861611603"><ele>18.0</ele><time>2026-03-29T10:57:48Z</time></trkpt><trkpt lat="14.73174572941871" lon="120.98020609373843"><ele>16.0</ele><time>2026-03-29T10:57:49Z</time></trkpt><trkpt lat="14.73160170787683" lon="120.98028305661589"><ele>14.0</ele><time>2026-03-29T10:57:50Z</time></trkpt><trkpt lat="14.73145660550445" lon="120.98036133046405"><ele>12.0</ele><time>2026-03-29T10:57:51Z</time></trkpt><trkpt lat="14.731311823101256" lon="120.9804392470554"><ele>12.0</ele><time>2026-03-29T10:57:52Z</time></trkpt><trkpt lat="14.731168361103226" lon="120.98051680684549"><ele>12.0</ele><time>2026-03-29T10:57:53Z</time></trkpt><trkpt lat="14.731025489803809" lon="120.98059533473304"><ele>12.0</ele><time>2026-03-29T10:57:54Z</time></trkpt><trkpt lat="14.730884294702683" lon="120.98067536472772"><ele>11.666666666666666</ele><time>2026-03-29T10:57:55Z</time></trkpt><trkpt lat="14.73074143057099" lon="120.9807530617385"><ele>11.333333333333332</ele><time>2026-03-29T10:57:56Z</time></trkpt><trkpt lat="14.73059736922835" lon="120.9808313935217"><ele>11.0</ele><time>2026-03-29T10:57:57Z</time></trkpt><trkpt lat="14.730451137529556" lon="120.9809101379725"><ele>11.666666666666666</ele><time>2026-03-29T10:57:58Z</time></trkpt><trkpt lat="14.73030305790469" lon="120.98099033994504"><ele>12.333333333333332</ele><time>2026-03-29T10:57:59Z</time></trkpt><trkpt lat="14.730154121936602" lon="120.98107050676812"><ele>13.0</ele><time>2026-03-29T10:58:00Z</time></trkpt><trkpt lat="14.730005020647233" lon="120.98114792473604"><ele>13.0</ele><time>2026-03-29T10:58:01Z</time></trkpt><trkpt lat="14.729856976541248" lon="120.98122510145389"><ele>13.0</ele><time>2026-03-29T10:58:02Z</time></trkpt><trkpt lat="14.729711200130591" lon="120.98130224080585"><ele>13.0</ele><time>2026-03-29T10:58:03Z</time></trkpt><trkpt lat="14.72956851265443" lon="120.98137785629368"><ele>13.0</ele><time>2026-03-29T10:58:04Z</time></trkpt><trkpt lat="14.729426719046462" lon="120.98145302306902"><ele>13.0</ele><time>2026-03-29T10:58:05Z</time></trkpt><trkpt lat="14.729282490503808" lon="120.98152927598915"><ele>13.0</ele><time>2026-03-29T10:58:06Z</time></trkpt><trkpt lat="14.729134703060055" lon="120.98160462210346"><ele>13.0</ele><time>2026-03-29T10:58:07Z</time></trkpt><trkpt lat="14.728982143383087" lon="120.98167922233559"><ele>13.0</ele><time>2026-03-29T10:58:08Z</time></trkpt><trkpt lat="14.728827161831541" lon="120.98175789093011"><ele>13.0</ele><time>2026-03-29T10:58:09Z</time></trkpt><trkpt lat="14.728668560492075" lon="120.9818395414867"><ele>13.333333333333332</ele><time>2026-03-29T10:58:10Z</time></trkpt><trkpt lat="14.728506629546017" lon="120.98192300672112"><ele>13.666666666666668</ele><time>2026-03-29T10:58:11Z</time></trkpt><trkpt lat="14.728343365223873" lon="120.98201031228623"><ele>14.0</ele><time>2026-03-29T10:58:12Z</time></trkpt><trkpt lat="14.72817939013372" lon="120.9820999868726"><ele>14.0</ele><time>2026-03-29T10:58:13Z</time></trkpt><trkpt lat="14.728017220352402" lon="120.98218859416023"><ele>14.0</ele><time>2026-03-29T10:58:14Z</time></trkpt><trkpt lat="14.727856117801993" lon="120.98227408483602"><ele>14.0</ele><time>2026-03-29T10:58:15Z</time></trkpt><trkpt lat="14.72769770927036" lon="120.9823585981767"><ele>13.333333333333334</ele><time>2026-03-29T10:58:16Z</time></trkpt><trkpt lat="14.727541849924679" lon="120.98244367211458"><ele>12.666666666666668</ele><time>2026-03-29T10:58:17Z</time></trkpt><trkpt lat="14.727386221920389" lon="120.98252925658736"><ele>12.0</ele><time>2026-03-29T10:58:18Z</time></trkpt><trkpt lat="14.727230765166425" lon="120.98261361961745"><ele>12.0</ele><time>2026-03-29T10:58:19Z</time></trkpt><trkpt lat="14.727076021056732" lon="120.98269916316677"><ele>12.0</ele><time>2026-03-29T10:58:20Z</time></trkpt><trkpt lat="14.726920288896823" lon="120.98278153813851"><ele>12.0</ele><time>2026-03-29T10:58:21Z</time></trkpt><trkpt lat="14.726765546265527" lon="120.98286458328896"><ele>12.333333333333332</ele><time>2026-03-29T10:58:22Z</time></trkpt><trkpt lat="14.726611008517677" lon="120.98294734222573"><ele>12.666666666666666</ele><time>2026-03-29T10:58:23Z</time></trkpt><trkpt lat="14.726456219764883" lon="120.98302909690524"><ele>13.0</ele><time>2026-03-29T10:58:24Z</time></trkpt><trkpt lat="14.726303349825482" lon="120.98311033221508"><ele>13.0</ele><time>2026-03-29T10:58:25Z</time></trkpt><trkpt lat="14.726151262897385" lon="120.98319227699348"><ele>13.0</ele><time>2026-03-29T10:58:26Z</time></trkpt><trkpt lat="14.726000717329647" lon="120.98327267976786"><ele>13.0</ele><time>2026-03-29T10:58:27Z</time></trkpt><trkpt lat="14.725850736768528" lon="120.98335566800145"><ele>13.0</ele><time>2026-03-29T10:58:28Z</time></trkpt><trkpt lat="14.725699200017994" lon="120.98343701649699"><ele>13.0</ele><time>2026-03-29T10:58:29Z</time></trkpt><trkpt lat="14.725549980447047" lon="120.98352033453159"><ele>13.0</ele><time>2026-03-29T10:58:30Z</time></trkpt><trkpt lat="14.725401365141998" lon="120.9836033234758"><ele>13.0</ele><time>2026-03-29T10:58:31Z</time></trkpt><trkpt lat="14.725252281380328" lon="120.98368626669875"><ele>13.0</ele><time>2026-03-29T10:58:32Z</time></trkpt><trkpt lat="14.725104662056166" lon="120.98376731465865"><ele>13.0</ele><time>2026-03-29T10:58:33Z</time></trkpt><trkpt lat="14.724956533436547" lon="120.98384645060106"><ele>13.333333333333332</ele><time>2026-03-29T10:58:34Z</time></trkpt><trkpt lat="14.724807123851162" lon="120.98392594350443"><ele>13.666666666666668</ele><time>2026-03-29T10:58:35Z</time></trkpt><trkpt lat="14.72465793109659" lon="120.98400503150181"><ele>14.0</ele><time>2026-03-29T10:58:36Z</time></trkpt><trkpt lat="14.724508501844623" lon="120.98408485735877"><ele>14.333333333333334</ele><time>2026-03-29T10:58:37Z</time></trkpt><trkpt lat="14.724361392665065" lon="120.98416326517491"><ele>14.666666666666668</ele><time>2026-03-29T10:58:38Z</time></trkpt><trkpt lat="14.724217276374167" lon="120.98424013442595"><ele>15.0</ele><time>2026-03-29T10:58:39Z</time></trkpt><trkpt lat="14.724074150934754" lon="120.98431756523334"><ele>15.0</ele><time>2026-03-29T10:58:40Z</time></trkpt><trkpt lat="14.723932819624556" lon="120.98439610794705"><ele>15.0</ele><time>2026-03-29T10:58:41Z</time></trkpt><trkpt lat="14.723790241634413" lon="120.98447197187751"><ele>15.0</ele><time>2026-03-29T10:58:42Z</time></trkpt><trkpt lat="14.723648098765711" lon="120.98454993522226"><ele>15.666666666666668</ele><time>2026-03-29T10:58:43Z</time></trkpt><trkpt lat="14.723505488780477" lon="120.98462796853944"><ele>16.333333333333336</ele><time>2026-03-29T10:58:44Z</time></trkpt><trkpt lat="14.723362109113472" lon="120.98470490014813"><ele>17.0</ele><time>2026-03-29T10:58:45Z</time></trkpt><trkpt lat="14.72321797790099" lon="120.98478177874368"><ele>17.0</ele><time>2026-03-29T10:58:46Z</time></trkpt><trkpt lat="14.723071937409824" lon="120.98485930124683"><ele>17.0</ele><time>2026-03-29T10:58:47Z</time></trkpt><trkpt lat="14.72292464612016" lon="120.98493945481323"><ele>17.0</ele><time>2026-03-29T10:58:48Z</time></trkpt><trkpt lat="14.722775071279127" lon="120.98502070262927"><ele>17.666666666666668</ele><time>2026-03-29T10:58:49Z</time></trkpt><trkpt lat="14.722623087800692" lon="120.98510358326013"><ele>18.333333333333332</ele><time>2026-03-29T10:58:50Z</time></trkpt><trkpt lat="14.722467277130031" lon="120.98518545355219"><ele>19.0</ele><time>2026-03-29T10:58:51Z</time></trkpt><trkpt lat="14.722310623504754" lon="120.98526722687474"><ele>19.0</ele><time>2026-03-29T10:58:52Z</time></trkpt><trkpt lat="14.722156868631991" lon="120.98534840604562"><ele>19.0</ele><time>2026-03-29T10:58:53Z</time></trkpt><trkpt lat="14.722001326381285" lon="120.9854317393694"><ele>19.0</ele><time>2026-03-29T10:58:54Z</time></trkpt><trkpt lat="14.721843826203076" lon="120.98551500204836"><ele>19.0</ele><time>2026-03-29T10:58:55Z</time></trkpt><trkpt lat="14.7216884655576" lon="120.98559990384703"><ele>19.0</ele><time>2026-03-29T10:58:56Z</time></trkpt><trkpt lat="14.721534339442218" lon="120.98568408939073"><ele>19.0</ele><time>2026-03-29T10:58:57Z</time></trkpt><trkpt lat="14.721379194491938" lon="120.9857682353256"><ele>18.666666666666664</ele><time>2026-03-29T10:58:58Z</time></trkpt><trkpt lat="14.7212241763588" lon="120.98585039693074"><ele>18.333333333333332</ele><time>2026-03-29T10:58:59Z</time></trkpt><trkpt lat="14.72107043479483" lon="120.98593399407945"><ele>18.0</ele><time>2026-03-29T10:59:00Z</time></trkpt><trkpt lat="14.72091624119252" lon="120.9860165846488"><ele>17.0</ele><time>2026-03-29T10:59:01Z</time></trkpt><trkpt lat="14.720763249271668" lon="120.98609758694596"><ele>16.0</ele><time>2026-03-29T10:59:02Z</time></trkpt><trkpt lat="14.720612071695173" lon="120.98618094168005"><ele>15.0</ele><time>2026-03-29T10:59:03Z</time></trkpt><trkpt lat="14.720460009631763" lon="120.98626117841681"><ele>15.0</ele><time>2026-03-29T10:59:04Z</time></trkpt><trkpt lat="14.72030919874202" lon="120.98634283367853"><ele>15.0</ele><time>2026-03-29T10:59:05Z</time></trkpt><trkpt lat="14.720159664355581" lon="120.98642577500735"><ele>15.0</ele><time>2026-03-29T10:59:06Z</time></trkpt><trkpt lat="14.720010760757722" lon="120.98651017735673"><ele>14.666666666666668</ele><time>2026-03-29T10:59:07Z</time></trkpt><trkpt lat="14.719860308233908" lon="120.98659366373731"><ele>14.333333333333334</ele><time>2026-03-29T10:59:08Z</time></trkpt><trkpt lat="14.719707954834837" lon="120.9866768792968"><ele>14.0</ele><time>2026-03-29T10:59:09Z</time></trkpt><trkpt lat="14.719557471304569" lon="120.9867589440005"><ele>15.666666666666668</ele><time>2026-03-29T10:59:10Z</time></trkpt><trkpt lat="14.719409470737064" lon="120.9868404312438"><ele>17.333333333333332</ele><time>2026-03-29T10:59:11Z</time></trkpt><trkpt lat="14.719263618966423" lon="120.98691872358556"><ele>19.0</ele><time>2026-03-29T10:59:12Z</time></trkpt><trkpt lat="14.71911830064679" lon="120.9869968482559"><ele>19.333333333333332</ele><time>2026-03-29T10:59:13Z</time></trkpt><trkpt lat="14.718975077650072" lon="120.9870732771409"><ele>19.666666666666668</ele><time>2026-03-29T10:59:14Z</time></trkpt><trkpt lat="14.718831497423224" lon="120.98715134536714"><ele>20.0</ele><time>2026-03-29T10:59:15Z</time></trkpt><trkpt lat="14.718688165556275" lon="120.98722854596336"><ele>20.5</ele><time>2026-03-29T10:59:16Z</time></trkpt><trkpt lat="14.718548488501057" lon="120.98730402750506"><ele>21.0</ele><time>2026-03-29T10:59:17Z</time></trkpt><trkpt lat="14.71841740486487" lon="120.98737438744304"><ele>21.5</ele><time>2026-03-29T10:59:18Z</time></trkpt><trkpt lat="14.718293742100727" lon="120.98744102231461"><ele>22.0</ele><time>2026-03-29T10:59:19Z</time></trkpt><trkpt lat="14.71817696336584" lon="120.98750539615864"><ele>23.0</ele><time>2026-03-29T10:59:20Z</time></trkpt><trkpt lat="14.718063778214113" lon="120.98757255139179"><ele>24.0</ele><time>2026-03-29T10:59:21Z</time></trkpt><trkpt lat="14.71795099148305" lon="120.9876363878796"><ele>25.0</ele><time>2026-03-29T10:59:22Z</time></trkpt><trkpt lat="14.717839315363667" lon="120.98770287387569"><ele>26.0</ele><time>2026-03-29T10:59:23Z</time></trkpt><trkpt lat="14.717728609650262" lon="120.98776823680052"><ele>26.75</ele><time>2026-03-29T10:59:24Z</time></trkpt><trkpt lat="14.717620381908787" lon="120.9878300983611"><ele>27.5</ele><time>2026-03-29T10:59:25Z</time></trkpt><trkpt lat="14.717510542729716" lon="120.9878910552195"><ele>28.25</ele><time>2026-03-29T10:59:26Z</time></trkpt><trkpt lat="14.717395786907352" lon="120.98795500901981"><ele>29.0</ele><time>2026-03-29T10:59:27Z</time></trkpt><trkpt lat="14.717276728152127" lon="120.98801830331297"><ele>29.0</ele><time>2026-03-29T10:59:28Z</time></trkpt><trkpt lat="14.717152509865038" lon="120.98808360898211"><ele>29.0</ele><time>2026-03-29T10:59:29Z</time></trkpt><trkpt lat="14.717026365541026" lon="120.98815215371079"><ele>29.0</ele><time>2026-03-29T10:59:30Z</time></trkpt><trkpt lat="14.716894748796639" lon="120.98822010982296"><ele>29.0</ele><time>2026-03-29T10:59:31Z</time></trkpt><trkpt lat="14.716758186967109" lon="120.98828649322195"><ele>29.666666666666664</ele><time>2026-03-29T10:59:32Z</time></trkpt><trkpt lat="14.716614252155319" lon="120.98835413909977"><ele>30.333333333333336</ele><time>2026-03-29T10:59:33Z</time></trkpt><trkpt lat="14.716464557156511" lon="120.9884274773623"><ele>31.0</ele><time>2026-03-29T10:59:34Z</time></trkpt><trkpt lat="14.716308847801555" lon="120.988508297395"><ele>31.0</ele><time>2026-03-29T10:59:35Z</time></trkpt><trkpt lat="14.716148556337913" lon="120.98859315616535"><ele>31.0</ele><time>2026-03-29T10:59:36Z</time></trkpt><trkpt lat="14.715982385553655" lon="120.98868339095308"><ele>31.0</ele><time>2026-03-29T10:59:37Z</time></trkpt><trkpt lat="14.715812115932149" lon="120.98877543549294"><ele>29.666666666666668</ele><time>2026-03-29T10:59:38Z</time></trkpt><trkpt lat="14.71563667054822" lon="120.98886997624061"><ele>28.333333333333336</ele><time>2026-03-29T10:59:39Z</time></trkpt><trkpt lat="14.715459414294886" lon="120.98896502596627"><ele>27.0</ele><time>2026-03-29T10:59:40Z</time></trkpt><trkpt lat="14.715277867719152" lon="120.98906403856707"><ele>26.333333333333336</ele><time>2026-03-29T10:59:41Z</time></trkpt><trkpt lat="14.715093685898115" lon="120.98916367268525"><ele>25.666666666666668</ele><time>2026-03-29T10:59:42Z</time></trkpt><trkpt lat="14.714905589746715" lon="120.98926574474214"><ele>25.0</ele><time>2026-03-29T10:59:43Z</time></trkpt><trkpt lat="14.714715612628988" lon="120.98936769490402"><ele>24.333333333333336</ele><time>2026-03-29T10:59:44Z</time></trkpt><trkpt lat="14.714525189099016" lon="120.98946908998788"><ele>23.666666666666668</ele><time>2026-03-29T10:59:45Z</time></trkpt><trkpt lat="14.714333150312111" lon="120.9895717020694"><ele>23.0</ele><time>2026-03-29T10:59:46Z</time></trkpt><trkpt lat="14.714141823360325" lon="120.98967377639758"><ele>23.0</ele><time>2026-03-29T10:59:47Z</time></trkpt><trkpt lat="14.71395438034452" lon="120.9897739605826"><ele>23.0</ele><time>2026-03-29T10:59:48Z</time></trkpt><trkpt lat="14.713771208625769" lon="120.9898718342476"><ele>23.0</ele><time>2026-03-29T10:59:49Z</time></trkpt><trkpt lat="14.713588909976917" lon="120.98997163262449"><ele>23.333333333333336</ele><time>2026-03-29T10:59:50Z</time></trkpt><trkpt lat="14.713406406231956" lon="120.99007305936263"><ele>23.666666666666668</ele><time>2026-03-29T10:59:51Z</time></trkpt><trkpt lat="14.713224684857334" lon="120.99017228774949"><ele>24.0</ele><time>2026-03-29T10:59:52Z</time></trkpt><trkpt lat="14.713041891068162" lon="120.99027083137797"><ele>24.0</ele><time>2026-03-29T10:59:53Z</time></trkpt><trkpt lat="14.712856762983336" lon="120.99037382703173"><ele>24.0</ele><time>2026-03-29T10:59:54Z</time></trkpt><trkpt lat="14.712669822380349" lon="120.99047737041977"><ele>24.0</ele><time>2026-03-29T10:59:55Z</time></trkpt><trkpt lat="14.712479829355333" lon="120.99058036205916"><ele>24.333333333333336</ele><time>2026-03-29T10:59:56Z</time></trkpt><trkpt lat="14.712288957590896" lon="120.99068243152331"><ele>24.666666666666668</ele><time>2026-03-29T10:59:57Z</time></trkpt><trkpt lat="14.712101245997136" lon="120.99078329108808"><ele>25.0</ele><time>2026-03-29T10:59:58Z</time></trkpt><trkpt lat="14.711915562374665" lon="120.99088221432767"><ele>24.0</ele><time>2026-03-29T10:59:59Z</time></trkpt><trkpt lat="14.711735691330649" lon="120.99097967423565"><ele>23.0</ele><time>2026-03-29T11:00:00Z</time></trkpt><trkpt lat="14.711560653994749" lon="120.9910732780874"><ele>22.0</ele><time>2026-03-29T11:00:01Z</time></trkpt><trkpt lat="14.711392729929894" lon="120.99116561201701"><ele>22.0</ele><time>2026-03-29T11:00:02Z</time></trkpt><trkpt lat="14.711229324177815" lon="120.99125351883488"><ele>22.0</ele><time>2026-03-29T11:00:03Z</time></trkpt><trkpt lat="14.711072374303868" lon="120.99133919043724"><ele>22.0</ele><time>2026-03-29T11:00:04Z</time></trkpt><trkpt lat="14.710917967584313" lon="120.99142276218225"><ele>22.0</ele><time>2026-03-29T11:00:05Z</time></trkpt><trkpt lat="14.710769257382474" lon="120.99150311090527"><ele>22.0</ele><time>2026-03-29T11:00:06Z</time></trkpt><trkpt lat="14.710622817606447" lon="120.99157969574078"><ele>22.0</ele><time>2026-03-29T11:00:07Z</time></trkpt><trkpt lat="14.710477905213986" lon="120.99165762543969"><ele>21.333333333333332</ele><time>2026-03-29T11:00:08Z</time></trkpt><trkpt lat="14.710334079344829" lon="120.99173378375886"><ele>20.666666666666668</ele><time>2026-03-29T11:00:09Z</time></trkpt><trkpt lat="14.710191260483318" lon="120.99181270753441"><ele>20.0</ele><time>2026-03-29T11:00:10Z</time></trkpt><trkpt lat="14.71004760784595" lon="120.99189437836066"><ele>19.0</ele><time>2026-03-29T11:00:11Z</time></trkpt><trkpt lat="14.709900422899896" lon="120.99197339068351"><ele>18.0</ele><time>2026-03-29T11:00:12Z</time></trkpt><trkpt lat="14.709753311019242" lon="120.99205325926793"><ele>17.0</ele><time>2026-03-29T11:00:13Z</time></trkpt><trkpt lat="14.709604073443883" lon="120.9921333160608"><ele>17.0</ele><time>2026-03-29T11:00:14.001Z</time></trkpt><trkpt lat="14.709453575811116" lon="120.9922155139189"><ele>17.0</ele><time>2026-03-29T11:00:15.001Z</time></trkpt><trkpt lat="14.709302079015073" lon="120.99229837856309"><ele>17.0</ele><time>2026-03-29T11:00:16.001Z</time></trkpt><trkpt lat="14.709150315831426" lon="120.99238089242861"><ele>17.0</ele><time>2026-03-29T11:00:17.001Z</time></trkpt><trkpt lat="14.708998817681563" lon="120.99246317111425"><ele>17.0</ele><time>2026-03-29T11:00:18.001Z</time></trkpt><trkpt lat="14.708849143532948" lon="120.99254602694525"><ele>17.0</ele><time>2026-03-29T11:00:19.001Z</time></trkpt><trkpt lat="14.708697545442373" lon="120.99262997373118"><ele>18.333333333333336</ele><time>2026-03-29T11:00:20.001Z</time></trkpt><trkpt lat="14.70854676132133" lon="120.99271424189104"><ele>19.666666666666668</ele><time>2026-03-29T11:00:21.001Z</time></trkpt><trkpt lat="14.708396550006821" lon="120.99279721985305"><ele>21.0</ele><time>2026-03-29T11:00:22.001Z</time></trkpt><trkpt lat="14.708248828241278" lon="120.99287691864865"><ele>21.0</ele><time>2026-03-29T11:00:23.001Z</time></trkpt><trkpt lat="14.708101989676981" lon="120.99295638723581"><ele>21.0</ele><time>2026-03-29T11:00:24.001Z</time></trkpt><trkpt lat="14.70795865401068" lon="120.99303612172066"><ele>21.0</ele><time>2026-03-29T11:00:25.001Z</time></trkpt><trkpt lat="14.707809630062318" lon="120.9931175569373"><ele>19.333333333333332</ele><time>2026-03-29T11:00:26.001Z</time></trkpt><trkpt lat="14.707668485150858" lon="120.99319279891743"><ele>17.666666666666664</ele><time>2026-03-29T11:00:27.001Z</time></trkpt><trkpt lat="14.70753168590974" lon="120.99326741130538"><ele>16.0</ele><time>2026-03-29T11:00:28.001Z</time></trkpt><trkpt lat="14.707398542848296" lon="120.99333978760411"><ele>16.0</ele><time>2026-03-29T11:00:29.001Z</time></trkpt><trkpt lat="14.70726744541181" lon="120.99341085688324"><ele>16.0</ele><time>2026-03-29T11:00:30.001Z</time></trkpt><trkpt lat="14.707140582201612" lon="120.99347947593003"><ele>16.0</ele><time>2026-03-29T11:00:31.001Z</time></trkpt><trkpt lat="14.707016304255978" lon="120.99354623164217"><ele>16.0</ele><time>2026-03-29T11:00:32.001Z</time></trkpt><trkpt lat="14.706894111449266" lon="120.99360945401723"><ele>15.75</ele><time>2026-03-29T11:00:33.001Z</time></trkpt><trkpt lat="14.706777254455186" lon="120.99367346469296"><ele>15.5</ele><time>2026-03-29T11:00:34.001Z</time></trkpt><trkpt lat="14.706660677180912" lon="120.99373581577308"><ele>15.25</ele><time>2026-03-29T11:00:35.001Z</time></trkpt><trkpt lat="14.706541776047315" lon="120.99379810027035"><ele>15.0</ele><time>2026-03-29T11:00:36.001Z</time></trkpt><trkpt lat="14.70642014077102" lon="120.99386466785221"><ele>15.0</ele><time>2026-03-29T11:00:37.001Z</time></trkpt><trkpt lat="14.706297790104465" lon="120.99393125439148"><ele>15.0</ele><time>2026-03-29T11:00:38.001Z</time></trkpt><trkpt lat="14.706179278775405" lon="120.99399772154497"><ele>15.0</ele><time>2026-03-29T11:00:39.001Z</time></trkpt><trkpt lat="14.706061715153357" lon="120.9940639732899"><ele>15.0</ele><time>2026-03-29T11:00:40.001Z</time></trkpt><trkpt lat="14.705943571746365" lon="120.99413072273525"><ele>15.0</ele><time>2026-03-29T11:00:41.001Z</time></trkpt><trkpt lat="14.705819456330387" lon="120.99419865187058"><ele>15.0</ele><time>2026-03-29T11:00:42.001Z</time></trkpt><trkpt lat="14.705694225103592" lon="120.99426670249973"><ele>15.0</ele><time>2026-03-29T11:00:43.001Z</time></trkpt><trkpt lat="14.705568828634732" lon="120.99433393536718"><ele>15.0</ele><time>2026-03-29T11:00:44.001Z</time></trkpt><trkpt lat="14.705443219024561" lon="120.9944038156701"><ele>15.0</ele><time>2026-03-29T11:00:45.001Z</time></trkpt><trkpt lat="14.705318523608483" lon="120.99447299222098"><ele>15.0</ele><time>2026-03-29T11:00:46.001Z</time></trkpt><trkpt lat="14.705193696622635" lon="120.99454309178016"><ele>15.0</ele><time>2026-03-29T11:00:47.001Z</time></trkpt><trkpt lat="14.705068806846858" lon="120.99461153289278"><ele>15.0</ele><time>2026-03-29T11:00:48.001Z</time></trkpt><trkpt lat="14.70494229457824" lon="120.99468034372424"><ele>15.75</ele><time>2026-03-29T11:00:49.001Z</time></trkpt><trkpt lat="14.704814145978704" lon="120.9947485784443"><ele>16.5</ele><time>2026-03-29T11:00:50.001Z</time></trkpt><trkpt lat="14.704685998772655" lon="120.99481701166057"><ele>17.25</ele><time>2026-03-29T11:00:51.001Z</time></trkpt><trkpt lat="14.704557829559414" lon="120.99488628595616"><ele>18.0</ele><time>2026-03-29T11:00:52.001Z</time></trkpt><trkpt lat="14.704426987413635" lon="120.99495595031041"><ele>18.333333333333332</ele><time>2026-03-29T11:00:53.001Z</time></trkpt><trkpt lat="14.704294121237728" lon="120.99502933475452"><ele>18.666666666666664</ele><time>2026-03-29T11:00:54.001Z</time></trkpt><trkpt lat="14.704158206845245" lon="120.9951050029592"><ele>19.0</ele><time>2026-03-29T11:00:55.001Z</time></trkpt><trkpt lat="14.704019978499097" lon="120.99518260324666"><ele>19.0</ele><time>2026-03-29T11:00:56.001Z</time></trkpt><trkpt lat="14.703879360353643" lon="120.99526528747276"><ele>19.0</ele><time>2026-03-29T11:00:57.001Z</time></trkpt><trkpt lat="14.703736355854703" lon="120.99534820936717"><ele>19.0</ele><time>2026-03-29T11:00:58.001Z</time></trkpt><trkpt lat="14.703582890153418" lon="120.99541532891924"><ele>19.0</ele><time>2026-03-29T11:00:59.001Z</time></trkpt><trkpt lat="14.703434174699515" lon="120.99549576605216"><ele>19.0</ele><time>2026-03-29T11:01:00.001Z</time></trkpt><trkpt lat="14.703280974934861" lon="120.99557862866972"><ele>19.0</ele><time>2026-03-29T11:01:01.001Z</time></trkpt><trkpt lat="14.703125535198824" lon="120.99566270283304"><ele>19.0</ele><time>2026-03-29T11:01:02.001Z</time></trkpt><trkpt lat="14.702966695754105" lon="120.99574861583014"><ele>19.0</ele><time>2026-03-29T11:01:03.001Z</time></trkpt><trkpt lat="14.70280432555872" lon="120.99583643853897"><ele>19.0</ele><time>2026-03-29T11:01:04.001Z</time></trkpt><trkpt lat="14.70263917910724" lon="120.99592576287267"><ele>19.333333333333332</ele><time>2026-03-29T11:01:05.001Z</time></trkpt><trkpt lat="14.702472344087774" lon="120.99601595965852"><ele>19.666666666666668</ele><time>2026-03-29T11:01:06.001Z</time></trkpt><trkpt lat="14.70230456502096" lon="120.99610666668517"><ele>20.0</ele><time>2026-03-29T11:01:07.001Z</time></trkpt><trkpt lat="14.702133837785725" lon="120.99619896759202"><ele>20.0</ele><time>2026-03-29T11:01:08.001Z</time></trkpt><trkpt lat="14.701962010632354" lon="120.99629186314121"><ele>20.0</ele><time>2026-03-29T11:01:09.001Z</time></trkpt><trkpt lat="14.70178872241079" lon="120.99638554859871"><ele>20.0</ele><time>2026-03-29T11:01:10.001Z</time></trkpt><trkpt lat="14.70161610077843" lon="120.9964788736646"><ele>20.0</ele><time>2026-03-29T11:01:11.001Z</time></trkpt><trkpt lat="14.701445689241588" lon="120.99657100389169"><ele>20.0</ele><time>2026-03-29T11:01:12.001Z</time></trkpt><trkpt lat="14.701274168159454" lon="120.99666345325929"><ele>20.0</ele><time>2026-03-29T11:01:13.001Z</time></trkpt><trkpt lat="14.701104777632631" lon="120.99675473154466"><ele>20.666666666666668</ele><time>2026-03-29T11:01:14.001Z</time></trkpt><trkpt lat="14.700934593878019" lon="120.99684686999798"><ele>21.333333333333332</ele><time>2026-03-29T11:01:15.001Z</time></trkpt><trkpt lat="14.700766360303053" lon="120.9969379526196"><ele>22.0</ele><time>2026-03-29T11:01:16.001Z</time></trkpt><trkpt lat="14.700599107775755" lon="120.99702850409214"><ele>22.0</ele><time>2026-03-29T11:01:17.001Z</time></trkpt><trkpt lat="14.700438896576841" lon="120.99713286944781"><ele>22.0</ele><time>2026-03-29T11:01:18.001Z</time></trkpt><trkpt lat="14.700269443478412" lon="120.99722327997796"><ele>22.0</ele><time>2026-03-29T11:01:19.001Z</time></trkpt><trkpt lat="14.700098660506413" lon="120.9973127362534"><ele>22.0</ele><time>2026-03-29T11:01:20.001Z</time></trkpt><trkpt lat="14.699926382416407" lon="120.99740771161372"><ele>22.0</ele><time>2026-03-29T11:01:21.001Z</time></trkpt><trkpt lat="14.699754407746811" lon="120.99750287929243"><ele>22.0</ele><time>2026-03-29T11:01:22.001Z</time></trkpt><trkpt lat="14.699583131778748" lon="120.9975968535337"><ele>21.333333333333332</ele><time>2026-03-29T11:01:23.001Z</time></trkpt><trkpt lat="14.69940426286293" lon="120.99767461897343"><ele>20.666666666666668</ele><time>2026-03-29T11:01:24.001Z</time></trkpt><trkpt lat="14.699235319230365" lon="120.99776582594076"><ele>20.0</ele><time>2026-03-29T11:01:25.001Z</time></trkpt><trkpt lat="14.699067592807301" lon="120.99785640387252"><ele>20.0</ele><time>2026-03-29T11:01:26.001Z</time></trkpt><trkpt lat="14.698910451057762" lon="120.9979606727307"><ele>20.0</ele><time>2026-03-29T11:01:27.001Z</time></trkpt><trkpt lat="14.698746188094765" lon="120.99804855465698"><ele>20.0</ele><time>2026-03-29T11:01:28.001Z</time></trkpt><trkpt lat="14.698582953609154" lon="120.99813615334553"><ele>20.333333333333336</ele><time>2026-03-29T11:01:29.001Z</time></trkpt><trkpt lat="14.698423293968819" lon="120.99822321227668"><ele>20.666666666666668</ele><time>2026-03-29T11:01:30.001Z</time></trkpt><trkpt lat="14.698266907253362" lon="120.99830825490596"><ele>21.0</ele><time>2026-03-29T11:01:31.001Z</time></trkpt><trkpt lat="14.698113855614105" lon="120.99839053623658"><ele>20.666666666666668</ele><time>2026-03-29T11:01:32.001Z</time></trkpt><trkpt lat="14.697956698711906" lon="120.99845673425773"><ele>20.333333333333336</ele><time>2026-03-29T11:01:33.001Z</time></trkpt><trkpt lat="14.697811586259814" lon="120.99853515344839"><ele>20.0</ele><time>2026-03-29T11:01:34.001Z</time></trkpt><trkpt lat="14.697670317113477" lon="120.99861173761724"><ele>20.0</ele><time>2026-03-29T11:01:35.001Z</time></trkpt><trkpt lat="14.697540273853917" lon="120.9986985682005"><ele>20.0</ele><time>2026-03-29T11:01:36.001Z</time></trkpt><trkpt lat="14.69740380294559" lon="120.99876616590169"><ele>20.0</ele><time>2026-03-29T11:01:37.001Z</time></trkpt><trkpt lat="14.697265680546108" lon="120.99883324782635"><ele>20.0</ele><time>2026-03-29T11:01:38.001Z</time></trkpt><trkpt lat="14.697125911876107" lon="120.99890235291592"><ele>20.0</ele><time>2026-03-29T11:01:39.001Z</time></trkpt><trkpt lat="14.69698290355097" lon="120.99897536459116"><ele>20.0</ele><time>2026-03-29T11:01:40.001Z</time></trkpt><trkpt lat="14.696839092550674" lon="120.99905145506831"><ele>19.666666666666668</ele><time>2026-03-29T11:01:41.001Z</time></trkpt><trkpt lat="14.69669134736588" lon="120.99912740414706"><ele>19.333333333333332</ele><time>2026-03-29T11:01:42.001Z</time></trkpt><trkpt lat="14.696540610759095" lon="120.9992019963976"><ele>19.0</ele><time>2026-03-29T11:01:43.001Z</time></trkpt><trkpt lat="14.696389271867032" lon="120.99927550354393"><ele>20.0</ele><time>2026-03-29T11:01:44.001Z</time></trkpt><trkpt lat="14.696235681288927" lon="120.99934813845618"><ele>21.0</ele><time>2026-03-29T11:01:45.001Z</time></trkpt><trkpt lat="14.696081999186573" lon="120.99942078668293"><ele>22.0</ele><time>2026-03-29T11:01:46.001Z</time></trkpt><trkpt lat="14.695925635699203" lon="120.99949134670547"><ele>22.0</ele><time>2026-03-29T11:01:47.001Z</time></trkpt><trkpt lat="14.69576762797695" lon="120.99956037462995"><ele>22.0</ele><time>2026-03-29T11:01:48.001Z</time></trkpt><trkpt lat="14.695606348668628" lon="120.99962711394691"><ele>22.0</ele><time>2026-03-29T11:01:49.001Z</time></trkpt><trkpt lat="14.695439787511033" lon="120.99969433181836"><ele>22.0</ele><time>2026-03-29T11:01:50.001Z</time></trkpt><trkpt lat="14.695271162453404" lon="120.99975565757441"><ele>22.0</ele><time>2026-03-29T11:01:51.001Z</time></trkpt><trkpt lat="14.6951027906747" lon="120.99981766579943"><ele>22.0</ele><time>2026-03-29T11:01:52.001Z</time></trkpt><trkpt lat="14.694934281688772" lon="120.99987802058871"><ele>21.0</ele><time>2026-03-29T11:01:53.001Z</time></trkpt><trkpt lat="14.694766441958443" lon="120.99993558664909"><ele>20.0</ele><time>2026-03-29T11:01:54.001Z</time></trkpt><trkpt lat="14.694595424932134" lon="120.99999461246173"><ele>19.0</ele><time>2026-03-29T11:01:55.001Z</time></trkpt><trkpt lat="14.694423354819632" lon="121.0000560356474"><ele>17.666666666666664</ele><time>2026-03-29T11:01:56.001Z</time></trkpt><trkpt lat="14.69424908190002" lon="121.00011565384007"><ele>16.333333333333332</ele><time>2026-03-29T11:01:57.001Z</time></trkpt><trkpt lat="14.694073901323398" lon="121.00017066940133"><ele>15.0</ele><time>2026-03-29T11:01:58.001Z</time></trkpt><trkpt lat="14.693900640060543" lon="121.00022476499316"><ele>15.0</ele><time>2026-03-29T11:01:59.001Z</time></trkpt><trkpt lat="14.693730065395439" lon="121.0002745133226"><ele>15.0</ele><time>2026-03-29T11:02:00.001Z</time></trkpt><trkpt lat="14.693559750909019" lon="121.0003176567343"><ele>15.0</ele><time>2026-03-29T11:02:01.001Z</time></trkpt><trkpt lat="14.693389167866629" lon="121.00035921960186"><ele>17.0</ele><time>2026-03-29T11:02:02.001Z</time></trkpt><trkpt lat="14.693219707661326" lon="121.00040180879184"><ele>19.0</ele><time>2026-03-29T11:02:03.001Z</time></trkpt><trkpt lat="14.693051585627858" lon="121.0004407910247"><ele>21.0</ele><time>2026-03-29T11:02:04.001Z</time></trkpt><trkpt lat="14.692886915435519" lon="121.00048117195432"><ele>21.333333333333332</ele><time>2026-03-29T11:02:05.001Z</time></trkpt><trkpt lat="14.692723096900862" lon="121.00051879160054"><ele>21.666666666666664</ele><time>2026-03-29T11:02:06.001Z</time></trkpt><trkpt lat="14.692562198223522" lon="121.00054894072781"><ele>22.0</ele><time>2026-03-29T11:02:07.001Z</time></trkpt><trkpt lat="14.692401286347744" lon="121.00057813211035"><ele>22.0</ele><time>2026-03-29T11:02:08.001Z</time></trkpt><trkpt lat="14.692243490535212" lon="121.00060620406687"><ele>22.0</ele><time>2026-03-29T11:02:09.001Z</time></trkpt><trkpt lat="14.6920881636097" lon="121.00063035704474"><ele>22.0</ele><time>2026-03-29T11:02:10.001Z</time></trkpt><trkpt lat="14.691935573327074" lon="121.00065259976324"><ele>22.25</ele><time>2026-03-29T11:02:11.001Z</time></trkpt><trkpt lat="14.691786214659608" lon="121.00067311905968"><ele>22.5</ele><time>2026-03-29T11:02:12.001Z</time></trkpt><trkpt lat="14.691638971853628" lon="121.0006887634917"><ele>22.75</ele><time>2026-03-29T11:02:13.001Z</time></trkpt><trkpt lat="14.691489847211963" lon="121.0007026370742"><ele>23.0</ele><time>2026-03-29T11:02:14.001Z</time></trkpt><trkpt lat="14.691338548802202" lon="121.00071718486235"><ele>23.0</ele><time>2026-03-29T11:02:15.001Z</time></trkpt><trkpt lat="14.691185002703433" lon="121.00072847165032"><ele>23.0</ele><time>2026-03-29T11:02:16.001Z</time></trkpt><trkpt lat="14.691030232050675" lon="121.00073960305131"><ele>23.0</ele><time>2026-03-29T11:02:17.001Z</time></trkpt><trkpt lat="14.690874006505002" lon="121.00075089099053"><ele>24.0</ele><time>2026-03-29T11:02:18.001Z</time></trkpt><trkpt lat="14.69071442800138" lon="121.00076088901346"><ele>25.0</ele><time>2026-03-29T11:02:19.001Z</time></trkpt><trkpt lat="14.690553073580082" lon="121.00076880269019"><ele>26.0</ele><time>2026-03-29T11:02:20.001Z</time></trkpt><trkpt lat="14.690389143557217" lon="121.00077797005778"><ele>26.333333333333332</ele><time>2026-03-29T11:02:21.001Z</time></trkpt><trkpt lat="14.690222347136967" lon="121.00078445466721"><ele>26.666666666666664</ele><time>2026-03-29T11:02:22.001Z</time></trkpt><trkpt lat="14.690055176971082" lon="121.00078826617239"><ele>27.0</ele><time>2026-03-29T11:02:23.001Z</time></trkpt><trkpt lat="14.689887487875732" lon="121.00079067158339"><ele>27.0</ele><time>2026-03-29T11:02:24.001Z</time></trkpt><trkpt lat="14.689718295090088" lon="121.00079119939556"><ele>27.0</ele><time>2026-03-29T11:02:25.001Z</time></trkpt><trkpt lat="14.689549452174619" lon="121.00079226344825"><ele>27.0</ele><time>2026-03-29T11:02:26.001Z</time></trkpt><trkpt lat="14.689375333445065" lon="121.00078764324928"><ele>26.666666666666664</ele><time>2026-03-29T11:02:27.001Z</time></trkpt><trkpt lat="14.689199605708787" lon="121.0007860047871"><ele>26.333333333333332</ele><time>2026-03-29T11:02:28.001Z</time></trkpt><trkpt lat="14.689020530259755" lon="121.0007810025347"><ele>26.0</ele><time>2026-03-29T11:02:29.001Z</time></trkpt><trkpt lat="14.688839164385513" lon="121.00077698000281"><ele>26.0</ele><time>2026-03-29T11:02:30.001Z</time></trkpt><trkpt lat="14.688658033554283" lon="121.00077153803578"><ele>26.0</ele><time>2026-03-29T11:02:31.001Z</time></trkpt><trkpt lat="14.688473676120372" lon="121.00077199933183"><ele>26.0</ele><time>2026-03-29T11:02:32.001Z</time></trkpt><trkpt lat="14.688280555825774" lon="121.00076834461007"><ele>25.0</ele><time>2026-03-29T11:02:33.001Z</time></trkpt><trkpt lat="14.68808182983138" lon="121.00076723113058"><ele>24.0</ele><time>2026-03-29T11:02:34.001Z</time></trkpt><trkpt lat="14.687877889373297" lon="121.00076300594196"><ele>23.0</ele><time>2026-03-29T11:02:35.001Z</time></trkpt><trkpt lat="14.687670723836877" lon="121.00075873764094"><ele>20.666666666666668</ele><time>2026-03-29T11:02:36.001Z</time></trkpt><trkpt lat="14.68745897221703" lon="121.00075184986059"><ele>18.333333333333332</ele><time>2026-03-29T11:02:37.001Z</time></trkpt><trkpt lat="14.687250130749673" lon="121.00074683880207"><ele>16.0</ele><time>2026-03-29T11:02:38.001Z</time></trkpt><trkpt lat="14.68703845650006" lon="121.00073730655153"><ele>15.333333333333332</ele><time>2026-03-29T11:02:39.001Z</time></trkpt><trkpt lat="14.68683157839614" lon="121.00073288005245"><ele>14.666666666666668</ele><time>2026-03-29T11:02:40.001Z</time></trkpt><trkpt lat="14.68662715781088" lon="121.00072588328253"><ele>14.0</ele><time>2026-03-29T11:02:41.001Z</time></trkpt><trkpt lat="14.686426386487025" lon="121.00071974682024"><ele>14.0</ele><time>2026-03-29T11:02:42.001Z</time></trkpt><trkpt lat="14.686226531639612" lon="121.00071615143271"><ele>14.0</ele><time>2026-03-29T11:02:43.001Z</time></trkpt><trkpt lat="14.686031747930418" lon="121.00071389003685"><ele>14.0</ele><time>2026-03-29T11:02:44.001Z</time></trkpt><trkpt lat="14.68584246747906" lon="121.00070963162715"><ele>14.666666666666668</ele><time>2026-03-29T11:02:45.001Z</time></trkpt><trkpt lat="14.68565786231654" lon="121.00070511454274"><ele>15.333333333333332</ele><time>2026-03-29T11:02:46.001Z</time></trkpt><trkpt lat="14.685478869569327" lon="121.00069923518456"><ele>16.0</ele><time>2026-03-29T11:02:47.001Z</time></trkpt><trkpt lat="14.685300529509394" lon="121.00069351815904"><ele>14.0</ele><time>2026-03-29T11:02:48.001Z</time></trkpt><trkpt lat="14.685120281490883" lon="121.00069160207619"><ele>12.0</ele><time>2026-03-29T11:02:49.001Z</time></trkpt><trkpt lat="14.68494060623886" lon="121.00069128218699"><ele>10.0</ele><time>2026-03-29T11:02:50.001Z</time></trkpt><trkpt lat="14.684759266551293" lon="121.00068994826484"><ele>10.0</ele><time>2026-03-29T11:02:51.001Z</time></trkpt><trkpt lat="14.6845777895242" lon="121.00068643207211"><ele>10.0</ele><time>2026-03-29T11:02:52.001Z</time></trkpt><trkpt lat="14.684396784409136" lon="121.0006825157096"><ele>10.0</ele><time>2026-03-29T11:02:53.001Z</time></trkpt><trkpt lat="14.684214516578521" lon="121.00067905677477"><ele>10.0</ele><time>2026-03-29T11:02:54.001Z</time></trkpt><trkpt lat="14.684029523253805" lon="121.00067735040493"><ele>10.0</ele><time>2026-03-29T11:02:55.001Z</time></trkpt><trkpt lat="14.68384390962596" lon="121.0006778497586"><ele>10.0</ele><time>2026-03-29T11:02:56.001Z</time></trkpt><trkpt lat="14.683655226073425" lon="121.00067803541735"><ele>11.0</ele><time>2026-03-29T11:02:57.001Z</time></trkpt><trkpt lat="14.683466951559831" lon="121.00067805996869"><ele>12.0</ele><time>2026-03-29T11:02:58.001Z</time></trkpt><trkpt lat="14.683280725732821" lon="121.00067472876357"><ele>13.0</ele><time>2026-03-29T11:02:59.001Z</time></trkpt><trkpt lat="14.683094706543535" lon="121.00067291734202"><ele>13.0</ele><time>2026-03-29T11:03:00.001Z</time></trkpt><trkpt lat="14.682910719552542" lon="121.00067153786812"><ele>13.0</ele><time>2026-03-29T11:03:01.001Z</time></trkpt><trkpt lat="14.682728529175742" lon="121.00066991616484"><ele>13.0</ele><time>2026-03-29T11:03:02.001Z</time></trkpt><trkpt lat="14.682548862325564" lon="121.00066581797908"><ele>13.0</ele><time>2026-03-29T11:03:03.001Z</time></trkpt><trkpt lat="14.682369588079482" lon="121.0006619541621"><ele>13.0</ele><time>2026-03-29T11:03:04.001Z</time></trkpt><trkpt lat="14.682191185000908" lon="121.00065957165594"><ele>13.0</ele><time>2026-03-29T11:03:05.001Z</time></trkpt><trkpt lat="14.68201417022866" lon="121.00065459785003"><ele>11.666666666666666</ele><time>2026-03-29T11:03:06.001Z</time></trkpt><trkpt lat="14.681840770177466" lon="121.00064598351346"><ele>10.333333333333332</ele><time>2026-03-29T11:03:07.001Z</time></trkpt><trkpt lat="14.681670639446775" lon="121.00063239246641"><ele>9.0</ele><time>2026-03-29T11:03:08.001Z</time></trkpt><trkpt lat="14.681502364554154" lon="121.0006109070216"><ele>9.0</ele><time>2026-03-29T11:03:09.001Z</time></trkpt><trkpt lat="14.681332487931046" lon="121.00058043170283"><ele>9.0</ele><time>2026-03-29T11:03:10.001Z</time></trkpt><trkpt lat="14.681159180437271" lon="121.00054703011622"><ele>9.0</ele><time>2026-03-29T11:03:11.001Z</time></trkpt><trkpt lat="14.680983088011056" lon="121.00050689636763"><ele>9.0</ele><time>2026-03-29T11:03:12.001Z</time></trkpt><trkpt lat="14.68080611909281" lon="121.00045735170872"><ele>9.0</ele><time>2026-03-29T11:03:13.001Z</time></trkpt><trkpt lat="14.680626791978389" lon="121.00040355765168"><ele>9.0</ele><time>2026-03-29T11:03:14.001Z</time></trkpt><trkpt lat="14.680447345956768" lon="121.00034292110503"><ele>9.0</ele><time>2026-03-29T11:03:15.001Z</time></trkpt><trkpt lat="14.680270535971953" lon="121.00028066331724"><ele>9.0</ele><time>2026-03-29T11:03:16.001Z</time></trkpt><trkpt lat="14.680094079318552" lon="121.00021779438755"><ele>9.0</ele><time>2026-03-29T11:03:17.001Z</time></trkpt><trkpt lat="14.679921041204807" lon="121.00015604206625"><ele>10.666666666666668</ele><time>2026-03-29T11:03:18.001Z</time></trkpt><trkpt lat="14.679750289452372" lon="121.00009951374301"><ele>12.333333333333334</ele><time>2026-03-29T11:03:19.001Z</time></trkpt><trkpt lat="14.679582483419418" lon="121.00004585299004"><ele>14.0</ele><time>2026-03-29T11:03:20.001Z</time></trkpt><trkpt lat="14.679420791705097" lon="121.00000620921007"><ele>15.333333333333334</ele><time>2026-03-29T11:03:21.001Z</time></trkpt><trkpt lat="14.679263551006944" lon="120.99997374921247"><ele>16.666666666666668</ele><time>2026-03-29T11:03:22.001Z</time></trkpt><trkpt lat="14.679109949070336" lon="120.99994693090397"><ele>18.0</ele><time>2026-03-29T11:03:23.001Z</time></trkpt><trkpt lat="14.678957687009975" lon="120.99992516262832"><ele>18.0</ele><time>2026-03-29T11:03:24.001Z</time></trkpt><trkpt lat="14.678808728953328" lon="120.99991226273927"><ele>18.0</ele><time>2026-03-29T11:03:25.001Z</time></trkpt><trkpt lat="14.6786611227598" lon="120.99990321438311"><ele>18.0</ele><time>2026-03-29T11:03:26.001Z</time></trkpt><trkpt lat="14.678514053066142" lon="120.99989714539342"><ele>18.0</ele><time>2026-03-29T11:03:27.001Z</time></trkpt><trkpt lat="14.678367072423825" lon="120.99989543481253"><ele>17.5</ele><time>2026-03-29T11:03:28.001Z</time></trkpt><trkpt lat="14.678222700583982" lon="120.99989761850144"><ele>17.0</ele><time>2026-03-29T11:03:29.001Z</time></trkpt><trkpt lat="14.678085795559335" lon="120.9999069561106"><ele>16.5</ele><time>2026-03-29T11:03:30.001Z</time></trkpt><trkpt lat="14.677956275363204" lon="120.99992027181976"><ele>16.0</ele><time>2026-03-29T11:03:31.001Z</time></trkpt><trkpt lat="14.677832784857225" lon="120.99993728704125"><ele>16.0</ele><time>2026-03-29T11:03:32.001Z</time></trkpt><trkpt lat="14.677713016236016" lon="120.99995549234433"><ele>16.0</ele><time>2026-03-29T11:03:33.001Z</time></trkpt><trkpt lat="14.677599115080591" lon="120.99997677931492"><ele>16.0</ele><time>2026-03-29T11:03:34.001Z</time></trkpt><trkpt lat="14.67748821754935" lon="121.00000032063537"><ele>16.0</ele><time>2026-03-29T11:03:35.001Z</time></trkpt><trkpt lat="14.677380305547262" lon="121.00002513329893"><ele>16.0</ele><time>2026-03-29T11:03:36.001Z</time></trkpt><trkpt lat="14.67727287248488" lon="121.0000520205818"><ele>16.0</ele><time>2026-03-29T11:03:37.001Z</time></trkpt><trkpt lat="14.67716459054983" lon="121.00008211390609"><ele>16.0</ele><time>2026-03-29T11:03:38.001Z</time></trkpt><trkpt lat="14.677057393737801" lon="121.00011407042302"><ele>16.0</ele><time>2026-03-29T11:03:39.001Z</time></trkpt><trkpt lat="14.676948714095232" lon="121.00014580904255"><ele>16.0</ele><time>2026-03-29T11:03:40.001Z</time></trkpt><trkpt lat="14.676837006724297" lon="121.00017574161325"><ele>16.25</ele><time>2026-03-29T11:03:41.001Z</time></trkpt><trkpt lat="14.676722292648474" lon="121.00020731416045"><ele>16.5</ele><time>2026-03-29T11:03:42.001Z</time></trkpt><trkpt lat="14.676604110785657" lon="121.00023732081489"><ele>16.75</ele><time>2026-03-29T11:03:43.001Z</time></trkpt><trkpt lat="14.676483233127911" lon="121.00026668408822"><ele>17.0</ele><time>2026-03-29T11:03:44.001Z</time></trkpt><trkpt lat="14.67636270480006" lon="121.00029335591292"><ele>17.0</ele><time>2026-03-29T11:03:45.001Z</time></trkpt><trkpt lat="14.67624077278429" lon="121.0003167540493"><ele>17.0</ele><time>2026-03-29T11:03:46.001Z</time></trkpt><trkpt lat="14.676114429694655" lon="121.0003376308684"><ele>17.0</ele><time>2026-03-29T11:03:47.001Z</time></trkpt><trkpt lat="14.675991990634136" lon="121.00035654128378"><ele>17.0</ele><time>2026-03-29T11:03:48.001Z</time></trkpt><trkpt lat="14.675877415388962" lon="121.00037591860189"><ele>16.4</ele><time>2026-03-29T11:03:49.001Z</time></trkpt><trkpt lat="14.675764200165078" lon="121.0003912248542"><ele>15.799999999999999</ele><time>2026-03-29T11:03:50.001Z</time></trkpt><trkpt lat="14.675654318546009" lon="121.00040045507538"><ele>15.2</ele><time>2026-03-29T11:03:51.001Z</time></trkpt><trkpt lat="14.675547240711888" lon="121.00040347954304"><ele>14.6</ele><time>2026-03-29T11:03:52.001Z</time></trkpt><trkpt lat="14.675439834436986" lon="121.00040217422442"><ele>14.0</ele><time>2026-03-29T11:03:53.001Z</time></trkpt><trkpt lat="14.675346873392751" lon="121.00039251851044"><ele>15.2</ele><time>2026-03-29T11:03:54.001Z</time></trkpt><trkpt lat="14.67524213010446" lon="121.00039368947043"><ele>16.4</ele><time>2026-03-29T11:03:55.001Z</time></trkpt><trkpt lat="14.675132033748586" lon="121.0003929727333"><ele>17.6</ele><time>2026-03-29T11:03:56.001Z</time></trkpt><trkpt lat="14.675026886866275" lon="121.0003930034922"><ele>18.8</ele><time>2026-03-29T11:03:57.001Z</time></trkpt><trkpt lat="14.674923350644644" lon="121.00039026058434"><ele>20.0</ele><time>2026-03-29T11:03:58.001Z</time></trkpt><trkpt lat="14.674822289542186" lon="121.00038675630579"><ele>20.0</ele><time>2026-03-29T11:03:59.001Z</time></trkpt><trkpt lat="14.674726311412611" lon="121.00038369905302"><ele>20.0</ele><time>2026-03-29T11:04:00.001Z</time></trkpt><trkpt lat="14.674627846192365" lon="121.00037840635707"><ele>20.0</ele><time>2026-03-29T11:04:01.001Z</time></trkpt><trkpt lat="14.674526251501655" lon="121.0003722605442"><ele>20.0</ele><time>2026-03-29T11:04:02.001Z</time></trkpt><trkpt lat="14.674423578566708" lon="121.00036637234948"><ele>20.0</ele><time>2026-03-29T11:04:03.001Z</time></trkpt><trkpt lat="14.674317824220699" lon="121.00036132474024"><ele>21.0</ele><time>2026-03-29T11:04:04.001Z</time></trkpt><trkpt lat="14.674209449725899" lon="121.00035553183244"><ele>22.0</ele><time>2026-03-29T11:04:05.001Z</time></trkpt><trkpt lat="14.674097887677766" lon="121.00035028017348"><ele>23.0</ele><time>2026-03-29T11:04:06.001Z</time></trkpt><trkpt lat="14.673985328376935" lon="121.00034470081954"><ele>24.0</ele><time>2026-03-29T11:04:07.001Z</time></trkpt><trkpt lat="14.673870253842932" lon="121.0003405061033"><ele>25.0</ele><time>2026-03-29T11:04:08.001Z</time></trkpt><trkpt lat="14.67375591787503" lon="121.00033705608566"><ele>25.0</ele><time>2026-03-29T11:04:09.001Z</time></trkpt><trkpt lat="14.673639548773817" lon="121.0003321493064"><ele>25.0</ele><time>2026-03-29T11:04:10.001Z</time></trkpt><trkpt lat="14.673522122246522" lon="121.00032840813809"><ele>25.0</ele><time>2026-03-29T11:04:11.001Z</time></trkpt><trkpt lat="14.67340414372204" lon="121.00032533905697"><ele>25.0</ele><time>2026-03-29T11:04:12.001Z</time></trkpt><trkpt lat="14.673283691867999" lon="121.00032379551995"><ele>26.5</ele><time>2026-03-29T11:04:13.001Z</time></trkpt><trkpt lat="14.673160947774047" lon="121.00031883666037"><ele>28.0</ele><time>2026-03-29T11:04:14.001Z</time></trkpt><trkpt lat="14.673037232759336" lon="121.00031593267967"><ele>29.5</ele><time>2026-03-29T11:04:15.001Z</time></trkpt><trkpt lat="14.672910761563358" lon="121.00031238607356"><ele>31.0</ele><time>2026-03-29T11:04:16.001Z</time></trkpt><trkpt lat="14.672782781859723" lon="121.00031195305678"><ele>31.5</ele><time>2026-03-29T11:04:17.001Z</time></trkpt><trkpt lat="14.672652925103797" lon="121.00030967387998"><ele>32.0</ele><time>2026-03-29T11:04:18.001Z</time></trkpt><trkpt lat="14.672521061742977" lon="121.00030655805287"><ele>32.5</ele><time>2026-03-29T11:04:19.001Z</time></trkpt><trkpt lat="14.672388213159273" lon="121.0003028075751"><ele>33.0</ele><time>2026-03-29T11:04:20.001Z</time></trkpt><trkpt lat="14.672254113267488" lon="121.00029993712545"><ele>33.0</ele><time>2026-03-29T11:04:21.001Z</time></trkpt><trkpt lat="14.67211849151428" lon="121.00029629356638"><ele>33.0</ele><time>2026-03-29T11:04:22.001Z</time></trkpt><trkpt lat="14.671981495682195" lon="121.00029258259066"><ele>33.0</ele><time>2026-03-29T11:04:23.001Z</time></trkpt><trkpt lat="14.671843157362765" lon="121.00029243813646"><ele>33.0</ele><time>2026-03-29T11:04:24.001Z</time></trkpt><trkpt lat="14.671704869202287" lon="121.00028773860159"><ele>34.0</ele><time>2026-03-29T11:04:25.001Z</time></trkpt><trkpt lat="14.671562800355428" lon="121.00028548951066"><ele>35.0</ele><time>2026-03-29T11:04:26.001Z</time></trkpt><trkpt lat="14.671422476963416" lon="121.00028122752464"><ele>36.0</ele><time>2026-03-29T11:04:27.001Z</time></trkpt><trkpt lat="14.671280873405452" lon="121.00027761010053"><ele>37.0</ele><time>2026-03-29T11:04:28.001Z</time></trkpt><trkpt lat="14.671142102449545" lon="121.00027556798496"><ele>35.75</ele><time>2026-03-29T11:04:29.001Z</time></trkpt><trkpt lat="14.671005252424584" lon="121.00027232004416"><ele>34.5</ele><time>2026-03-29T11:04:30.001Z</time></trkpt><trkpt lat="14.670870302396194" lon="121.00026773868063"><ele>33.25</ele><time>2026-03-29T11:04:31.001Z</time></trkpt><trkpt lat="14.670736539046416" lon="121.00026444585436"><ele>32.0</ele><time>2026-03-29T11:04:32.001Z</time></trkpt><trkpt lat="14.670603778190559" lon="121.00026357055002"><ele>32.0</ele><time>2026-03-29T11:04:33.001Z</time></trkpt><trkpt lat="14.670472613510475" lon="121.00026562544143"><ele>32.0</ele><time>2026-03-29T11:04:34.001Z</time></trkpt><trkpt lat="14.670340602574363" lon="121.00027364040083"><ele>32.0</ele><time>2026-03-29T11:04:35.001Z</time></trkpt><trkpt lat="14.67020817757434" lon="121.00028485680212"><ele>32.0</ele><time>2026-03-29T11:04:36.001Z</time></trkpt><trkpt lat="14.670074551832675" lon="121.0002963663582"><ele>31.25</ele><time>2026-03-29T11:04:37.001Z</time></trkpt><trkpt lat="14.669936744281516" lon="121.00030774059086"><ele>30.5</ele><time>2026-03-29T11:04:38.001Z</time></trkpt><trkpt lat="14.669793508437975" lon="121.00031851315542"><ele>29.75</ele><time>2026-03-29T11:04:39.001Z</time></trkpt><trkpt lat="14.66964521073766" lon="121.00033034630628"><ele>29.0</ele><time>2026-03-29T11:04:40.001Z</time></trkpt><trkpt lat="14.669492247861122" lon="121.00034134230529"><ele>29.0</ele><time>2026-03-29T11:04:41.001Z</time></trkpt><trkpt lat="14.669334125236393" lon="121.00034878300166"><ele>29.0</ele><time>2026-03-29T11:04:42.001Z</time></trkpt><trkpt lat="14.669174347879508" lon="121.00035383254517"><ele>29.0</ele><time>2026-03-29T11:04:43.001Z</time></trkpt><trkpt lat="14.669012048659432" lon="121.00035635607932"><ele>29.0</ele><time>2026-03-29T11:04:44.001Z</time></trkpt><trkpt lat="14.668845425482969" lon="121.00035735822105"><ele>29.0</ele><time>2026-03-29T11:04:45.001Z</time></trkpt><trkpt lat="14.668678208940374" lon="121.00035660562607"><ele>29.0</ele><time>2026-03-29T11:04:46.001Z</time></trkpt><trkpt lat="14.668508258207423" lon="121.00035634682082"><ele>29.333333333333332</ele><time>2026-03-29T11:04:47.001Z</time></trkpt><trkpt lat="14.66833652171649" lon="121.00035489341191"><ele>29.666666666666664</ele><time>2026-03-29T11:04:48.001Z</time></trkpt><trkpt lat="14.668164041107936" lon="121.00035412661632"><ele>30.0</ele><time>2026-03-29T11:04:49.001Z</time></trkpt><trkpt lat="14.667989703967145" lon="121.00035377495166"><ele>30.0</ele><time>2026-03-29T11:04:50.001Z</time></trkpt><trkpt lat="14.667812233634159" lon="121.00035217467627"><ele>30.0</ele><time>2026-03-29T11:04:51.001Z</time></trkpt><trkpt lat="14.667630544863483" lon="121.00034930458379"><ele>30.0</ele><time>2026-03-29T11:04:52.001Z</time></trkpt><trkpt lat="14.667448428299421" lon="121.00034471663812"><ele>29.666666666666664</ele><time>2026-03-29T11:04:53.001Z</time></trkpt><trkpt lat="14.66726446513629" lon="121.00034210532013"><ele>29.333333333333332</ele><time>2026-03-29T11:04:54.001Z</time></trkpt><trkpt lat="14.667078675683287" lon="121.00034190586643"><ele>29.0</ele><time>2026-03-29T11:04:55.001Z</time></trkpt><trkpt lat="14.666891501707289" lon="121.00034323890084"><ele>29.0</ele><time>2026-03-29T11:04:56.001Z</time></trkpt><trkpt lat="14.666703200876446" lon="121.00034630352341"><ele>29.0</ele><time>2026-03-29T11:04:57.001Z</time></trkpt><trkpt lat="14.666512317964491" lon="121.0003477034329"><ele>29.0</ele><time>2026-03-29T11:04:58.001Z</time></trkpt><trkpt lat="14.666319246868094" lon="121.00034734505962"><ele>29.0</ele><time>2026-03-29T11:04:59.001Z</time></trkpt><trkpt lat="14.666123572077122" lon="121.00034689217951"><ele>29.0</ele><time>2026-03-29T11:05:00.001Z</time></trkpt><trkpt lat="14.66592569936154" lon="121.00034717977752"><ele>29.0</ele><time>2026-03-29T11:05:01.001Z</time></trkpt><trkpt lat="14.66572532794466" lon="121.00034732207592"><ele>29.0</ele><time>2026-03-29T11:05:02.001Z</time></trkpt><trkpt lat="14.665523393233133" lon="121.00034568697329"><ele>29.0</ele><time>2026-03-29T11:05:03.001Z</time></trkpt><trkpt lat="14.66531955144158" lon="121.00034310027702"><ele>29.0</ele><time>2026-03-29T11:05:04.001Z</time></trkpt><trkpt lat="14.66511661594957" lon="121.00034085159817"><ele>28.333333333333332</ele><time>2026-03-29T11:05:05.001Z</time></trkpt><trkpt lat="14.664912842732967" lon="121.0003396041024"><ele>27.666666666666664</ele><time>2026-03-29T11:05:06.001Z</time></trkpt><trkpt lat="14.664708525340426" lon="121.00033793455331"><ele>27.0</ele><time>2026-03-29T11:05:07.001Z</time></trkpt><trkpt lat="14.664503157814032" lon="121.00033379087247"><ele>26.0</ele><time>2026-03-29T11:05:08.001Z</time></trkpt><trkpt lat="14.664297117206564" lon="121.00033038610869"><ele>25.0</ele><time>2026-03-29T11:05:09.001Z</time></trkpt><trkpt lat="14.664089548504764" lon="121.00032573750747"><ele>24.0</ele><time>2026-03-29T11:05:10.001Z</time></trkpt><trkpt lat="14.663881418181871" lon="121.00032070355999"><ele>24.0</ele><time>2026-03-29T11:05:11.001Z</time></trkpt><trkpt lat="14.663673131754273" lon="121.00031705889906"><ele>24.0</ele><time>2026-03-29T11:05:12.001Z</time></trkpt><trkpt lat="14.663465260025497" lon="121.0003132414174"><ele>24.0</ele><time>2026-03-29T11:05:13.001Z</time></trkpt><trkpt lat="14.663258951192368" lon="121.00030854447847"><ele>24.0</ele><time>2026-03-29T11:05:14.001Z</time></trkpt><trkpt lat="14.663055966853806" lon="121.00030350528863"><ele>24.0</ele><time>2026-03-29T11:05:15.001Z</time></trkpt><trkpt lat="14.662854469990965" lon="121.00029801592358"><ele>24.0</ele><time>2026-03-29T11:05:16.001Z</time></trkpt><trkpt lat="14.66265795716132" lon="121.00028999968521"><ele>24.0</ele><time>2026-03-29T11:05:17.001Z</time></trkpt><trkpt lat="14.662463682516641" lon="121.00028232262173"><ele>24.0</ele><time>2026-03-29T11:05:18.001Z</time></trkpt><trkpt lat="14.662271542631776" lon="121.00027419634301"><ele>24.0</ele><time>2026-03-29T11:05:19.001Z</time></trkpt><trkpt lat="14.662080067600595" lon="121.00026648205508"><ele>23.333333333333332</ele><time>2026-03-29T11:05:20.001Z</time></trkpt><trkpt lat="14.661888421179608" lon="121.00025838137368"><ele>22.666666666666664</ele><time>2026-03-29T11:05:21.001Z</time></trkpt><trkpt lat="14.6616958950743" lon="121.00025008408188"><ele>22.0</ele><time>2026-03-29T11:05:22.001Z</time></trkpt><trkpt lat="14.661501638431021" lon="121.00024377178119"><ele>22.0</ele><time>2026-03-29T11:05:23.001Z</time></trkpt><trkpt lat="14.661303211659703" lon="121.00023679498595"><ele>22.0</ele><time>2026-03-29T11:05:24.001Z</time></trkpt><trkpt lat="14.661101428425932" lon="121.00023093462389"><ele>22.0</ele><time>2026-03-29T11:05:25.001Z</time></trkpt><trkpt lat="14.660896960285239" lon="121.0002254990917"><ele>22.0</ele><time>2026-03-29T11:05:26.001Z</time></trkpt><trkpt lat="14.660687801100215" lon="121.00022172785883"><ele>22.0</ele><time>2026-03-29T11:05:27.001Z</time></trkpt><trkpt lat="14.66047822497786" lon="121.00021727796111"><ele>22.0</ele><time>2026-03-29T11:05:28.001Z</time></trkpt><trkpt lat="14.66026673141054" lon="121.00021547053619"><ele>21.333333333333332</ele><time>2026-03-29T11:05:29.001Z</time></trkpt><trkpt lat="14.66005399081976" lon="121.00021304298254"><ele>20.666666666666668</ele><time>2026-03-29T11:05:30.001Z</time></trkpt><trkpt lat="14.659839574219292" lon="121.00021053393482"><ele>20.0</ele><time>2026-03-29T11:05:31.001Z</time></trkpt><trkpt lat="14.659624045644874" lon="121.00020815827139"><ele>20.333333333333336</ele><time>2026-03-29T11:05:32.001Z</time></trkpt><trkpt lat="14.65940986280692" lon="121.00020541605645"><ele>20.666666666666668</ele><time>2026-03-29T11:05:33.001Z</time></trkpt><trkpt lat="14.659198400216944" lon="121.00020166206677"><ele>21.0</ele><time>2026-03-29T11:05:34.001Z</time></trkpt><trkpt lat="14.658990410162362" lon="121.00019944580129"><ele>21.0</ele><time>2026-03-29T11:05:35.001Z</time></trkpt><trkpt lat="14.658785459653018" lon="121.00019558531248"><ele>21.0</ele><time>2026-03-29T11:05:36.001Z</time></trkpt><trkpt lat="14.65858411926117" lon="121.00019255404405"><ele>21.0</ele><time>2026-03-29T11:05:37.001Z</time></trkpt><trkpt lat="14.658384151721364" lon="121.00019171629384"><ele>20.333333333333332</ele><time>2026-03-29T11:05:38.001Z</time></trkpt><trkpt lat="14.658187048827536" lon="121.00019497334046"><ele>19.666666666666664</ele><time>2026-03-29T11:05:39.001Z</time></trkpt><trkpt lat="14.657994898639027" lon="121.00019960437753"><ele>19.0</ele><time>2026-03-29T11:05:40.001Z</time></trkpt><trkpt lat="14.657809105867292" lon="121.00020420663078"><ele>19.0</ele><time>2026-03-29T11:05:41.001Z</time></trkpt><trkpt lat="14.657628556046777" lon="121.00020816134683"><ele>19.0</ele><time>2026-03-29T11:05:42.001Z</time></trkpt><trkpt lat="14.657454844006738" lon="121.00019656994633"><ele>19.0</ele><time>2026-03-29T11:05:43.001Z</time></trkpt><trkpt lat="14.657286639250781" lon="121.00019519722322"><ele>19.0</ele><time>2026-03-29T11:05:44.001Z</time></trkpt><trkpt lat="14.657128292802838" lon="121.00019022675123"><ele>19.0</ele><time>2026-03-29T11:05:45.001Z</time></trkpt><trkpt lat="14.65697024327081" lon="121.00019702779545"><ele>19.0</ele><time>2026-03-29T11:05:46.001Z</time></trkpt><trkpt lat="14.656816371883055" lon="121.00017019518407"><ele>20.666666666666664</ele><time>2026-03-29T11:05:47.001Z</time></trkpt><trkpt lat="14.656665333224057" lon="121.00012413459999"><ele>22.333333333333332</ele><time>2026-03-29T11:05:48.001Z</time></trkpt><trkpt lat="14.65651973724677" lon="121.00005995927718"><ele>24.0</ele><time>2026-03-29T11:05:49.001Z</time></trkpt><trkpt lat="14.65636876876852" lon="120.99998065577074"><ele>24.0</ele><time>2026-03-29T11:05:50.001Z</time></trkpt><trkpt lat="14.656226361377064" lon="120.99988434356604"><ele>24.0</ele><time>2026-03-29T11:05:51.001Z</time></trkpt><trkpt lat="14.656078687302738" lon="120.99978117017429"><ele>24.0</ele><time>2026-03-29T11:05:52.001Z</time></trkpt><trkpt lat="14.655926407027073" lon="120.99967209077408"><ele>24.666666666666664</ele><time>2026-03-29T11:05:53.001Z</time></trkpt><trkpt lat="14.65577151999966" lon="120.99955837452521"><ele>25.333333333333332</ele><time>2026-03-29T11:05:54.001Z</time></trkpt><trkpt lat="14.655616446647851" lon="120.99944157568713"><ele>26.0</ele><time>2026-03-29T11:05:55.001Z</time></trkpt><trkpt lat="14.655458016720955" lon="120.99932681141581"><ele>26.0</ele><time>2026-03-29T11:05:56.001Z</time></trkpt><trkpt lat="14.65529940847231" lon="120.99921223969356"><ele>26.0</ele><time>2026-03-29T11:05:57.001Z</time></trkpt><trkpt lat="14.655140072652136" lon="120.99909727718233"><ele>26.0</ele><time>2026-03-29T11:05:58.001Z</time></trkpt><trkpt lat="14.65498145395957" lon="120.9989827411999"><ele>25.666666666666664</ele><time>2026-03-29T11:05:59.001Z</time></trkpt><trkpt lat="14.654823117087638" lon="120.998869999739"><ele>25.333333333333336</ele><time>2026-03-29T11:06:00.001Z</time></trkpt><trkpt lat="14.654665519083823" lon="120.99876179436228"><ele>25.0</ele><time>2026-03-29T11:06:01.001Z</time></trkpt><trkpt lat="14.654507297960267" lon="120.99865611085954"><ele>24.666666666666668</ele><time>2026-03-29T11:06:02.001Z</time></trkpt><trkpt lat="14.654348483316097" lon="120.99855258278635"><ele>24.333333333333336</ele><time>2026-03-29T11:06:03.001Z</time></trkpt><trkpt lat="14.654185918622733" lon="120.9984506828222"><ele>24.0</ele><time>2026-03-29T11:06:04.001Z</time></trkpt><trkpt lat="14.65402276417046" lon="120.998348510463"><ele>24.0</ele><time>2026-03-29T11:06:05.001Z</time></trkpt><trkpt lat="14.653857425768539" lon="120.99824894593986"><ele>24.0</ele><time>2026-03-29T11:06:06.001Z</time></trkpt><trkpt lat="14.6536916741531" lon="120.99814872399881"><ele>24.0</ele><time>2026-03-29T11:06:07.001Z</time></trkpt><trkpt lat="14.653522744441576" lon="120.99805091389058"><ele>24.0</ele><time>2026-03-29T11:06:08.001Z</time></trkpt><trkpt lat="14.653352074081317" lon="120.99795389176003"><ele>24.0</ele><time>2026-03-29T11:06:09.001Z</time></trkpt><trkpt lat="14.653183014702867" lon="120.99785550587411"><ele>24.0</ele><time>2026-03-29T11:06:10.001Z</time></trkpt><trkpt lat="14.65301535460135" lon="120.99776135712831"><ele>24.0</ele><time>2026-03-29T11:06:11.001Z</time></trkpt><trkpt lat="14.65284947955263" lon="120.99767108405732"><ele>24.0</ele><time>2026-03-29T11:06:12.001Z</time></trkpt><trkpt lat="14.652687507637623" lon="120.99758195517138"><ele>24.0</ele><time>2026-03-29T11:06:13.001Z</time></trkpt><trkpt lat="14.652526413752168" lon="120.99749620196225"><ele>24.333333333333336</ele><time>2026-03-29T11:06:14.001Z</time></trkpt><trkpt lat="14.652367078146447" lon="120.99741899824254"><ele>24.666666666666668</ele><time>2026-03-29T11:06:15.001Z</time></trkpt><trkpt lat="14.652207966332888" lon="120.99734690248388"><ele>25.0</ele><time>2026-03-29T11:06:16.001Z</time></trkpt><trkpt lat="14.652048077850273" lon="120.99727339777807"><ele>26.0</ele><time>2026-03-29T11:06:17.001Z</time></trkpt><trkpt lat="14.65188736189017" lon="120.99720397396156"><ele>27.0</ele><time>2026-03-29T11:06:18.001Z</time></trkpt><trkpt lat="14.651729225291495" lon="120.99713727945405"><ele>28.0</ele><time>2026-03-29T11:06:19.001Z</time></trkpt><trkpt lat="14.651567738503655" lon="120.99706859656654"><ele>28.0</ele><time>2026-03-29T11:06:20.001Z</time></trkpt><trkpt lat="14.651402523424773" lon="120.99699982821537"><ele>28.0</ele><time>2026-03-29T11:06:21.001Z</time></trkpt><trkpt lat="14.651233001871462" lon="120.9969303376909"><ele>28.0</ele><time>2026-03-29T11:06:22.001Z</time></trkpt><trkpt lat="14.651061503568421" lon="120.99685446475912"><ele>28.0</ele><time>2026-03-29T11:06:23.001Z</time></trkpt><trkpt lat="14.65088687020386" lon="120.99678057786306"><ele>28.0</ele><time>2026-03-29T11:06:24.001Z</time></trkpt><trkpt lat="14.650713109306851" lon="120.9967032453174"><ele>28.0</ele><time>2026-03-29T11:06:25.001Z</time></trkpt><trkpt lat="14.65053781529048" lon="120.99662704806737"><ele>28.0</ele><time>2026-03-29T11:06:26.001Z</time></trkpt><trkpt lat="14.650361444292024" lon="120.99654847525359"><ele>28.0</ele><time>2026-03-29T11:06:27.001Z</time></trkpt><trkpt lat="14.650183858537064" lon="120.99646991101159"><ele>28.0</ele><time>2026-03-29T11:06:28.001Z</time></trkpt><trkpt lat="14.650005469250926" lon="120.99639342173782"><ele>27.0</ele><time>2026-03-29T11:06:29.001Z</time></trkpt><trkpt lat="14.649827723147821" lon="120.99631722096659"><ele>26.0</ele><time>2026-03-29T11:06:30.001Z</time></trkpt><trkpt lat="14.649649398066463" lon="120.99624266750938"><ele>25.0</ele><time>2026-03-29T11:06:31.001Z</time></trkpt><trkpt lat="14.649472907563355" lon="120.99616501718833"><ele>25.0</ele><time>2026-03-29T11:06:32.001Z</time></trkpt><trkpt lat="14.649295710636249" lon="120.99609117950943"><ele>25.0</ele><time>2026-03-29T11:06:33.001Z</time></trkpt><trkpt lat="14.649118770162605" lon="120.99601640433886"><ele>25.0</ele><time>2026-03-29T11:06:34.001Z</time></trkpt><trkpt lat="14.648941492128435" lon="120.99594255288632"><ele>25.0</ele><time>2026-03-29T11:06:35.001Z</time></trkpt><trkpt lat="14.648764547189993" lon="120.99586807745432"><ele>25.0</ele><time>2026-03-29T11:06:36.001Z</time></trkpt><trkpt lat="14.648586648234879" lon="120.9957936763285"><ele>25.0</ele><time>2026-03-29T11:06:37.001Z</time></trkpt><trkpt lat="14.648406995599286" lon="120.99571716151293"><ele>25.0</ele><time>2026-03-29T11:06:38.001Z</time></trkpt><trkpt lat="14.648226103737302" lon="120.99563981615974"><ele>25.0</ele><time>2026-03-29T11:06:39.001Z</time></trkpt><trkpt lat="14.648044308375653" lon="120.99556090509381"><ele>25.0</ele><time>2026-03-29T11:06:40.001Z</time></trkpt><trkpt lat="14.647860767149599" lon="120.995485227273"><ele>24.333333333333336</ele><time>2026-03-29T11:06:41.001Z</time></trkpt><trkpt lat="14.647676869227476" lon="120.99540631034475"><ele>23.666666666666668</ele><time>2026-03-29T11:06:42.001Z</time></trkpt><trkpt lat="14.64749286534065" lon="120.9953272507516"><ele>23.0</ele><time>2026-03-29T11:06:43.001Z</time></trkpt><trkpt lat="14.647308646059695" lon="120.99524924155818"><ele>23.0</ele><time>2026-03-29T11:06:44.001Z</time></trkpt><trkpt lat="14.647125741249678" lon="120.99516941431469"><ele>23.0</ele><time>2026-03-29T11:06:45.001Z</time></trkpt><trkpt lat="14.64694183661856" lon="120.99509054910628"><ele>23.0</ele><time>2026-03-29T11:06:46.001Z</time></trkpt><trkpt lat="14.646757813913345" lon="120.99501314190279"><ele>23.0</ele><time>2026-03-29T11:06:47.001Z</time></trkpt><trkpt lat="14.6465747167454" lon="120.99493581816584"><ele>23.0</ele><time>2026-03-29T11:06:48.001Z</time></trkpt><trkpt lat="14.646392791547825" lon="120.99485827930168"><ele>23.0</ele><time>2026-03-29T11:06:49.001Z</time></trkpt><trkpt lat="14.646215635742301" lon="120.99478165513257"><ele>23.0</ele><time>2026-03-29T11:06:50.001Z</time></trkpt><trkpt lat="14.646037195479721" lon="120.99470668312647"><ele>23.0</ele><time>2026-03-29T11:06:51.001Z</time></trkpt><trkpt lat="14.64586726296417" lon="120.99461451829683"><ele>23.0</ele><time>2026-03-29T11:06:52.001Z</time></trkpt><trkpt lat="14.645693657062694" lon="120.99454052597875"><ele>23.0</ele><time>2026-03-29T11:06:53.001Z</time></trkpt><trkpt lat="14.645526297817304" lon="120.99444448161893"><ele>23.0</ele><time>2026-03-29T11:06:54.001Z</time></trkpt><trkpt lat="14.645317350131599" lon="120.994509092659"><ele>23.0</ele><time>2026-03-29T11:06:55.001Z</time></trkpt><trkpt lat="14.64513687562371" lon="120.99451004142205"><ele>22.333333333333336</ele><time>2026-03-29T11:06:56.001Z</time></trkpt><trkpt lat="14.644960225696629" lon="120.99453767463449"><ele>21.666666666666668</ele><time>2026-03-29T11:06:57.001Z</time></trkpt><trkpt lat="14.644792741933271" lon="120.99459020614799"><ele>21.0</ele><time>2026-03-29T11:06:58.001Z</time></trkpt><trkpt lat="14.6446217786901" lon="120.99463960073672"><ele>21.0</ele><time>2026-03-29T11:06:59.001Z</time></trkpt><trkpt lat="14.644474337097364" lon="120.99473023861798"><ele>21.0</ele><time>2026-03-29T11:07:00.001Z</time></trkpt><trkpt lat="14.644343175669414" lon="120.99484478579423"><ele>21.0</ele><time>2026-03-29T11:07:01.001Z</time></trkpt><trkpt lat="14.64422493900815" lon="120.994971807643"><ele>22.0</ele><time>2026-03-29T11:07:02.001Z</time></trkpt><trkpt lat="14.644122296124658" lon="120.99511113995587"><ele>23.0</ele><time>2026-03-29T11:07:03.001Z</time></trkpt><trkpt lat="14.64405434028882" lon="120.99527122154016"><ele>24.0</ele><time>2026-03-29T11:07:04.001Z</time></trkpt><trkpt lat="14.643988673903577" lon="120.99542785125327"><ele>24.0</ele><time>2026-03-29T11:07:05.001Z</time></trkpt><trkpt lat="14.643942491148453" lon="120.99558835701316"><ele>24.0</ele><time>2026-03-29T11:07:06.001Z</time></trkpt><trkpt lat="14.64391529558268" lon="120.99575395579083"><ele>24.0</ele><time>2026-03-29T11:07:07.001Z</time></trkpt><trkpt lat="14.64390279602983" lon="120.99592126856895"><ele>24.333333333333336</ele><time>2026-03-29T11:07:08.001Z</time></trkpt><trkpt lat="14.643898423177843" lon="120.99609575364764"><ele>24.666666666666668</ele><time>2026-03-29T11:07:09.001Z</time></trkpt><trkpt lat="14.64390851014976" lon="120.99627340772696"><ele>25.0</ele><time>2026-03-29T11:07:10.001Z</time></trkpt><trkpt lat="14.643911839891441" lon="120.99645068529907"><ele>25.0</ele><time>2026-03-29T11:07:11.001Z</time></trkpt><trkpt lat="14.643915905189822" lon="120.99663060347619"><ele>25.0</ele><time>2026-03-29T11:07:12.001Z</time></trkpt><trkpt lat="14.6439214607967" lon="120.9968136332994"><ele>25.0</ele><time>2026-03-29T11:07:13.001Z</time></trkpt><trkpt lat="14.643927347577824" lon="120.99699892352473"><ele>24.0</ele><time>2026-03-29T11:07:14.001Z</time></trkpt><trkpt lat="14.643933305524834" lon="120.99718566116586"><ele>23.0</ele><time>2026-03-29T11:07:15.001Z</time></trkpt><trkpt lat="14.643937826753136" lon="120.99737349433722"><ele>22.0</ele><time>2026-03-29T11:07:16.001Z</time></trkpt><trkpt lat="14.643942535823472" lon="120.99756129524866"><ele>21.666666666666664</ele><time>2026-03-29T11:07:17.001Z</time></trkpt><trkpt lat="14.643947146071813" lon="120.99774823581707"><ele>21.333333333333332</ele><time>2026-03-29T11:07:18.001Z</time></trkpt><trkpt lat="14.643951730765943" lon="120.99793437293073"><ele>21.0</ele><time>2026-03-29T11:07:19.001Z</time></trkpt><trkpt lat="14.643957102942023" lon="120.99812105059421"><ele>21.0</ele><time>2026-03-29T11:07:20.001Z</time></trkpt><trkpt lat="14.643947117172885" lon="120.99830733194179"><ele>21.0</ele><time>2026-03-29T11:07:21.001Z</time></trkpt><trkpt lat="14.643951175989407" lon="120.99849328819208"><ele>21.0</ele><time>2026-03-29T11:07:22.001Z</time></trkpt><trkpt lat="14.643960600513141" lon="120.9986821333307"><ele>20.0</ele><time>2026-03-29T11:07:23.001Z</time></trkpt><trkpt lat="14.643974970340784" lon="120.99887260963511"><ele>19.0</ele><time>2026-03-29T11:07:24.001Z</time></trkpt><trkpt lat="14.64400647474229" lon="120.99906821794326"><ele>18.0</ele><time>2026-03-29T11:07:25.001Z</time></trkpt><trkpt lat="14.644051539766062" lon="120.99926234415781"><ele>18.0</ele><time>2026-03-29T11:07:26.001Z</time></trkpt><trkpt lat="14.644083165216074" lon="120.99946332350306"><ele>18.0</ele><time>2026-03-29T11:07:27.001Z</time></trkpt><trkpt lat="14.64411920546273" lon="120.99966618547232"><ele>18.0</ele><time>2026-03-29T11:07:28.001Z</time></trkpt><trkpt lat="14.644156954917175" lon="120.9998695341365"><ele>18.0</ele><time>2026-03-29T11:07:29.001Z</time></trkpt><trkpt lat="14.644177678344315" lon="121.00007912855642"><ele>18.0</ele><time>2026-03-29T11:07:30.001Z</time></trkpt><trkpt lat="14.64421227431727" lon="121.00028337086887"><ele>18.0</ele><time>2026-03-29T11:07:31.001Z</time></trkpt><trkpt lat="14.644246538948753" lon="121.0004863796023"><ele>18.0</ele><time>2026-03-29T11:07:32.001Z</time></trkpt><trkpt lat="14.644281070210273" lon="121.00069096802609"><ele>18.0</ele><time>2026-03-29T11:07:33.001Z</time></trkpt><trkpt lat="14.644331502379886" lon="121.0008926929248"><ele>18.0</ele><time>2026-03-29T11:07:34.001Z</time></trkpt><trkpt lat="14.644363341163217" lon="121.0011005252749"><ele>17.333333333333332</ele><time>2026-03-29T11:07:35.001Z</time></trkpt><trkpt lat="14.644397472817735" lon="121.001307749689"><ele>16.666666666666664</ele><time>2026-03-29T11:07:36.001Z</time></trkpt><trkpt lat="14.644429439370779" lon="121.00151456871728"><ele>16.0</ele><time>2026-03-29T11:07:37.001Z</time></trkpt><trkpt lat="14.644461173560975" lon="121.00171961917599"><ele>16.333333333333332</ele><time>2026-03-29T11:07:38.001Z</time></trkpt><trkpt lat="14.644494648527381" lon="121.00191834253471"><ele>16.666666666666668</ele><time>2026-03-29T11:07:39.001Z</time></trkpt><trkpt lat="14.644528691620105" lon="121.00211498423987"><ele>17.0</ele><time>2026-03-29T11:07:40.001Z</time></trkpt><trkpt lat="14.644559789542628" lon="121.00231423487287"><ele>18.0</ele><time>2026-03-29T11:07:41.001Z</time></trkpt><trkpt lat="14.644592457410267" lon="121.00251699409937"><ele>19.0</ele><time>2026-03-29T11:07:42.001Z</time></trkpt><trkpt lat="14.644626420664492" lon="121.0027226972027"><ele>20.0</ele><time>2026-03-29T11:07:43.001Z</time></trkpt><trkpt lat="14.6446634527698" lon="121.00292871891587"><ele>20.0</ele><time>2026-03-29T11:07:44.001Z</time></trkpt><trkpt lat="14.644701401032325" lon="121.00313176724352"><ele>20.0</ele><time>2026-03-29T11:07:45.001Z</time></trkpt><trkpt lat="14.644739396048147" lon="121.00333051263111"><ele>20.0</ele><time>2026-03-29T11:07:46.001Z</time></trkpt><trkpt lat="14.6447753534611" lon="121.00352324023184"><ele>19.666666666666668</ele><time>2026-03-29T11:07:47.001Z</time></trkpt><trkpt lat="14.644808399905834" lon="121.00371332227454"><ele>19.333333333333332</ele><time>2026-03-29T11:07:48.001Z</time></trkpt><trkpt lat="14.644831709223524" lon="121.00389838647543"><ele>19.0</ele><time>2026-03-29T11:07:49.001Z</time></trkpt><trkpt lat="14.644849763988912" lon="121.00408371716195"><ele>18.333333333333332</ele><time>2026-03-29T11:07:50.001Z</time></trkpt><trkpt lat="14.644859394319363" lon="121.00426683604684"><ele>17.666666666666668</ele><time>2026-03-29T11:07:51.001Z</time></trkpt><trkpt lat="14.64485473429451" lon="121.00444948053259"><ele>17.0</ele><time>2026-03-29T11:07:52.001Z</time></trkpt><trkpt lat="14.644836229757475" lon="121.00462846969486"><ele>17.0</ele><time>2026-03-29T11:07:53.001Z</time></trkpt><trkpt lat="14.64480036489371" lon="121.004798242877"><ele>17.0</ele><time>2026-03-29T11:07:54.001Z</time></trkpt><trkpt lat="14.644752377673303" lon="121.00495989160832"><ele>17.0</ele><time>2026-03-29T11:07:55.001Z</time></trkpt><trkpt lat="14.644688709341143" lon="121.0051085046969"><ele>17.0</ele><time>2026-03-29T11:07:56.001Z</time></trkpt><trkpt lat="14.64461153000552" lon="121.00524295305084"><ele>17.0</ele><time>2026-03-29T11:07:57.001Z</time></trkpt><trkpt lat="14.644521104151458" lon="121.00536458055659"><ele>17.0</ele><time>2026-03-29T11:07:58.001Z</time></trkpt><trkpt lat="14.644424598727179" lon="121.00547350519355"><ele>17.0</ele><time>2026-03-29T11:07:59.001Z</time></trkpt><trkpt lat="14.644318469347612" lon="121.00556623153123"><ele>17.0</ele><time>2026-03-29T11:08:00.001Z</time></trkpt><trkpt lat="14.644205526691263" lon="121.00564725597295"><ele>17.0</ele><time>2026-03-29T11:08:01.001Z</time></trkpt><trkpt lat="14.644090319309612" lon="121.00571229914841"><ele>17.0</ele><time>2026-03-29T11:08:02.001Z</time></trkpt><trkpt lat="14.643970143770888" lon="121.00576218479073"><ele>17.0</ele><time>2026-03-29T11:08:03.001Z</time></trkpt><trkpt lat="14.643856185294045" lon="121.0058001757401"><ele>17.0</ele><time>2026-03-29T11:08:04.001Z</time></trkpt><trkpt lat="14.643743611154681" lon="121.00582621392117"><ele>17.0</ele><time>2026-03-29T11:08:05.001Z</time></trkpt><trkpt lat="14.6436300298891" lon="121.00582689879279"><ele>17.0</ele><time>2026-03-29T11:08:06.001Z</time></trkpt><trkpt lat="14.643512967400582" lon="121.00582937145947"><ele>17.0</ele><time>2026-03-29T11:08:07.001Z</time></trkpt><trkpt lat="14.643390560991534" lon="121.00583195700386"><ele>16.0</ele><time>2026-03-29T11:08:08.001Z</time></trkpt><trkpt lat="14.643264336459675" lon="121.00583462320009"><ele>15.0</ele><time>2026-03-29T11:08:09.001Z</time></trkpt><trkpt lat="14.64313448023974" lon="121.00583888780378"><ele>14.0</ele><time>2026-03-29T11:08:10.001Z</time></trkpt><trkpt lat="14.643006352321494" lon="121.00584664833583"><ele>13.0</ele><time>2026-03-29T11:08:11.001Z</time></trkpt><trkpt lat="14.642880902442398" lon="121.00585427995702"><ele>12.25</ele><time>2026-03-29T11:08:12.001Z</time></trkpt><trkpt lat="14.6427580579782" lon="121.0058684334785"><ele>11.5</ele><time>2026-03-29T11:08:13.001Z</time></trkpt><trkpt lat="14.642642022509726" lon="121.00588140560164"><ele>10.75</ele><time>2026-03-29T11:08:14.001Z</time></trkpt><trkpt lat="14.64253040179627" lon="121.00590417525319"><ele>10.0</ele><time>2026-03-29T11:08:15.001Z</time></trkpt><trkpt lat="14.642436436303921" lon="121.0059638109582"><ele>10.0</ele><time>2026-03-29T11:08:16.001Z</time></trkpt><trkpt lat="14.642336640405823" lon="121.00598496453763"><ele>10.0</ele><time>2026-03-29T11:08:17.001Z</time></trkpt><trkpt lat="14.642240660612028" lon="121.00600599601651"><ele>10.0</ele><time>2026-03-29T11:08:18.001Z</time></trkpt><trkpt lat="14.642151088624539" lon="121.0060270752809"><ele>10.0</ele><time>2026-03-29T11:08:19.001Z</time></trkpt><trkpt lat="14.64206932777865" lon="121.0060462177772"><ele>10.0</ele><time>2026-03-29T11:08:20.001Z</time></trkpt><trkpt lat="14.641991894964253" lon="121.00606548262013"><ele>10.0</ele><time>2026-03-29T11:08:21.001Z</time></trkpt><trkpt lat="14.641917959592545" lon="121.00608472444895"><ele>10.0</ele><time>2026-03-29T11:08:22.001Z</time></trkpt><trkpt lat="14.641853210154478" lon="121.00610134895877"><ele>10.0</ele><time>2026-03-29T11:08:23.001Z</time></trkpt><trkpt lat="14.641740669739395" lon="121.00612817569653"><ele>10.0</ele><time>2026-03-29T11:08:25.001Z</time></trkpt><trkpt lat="14.641656879260173" lon="121.00614744010593"><ele>10.0</ele><time>2026-03-29T11:08:27.001Z</time></trkpt><trkpt lat="14.64159254459163" lon="121.00616333044296"><ele>10.0</ele><time>2026-03-29T11:08:29.001Z</time></trkpt><trkpt lat="14.641529796571305" lon="121.00617774212603"><ele>10.0</ele><time>2026-03-29T11:08:32.001Z</time></trkpt><trkpt lat="14.64146207502967" lon="121.0061910836014"><ele>10.0</ele><time>2026-03-29T11:08:35.001Z</time></trkpt><trkpt lat="14.641377257863342" lon="121.0062086288196"><ele>10.0</ele><time>2026-03-29T11:08:37.001Z</time></trkpt><trkpt lat="14.641256716494755" lon="121.00622654905551"><ele>10.0</ele><time>2026-03-29T11:08:39.001Z</time></trkpt><trkpt lat="14.641187128296236" lon="121.0062330373535"><ele>10.0</ele><time>2026-03-29T11:08:40.001Z</time></trkpt><trkpt lat="14.641112100550167" lon="121.0062390800259"><ele>10.0</ele><time>2026-03-29T11:08:41.001Z</time></trkpt><trkpt lat="14.641032312542558" lon="121.00624542599061"><ele>10.5</ele><time>2026-03-29T11:08:42.001Z</time></trkpt><trkpt lat="14.640949027398339" lon="121.00625149894032"><ele>11.0</ele><time>2026-03-29T11:08:43.001Z</time></trkpt><trkpt lat="14.640863689140895" lon="121.00625659335249"><ele>11.5</ele><time>2026-03-29T11:08:44.001Z</time></trkpt><trkpt lat="14.640775235710809" lon="121.0062620778727"><ele>12.0</ele><time>2026-03-29T11:08:45.001Z</time></trkpt><trkpt lat="14.640686199758402" lon="121.0062696759919"><ele>12.499999999999998</ele><time>2026-03-29T11:08:46.001Z</time></trkpt><trkpt lat="14.640593511861272" lon="121.0062809420385"><ele>13.0</ele><time>2026-03-29T11:08:47.001Z</time></trkpt><trkpt lat="14.640497865431733" lon="121.00629749753848"><ele>13.0</ele><time>2026-03-29T11:08:48.001Z</time></trkpt><trkpt lat="14.640399575814008" lon="121.00631694568874"><ele>13.0</ele><time>2026-03-29T11:08:49.001Z</time></trkpt><trkpt lat="14.640298059625398" lon="121.0063399881097"><ele>13.0</ele><time>2026-03-29T11:08:50.001Z</time></trkpt><trkpt lat="14.640195242646422" lon="121.0063639825065"><ele>13.0</ele><time>2026-03-29T11:08:51.001Z</time></trkpt><trkpt lat="14.640089529091535" lon="121.00638907373528"><ele>13.0</ele><time>2026-03-29T11:08:52.001Z</time></trkpt><trkpt lat="14.639980119788168" lon="121.00641508591953"><ele>13.0</ele><time>2026-03-29T11:08:53.001Z</time></trkpt><trkpt lat="14.639871168908808" lon="121.00644088366346"><ele>13.0</ele><time>2026-03-29T11:08:54.001Z</time></trkpt><trkpt lat="14.639760794436542" lon="121.00646786539339"><ele>13.0</ele><time>2026-03-29T11:08:55.001Z</time></trkpt><trkpt lat="14.639649676500467" lon="121.0065020316359"><ele>13.0</ele><time>2026-03-29T11:08:56.001Z</time></trkpt><trkpt lat="14.639538785692121" lon="121.00654455137501"><ele>13.0</ele><time>2026-03-29T11:08:57.001Z</time></trkpt><trkpt lat="14.639430643882005" lon="121.00659513893618"><ele>13.0</ele><time>2026-03-29T11:08:58.001Z</time></trkpt><trkpt lat="14.639321145291937" lon="121.0066513515846"><ele>13.0</ele><time>2026-03-29T11:08:59.001Z</time></trkpt><trkpt lat="14.6392108838694" lon="121.00671453276644"><ele>13.0</ele><time>2026-03-29T11:09:00.001Z</time></trkpt><trkpt lat="14.63910261009064" lon="121.00678379423931"><ele>13.0</ele><time>2026-03-29T11:09:01.001Z</time></trkpt><trkpt lat="14.63899702246372" lon="121.00685777698554"><ele>13.0</ele><time>2026-03-29T11:09:02.001Z</time></trkpt><trkpt lat="14.638895393970111" lon="121.00694176720512"><ele>13.0</ele><time>2026-03-29T11:09:03.001Z</time></trkpt><trkpt lat="14.63879666846823" lon="121.0070355987208"><ele>13.0</ele><time>2026-03-29T11:09:04.001Z</time></trkpt><trkpt lat="14.638701273700956" lon="121.00713989537789"><ele>13.0</ele><time>2026-03-29T11:09:05.001Z</time></trkpt><trkpt lat="14.638606458400966" lon="121.00725108606169"><ele>13.0</ele><time>2026-03-29T11:09:06.001Z</time></trkpt><trkpt lat="14.638512979471418" lon="121.00736857430009"><ele>13.0</ele><time>2026-03-29T11:09:07.001Z</time></trkpt><trkpt lat="14.638419961154074" lon="121.00749398741085"><ele>13.0</ele><time>2026-03-29T11:09:08.001Z</time></trkpt><trkpt lat="14.638323875266556" lon="121.0076222330746"><ele>13.0</ele><time>2026-03-29T11:09:09.001Z</time></trkpt><trkpt lat="14.63822366059035" lon="121.00775046777203"><ele>13.0</ele><time>2026-03-29T11:09:10.001Z</time></trkpt><trkpt lat="14.638120280399473" lon="121.0078762859882"><ele>13.0</ele><time>2026-03-29T11:09:11.001Z</time></trkpt><trkpt lat="14.63801269092626" lon="121.0079975868134"><ele>13.0</ele><time>2026-03-29T11:09:12.001Z</time></trkpt><trkpt lat="14.637898105260208" lon="121.00811160024928"><ele>13.0</ele><time>2026-03-29T11:09:13.001Z</time></trkpt><trkpt lat="14.637776060085319" lon="121.00821773791088"><ele>13.0</ele><time>2026-03-29T11:09:14.001Z</time></trkpt><trkpt lat="14.637642573560965" lon="121.0083091239445"><ele>12.333333333333332</ele><time>2026-03-29T11:09:15.001Z</time></trkpt><trkpt lat="14.637501301051284" lon="121.00838874344022"><ele>11.666666666666666</ele><time>2026-03-29T11:09:16.001Z</time></trkpt><trkpt lat="14.637353040288554" lon="121.00845716555936"><ele>11.0</ele><time>2026-03-29T11:09:17.001Z</time></trkpt><trkpt lat="14.637197216728028" lon="121.00851240495292"><ele>11.0</ele><time>2026-03-29T11:09:18.001Z</time></trkpt><trkpt lat="14.637036624954966" lon="121.00855579916458"><ele>11.0</ele><time>2026-03-29T11:09:19.001Z</time></trkpt><trkpt lat="14.63686992870171" lon="121.0085875412106"><ele>11.0</ele><time>2026-03-29T11:09:20.001Z</time></trkpt><trkpt lat="14.636696765530344" lon="121.00861326073968"><ele>12.333333333333332</ele><time>2026-03-29T11:09:21.001Z</time></trkpt><trkpt lat="14.636518662744841" lon="121.00863492940222"><ele>13.666666666666666</ele><time>2026-03-29T11:09:22.001Z</time></trkpt><trkpt lat="14.636335635043851" lon="121.00865596437204"><ele>15.0</ele><time>2026-03-29T11:09:23.001Z</time></trkpt><trkpt lat="14.636147833479972" lon="121.00867920110214"><ele>13.666666666666666</ele><time>2026-03-29T11:09:24.001Z</time></trkpt><trkpt lat="14.6359555836113" lon="121.0087033213898"><ele>12.333333333333332</ele><time>2026-03-29T11:09:25.001Z</time></trkpt><trkpt lat="14.635759172899327" lon="121.00872739538416"><ele>11.0</ele><time>2026-03-29T11:09:26.001Z</time></trkpt><trkpt lat="14.635560655733693" lon="121.00875097344615"><ele>11.0</ele><time>2026-03-29T11:09:27.001Z</time></trkpt><trkpt lat="14.635356876952581" lon="121.00877368325129"><ele>11.0</ele><time>2026-03-29T11:09:28.001Z</time></trkpt><trkpt lat="14.635151967032549" lon="121.00879418666298"><ele>11.0</ele><time>2026-03-29T11:09:29.001Z</time></trkpt><trkpt lat="14.634949262712857" lon="121.00881263675917"><ele>11.333333333333332</ele><time>2026-03-29T11:09:30.001Z</time></trkpt><trkpt lat="14.634747884361634" lon="121.00883025947256"><ele>11.666666666666666</ele><time>2026-03-29T11:09:31.001Z</time></trkpt><trkpt lat="14.634545392429763" lon="121.00884804953529"><ele>12.0</ele><time>2026-03-29T11:09:32.001Z</time></trkpt><trkpt lat="14.634347043843642" lon="121.0088642693276"><ele>12.0</ele><time>2026-03-29T11:09:33.001Z</time></trkpt><trkpt lat="14.634152610906728" lon="121.00888031827726"><ele>12.0</ele><time>2026-03-29T11:09:34.001Z</time></trkpt><trkpt lat="14.6339612724448" lon="121.00889600946336"><ele>12.0</ele><time>2026-03-29T11:09:35.001Z</time></trkpt><trkpt lat="14.633773347523439" lon="121.0089112635214"><ele>12.333333333333332</ele><time>2026-03-29T11:09:36.001Z</time></trkpt><trkpt lat="14.633590045448683" lon="121.00892799506609"><ele>12.666666666666666</ele><time>2026-03-29T11:09:37.001Z</time></trkpt><trkpt lat="14.633410915697736" lon="121.00895027831459"><ele>13.0</ele><time>2026-03-29T11:09:38.001Z</time></trkpt><trkpt lat="14.633235700681013" lon="121.00898062257014"><ele>13.0</ele><time>2026-03-29T11:09:39.001Z</time></trkpt><trkpt lat="14.63306169011172" lon="121.00901735048103"><ele>13.0</ele><time>2026-03-29T11:09:40.001Z</time></trkpt><trkpt lat="14.632888275421307" lon="121.00906111500449"><ele>13.0</ele><time>2026-03-29T11:09:41.001Z</time></trkpt><trkpt lat="14.632717710623822" lon="121.0091138407053"><ele>11.333333333333332</ele><time>2026-03-29T11:09:42.001Z</time></trkpt><trkpt lat="14.6325493874723" lon="121.0091765744033"><ele>9.666666666666666</ele><time>2026-03-29T11:09:43.001Z</time></trkpt><trkpt lat="14.632386769675414" lon="121.0092481164455"><ele>8.0</ele><time>2026-03-29T11:09:44.001Z</time></trkpt><trkpt lat="14.632230116986502" lon="121.00932888804401"><ele>8.0</ele><time>2026-03-29T11:09:45.001Z</time></trkpt><trkpt lat="14.632078035070396" lon="121.00941588167147"><ele>8.0</ele><time>2026-03-29T11:09:46.001Z</time></trkpt><trkpt lat="14.631929870652414" lon="121.00951141166986"><ele>8.0</ele><time>2026-03-29T11:09:47.001Z</time></trkpt><trkpt lat="14.631786104778172" lon="121.00961342828181"><ele>9.333333333333332</ele><time>2026-03-29T11:09:48.001Z</time></trkpt><trkpt lat="14.631645320697281" lon="121.00972252983337"><ele>10.666666666666666</ele><time>2026-03-29T11:09:49.001Z</time></trkpt><trkpt lat="14.631509154262499" lon="121.0098381529686"><ele>12.0</ele><time>2026-03-29T11:09:50.001Z</time></trkpt><trkpt lat="14.631378051823235" lon="121.00996405526081"><ele>11.666666666666666</ele><time>2026-03-29T11:09:51.001Z</time></trkpt><trkpt lat="14.63125211193413" lon="121.01009588899637"><ele>11.333333333333332</ele><time>2026-03-29T11:09:52.001Z</time></trkpt><trkpt lat="14.631128271964906" lon="121.01023304600419"><ele>11.0</ele><time>2026-03-29T11:09:53.001Z</time></trkpt><trkpt lat="14.63100788625915" lon="121.01037502081016"><ele>12.0</ele><time>2026-03-29T11:09:54.001Z</time></trkpt><trkpt lat="14.630890353084823" lon="121.01052047948284"><ele>13.0</ele><time>2026-03-29T11:09:55.001Z</time></trkpt><trkpt lat="14.630774874858323" lon="121.01066968221903"><ele>14.0</ele><time>2026-03-29T11:09:56.001Z</time></trkpt><trkpt lat="14.630658875330644" lon="121.01081817788105"><ele>14.0</ele><time>2026-03-29T11:09:57.001Z</time></trkpt><trkpt lat="14.630540608299931" lon="121.01096699726081"><ele>14.0</ele><time>2026-03-29T11:09:58.001Z</time></trkpt><trkpt lat="14.630420088838605" lon="121.01111611077408"><ele>14.0</ele><time>2026-03-29T11:09:59.001Z</time></trkpt><trkpt lat="14.63029637897746" lon="121.01126398889184"><ele>14.0</ele><time>2026-03-29T11:10:00.001Z</time></trkpt><trkpt lat="14.63016839371513" lon="121.01140947158909"><ele>14.0</ele><time>2026-03-29T11:10:01.001Z</time></trkpt><trkpt lat="14.630034487060495" lon="121.01155213549535"><ele>14.0</ele><time>2026-03-29T11:10:02.001Z</time></trkpt><trkpt lat="14.629895102685099" lon="121.01169068904477"><ele>14.0</ele><time>2026-03-29T11:10:03.001Z</time></trkpt><trkpt lat="14.629752161473554" lon="121.01182050442429"><ele>14.0</ele><time>2026-03-29T11:10:04.001Z</time></trkpt><trkpt lat="14.629611993382849" lon="121.01195417116523"><ele>14.0</ele><time>2026-03-29T11:10:05.001Z</time></trkpt><trkpt lat="14.629472510895573" lon="121.01208870772508"><ele>14.0</ele><time>2026-03-29T11:10:06.001Z</time></trkpt><trkpt lat="14.629331507703478" lon="121.01222287147604"><ele>14.0</ele><time>2026-03-29T11:10:07.001Z</time></trkpt><trkpt lat="14.629197775816689" lon="121.01235243373394"><ele>14.0</ele><time>2026-03-29T11:10:08.001Z</time></trkpt><trkpt lat="14.629063481793324" lon="121.01248338189406"><ele>13.0</ele><time>2026-03-29T11:10:09.001Z</time></trkpt><trkpt lat="14.628931159989486" lon="121.01261680124391"><ele>12.0</ele><time>2026-03-29T11:10:10.001Z</time></trkpt><trkpt lat="14.62880162559654" lon="121.01274657938679"><ele>11.0</ele><time>2026-03-29T11:10:11.001Z</time></trkpt><trkpt lat="14.628675186759075" lon="121.01287445118106"><ele>12.0</ele><time>2026-03-29T11:10:12.001Z</time></trkpt><trkpt lat="14.628551428964853" lon="121.01300159514675"><ele>13.0</ele><time>2026-03-29T11:10:13.001Z</time></trkpt><trkpt lat="14.628428653829822" lon="121.01312797435521"><ele>14.0</ele><time>2026-03-29T11:10:14.001Z</time></trkpt><trkpt lat="14.628306585768108" lon="121.01325326647442"><ele>14.0</ele><time>2026-03-29T11:10:15.001Z</time></trkpt><trkpt lat="14.628185895282154" lon="121.01337673744875"><ele>14.0</ele><time>2026-03-29T11:10:16.001Z</time></trkpt><trkpt lat="14.628065901101323" lon="121.01349883849211"><ele>14.0</ele><time>2026-03-29T11:10:17.001Z</time></trkpt><trkpt lat="14.627947461512287" lon="121.01362007708845"><ele>14.0</ele><time>2026-03-29T11:10:18.001Z</time></trkpt><trkpt lat="14.62782919531708" lon="121.01374045644192"><ele>14.0</ele><time>2026-03-29T11:10:19.001Z</time></trkpt><trkpt lat="14.6277091646622" lon="121.01386258930397"><ele>14.0</ele><time>2026-03-29T11:10:20.001Z</time></trkpt><trkpt lat="14.627589864019871" lon="121.01398366867025"><ele>14.666666666666668</ele><time>2026-03-29T11:10:21.001Z</time></trkpt><trkpt lat="14.627469415414716" lon="121.01410548473724"><ele>15.333333333333332</ele><time>2026-03-29T11:10:22.001Z</time></trkpt><trkpt lat="14.627351661596046" lon="121.01422534507925"><ele>16.0</ele><time>2026-03-29T11:10:23.001Z</time></trkpt><trkpt lat="14.62723328983976" lon="121.01434361585824"><ele>16.0</ele><time>2026-03-29T11:10:24.001Z</time></trkpt><trkpt lat="14.627114782883316" lon="121.01446061986894"><ele>16.0</ele><time>2026-03-29T11:10:25.001Z</time></trkpt><trkpt lat="14.62699528677417" lon="121.01457474664623"><ele>16.0</ele><time>2026-03-29T11:10:26.001Z</time></trkpt><trkpt lat="14.626873121021942" lon="121.01468475120379"><ele>15.333333333333332</ele><time>2026-03-29T11:10:27.001Z</time></trkpt><trkpt lat="14.62675043894412" lon="121.01479016836848"><ele>14.666666666666668</ele><time>2026-03-29T11:10:28.001Z</time></trkpt><trkpt lat="14.626626684430722" lon="121.01489089386342"><ele>14.0</ele><time>2026-03-29T11:10:29.001Z</time></trkpt><trkpt lat="14.62649980730946" lon="121.01498545129742"><ele>14.0</ele><time>2026-03-29T11:10:30.001Z</time></trkpt><trkpt lat="14.626370291999475" lon="121.01507374690638"><ele>14.0</ele><time>2026-03-29T11:10:31.001Z</time></trkpt><trkpt lat="14.626235758272207" lon="121.01515171501298"><ele>14.0</ele><time>2026-03-29T11:10:32.001Z</time></trkpt><trkpt lat="14.626096925165793" lon="121.01522277929708"><ele>14.0</ele><time>2026-03-29T11:10:33.001Z</time></trkpt><trkpt lat="14.625952871925223" lon="121.01528431729932"><ele>14.0</ele><time>2026-03-29T11:10:34.001Z</time></trkpt><trkpt lat="14.625805020300112" lon="121.01533530549483"><ele>14.0</ele><time>2026-03-29T11:10:35.001Z</time></trkpt><trkpt lat="14.625653090473074" lon="121.01537688296996"><ele>14.0</ele><time>2026-03-29T11:10:36.001Z</time></trkpt><trkpt lat="14.625498537906676" lon="121.01540783096857"><ele>14.0</ele><time>2026-03-29T11:10:37.001Z</time></trkpt><trkpt lat="14.625339767350006" lon="121.01542536764515"><ele>14.0</ele><time>2026-03-29T11:10:38.001Z</time></trkpt><trkpt lat="14.625178540489346" lon="121.01543311472723"><ele>13.666666666666668</ele><time>2026-03-29T11:10:39.001Z</time></trkpt><trkpt lat="14.625016076018255" lon="121.01543509865319"><ele>13.333333333333332</ele><time>2026-03-29T11:10:40.001Z</time></trkpt><trkpt lat="14.62485398177474" lon="121.01543093285282"><ele>13.0</ele><time>2026-03-29T11:10:41.001Z</time></trkpt><trkpt lat="14.624690458166187" lon="121.01541935158674"><ele>13.0</ele><time>2026-03-29T11:10:42.001Z</time></trkpt><trkpt lat="14.624526718935053" lon="121.01540536416316"><ele>13.0</ele><time>2026-03-29T11:10:43.001Z</time></trkpt><trkpt lat="14.624360877117828" lon="121.0153903715582"><ele>13.0</ele><time>2026-03-29T11:10:44.001Z</time></trkpt><trkpt lat="14.624193552590981" lon="121.01537216357607"><ele>12.333333333333332</ele><time>2026-03-29T11:10:45.001Z</time></trkpt><trkpt lat="14.624023515288558" lon="121.01535321881359"><ele>11.666666666666666</ele><time>2026-03-29T11:10:46.001Z</time></trkpt><trkpt lat="14.62385168755537" lon="121.01533304061132"><ele>11.0</ele><time>2026-03-29T11:10:47.001Z</time></trkpt><trkpt lat="14.623677978723958" lon="121.01531310722288"><ele>10.333333333333332</ele><time>2026-03-29T11:10:48.001Z</time></trkpt><trkpt lat="14.623500067557266" lon="121.01529317629912"><ele>9.666666666666666</ele><time>2026-03-29T11:10:49.001Z</time></trkpt><trkpt lat="14.623320019002986" lon="121.01527580571481"><ele>9.0</ele><time>2026-03-29T11:10:50.001Z</time></trkpt><trkpt lat="14.62313809216377" lon="121.01525821071107"><ele>9.0</ele><time>2026-03-29T11:10:51.001Z</time></trkpt><trkpt lat="14.622953047825813" lon="121.01524106171"><ele>9.0</ele><time>2026-03-29T11:10:52.001Z</time></trkpt><trkpt lat="14.622767825390103" lon="121.01522257047228"><ele>9.0</ele><time>2026-03-29T11:10:53.001Z</time></trkpt><trkpt lat="14.622581694511787" lon="121.01520427425523"><ele>9.666666666666666</ele><time>2026-03-29T11:10:54.001Z</time></trkpt><trkpt lat="14.62239555636797" lon="121.01518528014425"><ele>10.333333333333332</ele><time>2026-03-29T11:10:55.001Z</time></trkpt><trkpt lat="14.622210292085045" lon="121.01516559834936"><ele>11.0</ele><time>2026-03-29T11:10:56.001Z</time></trkpt><trkpt lat="14.62202550739166" lon="121.01514519368712"><ele>10.333333333333332</ele><time>2026-03-29T11:10:57.001Z</time></trkpt><trkpt lat="14.621840894697492" lon="121.0151225829238"><ele>9.666666666666666</ele><time>2026-03-29T11:10:58.001Z</time></trkpt><trkpt lat="14.621655852255032" lon="121.01510041211192"><ele>9.0</ele><time>2026-03-29T11:10:59.001Z</time></trkpt><trkpt lat="14.621470633931002" lon="121.01507778595855"><ele>9.0</ele><time>2026-03-29T11:11:00.001Z</time></trkpt><trkpt lat="14.62128361604357" lon="121.0150556708551"><ele>9.0</ele><time>2026-03-29T11:11:01.001Z</time></trkpt><trkpt lat="14.621096109089676" lon="121.0150334931915"><ele>9.0</ele><time>2026-03-29T11:11:02.001Z</time></trkpt><trkpt lat="14.620908406332294" lon="121.01501034994477"><ele>8.666666666666666</ele><time>2026-03-29T11:11:03.001Z</time></trkpt><trkpt lat="14.620718743077514" lon="121.01498895373625"><ele>8.333333333333332</ele><time>2026-03-29T11:11:04.001Z</time></trkpt><trkpt lat="14.620532097536074" lon="121.0149668335042"><ele>8.0</ele><time>2026-03-29T11:11:05.001Z</time></trkpt><trkpt lat="14.620343730426159" lon="121.01494623567396"><ele>8.333333333333332</ele><time>2026-03-29T11:11:06.001Z</time></trkpt><trkpt lat="14.620156252682287" lon="121.01492602046844"><ele>8.666666666666666</ele><time>2026-03-29T11:11:07.001Z</time></trkpt><trkpt lat="14.619970923082287" lon="121.01490445969283"><ele>9.0</ele><time>2026-03-29T11:11:08.001Z</time></trkpt><trkpt lat="14.619789061141857" lon="121.01488269695562"><ele>9.0</ele><time>2026-03-29T11:11:09.001Z</time></trkpt><trkpt lat="14.61960968805225" lon="121.01486385090297"><ele>9.0</ele><time>2026-03-29T11:11:10.001Z</time></trkpt><trkpt lat="14.61943414661481" lon="121.01485086058656"><ele>9.0</ele><time>2026-03-29T11:11:11.001Z</time></trkpt><trkpt lat="14.61926141345765" lon="121.01484337651156"><ele>9.666666666666666</ele><time>2026-03-29T11:11:12.001Z</time></trkpt><trkpt lat="14.619093104348206" lon="121.0148436469579"><ele>10.333333333333332</ele><time>2026-03-29T11:11:13.001Z</time></trkpt><trkpt lat="14.618925902706346" lon="121.01485077094327"><ele>11.0</ele><time>2026-03-29T11:11:14.001Z</time></trkpt><trkpt lat="14.618759663647976" lon="121.01486843301025"><ele>11.0</ele><time>2026-03-29T11:11:15.001Z</time></trkpt><trkpt lat="14.618594046016549" lon="121.01489870820288"><ele>11.0</ele><time>2026-03-29T11:11:16.001Z</time></trkpt><trkpt lat="14.618428267519876" lon="121.01494260950537"><ele>11.0</ele><time>2026-03-29T11:11:17.001Z</time></trkpt><trkpt lat="14.618264673919024" lon="121.01499277245043"><ele>11.0</ele><time>2026-03-29T11:11:18.001Z</time></trkpt><trkpt lat="14.618101655419824" lon="121.01505260702606"><ele>11.0</ele><time>2026-03-29T11:11:19.001Z</time></trkpt><trkpt lat="14.617942078132256" lon="121.01512882488048"><ele>11.0</ele><time>2026-03-29T11:11:20.001Z</time></trkpt><trkpt lat="14.617784514327816" lon="121.01521457862326"><ele>11.333333333333332</ele><time>2026-03-29T11:11:21.001Z</time></trkpt><trkpt lat="14.61762855143556" lon="121.01530614395712"><ele>11.666666666666666</ele><time>2026-03-29T11:11:22.001Z</time></trkpt><trkpt lat="14.617475413470354" lon="121.0154063811399"><ele>12.0</ele><time>2026-03-29T11:11:23.001Z</time></trkpt><trkpt lat="14.617320716947976" lon="121.01550910964284"><ele>12.0</ele><time>2026-03-29T11:11:24.001Z</time></trkpt><trkpt lat="14.61716681336719" lon="121.01561265914299"><ele>12.0</ele><time>2026-03-29T11:11:25.001Z</time></trkpt><trkpt lat="14.61701479691354" lon="121.01571578117714"><ele>12.0</ele><time>2026-03-29T11:11:26.001Z</time></trkpt><trkpt lat="14.616865339259224" lon="121.01581692146374"><ele>11.333333333333334</ele><time>2026-03-29T11:11:27.001Z</time></trkpt><trkpt lat="14.6167181500789" lon="121.01591743649466"><ele>10.666666666666668</ele><time>2026-03-29T11:11:28.001Z</time></trkpt><trkpt lat="14.616572517270304" lon="121.01601489301494"><ele>10.0</ele><time>2026-03-29T11:11:29.001Z</time></trkpt><trkpt lat="14.61643106040173" lon="121.01611235904669"><ele>10.0</ele><time>2026-03-29T11:11:30.001Z</time></trkpt><trkpt lat="14.616289727960682" lon="121.01620441254548"><ele>10.0</ele><time>2026-03-29T11:11:31.001Z</time></trkpt><trkpt lat="14.616148081644745" lon="121.01629036540524"><ele>10.0</ele><time>2026-03-29T11:11:32.001Z</time></trkpt><trkpt lat="14.616005429421657" lon="121.01636955626734"><ele>11.0</ele><time>2026-03-29T11:11:33.001Z</time></trkpt><trkpt lat="14.615860935549378" lon="121.01644171482934"><ele>12.0</ele><time>2026-03-29T11:11:34.001Z</time></trkpt><trkpt lat="14.615711777760444" lon="121.01650566648361"><ele>13.0</ele><time>2026-03-29T11:11:35.001Z</time></trkpt><trkpt lat="14.615560572281813" lon="121.01656043942586"><ele>13.0</ele><time>2026-03-29T11:11:36.001Z</time></trkpt><trkpt lat="14.615404683013063" lon="121.01660801785862"><ele>13.0</ele><time>2026-03-29T11:11:37.001Z</time></trkpt><trkpt lat="14.61524456680069" lon="121.01664814850346"><ele>13.0</ele><time>2026-03-29T11:11:38.001Z</time></trkpt><trkpt lat="14.615078547665785" lon="121.01667886002893"><ele>12.666666666666666</ele><time>2026-03-29T11:11:39.001Z</time></trkpt><trkpt lat="14.614909494788803" lon="121.01670527939888"><ele>12.333333333333332</ele><time>2026-03-29T11:11:40.001Z</time></trkpt><trkpt lat="14.61473638043127" lon="121.01672575639412"><ele>12.0</ele><time>2026-03-29T11:11:41.001Z</time></trkpt><trkpt lat="14.614558478436297" lon="121.01674212317731"><ele>11.0</ele><time>2026-03-29T11:11:42.001Z</time></trkpt><trkpt lat="14.614379558333821" lon="121.01675432170433"><ele>10.0</ele><time>2026-03-29T11:11:43.001Z</time></trkpt><trkpt lat="14.614197553246568" lon="121.01676382315732"><ele>9.0</ele><time>2026-03-29T11:11:44.001Z</time></trkpt><trkpt lat="14.61401369691236" lon="121.01677101964727"><ele>9.0</ele><time>2026-03-29T11:11:45.001Z</time></trkpt><trkpt lat="14.61382595159653" lon="121.01677783070636"><ele>9.0</ele><time>2026-03-29T11:11:46.001Z</time></trkpt><trkpt lat="14.613636978130334" lon="121.01678494209534"><ele>9.0</ele><time>2026-03-29T11:11:47.001Z</time></trkpt><trkpt lat="14.61344605274756" lon="121.01679253811923"><ele>10.0</ele><time>2026-03-29T11:11:48.001Z</time></trkpt><trkpt lat="14.61325519081841" lon="121.01679795372844"><ele>11.0</ele><time>2026-03-29T11:11:49.001Z</time></trkpt><trkpt lat="14.6130638611456" lon="121.01680208234355"><ele>12.0</ele><time>2026-03-29T11:11:50.001Z</time></trkpt><trkpt lat="14.612869960643234" lon="121.0168035610851"><ele>10.333333333333334</ele><time>2026-03-29T11:11:51.001Z</time></trkpt><trkpt lat="14.612677846268737" lon="121.01680724482651"><ele>8.666666666666668</ele><time>2026-03-29T11:11:52.001Z</time></trkpt><trkpt lat="14.612486196504099" lon="121.01681342932672"><ele>7.0</ele><time>2026-03-29T11:11:53.001Z</time></trkpt><trkpt lat="14.612293502143975" lon="121.01681849389949"><ele>7.0</ele><time>2026-03-29T11:11:54.001Z</time></trkpt><trkpt lat="14.612099897723354" lon="121.01682591540511"><ele>7.0</ele><time>2026-03-29T11:11:55.001Z</time></trkpt><trkpt lat="14.611905391120205" lon="121.01683634910268"><ele>7.0</ele><time>2026-03-29T11:11:56.001Z</time></trkpt><trkpt lat="14.611710101086832" lon="121.01684396059612"><ele>7.333333333333334</ele><time>2026-03-29T11:11:57.001Z</time></trkpt><trkpt lat="14.611513930103035" lon="121.01685712519755"><ele>7.666666666666666</ele><time>2026-03-29T11:11:58.001Z</time></trkpt><trkpt lat="14.611318534750723" lon="121.01686735337105"><ele>8.0</ele><time>2026-03-29T11:11:59.001Z</time></trkpt><trkpt lat="14.611122255669041" lon="121.01687581535032"><ele>9.0</ele><time>2026-03-29T11:12:00.001Z</time></trkpt><trkpt lat="14.61092488640733" lon="121.01688368895813"><ele>10.0</ele><time>2026-03-29T11:12:01.001Z</time></trkpt><trkpt lat="14.610728114396206" lon="121.01688819992002"><ele>11.0</ele><time>2026-03-29T11:12:02.001Z</time></trkpt><trkpt lat="14.610530856921642" lon="121.01689438987057"><ele>11.0</ele><time>2026-03-29T11:12:03.001Z</time></trkpt><trkpt lat="14.610334135425672" lon="121.0169017462539"><ele>11.0</ele><time>2026-03-29T11:12:04Z</time></trkpt><trkpt lat="14.610138511725399" lon="121.01690704603065"><ele>11.0</ele><time>2026-03-29T11:12:05Z</time></trkpt><trkpt lat="14.609941010375824" lon="121.01691378570445"><ele>10.0</ele><time>2026-03-29T11:12:06Z</time></trkpt><trkpt lat="14.609744548400341" lon="121.01692142246485"><ele>9.0</ele><time>2026-03-29T11:12:07Z</time></trkpt><trkpt lat="14.609551328561585" lon="121.01692900103409"><ele>8.0</ele><time>2026-03-29T11:12:08Z</time></trkpt><trkpt lat="14.60935961697729" lon="121.01693805695594"><ele>7.666666666666666</ele><time>2026-03-29T11:12:09Z</time></trkpt><trkpt lat="14.609168897747725" lon="121.01694798494191"><ele>7.333333333333334</ele><time>2026-03-29T11:12:10Z</time></trkpt><trkpt lat="14.608979508951219" lon="121.01695827447081"><ele>7.0</ele><time>2026-03-29T11:12:11Z</time></trkpt><trkpt lat="14.608790394977664" lon="121.016967677888"><ele>7.333333333333334</ele><time>2026-03-29T11:12:12Z</time></trkpt><trkpt lat="14.608601846990105" lon="121.01697836236906"><ele>7.666666666666666</ele><time>2026-03-29T11:12:13Z</time></trkpt><trkpt lat="14.608414446481204" lon="121.01699375880531"><ele>8.0</ele><time>2026-03-29T11:12:14Z</time></trkpt><trkpt lat="14.608228672131315" lon="121.0170168711149"><ele>8.0</ele><time>2026-03-29T11:12:15Z</time></trkpt><trkpt lat="14.608046955149845" lon="121.01704946476131"><ele>8.0</ele><time>2026-03-29T11:12:16Z</time></trkpt><trkpt lat="14.60786758744386" lon="121.01708632743932"><ele>8.0</ele><time>2026-03-29T11:12:17Z</time></trkpt><trkpt lat="14.607691489012947" lon="121.01713104844715"><ele>9.333333333333332</ele><time>2026-03-29T11:12:18Z</time></trkpt><trkpt lat="14.607518565706027" lon="121.01718583451189"><ele>10.666666666666666</ele><time>2026-03-29T11:12:19Z</time></trkpt><trkpt lat="14.607349519907052" lon="121.01725047765399"><ele>12.0</ele><time>2026-03-29T11:12:20Z</time></trkpt><trkpt lat="14.607188865141485" lon="121.0173255838353"><ele>12.0</ele><time>2026-03-29T11:12:21Z</time></trkpt><trkpt lat="14.607034199808774" lon="121.01740754057178"><ele>12.0</ele><time>2026-03-29T11:12:22Z</time></trkpt><trkpt lat="14.606883429226615" lon="121.01750062552843"><ele>12.0</ele><time>2026-03-29T11:12:23Z</time></trkpt><trkpt lat="14.606740372524529" lon="121.01759993243968"><ele>12.0</ele><time>2026-03-29T11:12:24Z</time></trkpt><trkpt lat="14.606602861867986" lon="121.01770481646679"><ele>12.0</ele><time>2026-03-29T11:12:25Z</time></trkpt><trkpt lat="14.6064703755422" lon="121.01781403516966"><ele>12.0</ele><time>2026-03-29T11:12:26Z</time></trkpt><trkpt lat="14.606341259144113" lon="121.0179287590182"><ele>12.0</ele><time>2026-03-29T11:12:27Z</time></trkpt><trkpt lat="14.606214618633787" lon="121.01804725316197"><ele>12.0</ele><time>2026-03-29T11:12:28Z</time></trkpt><trkpt lat="14.60609113350321" lon="121.01817085769336"><ele>12.0</ele><time>2026-03-29T11:12:29Z</time></trkpt><trkpt lat="14.60596798991348" lon="121.01828851040717"><ele>11.666666666666666</ele><time>2026-03-29T11:12:30Z</time></trkpt><trkpt lat="14.605845881756862" lon="121.01840580703919"><ele>11.333333333333332</ele><time>2026-03-29T11:12:31Z</time></trkpt><trkpt lat="14.605725251239987" lon="121.01852370170027"><ele>11.0</ele><time>2026-03-29T11:12:32Z</time></trkpt><trkpt lat="14.60560822826996" lon="121.01864012882207"><ele>11.0</ele><time>2026-03-29T11:12:33Z</time></trkpt><trkpt lat="14.60549227360329" lon="121.018755974519"><ele>11.0</ele><time>2026-03-29T11:12:34Z</time></trkpt><trkpt lat="14.605376294413054" lon="121.01887209495268"><ele>11.0</ele><time>2026-03-29T11:12:35Z</time></trkpt><trkpt lat="14.605259610980946" lon="121.0189893495979"><ele>10.666666666666666</ele><time>2026-03-29T11:12:36Z</time></trkpt><trkpt lat="14.605143455949056" lon="121.01910741505743"><ele>10.333333333333334</ele><time>2026-03-29T11:12:37Z</time></trkpt><trkpt lat="14.60502447196638" lon="121.01922690305788"><ele>10.0</ele><time>2026-03-29T11:12:38Z</time></trkpt><trkpt lat="14.60490987023892" lon="121.01934271613946"><ele>10.0</ele><time>2026-03-29T11:12:39Z</time></trkpt><trkpt lat="14.604798881193512" lon="121.01945399128343"><ele>10.0</ele><time>2026-03-29T11:12:40Z</time></trkpt><trkpt lat="14.604690151754205" lon="121.01955427033613"><ele>10.0</ele><time>2026-03-29T11:12:41Z</time></trkpt><trkpt lat="14.604583195852381" lon="121.01964155628109"><ele>10.0</ele><time>2026-03-29T11:12:42Z</time></trkpt><trkpt lat="14.604472956844338" lon="121.01971473887949"><ele>12.0</ele><time>2026-03-29T11:12:43Z</time></trkpt><trkpt lat="14.604356505576542" lon="121.01977407697265"><ele>14.0</ele><time>2026-03-29T11:12:44Z</time></trkpt><trkpt lat="14.604235799738179" lon="121.01981611197458"><ele>16.0</ele><time>2026-03-29T11:12:45Z</time></trkpt><trkpt lat="14.604105309766583" lon="121.0198439260624"><ele>18.0</ele><time>2026-03-29T11:12:46Z</time></trkpt><trkpt lat="14.603971960853919" lon="121.01985187000125"><ele>18.0</ele><time>2026-03-29T11:12:47Z</time></trkpt><trkpt lat="14.603836956492026" lon="121.01984079866907"><ele>18.0</ele><time>2026-03-29T11:12:48Z</time></trkpt><trkpt lat="14.603697889165957" lon="121.01981448572681"><ele>18.0</ele><time>2026-03-29T11:12:49Z</time></trkpt><trkpt lat="14.603554801680383" lon="121.01977187843741"><ele>18.0</ele><time>2026-03-29T11:12:50Z</time></trkpt><trkpt lat="14.603408264679516" lon="121.01972305106689"><ele>14.666666666666666</ele><time>2026-03-29T11:12:51Z</time></trkpt><trkpt lat="14.603261400883147" lon="121.01967890446039"><ele>11.333333333333332</ele><time>2026-03-29T11:12:52Z</time></trkpt><trkpt lat="14.603113608297638" lon="121.0196335484702"><ele>8.0</ele><time>2026-03-29T11:12:53Z</time></trkpt><trkpt lat="14.602961700116758" lon="121.01958728717732"><ele>7.333333333333333</ele><time>2026-03-29T11:12:54Z</time></trkpt><trkpt lat="14.602807862463822" lon="121.01955303248252"><ele>6.666666666666666</ele><time>2026-03-29T11:12:55Z</time></trkpt><trkpt lat="14.60265132550831" lon="121.01953586988544"><ele>6.0</ele><time>2026-03-29T11:12:56Z</time></trkpt><trkpt lat="14.602491584069133" lon="121.0195337151942"><ele>6.0</ele><time>2026-03-29T11:12:57Z</time></trkpt><trkpt lat="14.602332123840382" lon="121.01955549135623"><ele>6.0</ele><time>2026-03-29T11:12:58Z</time></trkpt><trkpt lat="14.6021742680803" lon="121.0196001973592"><ele>6.0</ele><time>2026-03-29T11:12:59Z</time></trkpt><trkpt lat="14.60201789945593" lon="121.01966275532305"><ele>6.333333333333334</ele><time>2026-03-29T11:13:00Z</time></trkpt><trkpt lat="14.601872534367997" lon="121.01974814107658"><ele>6.666666666666667</ele><time>2026-03-29T11:13:01Z</time></trkpt><trkpt lat="14.601736666437043" lon="121.01985217073633"><ele>7.0</ele><time>2026-03-29T11:13:02Z</time></trkpt><trkpt lat="14.601612309367173" lon="121.01997120989441"><ele>5.666666666666667</ele><time>2026-03-29T11:13:03Z</time></trkpt><trkpt lat="14.601503580341191" lon="121.02010735006523"><ele>4.333333333333334</ele><time>2026-03-29T11:13:04Z</time></trkpt><trkpt lat="14.601407839663487" lon="121.0202520519192"><ele>3.0</ele><time>2026-03-29T11:13:05Z</time></trkpt><trkpt lat="14.601314044778904" lon="121.0204039671536"><ele>3.0</ele><time>2026-03-29T11:13:06Z</time></trkpt><trkpt lat="14.601218859833311" lon="121.02055699559362"><ele>3.0</ele><time>2026-03-29T11:13:07Z</time></trkpt><trkpt lat="14.601122308883783" lon="121.0207160891381"><ele>3.0</ele><time>2026-03-29T11:13:08Z</time></trkpt><trkpt lat="14.601022217857608" lon="121.0208738624692"><ele>4.333333333333334</ele><time>2026-03-29T11:13:09Z</time></trkpt><trkpt lat="14.600923471186569" lon="121.0210366188515"><ele>5.666666666666667</ele><time>2026-03-29T11:13:10Z</time></trkpt><trkpt lat="14.60082210327461" lon="121.02120229342943"><ele>7.0</ele><time>2026-03-29T11:13:11Z</time></trkpt><trkpt lat="14.600720115237754" lon="121.02136978366806"><ele>7.0</ele><time>2026-03-29T11:13:12Z</time></trkpt><trkpt lat="14.600615069988725" lon="121.02153709732814"><ele>7.0</ele><time>2026-03-29T11:13:13Z</time></trkpt><trkpt lat="14.600509165035811" lon="121.02170706540748"><ele>7.0</ele><time>2026-03-29T11:13:14Z</time></trkpt><trkpt lat="14.600404810425875" lon="121.02187531086238"><ele>7.666666666666667</ele><time>2026-03-29T11:13:15Z</time></trkpt><trkpt lat="14.600299482777633" lon="121.02204496129632"><ele>8.333333333333334</ele><time>2026-03-29T11:13:16Z</time></trkpt><trkpt lat="14.60019554033453" lon="121.02221335099635"><ele>9.0</ele><time>2026-03-29T11:13:17Z</time></trkpt><trkpt lat="14.60009332270201" lon="121.02238149768748"><ele>9.0</ele><time>2026-03-29T11:13:18Z</time></trkpt><trkpt lat="14.59999213310348" lon="121.02254598303922"><ele>9.0</ele><time>2026-03-29T11:13:19Z</time></trkpt><trkpt lat="14.599893129931512" lon="121.0227083342782"><ele>9.0</ele><time>2026-03-29T11:13:20Z</time></trkpt><trkpt lat="14.599795824547655" lon="121.02286527264029"><ele>9.0</ele><time>2026-03-29T11:13:21Z</time></trkpt><trkpt lat="14.599697959067614" lon="121.02301924678426"><ele>9.0</ele><time>2026-03-29T11:13:22Z</time></trkpt><trkpt lat="14.599594484391805" lon="121.02316627237302"><ele>9.0</ele><time>2026-03-29T11:13:23Z</time></trkpt><trkpt lat="14.599482478952575" lon="121.02330258481248"><ele>8.333333333333334</ele><time>2026-03-29T11:13:24Z</time></trkpt><trkpt lat="14.599358838683646" lon="121.02342512000575"><ele>7.666666666666667</ele><time>2026-03-29T11:13:25Z</time></trkpt><trkpt lat="14.599225199272132" lon="121.02353840421985"><ele>7.0</ele><time>2026-03-29T11:13:26Z</time></trkpt><trkpt lat="14.599082490205761" lon="121.02363733284602"><ele>7.0</ele><time>2026-03-29T11:13:27Z</time></trkpt><trkpt lat="14.598939490134743" lon="121.02372557563136"><ele>7.0</ele><time>2026-03-29T11:13:28Z</time></trkpt><trkpt lat="14.59879381147192" lon="121.0238134389671"><ele>7.0</ele><time>2026-03-29T11:13:29Z</time></trkpt><trkpt lat="14.598651079941261" lon="121.02390100699206"><ele>6.666666666666667</ele><time>2026-03-29T11:13:30Z</time></trkpt><trkpt lat="14.598513688752014" lon="121.02398908198005"><ele>6.333333333333334</ele><time>2026-03-29T11:13:31Z</time></trkpt><trkpt lat="14.598378402052477" lon="121.0240750723559"><ele>6.0</ele><time>2026-03-29T11:13:32Z</time></trkpt><trkpt lat="14.598242778617893" lon="121.02416072943039"><ele>6.0</ele><time>2026-03-29T11:13:33Z</time></trkpt><trkpt lat="14.59810634606018" lon="121.02424687285725"><ele>6.0</ele><time>2026-03-29T11:13:34Z</time></trkpt><trkpt lat="14.597967858997341" lon="121.02433293118004"><ele>6.0</ele><time>2026-03-29T11:13:35Z</time></trkpt><trkpt lat="14.597827582710021" lon="121.02441940210183"><ele>5.333333333333333</ele><time>2026-03-29T11:13:36Z</time></trkpt><trkpt lat="14.597686520383915" lon="121.02450725234802"><ele>4.666666666666666</ele><time>2026-03-29T11:13:37Z</time></trkpt><trkpt lat="14.597543272656612" lon="121.0245967785111"><ele>4.0</ele><time>2026-03-29T11:13:38Z</time></trkpt><trkpt lat="14.597396648762631" lon="121.02468389063685"><ele>4.0</ele><time>2026-03-29T11:13:39Z</time></trkpt><trkpt lat="14.597246433168815" lon="121.02476978348699"><ele>4.0</ele><time>2026-03-29T11:13:40Z</time></trkpt><trkpt lat="14.597091801533221" lon="121.02485432566306"><ele>4.0</ele><time>2026-03-29T11:13:41Z</time></trkpt><trkpt lat="14.596934212179045" lon="121.02493957012113"><ele>4.0</ele><time>2026-03-29T11:13:42Z</time></trkpt><trkpt lat="14.596776480412506" lon="121.02501819537154"><ele>4.0</ele><time>2026-03-29T11:13:43Z</time></trkpt><trkpt lat="14.59661345662256" lon="121.02509949764675"><ele>4.0</ele><time>2026-03-29T11:13:44Z</time></trkpt><trkpt lat="14.596450125197915" lon="121.02517940163204"><ele>4.0</ele><time>2026-03-29T11:13:45Z</time></trkpt><trkpt lat="14.59628537265034" lon="121.02526002963103"><ele>4.0</ele><time>2026-03-29T11:13:46Z</time></trkpt><trkpt lat="14.596122166229062" lon="121.02534047720128"><ele>4.0</ele><time>2026-03-29T11:13:47Z</time></trkpt><trkpt lat="14.595958438955032" lon="121.02542039283651"><ele>4.666666666666666</ele><time>2026-03-29T11:13:48.001Z</time></trkpt><trkpt lat="14.595795732114105" lon="121.02549953699187"><ele>5.333333333333333</ele><time>2026-03-29T11:13:49.001Z</time></trkpt><trkpt lat="14.595633470706188" lon="121.02557634392409"><ele>6.0</ele><time>2026-03-29T11:13:50.001Z</time></trkpt><trkpt lat="14.59547297228953" lon="121.0256497458427"><ele>6.0</ele><time>2026-03-29T11:13:51.001Z</time></trkpt><trkpt lat="14.59531463587427" lon="121.02572047594411"><ele>6.0</ele><time>2026-03-29T11:13:52.001Z</time></trkpt><trkpt lat="14.59515894530549" lon="121.02578308719757"><ele>6.0</ele><time>2026-03-29T11:13:53.001Z</time></trkpt><trkpt lat="14.595004331767365" lon="121.02583409592651"><ele>5.0</ele><time>2026-03-29T11:13:54.001Z</time></trkpt><trkpt lat="14.5948491853556" lon="121.02587605525042"><ele>4.0</ele><time>2026-03-29T11:13:55.001Z</time></trkpt><trkpt lat="14.594692904005" lon="121.02591096300414"><ele>3.0</ele><time>2026-03-29T11:13:56Z</time></trkpt><trkpt lat="14.594535134753244" lon="121.02593673454477"><ele>3.0</ele><time>2026-03-29T11:13:57Z</time></trkpt><trkpt lat="14.59437489283153" lon="121.0259524082617"><ele>3.0</ele><time>2026-03-29T11:13:58.001Z</time></trkpt><trkpt lat="14.594213064588743" lon="121.02595731360893"><ele>3.0</ele><time>2026-03-29T11:13:59Z</time></trkpt><trkpt lat="14.594050932257709" lon="121.02595025502501"><ele>3.0</ele><time>2026-03-29T11:14:00Z</time></trkpt><trkpt lat="14.593890590288039" lon="121.02593162866492"><ele>3.0</ele><time>2026-03-29T11:14:01Z</time></trkpt><trkpt lat="14.593729537739076" lon="121.02589969237988"><ele>3.0</ele><time>2026-03-29T11:14:02Z</time></trkpt><trkpt lat="14.593571120451712" lon="121.02585396065898"><ele>3.666666666666667</ele><time>2026-03-29T11:14:03Z</time></trkpt><trkpt lat="14.593414882618873" lon="121.02579919693792"><ele>4.333333333333334</ele><time>2026-03-29T11:14:04Z</time></trkpt><trkpt lat="14.593261269115706" lon="121.02573380853924"><ele>5.0</ele><time>2026-03-29T11:14:05Z</time></trkpt><trkpt lat="14.593114643016632" lon="121.02565311892882"><ele>5.0</ele><time>2026-03-29T11:14:06Z</time></trkpt><trkpt lat="14.592969653094109" lon="121.02556395550869"><ele>5.0</ele><time>2026-03-29T11:14:07Z</time></trkpt><trkpt lat="14.59283205442033" lon="121.02546179561988"><ele>5.0</ele><time>2026-03-29T11:14:08Z</time></trkpt><trkpt lat="14.592701779780406" lon="121.0253466365402"><ele>5.0</ele><time>2026-03-29T11:14:09Z</time></trkpt><trkpt lat="14.59257905916749" lon="121.0252192448113"><ele>5.0</ele><time>2026-03-29T11:14:10Z</time></trkpt><trkpt lat="14.592463516361404" lon="121.02508365695942"><ele>5.0</ele><time>2026-03-29T11:14:11Z</time></trkpt><trkpt lat="14.592356081574176" lon="121.02494132591413"><ele>5.0</ele><time>2026-03-29T11:14:12Z</time></trkpt><trkpt lat="14.59225357597331" lon="121.02479678876162"><ele>5.0</ele><time>2026-03-29T11:14:13Z</time></trkpt><trkpt lat="14.592154400237087" lon="121.02465121312645"><ele>5.0</ele><time>2026-03-29T11:14:14Z</time></trkpt><trkpt lat="14.592055819948058" lon="121.02450688146688"><ele>5.666666666666667</ele><time>2026-03-29T11:14:15Z</time></trkpt><trkpt lat="14.591955365517865" lon="121.02436404565893"><ele>6.333333333333334</ele><time>2026-03-29T11:14:16Z</time></trkpt><trkpt lat="14.591854441696182" lon="121.02422020131596"><ele>7.0</ele><time>2026-03-29T11:14:17Z</time></trkpt><trkpt lat="14.591749527475967" lon="121.0240776096603"><ele>5.666666666666667</ele><time>2026-03-29T11:14:18Z</time></trkpt><trkpt lat="14.591640578234164" lon="121.02393563538922"><ele>4.333333333333334</ele><time>2026-03-29T11:14:19Z</time></trkpt><trkpt lat="14.591525044244962" lon="121.023799531657"><ele>3.0</ele><time>2026-03-29T11:14:20Z</time></trkpt><trkpt lat="14.591404233928623" lon="121.02366125460317"><ele>3.0</ele><time>2026-03-29T11:14:21Z</time></trkpt><trkpt lat="14.591281541892501" lon="121.02352524161483"><ele>3.0</ele><time>2026-03-29T11:14:22Z</time></trkpt><trkpt lat="14.59115670461445" lon="121.02339330847587"><ele>3.0</ele><time>2026-03-29T11:14:23Z</time></trkpt><trkpt lat="14.591033253950405" lon="121.02325965271396"><ele>3.333333333333333</ele><time>2026-03-29T11:14:24Z</time></trkpt><trkpt lat="14.590912741274906" lon="121.02312592552467"><ele>3.6666666666666665</ele><time>2026-03-29T11:14:25Z</time></trkpt><trkpt lat="14.590792859979594" lon="121.0229899571262"><ele>4.0</ele><time>2026-03-29T11:14:26Z</time></trkpt><trkpt lat="14.590678014343817" lon="121.02285303552266"><ele>4.0</ele><time>2026-03-29T11:14:27Z</time></trkpt><trkpt lat="14.590568712661929" lon="121.02271499395235"><ele>4.0</ele><time>2026-03-29T11:14:28Z</time></trkpt><trkpt lat="14.590462913926968" lon="121.02257623808654"><ele>4.0</ele><time>2026-03-29T11:14:29Z</time></trkpt><trkpt lat="14.590362463941704" lon="121.0224353402855"><ele>4.0</ele><time>2026-03-29T11:14:30Z</time></trkpt><trkpt lat="14.590265689607573" lon="121.02229483414455"><ele>4.0</ele><time>2026-03-29T11:14:31Z</time></trkpt><trkpt lat="14.590170927853796" lon="121.02215522497204"><ele>4.0</ele><time>2026-03-29T11:14:32Z</time></trkpt><trkpt lat="14.590079612661308" lon="121.02201524663579"><ele>4.0</ele><time>2026-03-29T11:14:33Z</time></trkpt><trkpt lat="14.58999089956818" lon="121.02187227883702"><ele>4.0</ele><time>2026-03-29T11:14:34Z</time></trkpt><trkpt lat="14.5899042714299" lon="121.02172718907543"><ele>4.0</ele><time>2026-03-29T11:14:35Z</time></trkpt><trkpt lat="14.589821435141781" lon="121.02157927616918"><ele>4.0</ele><time>2026-03-29T11:14:36Z</time></trkpt><trkpt lat="14.589740769171462" lon="121.02142809612084"><ele>4.0</ele><time>2026-03-29T11:14:37Z</time></trkpt><trkpt lat="14.589663290077995" lon="121.02127645631809"><ele>4.0</ele><time>2026-03-29T11:14:38Z</time></trkpt><trkpt lat="14.589590115005219" lon="121.02112280328222"><ele>4.0</ele><time>2026-03-29T11:14:39Z</time></trkpt><trkpt lat="14.589520151623212" lon="121.02097071216187"><ele>4.0</ele><time>2026-03-29T11:14:40Z</time></trkpt><trkpt lat="14.589451281249108" lon="121.02081830257775"><ele>4.0</ele><time>2026-03-29T11:14:41Z</time></trkpt><trkpt lat="14.589384802499488" lon="121.02066568144136"><ele>4.333333333333333</ele><time>2026-03-29T11:14:42Z</time></trkpt><trkpt lat="14.589317675556593" lon="121.0205142974515"><ele>4.666666666666667</ele><time>2026-03-29T11:14:43Z</time></trkpt><trkpt lat="14.58925406992157" lon="121.0203602431515"><ele>5.0</ele><time>2026-03-29T11:14:44Z</time></trkpt><trkpt lat="14.589192569998369" lon="121.02020301389278"><ele>5.0</ele><time>2026-03-29T11:14:45Z</time></trkpt><trkpt lat="14.58913279342999" lon="121.02004127203729"><ele>5.0</ele><time>2026-03-29T11:14:46Z</time></trkpt><trkpt lat="14.589075404071625" lon="121.019874963354"><ele>5.0</ele><time>2026-03-29T11:14:47Z</time></trkpt><trkpt lat="14.589018549874886" lon="121.0197063689653"><ele>4.333333333333334</ele><time>2026-03-29T11:14:48Z</time></trkpt><trkpt lat="14.588964802587087" lon="121.01953514803637"><ele>3.666666666666667</ele><time>2026-03-29T11:14:49Z</time></trkpt><trkpt lat="14.58891541552932" lon="121.01935986141991"><ele>3.0</ele><time>2026-03-29T11:14:50Z</time></trkpt><trkpt lat="14.588866203429886" lon="121.0191792418966"><ele>3.666666666666667</ele><time>2026-03-29T11:14:51Z</time></trkpt><trkpt lat="14.588820136860857" lon="121.01899708094149"><ele>4.333333333333334</ele><time>2026-03-29T11:14:52Z</time></trkpt><trkpt lat="14.588778420044822" lon="121.0188132420144"><ele>5.0</ele><time>2026-03-29T11:14:53Z</time></trkpt><trkpt lat="14.588740107505973" lon="121.01862983520249"><ele>5.0</ele><time>2026-03-29T11:14:54Z</time></trkpt><trkpt lat="14.588703761779529" lon="121.01844582761161"><ele>5.0</ele><time>2026-03-29T11:14:55Z</time></trkpt><trkpt lat="14.588672224748333" lon="121.01826046774234"><ele>5.0</ele><time>2026-03-29T11:14:56Z</time></trkpt><trkpt lat="14.5886454172836" lon="121.01807442417747"><ele>4.0</ele><time>2026-03-29T11:14:57Z</time></trkpt><trkpt lat="14.588620069028433" lon="121.01788805560908"><ele>3.0</ele><time>2026-03-29T11:14:58Z</time></trkpt><trkpt lat="14.58859643635533" lon="121.01770319832988"><ele>2.0</ele><time>2026-03-29T11:14:59Z</time></trkpt><trkpt lat="14.588578088842434" lon="121.01751984664405"><ele>0.6666666666666666</ele><time>2026-03-29T11:15:00Z</time></trkpt><trkpt lat="14.58856201151294" lon="121.01733607497232"><ele>-0.6666666666666666</ele><time>2026-03-29T11:15:01Z</time></trkpt><trkpt lat="14.588549865692087" lon="121.01715188870325"><ele>-2.0</ele><time>2026-03-29T11:15:02Z</time></trkpt><trkpt lat="14.58854120293515" lon="121.0169673995685"><ele>-2.0</ele><time>2026-03-29T11:15:03Z</time></trkpt><trkpt lat="14.588536624109913" lon="121.01678605808004"><ele>-2.0</ele><time>2026-03-29T11:15:04Z</time></trkpt><trkpt lat="14.588535471329742" lon="121.01660814302767"><ele>-2.0</ele><time>2026-03-29T11:15:05Z</time></trkpt><trkpt lat="14.58853802495226" lon="121.01643252676898"><ele>1.0000000000000002</ele><time>2026-03-29T11:15:06Z</time></trkpt><trkpt lat="14.58854838239222" lon="121.01626072373372"><ele>4.0</ele><time>2026-03-29T11:15:07Z</time></trkpt><trkpt lat="14.58856945470353" lon="121.01609196796878"><ele>7.0</ele><time>2026-03-29T11:15:08Z</time></trkpt><trkpt lat="14.588603932238382" lon="121.01592830986247"><ele>6.666666666666667</ele><time>2026-03-29T11:15:09Z</time></trkpt><trkpt lat="14.588667422979693" lon="121.01577205744822"><ele>6.333333333333334</ele><time>2026-03-29T11:15:10Z</time></trkpt><trkpt lat="14.5887285787887" lon="121.01561509804279"><ele>6.0</ele><time>2026-03-29T11:15:11Z</time></trkpt><trkpt lat="14.588796071743818" lon="121.01546316927443"><ele>6.666666666666666</ele><time>2026-03-29T11:15:12Z</time></trkpt><trkpt lat="14.588857616923944" lon="121.01531050390635"><ele>7.333333333333333</ele><time>2026-03-29T11:15:13Z</time></trkpt><trkpt lat="14.58894429425244" lon="121.01517505532601"><ele>8.0</ele><time>2026-03-29T11:15:14Z</time></trkpt><trkpt lat="14.58903918187036" lon="121.015048032061"><ele>7.25</ele><time>2026-03-29T11:15:15Z</time></trkpt><trkpt lat="14.589153534778518" lon="121.01494520826952"><ele>6.5</ele><time>2026-03-29T11:15:16Z</time></trkpt><trkpt lat="14.58926168135831" lon="121.01484323854142"><ele>5.75</ele><time>2026-03-29T11:15:17Z</time></trkpt><trkpt lat="14.58937315230852" lon="121.0147454234004"><ele>5.0</ele><time>2026-03-29T11:15:18Z</time></trkpt><trkpt lat="14.58948502839304" lon="121.01465692624969"><ele>5.0</ele><time>2026-03-29T11:15:19Z</time></trkpt><trkpt lat="14.58959337422696" lon="121.01457123764304"><ele>5.0</ele><time>2026-03-29T11:15:20Z</time></trkpt><trkpt lat="14.589693869292482" lon="121.01446596486637"><ele>5.0</ele><time>2026-03-29T11:15:21Z</time></trkpt><trkpt lat="14.589778435198692" lon="121.0143469110559"><ele>5.0</ele><time>2026-03-29T11:15:22Z</time></trkpt><trkpt lat="14.589850907595723" lon="121.01421871857427"><ele>4.25</ele><time>2026-03-29T11:15:23Z</time></trkpt><trkpt lat="14.589909438505464" lon="121.01408558688523"><ele>3.5</ele><time>2026-03-29T11:15:24Z</time></trkpt><trkpt lat="14.589948590511744" lon="121.01393819963435"><ele>2.75</ele><time>2026-03-29T11:15:25Z</time></trkpt><trkpt lat="14.589972349156636" lon="121.01378681048529"><ele>2.0</ele><time>2026-03-29T11:15:26Z</time></trkpt><trkpt lat="14.589966078133113" lon="121.01363416677385"><ele>2.0</ele><time>2026-03-29T11:15:27Z</time></trkpt><trkpt lat="14.589963463208788" lon="121.01348138622858"><ele>2.0</ele><time>2026-03-29T11:15:28Z</time></trkpt><trkpt lat="14.589942513082471" lon="121.0133308456579"><ele>2.0</ele><time>2026-03-29T11:15:29Z</time></trkpt><trkpt lat="14.589903460484063" lon="121.01318307462238"><ele>2.0</ele><time>2026-03-29T11:15:30Z</time></trkpt><trkpt lat="14.5898475220024" lon="121.01303985928082"><ele>2.6666666666666665</ele><time>2026-03-29T11:15:31Z</time></trkpt><trkpt lat="14.589777449201573" lon="121.01290019595727"><ele>3.333333333333333</ele><time>2026-03-29T11:15:32Z</time></trkpt><trkpt lat="14.58970146179547" lon="121.01276021244527"><ele>4.0</ele><time>2026-03-29T11:15:33Z</time></trkpt><trkpt lat="14.589621487407323" lon="121.01261759790007"><ele>4.0</ele><time>2026-03-29T11:15:34Z</time></trkpt><trkpt lat="14.589544875369137" lon="121.01247295495196"><ele>4.0</ele><time>2026-03-29T11:15:35Z</time></trkpt><trkpt lat="14.58947595409142" lon="121.01232630357855"><ele>4.0</ele><time>2026-03-29T11:15:36Z</time></trkpt><trkpt lat="14.589418769634007" lon="121.0121776402098"><ele>4.0</ele><time>2026-03-29T11:15:37Z</time></trkpt><trkpt lat="14.589369521377623" lon="121.01202287061166"><ele>4.0</ele><time>2026-03-29T11:15:38Z</time></trkpt><trkpt lat="14.5893312834928" lon="121.011861408087"><ele>4.0</ele><time>2026-03-29T11:15:39Z</time></trkpt><trkpt lat="14.589304153073472" lon="121.01169384082493"><ele>4.333333333333333</ele><time>2026-03-29T11:15:40Z</time></trkpt><trkpt lat="14.589289183164952" lon="121.01152539767624"><ele>4.666666666666667</ele><time>2026-03-29T11:15:41Z</time></trkpt><trkpt lat="14.589289493064818" lon="121.01135425199666"><ele>5.0</ele><time>2026-03-29T11:15:42Z</time></trkpt><trkpt lat="14.589301679235444" lon="121.0111814667054"><ele>5.0</ele><time>2026-03-29T11:15:43Z</time></trkpt><trkpt lat="14.589327030950344" lon="121.01101011255548"><ele>5.0</ele><time>2026-03-29T11:15:44Z</time></trkpt><trkpt lat="14.589382625881782" lon="121.01084167573133"><ele>5.0</ele><time>2026-03-29T11:15:45Z</time></trkpt><trkpt lat="14.589410286502085" lon="121.01066528276222"><ele>5.666666666666667</ele><time>2026-03-29T11:15:46Z</time></trkpt><trkpt lat="14.58946301271359" lon="121.01049339409812"><ele>6.333333333333334</ele><time>2026-03-29T11:15:47Z</time></trkpt><trkpt lat="14.589515326202159" lon="121.01032598983764"><ele>7.0</ele><time>2026-03-29T11:15:48Z</time></trkpt><trkpt lat="14.589567808415605" lon="121.01016191962452"><ele>7.0</ele><time>2026-03-29T11:15:49Z</time></trkpt><trkpt lat="14.589614952832301" lon="121.01000593829393"><ele>7.0</ele><time>2026-03-29T11:15:50Z</time></trkpt><trkpt lat="14.58966733701197" lon="121.00984927197243"><ele>7.0</ele><time>2026-03-29T11:15:51Z</time></trkpt><trkpt lat="14.589718948798852" lon="121.00969575651976"><ele>7.0</ele><time>2026-03-29T11:15:52Z</time></trkpt><trkpt lat="14.58976566830706" lon="121.00954563213249"><ele>7.0</ele><time>2026-03-29T11:15:53Z</time></trkpt><trkpt lat="14.589799409861195" lon="121.0093953350047"><ele>7.0</ele><time>2026-03-29T11:15:54Z</time></trkpt><trkpt lat="14.589813636998137" lon="121.00924506525571"><ele>7.0</ele><time>2026-03-29T11:15:55Z</time></trkpt><trkpt lat="14.589808725172535" lon="121.00909500662605"><ele>7.0</ele><time>2026-03-29T11:15:56Z</time></trkpt><trkpt lat="14.58978565533871" lon="121.00894958180352"><ele>7.0</ele><time>2026-03-29T11:15:57Z</time></trkpt><trkpt lat="14.589744118981098" lon="121.00881064739445"><ele>7.0</ele><time>2026-03-29T11:15:58Z</time></trkpt><trkpt lat="14.589687041866167" lon="121.0086814705994"><ele>7.0</ele><time>2026-03-29T11:15:59Z</time></trkpt><trkpt lat="14.589617309064064" lon="121.00856403957407"><ele>7.0</ele><time>2026-03-29T11:16:00Z</time></trkpt><trkpt lat="14.589533228843454" lon="121.00845062068996"><ele>7.0</ele><time>2026-03-29T11:16:01Z</time></trkpt><trkpt lat="14.589436529020883" lon="121.00834751845396"><ele>7.0</ele><time>2026-03-29T11:16:02Z</time></trkpt><trkpt lat="14.58933099609606" lon="121.00825007595293"><ele>7.0</ele><time>2026-03-29T11:16:03Z</time></trkpt><trkpt lat="14.589219064777584" lon="121.00815421196654"><ele>6.333333333333334</ele><time>2026-03-29T11:16:04Z</time></trkpt><trkpt lat="14.589102718966254" lon="121.0080588366071"><ele>5.666666666666667</ele><time>2026-03-29T11:16:05Z</time></trkpt><trkpt lat="14.588984763674201" lon="121.00795905335062"><ele>5.0</ele><time>2026-03-29T11:16:06Z</time></trkpt><trkpt lat="14.588865857336692" lon="121.00785829808146"><ele>5.0</ele><time>2026-03-29T11:16:07Z</time></trkpt><trkpt lat="14.588743736205714" lon="121.00775577541042"><ele>5.0</ele><time>2026-03-29T11:16:08Z</time></trkpt><trkpt lat="14.588622589750003" lon="121.00765286083902"><ele>5.0</ele><time>2026-03-29T11:16:09Z</time></trkpt><trkpt lat="14.588501642508591" lon="121.00754678462958"><ele>6.0</ele><time>2026-03-29T11:16:10Z</time></trkpt><trkpt lat="14.588379447134159" lon="121.00743945647874"><ele>7.0</ele><time>2026-03-29T11:16:11Z</time></trkpt><trkpt lat="14.588261066264973" lon="121.00732746321587"><ele>8.0</ele><time>2026-03-29T11:16:12Z</time></trkpt><trkpt lat="14.58814751766601" lon="121.0072081929948"><ele>8.0</ele><time>2026-03-29T11:16:13Z</time></trkpt><trkpt lat="14.588039093069973" lon="121.00708043694787"><ele>8.0</ele><time>2026-03-29T11:16:14Z</time></trkpt><trkpt lat="14.587934230937064" lon="121.00695187998468"><ele>8.0</ele><time>2026-03-29T11:16:15Z</time></trkpt><trkpt lat="14.587832790637204" lon="121.00682014371833"><ele>7.666666666666666</ele><time>2026-03-29T11:16:16Z</time></trkpt><trkpt lat="14.587734162829568" lon="121.00668665848653"><ele>7.333333333333334</ele><time>2026-03-29T11:16:17Z</time></trkpt><trkpt lat="14.58763584513898" lon="121.00655239755388"><ele>7.0</ele><time>2026-03-29T11:16:18Z</time></trkpt><trkpt lat="14.58753873478574" lon="121.00642026545896"><ele>7.0</ele><time>2026-03-29T11:16:19Z</time></trkpt><trkpt lat="14.587443065536991" lon="121.00628993673959"><ele>7.0</ele><time>2026-03-29T11:16:20Z</time></trkpt><trkpt lat="14.587348485828626" lon="121.00616013666412"><ele>7.0</ele><time>2026-03-29T11:16:21Z</time></trkpt><trkpt lat="14.58725147949017" lon="121.00603310961017"><ele>7.0</ele><time>2026-03-29T11:16:22Z</time></trkpt><trkpt lat="14.58714965545029" lon="121.00590925336857"><ele>7.0</ele><time>2026-03-29T11:16:23Z</time></trkpt><trkpt lat="14.587041749871604" lon="121.00579151352356"><ele>7.0</ele><time>2026-03-29T11:16:24Z</time></trkpt><trkpt lat="14.586926750889303" lon="121.00567802193312"><ele>7.0</ele><time>2026-03-29T11:16:25Z</time></trkpt><trkpt lat="14.58680743543513" lon="121.00557091314151"><ele>7.0</ele><time>2026-03-29T11:16:26Z</time></trkpt><trkpt lat="14.586685153262192" lon="121.00546133343377"><ele>7.0</ele><time>2026-03-29T11:16:27Z</time></trkpt><trkpt lat="14.586559516202298" lon="121.00535016156319"><ele>7.0</ele><time>2026-03-29T11:16:28Z</time></trkpt><trkpt lat="14.586433617145543" lon="121.00523617993382"><ele>7.0</ele><time>2026-03-29T11:16:29Z</time></trkpt><trkpt lat="14.586306937504059" lon="121.00512606441592"><ele>7.0</ele><time>2026-03-29T11:16:30Z</time></trkpt><trkpt lat="14.586180352084572" lon="121.00501542348262"><ele>6.666666666666667</ele><time>2026-03-29T11:16:31Z</time></trkpt><trkpt lat="14.586055266434522" lon="121.00490505202903"><ele>6.333333333333334</ele><time>2026-03-29T11:16:32Z</time></trkpt><trkpt lat="14.585930877270028" lon="121.00479534390799"><ele>6.0</ele><time>2026-03-29T11:16:33Z</time></trkpt><trkpt lat="14.585807490218588" lon="121.00468648099718"><ele>6.0</ele><time>2026-03-29T11:16:34Z</time></trkpt><trkpt lat="14.585686231691572" lon="121.00457749934712"><ele>6.0</ele><time>2026-03-29T11:16:35Z</time></trkpt><trkpt lat="14.58556758475247" lon="121.00446885711227"><ele>6.0</ele><time>2026-03-29T11:16:36Z</time></trkpt><trkpt lat="14.585453638061374" lon="121.00435621978531"><ele>6.0</ele><time>2026-03-29T11:16:37Z</time></trkpt><trkpt lat="14.585342082812703" lon="121.00424280657548"><ele>6.0</ele><time>2026-03-29T11:16:38Z</time></trkpt><trkpt lat="14.585232541789539" lon="121.00412816629625"><ele>6.0</ele><time>2026-03-29T11:16:39Z</time></trkpt><trkpt lat="14.585124921810593" lon="121.00401390044149"><ele>6.0</ele><time>2026-03-29T11:16:40Z</time></trkpt><trkpt lat="14.585017892780433" lon="121.00390044120101"><ele>6.0</ele><time>2026-03-29T11:16:41Z</time></trkpt><trkpt lat="14.584912756102172" lon="121.00378806611782"><ele>6.0</ele><time>2026-03-29T11:16:42Z</time></trkpt><trkpt lat="14.584812934238277" lon="121.00367296089668"><ele>6.0</ele><time>2026-03-29T11:16:43Z</time></trkpt><trkpt lat="14.584712634835167" lon="121.00356350209877"><ele>6.0</ele><time>2026-03-29T11:16:44Z</time></trkpt><trkpt lat="14.584615712941096" lon="121.00346012420239"><ele>6.0</ele><time>2026-03-29T11:16:45Z</time></trkpt><trkpt lat="14.584526704840629" lon="121.00336463364957"><ele>6.0</ele><time>2026-03-29T11:16:46Z</time></trkpt><trkpt lat="14.584444153332266" lon="121.00327662745408"><ele>6.199999999999999</ele><time>2026-03-29T11:16:47Z</time></trkpt><trkpt lat="14.584364997354282" lon="121.00319248976072"><ele>6.3999999999999995</ele><time>2026-03-29T11:16:48Z</time></trkpt><trkpt lat="14.584291813762597" lon="121.00311392234467"><ele>6.6</ele><time>2026-03-29T11:16:49Z</time></trkpt><trkpt lat="14.584227081417168" lon="121.0030427686543"><ele>6.8</ele><time>2026-03-29T11:16:50Z</time></trkpt><trkpt lat="14.584164436454827" lon="121.00297582935703"><ele>7.0</ele><time>2026-03-29T11:16:51Z</time></trkpt><trkpt lat="14.584105735290043" lon="121.00291234547838"><ele>7.000000000000001</ele><time>2026-03-29T11:16:52Z</time></trkpt><trkpt lat="14.584050666007835" lon="121.0028552447124"><ele>7.0</ele><time>2026-03-29T11:16:53Z</time></trkpt><trkpt lat="14.58399588182642" lon="121.00280319521433"><ele>7.0</ele><time>2026-03-29T11:16:54Z</time></trkpt><trkpt lat="14.583942857804482" lon="121.00275417333326"><ele>7.0</ele><time>2026-03-29T11:16:55Z</time></trkpt><trkpt lat="14.583893820124581" lon="121.00270914860008"><ele>7.000000000000001</ele><time>2026-03-29T11:16:56Z</time></trkpt><trkpt lat="14.583814271968924" lon="121.00263997356522"><ele>7.0</ele><time>2026-03-29T11:16:58Z</time></trkpt><trkpt lat="14.58375323125513" lon="121.00258817966099"><ele>7.000000000000001</ele><time>2026-03-29T11:17:00Z</time></trkpt><trkpt lat="14.583689548333588" lon="121.00252953706682"><ele>7.0</ele><time>2026-03-29T11:17:03Z</time></trkpt><trkpt lat="14.58364044009479" lon="121.00248448546502"><ele>7.0</ele><time>2026-03-29T11:17:06Z</time></trkpt><trkpt lat="14.58358340608473" lon="121.00243402059132"><ele>7.0</ele><time>2026-03-29T11:17:08Z</time></trkpt><trkpt lat="14.583506530558102" lon="121.00235600686611"><ele>7.000000000000001</ele><time>2026-03-29T11:17:10Z</time></trkpt><trkpt lat="14.583457264024632" lon="121.00230617053786"><ele>7.0</ele><time>2026-03-29T11:17:11Z</time></trkpt><trkpt lat="14.58340314787234" lon="121.00225480105907"><ele>7.166666666666667</ele><time>2026-03-29T11:17:12Z</time></trkpt><trkpt lat="14.583344445988672" lon="121.00220068797108"><ele>7.333333333333334</ele><time>2026-03-29T11:17:13Z</time></trkpt><trkpt lat="14.583281157240481" lon="121.00214309662663"><ele>7.5</ele><time>2026-03-29T11:17:14Z</time></trkpt><trkpt lat="14.583215073932688" lon="121.00208279514754"><ele>7.666666666666666</ele><time>2026-03-29T11:17:15Z</time></trkpt><trkpt lat="14.583147752920567" lon="121.00201826904032"><ele>7.833333333333333</ele><time>2026-03-29T11:17:16Z</time></trkpt><trkpt lat="14.583076376173034" lon="121.0019473728391"><ele>8.0</ele><time>2026-03-29T11:17:17Z</time></trkpt><trkpt lat="14.583002824652814" lon="121.00187314974869"><ele>8.0</ele><time>2026-03-29T11:17:18Z</time></trkpt><trkpt lat="14.582926744353976" lon="121.00179591765934"><ele>8.0</ele><time>2026-03-29T11:17:19Z</time></trkpt><trkpt lat="14.582847319029138" lon="121.00171506482722"><ele>8.0</ele><time>2026-03-29T11:17:20Z</time></trkpt><trkpt lat="14.58276579851161" lon="121.00163120647743"><ele>8.0</ele><time>2026-03-29T11:17:21Z</time></trkpt><trkpt lat="14.582682998639477" lon="121.00154460294014"><ele>8.25</ele><time>2026-03-29T11:17:22Z</time></trkpt><trkpt lat="14.58259756677891" lon="121.00145555408372"><ele>8.5</ele><time>2026-03-29T11:17:23Z</time></trkpt><trkpt lat="14.58251210127379" lon="121.00136726689324"><ele>8.75</ele><time>2026-03-29T11:17:24Z</time></trkpt><trkpt lat="14.582428667761429" lon="121.00127907945748"><ele>9.0</ele><time>2026-03-29T11:17:25Z</time></trkpt><trkpt lat="14.582342520131942" lon="121.00119048424664"><ele>9.0</ele><time>2026-03-29T11:17:26Z</time></trkpt><trkpt lat="14.582250955056525" lon="121.00109908851023"><ele>9.0</ele><time>2026-03-29T11:17:27Z</time></trkpt><trkpt lat="14.582156127842628" lon="121.00100774802912"><ele>9.0</ele><time>2026-03-29T11:17:28Z</time></trkpt><trkpt lat="14.582057719211578" lon="121.00091546071582"><ele>9.0</ele><time>2026-03-29T11:17:29Z</time></trkpt><trkpt lat="14.581956465636509" lon="121.00082243845542"><ele>8.75</ele><time>2026-03-29T11:17:30Z</time></trkpt><trkpt lat="14.581852541142116" lon="121.00073016867593"><ele>8.5</ele><time>2026-03-29T11:17:31Z</time></trkpt><trkpt lat="14.581746511977721" lon="121.00063657635027"><ele>8.25</ele><time>2026-03-29T11:17:32Z</time></trkpt><trkpt lat="14.581640036860337" lon="121.00054435730615"><ele>8.0</ele><time>2026-03-29T11:17:33Z</time></trkpt><trkpt lat="14.581537248397497" lon="121.00045267057875"><ele>8.0</ele><time>2026-03-29T11:17:34Z</time></trkpt><trkpt lat="14.581441737078686" lon="121.0003602650278"><ele>8.0</ele><time>2026-03-29T11:17:35Z</time></trkpt><trkpt lat="14.581354907649212" lon="121.00026587776904"><ele>8.0</ele><time>2026-03-29T11:17:36Z</time></trkpt><trkpt lat="14.581275891608255" lon="121.00016728789527"><ele>8.0</ele><time>2026-03-29T11:17:37Z</time></trkpt><trkpt lat="14.581208289630302" lon="121.0000716127975"><ele>8.0</ele><time>2026-03-29T11:17:38Z</time></trkpt><trkpt lat="14.581151727019133" lon="120.99996972508399"><ele>8.0</ele><time>2026-03-29T11:17:39Z</time></trkpt><trkpt lat="14.581104224134357" lon="120.9998636872038"><ele>8.0</ele><time>2026-03-29T11:17:40Z</time></trkpt><trkpt lat="14.581066622330884" lon="120.99975860485333"><ele>8.0</ele><time>2026-03-29T11:17:41Z</time></trkpt><trkpt lat="14.581031954677801" lon="120.99965851099844"><ele>8.0</ele><time>2026-03-29T11:17:42Z</time></trkpt><trkpt lat="14.580993763690937" lon="120.99956666510927"><ele>8.0</ele><time>2026-03-29T11:17:43Z</time></trkpt><trkpt lat="14.580946727842846" lon="120.99947862161298"><ele>8.0</ele><time>2026-03-29T11:17:44Z</time></trkpt><trkpt lat="14.580889195893992" lon="120.99939954673941"><ele>8.0</ele><time>2026-03-29T11:17:45Z</time></trkpt><trkpt lat="14.580821351396404" lon="120.99933173285842"><ele>8.0</ele><time>2026-03-29T11:17:46Z</time></trkpt><trkpt lat="14.580741826266584" lon="120.99927944321732"><ele>8.0</ele><time>2026-03-29T11:17:47Z</time></trkpt><trkpt lat="14.580653934938649" lon="120.99924119483883"><ele>7.999999999999999</ele><time>2026-03-29T11:17:48Z</time></trkpt><trkpt lat="14.580563222086868" lon="120.99921801870777"><ele>8.0</ele><time>2026-03-29T11:17:49Z</time></trkpt><trkpt lat="14.580474703038897" lon="120.9992055462869"><ele>8.0</ele><time>2026-03-29T11:17:50Z</time></trkpt><trkpt lat="14.580395780779257" lon="120.999203383393"><ele>8.0</ele><time>2026-03-29T11:17:51Z</time></trkpt><trkpt lat="14.580330401947672" lon="120.99920404312711"><ele>7.999999999999999</ele><time>2026-03-29T11:17:52Z</time></trkpt><trkpt lat="14.580212072440913" lon="120.99921305242457"><ele>8.0</ele><time>2026-03-29T11:17:54Z</time></trkpt><trkpt lat="14.580119142853233" lon="120.99920893243937"><ele>8.0</ele><time>2026-03-29T11:17:56Z</time></trkpt><trkpt lat="14.580028773662482" lon="120.99917972402481"><ele>8.0</ele><time>2026-03-29T11:17:58Z</time></trkpt><trkpt lat="14.579910879295314" lon="120.99912135280276"><ele>8.0</ele><time>2026-03-29T11:18:00Z</time></trkpt><trkpt lat="14.579843975326376" lon="120.99908087466272"><ele>8.0</ele><time>2026-03-29T11:18:01Z</time></trkpt><trkpt lat="14.579774140082874" lon="120.99903458555961"><ele>8.0</ele><time>2026-03-29T11:18:02Z</time></trkpt><trkpt lat="14.579703151709404" lon="120.99898434419337"><ele>7.999999999999999</ele><time>2026-03-29T11:18:03Z</time></trkpt><trkpt lat="14.57962818589509" lon="120.99893880047827"><ele>8.0</ele><time>2026-03-29T11:18:04Z</time></trkpt><trkpt lat="14.579557844266454" lon="120.99889036559867"><ele>8.0</ele><time>2026-03-29T11:18:05Z</time></trkpt><trkpt lat="14.579491075696616" lon="120.9988410510145"><ele>8.0</ele><time>2026-03-29T11:18:06Z</time></trkpt><trkpt lat="14.579424453903501" lon="120.99879254698286"><ele>7.999999999999999</ele><time>2026-03-29T11:18:07Z</time></trkpt><trkpt lat="14.579358824365958" lon="120.99874752109922"><ele>8.0</ele><time>2026-03-29T11:18:08Z</time></trkpt><trkpt lat="14.579294330441083" lon="120.99870565006538"><ele>7.6000000000000005</ele><time>2026-03-29T11:18:09Z</time></trkpt><trkpt lat="14.57923530485611" lon="120.99866739275551"><ele>7.200000000000001</ele><time>2026-03-29T11:18:10Z</time></trkpt><trkpt lat="14.579134556342854" lon="120.99858088459446"><ele>6.8</ele><time>2026-03-29T11:18:12Z</time></trkpt><trkpt lat="14.579054042029833" lon="120.99851603653477"><ele>6.4</ele><time>2026-03-29T11:18:14Z</time></trkpt><trkpt lat="14.578996666636924" lon="120.99847028454747"><ele>6.0</ele><time>2026-03-29T11:18:16Z</time></trkpt><trkpt lat="14.578928051776126" lon="120.99842517382724"><ele>6.0</ele><time>2026-03-29T11:18:51Z</time></trkpt><trkpt lat="14.578848034839394" lon="120.99836420638167"><ele>6.0</ele><time>2026-03-29T11:18:54Z</time></trkpt><trkpt lat="14.578766896619015" lon="120.99829757034705"><ele>6.0</ele><time>2026-03-29T11:18:56Z</time></trkpt><trkpt lat="14.578659493204539" lon="120.99821669875595"><ele>6.0</ele><time>2026-03-29T11:18:58Z</time></trkpt><trkpt lat="14.578599202989677" lon="120.99816931338603"><ele>6.0</ele><time>2026-03-29T11:18:59Z</time></trkpt><trkpt lat="14.578534260589374" lon="120.99811938579764"><ele>6.0</ele><time>2026-03-29T11:19:00Z</time></trkpt><trkpt lat="14.578467782061349" lon="120.99806808723248"><ele>6.0</ele><time>2026-03-29T11:19:01Z</time></trkpt><trkpt lat="14.578406878364891" lon="120.99801247338911"><ele>6.0</ele><time>2026-03-29T11:19:02Z</time></trkpt><trkpt lat="14.578340476917878" lon="120.99795719377919"><ele>6.0</ele><time>2026-03-29T11:19:03Z</time></trkpt><trkpt lat="14.578279375582486" lon="120.99790836914511"><ele>6.0</ele><time>2026-03-29T11:19:04Z</time></trkpt><trkpt lat="14.578219008372868" lon="120.9978609150328"><ele>6.0</ele><time>2026-03-29T11:19:05Z</time></trkpt><trkpt lat="14.578158836302357" lon="120.99781432371196"><ele>6.0</ele><time>2026-03-29T11:19:06Z</time></trkpt><trkpt lat="14.578092470661694" lon="120.99776451562829"><ele>6.0</ele><time>2026-03-29T11:19:07Z</time></trkpt><trkpt lat="14.578032487070933" lon="120.99771801752784"><ele>6.0</ele><time>2026-03-29T11:19:08Z</time></trkpt><trkpt lat="14.577924200870592" lon="120.99763892777786"><ele>6.0</ele><time>2026-03-29T11:19:10Z</time></trkpt><trkpt lat="14.57783718645758" lon="120.99756227800455"><ele>6.0</ele><time>2026-03-29T11:19:12Z</time></trkpt><trkpt lat="14.57777536927928" lon="120.99751331727518"><ele>5.8</ele><time>2026-03-29T11:19:14Z</time></trkpt><trkpt lat="14.577717860546082" lon="120.99746432358752"><ele>5.6</ele><time>2026-03-29T11:19:17Z</time></trkpt><trkpt lat="14.577638139894171" lon="120.99740273178519"><ele>5.4</ele><time>2026-03-29T11:19:20Z</time></trkpt><trkpt lat="14.577560319679495" lon="120.99734211605386"><ele>5.2</ele><time>2026-03-29T11:19:22Z</time></trkpt><trkpt lat="14.57746273511221" lon="120.9972666906231"><ele>5.0</ele><time>2026-03-29T11:19:24Z</time></trkpt><trkpt lat="14.577403072688282" lon="120.99722313843684"><ele>5.0</ele><time>2026-03-29T11:19:25Z</time></trkpt><trkpt lat="14.577343452483039" lon="120.99717653418178"><ele>5.0</ele><time>2026-03-29T11:19:26Z</time></trkpt><trkpt lat="14.57728563785679" lon="120.9971304178425"><ele>5.0</ele><time>2026-03-29T11:19:27Z</time></trkpt><trkpt lat="14.57722440366149" lon="120.9970779257696"><ele>5.0</ele><time>2026-03-29T11:19:28Z</time></trkpt><trkpt lat="14.577159145705641" lon="120.9970233794937"><ele>5.0</ele><time>2026-03-29T11:19:29Z</time></trkpt><trkpt lat="14.577092938892859" lon="120.99696816759442"><ele>5.0</ele><time>2026-03-29T11:19:30Z</time></trkpt><trkpt lat="14.5770240470326" lon="120.99691115798937"><ele>5.6</ele><time>2026-03-29T11:19:31Z</time></trkpt><trkpt lat="14.576950025224184" lon="120.99685135923458"><ele>6.2</ele><time>2026-03-29T11:19:32Z</time></trkpt><trkpt lat="14.576871822214086" lon="120.99678989694696"><ele>6.800000000000001</ele><time>2026-03-29T11:19:33Z</time></trkpt><trkpt lat="14.576790278035554" lon="120.9967241299745"><ele>7.4</ele><time>2026-03-29T11:19:34Z</time></trkpt><trkpt lat="14.576704661303355" lon="120.99665875554705"><ele>8.0</ele><time>2026-03-29T11:19:35Z</time></trkpt><trkpt lat="14.57661874294125" lon="120.99659060771698"><ele>8.4</ele><time>2026-03-29T11:19:36Z</time></trkpt><trkpt lat="14.57653227142928" lon="120.99652042254907"><ele>8.8</ele><time>2026-03-29T11:19:37Z</time></trkpt><trkpt lat="14.576445598833182" lon="120.99644877333284"><ele>9.2</ele><time>2026-03-29T11:19:38Z</time></trkpt><trkpt lat="14.576359939285942" lon="120.99637769037278"><ele>9.6</ele><time>2026-03-29T11:19:39Z</time></trkpt><trkpt lat="14.576274462166213" lon="120.99630717832208"><ele>10.0</ele><time>2026-03-29T11:19:40Z</time></trkpt><trkpt lat="14.576187407715988" lon="120.99623508425364"><ele>9.6</ele><time>2026-03-29T11:19:41Z</time></trkpt><trkpt lat="14.57609788574699" lon="120.99616132704121"><ele>9.2</ele><time>2026-03-29T11:19:42Z</time></trkpt><trkpt lat="14.576021588814953" lon="120.99610456141285"><ele>8.8</ele><time>2026-03-29T11:19:43Z</time></trkpt><trkpt lat="14.575924723644736" lon="120.99602954865186"><ele>8.4</ele><time>2026-03-29T11:19:44Z</time></trkpt><trkpt lat="14.575841761997458" lon="120.99595375428204"><ele>8.0</ele><time>2026-03-29T11:19:45Z</time></trkpt><trkpt lat="14.575756170714767" lon="120.99588675214017"><ele>7.2</ele><time>2026-03-29T11:19:46Z</time></trkpt><trkpt lat="14.575676908349081" lon="120.9958221784742"><ele>6.4</ele><time>2026-03-29T11:19:47Z</time></trkpt><trkpt lat="14.575601732721033" lon="120.99575946021955"><ele>5.6000000000000005</ele><time>2026-03-29T11:19:48Z</time></trkpt><trkpt lat="14.575526103971562" lon="120.99569733165328"><ele>4.800000000000001</ele><time>2026-03-29T11:19:49Z</time></trkpt><trkpt lat="14.575452320516211" lon="120.99563705544081"><ele>4.0</ele><time>2026-03-29T11:19:50Z</time></trkpt><trkpt lat="14.575376877968356" lon="120.99557280101376"><ele>4.0</ele><time>2026-03-29T11:19:51Z</time></trkpt><trkpt lat="14.575300384873989" lon="120.99550686325584"><ele>4.0</ele><time>2026-03-29T11:19:52Z</time></trkpt><trkpt lat="14.575225667879266" lon="120.99544129616922"><ele>4.0</ele><time>2026-03-29T11:19:53Z</time></trkpt><trkpt lat="14.575149377586" lon="120.99537498298288"><ele>4.0</ele><time>2026-03-29T11:19:54Z</time></trkpt><trkpt lat="14.575073044332298" lon="120.99531075932389"><ele>4.0</ele><time>2026-03-29T11:19:55Z</time></trkpt><trkpt lat="14.574994598041517" lon="120.99524427019644"><ele>4.0</ele><time>2026-03-29T11:19:56Z</time></trkpt><trkpt lat="14.574916121080108" lon="120.9951780532737"><ele>4.0</ele><time>2026-03-29T11:19:57Z</time></trkpt><trkpt lat="14.57483776170808" lon="120.99511157682566"><ele>4.0</ele><time>2026-03-29T11:19:58Z</time></trkpt><trkpt lat="14.574761311990914" lon="120.99504612279873"><ele>4.0</ele><time>2026-03-29T11:19:59Z</time></trkpt><trkpt lat="14.57468661975054" lon="120.99498923387131"><ele>4.0</ele><time>2026-03-29T11:20:00Z</time></trkpt><trkpt lat="14.574614562644939" lon="120.99493511577484"><ele>4.4</ele><time>2026-03-29T11:20:01Z</time></trkpt><trkpt lat="14.57454499156761" lon="120.99488017802024"><ele>4.800000000000001</ele><time>2026-03-29T11:20:02Z</time></trkpt><trkpt lat="14.574467380334253" lon="120.99481584914686"><ele>5.199999999999999</ele><time>2026-03-29T11:20:03Z</time></trkpt><trkpt lat="14.574405610181147" lon="120.99476215646337"><ele>5.6</ele><time>2026-03-29T11:20:04Z</time></trkpt><trkpt lat="14.57433900628194" lon="120.99470859404062"><ele>6.0</ele><time>2026-03-29T11:20:05Z</time></trkpt><trkpt lat="14.574261822530387" lon="120.99463820983432"><ele>6.0</ele><time>2026-03-29T11:20:06Z</time></trkpt><trkpt lat="14.574172168446102" lon="120.99457726383488"><ele>6.0</ele><time>2026-03-29T11:20:08Z</time></trkpt><trkpt lat="14.574107525444152" lon="120.99451956633024"><ele>6.0</ele><time>2026-03-29T11:20:09Z</time></trkpt><trkpt lat="14.574042256941393" lon="120.99446031643214"><ele>6.0</ele><time>2026-03-29T11:20:10Z</time></trkpt><trkpt lat="14.573955130915726" lon="120.99438944592896"><ele>6.0</ele><time>2026-03-29T11:20:11Z</time></trkpt><trkpt lat="14.573873673082945" lon="120.99431758705842"><ele>6.0</ele><time>2026-03-29T11:20:12Z</time></trkpt><trkpt lat="14.573787536955491" lon="120.99424717595157"><ele>6.0</ele><time>2026-03-29T11:20:13Z</time></trkpt><trkpt lat="14.57371140500632" lon="120.994185742473"><ele>6.0</ele><time>2026-03-29T11:20:14Z</time></trkpt><trkpt lat="14.573636023169245" lon="120.99412662375622"><ele>6.0</ele><time>2026-03-29T11:20:15Z</time></trkpt><trkpt lat="14.573564449503836" lon="120.99406787431184"><ele>6.0</ele><time>2026-03-29T11:20:16Z</time></trkpt><trkpt lat="14.573495012171747" lon="120.99401070985712"><ele>6.166666666666667</ele><time>2026-03-29T11:20:17Z</time></trkpt><trkpt lat="14.573426663799978" lon="120.99395627591238"><ele>6.333333333333334</ele><time>2026-03-29T11:20:18Z</time></trkpt><trkpt lat="14.573359149627677" lon="120.99390362721351"><ele>6.5</ele><time>2026-03-29T11:20:19Z</time></trkpt><trkpt lat="14.57329177296175" lon="120.99385154041883"><ele>6.666666666666667</ele><time>2026-03-29T11:20:20Z</time></trkpt><trkpt lat="14.573225861629236" lon="120.99380065107722"><ele>6.833333333333334</ele><time>2026-03-29T11:20:21Z</time></trkpt><trkpt lat="14.57316182892415" lon="120.99374946186842"><ele>7.0</ele><time>2026-03-29T11:20:22Z</time></trkpt><trkpt lat="14.573096365247512" lon="120.99369863684495"><ele>7.000000000000001</ele><time>2026-03-29T11:20:23Z</time></trkpt><trkpt lat="14.57302989782841" lon="120.99364961223594"><ele>7.0</ele><time>2026-03-29T11:20:24Z</time></trkpt><trkpt lat="14.572969000931476" lon="120.99360385959805"><ele>7.0</ele><time>2026-03-29T11:20:25Z</time></trkpt><trkpt lat="14.572908778007106" lon="120.99355979689358"><ele>7.0</ele><time>2026-03-29T11:20:26Z</time></trkpt><trkpt lat="14.572847229681162" lon="120.99351617133375"><ele>7.000000000000001</ele><time>2026-03-29T11:20:27Z</time></trkpt><trkpt lat="14.572784912545908" lon="120.99347141152606"><ele>7.0</ele><time>2026-03-29T11:20:28Z</time></trkpt><trkpt lat="14.572725475324017" lon="120.99342633773021"><ele>7.000000000000001</ele><time>2026-03-29T11:20:29Z</time></trkpt><trkpt lat="14.572664193181867" lon="120.9933786352785"><ele>7.0</ele><time>2026-03-29T11:20:30Z</time></trkpt><trkpt lat="14.572605325771864" lon="120.99333280468049"><ele>7.0</ele><time>2026-03-29T11:20:31Z</time></trkpt><trkpt lat="14.572549797280933" lon="120.99328837181903"><ele>7.0</ele><time>2026-03-29T11:20:32Z</time></trkpt><trkpt lat="14.572498303597072" lon="120.9932479102116"><ele>7.000000000000001</ele><time>2026-03-29T11:20:33Z</time></trkpt><trkpt lat="14.572399894747049" lon="120.99316909520526"><ele>7.0</ele><time>2026-03-29T11:20:35Z</time></trkpt><trkpt lat="14.572303892206051" lon="120.99309168176742"><ele>7.0</ele><time>2026-03-29T11:20:37Z</time></trkpt><trkpt lat="14.572251120298327" lon="120.99305121935633"><ele>6.999999999999999</ele><time>2026-03-29T11:20:38Z</time></trkpt><trkpt lat="14.57215187504963" lon="120.99297333400634"><ele>6.999999999999999</ele><time>2026-03-29T11:20:40Z</time></trkpt><trkpt lat="14.572054822243153" lon="120.99289645343039"><ele>7.0</ele><time>2026-03-29T11:20:42Z</time></trkpt><trkpt lat="14.57196266024599" lon="120.99282366809358"><ele>7.0</ele><time>2026-03-29T11:20:44Z</time></trkpt><trkpt lat="14.571876811636027" lon="120.99275494832995"><ele>6.833333333333334</ele><time>2026-03-29T11:20:46Z</time></trkpt><trkpt lat="14.571788995656826" lon="120.99269087468038"><ele>6.666666666666667</ele><time>2026-03-29T11:20:48Z</time></trkpt><trkpt lat="14.571691035029012" lon="120.99262109632784"><ele>6.5</ele><time>2026-03-29T11:20:50Z</time></trkpt><trkpt lat="14.571637789622445" lon="120.99258058871773"><ele>6.333333333333334</ele><time>2026-03-29T11:20:51Z</time></trkpt><trkpt lat="14.571583337611093" lon="120.99253375104206"><ele>6.166666666666667</ele><time>2026-03-29T11:20:52Z</time></trkpt><trkpt lat="14.571531426940162" lon="120.99248765909805"><ele>6.0</ele><time>2026-03-29T11:20:53Z</time></trkpt><trkpt lat="14.571479165695042" lon="120.99244108060216"><ele>6.166666666666667</ele><time>2026-03-29T11:20:54Z</time></trkpt><trkpt lat="14.571429519296569" lon="120.99239538804028"><ele>6.333333333333334</ele><time>2026-03-29T11:20:55Z</time></trkpt><trkpt lat="14.57134738664926" lon="120.99231975823817"><ele>6.5</ele><time>2026-03-29T11:20:57Z</time></trkpt><trkpt lat="14.571291905199363" lon="120.99226243252538"><ele>6.666666666666667</ele><time>2026-03-29T11:20:59Z</time></trkpt><trkpt lat="14.571239343444189" lon="120.99221744854904"><ele>6.833333333333334</ele><time>2026-03-29T11:21:03Z</time></trkpt><trkpt lat="14.571199375035489" lon="120.99216550290998"><ele>7.0</ele><time>2026-03-29T11:21:58Z</time></trkpt><trkpt lat="14.571119760722947" lon="120.99210172063938"><ele>7.000000000000001</ele><time>2026-03-29T11:22:01Z</time></trkpt><trkpt lat="14.57106651015578" lon="120.99205024174839"><ele>7.0</ele><time>2026-03-29T11:22:04Z</time></trkpt><trkpt lat="14.571112196898639" lon="120.99199462976277"><ele>7.0</ele><time>2026-03-29T11:22:13Z</time></trkpt><trkpt lat="14.571114974078307" lon="120.99192553103838"><ele>7.0</ele><time>2026-03-29T11:22:16Z</time></trkpt><trkpt lat="14.571173960760614" lon="120.99188094784502"><ele>7.000000000000001</ele><time>2026-03-29T11:22:23Z</time></trkpt><trkpt lat="14.571224087109439" lon="120.99192336206663"><ele>7.0</ele><time>2026-03-29T11:22:32Z</time></trkpt><trkpt lat="14.571106395916896" lon="120.99192209364305"><ele>7.0</ele><time>2026-03-29T11:22:35Z</time></trkpt><trkpt lat="14.57101921418133" lon="120.99183301092057"><ele>7.0</ele><time>2026-03-29T11:22:54Z</time></trkpt><trkpt lat="14.571108303127263" lon="120.99193479108942"><ele>7.0</ele><time>2026-03-29T11:24:47Z</time></trkpt><trkpt lat="14.571236463867494" lon="120.99190166920032"><ele>7.0</ele><time>2026-03-29T11:24:51Z</time></trkpt><trkpt lat="14.571139737430787" lon="120.99198011785627"><ele>7.0</ele><time>2026-03-29T11:26:24Z</time></trkpt><trkpt lat="14.57104207624159" lon="120.99180035741672"><ele>7.0</ele><time>2026-03-29T11:27:57Z</time></trkpt><trkpt lat="14.57124419549311" lon="120.99192154797542"><ele>7.0</ele><time>2026-03-29T11:28:05Z</time></trkpt><trkpt lat="14.571019618550253" lon="120.99178689180106"><ele>7.0</ele><time>2026-03-29T11:28:08Z</time></trkpt><trkpt lat="14.57124419549311" lon="120.99192154797542"><ele>7.0</ele><time>2026-03-29T11:28:11Z</time></trkpt><trkpt lat="14.57101961857664" lon="120.99178689181687"><ele>7.0</ele><time>2026-03-29T11:28:16Z</time></trkpt><trkpt lat="14.57124419549311" lon="120.99192154797542"><ele>7.0</ele><time>2026-03-29T11:28:25Z</time></trkpt><trkpt lat="14.571019618549247" lon="120.99178689180044"><ele>7.0</ele><time>2026-03-29T11:28:31Z</time></trkpt><trkpt lat="14.57124419549311" lon="120.99192154797542"><ele>7.0</ele><time>2026-03-29T11:29:27Z</time></trkpt><trkpt lat="14.571019618546746" lon="120.99178689179895"><ele>7.0</ele><time>2026-03-29T11:29:30Z</time></trkpt><trkpt lat="14.57124419549311" lon="120.99192154797542"><ele>7.0</ele><time>2026-03-29T11:29:46Z</time></trkpt><trkpt lat="14.571019618548183" lon="120.9917868917998"><ele>7.0</ele><time>2026-03-29T11:29:49Z</time></trkpt><trkpt lat="14.57124419549311" lon="120.99192154797542"><ele>7.0</ele><time>2026-03-29T11:29:51Z</time></trkpt><trkpt lat="14.571019618547538" lon="120.99178689179942"><ele>7.0</ele><time>2026-03-29T11:29:55Z</time></trkpt><trkpt lat="14.57124419549311" lon="120.99192154797542"><ele>7.0</ele><time>2026-03-29T11:30:01Z</time></trkpt><trkpt lat="14.571019618559891" lon="120.99178689180683"><ele>7.0</ele><time>2026-03-29T11:30:05Z</time></trkpt><trkpt lat="14.57124419549311" lon="120.99192154797542"><ele>7.0</ele><time>2026-03-29T11:30:21Z</time></trkpt><trkpt lat="14.571019618546831" lon="120.991786891799"><ele>7.0</ele><time>2026-03-29T11:30:24Z</time></trkpt><trkpt lat="14.57124419549311" lon="120.99192154797542"><ele>7.0</ele><time>2026-03-29T11:30:49Z</time></trkpt><trkpt lat="14.571019618548869" lon="120.99178689180022"><ele>7.0</ele><time>2026-03-29T11:30:57Z</time></trkpt><trkpt lat="14.57124419549311" lon="120.99192154797542"><ele>7.0</ele><time>2026-03-29T11:31:10Z</time></trkpt><trkpt lat="14.57101961854672" lon="120.99178689179894"><ele>7.0</ele><time>2026-03-29T11:31:13Z</time></trkpt><trkpt lat="14.57124419549311" lon="120.99192154797542"><ele>7.0</ele><time>2026-03-29T11:31:26Z</time></trkpt><trkpt lat="14.571019618552056" lon="120.99178689180214"><ele>7.0</ele><time>2026-03-29T11:31:29Z</time></trkpt><trkpt lat="14.57124419549311" lon="120.99192154797542"><ele>7.0</ele><time>2026-03-29T11:31:31Z</time></trkpt><trkpt lat="14.571128131291783" lon="120.99198662544566"><ele>7.0</ele><time>2026-03-29T11:31:35Z</time></trkpt><trkpt lat="14.57101133164101" lon="120.99187232286296"><ele>7.0</ele><time>2026-03-29T11:34:20Z</time></trkpt><trkpt lat="14.571019618576079" lon="120.99178689181653"><ele>7.0</ele><time>2026-03-29T11:34:21Z</time></trkpt><trkpt lat="14.57124419549311" lon="120.99192154797542"><ele>7.0</ele><time>2026-03-29T11:34:29Z</time></trkpt><trkpt lat="14.57101961854814" lon="120.99178689179978"><ele>7.25</ele><time>2026-03-29T11:34:45Z</time></trkpt><trkpt lat="14.57124419549311" lon="120.99192154797542"><ele>7.5</ele><time>2026-03-29T11:34:51Z</time></trkpt><trkpt lat="14.571252806346672" lon="120.99185692887939"><ele>7.75</ele><time>2026-03-29T11:36:36Z</time></trkpt><trkpt lat="14.571300524894191" lon="120.99180383869819"><ele>8.0</ele><time>2026-03-29T11:36:41Z</time></trkpt><trkpt lat="14.571261307974193" lon="120.99173997468112"><ele>8.166666666666666</ele><time>2026-03-29T11:36:45Z</time></trkpt><trkpt lat="14.571252712774927" lon="120.99166291946425"><ele>8.333333333333332</ele><time>2026-03-29T11:36:48Z</time></trkpt><trkpt lat="14.571237917704059" lon="120.99156416960867"><ele>8.5</ele><time>2026-03-29T11:36:52Z</time></trkpt><trkpt lat="14.571168959230238" lon="120.99162584498724"><ele>8.666666666666666</ele><time>2026-03-29T11:36:55Z</time></trkpt><trkpt lat="14.571102326103379" lon="120.99165671735341"><ele>8.833333333333334</ele><time>2026-03-29T11:36:59Z</time></trkpt><trkpt lat="14.57104520700992" lon="120.99169633829361"><ele>9.0</ele><time>2026-03-29T11:37:02Z</time></trkpt><trkpt lat="14.571010444702816" lon="120.99177279128408"><ele>8.666666666666666</ele><time>2026-03-29T11:37:06Z</time></trkpt><trkpt lat="14.57098842331857" lon="120.99184883215196"><ele>8.333333333333334</ele><time>2026-03-29T11:37:09Z</time></trkpt><trkpt lat="14.570924290168001" lon="120.99189566500243"><ele>8.0</ele><time>2026-03-29T11:37:12Z</time></trkpt><trkpt lat="14.570865406401326" lon="120.99195557956433"><ele>7.666666666666667</ele><time>2026-03-29T11:37:18Z</time></trkpt><trkpt lat="14.570808684486263" lon="120.99200163571206"><ele>7.333333333333334</ele><time>2026-03-29T11:37:22Z</time></trkpt><trkpt lat="14.570761184085335" lon="120.9919027806548"><ele>7.0</ele><time>2026-03-29T11:37:25Z</time></trkpt><trkpt lat="14.57069540682896" lon="120.99184965546748"><ele>7.000000000000001</ele><time>2026-03-29T11:38:13Z</time></trkpt><trkpt lat="14.57063263379322" lon="120.99179895646873"><ele>7.0</ele><time>2026-03-29T11:38:15Z</time></trkpt><trkpt lat="14.570559409964334" lon="120.99174379597063"><ele>7.0</ele><time>2026-03-29T11:38:17Z</time></trkpt><trkpt lat="14.570480744602804" lon="120.99168311463961"><ele>7.0</ele><time>2026-03-29T11:38:19Z</time></trkpt><trkpt lat="14.570409587990735" lon="120.99162605446026"><ele>7.000000000000001</ele><time>2026-03-29T11:38:21Z</time></trkpt><trkpt lat="14.570341428305927" lon="120.9915709953705"><ele>7.0</ele><time>2026-03-29T11:38:23Z</time></trkpt><trkpt lat="14.57027580321221" lon="120.99151860975572"><ele>7.5</ele><time>2026-03-29T11:38:25Z</time></trkpt><trkpt lat="14.570108613716963" lon="120.99161273892338"><ele>8.0</ele><time>2026-03-29T11:38:27Z</time></trkpt><trkpt lat="14.569999272507587" lon="120.99163033080833"><ele>8.5</ele><time>2026-03-29T11:38:29Z</time></trkpt><trkpt lat="14.569925329695861" lon="120.9916704363819"><ele>9.0</ele><time>2026-03-29T11:38:30Z</time></trkpt><trkpt lat="14.5698464806856" lon="120.99170014209521"><ele>9.0</ele><time>2026-03-29T11:38:31Z</time></trkpt><trkpt lat="14.56977742880158" lon="120.99174830193428"><ele>9.0</ele><time>2026-03-29T11:38:32Z</time></trkpt><trkpt lat="14.569703909553505" lon="120.99179571168389"><ele>9.0</ele><time>2026-03-29T11:38:33Z</time></trkpt><trkpt lat="14.569625620390081" lon="120.9918304620727"><ele>9.0</ele><time>2026-03-29T11:38:34Z</time></trkpt><trkpt lat="14.569549182512057" lon="120.99186972627741"><ele>9.0</ele><time>2026-03-29T11:38:35Z</time></trkpt><trkpt lat="14.569467065536447" lon="120.99191000197968"><ele>9.0</ele><time>2026-03-29T11:38:36Z</time></trkpt><trkpt lat="14.569387238062848" lon="120.99194594213557"><ele>8.8</ele><time>2026-03-29T11:38:37Z</time></trkpt><trkpt lat="14.569307011809391" lon="120.9919872913388"><ele>8.600000000000001</ele><time>2026-03-29T11:38:38Z</time></trkpt><trkpt lat="14.569224034374068" lon="120.99202800466647"><ele>8.4</ele><time>2026-03-29T11:38:39Z</time></trkpt><trkpt lat="14.569140043198828" lon="120.99206631457506"><ele>8.200000000000001</ele><time>2026-03-29T11:38:40Z</time></trkpt><trkpt lat="14.569053178615153" lon="120.99210648496661"><ele>8.0</ele><time>2026-03-29T11:38:41Z</time></trkpt><trkpt lat="14.568965960349484" lon="120.99214723341431"><ele>7.999999999999999</ele><time>2026-03-29T11:38:42Z</time></trkpt><trkpt lat="14.568881428304044" lon="120.99218653028449"><ele>8.0</ele><time>2026-03-29T11:38:43Z</time></trkpt><trkpt lat="14.56879958279276" lon="120.99223002606732"><ele>8.0</ele><time>2026-03-29T11:38:44Z</time></trkpt><trkpt lat="14.568720630598868" lon="120.9922702589573"><ele>8.0</ele><time>2026-03-29T11:38:45Z</time></trkpt><trkpt lat="14.568638987658215" lon="120.9923025513039"><ele>7.999999999999999</ele><time>2026-03-29T11:38:46Z</time></trkpt><trkpt lat="14.568563618795903" lon="120.99234087791616"><ele>8.0</ele><time>2026-03-29T11:38:47Z</time></trkpt><trkpt lat="14.56849006609434" lon="120.99237398158785"><ele>7.999999999999999</ele><time>2026-03-29T11:38:48Z</time></trkpt><trkpt lat="14.568419148730223" lon="120.9924071944783"><ele>8.0</ele><time>2026-03-29T11:38:49Z</time></trkpt><trkpt lat="14.56834312573544" lon="120.99243782351174"><ele>8.0</ele><time>2026-03-29T11:38:50Z</time></trkpt><trkpt lat="14.568271076438641" lon="120.99247674861476"><ele>8.0</ele><time>2026-03-29T11:38:51Z</time></trkpt><trkpt lat="14.568194927756748" lon="120.99250859427305"><ele>7.999999999999999</ele><time>2026-03-29T11:38:52Z</time></trkpt><trkpt lat="14.568110512575933" lon="120.99254481832338"><ele>8.0</ele><time>2026-03-29T11:38:53Z</time></trkpt><trkpt lat="14.5680257392539" lon="120.99257925917699"><ele>7.999999999999999</ele><time>2026-03-29T11:38:54Z</time></trkpt><trkpt lat="14.567943003067835" lon="120.99261489962075"><ele>8.0</ele><time>2026-03-29T11:38:55Z</time></trkpt><trkpt lat="14.567860562020044" lon="120.99264910786039"><ele>8.0</ele><time>2026-03-29T11:38:56Z</time></trkpt><trkpt lat="14.567780055175337" lon="120.9926892082049"><ele>8.0</ele><time>2026-03-29T11:38:57Z</time></trkpt><trkpt lat="14.56769976740983" lon="120.99272660956129"><ele>7.999999999999999</ele><time>2026-03-29T11:38:58Z</time></trkpt><trkpt lat="14.5676168681598" lon="120.99276459149671"><ele>8.0</ele><time>2026-03-29T11:38:59Z</time></trkpt><trkpt lat="14.56753525017939" lon="120.99279637661888"><ele>8.833333333333332</ele><time>2026-03-29T11:39:00Z</time></trkpt><trkpt lat="14.567452001605806" lon="120.99282709043868"><ele>9.666666666666666</ele><time>2026-03-29T11:39:01Z</time></trkpt><trkpt lat="14.56736977466211" lon="120.99286006043504"><ele>10.5</ele><time>2026-03-29T11:39:02Z</time></trkpt><trkpt lat="14.567300142792092" lon="120.99289300718003"><ele>11.333333333333332</ele><time>2026-03-29T11:39:03Z</time></trkpt><trkpt lat="14.567218866416601" lon="120.99292694300568"><ele>12.166666666666666</ele><time>2026-03-29T11:39:04Z</time></trkpt><trkpt lat="14.567139923832526" lon="120.99296293455787"><ele>13.0</ele><time>2026-03-29T11:39:05Z</time></trkpt><trkpt lat="14.567061977793156" lon="120.99299613033699"><ele>12.499999999999998</ele><time>2026-03-29T11:39:06Z</time></trkpt><trkpt lat="14.566991533906961" lon="120.99302720572611"><ele>12.0</ele><time>2026-03-29T11:39:07Z</time></trkpt><trkpt lat="14.5669361295706" lon="120.99306385207775"><ele>11.5</ele><time>2026-03-29T11:39:08Z</time></trkpt><trkpt lat="14.566863808082244" lon="120.99309157522643"><ele>11.0</ele><time>2026-03-29T11:39:09Z</time></trkpt><trkpt lat="14.56678251458952" lon="120.99312334784682"><ele>10.5</ele><time>2026-03-29T11:39:10Z</time></trkpt><trkpt lat="14.56671320629117" lon="120.99314783067568"><ele>10.0</ele><time>2026-03-29T11:39:11Z</time></trkpt><trkpt lat="14.566643540269498" lon="120.99317363952801"><ele>10.0</ele><time>2026-03-29T11:39:12Z</time></trkpt><trkpt lat="14.566572932441622" lon="120.99319568779642"><ele>10.0</ele><time>2026-03-29T11:39:13Z</time></trkpt><trkpt lat="14.566504989124727" lon="120.99322490581297"><ele>10.0</ele><time>2026-03-29T11:39:14Z</time></trkpt><trkpt lat="14.566435474051135" lon="120.99325779316419"><ele>10.0</ele><time>2026-03-29T11:39:15Z</time></trkpt><trkpt lat="14.566363521325629" lon="120.99328927947091"><ele>10.0</ele><time>2026-03-29T11:39:16Z</time></trkpt><trkpt lat="14.566290632062707" lon="120.99335322067233"><ele>10.0</ele><time>2026-03-29T11:39:17Z</time></trkpt><trkpt lat="14.566208066656671" lon="120.99340254167358"><ele>9.8</ele><time>2026-03-29T11:39:18Z</time></trkpt><trkpt lat="14.566126029817594" lon="120.99344198186783"><ele>9.6</ele><time>2026-03-29T11:39:19Z</time></trkpt><trkpt lat="14.566030793631942" lon="120.99348552716314"><ele>9.4</ele><time>2026-03-29T11:39:20Z</time></trkpt><trkpt lat="14.565942217164336" lon="120.99353238761161"><ele>9.2</ele><time>2026-03-29T11:39:21Z</time></trkpt><trkpt lat="14.565855708438594" lon="120.99357053428345"><ele>9.0</ele><time>2026-03-29T11:39:22Z</time></trkpt><trkpt lat="14.565768475895712" lon="120.99361441919716"><ele>9.0</ele><time>2026-03-29T11:39:23Z</time></trkpt><trkpt lat="14.565683524923102" lon="120.99364935333976"><ele>9.0</ele><time>2026-03-29T11:39:24Z</time></trkpt><trkpt lat="14.565613084520658" lon="120.99368165898183"><ele>9.0</ele><time>2026-03-29T11:39:25Z</time></trkpt><trkpt lat="14.56554222332668" lon="120.9937105306718"><ele>9.0</ele><time>2026-03-29T11:39:26Z</time></trkpt><trkpt lat="14.565482961750355" lon="120.99374663717444"><ele>9.0</ele><time>2026-03-29T11:39:27Z</time></trkpt><trkpt lat="14.565423677757266" lon="120.99377446984809"><ele>9.0</ele><time>2026-03-29T11:39:28Z</time></trkpt><trkpt lat="14.565325722820466" lon="120.99382614006424"><ele>9.166666666666666</ele><time>2026-03-29T11:39:30Z</time></trkpt><trkpt lat="14.565261639979829" lon="120.99385629468306"><ele>9.333333333333334</ele><time>2026-03-29T11:39:33Z</time></trkpt><trkpt lat="14.565183144637354" lon="120.9938830463377"><ele>9.5</ele><time>2026-03-29T11:40:06Z</time></trkpt><trkpt lat="14.565109351791143" lon="120.99391657080969"><ele>9.666666666666668</ele><time>2026-03-29T11:40:08Z</time></trkpt><trkpt lat="14.565008381869902" lon="120.99396508316933"><ele>9.833333333333334</ele><time>2026-03-29T11:40:10Z</time></trkpt><trkpt lat="14.564950643220364" lon="120.99399229728203"><ele>10.0</ele><time>2026-03-29T11:40:11Z</time></trkpt><trkpt lat="14.564889997030916" lon="120.99402007170018"><ele>10.0</ele><time>2026-03-29T11:40:12Z</time></trkpt><trkpt lat="14.564828025085427" lon="120.99404977202903"><ele>10.0</ele><time>2026-03-29T11:40:13Z</time></trkpt><trkpt lat="14.564765757761682" lon="120.99408037780225"><ele>10.0</ele><time>2026-03-29T11:40:14Z</time></trkpt><trkpt lat="14.564706890252703" lon="120.99411364217964"><ele>10.0</ele><time>2026-03-29T11:40:15Z</time></trkpt><trkpt lat="14.5645922668383" lon="120.99416571728717"><ele>10.0</ele><time>2026-03-29T11:40:17Z</time></trkpt><trkpt lat="14.564534335532212" lon="120.99419328697849"><ele>10.0</ele><time>2026-03-29T11:40:18Z</time></trkpt><trkpt lat="14.564477215201707" lon="120.99422156474942"><ele>10.833333333333334</ele><time>2026-03-29T11:40:19Z</time></trkpt><trkpt lat="14.564367809937945" lon="120.9942801853417"><ele>11.666666666666668</ele><time>2026-03-29T11:40:21Z</time></trkpt><trkpt lat="14.564306783140166" lon="120.9943079602196"><ele>12.5</ele><time>2026-03-29T11:40:22Z</time></trkpt><trkpt lat="14.564244113443328" lon="120.99433667292656"><ele>13.333333333333334</ele><time>2026-03-29T11:40:23Z</time></trkpt><trkpt lat="14.564180952343023" lon="120.99436545359991"><ele>14.166666666666666</ele><time>2026-03-29T11:40:24Z</time></trkpt><trkpt lat="14.564116018307661" lon="120.9943951121613"><ele>15.0</ele><time>2026-03-29T11:40:25Z</time></trkpt><trkpt lat="14.564052587589414" lon="120.99442350747908"><ele>15.0</ele><time>2026-03-29T11:40:26Z</time></trkpt><trkpt lat="14.563987853653316" lon="120.99445455255834"><ele>15.0</ele><time>2026-03-29T11:40:27Z</time></trkpt><trkpt lat="14.563922282774898" lon="120.99448526418173"><ele>15.0</ele><time>2026-03-29T11:40:28Z</time></trkpt><trkpt lat="14.563859701676403" lon="120.99451480482986"><ele>15.0</ele><time>2026-03-29T11:40:29Z</time></trkpt><trkpt lat="14.563799348143679" lon="120.99454379066246"><ele>15.0</ele><time>2026-03-29T11:40:30Z</time></trkpt><trkpt lat="14.563740153260316" lon="120.99457022975407"><ele>15.0</ele><time>2026-03-29T11:40:31Z</time></trkpt><trkpt lat="14.56363312727367" lon="120.99461978385902"><ele>14.25</ele><time>2026-03-29T11:40:33Z</time></trkpt><trkpt lat="14.563529429235759" lon="120.99466844888492"><ele>13.5</ele><time>2026-03-29T11:40:35Z</time></trkpt><trkpt lat="14.563425795963058" lon="120.99472141524065"><ele>12.75</ele><time>2026-03-29T11:40:37Z</time></trkpt><trkpt lat="14.563317426781538" lon="120.99477000250273"><ele>12.0</ele><time>2026-03-29T11:40:39Z</time></trkpt><trkpt lat="14.563212180327595" lon="120.99481769975236"><ele>12.0</ele><time>2026-03-29T11:40:41Z</time></trkpt><trkpt lat="14.563106945554168" lon="120.9948655717396"><ele>12.0</ele><time>2026-03-29T11:40:43Z</time></trkpt><trkpt lat="14.563052027925268" lon="120.99489964844652"><ele>12.0</ele><time>2026-03-29T11:40:44Z</time></trkpt><trkpt lat="14.562952661952638" lon="120.9949499617627"><ele>12.0</ele><time>2026-03-29T11:40:46Z</time></trkpt><trkpt lat="14.562881684773396" lon="120.99497904794538"><ele>12.0</ele><time>2026-03-29T11:40:48Z</time></trkpt><trkpt lat="14.562813175207163" lon="120.99501334256307"><ele>12.0</ele><time>2026-03-29T11:40:51Z</time></trkpt><trkpt lat="14.562750134604386" lon="120.99500762188376"><ele>11.6</ele><time>2026-03-29T11:41:38Z</time></trkpt><trkpt lat="14.562663405524424" lon="120.99506376449688"><ele>11.2</ele><time>2026-03-29T11:41:42Z</time></trkpt><trkpt lat="14.562608083487978" lon="120.99509501296956"><ele>10.8</ele><time>2026-03-29T11:41:44Z</time></trkpt><trkpt lat="14.562556320279386" lon="120.9951540516909"><ele>10.4</ele><time>2026-03-29T11:41:48Z</time></trkpt><trkpt lat="14.562578196898459" lon="120.99524260853326"><ele>10.0</ele><time>2026-03-29T11:41:49Z</time></trkpt><trkpt lat="14.56267855647859" lon="120.9953107106842"><ele>10.0</ele><time>2026-03-29T11:41:51Z</time></trkpt><trkpt lat="14.56270074817239" lon="120.9953758571714"><ele>10.0</ele><time>2026-03-29T11:41:56Z</time></trkpt><trkpt lat="14.562730724503728" lon="120.99544681585135"><ele>10.0</ele><time>2026-03-29T11:41:59Z</time></trkpt><trkpt lat="14.56275598494636" lon="120.9955072683067"><ele>10.0</ele><time>2026-03-29T11:42:01Z</time></trkpt><trkpt lat="14.562782929001203" lon="120.99557174993451"><ele>10.0</ele><time>2026-03-29T11:42:03Z</time></trkpt><trkpt lat="14.56281152420558" lon="120.9956401830354"><ele>10.0</ele><time>2026-03-29T11:42:05Z</time></trkpt><trkpt lat="14.562844623726825" lon="120.99571939571543"><ele>10.0</ele><time>2026-03-29T11:42:08Z</time></trkpt><trkpt lat="14.562865762068757" lon="120.99580275225189"><ele>9.8</ele><time>2026-03-29T11:42:10Z</time></trkpt><trkpt lat="14.562913676704074" lon="120.99589843896746"><ele>9.6</ele><time>2026-03-29T11:42:12Z</time></trkpt><trkpt lat="14.562962591783885" lon="120.99600137030605"><ele>9.4</ele><time>2026-03-29T11:42:14Z</time></trkpt><trkpt lat="14.563015442641728" lon="120.9961210918512"><ele>9.2</ele><time>2026-03-29T11:42:16Z</time></trkpt><trkpt lat="14.563043901757823" lon="120.99618493299178"><ele>9.0</ele><time>2026-03-29T11:42:17Z</time></trkpt><trkpt lat="14.563072424413498" lon="120.99624906290899"><ele>9.000000000000002</ele><time>2026-03-29T11:42:18Z</time></trkpt><trkpt lat="14.563101529538326" lon="120.99631546254452"><ele>9.0</ele><time>2026-03-29T11:42:19Z</time></trkpt><trkpt lat="14.563130292531588" lon="120.9963822494427"><ele>9.0</ele><time>2026-03-29T11:42:20Z</time></trkpt><trkpt lat="14.563159990929599" lon="120.9964511181645"><ele>9.0</ele><time>2026-03-29T11:42:21Z</time></trkpt><trkpt lat="14.563190481879573" lon="120.99652408274628"><ele>9.0</ele><time>2026-03-29T11:42:22Z</time></trkpt><trkpt lat="14.563223353419595" lon="120.99659691587378"><ele>9.000000000000002</ele><time>2026-03-29T11:42:23Z</time></trkpt><trkpt lat="14.56325287199011" lon="120.99666792503861"><ele>9.0</ele><time>2026-03-29T11:42:24Z</time></trkpt><trkpt lat="14.563283862274284" lon="120.99673983617265"><ele>8.714285714285715</ele><time>2026-03-29T11:42:25Z</time></trkpt><trkpt lat="14.563315172317438" lon="120.99681166817227"><ele>8.428571428571429</ele><time>2026-03-29T11:42:26Z</time></trkpt><trkpt lat="14.56334661957212" lon="120.99688320217177"><ele>8.142857142857142</ele><time>2026-03-29T11:42:27Z</time></trkpt><trkpt lat="14.563377363509394" lon="120.99695447535022"><ele>7.857142857142858</ele><time>2026-03-29T11:42:28Z</time></trkpt><trkpt lat="14.563407738453206" lon="120.99702478555224"><ele>7.571428571428571</ele><time>2026-03-29T11:42:29Z</time></trkpt><trkpt lat="14.563435581183052" lon="120.99708906751285"><ele>7.285714285714286</ele><time>2026-03-29T11:42:30Z</time></trkpt><trkpt lat="14.56345967092122" lon="120.99714923441533"><ele>7.0</ele><time>2026-03-29T11:42:31Z</time></trkpt><trkpt lat="14.56352261329597" lon="120.99724057189948"><ele>7.000000000000001</ele><time>2026-03-29T11:42:33Z</time></trkpt><trkpt lat="14.56355950948484" lon="120.99732167833906"><ele>7.0</ele><time>2026-03-29T11:42:35Z</time></trkpt><trkpt lat="14.563581223321947" lon="120.99738994494588"><ele>7.0</ele><time>2026-03-29T11:42:38Z</time></trkpt><trkpt lat="14.56362057100036" lon="120.99746372302002"><ele>7.0</ele><time>2026-03-29T11:43:03.999Z</time></trkpt><trkpt lat="14.563674270262723" lon="120.99754920269956"><ele>7.000000000000001</ele><time>2026-03-29T11:43:06.999Z</time></trkpt><trkpt lat="14.56371677004654" lon="120.99762881013783"><ele>7.0</ele><time>2026-03-29T11:43:08.999Z</time></trkpt><trkpt lat="14.56375929488949" lon="120.99772286947488"><ele>7.0</ele><time>2026-03-29T11:43:11Z</time></trkpt><trkpt lat="14.563808503744813" lon="120.9978254035402"><ele>6.999999999999999</ele><time>2026-03-29T11:43:13Z</time></trkpt><trkpt lat="14.563854241568755" lon="120.99792887385888"><ele>6.999999999999999</ele><time>2026-03-29T11:43:15Z</time></trkpt><trkpt lat="14.563897068408187" lon="120.9980239548902"><ele>7.0</ele><time>2026-03-29T11:43:17Z</time></trkpt><trkpt lat="14.563928330112851" lon="120.99809472529168"><ele>7.0</ele><time>2026-03-29T11:43:19Z</time></trkpt><trkpt lat="14.563979414485203" lon="120.99816748003052"><ele>7.0</ele><time>2026-03-29T11:43:22Z</time></trkpt><trkpt lat="14.564003345591289" lon="120.99822961297104"><ele>6.999999999999999</ele><time>2026-03-29T11:43:25Z</time></trkpt><trkpt lat="14.563900418978202" lon="120.99829104171022"><ele>6.999999999999999</ele><time>2026-03-29T11:43:27Z</time></trkpt><trkpt lat="14.563804275253743" lon="120.9983217081504"><ele>7.0</ele><time>2026-03-29T11:43:29Z</time></trkpt><trkpt lat="14.563697276625247" lon="120.99835440041424"><ele>7.0</ele><time>2026-03-29T11:43:31Z</time></trkpt><trkpt lat="14.563570947016233" lon="120.99838902013431"><ele>7.0</ele><time>2026-03-29T11:43:33Z</time></trkpt><trkpt lat="14.5635099139709" lon="120.99840621150878"><ele>6.999999999999999</ele><time>2026-03-29T11:43:34Z</time></trkpt><trkpt lat="14.563392483212507" lon="120.99844173903355"><ele>6.999999999999999</ele><time>2026-03-29T11:43:36Z</time></trkpt><trkpt lat="14.563275921517638" lon="120.9984823950619"><ele>7.0</ele><time>2026-03-29T11:43:38Z</time></trkpt><trkpt lat="14.563155582667855" lon="120.9985194215058"><ele>7.0</ele><time>2026-03-29T11:43:40Z</time></trkpt><trkpt lat="14.563093139271698" lon="120.99853179195198"><ele>7.0</ele><time>2026-03-29T11:43:41Z</time></trkpt><trkpt lat="14.563030728841332" lon="120.99855008472456"><ele>7.0</ele><time>2026-03-29T11:43:42Z</time></trkpt><trkpt lat="14.562967200481785" lon="120.9985712302299"><ele>7.0</ele><time>2026-03-29T11:43:43Z</time></trkpt><trkpt lat="14.56290188231941" lon="120.99859868479824"><ele>7.0</ele><time>2026-03-29T11:43:44Z</time></trkpt><trkpt lat="14.562833833106346" lon="120.99862577730214"><ele>7.0</ele><time>2026-03-29T11:43:45Z</time></trkpt><trkpt lat="14.562763746273284" lon="120.99865023409922"><ele>7.0</ele><time>2026-03-29T11:43:46Z</time></trkpt><trkpt lat="14.562693292879267" lon="120.99867578058736"><ele>7.0</ele><time>2026-03-29T11:43:47Z</time></trkpt><trkpt lat="14.562625148386303" lon="120.99870143408513"><ele>7.3999999999999995</ele><time>2026-03-29T11:43:48Z</time></trkpt><trkpt lat="14.562564500934156" lon="120.99872363230602"><ele>7.799999999999999</ele><time>2026-03-29T11:43:49Z</time></trkpt><trkpt lat="14.562504242831865" lon="120.99874497297951"><ele>8.2</ele><time>2026-03-29T11:43:50Z</time></trkpt><trkpt lat="14.562392772111094" lon="120.99879119544158"><ele>8.6</ele><time>2026-03-29T11:43:52Z</time></trkpt><trkpt lat="14.562291088391385" lon="120.99883175720686"><ele>9.0</ele><time>2026-03-29T11:43:54Z</time></trkpt><trkpt lat="14.562197296485806" lon="120.99887320743089"><ele>9.0</ele><time>2026-03-29T11:43:56Z</time></trkpt><trkpt lat="14.562104283396591" lon="120.99891530958892"><ele>9.0</ele><time>2026-03-29T11:43:58Z</time></trkpt><trkpt lat="14.562020584114967" lon="120.99895259280989"><ele>9.0</ele><time>2026-03-29T11:44:00Z</time></trkpt><trkpt lat="14.561953509267134" lon="120.99900123634784"><ele>9.0</ele><time>2026-03-29T11:44:03Z</time></trkpt><trkpt lat="14.561954200734492" lon="120.99906701942521"><ele>9.0</ele><time>2026-03-29T11:44:06Z</time></trkpt><trkpt lat="14.562017822025025" lon="120.99913712708235"><ele>9.0</ele><time>2026-03-29T11:44:09Z</time></trkpt><trkpt lat="14.562066377244514" lon="120.99918649206661"><ele>8.857142857142858</ele><time>2026-03-29T11:44:11Z</time></trkpt><trkpt lat="14.562120193972364" lon="120.99923522903875"><ele>8.714285714285715</ele><time>2026-03-29T11:44:13Z</time></trkpt><trkpt lat="14.562178445357917" lon="120.99927975070744"><ele>8.571428571428571</ele><time>2026-03-29T11:44:16Z</time></trkpt><trkpt lat="14.56212032968785" lon="120.99931062577413"><ele>8.428571428571429</ele><time>2026-03-29T11:45:30Z</time></trkpt><trkpt lat="14.562094309531188" lon="120.99938097258743"><ele>8.285714285714285</ele><time>2026-03-29T11:45:32Z</time></trkpt><trkpt lat="14.56207515173367" lon="120.99945703304118"><ele>8.142857142857142</ele><time>2026-03-29T11:46:30.041Z</time></trkpt><trkpt lat="14.562071746978354" lon="120.99954300314575"><ele>8.0</ele><time>2026-03-29T11:46:31.039Z</time></trkpt><trkpt lat="14.56222648132814" lon="120.99946013911747"><ele>8.0</ele><time>2026-03-29T11:46:45.033Z</time></trkpt><trkpt lat="14.56220914596814" lon="120.99929028223845"><ele>8.0</ele><time>2026-03-29T11:46:54.022Z</time></trkpt><trkpt lat="14.562046134144005" lon="120.99942728957102"><ele>8.0</ele><time>2026-03-29T11:48:16.015Z</time></trkpt><trkpt lat="14.56192195490447" lon="120.9994968842917"><ele>8.0</ele><time>2026-03-29T11:48:39.014Z</time></trkpt><trkpt lat="14.562111158540294" lon="120.99935840658237"><ele>8.0</ele><time>2026-03-29T11:56:07.998Z</time></trkpt><trkpt lat="14.56220189623488" lon="120.99926492416328"><ele>8.0</ele><time>2026-03-29T11:59:04Z</time></trkpt><trkpt lat="14.562150741921464" lon="120.99917202559439"><ele>8.0</ele><time>2026-03-29T12:00:04.039Z</time></trkpt><trkpt lat="14.562123229498978" lon="120.9990991333875"><ele>8.0</ele><time>2026-03-29T12:01:23.013Z</time></trkpt><trkpt lat="14.562258162662047" lon="120.99921311357961"><ele>8.0</ele><time>2026-03-29T12:01:25.015Z</time></trkpt><trkpt lat="14.562123041780522" lon="120.99935334422644"><ele>8.0</ele><time>2026-03-29T12:02:07.014Z</time></trkpt><trkpt lat="14.562150867899081" lon="120.99926553628781"><ele>8.0</ele><time>2026-03-29T12:05:23.003Z</time></trkpt><trkpt lat="14.562112553951664" lon="120.99931850004872"><ele>8.0</ele><time>2026-03-29T12:20:35Z</time></trkpt><trkpt lat="14.562050571058997" lon="120.99934662306337"><ele>8.0</ele><time>2026-03-29T12:20:50Z</time></trkpt><trkpt lat="14.562071795802318" lon="120.99927094389282"><ele>8.0</ele><time>2026-03-29T12:22:41.036Z</time></trkpt><trkpt lat="14.561907685123325" lon="120.99927677310876"><ele>8.0</ele><time>2026-03-29T12:22:46.031Z</time></trkpt><trkpt lat="14.561991098001702" lon="120.99941666634514"><ele>8.0</ele><time>2026-03-29T12:23:30.016Z</time></trkpt><trkpt lat="14.562260532583732" lon="120.99917736085484"><ele>8.0</ele><time>2026-03-29T12:27:06Z</time></trkpt><trkpt lat="14.561948274607284" lon="120.99931663059728"><ele>8.0</ele><time>2026-03-29T12:27:10Z</time></trkpt><trkpt lat="14.562038010750392" lon="120.99929645757007"><ele>8.0</ele><time>2026-03-29T12:27:18.999Z</time></trkpt><trkpt lat="14.562214571173207" lon="120.99928484107507"><ele>8.0</ele><time>2026-03-29T12:28:03Z</time></trkpt><trkpt lat="14.562274129390483" lon="120.99933891397004"><ele>8.0</ele><time>2026-03-29T12:28:18Z</time></trkpt><trkpt lat="14.562300165581421" lon="120.99939824978297"><ele>8.0</ele><time>2026-03-29T12:28:20Z</time></trkpt><trkpt lat="14.56235899000984" lon="120.9994715954336"><ele>7.999999999999999</ele><time>2026-03-29T12:28:23Z</time></trkpt><trkpt lat="14.562406819469192" lon="120.99953421391909"><ele>8.0</ele><time>2026-03-29T12:28:25Z</time></trkpt><trkpt lat="14.562461781741543" lon="120.99960229974998"><ele>8.0</ele><time>2026-03-29T12:28:27Z</time></trkpt><trkpt lat="14.562520884545357" lon="120.99967682522043"><ele>8.0</ele><time>2026-03-29T12:28:29Z</time></trkpt><trkpt lat="14.562579511920703" lon="120.99974782655812"><ele>7.999999999999999</ele><time>2026-03-29T12:28:31Z</time></trkpt><trkpt lat="14.562634861694521" lon="120.99981434570044"><ele>8.0</ele><time>2026-03-29T12:28:33Z</time></trkpt><trkpt lat="14.562670536905824" lon="120.99987265808278"><ele>7.999999999999999</ele><time>2026-03-29T12:28:35Z</time></trkpt><trkpt lat="14.56266447092593" lon="120.99996034647512"><ele>8.0</ele><time>2026-03-29T12:28:38Z</time></trkpt><trkpt lat="14.562602640390917" lon="121.00001890994182"><ele>8.0</ele><time>2026-03-29T12:28:41Z</time></trkpt><trkpt lat="14.562526029292197" lon="121.0000397634071"><ele>8.0</ele><time>2026-03-29T12:28:43Z</time></trkpt><trkpt lat="14.562445030169247" lon="121.00007711447049"><ele>7.999999999999999</ele><time>2026-03-29T12:28:45Z</time></trkpt><trkpt lat="14.562353757668264" lon="121.00012052650942"><ele>8.0</ele><time>2026-03-29T12:28:47Z</time></trkpt><trkpt lat="14.562259247966312" lon="121.00016772713745"><ele>7.999999999999999</ele><time>2026-03-29T12:28:49Z</time></trkpt><trkpt lat="14.562157803489546" lon="121.00022015670184"><ele>8.0</ele><time>2026-03-29T12:28:51Z</time></trkpt><trkpt lat="14.56204733419274" lon="121.00027696085328"><ele>8.0</ele><time>2026-03-29T12:28:53Z</time></trkpt><trkpt lat="14.56198690324121" lon="121.0003073070241"><ele>8.0</ele><time>2026-03-29T12:28:54Z</time></trkpt><trkpt lat="14.561926675773801" lon="121.00033794304143"><ele>7.999999999999999</ele><time>2026-03-29T12:28:55Z</time></trkpt><trkpt lat="14.561866942678883" lon="121.00036678138521"><ele>8.0</ele><time>2026-03-29T12:28:56Z</time></trkpt><trkpt lat="14.561809312470736" lon="121.00039633606465"><ele>7.999999999999999</ele><time>2026-03-29T12:28:57Z</time></trkpt><trkpt lat="14.561751512429991" lon="121.00042647110234"><ele>8.0</ele><time>2026-03-29T12:28:58Z</time></trkpt><trkpt lat="14.561693600102073" lon="121.00045674441401"><ele>8.0</ele><time>2026-03-29T12:28:59Z</time></trkpt><trkpt lat="14.561637267609907" lon="121.00048794954104"><ele>8.0</ele><time>2026-03-29T12:29:00Z</time></trkpt><trkpt lat="14.561524313514354" lon="121.00054556306617"><ele>7.999999999999999</ele><time>2026-03-29T12:29:02Z</time></trkpt><trkpt lat="14.561413404234388" lon="121.00060226869249"><ele>8.0</ele><time>2026-03-29T12:29:04Z</time></trkpt><trkpt lat="14.561303508870168" lon="121.0006552670524"><ele>7.999999999999999</ele><time>2026-03-29T12:29:06Z</time></trkpt><trkpt lat="14.561201092137473" lon="121.00070208414701"><ele>8.0</ele><time>2026-03-29T12:29:08Z</time></trkpt><trkpt lat="14.561134708784426" lon="121.00072933255925"><ele>8.0</ele><time>2026-03-29T12:29:10Z</time></trkpt><trkpt lat="14.561074940502275" lon="121.00075178543455"><ele>8.0</ele><time>2026-03-29T12:29:13Z</time></trkpt><trkpt lat="14.561008686795525" lon="121.00077371863061"><ele>7.999999999999999</ele><time>2026-03-29T12:29:15Z</time></trkpt><trkpt lat="14.560915711162458" lon="121.0008009462474"><ele>8.0</ele><time>2026-03-29T12:29:17Z</time></trkpt><trkpt lat="14.560804584477635" lon="121.00083233984658"><ele>8.0</ele><time>2026-03-29T12:29:18.999Z</time></trkpt><trkpt lat="14.560742949129295" lon="121.00085017900135"><ele>7.999999999999999</ele><time>2026-03-29T12:29:19.999Z</time></trkpt><trkpt lat="14.560675291974174" lon="121.00086626742193"><ele>8.0</ele><time>2026-03-29T12:29:20.999Z</time></trkpt><trkpt lat="14.560608933532095" lon="121.00088265543958"><ele>8.0</ele><time>2026-03-29T12:29:21.999Z</time></trkpt><trkpt lat="14.560541828560218" lon="121.00089731786875"><ele>7.999999999999999</ele><time>2026-03-29T12:29:22.999Z</time></trkpt><trkpt lat="14.560475953778033" lon="121.00091618753414"><ele>8.0</ele><time>2026-03-29T12:29:23.999Z</time></trkpt><trkpt lat="14.560408474604603" lon="121.00093226091192"><ele>8.0</ele><time>2026-03-29T12:29:24.999Z</time></trkpt><trkpt lat="14.560342694970725" lon="121.00094868296948"><ele>8.0</ele><time>2026-03-29T12:29:25.999Z</time></trkpt><trkpt lat="14.560277481649921" lon="121.00096647678218"><ele>7.999999999999999</ele><time>2026-03-29T12:29:26.999Z</time></trkpt><trkpt lat="14.560213449657152" lon="121.00098402319249"><ele>8.0</ele><time>2026-03-29T12:29:27.999Z</time></trkpt><trkpt lat="14.560149900879011" lon="121.00100453935379"><ele>8.0</ele><time>2026-03-29T12:29:28.999Z</time></trkpt><trkpt lat="14.560087098764749" lon="121.00102269226804"><ele>7.999999999999999</ele><time>2026-03-29T12:29:29.999Z</time></trkpt><trkpt lat="14.560021810339249" lon="121.00103962968971"><ele>8.0</ele><time>2026-03-29T12:29:30.999Z</time></trkpt><trkpt lat="14.559959231124113" lon="121.00105791518203"><ele>8.0</ele><time>2026-03-29T12:29:31.999Z</time></trkpt><trkpt lat="14.559896317970022" lon="121.00107031014022"><ele>8.0</ele><time>2026-03-29T12:29:32.999Z</time></trkpt><trkpt lat="14.55983435650896" lon="121.00108190418347"><ele>7.999999999999999</ele><time>2026-03-29T12:29:33.999Z</time></trkpt><trkpt lat="14.55974682868007" lon="121.0011013443121"><ele>8.0</ele><time>2026-03-29T12:29:35.999Z</time></trkpt><trkpt lat="14.559683609070412" lon="121.00112012485644"><ele>8.0</ele><time>2026-03-29T12:29:38.999Z</time></trkpt><trkpt lat="14.55962050948177" lon="121.00113852410458"><ele>7.999999999999999</ele><time>2026-03-29T12:29:40.999Z</time></trkpt><trkpt lat="14.559549450463027" lon="121.0011576104566"><ele>8.0</ele><time>2026-03-29T12:29:42.999Z</time></trkpt><trkpt lat="14.559481790704682" lon="121.00117417280863"><ele>8.0</ele><time>2026-03-29T12:29:44.999Z</time></trkpt><trkpt lat="14.559403245886243" lon="121.0011948230895"><ele>8.200000000000001</ele><time>2026-03-29T12:29:46.999Z</time></trkpt><trkpt lat="14.559309408050767" lon="121.00121883748514"><ele>8.4</ele><time>2026-03-29T12:29:48.999Z</time></trkpt><trkpt lat="14.559209884407174" lon="121.00124278495686"><ele>8.600000000000001</ele><time>2026-03-29T12:29:50.999Z</time></trkpt><trkpt lat="14.55910956428544" lon="121.00126899755655"><ele>8.8</ele><time>2026-03-29T12:29:52.999Z</time></trkpt><trkpt lat="14.559003485197305" lon="121.00129590198338"><ele>9.0</ele><time>2026-03-29T12:29:54.999Z</time></trkpt><trkpt lat="14.558894852158556" lon="121.0013236576229"><ele>9.0</ele><time>2026-03-29T12:29:56.999Z</time></trkpt><trkpt lat="14.55878462878114" lon="121.0013518289425"><ele>9.0</ele><time>2026-03-29T12:29:58.999Z</time></trkpt><trkpt lat="14.558665574057267" lon="121.00138403229961"><ele>9.0</ele><time>2026-03-29T12:30:00.999Z</time></trkpt><trkpt lat="14.558602303205177" lon="121.00139892881108"><ele>9.0</ele><time>2026-03-29T12:30:01.999Z</time></trkpt><trkpt lat="14.558539754270651" lon="121.00141403147937"><ele>9.0</ele><time>2026-03-29T12:30:02.999Z</time></trkpt><trkpt lat="14.558474346776539" lon="121.0014303350691"><ele>9.0</ele><time>2026-03-29T12:30:03.999Z</time></trkpt><trkpt lat="14.55841096039626" lon="121.00144628009643"><ele>9.2</ele><time>2026-03-29T12:30:04.999Z</time></trkpt><trkpt lat="14.558347564136225" lon="121.00146183137802"><ele>9.4</ele><time>2026-03-29T12:30:05.999Z</time></trkpt><trkpt lat="14.55822835275568" lon="121.0014910115735"><ele>9.6</ele><time>2026-03-29T12:30:07.999Z</time></trkpt><trkpt lat="14.558116405925714" lon="121.00152005576712"><ele>9.8</ele><time>2026-03-29T12:30:09.999Z</time></trkpt><trkpt lat="14.558012144555363" lon="121.00155112136508"><ele>10.0</ele><time>2026-03-29T12:30:11.999Z</time></trkpt><trkpt lat="14.557897738838637" lon="121.00158165470812"><ele>9.666666666666668</ele><time>2026-03-29T12:30:13.999Z</time></trkpt><trkpt lat="14.55780766028985" lon="121.00160284707486"><ele>9.333333333333334</ele><time>2026-03-29T12:30:15.999Z</time></trkpt><trkpt lat="14.557736605759162" lon="121.00161944255738"><ele>9.0</ele><time>2026-03-29T12:30:19.999Z</time></trkpt><trkpt lat="14.55765949903706" lon="121.00164009255842"><ele>8.666666666666666</ele><time>2026-03-29T12:30:22.999Z</time></trkpt><trkpt lat="14.557582820586683" lon="121.00165944225084"><ele>8.333333333333332</ele><time>2026-03-29T12:30:24.999Z</time></trkpt><trkpt lat="14.557487646449024" lon="121.00168258120908"><ele>8.0</ele><time>2026-03-29T12:30:26.999Z</time></trkpt><trkpt lat="14.557383571296235" lon="121.00170776140158"><ele>8.0</ele><time>2026-03-29T12:30:28.999Z</time></trkpt><trkpt lat="14.557275232293028" lon="121.00173460989339"><ele>8.0</ele><time>2026-03-29T12:30:30.999Z</time></trkpt><trkpt lat="14.55716397296183" lon="121.00176563903256"><ele>8.0</ele><time>2026-03-29T12:30:32.999Z</time></trkpt><trkpt lat="14.557042744744454" lon="121.00179708567431"><ele>8.0</ele><time>2026-03-29T12:30:34.999Z</time></trkpt><trkpt lat="14.556980184985672" lon="121.00181361537916"><ele>8.0</ele><time>2026-03-29T12:30:35.999Z</time></trkpt><trkpt lat="14.556861725293022" lon="121.00184472653996"><ele>8.0</ele><time>2026-03-29T12:30:37.999Z</time></trkpt><trkpt lat="14.556799381045549" lon="121.00186071538418"><ele>8.0</ele><time>2026-03-29T12:30:38.999Z</time></trkpt><trkpt lat="14.556688207137567" lon="121.00189247257107"><ele>8.0</ele><time>2026-03-29T12:30:40.999Z</time></trkpt><trkpt lat="14.55658454826848" lon="121.00192265484381"><ele>8.0</ele><time>2026-03-29T12:30:42.999Z</time></trkpt><trkpt lat="14.556490792792712" lon="121.00193939262428"><ele>8.0</ele><time>2026-03-29T12:30:44.999Z</time></trkpt><trkpt lat="14.556402552662918" lon="121.00195990991867"><ele>7.999999999999999</ele><time>2026-03-29T12:30:46.999Z</time></trkpt><trkpt lat="14.556318035824829" lon="121.00198063455987"><ele>8.0</ele><time>2026-03-29T12:30:49Z</time></trkpt><trkpt lat="14.556244261429072" lon="121.00199961336052"><ele>8.0</ele><time>2026-03-29T12:30:51Z</time></trkpt><trkpt lat="14.556168452680922" lon="121.00201661863883"><ele>8.0</ele><time>2026-03-29T12:30:54Z</time></trkpt><trkpt lat="14.55609856116453" lon="121.00201064497865"><ele>7.999999999999999</ele><time>2026-03-29T12:30:58Z</time></trkpt><trkpt lat="14.55613320670543" lon="121.00193956407574"><ele>8.0</ele><time>2026-03-29T12:30:59Z</time></trkpt><trkpt lat="14.55610364269393" lon="121.00182944645415"><ele>7.999999999999999</ele><time>2026-03-29T12:31:01Z</time></trkpt><trkpt lat="14.556073270891494" lon="121.0017163200151"><ele>8.0</ele><time>2026-03-29T12:31:03Z</time></trkpt><trkpt lat="14.556055870805631" lon="121.00165150957831"><ele>8.0</ele><time>2026-03-29T12:31:04Z</time></trkpt><trkpt lat="14.556036711606458" lon="121.00158014687945"><ele>8.0</ele><time>2026-03-29T12:31:05Z</time></trkpt><trkpt lat="14.556018212892404" lon="121.00150586769301"><ele>7.999999999999999</ele><time>2026-03-29T12:31:06Z</time></trkpt><trkpt lat="14.555998434361102" lon="121.00142745289777"><ele>8.0</ele><time>2026-03-29T12:31:07Z</time></trkpt><trkpt lat="14.555977266908933" lon="121.00134353153646"><ele>7.999999999999999</ele><time>2026-03-29T12:31:08Z</time></trkpt><trkpt lat="14.555955525620401" lon="121.00125733510198"><ele>8.0</ele><time>2026-03-29T12:31:09Z</time></trkpt><trkpt lat="14.555934355962256" lon="121.00117340499537"><ele>8.0</ele><time>2026-03-29T12:31:10Z</time></trkpt><trkpt lat="14.555914279170693" lon="121.00109114789818"><ele>8.0</ele><time>2026-03-29T12:31:11Z</time></trkpt><trkpt lat="14.555895193938138" lon="121.00101231253142"><ele>7.999999999999999</ele><time>2026-03-29T12:31:12Z</time></trkpt><trkpt lat="14.555876180491637" lon="121.00093377371789"><ele>8.0</ele><time>2026-03-29T12:31:13Z</time></trkpt><trkpt lat="14.555857579681764" lon="121.00085693936666"><ele>7.666666666666666</ele><time>2026-03-29T12:31:14Z</time></trkpt><trkpt lat="14.555838748106828" lon="121.00077915179355"><ele>7.333333333333333</ele><time>2026-03-29T12:31:15Z</time></trkpt><trkpt lat="14.555818529826704" lon="121.00070229016168"><ele>7.0</ele><time>2026-03-29T12:31:16Z</time></trkpt><trkpt lat="14.5557988129246" lon="121.00063086839536"><ele>6.666666666666666</ele><time>2026-03-29T12:31:17Z</time></trkpt><trkpt lat="14.555778748596696" lon="121.00055818811967"><ele>6.333333333333333</ele><time>2026-03-29T12:31:18Z</time></trkpt><trkpt lat="14.555760425237853" lon="121.0004918142694"><ele>6.0</ele><time>2026-03-29T12:31:19Z</time></trkpt><trkpt lat="14.55572916724983" lon="121.00037831761058"><ele>6.0</ele><time>2026-03-29T12:31:21Z</time></trkpt><trkpt lat="14.555675958597423" lon="121.00027306352614"><ele>6.0</ele><time>2026-03-29T12:31:23Z</time></trkpt><trkpt lat="14.55562129814814" lon="121.00022809064363"><ele>6.0</ele><time>2026-03-29T12:31:23.999Z</time></trkpt><trkpt lat="14.55551260672728" lon="121.00019145575345"><ele>6.0</ele><time>2026-03-29T12:31:25.999Z</time></trkpt><trkpt lat="14.555428387736047" lon="121.00015313676487"><ele>6.0</ele><time>2026-03-29T12:31:27.999Z</time></trkpt><trkpt lat="14.555334696081953" lon="121.00011558049476"><ele>6.166666666666667</ele><time>2026-03-29T12:31:29.999Z</time></trkpt><trkpt lat="14.555228776055895" lon="121.00009232781963"><ele>6.333333333333334</ele><time>2026-03-29T12:31:31.999Z</time></trkpt><trkpt lat="14.55513945289267" lon="121.00006844233212"><ele>6.5</ele><time>2026-03-29T12:31:33.999Z</time></trkpt><trkpt lat="14.555068450257831" lon="121.00004366940786"><ele>6.666666666666667</ele><time>2026-03-29T12:31:35.999Z</time></trkpt><trkpt lat="14.55500878092133" lon="121.0000135102813"><ele>6.833333333333334</ele><time>2026-03-29T12:31:38.999Z</time></trkpt><trkpt lat="14.554933027966115" lon="121.00000811541491"><ele>7.0</ele><time>2026-03-29T12:31:52.999Z</time></trkpt><trkpt lat="14.554891274813746" lon="120.99993153211133"><ele>7.000000000000001</ele><time>2026-03-29T12:31:55.999Z</time></trkpt><trkpt lat="14.554860657799814" lon="120.99986557632381"><ele>7.0</ele><time>2026-03-29T12:31:57.999Z</time></trkpt><trkpt lat="14.554831964000025" lon="120.99979181280672"><ele>7.0</ele><time>2026-03-29T12:31:59.999Z</time></trkpt><trkpt lat="14.554819062336755" lon="120.99970805311081"><ele>7.0</ele><time>2026-03-29T12:32:01.999Z</time></trkpt><trkpt lat="14.554798158509026" lon="120.99961804635174"><ele>7.000000000000001</ele><time>2026-03-29T12:32:04.999Z</time></trkpt><trkpt lat="14.554779342924586" lon="120.99954097242545"><ele>7.0</ele><time>2026-03-29T12:32:06.999Z</time></trkpt><trkpt lat="14.554750388564477" lon="120.99942236719583"><ele>7.000000000000001</ele><time>2026-03-29T12:32:08.999Z</time></trkpt><trkpt lat="14.554733839902834" lon="120.99935457922719"><ele>7.0</ele><time>2026-03-29T12:32:09.999Z</time></trkpt><trkpt lat="14.554715842112786" lon="120.99928085521933"><ele>7.0</ele><time>2026-03-29T12:32:10.999Z</time></trkpt><trkpt lat="14.554696473896467" lon="120.99920151755582"><ele>7.0</ele><time>2026-03-29T12:32:11.999Z</time></trkpt><trkpt lat="14.554675991666006" lon="120.99911761663718"><ele>7.000000000000001</ele><time>2026-03-29T12:32:12.999Z</time></trkpt><trkpt lat="14.554651524160011" lon="120.99902812740115"><ele>7.0</ele><time>2026-03-29T12:32:13.999Z</time></trkpt><trkpt lat="14.55462740549425" lon="120.9989396679992"><ele>7.0</ele><time>2026-03-29T12:32:14.999Z</time></trkpt><trkpt lat="14.554602711782147" lon="120.99884909948929"><ele>6.999999999999999</ele><time>2026-03-29T12:32:15.999Z</time></trkpt><trkpt lat="14.554575560249464" lon="120.99874951653004"><ele>6.999999999999999</ele><time>2026-03-29T12:32:16.999Z</time></trkpt><trkpt lat="14.55455050053362" lon="120.99865760564958"><ele>7.0</ele><time>2026-03-29T12:32:17.999Z</time></trkpt><trkpt lat="14.554523523043077" lon="120.99855884142497"><ele>7.0</ele><time>2026-03-29T12:32:18.999Z</time></trkpt><trkpt lat="14.554496717013377" lon="120.99846075841165"><ele>7.0</ele><time>2026-03-29T12:32:19.999Z</time></trkpt><trkpt lat="14.55447082797103" lon="120.99836603070209"><ele>6.999999999999999</ele><time>2026-03-29T12:32:20.999Z</time></trkpt><trkpt lat="14.554444780112274" lon="120.99827072177129"><ele>6.999999999999999</ele><time>2026-03-29T12:32:21.999Z</time></trkpt><trkpt lat="14.554418168725139" lon="120.99817372437663"><ele>7.0</ele><time>2026-03-29T12:32:22.999Z</time></trkpt><trkpt lat="14.554393002465394" lon="120.99808235087498"><ele>7.0</ele><time>2026-03-29T12:32:23.999Z</time></trkpt><trkpt lat="14.554368644528786" lon="120.99799391218345"><ele>7.000000000000001</ele><time>2026-03-29T12:32:24.999Z</time></trkpt><trkpt lat="14.554344849847556" lon="120.99790751860017"><ele>7.0</ele><time>2026-03-29T12:32:25.999Z</time></trkpt><trkpt lat="14.55432045730824" lon="120.99781895427368"><ele>7.0</ele><time>2026-03-29T12:32:26.999Z</time></trkpt><trkpt lat="14.554298287719467" lon="120.99773567030789"><ele>7.0</ele><time>2026-03-29T12:32:27.999Z</time></trkpt><trkpt lat="14.554277164008658" lon="120.99765416793359"><ele>7.000000000000001</ele><time>2026-03-29T12:32:28.999Z</time></trkpt><trkpt lat="14.55425133168472" lon="120.99757075137525"><ele>7.0</ele><time>2026-03-29T12:32:29.999Z</time></trkpt><trkpt lat="14.554226925215994" lon="120.9974876045179"><ele>6.833333333333334</ele><time>2026-03-29T12:32:30.999Z</time></trkpt><trkpt lat="14.55420308356793" lon="120.99740636772529"><ele>6.666666666666667</ele><time>2026-03-29T12:32:31.999Z</time></trkpt><trkpt lat="14.554180147766846" lon="120.9973282000117"><ele>6.5</ele><time>2026-03-29T12:32:32.999Z</time></trkpt><trkpt lat="14.554160586196543" lon="120.99726153205411"><ele>6.333333333333334</ele><time>2026-03-29T12:32:33.999Z</time></trkpt><trkpt lat="14.55413993901094" lon="120.99719116422783"><ele>6.166666666666667</ele><time>2026-03-29T12:32:34.999Z</time></trkpt><trkpt lat="14.554120828553305" lon="120.99712603486026"><ele>6.0</ele><time>2026-03-29T12:32:35.999Z</time></trkpt><trkpt lat="14.554094718994035" lon="120.99699413550152"><ele>6.0</ele><time>2026-03-29T12:32:37.999Z</time></trkpt><trkpt lat="14.554052351937136" lon="120.99692542196411"><ele>6.0</ele><time>2026-03-29T12:32:38.999Z</time></trkpt><trkpt lat="14.55396940239523" lon="120.99681333357096"><ele>6.0</ele><time>2026-03-29T12:32:40.999Z</time></trkpt><trkpt lat="14.553949992321426" lon="120.99674239778014"><ele>6.0</ele><time>2026-03-29T12:32:41.999Z</time></trkpt><trkpt lat="14.553933504724263" lon="120.99666977231139"><ele>6.0</ele><time>2026-03-29T12:32:42.999Z</time></trkpt><trkpt lat="14.5539176427947" lon="120.9965896710085"><ele>6.0</ele><time>2026-03-29T12:32:43.999Z</time></trkpt><trkpt lat="14.553900262574574" lon="120.99650613387466"><ele>6.6</ele><time>2026-03-29T12:32:44.999Z</time></trkpt><trkpt lat="14.553882552186787" lon="120.99641873502848"><ele>7.199999999999999</ele><time>2026-03-29T12:32:45.999Z</time></trkpt><trkpt lat="14.553933825345526" lon="120.99631134832937"><ele>7.800000000000001</ele><time>2026-03-29T12:32:46.999Z</time></trkpt><trkpt lat="14.55391283450664" lon="120.9962196812218"><ele>8.4</ele><time>2026-03-29T12:32:47.999Z</time></trkpt><trkpt lat="14.553890890445087" lon="120.99612385138254"><ele>9.0</ele><time>2026-03-29T12:32:48.999Z</time></trkpt><trkpt lat="14.553868745286307" lon="120.99602714334812"><ele>9.0</ele><time>2026-03-29T12:32:49.999Z</time></trkpt><trkpt lat="14.553846090920818" lon="120.99592821160404"><ele>9.0</ele><time>2026-03-29T12:32:50.999Z</time></trkpt><trkpt lat="14.553823194285487" lon="120.99582865188103"><ele>9.0</ele><time>2026-03-29T12:32:51.999Z</time></trkpt><trkpt lat="14.553800969016306" lon="120.99573388401782"><ele>9.0</ele><time>2026-03-29T12:32:52.999Z</time></trkpt><trkpt lat="14.553777861037396" lon="120.9956353523019"><ele>9.0</ele><time>2026-03-29T12:32:53.999Z</time></trkpt><trkpt lat="14.553758913996752" lon="120.99553898785129"><ele>9.2</ele><time>2026-03-29T12:32:54.999Z</time></trkpt><trkpt lat="14.553739570830555" lon="120.99543815167013"><ele>9.4</ele><time>2026-03-29T12:32:55.999Z</time></trkpt><trkpt lat="14.553721372101617" lon="120.99533629692314"><ele>9.6</ele><time>2026-03-29T12:32:56.999Z</time></trkpt><trkpt lat="14.55370771795598" lon="120.99523249298784"><ele>9.8</ele><time>2026-03-29T12:32:57.999Z</time></trkpt><trkpt lat="14.553693982487601" lon="120.99512807086519"><ele>10.0</ele><time>2026-03-29T12:32:58.999Z</time></trkpt><trkpt lat="14.553680332804978" lon="120.99502118632084"><ele>9.4</ele><time>2026-03-29T12:33:00Z</time></trkpt><trkpt lat="14.553666529755331" lon="120.99491200063511"><ele>8.8</ele><time>2026-03-29T12:33:01Z</time></trkpt><trkpt lat="14.553652672916057" lon="120.99480238949404"><ele>8.2</ele><time>2026-03-29T12:33:02Z</time></trkpt><trkpt lat="14.553639130475462" lon="120.9946919299276"><ele>7.6</ele><time>2026-03-29T12:33:03Z</time></trkpt><trkpt lat="14.553626531394587" lon="120.99458885095402"><ele>7.0</ele><time>2026-03-29T12:33:04Z</time></trkpt><trkpt lat="14.553614260429761" lon="120.99448766530007"><ele>7.0</ele><time>2026-03-29T12:33:05Z</time></trkpt><trkpt lat="14.55360080484854" lon="120.99439324024958"><ele>6.999999999999999</ele><time>2026-03-29T12:33:06Z</time></trkpt><trkpt lat="14.55358602561552" lon="120.99429472659281"><ele>6.999999999999999</ele><time>2026-03-29T12:33:07Z</time></trkpt><trkpt lat="14.553572179582767" lon="120.99420243310777"><ele>7.0</ele><time>2026-03-29T12:33:08Z</time></trkpt><trkpt lat="14.553560345928089" lon="120.99410902297441"><ele>7.0</ele><time>2026-03-29T12:33:09Z</time></trkpt><trkpt lat="14.553547890995173" lon="120.99401545564804"><ele>7.6</ele><time>2026-03-29T12:33:10Z</time></trkpt><trkpt lat="14.553534944017374" lon="120.99391819183458"><ele>8.2</ele><time>2026-03-29T12:33:11Z</time></trkpt><trkpt lat="14.553524477195062" lon="120.99382052996745"><ele>8.8</ele><time>2026-03-29T12:33:12Z</time></trkpt><trkpt lat="14.55351383339413" lon="120.99371760954159"><ele>9.4</ele><time>2026-03-29T12:33:13Z</time></trkpt><trkpt lat="14.553503406081946" lon="120.99361678248945"><ele>10.0</ele><time>2026-03-29T12:33:14Z</time></trkpt><trkpt lat="14.553493058215697" lon="120.9935167232187"><ele>10.0</ele><time>2026-03-29T12:33:15Z</time></trkpt><trkpt lat="14.553475940983144" lon="120.9934157512488"><ele>10.0</ele><time>2026-03-29T12:33:16Z</time></trkpt><trkpt lat="14.553461088416523" lon="120.99331515210845"><ele>10.0</ele><time>2026-03-29T12:33:17Z</time></trkpt><trkpt lat="14.55344614246708" lon="120.99321392051601"><ele>10.0</ele><time>2026-03-29T12:33:18Z</time></trkpt><trkpt lat="14.553430925623607" lon="120.9931108540652"><ele>10.0</ele><time>2026-03-29T12:33:19Z</time></trkpt><trkpt lat="14.553410433129708" lon="120.99300519833868"><ele>10.0</ele><time>2026-03-29T12:33:20Z</time></trkpt><trkpt lat="14.553389392314115" lon="120.99290165548285"><ele>10.0</ele><time>2026-03-29T12:33:21Z</time></trkpt><trkpt lat="14.55336808212687" lon="120.99279700608439"><ele>10.0</ele><time>2026-03-29T12:33:22Z</time></trkpt><trkpt lat="14.553342025187773" lon="120.99269291984906"><ele>10.0</ele><time>2026-03-29T12:33:23Z</time></trkpt><trkpt lat="14.553315476418051" lon="120.99259157096701"><ele>10.0</ele><time>2026-03-29T12:33:24Z</time></trkpt><trkpt lat="14.553289613290122" lon="120.9924928395187"><ele>10.0</ele><time>2026-03-29T12:33:25Z</time></trkpt><trkpt lat="14.553265206618669" lon="120.99239639308934"><ele>10.0</ele><time>2026-03-29T12:33:26Z</time></trkpt><trkpt lat="14.553237931323078" lon="120.99229884154084"><ele>10.0</ele><time>2026-03-29T12:33:27Z</time></trkpt><trkpt lat="14.553211337270596" lon="120.99220593931331"><ele>10.0</ele><time>2026-03-29T12:33:28Z</time></trkpt><trkpt lat="14.553185899742285" lon="120.99211707722938"><ele>10.0</ele><time>2026-03-29T12:33:29Z</time></trkpt><trkpt lat="14.5531606034051" lon="120.99202870835505"><ele>10.0</ele><time>2026-03-29T12:33:29.998Z</time></trkpt><trkpt lat="14.553133839641072" lon="120.99194275564601"><ele>10.0</ele><time>2026-03-29T12:33:30.998Z</time></trkpt><trkpt lat="14.55310728242837" lon="120.99185465986176"><ele>10.0</ele><time>2026-03-29T12:33:31.998Z</time></trkpt><trkpt lat="14.553080001310708" lon="120.99176601499316"><ele>10.0</ele><time>2026-03-29T12:33:32.998Z</time></trkpt><trkpt lat="14.55305225555546" lon="120.99167664874138"><ele>10.0</ele><time>2026-03-29T12:33:33.998Z</time></trkpt><trkpt lat="14.553024103970467" lon="120.99158597533562"><ele>9.8</ele><time>2026-03-29T12:33:34.998Z</time></trkpt><trkpt lat="14.55299614617148" lon="120.99149592612211"><ele>9.6</ele><time>2026-03-29T12:33:35.998Z</time></trkpt><trkpt lat="14.552967734634196" lon="120.99140356919091"><ele>9.4</ele><time>2026-03-29T12:33:36.998Z</time></trkpt><trkpt lat="14.552939345679844" lon="120.99131086577623"><ele>9.2</ele><time>2026-03-29T12:33:37.998Z</time></trkpt><trkpt lat="14.55291127937775" lon="120.9912195237182"><ele>9.0</ele><time>2026-03-29T12:33:38.998Z</time></trkpt><trkpt lat="14.552884291858769" lon="120.99113432144239"><ele>9.142857142857144</ele><time>2026-03-29T12:33:39.998Z</time></trkpt><trkpt lat="14.552859904221618" lon="120.99105600102538"><ele>9.285714285714286</ele><time>2026-03-29T12:33:40.998Z</time></trkpt><trkpt lat="14.55283723997536" lon="120.99098321524706"><ele>9.428571428571429</ele><time>2026-03-29T12:33:41.998Z</time></trkpt><trkpt lat="14.55281638064448" lon="120.99091622592607"><ele>9.571428571428573</ele><time>2026-03-29T12:33:42.998Z</time></trkpt><trkpt lat="14.552795180593638" lon="120.99084814236676"><ele>9.714285714285715</ele><time>2026-03-29T12:33:43.998Z</time></trkpt><trkpt lat="14.55277464591763" lon="120.99078219565307"><ele>9.857142857142858</ele><time>2026-03-29T12:33:44.998Z</time></trkpt><trkpt lat="14.552753251018189" lon="120.99071348635844"><ele>10.0</ele><time>2026-03-29T12:33:45.998Z</time></trkpt><trkpt lat="14.552731744934974" lon="120.99064441956726"><ele>10.0</ele><time>2026-03-29T12:33:46.998Z</time></trkpt><trkpt lat="14.552709442493256" lon="120.99057355739117"><ele>10.0</ele><time>2026-03-29T12:33:47.998Z</time></trkpt><trkpt lat="14.552689422213772" lon="120.99050961130627"><ele>10.0</ele><time>2026-03-29T12:33:48.998Z</time></trkpt><trkpt lat="14.552649875834536" lon="120.99038329756955"><ele>10.0</ele><time>2026-03-29T12:33:50.998Z</time></trkpt><trkpt lat="14.552612469430596" lon="120.99031887431926"><ele>10.0</ele><time>2026-03-29T12:33:51.998Z</time></trkpt><trkpt lat="14.55258924572986" lon="120.99023960307971"><ele>10.0</ele><time>2026-03-29T12:33:52.998Z</time></trkpt><trkpt lat="14.552576765188876" lon="120.99015148593948"><ele>10.0</ele><time>2026-03-29T12:33:53.998Z</time></trkpt><trkpt lat="14.552549763815653" lon="120.99006613388458"><ele>10.0</ele><time>2026-03-29T12:33:54.999Z</time></trkpt><trkpt lat="14.552521789873616" lon="120.98997748487261"><ele>10.0</ele><time>2026-03-29T12:33:55.999Z</time></trkpt><trkpt lat="14.552494586538387" lon="120.98989120598718"><ele>10.0</ele><time>2026-03-29T12:33:56.999Z</time></trkpt><trkpt lat="14.552467609437835" lon="120.98980551027827"><ele>10.0</ele><time>2026-03-29T12:33:57.999Z</time></trkpt><trkpt lat="14.552441359364057" lon="120.98972205946335"><ele>10.0</ele><time>2026-03-29T12:33:58.999Z</time></trkpt><trkpt lat="14.55241715746181" lon="120.98963825673387"><ele>10.0</ele><time>2026-03-29T12:33:59.999Z</time></trkpt><trkpt lat="14.552392314519595" lon="120.98955397160474"><ele>10.0</ele><time>2026-03-29T12:34:00.999Z</time></trkpt><trkpt lat="14.552366134887475" lon="120.9894699189146"><ele>10.0</ele><time>2026-03-29T12:34:01.999Z</time></trkpt><trkpt lat="14.552340367175182" lon="120.98938528270801"><ele>10.0</ele><time>2026-03-29T12:34:02.999Z</time></trkpt><trkpt lat="14.552312595190196" lon="120.98929490020453"><ele>10.0</ele><time>2026-03-29T12:34:03.999Z</time></trkpt><trkpt lat="14.552298142805943" lon="120.98920399083994"><ele>10.0</ele><time>2026-03-29T12:34:04.999Z</time></trkpt><trkpt lat="14.552273268545996" lon="120.98911465167761"><ele>9.333333333333334</ele><time>2026-03-29T12:34:05.999Z</time></trkpt><trkpt lat="14.552248054749667" lon="120.98902409300278"><ele>8.666666666666668</ele><time>2026-03-29T12:34:06.999Z</time></trkpt><trkpt lat="14.552222653853999" lon="120.98893286234046"><ele>8.0</ele><time>2026-03-29T12:34:07.999Z</time></trkpt><trkpt lat="14.552198031802215" lon="120.98884442894045"><ele>7.333333333333334</ele><time>2026-03-29T12:34:08.999Z</time></trkpt><trkpt lat="14.552176484193517" lon="120.9887592001557"><ele>6.666666666666667</ele><time>2026-03-29T12:34:09.999Z</time></trkpt><trkpt lat="14.552154510294965" lon="120.98867249164874"><ele>6.0</ele><time>2026-03-29T12:34:10.999Z</time></trkpt><trkpt lat="14.55213349310982" lon="120.9885895583197"><ele>6.0</ele><time>2026-03-29T12:34:11.999Z</time></trkpt><trkpt lat="14.552114436220698" lon="120.98851436028042"><ele>6.0</ele><time>2026-03-29T12:34:12.999Z</time></trkpt><trkpt lat="14.55209784623423" lon="120.9884488962703"><ele>6.0</ele><time>2026-03-29T12:34:13.999Z</time></trkpt><trkpt lat="14.552012389336454" lon="120.98835016833326"><ele>6.0</ele><time>2026-03-29T12:34:15.999Z</time></trkpt><trkpt lat="14.551922947023234" lon="120.98838216571473"><ele>6.0</ele><time>2026-03-29T12:34:17.999Z</time></trkpt><trkpt lat="14.55186801281969" lon="120.98842402030111"><ele>6.0</ele><time>2026-03-29T12:34:21.999Z</time></trkpt><trkpt lat="14.551878677390032" lon="120.98853573214032"><ele>5.833333333333333</ele><time>2026-03-29T12:34:24.999Z</time></trkpt><trkpt lat="14.551898268293169" lon="120.98864875477308"><ele>5.666666666666667</ele><time>2026-03-29T12:34:26.999Z</time></trkpt><trkpt lat="14.551909861946829" lon="120.98871286586831"><ele>5.5</ele><time>2026-03-29T12:34:27.999Z</time></trkpt><trkpt lat="14.551922177174818" lon="120.9887811204033"><ele>5.333333333333334</ele><time>2026-03-29T12:34:28.999Z</time></trkpt><trkpt lat="14.551934964496967" lon="120.98885225246421"><ele>5.166666666666667</ele><time>2026-03-29T12:34:29.999Z</time></trkpt><trkpt lat="14.551949510944802" lon="120.98892385930267"><ele>5.0</ele><time>2026-03-29T12:34:30.999Z</time></trkpt><trkpt lat="14.551964329695764" lon="120.98899381394655"><ele>5.0</ele><time>2026-03-29T12:34:31.999Z</time></trkpt><trkpt lat="14.552000950672609" lon="120.9890566084634"><ele>5.0</ele><time>2026-03-29T12:34:32.999Z</time></trkpt><trkpt lat="14.552022784344276" lon="120.98912485920744"><ele>5.0</ele><time>2026-03-29T12:34:33.999Z</time></trkpt><trkpt lat="14.552043482648445" lon="120.98918956097698"><ele>5.0</ele><time>2026-03-29T12:34:34.999Z</time></trkpt><trkpt lat="14.55207832674839" lon="120.9892945065983"><ele>5.0</ele><time>2026-03-29T12:34:36.999Z</time></trkpt><trkpt lat="14.552104394086435" lon="120.9893766276048"><ele>5.0</ele><time>2026-03-29T12:34:38.999Z</time></trkpt><trkpt lat="14.551945659908856" lon="120.98946081036651"><ele>5.666666666666667</ele><time>2026-03-29T12:34:40.999Z</time></trkpt><trkpt lat="14.551832688300038" lon="120.98949288865718"><ele>6.333333333333334</ele><time>2026-03-29T12:34:42.999Z</time></trkpt><trkpt lat="14.551766678351017" lon="120.98949888422327"><ele>7.0</ele><time>2026-03-29T12:34:43.999Z</time></trkpt><trkpt lat="14.55169871424488" lon="120.98951528677978"><ele>7.666666666666667</ele><time>2026-03-29T12:34:44.999Z</time></trkpt><trkpt lat="14.551623106723968" lon="120.98953231514925"><ele>8.333333333333334</ele><time>2026-03-29T12:34:45.999Z</time></trkpt><trkpt lat="14.551544187625987" lon="120.98955179326417"><ele>9.0</ele><time>2026-03-29T12:34:46.999Z</time></trkpt><trkpt lat="14.55146159497472" lon="120.98957180946388"><ele>9.0</ele><time>2026-03-29T12:34:47.999Z</time></trkpt><trkpt lat="14.551376405705703" lon="120.98959152154526"><ele>9.0</ele><time>2026-03-29T12:34:48.999Z</time></trkpt><trkpt lat="14.551287716963456" lon="120.9896124903196"><ele>9.0</ele><time>2026-03-29T12:34:49.999Z</time></trkpt><trkpt lat="14.551196647693233" lon="120.98963569243051"><ele>9.0</ele><time>2026-03-29T12:34:50.999Z</time></trkpt><trkpt lat="14.55110210993791" lon="120.9896591563618"><ele>9.0</ele><time>2026-03-29T12:34:51.999Z</time></trkpt><trkpt lat="14.55100697663549" lon="120.98968304808895"><ele>8.6</ele><time>2026-03-29T12:34:52.999Z</time></trkpt><trkpt lat="14.550907513726935" lon="120.98970835469278"><ele>8.2</ele><time>2026-03-29T12:34:53.999Z</time></trkpt><trkpt lat="14.550805521495835" lon="120.98973139496314"><ele>7.799999999999999</ele><time>2026-03-29T12:34:54.999Z</time></trkpt><trkpt lat="14.550701708621238" lon="120.98975521360008"><ele>7.3999999999999995</ele><time>2026-03-29T12:34:55.999Z</time></trkpt><trkpt lat="14.550594715012545" lon="120.98978020412581"><ele>7.0</ele><time>2026-03-29T12:34:56.999Z</time></trkpt><trkpt lat="14.550485108114147" lon="120.98980712591964"><ele>7.25</ele><time>2026-03-29T12:34:57.999Z</time></trkpt><trkpt lat="14.550372206753764" lon="120.98983445730772"><ele>7.5</ele><time>2026-03-29T12:34:58.999Z</time></trkpt><trkpt lat="14.550256748787591" lon="120.98986204652746"><ele>7.75</ele><time>2026-03-29T12:34:59.999Z</time></trkpt><trkpt lat="14.55013878886086" lon="120.98989075937051"><ele>8.0</ele><time>2026-03-29T12:35:00.999Z</time></trkpt><trkpt lat="14.550018306308878" lon="120.98991961314162"><ele>8.0</ele><time>2026-03-29T12:35:01.999Z</time></trkpt><trkpt lat="14.549895500801359" lon="120.9899488465046"><ele>8.0</ele><time>2026-03-29T12:35:02.999Z</time></trkpt><trkpt lat="14.549768638409896" lon="120.98997729286445"><ele>8.0</ele><time>2026-03-29T12:35:03.999Z</time></trkpt><trkpt lat="14.549639614895538" lon="120.9900075859409"><ele>8.0</ele><time>2026-03-29T12:35:04.999Z</time></trkpt><trkpt lat="14.54950997983704" lon="120.99003953212627"><ele>8.0</ele><time>2026-03-29T12:35:05.999Z</time></trkpt><trkpt lat="14.549380488952968" lon="120.99007143136798"><ele>8.0</ele><time>2026-03-29T12:35:06.999Z</time></trkpt><trkpt lat="14.549253087399682" lon="120.99010382810147"><ele>8.0</ele><time>2026-03-29T12:35:07.999Z</time></trkpt><trkpt lat="14.54912340711274" lon="120.99013761436552"><ele>8.0</ele><time>2026-03-29T12:35:09Z</time></trkpt><trkpt lat="14.548994258077897" lon="120.99017470878573"><ele>8.0</ele><time>2026-03-29T12:35:10Z</time></trkpt><trkpt lat="14.548866619325835" lon="120.99021589749458"><ele>8.0</ele><time>2026-03-29T12:35:11Z</time></trkpt><trkpt lat="14.54873594195441" lon="120.99025743721195"><ele>8.0</ele><time>2026-03-29T12:35:12Z</time></trkpt><trkpt lat="14.548601818733909" lon="120.99029749600011"><ele>8.0</ele><time>2026-03-29T12:35:13Z</time></trkpt><trkpt lat="14.548465915661566" lon="120.99033631594833"><ele>9.75</ele><time>2026-03-29T12:35:14Z</time></trkpt><trkpt lat="14.548329277964815" lon="120.99037394084077"><ele>11.5</ele><time>2026-03-29T12:35:15Z</time></trkpt><trkpt lat="14.54819130735505" lon="120.99041156884208"><ele>13.25</ele><time>2026-03-29T12:35:16Z</time></trkpt><trkpt lat="14.548052741476837" lon="120.9904500622981"><ele>15.0</ele><time>2026-03-29T12:35:17Z</time></trkpt><trkpt lat="14.547914302584589" lon="120.99048725128753"><ele>13.25</ele><time>2026-03-29T12:35:18Z</time></trkpt><trkpt lat="14.547775133290871" lon="120.99052436310369"><ele>11.5</ele><time>2026-03-29T12:35:19Z</time></trkpt><trkpt lat="14.547634923000839" lon="120.99056132516954"><ele>9.75</ele><time>2026-03-29T12:35:20Z</time></trkpt><trkpt lat="14.547494728045013" lon="120.99059676868073"><ele>8.0</ele><time>2026-03-29T12:35:21Z</time></trkpt><trkpt lat="14.547357570456517" lon="120.9906332052749"><ele>8.0</ele><time>2026-03-29T12:35:22Z</time></trkpt><trkpt lat="14.547224549272912" lon="120.99066918372941"><ele>8.0</ele><time>2026-03-29T12:35:23Z</time></trkpt><trkpt lat="14.547094647751889" lon="120.99070283524443"><ele>8.0</ele><time>2026-03-29T12:35:24Z</time></trkpt><trkpt lat="14.546967129390648" lon="120.99073647010854"><ele>8.0</ele><time>2026-03-29T12:35:25Z</time></trkpt><trkpt lat="14.546844949743742" lon="120.9907694827789"><ele>7.75</ele><time>2026-03-29T12:35:26Z</time></trkpt><trkpt lat="14.54672496848609" lon="120.9908013278246"><ele>7.5</ele><time>2026-03-29T12:35:27Z</time></trkpt><trkpt lat="14.546607769941414" lon="120.99083200006639"><ele>7.25</ele><time>2026-03-29T12:35:28Z</time></trkpt><trkpt lat="14.546494154938362" lon="120.99086382432858"><ele>7.0</ele><time>2026-03-29T12:35:29Z</time></trkpt><trkpt lat="14.546382031452476" lon="120.99089349274337"><ele>7.0</ele><time>2026-03-29T12:35:30Z</time></trkpt><trkpt lat="14.546269671495622" lon="120.99092219931062"><ele>7.0</ele><time>2026-03-29T12:35:31Z</time></trkpt><trkpt lat="14.546154328573923" lon="120.99095033011913"><ele>7.0</ele><time>2026-03-29T12:35:32Z</time></trkpt><trkpt lat="14.546039814069411" lon="120.99098108412622"><ele>7.0</ele><time>2026-03-29T12:35:33Z</time></trkpt><trkpt lat="14.545927442783006" lon="120.99100688142354"><ele>7.0</ele><time>2026-03-29T12:35:34Z</time></trkpt><trkpt lat="14.545818245649913" lon="120.99103366417125"><ele>6.999999999999999</ele><time>2026-03-29T12:35:35Z</time></trkpt><trkpt lat="14.545710365841137" lon="120.99105960561539"><ele>6.999999999999999</ele><time>2026-03-29T12:35:35.998Z</time></trkpt><trkpt lat="14.545603711399526" lon="120.99108438072778"><ele>7.0</ele><time>2026-03-29T12:35:36.998Z</time></trkpt><trkpt lat="14.545495741886144" lon="120.99111144774149"><ele>7.0</ele><time>2026-03-29T12:35:37.998Z</time></trkpt><trkpt lat="14.545394365155282" lon="120.99113401127956"><ele>7.8</ele><time>2026-03-29T12:35:38.998Z</time></trkpt><trkpt lat="14.545286433646325" lon="120.9911537898358"><ele>8.6</ele><time>2026-03-29T12:35:39.998Z</time></trkpt><trkpt lat="14.545181212748004" lon="120.99117994647622"><ele>9.4</ele><time>2026-03-29T12:35:40.998Z</time></trkpt><trkpt lat="14.54507488483033" lon="120.99120487664224"><ele>10.200000000000001</ele><time>2026-03-29T12:35:41.998Z</time></trkpt><trkpt lat="14.544965831783406" lon="120.99122613914214"><ele>11.0</ele><time>2026-03-29T12:35:42.998Z</time></trkpt><trkpt lat="14.544856797047993" lon="120.99124810391534"><ele>11.0</ele><time>2026-03-29T12:35:43.998Z</time></trkpt><trkpt lat="14.544746464612727" lon="120.99126826323548"><ele>11.0</ele><time>2026-03-29T12:35:44.998Z</time></trkpt><trkpt lat="14.544635857405002" lon="120.99128840925188"><ele>11.0</ele><time>2026-03-29T12:35:45.998Z</time></trkpt><trkpt lat="14.544525460081106" lon="120.99130766285384"><ele>11.0</ele><time>2026-03-29T12:35:46.999Z</time></trkpt><trkpt lat="14.544415881447055" lon="120.99132760412276"><ele>11.0</ele><time>2026-03-29T12:35:47.999Z</time></trkpt><trkpt lat="14.544306703644537" lon="120.99134685610673"><ele>10.4</ele><time>2026-03-29T12:35:48.999Z</time></trkpt><trkpt lat="14.544197779083142" lon="120.99136509138327"><ele>9.8</ele><time>2026-03-29T12:35:49.999Z</time></trkpt><trkpt lat="14.544087642398583" lon="120.9913853612233"><ele>9.200000000000001</ele><time>2026-03-29T12:35:50.999Z</time></trkpt><trkpt lat="14.543976698491953" lon="120.99140510830968"><ele>8.600000000000001</ele><time>2026-03-29T12:35:51.999Z</time></trkpt><trkpt lat="14.543867584911961" lon="120.99142302015895"><ele>8.0</ele><time>2026-03-29T12:35:52.999Z</time></trkpt><trkpt lat="14.543759628814604" lon="120.99144139560595"><ele>7.6000000000000005</ele><time>2026-03-29T12:35:53.999Z</time></trkpt><trkpt lat="14.543652953455581" lon="120.99146021295094"><ele>7.200000000000001</ele><time>2026-03-29T12:35:54.999Z</time></trkpt><trkpt lat="14.543550751401304" lon="120.99148004818734"><ele>6.8</ele><time>2026-03-29T12:35:55.999Z</time></trkpt><trkpt lat="14.543458669396909" lon="120.9914983306656"><ele>6.4</ele><time>2026-03-29T12:35:56.999Z</time></trkpt><trkpt lat="14.543371295585684" lon="120.99151569593826"><ele>6.0</ele><time>2026-03-29T12:35:57.999Z</time></trkpt><trkpt lat="14.543284773811818" lon="120.99153094980352"><ele>6.0</ele><time>2026-03-29T12:35:58.999Z</time></trkpt><trkpt lat="14.543194311185083" lon="120.99154849282758"><ele>6.0</ele><time>2026-03-29T12:35:59.999Z</time></trkpt><trkpt lat="14.543096947763186" lon="120.99156457779634"><ele>6.0</ele><time>2026-03-29T12:36:00.999Z</time></trkpt><trkpt lat="14.542995917447177" lon="120.99157991810188"><ele>6.0</ele><time>2026-03-29T12:36:01.999Z</time></trkpt><trkpt lat="14.542892478329499" lon="120.99159481705352"><ele>6.0</ele><time>2026-03-29T12:36:02.999Z</time></trkpt><trkpt lat="14.542790318417918" lon="120.99161199131832"><ele>5.8</ele><time>2026-03-29T12:36:03.999Z</time></trkpt><trkpt lat="14.54269138837883" lon="120.99163020365843"><ele>5.6</ele><time>2026-03-29T12:36:04.999Z</time></trkpt><trkpt lat="14.54259076826438" lon="120.99164791073126"><ele>5.4</ele><time>2026-03-29T12:36:05.999Z</time></trkpt><trkpt lat="14.542489167009206" lon="120.9916669243891"><ele>5.2</ele><time>2026-03-29T12:36:06.999Z</time></trkpt><trkpt lat="14.542385304951534" lon="120.99168217834142"><ele>5.0</ele><time>2026-03-29T12:36:07.999Z</time></trkpt><trkpt lat="14.542284071337857" lon="120.99170382230004"><ele>5.4</ele><time>2026-03-29T12:36:08.999Z</time></trkpt><trkpt lat="14.542180079518644" lon="120.99172277180548"><ele>5.8</ele><time>2026-03-29T12:36:09.999Z</time></trkpt><trkpt lat="14.542075682494566" lon="120.9917420855499"><ele>6.199999999999999</ele><time>2026-03-29T12:36:10.999Z</time></trkpt><trkpt lat="14.54197016657995" lon="120.99176238619079"><ele>6.6</ele><time>2026-03-29T12:36:12Z</time></trkpt><trkpt lat="14.54186347043711" lon="120.99178060137022"><ele>7.0</ele><time>2026-03-29T12:36:13Z</time></trkpt><trkpt lat="14.54175502717638" lon="120.99179912024356"><ele>7.0</ele><time>2026-03-29T12:36:14Z</time></trkpt><trkpt lat="14.541643228049569" lon="120.9918172579304"><ele>7.0</ele><time>2026-03-29T12:36:15Z</time></trkpt><trkpt lat="14.541529062755023" lon="120.9918367309029"><ele>7.0</ele><time>2026-03-29T12:36:16Z</time></trkpt><trkpt lat="14.541411045039695" lon="120.99185731590997"><ele>7.0</ele><time>2026-03-29T12:36:17Z</time></trkpt><trkpt lat="14.541291049302016" lon="120.99187712989536"><ele>10.25</ele><time>2026-03-29T12:36:18Z</time></trkpt><trkpt lat="14.541171691570769" lon="120.99189820630576"><ele>13.5</ele><time>2026-03-29T12:36:19Z</time></trkpt><trkpt lat="14.541049516916914" lon="120.99192003188726"><ele>16.75</ele><time>2026-03-29T12:36:20Z</time></trkpt><trkpt lat="14.540923735426949" lon="120.99194175685382"><ele>20.0</ele><time>2026-03-29T12:36:21Z</time></trkpt><trkpt lat="14.540796178267504" lon="120.99196102314457"><ele>20.0</ele><time>2026-03-29T12:36:22Z</time></trkpt><trkpt lat="14.540665423221922" lon="120.99198265325828"><ele>20.0</ele><time>2026-03-29T12:36:23Z</time></trkpt><trkpt lat="14.54053247036512" lon="120.9920035564225"><ele>20.0</ele><time>2026-03-29T12:36:24Z</time></trkpt><trkpt lat="14.540397714120726" lon="120.99202275203739"><ele>20.0</ele><time>2026-03-29T12:36:25Z</time></trkpt><trkpt lat="14.540260858201236" lon="120.99204018800391"><ele>17.25</ele><time>2026-03-29T12:36:26Z</time></trkpt><trkpt lat="14.540121665668986" lon="120.9920586409039"><ele>14.5</ele><time>2026-03-29T12:36:27Z</time></trkpt><trkpt lat="14.539982541735556" lon="120.99207359791563"><ele>11.75</ele><time>2026-03-29T12:36:28Z</time></trkpt><trkpt lat="14.539845919388066" lon="120.99208876947205"><ele>9.0</ele><time>2026-03-29T12:36:29Z</time></trkpt><trkpt lat="14.53970845096045" lon="120.99210443322764"><ele>9.0</ele><time>2026-03-29T12:36:30Z</time></trkpt><trkpt lat="14.539573303403717" lon="120.99212228463855"><ele>9.0</ele><time>2026-03-29T12:36:31Z</time></trkpt><trkpt lat="14.539433908896465" lon="120.9921379805065"><ele>9.0</ele><time>2026-03-29T12:36:32Z</time></trkpt><trkpt lat="14.539296517334215" lon="120.99215878429513"><ele>9.0</ele><time>2026-03-29T12:36:33Z</time></trkpt><trkpt lat="14.539158027613729" lon="120.99217933439202"><ele>9.0</ele><time>2026-03-29T12:36:34Z</time></trkpt><trkpt lat="14.539019496370681" lon="120.9921984154455"><ele>9.0</ele><time>2026-03-29T12:36:35Z</time></trkpt><trkpt lat="14.538881040525514" lon="120.99221573032402"><ele>9.0</ele><time>2026-03-29T12:36:36Z</time></trkpt><trkpt lat="14.5387419488428" lon="120.99223153484314"><ele>9.0</ele><time>2026-03-29T12:36:37Z</time></trkpt><trkpt lat="14.53860302980755" lon="120.99224542094173"><ele>9.0</ele><time>2026-03-29T12:36:38Z</time></trkpt><trkpt lat="14.538464400436723" lon="120.99226057632487"><ele>9.0</ele><time>2026-03-29T12:36:39Z</time></trkpt><trkpt lat="14.538328242675407" lon="120.99227602849332"><ele>9.0</ele><time>2026-03-29T12:36:40Z</time></trkpt><trkpt lat="14.538193070257213" lon="120.9922914661183"><ele>9.0</ele><time>2026-03-29T12:36:41Z</time></trkpt><trkpt lat="14.538062199751035" lon="120.9923077299909"><ele>9.0</ele><time>2026-03-29T12:36:42Z</time></trkpt><trkpt lat="14.53793279365393" lon="120.99232353564892"><ele>9.0</ele><time>2026-03-29T12:36:43Z</time></trkpt><trkpt lat="14.5378047737" lon="120.99233819651178"><ele>9.0</ele><time>2026-03-29T12:36:44Z</time></trkpt><trkpt lat="14.537677343217059" lon="120.99235217949187"><ele>9.0</ele><time>2026-03-29T12:36:45Z</time></trkpt><trkpt lat="14.537551696506238" lon="120.99236677654169"><ele>8.0</ele><time>2026-03-29T12:36:46Z</time></trkpt><trkpt lat="14.537425929421289" lon="120.99238068898855"><ele>7.0</ele><time>2026-03-29T12:36:47Z</time></trkpt><trkpt lat="14.53730105347599" lon="120.99239645963951"><ele>6.0</ele><time>2026-03-29T12:36:48Z</time></trkpt><trkpt lat="14.53717712434178" lon="120.99240977981933"><ele>5.0</ele><time>2026-03-29T12:36:49Z</time></trkpt><trkpt lat="14.537052850823475" lon="120.99242370278121"><ele>4.75</ele><time>2026-03-29T12:36:50Z</time></trkpt><trkpt lat="14.536928918253825" lon="120.99243753015847"><ele>4.5</ele><time>2026-03-29T12:36:51Z</time></trkpt><trkpt lat="14.536805385652947" lon="120.99245093449898"><ele>4.25</ele><time>2026-03-29T12:36:52Z</time></trkpt><trkpt lat="14.536683239008596" lon="120.99246435880583"><ele>4.0</ele><time>2026-03-29T12:36:53Z</time></trkpt><trkpt lat="14.536562593338644" lon="120.99247842187684"><ele>4.0</ele><time>2026-03-29T12:36:54Z</time></trkpt><trkpt lat="14.536442296746326" lon="120.9924933486854"><ele>4.0</ele><time>2026-03-29T12:36:55Z</time></trkpt><trkpt lat="14.536323211576164" lon="120.9925076161053"><ele>4.0</ele><time>2026-03-29T12:36:56Z</time></trkpt><trkpt lat="14.536203432412968" lon="120.99252178162655"><ele>4.0</ele><time>2026-03-29T12:36:57Z</time></trkpt><trkpt lat="14.53608587002629" lon="120.9925376932662"><ele>5.25</ele><time>2026-03-29T12:36:58Z</time></trkpt><trkpt lat="14.535969043747043" lon="120.99254758827595"><ele>6.5</ele><time>2026-03-29T12:36:59Z</time></trkpt><trkpt lat="14.535848868513433" lon="120.99256310122229"><ele>7.75</ele><time>2026-03-29T12:37:00Z</time></trkpt><trkpt lat="14.535728724277346" lon="120.9925758787291"><ele>9.0</ele><time>2026-03-29T12:37:01Z</time></trkpt><trkpt lat="14.535607608655614" lon="120.9925897996241"><ele>9.0</ele><time>2026-03-29T12:37:02Z</time></trkpt><trkpt lat="14.535486489361984" lon="120.99260431722605"><ele>9.0</ele><time>2026-03-29T12:37:03Z</time></trkpt><trkpt lat="14.535364528267822" lon="120.9926184460343"><ele>9.0</ele><time>2026-03-29T12:37:04Z</time></trkpt><trkpt lat="14.535245092594863" lon="120.9926324479308"><ele>9.0</ele><time>2026-03-29T12:37:05Z</time></trkpt><trkpt lat="14.535128783884055" lon="120.9926457218144"><ele>9.0</ele><time>2026-03-29T12:37:06Z</time></trkpt><trkpt lat="14.535015378692467" lon="120.99265781592807"><ele>9.0</ele><time>2026-03-29T12:37:07Z</time></trkpt><trkpt lat="14.534901876761728" lon="120.99266782790535"><ele>9.0</ele><time>2026-03-29T12:37:08Z</time></trkpt><trkpt lat="14.534793960888326" lon="120.99267576491597"><ele>9.0</ele><time>2026-03-29T12:37:09Z</time></trkpt><trkpt lat="14.534684620735877" lon="120.99268299107784"><ele>9.0</ele><time>2026-03-29T12:37:10Z</time></trkpt><trkpt lat="14.534576596460179" lon="120.99269515443669"><ele>8.6</ele><time>2026-03-29T12:37:11Z</time></trkpt><trkpt lat="14.534467098114817" lon="120.99270366140739"><ele>8.2</ele><time>2026-03-29T12:37:12Z</time></trkpt><trkpt lat="14.53435968420847" lon="120.99271309241475"><ele>7.799999999999999</ele><time>2026-03-29T12:37:13Z</time></trkpt><trkpt lat="14.534252246380495" lon="120.99272377052966"><ele>7.3999999999999995</ele><time>2026-03-29T12:37:14Z</time></trkpt><trkpt lat="14.534147598336672" lon="120.99273295499952"><ele>7.0</ele><time>2026-03-29T12:37:15Z</time></trkpt><trkpt lat="14.534042545536142" lon="120.99274476370702"><ele>7.0</ele><time>2026-03-29T12:37:16Z</time></trkpt><trkpt lat="14.533937700780491" lon="120.99275699912707"><ele>6.999999999999999</ele><time>2026-03-29T12:37:17Z</time></trkpt><trkpt lat="14.533832570227428" lon="120.9927705666553"><ele>6.999999999999999</ele><time>2026-03-29T12:37:18Z</time></trkpt><trkpt lat="14.533729053785269" lon="120.99278057436946"><ele>7.0</ele><time>2026-03-29T12:37:19Z</time></trkpt><trkpt lat="14.53362515458129" lon="120.99279487050055"><ele>7.0</ele><time>2026-03-29T12:37:20Z</time></trkpt><trkpt lat="14.533525573896329" lon="120.99280784198523"><ele>8.2</ele><time>2026-03-29T12:37:21Z</time></trkpt><trkpt lat="14.533428185015769" lon="120.99281982294846"><ele>9.399999999999999</ele><time>2026-03-29T12:37:22Z</time></trkpt><trkpt lat="14.533334451072559" lon="120.99283228037137"><ele>10.600000000000001</ele><time>2026-03-29T12:37:23Z</time></trkpt><trkpt lat="14.533242007586084" lon="120.99284590285382"><ele>11.8</ele><time>2026-03-29T12:37:24Z</time></trkpt><trkpt lat="14.533152879469737" lon="120.9928593535678"><ele>13.0</ele><time>2026-03-29T12:37:25Z</time></trkpt><trkpt lat="14.533062460505342" lon="120.99287162787988"><ele>13.0</ele><time>2026-03-29T12:37:26Z</time></trkpt><trkpt lat="14.532970278438992" lon="120.99288463049238"><ele>13.0</ele><time>2026-03-29T12:37:27Z</time></trkpt><trkpt lat="14.532876099811325" lon="120.99289498709243"><ele>13.0</ele><time>2026-03-29T12:37:28Z</time></trkpt><trkpt lat="14.532778440980008" lon="120.99290886811062"><ele>13.0</ele><time>2026-03-29T12:37:29Z</time></trkpt><trkpt lat="14.532680077805644" lon="120.99291884149619"><ele>13.0</ele><time>2026-03-29T12:37:30Z</time></trkpt><trkpt lat="14.532579106490454" lon="120.99292934890818"><ele>12.0</ele><time>2026-03-29T12:37:31Z</time></trkpt><trkpt lat="14.532479690161749" lon="120.9929408048056"><ele>11.0</ele><time>2026-03-29T12:37:32Z</time></trkpt><trkpt lat="14.532378270930637" lon="120.99295134304208"><ele>10.0</ele><time>2026-03-29T12:37:33Z</time></trkpt><trkpt lat="14.532277685919198" lon="120.99296353986652"><ele>9.0</ele><time>2026-03-29T12:37:34Z</time></trkpt><trkpt lat="14.53217638801695" lon="120.99297604041176"><ele>8.0</ele><time>2026-03-29T12:37:35Z</time></trkpt><trkpt lat="14.532073262819706" lon="120.9929875808488"><ele>7.6000000000000005</ele><time>2026-03-29T12:37:36Z</time></trkpt><trkpt lat="14.531969586418533" lon="120.99299822015354"><ele>7.200000000000001</ele><time>2026-03-29T12:37:37.001Z</time></trkpt><trkpt lat="14.531867342494017" lon="120.99300864829057"><ele>6.8</ele><time>2026-03-29T12:37:38.001Z</time></trkpt><trkpt lat="14.531767071044204" lon="120.99301997160639"><ele>6.4</ele><time>2026-03-29T12:37:39.001Z</time></trkpt><trkpt lat="14.53166857479422" lon="120.99303184298458"><ele>6.0</ele><time>2026-03-29T12:37:40.001Z</time></trkpt><trkpt lat="14.531569462910197" lon="120.9930438561466"><ele>6.0</ele><time>2026-03-29T12:37:41.001Z</time></trkpt><trkpt lat="14.531470615022151" lon="120.99305601845154"><ele>6.0</ele><time>2026-03-29T12:37:42Z</time></trkpt><trkpt lat="14.531374115955902" lon="120.99306795194975"><ele>6.0</ele><time>2026-03-29T12:37:43Z</time></trkpt><trkpt lat="14.53128231091913" lon="120.9930797069098"><ele>6.0</ele><time>2026-03-29T12:37:44Z</time></trkpt><trkpt lat="14.53120306201132" lon="120.9930913561903"><ele>6.0</ele><time>2026-03-29T12:37:45Z</time></trkpt><trkpt lat="14.531137404788371" lon="120.99309934371666"><ele>6.0</ele><time>2026-03-29T12:37:46Z</time></trkpt><trkpt lat="14.53102935685786" lon="120.9931126948558"><ele>5.3999999999999995</ele><time>2026-03-29T12:37:48Z</time></trkpt><trkpt lat="14.530924317730182" lon="120.9931281461121"><ele>4.8</ele><time>2026-03-29T12:37:50Z</time></trkpt><trkpt lat="14.53081782483345" lon="120.99313998153157"><ele>4.199999999999999</ele><time>2026-03-29T12:37:52Z</time></trkpt><trkpt lat="14.530698136105437" lon="120.99315076477006"><ele>3.5999999999999996</ele><time>2026-03-29T12:37:54Z</time></trkpt><trkpt lat="14.530633053191583" lon="120.99315801838162"><ele>3.0</ele><time>2026-03-29T12:37:55Z</time></trkpt><trkpt lat="14.53056257206844" lon="120.99316318821316"><ele>3.0</ele><time>2026-03-29T12:37:56Z</time></trkpt><trkpt lat="14.530489648233505" lon="120.99316654393043"><ele>3.0</ele><time>2026-03-29T12:37:57Z</time></trkpt><trkpt lat="14.530413616102065" lon="120.99317053217406"><ele>3.0</ele><time>2026-03-29T12:37:58Z</time></trkpt><trkpt lat="14.530335477374498" lon="120.99317523853614"><ele>3.0</ele><time>2026-03-29T12:37:59Z</time></trkpt><trkpt lat="14.530254920559143" lon="120.99318101696925"><ele>3.0</ele><time>2026-03-29T12:38:00Z</time></trkpt><trkpt lat="14.530176164427488" lon="120.99318632896505"><ele>3.0</ele><time>2026-03-29T12:38:01Z</time></trkpt><trkpt lat="14.530099174424643" lon="120.99319294424929"><ele>3.666666666666667</ele><time>2026-03-29T12:38:02Z</time></trkpt><trkpt lat="14.53002156153725" lon="120.99319884700816"><ele>4.333333333333334</ele><time>2026-03-29T12:38:03Z</time></trkpt><trkpt lat="14.529947409432006" lon="120.99320590163653"><ele>5.0</ele><time>2026-03-29T12:38:04Z</time></trkpt><trkpt lat="14.529880157898742" lon="120.99321163150725"><ele>5.666666666666667</ele><time>2026-03-29T12:38:05Z</time></trkpt><trkpt lat="14.52976027923028" lon="120.9932101968754"><ele>6.333333333333334</ele><time>2026-03-29T12:38:07Z</time></trkpt><trkpt lat="14.529686356104547" lon="120.99323183554449"><ele>7.0</ele><time>2026-03-29T12:38:09Z</time></trkpt><trkpt lat="14.529646701763243" lon="120.99314047957989"><ele>7.0</ele><time>2026-03-29T12:38:10Z</time></trkpt><trkpt lat="14.529611996052408" lon="120.9930612419811"><ele>6.999999999999999</ele><time>2026-03-29T12:38:12Z</time></trkpt><trkpt lat="14.529594251385486" lon="120.99297144445974"><ele>6.999999999999999</ele><time>2026-03-29T12:38:14Z</time></trkpt><trkpt lat="14.529606089817777" lon="120.99287656607494"><ele>7.0</ele><time>2026-03-29T12:38:16Z</time></trkpt><trkpt lat="14.529594643426568" lon="120.99276971340838"><ele>7.0</ele><time>2026-03-29T12:38:18Z</time></trkpt><trkpt lat="14.529580487674604" lon="120.99263990916187"><ele>7.000000000000001</ele><time>2026-03-29T12:38:20Z</time></trkpt><trkpt lat="14.529572459647715" lon="120.992566747023"><ele>7.0</ele><time>2026-03-29T12:38:21Z</time></trkpt><trkpt lat="14.529563961416219" lon="120.99248899910738"><ele>7.0</ele><time>2026-03-29T12:38:22.001Z</time></trkpt><trkpt lat="14.529555327785557" lon="120.99241010954843"><ele>7.0</ele><time>2026-03-29T12:38:23.001Z</time></trkpt><trkpt lat="14.52954645677296" lon="120.99232930066638"><ele>7.000000000000001</ele><time>2026-03-29T12:38:24.001Z</time></trkpt><trkpt lat="14.52953723094127" lon="120.99224525962283"><ele>7.0</ele><time>2026-03-29T12:38:25.001Z</time></trkpt><trkpt lat="14.52952763044209" lon="120.99215780561345"><ele>6.199999999999999</ele><time>2026-03-29T12:38:26.001Z</time></trkpt><trkpt lat="14.529517765612912" lon="120.9920679437329"><ele>5.3999999999999995</ele><time>2026-03-29T12:38:27.001Z</time></trkpt><trkpt lat="14.52950764106155" lon="120.99197571596389"><ele>4.6</ele><time>2026-03-29T12:38:28.001Z</time></trkpt><trkpt lat="14.529497455754502" lon="120.9918829344292"><ele>3.8</ele><time>2026-03-29T12:38:29.001Z</time></trkpt><trkpt lat="14.529487213705352" lon="120.99178803131792"><ele>3.0</ele><time>2026-03-29T12:38:30.001Z</time></trkpt><trkpt lat="14.529476401861823" lon="120.991688368301"><ele>3.2</ele><time>2026-03-29T12:38:31.001Z</time></trkpt><trkpt lat="14.52946528711351" lon="120.99158591311077"><ele>3.4</ele><time>2026-03-29T12:38:32.001Z</time></trkpt><trkpt lat="14.529453580017574" lon="120.99147904191807"><ele>3.6000000000000005</ele><time>2026-03-29T12:38:33.001Z</time></trkpt><trkpt lat="14.529441783553017" lon="120.99137007629301"><ele>3.8000000000000003</ele><time>2026-03-29T12:38:34.001Z</time></trkpt><trkpt lat="14.52942999031994" lon="120.99126114052103"><ele>4.0</ele><time>2026-03-29T12:38:35.001Z</time></trkpt><trkpt lat="14.52941762665646" lon="120.99114875154446"><ele>4.0</ele><time>2026-03-29T12:38:36.001Z</time></trkpt><trkpt lat="14.529405589446009" lon="120.99104094276603"><ele>4.0</ele><time>2026-03-29T12:38:37.001Z</time></trkpt><trkpt lat="14.529393535905323" lon="120.99093298770883"><ele>4.0</ele><time>2026-03-29T12:38:38.001Z</time></trkpt><trkpt lat="14.529381946429583" lon="120.9908291889623"><ele>4.0</ele><time>2026-03-29T12:38:39.001Z</time></trkpt><trkpt lat="14.529370543546175" lon="120.99072706138718"><ele>4.0</ele><time>2026-03-29T12:38:40.001Z</time></trkpt><trkpt lat="14.529360685999967" lon="120.99062959986229"><ele>3.833333333333333</ele><time>2026-03-29T12:38:41.001Z</time></trkpt><trkpt lat="14.52935179332114" lon="120.99053679656878"><ele>3.6666666666666665</ele><time>2026-03-29T12:38:42.001Z</time></trkpt><trkpt lat="14.52934316464491" lon="120.99045011993897"><ele>3.5</ele><time>2026-03-29T12:38:43.001Z</time></trkpt><trkpt lat="14.529334245545067" lon="120.99037364103575"><ele>3.333333333333333</ele><time>2026-03-29T12:38:44.001Z</time></trkpt><trkpt lat="14.529326883427474" lon="120.99030862788753"><ele>3.1666666666666665</ele><time>2026-03-29T12:38:45.001Z</time></trkpt><trkpt lat="14.529316070451724" lon="120.99021314099821"><ele>3.0</ele><time>2026-03-29T12:38:47.001Z</time></trkpt><trkpt lat="14.529307535975557" lon="120.99013372801274"><ele>3.0</ele><time>2026-03-29T12:38:50.001Z</time></trkpt><trkpt lat="14.52925044146699" lon="120.99005530500844"><ele>3.0</ele><time>2026-03-29T12:39:31.001Z</time></trkpt><trkpt lat="14.52924031130519" lon="120.98995923403768"><ele>3.0</ele><time>2026-03-29T12:39:33.001Z</time></trkpt><trkpt lat="14.529282145490376" lon="120.98989433813475"><ele>3.0</ele><time>2026-03-29T12:39:34.001Z</time></trkpt><trkpt lat="14.529275125802549" lon="120.98982778348734"><ele>3.0</ele><time>2026-03-29T12:39:35.001Z</time></trkpt><trkpt lat="14.529267075537062" lon="120.98975214209652"><ele>3.0</ele><time>2026-03-29T12:39:36.001Z</time></trkpt><trkpt lat="14.529258195369767" lon="120.98966870220909"><ele>1.7999999999999998</ele><time>2026-03-29T12:39:37.001Z</time></trkpt><trkpt lat="14.529247886842613" lon="120.98958135708506"><ele>0.5999999999999999</ele><time>2026-03-29T12:39:38.001Z</time></trkpt><trkpt lat="14.529237541641582" lon="120.98948999105765"><ele>-0.5999999999999999</ele><time>2026-03-29T12:39:39.001Z</time></trkpt><trkpt lat="14.529227435216058" lon="120.9893952767437"><ele>-1.7999999999999998</ele><time>2026-03-29T12:39:40.001Z</time></trkpt><trkpt lat="14.529216706127484" lon="120.98929653611438"><ele>-3.0</ele><time>2026-03-29T12:39:41.001Z</time></trkpt><trkpt lat="14.529205798669677" lon="120.98919615394534"><ele>-2.0</ele><time>2026-03-29T12:39:42.001Z</time></trkpt><trkpt lat="14.529194890189675" lon="120.9890943762853"><ele>-0.9999999999999998</ele><time>2026-03-29T12:39:43.001Z</time></trkpt><trkpt lat="14.52918390951667" lon="120.98899069611231"><ele>2.220446049250313E-16</ele><time>2026-03-29T12:39:44.001Z</time></trkpt><trkpt lat="14.52917331206067" lon="120.98889063397479"><ele>1.0</ele><time>2026-03-29T12:39:45.001Z</time></trkpt><trkpt lat="14.529162350455964" lon="120.98879467695342"><ele>2.0</ele><time>2026-03-29T12:39:46.001Z</time></trkpt><trkpt lat="14.529152075227382" lon="120.9887032373023"><ele>1.9999999999999998</ele><time>2026-03-29T12:39:47.001Z</time></trkpt><trkpt lat="14.529141918437183" lon="120.98861534828215"><ele>2.0</ele><time>2026-03-29T12:39:48.001Z</time></trkpt><trkpt lat="14.529133088266935" lon="120.9885390942154"><ele>2.0</ele><time>2026-03-29T12:39:49.001Z</time></trkpt><trkpt lat="14.52912501218514" lon="120.9884679172222"><ele>2.0</ele><time>2026-03-29T12:39:50.001Z</time></trkpt><trkpt lat="14.529117121417288" lon="120.98839303934896"><ele>1.9999999999999998</ele><time>2026-03-29T12:39:51.001Z</time></trkpt><trkpt lat="14.529108617056922" lon="120.98831233890566"><ele>2.0</ele><time>2026-03-29T12:39:52.001Z</time></trkpt><trkpt lat="14.52909956392747" lon="120.98822643103625"><ele>2.0</ele><time>2026-03-29T12:39:53.001Z</time></trkpt><trkpt lat="14.529089890921737" lon="120.98813464097283"><ele>2.0</ele><time>2026-03-29T12:39:54.001Z</time></trkpt><trkpt lat="14.529079694753337" lon="120.98803788646391"><ele>2.0</ele><time>2026-03-29T12:39:55.001Z</time></trkpt><trkpt lat="14.529069127336845" lon="120.98793760907134"><ele>2.0</ele><time>2026-03-29T12:39:56.001Z</time></trkpt><trkpt lat="14.52905807950453" lon="120.98783277286347"><ele>2.0</ele><time>2026-03-29T12:39:57.001Z</time></trkpt><trkpt lat="14.529046654569083" lon="120.98772435762213"><ele>2.0</ele><time>2026-03-29T12:39:58.001Z</time></trkpt><trkpt lat="14.529034087390087" lon="120.98761431325818"><ele>2.0</ele><time>2026-03-29T12:39:59.001Z</time></trkpt><trkpt lat="14.529021317409557" lon="120.98750193237468"><ele>2.0</ele><time>2026-03-29T12:40:00.001Z</time></trkpt><trkpt lat="14.529008344825321" lon="120.98738776848505"><ele>2.0</ele><time>2026-03-29T12:40:01.001Z</time></trkpt><trkpt lat="14.528995062024944" lon="120.98727087462717"><ele>2.0</ele><time>2026-03-29T12:40:02.001Z</time></trkpt><trkpt lat="14.528983337674271" lon="120.98715287814733"><ele>2.75</ele><time>2026-03-29T12:40:03.001Z</time></trkpt><trkpt lat="14.528974617368949" lon="120.98703029076735"><ele>3.5</ele><time>2026-03-29T12:40:04.001Z</time></trkpt><trkpt lat="14.528960193841915" lon="120.98690471519612"><ele>4.25</ele><time>2026-03-29T12:40:05.001Z</time></trkpt><trkpt lat="14.528946084928485" lon="120.98678106052576"><ele>5.0</ele><time>2026-03-29T12:40:06.001Z</time></trkpt><trkpt lat="14.528932206624738" lon="120.98665942699179"><ele>5.0</ele><time>2026-03-29T12:40:07.001Z</time></trkpt><trkpt lat="14.528918694945625" lon="120.98654100666563"><ele>5.0</ele><time>2026-03-29T12:40:08.001Z</time></trkpt><trkpt lat="14.528905616102646" lon="120.98642637983804"><ele>5.0</ele><time>2026-03-29T12:40:09.001Z</time></trkpt><trkpt lat="14.528892807454854" lon="120.98631412107711"><ele>5.0</ele><time>2026-03-29T12:40:10.001Z</time></trkpt><trkpt lat="14.528880479300344" lon="120.98620469481642"><ele>5.0</ele><time>2026-03-29T12:40:11.001Z</time></trkpt><trkpt lat="14.52886858911918" lon="120.98609858324576"><ele>5.0</ele><time>2026-03-29T12:40:12.001Z</time></trkpt><trkpt lat="14.528857160164193" lon="120.98599658779045"><ele>5.0</ele><time>2026-03-29T12:40:13.001Z</time></trkpt><trkpt lat="14.528846264085942" lon="120.98589934787515"><ele>5.0</ele><time>2026-03-29T12:40:14.001Z</time></trkpt><trkpt lat="14.528835886894772" lon="120.9858067386981"><ele>5.0</ele><time>2026-03-29T12:40:15.001Z</time></trkpt><trkpt lat="14.528825949290008" lon="120.98571805249293"><ele>5.0</ele><time>2026-03-29T12:40:16.001Z</time></trkpt><trkpt lat="14.528804120097615" lon="120.98563088692488"><ele>5.5</ele><time>2026-03-29T12:40:17.001Z</time></trkpt><trkpt lat="14.528802604453704" lon="120.98554683495729"><ele>6.0</ele><time>2026-03-29T12:40:18.001Z</time></trkpt><trkpt lat="14.528795223278006" lon="120.98546785945928"><ele>6.5</ele><time>2026-03-29T12:40:19.001Z</time></trkpt><trkpt lat="14.528785983292984" lon="120.98539193851258"><ele>7.0</ele><time>2026-03-29T12:40:20.001Z</time></trkpt><trkpt lat="14.528777837983094" lon="120.98531772555435"><ele>7.499999999999999</ele><time>2026-03-29T12:40:21.001Z</time></trkpt><trkpt lat="14.528767879484061" lon="120.98524235273646"><ele>8.0</ele><time>2026-03-29T12:40:22.001Z</time></trkpt><trkpt lat="14.528758730939208" lon="120.98516533672222"><ele>7.999999999999999</ele><time>2026-03-29T12:40:23.001Z</time></trkpt><trkpt lat="14.528747989093398" lon="120.98509108139224"><ele>8.0</ele><time>2026-03-29T12:40:24.001Z</time></trkpt><trkpt lat="14.528752082137345" lon="120.985016857409"><ele>8.0</ele><time>2026-03-29T12:40:25.001Z</time></trkpt><trkpt lat="14.52874461792181" lon="120.98494664836869"><ele>8.0</ele><time>2026-03-29T12:40:26.001Z</time></trkpt><trkpt lat="14.528737384434857" lon="120.9848785559413"><ele>7.999999999999999</ele><time>2026-03-29T12:40:27.001Z</time></trkpt><trkpt lat="14.528720381709086" lon="120.98476261961265"><ele>8.0</ele><time>2026-03-29T12:40:29.001Z</time></trkpt><trkpt lat="14.528523424462547" lon="120.98474271112941"><ele>7.499999999999999</ele><time>2026-03-29T12:40:30.001Z</time></trkpt><trkpt lat="14.528453418856401" lon="120.98471973158401"><ele>7.0</ele><time>2026-03-29T12:40:31.001Z</time></trkpt><trkpt lat="14.52838277688673" lon="120.98473359872197"><ele>6.5</ele><time>2026-03-29T12:40:32.001Z</time></trkpt><trkpt lat="14.52830680229701" lon="120.98474181312942"><ele>6.0</ele><time>2026-03-29T12:40:33.001Z</time></trkpt><trkpt lat="14.528227476075397" lon="120.98475038991438"><ele>5.5</ele><time>2026-03-29T12:40:34.001Z</time></trkpt><trkpt lat="14.52814600102059" lon="120.98475919903277"><ele>5.0</ele><time>2026-03-29T12:40:35.001Z</time></trkpt><trkpt lat="14.528061796208824" lon="120.98476830329275"><ele>5.0</ele><time>2026-03-29T12:40:36.001Z</time></trkpt><trkpt lat="14.527970697802276" lon="120.9847695491119"><ele>5.0</ele><time>2026-03-29T12:40:37.001Z</time></trkpt><trkpt lat="14.527876260809789" lon="120.98478384673624"><ele>5.0</ele><time>2026-03-29T12:40:38.001Z</time></trkpt><trkpt lat="14.527773452283995" lon="120.98479875959718"><ele>5.0</ele><time>2026-03-29T12:40:39.001Z</time></trkpt><trkpt lat="14.5276648911323" lon="120.98481266492666"><ele>5.0</ele><time>2026-03-29T12:40:40.001Z</time></trkpt><trkpt lat="14.52755195292991" lon="120.98482571064584"><ele>3.5</ele><time>2026-03-29T12:40:41.001Z</time></trkpt><trkpt lat="14.527434427367563" lon="120.98483933668818"><ele>2.0</ele><time>2026-03-29T12:40:42.001Z</time></trkpt><trkpt lat="14.527314163991068" lon="120.98485205088336"><ele>0.5</ele><time>2026-03-29T12:40:43.001Z</time></trkpt><trkpt lat="14.527191909473606" lon="120.98486671011594"><ele>-1.0</ele><time>2026-03-29T12:40:44.001Z</time></trkpt><trkpt lat="14.527065103855588" lon="120.98488011710018"><ele>-0.25</ele><time>2026-03-29T12:40:45.001Z</time></trkpt><trkpt lat="14.526933692458323" lon="120.98489244239464"><ele>0.5</ele><time>2026-03-29T12:40:46.001Z</time></trkpt><trkpt lat="14.52679971319266" lon="120.9849049446166"><ele>1.25</ele><time>2026-03-29T12:40:47.001Z</time></trkpt><trkpt lat="14.526665087798333" lon="120.98491728679534"><ele>2.0</ele><time>2026-03-29T12:40:48.001Z</time></trkpt><trkpt lat="14.526529932540283" lon="120.98493160638903"><ele>2.0</ele><time>2026-03-29T12:40:49.001Z</time></trkpt><trkpt lat="14.526393346614972" lon="120.98494566701368"><ele>2.0</ele><time>2026-03-29T12:40:50.001Z</time></trkpt><trkpt lat="14.526259773924208" lon="120.98496165031366"><ele>2.0</ele><time>2026-03-29T12:40:51.001Z</time></trkpt><trkpt lat="14.526130055758564" lon="120.98497803771888"><ele>2.0</ele><time>2026-03-29T12:40:52.001Z</time></trkpt><trkpt lat="14.526004378407645" lon="120.98499391439537"><ele>2.0</ele><time>2026-03-29T12:40:53.001Z</time></trkpt><trkpt lat="14.525879042441371" lon="120.98500917559396"><ele>2.0</ele><time>2026-03-29T12:40:54.001Z</time></trkpt><trkpt lat="14.52575854293229" lon="120.98502571745108"><ele>2.0</ele><time>2026-03-29T12:40:55.001Z</time></trkpt><trkpt lat="14.525646255435365" lon="120.98503811867968"><ele>2.0</ele><time>2026-03-29T12:40:56.001Z</time></trkpt><trkpt lat="14.525543232659258" lon="120.98505021482967"><ele>1.9999999999999998</ele><time>2026-03-29T12:40:57.001Z</time></trkpt><trkpt lat="14.525446458617745" lon="120.98506134348496"><ele>2.0</ele><time>2026-03-29T12:40:58.001Z</time></trkpt><trkpt lat="14.525355306205473" lon="120.98507219874972"><ele>2.0</ele><time>2026-03-29T12:40:59.001Z</time></trkpt><trkpt lat="14.525268033299318" lon="120.98508088633763"><ele>2.0</ele><time>2026-03-29T12:41:00.001Z</time></trkpt><trkpt lat="14.525182908419893" lon="120.9850902679656"><ele>1.9999999999999998</ele><time>2026-03-29T12:41:01.001Z</time></trkpt><trkpt lat="14.52510216334478" lon="120.98509926010514"><ele>2.0</ele><time>2026-03-29T12:41:02.001Z</time></trkpt><trkpt lat="14.525026952547051" lon="120.98510592766048"><ele>1.4000000000000001</ele><time>2026-03-29T12:41:03.001Z</time></trkpt><trkpt lat="14.524960690302548" lon="120.98511295340525"><ele>0.8000000000000002</ele><time>2026-03-29T12:41:04.001Z</time></trkpt><trkpt lat="14.524897466442331" lon="120.98511991655468"><ele>0.19999999999999996</ele><time>2026-03-29T12:41:05.001Z</time></trkpt><trkpt lat="14.524789469770377" lon="120.98513107231949"><ele>-0.4</ele><time>2026-03-29T12:41:07.001Z</time></trkpt><trkpt lat="14.524690839886322" lon="120.98510670929241"><ele>-1.0</ele><time>2026-03-29T12:41:09.001Z</time></trkpt><trkpt lat="14.524612764775187" lon="120.98500998091639"><ele>-1.5</ele><time>2026-03-29T12:41:11.001Z</time></trkpt><trkpt lat="14.524596684993112" lon="120.98494166940165"><ele>-2.0</ele><time>2026-03-29T12:41:12.001Z</time></trkpt><trkpt lat="14.524580646934" lon="120.98486581015996"><ele>-2.5</ele><time>2026-03-29T12:41:13.001Z</time></trkpt><trkpt lat="14.524570302698644" lon="120.98478011417293"><ele>-3.0</ele><time>2026-03-29T12:41:14.001Z</time></trkpt><trkpt lat="14.524561359002206" lon="120.9846876824969"><ele>-3.4999999999999996</ele><time>2026-03-29T12:41:15.001Z</time></trkpt><trkpt lat="14.52455033977519" lon="120.98459042849609"><ele>-4.0</ele><time>2026-03-29T12:41:16.001Z</time></trkpt><trkpt lat="14.524538116021125" lon="120.98448825692695"><ele>-4.0</ele><time>2026-03-29T12:41:17.001Z</time></trkpt><trkpt lat="14.524525717636022" lon="120.98438082534122"><ele>-4.0</ele><time>2026-03-29T12:41:18.002Z</time></trkpt><trkpt lat="14.524514228116042" lon="120.98426824812323"><ele>-4.0</ele><time>2026-03-29T12:41:19.002Z</time></trkpt><trkpt lat="14.524502134134824" lon="120.9841534728373"><ele>-4.0</ele><time>2026-03-29T12:41:20.002Z</time></trkpt><trkpt lat="14.524489639189445" lon="120.98403472149808"><ele>-4.0</ele><time>2026-03-29T12:41:21.002Z</time></trkpt><trkpt lat="14.524475228875874" lon="120.98391312123329"><ele>-2.0</ele><time>2026-03-29T12:41:22.002Z</time></trkpt><trkpt lat="14.524462195508427" lon="120.98379010329992"><ele>0.0</ele><time>2026-03-29T12:41:23.002Z</time></trkpt><trkpt lat="14.524449295260599" lon="120.98367130767883"><ele>2.0</ele><time>2026-03-29T12:41:24.002Z</time></trkpt><trkpt lat="14.524436558461973" lon="120.98355578269559"><ele>4.0</ele><time>2026-03-29T12:41:25.002Z</time></trkpt><trkpt lat="14.5244244171581" lon="120.98344594321738"><ele>4.333333333333333</ele><time>2026-03-29T12:41:26.002Z</time></trkpt><trkpt lat="14.52441296930663" lon="120.98334383143441"><ele>4.666666666666666</ele><time>2026-03-29T12:41:27.002Z</time></trkpt><trkpt lat="14.52440215256657" lon="120.9832508943343"><ele>5.0</ele><time>2026-03-29T12:41:28.002Z</time></trkpt><trkpt lat="14.52439259308091" lon="120.98316724416877"><ele>5.333333333333333</ele><time>2026-03-29T12:41:29.002Z</time></trkpt><trkpt lat="14.52438410084789" lon="120.98309211907907"><ele>5.666666666666667</ele><time>2026-03-29T12:41:30.002Z</time></trkpt><trkpt lat="14.524375710806126" lon="120.9830204271698"><ele>6.0</ele><time>2026-03-29T12:41:31.002Z</time></trkpt><trkpt lat="14.524368352655776" lon="120.982954379576"><ele>6.0</ele><time>2026-03-29T12:41:32.002Z</time></trkpt><trkpt lat="14.524355232334257" lon="120.98284024072409"><ele>6.0</ele><time>2026-03-29T12:41:34.002Z</time></trkpt><trkpt lat="14.524345662887898" lon="120.98275024598124"><ele>6.0</ele><time>2026-03-29T12:41:36.002Z</time></trkpt><trkpt lat="14.524338076989798" lon="120.98267046298078"><ele>6.0</ele><time>2026-03-29T12:41:39.002Z</time></trkpt><trkpt lat="14.524312825444126" lon="120.98260818239521"><ele>6.0</ele><time>2026-03-29T12:41:43.002Z</time></trkpt><trkpt lat="14.524235564383586" lon="120.98258214614663"><ele>6.0</ele><time>2026-03-29T12:41:46.002Z</time></trkpt><trkpt lat="14.524169712572549" lon="120.98258022880269"><ele>6.0</ele><time>2026-03-29T12:41:48.002Z</time></trkpt><trkpt lat="14.52410129372721" lon="120.98258044783627"><ele>6.0</ele><time>2026-03-29T12:41:50.002Z</time></trkpt><trkpt lat="14.524020320049564" lon="120.98258511441962"><ele>6.0</ele><time>2026-03-29T12:41:52.002Z</time></trkpt><trkpt lat="14.523924563634973" lon="120.98259485902425"><ele>6.0</ele><time>2026-03-29T12:41:54.002Z</time></trkpt><trkpt lat="14.52382476851673" lon="120.98260544532606"><ele>6.0</ele><time>2026-03-29T12:41:56.002Z</time></trkpt><trkpt lat="14.523729715782762" lon="120.98261539424267"><ele>6.0</ele><time>2026-03-29T12:41:58.002Z</time></trkpt><trkpt lat="14.523663365553608" lon="120.98262374990185"><ele>7.285714285714285</ele><time>2026-03-29T12:42:00.001Z</time></trkpt><trkpt lat="14.523597866086657" lon="120.98263281544993"><ele>8.571428571428571</ele><time>2026-03-29T12:42:04.001Z</time></trkpt><trkpt lat="14.523537956238517" lon="120.9826063815097"><ele>9.857142857142858</ele><time>2026-03-29T12:42:07.001Z</time></trkpt><trkpt lat="14.523508720918516" lon="120.98254361097432"><ele>11.142857142857142</ele><time>2026-03-29T12:42:10.001Z</time></trkpt><trkpt lat="14.523513525508255" lon="120.98246876029467"><ele>12.428571428571427</ele><time>2026-03-29T12:42:14.001Z</time></trkpt><trkpt lat="14.523505047984466" lon="120.98239809222272"><ele>13.714285714285715</ele><time>2026-03-29T12:42:20.001Z</time></trkpt><trkpt lat="14.523499010680023" lon="120.98233177816101"><ele>15.0</ele><time>2026-03-29T12:42:23.001Z</time></trkpt><trkpt lat="14.523477403014933" lon="120.98226215056852"><ele>15.0</ele><time>2026-03-29T12:42:26.001Z</time></trkpt><trkpt lat="14.523383838371123" lon="120.98230382013416"><ele>15.0</ele><time>2026-03-29T12:42:33.001Z</time></trkpt><trkpt lat="14.523310604136489" lon="120.98230236616088"><ele>15.0</ele><time>2026-03-29T12:42:36.001Z</time></trkpt><trkpt lat="14.523244843374625" lon="120.98229628374942"><ele>15.0</ele><time>2026-03-29T12:42:38.001Z</time></trkpt><trkpt lat="14.523177744648136" lon="120.98228474155246"><ele>15.0</ele><time>2026-03-29T12:42:40.001Z</time></trkpt><trkpt lat="14.52310537464401" lon="120.98226828263556"><ele>15.0</ele><time>2026-03-29T12:42:42.001Z</time></trkpt><trkpt lat="14.523029323828375" lon="120.98224967181602"><ele>15.0</ele><time>2026-03-29T12:42:44.001Z</time></trkpt><trkpt lat="14.522950969842285" lon="120.98223099709213"><ele>15.0</ele><time>2026-03-29T12:42:46.001Z</time></trkpt><trkpt lat="14.523012671320298" lon="120.98225178218209"><ele>15.0</ele><time>2026-03-29T12:42:52.001Z</time></trkpt><trkpt lat="14.523589086201987" lon="120.98270384076585"><ele>15.25</ele><time>2026-03-29T12:48:26.003Z</time></trkpt><trkpt lat="14.523542289549539" lon="120.98260740350317"><ele>15.5</ele><time>2026-03-29T12:48:30.003Z</time></trkpt><trkpt lat="14.523393627068101" lon="120.9827074810836"><ele>15.75</ele><time>2026-03-29T12:48:36.002Z</time></trkpt><trkpt lat="14.523276348044739" lon="120.98271543535125"><ele>16.0</ele><time>2026-03-29T12:48:38.002Z</time></trkpt><trkpt lat="14.523162065821783" lon="120.98272230967397"><ele>16.0</ele><time>2026-03-29T12:48:40.002Z</time></trkpt><trkpt lat="14.52304812379106" lon="120.98273101771075"><ele>16.0</ele><time>2026-03-29T12:48:42.002Z</time></trkpt><trkpt lat="14.522928321012758" lon="120.98274375435481"><ele>16.0</ele><time>2026-03-29T12:48:44.002Z</time></trkpt><trkpt lat="14.522828833456787" lon="120.98277809766687"><ele>16.0</ele><time>2026-03-29T12:48:46.002Z</time></trkpt><trkpt lat="14.522804823832276" lon="120.98288424009642"><ele>16.0</ele><time>2026-03-29T12:48:48.002Z</time></trkpt><trkpt lat="14.522812295594028" lon="120.98299338540586"><ele>15.166666666666666</ele><time>2026-03-29T12:48:50.002Z</time></trkpt><trkpt lat="14.52284055775458" lon="120.98312215098247"><ele>14.333333333333332</ele><time>2026-03-29T12:48:52.002Z</time></trkpt><trkpt lat="14.522858003919941" lon="120.98319323148587"><ele>13.5</ele><time>2026-03-29T12:48:53.002Z</time></trkpt><trkpt lat="14.522877507137656" lon="120.98327128027705"><ele>12.666666666666666</ele><time>2026-03-29T12:48:54.001Z</time></trkpt><trkpt lat="14.522898067154689" lon="120.98334856625974"><ele>11.833333333333332</ele><time>2026-03-29T12:48:55.001Z</time></trkpt><trkpt lat="14.52291795886608" lon="120.9834337465751"><ele>11.0</ele><time>2026-03-29T12:48:56.001Z</time></trkpt><trkpt lat="14.522931336716809" lon="120.98352069775495"><ele>9.4</ele><time>2026-03-29T12:48:57.001Z</time></trkpt><trkpt lat="14.522941317524259" lon="120.98361399679627"><ele>7.800000000000001</ele><time>2026-03-29T12:48:58.001Z</time></trkpt><trkpt lat="14.52295349221713" lon="120.98370727561125"><ele>6.2</ele><time>2026-03-29T12:48:59.001Z</time></trkpt><trkpt lat="14.52296560676235" lon="120.98380467952111"><ele>4.6</ele><time>2026-03-29T12:49:00.001Z</time></trkpt><trkpt lat="14.522973971586541" lon="120.9838996684326"><ele>3.0</ele><time>2026-03-29T12:49:01.001Z</time></trkpt><trkpt lat="14.522982674181872" lon="120.98399455703334"><ele>3.0</ele><time>2026-03-29T12:49:02.001Z</time></trkpt><trkpt lat="14.522991115568162" lon="120.98408897724175"><ele>3.0</ele><time>2026-03-29T12:49:03.001Z</time></trkpt><trkpt lat="14.522997089294531" lon="120.98418702224988"><ele>3.0</ele><time>2026-03-29T12:49:04.001Z</time></trkpt><trkpt lat="14.523002336459404" lon="120.9842776682376"><ele>3.0</ele><time>2026-03-29T12:49:05.001Z</time></trkpt><trkpt lat="14.52300872349872" lon="120.9843578396959"><ele>3.0</ele><time>2026-03-29T12:49:06.001Z</time></trkpt><trkpt lat="14.52301672170956" lon="120.98444486438774"><ele>3.0</ele><time>2026-03-29T12:49:07.001Z</time></trkpt><trkpt lat="14.523024694626049" lon="120.98453087636571"><ele>3.0</ele><time>2026-03-29T12:49:08.001Z</time></trkpt><trkpt lat="14.52303440305909" lon="120.98462929493502"><ele>3.0</ele><time>2026-03-29T12:49:09.001Z</time></trkpt><trkpt lat="14.523045092889411" lon="120.98472109794162"><ele>3.0</ele><time>2026-03-29T12:49:10.001Z</time></trkpt><trkpt lat="14.523066640214823" lon="120.98481898303679"><ele>3.0</ele><time>2026-03-29T12:49:11.001Z</time></trkpt><trkpt lat="14.523127893288223" lon="120.98493620243977"><ele>3.0</ele><time>2026-03-29T12:49:12.001Z</time></trkpt><trkpt lat="14.523110075092553" lon="120.98501884501864"><ele>2.9999999999999996</ele><time>2026-03-29T12:49:13.001Z</time></trkpt><trkpt lat="14.523123239755604" lon="120.98508710029644"><ele>3.0</ele><time>2026-03-29T12:49:14.001Z</time></trkpt><trkpt lat="14.5231315638655" lon="120.98515456131445"><ele>3.0</ele><time>2026-03-29T12:49:15.001Z</time></trkpt><trkpt lat="14.523141310356076" lon="120.98523732519413"><ele>3.0</ele><time>2026-03-29T12:49:17.001Z</time></trkpt><trkpt lat="14.523140505018004" lon="120.98531087716037"><ele>3.0</ele><time>2026-03-29T12:49:20.001Z</time></trkpt><trkpt lat="14.523117175397662" lon="120.98537745629288"><ele>2.9999999999999996</ele><time>2026-03-29T12:49:26.001Z</time></trkpt><trkpt lat="14.523061843400555" lon="120.98541910010138"><ele>3.0</ele><time>2026-03-29T12:49:29.001Z</time></trkpt><trkpt lat="14.522969780720253" lon="120.98543953334782"><ele>2.4</ele><time>2026-03-29T12:49:31.001Z</time></trkpt><trkpt lat="14.522852701910349" lon="120.98544421410259"><ele>1.7999999999999998</ele><time>2026-03-29T12:49:33.001Z</time></trkpt><trkpt lat="14.522774475885171" lon="120.98543192739996"><ele>1.2</ele><time>2026-03-29T12:49:34.001Z</time></trkpt><trkpt lat="14.52266631325784" lon="120.98535414250001"><ele>0.6</ele><time>2026-03-29T12:49:36.001Z</time></trkpt><trkpt lat="14.52259836904712" lon="120.98533425642013"><ele>0.0</ele><time>2026-03-29T12:49:37.001Z</time></trkpt><trkpt lat="14.522564309197689" lon="120.98527669534973"><ele>0.0</ele><time>2026-03-29T12:49:38.001Z</time></trkpt><trkpt lat="14.522499271343124" lon="120.98523968849169"><ele>0.0</ele><time>2026-03-29T12:49:39.001Z</time></trkpt><trkpt lat="14.522430072011513" lon="120.98521750039896"><ele>0.0</ele><time>2026-03-29T12:49:40.001Z</time></trkpt><trkpt lat="14.522306465044537" lon="120.98520921094268"><ele>0.0</ele><time>2026-03-29T12:49:42.001Z</time></trkpt><trkpt lat="14.522184117598796" lon="120.98526778182513"><ele>0.0</ele><time>2026-03-29T12:49:44.001Z</time></trkpt><trkpt lat="14.522122433411749" lon="120.98532284619178"><ele>0.0</ele><time>2026-03-29T12:49:46.001Z</time></trkpt><trkpt lat="14.522077598325373" lon="120.98539481952852"><ele>0.0</ele><time>2026-03-29T12:49:48.001Z</time></trkpt><trkpt lat="14.522054152984218" lon="120.98549048346531"><ele>0.0</ele><time>2026-03-29T12:49:50.001Z</time></trkpt><trkpt lat="14.522051287693943" lon="120.98557756722339"><ele>0.0</ele><time>2026-03-29T12:49:52.001Z</time></trkpt><trkpt lat="14.522084807473531" lon="120.98569151007295"><ele>0.0</ele><time>2026-03-29T12:49:54.001Z</time></trkpt><trkpt lat="14.522120341909746" lon="120.98574851819961"><ele>0.0</ele><time>2026-03-29T12:49:55.001Z</time></trkpt><trkpt lat="14.522167669932163" lon="120.98579811677507"><ele>0.0</ele><time>2026-03-29T12:49:56.001Z</time></trkpt><trkpt lat="14.52223484684021" lon="120.98584195380295"><ele>0.0</ele><time>2026-03-29T12:49:57.001Z</time></trkpt><trkpt lat="14.522314713070573" lon="120.98586739566053"><ele>0.0</ele><time>2026-03-29T12:49:58.001Z</time></trkpt><trkpt lat="14.522395417868506" lon="120.9858723180185"><ele>0.0</ele><time>2026-03-29T12:49:59.001Z</time></trkpt><trkpt lat="14.522483220915445" lon="120.9858530221906"><ele>0.0</ele><time>2026-03-29T12:50:00.001Z</time></trkpt><trkpt lat="14.522562547704123" lon="120.98581239353345"><ele>0.0</ele><time>2026-03-29T12:50:01.001Z</time></trkpt><trkpt lat="14.522628563798852" lon="120.98578031975563"><ele>0.0</ele><time>2026-03-29T12:50:02.001Z</time></trkpt><trkpt lat="14.522676814756888" lon="120.98570326377616"><ele>0.0</ele><time>2026-03-29T12:50:03.001Z</time></trkpt><trkpt lat="14.522752478797182" lon="120.9856787878844"><ele>0.0</ele><time>2026-03-29T12:50:04.001Z</time></trkpt><trkpt lat="14.522824330151094" lon="120.98565648675383"><ele>0.0</ele><time>2026-03-29T12:50:05.001Z</time></trkpt><trkpt lat="14.522899948771133" lon="120.98563910099253"><ele>0.0</ele><time>2026-03-29T12:50:06.001Z</time></trkpt><trkpt lat="14.522982588264549" lon="120.98562827851983"><ele>0.0</ele><time>2026-03-29T12:50:07.001Z</time></trkpt><trkpt lat="14.52306795623313" lon="120.9856161759835"><ele>0.6</ele><time>2026-03-29T12:50:08.001Z</time></trkpt><trkpt lat="14.523160605616651" lon="120.98560733546273"><ele>1.2</ele><time>2026-03-29T12:50:09.001Z</time></trkpt><trkpt lat="14.523253118415381" lon="120.98559679466481"><ele>1.7999999999999998</ele><time>2026-03-29T12:50:10.001Z</time></trkpt><trkpt lat="14.52334887624031" lon="120.98558548754117"><ele>2.4</ele><time>2026-03-29T12:50:11.001Z</time></trkpt><trkpt lat="14.523451297617186" lon="120.98557600331327"><ele>3.0</ele><time>2026-03-29T12:50:12.001Z</time></trkpt><trkpt lat="14.52354805282712" lon="120.98556413680708"><ele>3.0</ele><time>2026-03-29T12:50:13.001Z</time></trkpt><trkpt lat="14.523651659225658" lon="120.98555311892558"><ele>3.0</ele><time>2026-03-29T12:50:14.001Z</time></trkpt><trkpt lat="14.523755790891313" lon="120.98554231418666"><ele>3.0</ele><time>2026-03-29T12:50:15.001Z</time></trkpt><trkpt lat="14.523861876220241" lon="120.98553079492584"><ele>3.0</ele><time>2026-03-29T12:50:16.001Z</time></trkpt><trkpt lat="14.52396856925756" lon="120.98551897109"><ele>3.0</ele><time>2026-03-29T12:50:17.001Z</time></trkpt><trkpt lat="14.524077699490697" lon="120.98550666908092"><ele>2.8</ele><time>2026-03-29T12:50:18.001Z</time></trkpt><trkpt lat="14.524183596873538" lon="120.98549460708206"><ele>2.5999999999999996</ele><time>2026-03-29T12:50:19.001Z</time></trkpt><trkpt lat="14.524288012736767" lon="120.98548028623303"><ele>2.4000000000000004</ele><time>2026-03-29T12:50:20.001Z</time></trkpt><trkpt lat="14.52438141401249" lon="120.98546460498446"><ele>2.2</ele><time>2026-03-29T12:50:21.001Z</time></trkpt><trkpt lat="14.524472428365554" lon="120.98544517044041"><ele>2.0</ele><time>2026-03-29T12:50:22.001Z</time></trkpt><trkpt lat="14.524564299829246" lon="120.98544254537137"><ele>1.4999999999999998</ele><time>2026-03-29T12:50:23.001Z</time></trkpt><trkpt lat="14.52464541521749" lon="120.98540135200228"><ele>1.0</ele><time>2026-03-29T12:50:24.001Z</time></trkpt><trkpt lat="14.524732238517919" lon="120.98538368459856"><ele>0.5</ele><time>2026-03-29T12:50:25.001Z</time></trkpt><trkpt lat="14.524813113191362" lon="120.985364268072"><ele>0.0</ele><time>2026-03-29T12:50:26.001Z</time></trkpt><trkpt lat="14.52489489365933" lon="120.98534798293572"><ele>-0.49999999999999994</ele><time>2026-03-29T12:50:27.001Z</time></trkpt><trkpt lat="14.52497981111054" lon="120.98533765114301"><ele>-1.0</ele><time>2026-03-29T12:50:28.001Z</time></trkpt><trkpt lat="14.525067722062106" lon="120.98532544914698"><ele>-1.0</ele><time>2026-03-29T12:50:29.001Z</time></trkpt><trkpt lat="14.525163504826661" lon="120.98531505385432"><ele>-1.0</ele><time>2026-03-29T12:50:30.001Z</time></trkpt><trkpt lat="14.525261728120007" lon="120.98530511883106"><ele>-1.0</ele><time>2026-03-29T12:50:31.001Z</time></trkpt><trkpt lat="14.525366277545487" lon="120.98529439367967"><ele>-1.0</ele><time>2026-03-29T12:50:32.001Z</time></trkpt><trkpt lat="14.525474733043385" lon="120.98528394471157"><ele>-1.0</ele><time>2026-03-29T12:50:33.001Z</time></trkpt><trkpt lat="14.5255843782265" lon="120.98527140860062"><ele>-0.25</ele><time>2026-03-29T12:50:34.001Z</time></trkpt><trkpt lat="14.52569965882814" lon="120.9852590261072"><ele>0.5</ele><time>2026-03-29T12:50:35.001Z</time></trkpt><trkpt lat="14.525817298378975" lon="120.98524659589077"><ele>1.25</ele><time>2026-03-29T12:50:36.001Z</time></trkpt><trkpt lat="14.525936096057722" lon="120.98523201628079"><ele>2.0</ele><time>2026-03-29T12:50:37.001Z</time></trkpt><trkpt lat="14.526051781072313" lon="120.98521986974544"><ele>2.0</ele><time>2026-03-29T12:50:38.001Z</time></trkpt><trkpt lat="14.526166689301036" lon="120.98520279416317"><ele>2.0</ele><time>2026-03-29T12:50:39.001Z</time></trkpt><trkpt lat="14.526282474426674" lon="120.98519061105546"><ele>2.0</ele><time>2026-03-29T12:50:40.001Z</time></trkpt><trkpt lat="14.526401732712676" lon="120.9851787202578"><ele>2.0</ele><time>2026-03-29T12:50:41.001Z</time></trkpt><trkpt lat="14.526521729749144" lon="120.98516650012887"><ele>1.5</ele><time>2026-03-29T12:50:42.001Z</time></trkpt><trkpt lat="14.526643612739093" lon="120.98515438663912"><ele>1.0</ele><time>2026-03-29T12:50:43.001Z</time></trkpt><trkpt lat="14.526761707210754" lon="120.98513853870647"><ele>0.5</ele><time>2026-03-29T12:50:44.001Z</time></trkpt><trkpt lat="14.52688363564515" lon="120.98512349758626"><ele>0.0</ele><time>2026-03-29T12:50:45.001Z</time></trkpt><trkpt lat="14.527000862975221" lon="120.98510672893751"><ele>0.25</ele><time>2026-03-29T12:50:46.001Z</time></trkpt><trkpt lat="14.527117994468622" lon="120.98509247943883"><ele>0.5</ele><time>2026-03-29T12:50:47.001Z</time></trkpt><trkpt lat="14.52723419799299" lon="120.98507867563812"><ele>0.75</ele><time>2026-03-29T12:50:48.001Z</time></trkpt><trkpt lat="14.527349911974925" lon="120.98506542907144"><ele>1.0</ele><time>2026-03-29T12:50:49.001Z</time></trkpt><trkpt lat="14.527462108226489" lon="120.98505347529546"><ele>1.0</ele><time>2026-03-29T12:50:50.001Z</time></trkpt><trkpt lat="14.527569683377845" lon="120.98504205516443"><ele>1.0</ele><time>2026-03-29T12:50:51.001Z</time></trkpt><trkpt lat="14.52767265970548" lon="120.98503488000583"><ele>1.0</ele><time>2026-03-29T12:50:52.001Z</time></trkpt><trkpt lat="14.527764794622097" lon="120.98502162687757"><ele>1.0</ele><time>2026-03-29T12:50:53.001Z</time></trkpt><trkpt lat="14.527845336262148" lon="120.98501184745206"><ele>1.0</ele><time>2026-03-29T12:50:54.001Z</time></trkpt><trkpt lat="14.52791807449314" lon="120.9850064992949"><ele>1.6666666666666665</ele><time>2026-03-29T12:50:55.001Z</time></trkpt><trkpt lat="14.527982771486025" lon="120.98499864917497"><ele>2.3333333333333335</ele><time>2026-03-29T12:50:56.001Z</time></trkpt><trkpt lat="14.528083488172491" lon="120.9849827605884"><ele>3.0</ele><time>2026-03-29T12:50:58.001Z</time></trkpt><trkpt lat="14.528175264601447" lon="120.9849736594613"><ele>3.666666666666667</ele><time>2026-03-29T12:51:00.001Z</time></trkpt><trkpt lat="14.528239571587894" lon="120.98496314262293"><ele>4.333333333333334</ele><time>2026-03-29T12:51:11.001Z</time></trkpt><trkpt lat="14.528357836091159" lon="120.98494689918296"><ele>5.0</ele><time>2026-03-29T12:52:12.001Z</time></trkpt><trkpt lat="14.528460662884154" lon="120.98493540782859"><ele>5.0</ele><time>2026-03-29T12:52:14.001Z</time></trkpt><trkpt lat="14.528584181210816" lon="120.98492586388709"><ele>5.0</ele><time>2026-03-29T12:52:16.001Z</time></trkpt><trkpt lat="14.52865465747978" lon="120.9849205415595"><ele>5.0</ele><time>2026-03-29T12:52:17.001Z</time></trkpt><trkpt lat="14.528730243505496" lon="120.98491395064796"><ele>5.0</ele><time>2026-03-29T12:52:18.001Z</time></trkpt><trkpt lat="14.528813496702938" lon="120.98490779542144"><ele>5.0</ele><time>2026-03-29T12:52:19.001Z</time></trkpt><trkpt lat="14.528900615285693" lon="120.98489987306434"><ele>5.0</ele><time>2026-03-29T12:52:20.001Z</time></trkpt><trkpt lat="14.528992884055834" lon="120.98489194101194"><ele>5.2</ele><time>2026-03-29T12:52:21.001Z</time></trkpt><trkpt lat="14.529078553185128" lon="120.98488706017606"><ele>5.4</ele><time>2026-03-29T12:52:22.001Z</time></trkpt><trkpt lat="14.529161728153936" lon="120.98488079426004"><ele>5.6</ele><time>2026-03-29T12:52:23.001Z</time></trkpt><trkpt lat="14.529252034681347" lon="120.98487448617504"><ele>5.8</ele><time>2026-03-29T12:52:24.001Z</time></trkpt><trkpt lat="14.529345475903689" lon="120.98486953585474"><ele>6.0</ele><time>2026-03-29T12:52:25.001Z</time></trkpt><trkpt lat="14.529442141549659" lon="120.98486565634225"><ele>6.0</ele><time>2026-03-29T12:52:26.001Z</time></trkpt><trkpt lat="14.529544091414307" lon="120.98485944190983"><ele>6.0</ele><time>2026-03-29T12:52:27.001Z</time></trkpt><trkpt lat="14.529647941341127" lon="120.9848550351764"><ele>6.0</ele><time>2026-03-29T12:52:28.001Z</time></trkpt><trkpt lat="14.529752691338793" lon="120.98485135650051"><ele>6.0</ele><time>2026-03-29T12:52:29.001Z</time></trkpt><trkpt lat="14.529855273983042" lon="120.98484651572461"><ele>6.0</ele><time>2026-03-29T12:52:30.001Z</time></trkpt><trkpt lat="14.529959594830768" lon="120.98484296237474"><ele>6.4</ele><time>2026-03-29T12:52:31.001Z</time></trkpt><trkpt lat="14.530057849058256" lon="120.98481814026577"><ele>6.8</ele><time>2026-03-29T12:52:32.001Z</time></trkpt><trkpt lat="14.53015560827102" lon="120.98480929544652"><ele>7.200000000000001</ele><time>2026-03-29T12:52:33.001Z</time></trkpt><trkpt lat="14.530250364004313" lon="120.98480101793591"><ele>7.6000000000000005</ele><time>2026-03-29T12:52:34.001Z</time></trkpt><trkpt lat="14.530344459776803" lon="120.98479279807496"><ele>8.0</ele><time>2026-03-29T12:52:35.001Z</time></trkpt><trkpt lat="14.530438912570158" lon="120.98478484981274"><ele>7.166666666666666</ele><time>2026-03-29T12:52:36.001Z</time></trkpt><trkpt lat="14.530534422958985" lon="120.98477612443877"><ele>6.333333333333333</ele><time>2026-03-29T12:52:37.001Z</time></trkpt><trkpt lat="14.530624908720311" lon="120.98476785809369"><ele>5.5</ele><time>2026-03-29T12:52:38.001Z</time></trkpt><trkpt lat="14.53070330908641" lon="120.98476110217233"><ele>4.666666666666666</ele><time>2026-03-29T12:52:39.001Z</time></trkpt><trkpt lat="14.530778962171073" lon="120.98475555474491"><ele>3.833333333333333</ele><time>2026-03-29T12:52:40.001Z</time></trkpt><trkpt lat="14.530853379883277" lon="120.98474980855724"><ele>3.0</ele><time>2026-03-29T12:52:41.001Z</time></trkpt><trkpt lat="14.53091808028839" lon="120.9847447697537"><ele>3.0</ele><time>2026-03-29T12:52:42.001Z</time></trkpt><trkpt lat="14.531021105309042" lon="120.98473850854259"><ele>3.0</ele><time>2026-03-29T12:52:44.001Z</time></trkpt><trkpt lat="14.531087508666936" lon="120.98473439481262"><ele>3.0</ele><time>2026-03-29T12:52:46Z</time></trkpt><trkpt lat="14.531150439765845" lon="120.98473050320794"><ele>3.0</ele><time>2026-03-29T12:52:53Z</time></trkpt><trkpt lat="14.531243929721818" lon="120.98472527734855"><ele>3.0</ele><time>2026-03-29T12:54:18Z</time></trkpt><trkpt lat="14.531338653064447" lon="120.98471941080976"><ele>3.0</ele><time>2026-03-29T12:54:20Z</time></trkpt><trkpt lat="14.531460482096959" lon="120.98471726785363"><ele>3.833333333333333</ele><time>2026-03-29T12:54:22Z</time></trkpt><trkpt lat="14.531533157657382" lon="120.9847084430678"><ele>4.666666666666666</ele><time>2026-03-29T12:54:23Z</time></trkpt><trkpt lat="14.531617339510943" lon="120.98469848915734"><ele>5.5</ele><time>2026-03-29T12:54:24Z</time></trkpt><trkpt lat="14.531703901138227" lon="120.98469138840903"><ele>6.333333333333333</ele><time>2026-03-29T12:54:25Z</time></trkpt><trkpt lat="14.531794956387952" lon="120.9846805784309"><ele>7.166666666666666</ele><time>2026-03-29T12:54:26Z</time></trkpt><trkpt lat="14.531888966055359" lon="120.9846708525114"><ele>8.0</ele><time>2026-03-29T12:54:27Z</time></trkpt><trkpt lat="14.531991337327165" lon="120.98465902375283"><ele>6.800000000000001</ele><time>2026-03-29T12:54:28Z</time></trkpt><trkpt lat="14.532090461545707" lon="120.98464965622017"><ele>5.6000000000000005</ele><time>2026-03-29T12:54:29Z</time></trkpt><trkpt lat="14.532193049875485" lon="120.98464040875716"><ele>4.4</ele><time>2026-03-29T12:54:30Z</time></trkpt><trkpt lat="14.53229845085379" lon="120.98463200518702"><ele>3.2</ele><time>2026-03-29T12:54:31Z</time></trkpt><trkpt lat="14.532405435986984" lon="120.98462269424479"><ele>2.0</ele><time>2026-03-29T12:54:32Z</time></trkpt><trkpt lat="14.532509988492375" lon="120.98461443693235"><ele>1.9999999999999998</ele><time>2026-03-29T12:54:33Z</time></trkpt><trkpt lat="14.532616866435832" lon="120.9846054891397"><ele>2.0</ele><time>2026-03-29T12:54:34Z</time></trkpt><trkpt lat="14.532719487586304" lon="120.98459852669355"><ele>2.0</ele><time>2026-03-29T12:54:35Z</time></trkpt><trkpt lat="14.532808037476176" lon="120.98459168305958"><ele>2.0</ele><time>2026-03-29T12:54:36Z</time></trkpt><trkpt lat="14.532886130508507" lon="120.98458639904995"><ele>1.9999999999999998</ele><time>2026-03-29T12:54:37Z</time></trkpt><trkpt lat="14.532953277611785" lon="120.98458266610422"><ele>2.0</ele><time>2026-03-29T12:54:38Z</time></trkpt><trkpt lat="14.533056298924746" lon="120.98458047969342"><ele>2.333333333333333</ele><time>2026-03-29T12:54:40Z</time></trkpt><trkpt lat="14.533148256370472" lon="120.98457332917029"><ele>2.6666666666666665</ele><time>2026-03-29T12:54:42.001Z</time></trkpt><trkpt lat="14.53327018088353" lon="120.98455198847256"><ele>3.0</ele><time>2026-03-29T12:54:44.001Z</time></trkpt><trkpt lat="14.53333986398504" lon="120.98454309436953"><ele>3.333333333333333</ele><time>2026-03-29T12:54:45.001Z</time></trkpt><trkpt lat="14.533413895261013" lon="120.98453517159527"><ele>3.6666666666666665</ele><time>2026-03-29T12:54:46.001Z</time></trkpt><trkpt lat="14.533494199034692" lon="120.98452950496497"><ele>4.0</ele><time>2026-03-29T12:54:47.001Z</time></trkpt><trkpt lat="14.533578441891114" lon="120.9845222074483"><ele>3.9999999999999996</ele><time>2026-03-29T12:54:48.001Z</time></trkpt><trkpt lat="14.533667554103706" lon="120.98451449289396"><ele>4.0</ele><time>2026-03-29T12:54:49.001Z</time></trkpt><trkpt lat="14.533759975972075" lon="120.98450644602548"><ele>4.0</ele><time>2026-03-29T12:54:50.001Z</time></trkpt><trkpt lat="14.533851694246707" lon="120.98449984609033"><ele>4.0</ele><time>2026-03-29T12:54:51.001Z</time></trkpt><trkpt lat="14.53393534982941" lon="120.98449156991255"><ele>3.9999999999999996</ele><time>2026-03-29T12:54:52Z</time></trkpt><trkpt lat="14.534021088219944" lon="120.9844876034194"><ele>4.0</ele><time>2026-03-29T12:54:53Z</time></trkpt><trkpt lat="14.534105391858185" lon="120.98448436478087"><ele>3.833333333333333</ele><time>2026-03-29T12:54:54Z</time></trkpt><trkpt lat="14.534185721050697" lon="120.98448149233506"><ele>3.6666666666666665</ele><time>2026-03-29T12:54:55Z</time></trkpt><trkpt lat="14.534264657955761" lon="120.98447666959886"><ele>3.5</ele><time>2026-03-29T12:54:56Z</time></trkpt><trkpt lat="14.534330272144112" lon="120.98447177588243"><ele>3.333333333333333</ele><time>2026-03-29T12:54:57Z</time></trkpt><trkpt lat="14.534448136746732" lon="120.98446977251245"><ele>3.1666666666666665</ele><time>2026-03-29T12:54:59Z</time></trkpt><trkpt lat="14.534527991470586" lon="120.98447223913318"><ele>3.0</ele><time>2026-03-29T12:55:01Z</time></trkpt><trkpt lat="14.534601688970929" lon="120.98447386830475"><ele>3.4</ele><time>2026-03-29T12:55:03Z</time></trkpt><trkpt lat="14.53466798622144" lon="120.98453050301059"><ele>3.8</ele><time>2026-03-29T12:55:05Z</time></trkpt><trkpt lat="14.534713641176488" lon="120.98464132616256"><ele>4.2</ele><time>2026-03-29T12:55:07Z</time></trkpt><trkpt lat="14.534798166811063" lon="120.98474108881335"><ele>4.6</ele><time>2026-03-29T12:55:09Z</time></trkpt><trkpt lat="14.534853621142187" lon="120.98478608610769"><ele>5.0</ele><time>2026-03-29T12:55:10Z</time></trkpt><trkpt lat="14.534917089957036" lon="120.98482474104833"><ele>5.0</ele><time>2026-03-29T12:55:11Z</time></trkpt><trkpt lat="14.534988190190415" lon="120.98485837910958"><ele>5.0</ele><time>2026-03-29T12:55:12Z</time></trkpt><trkpt lat="14.535062353761049" lon="120.98488609341412"><ele>5.0</ele><time>2026-03-29T12:55:13Z</time></trkpt><trkpt lat="14.535138813309727" lon="120.98491452691951"><ele>5.0</ele><time>2026-03-29T12:55:14Z</time></trkpt><trkpt lat="14.535208515590675" lon="120.98495099708485"><ele>5.0</ele><time>2026-03-29T12:55:15Z</time></trkpt><trkpt lat="14.535269556613205" lon="120.98499988414784"><ele>5.0</ele><time>2026-03-29T12:55:16Z</time></trkpt><trkpt lat="14.535319627763984" lon="120.98506106961615"><ele>4.833333333333334</ele><time>2026-03-29T12:55:17Z</time></trkpt><trkpt lat="14.535338510686298" lon="120.98513770528587"><ele>4.666666666666667</ele><time>2026-03-29T12:55:18Z</time></trkpt><trkpt lat="14.535358178602252" lon="120.9852235093777"><ele>4.5</ele><time>2026-03-29T12:55:19Z</time></trkpt><trkpt lat="14.535377801477873" lon="120.9853111231761"><ele>4.333333333333333</ele><time>2026-03-29T12:55:20Z</time></trkpt><trkpt lat="14.535397299913479" lon="120.98539883661466"><ele>4.166666666666666</ele><time>2026-03-29T12:55:21Z</time></trkpt><trkpt lat="14.535415968167067" lon="120.98548281562373"><ele>4.0</ele><time>2026-03-29T12:55:22Z</time></trkpt><trkpt lat="14.53543562441074" lon="120.98557123957042"><ele>4.0</ele><time>2026-03-29T12:55:23Z</time></trkpt><trkpt lat="14.535456779015835" lon="120.98566455701273"><ele>4.0</ele><time>2026-03-29T12:55:24Z</time></trkpt><trkpt lat="14.53547813230852" lon="120.98575918321572"><ele>4.0</ele><time>2026-03-29T12:55:25Z</time></trkpt><trkpt lat="14.535500473671854" lon="120.98585818803446"><ele>4.0</ele><time>2026-03-29T12:55:26Z</time></trkpt><trkpt lat="14.535525046964901" lon="120.98596708355295"><ele>4.0</ele><time>2026-03-29T12:55:27Z</time></trkpt><trkpt lat="14.535550148690225" lon="120.9860783207734"><ele>4.0</ele><time>2026-03-29T12:55:28Z</time></trkpt><trkpt lat="14.535574314325713" lon="120.98618540980287"><ele>4.0</ele><time>2026-03-29T12:55:29Z</time></trkpt><trkpt lat="14.535599088688159" lon="120.98629519635476"><ele>4.0</ele><time>2026-03-29T12:55:30Z</time></trkpt><trkpt lat="14.535623891091873" lon="120.98640493019626"><ele>4.0</ele><time>2026-03-29T12:55:31Z</time></trkpt><trkpt lat="14.535649057430241" lon="120.98651606850697"><ele>4.0</ele><time>2026-03-29T12:55:32Z</time></trkpt><trkpt lat="14.535674572647581" lon="120.98662874751501"><ele>4.4</ele><time>2026-03-29T12:55:33Z</time></trkpt><trkpt lat="14.53569998338043" lon="120.98674135095628"><ele>4.800000000000001</ele><time>2026-03-29T12:55:34Z</time></trkpt><trkpt lat="14.53572498691532" lon="120.98685312029855"><ele>5.199999999999999</ele><time>2026-03-29T12:55:35Z</time></trkpt><trkpt lat="14.535749859631185" lon="120.9869643048432"><ele>5.6</ele><time>2026-03-29T12:55:36Z</time></trkpt><trkpt lat="14.535775260922426" lon="120.98707785219656"><ele>6.0</ele><time>2026-03-29T12:55:37Z</time></trkpt><trkpt lat="14.535800071288067" lon="120.98718875778472"><ele>6.0</ele><time>2026-03-29T12:55:38Z</time></trkpt><trkpt lat="14.535822959528076" lon="120.98729580227952"><ele>6.0</ele><time>2026-03-29T12:55:39Z</time></trkpt><trkpt lat="14.53584497432221" lon="120.98740067677375"><ele>6.0</ele><time>2026-03-29T12:55:40Z</time></trkpt><trkpt lat="14.53586701461777" lon="120.9875000244035"><ele>6.0</ele><time>2026-03-29T12:55:41Z</time></trkpt><trkpt lat="14.535889666126312" lon="120.98759211662772"><ele>6.0</ele><time>2026-03-29T12:55:42Z</time></trkpt><trkpt lat="14.535911593246556" lon="120.98768177246673"><ele>5.166666666666667</ele><time>2026-03-29T12:55:43Z</time></trkpt><trkpt lat="14.535930880863601" lon="120.98776675816184"><ele>4.333333333333333</ele><time>2026-03-29T12:55:44Z</time></trkpt><trkpt lat="14.535948758292355" lon="120.98784607795605"><ele>3.5</ele><time>2026-03-29T12:55:45Z</time></trkpt><trkpt lat="14.535964924854614" lon="120.98791780686851"><ele>2.6666666666666665</ele><time>2026-03-29T12:55:46Z</time></trkpt><trkpt lat="14.535979576123651" lon="120.98798281261611"><ele>1.8333333333333333</ele><time>2026-03-29T12:55:47Z</time></trkpt><trkpt lat="14.536002138808934" lon="120.98808292013786"><ele>1.0</ele><time>2026-03-29T12:55:49Z</time></trkpt><trkpt lat="14.536019762668474" lon="120.9881611146078"><ele>1.0</ele><time>2026-03-29T12:55:52Z</time></trkpt><trkpt lat="14.536046736789066" lon="120.98828122224506"><ele>1.0</ele><time>2026-03-29T12:57:30Z</time></trkpt><trkpt lat="14.53606519472927" lon="120.9883633432485"><ele>1.0</ele><time>2026-03-29T12:57:32Z</time></trkpt><trkpt lat="14.53608780652012" lon="120.98846434085911"><ele>1.0</ele><time>2026-03-29T12:57:34Z</time></trkpt><trkpt lat="14.536110948930537" lon="120.98856770854914"><ele>1.0</ele><time>2026-03-29T12:57:36Z</time></trkpt><trkpt lat="14.536134336093363" lon="120.98867216945084"><ele>1.25</ele><time>2026-03-29T12:57:38Z</time></trkpt><trkpt lat="14.536158296860252" lon="120.98877793983924"><ele>1.5</ele><time>2026-03-29T12:57:40Z</time></trkpt><trkpt lat="14.536183520396973" lon="120.98888687498837"><ele>1.75</ele><time>2026-03-29T12:57:42Z</time></trkpt><trkpt lat="14.536206496064567" lon="120.98898633753736"><ele>2.0</ele><time>2026-03-29T12:57:44Z</time></trkpt><trkpt lat="14.536447834056165" lon="120.98899975111757"><ele>1.9999999999999998</ele><time>2026-03-29T12:57:46Z</time></trkpt><trkpt lat="14.536517963294278" lon="120.98900363503884"><ele>2.0</ele><time>2026-03-29T12:57:47Z</time></trkpt><trkpt lat="14.536592370312585" lon="120.98900107645945"><ele>2.0</ele><time>2026-03-29T12:57:48Z</time></trkpt><trkpt lat="14.536670744391142" lon="120.98899503776818"><ele>2.0</ele><time>2026-03-29T12:57:49Z</time></trkpt><trkpt lat="14.536754501524504" lon="120.98898478822197"><ele>1.9999999999999998</ele><time>2026-03-29T12:57:50Z</time></trkpt><trkpt lat="14.536842253713393" lon="120.98897535678002"><ele>2.0</ele><time>2026-03-29T12:57:51Z</time></trkpt><trkpt lat="14.536934889219872" lon="120.98896201976554"><ele>2.0</ele><time>2026-03-29T12:57:52Z</time></trkpt><trkpt lat="14.537031928281424" lon="120.98894530927473"><ele>2.0</ele><time>2026-03-29T12:57:53Z</time></trkpt><trkpt lat="14.537129929195919" lon="120.98893171120196"><ele>2.0</ele><time>2026-03-29T12:57:54Z</time></trkpt><trkpt lat="14.53722987055931" lon="120.98891710290619"><ele>2.0</ele><time>2026-03-29T12:57:55Z</time></trkpt><trkpt lat="14.537327947927045" lon="120.98890300382689"><ele>2.0</ele><time>2026-03-29T12:57:56Z</time></trkpt><trkpt lat="14.537429161137483" lon="120.98888909918263"><ele>1.8</ele><time>2026-03-29T12:57:57Z</time></trkpt><trkpt lat="14.537531867138224" lon="120.98887420311696"><ele>1.6</ele><time>2026-03-29T12:57:58Z</time></trkpt><trkpt lat="14.537634344807168" lon="120.98886010694682"><ele>1.4000000000000001</ele><time>2026-03-29T12:57:59Z</time></trkpt><trkpt lat="14.537736844912125" lon="120.98884547937935"><ele>1.2000000000000002</ele><time>2026-03-29T12:58:00Z</time></trkpt><trkpt lat="14.537843454636345" lon="120.98882988558803"><ele>1.0</ele><time>2026-03-29T12:58:01Z</time></trkpt><trkpt lat="14.537952064534252" lon="120.98881445589086"><ele>1.8</ele><time>2026-03-29T12:58:02Z</time></trkpt><trkpt lat="14.538058830219452" lon="120.98879665532587"><ele>2.6</ele><time>2026-03-29T12:58:03Z</time></trkpt><trkpt lat="14.53816847789689" lon="120.98877744353894"><ele>3.4</ele><time>2026-03-29T12:58:04Z</time></trkpt><trkpt lat="14.53827550306156" lon="120.98876136049475"><ele>4.2</ele><time>2026-03-29T12:58:05Z</time></trkpt><trkpt lat="14.538383952433067" lon="120.98874515586714"><ele>5.0</ele><time>2026-03-29T12:58:06Z</time></trkpt><trkpt lat="14.538494584273892" lon="120.9887279887346"><ele>5.0</ele><time>2026-03-29T12:58:07Z</time></trkpt><trkpt lat="14.538605606454565" lon="120.98871138776862"><ele>5.0</ele><time>2026-03-29T12:58:08Z</time></trkpt><trkpt lat="14.538716974226778" lon="120.98869489851683"><ele>5.0</ele><time>2026-03-29T12:58:09Z</time></trkpt><trkpt lat="14.538829475409965" lon="120.98867737397732"><ele>5.0</ele><time>2026-03-29T12:58:10Z</time></trkpt><trkpt lat="14.538941548587667" lon="120.98866117767648"><ele>4.8</ele><time>2026-03-29T12:58:11Z</time></trkpt><trkpt lat="14.539053739716444" lon="120.98864340679631"><ele>4.6</ele><time>2026-03-29T12:58:12Z</time></trkpt><trkpt lat="14.539166859221144" lon="120.98862658452511"><ele>4.4</ele><time>2026-03-29T12:58:13Z</time></trkpt><trkpt lat="14.539276034793108" lon="120.98861084176164"><ele>4.2</ele><time>2026-03-29T12:58:14Z</time></trkpt><trkpt lat="14.53938088790608" lon="120.98859440279439"><ele>4.0</ele><time>2026-03-29T12:58:15Z</time></trkpt><trkpt lat="14.539486734120961" lon="120.98857827734183"><ele>3.2</ele><time>2026-03-29T12:58:16Z</time></trkpt><trkpt lat="14.539591932260974" lon="120.98856133511298"><ele>2.4000000000000004</ele><time>2026-03-29T12:58:17Z</time></trkpt><trkpt lat="14.539694842435221" lon="120.98854530482792"><ele>1.6</ele><time>2026-03-29T12:58:18Z</time></trkpt><trkpt lat="14.539793240664936" lon="120.98852982780535"><ele>0.8</ele><time>2026-03-29T12:58:19Z</time></trkpt><trkpt lat="14.539884117801424" lon="120.98851697060202"><ele>0.0</ele><time>2026-03-29T12:58:20Z</time></trkpt><trkpt lat="14.53996761692021" lon="120.98850429818631"><ele>0.0</ele><time>2026-03-29T12:58:21Z</time></trkpt><trkpt lat="14.540041040935735" lon="120.98849220979946"><ele>0.0</ele><time>2026-03-29T12:58:22Z</time></trkpt><trkpt lat="14.540104372096657" lon="120.98848094852868"><ele>0.0</ele><time>2026-03-29T12:58:23Z</time></trkpt><trkpt lat="14.540215195377746" lon="120.98846490014282"><ele>0.0</ele><time>2026-03-29T12:58:25Z</time></trkpt><trkpt lat="14.540337828385121" lon="120.98844817058023"><ele>0.0</ele><time>2026-03-29T12:58:27Z</time></trkpt><trkpt lat="14.5404091221215" lon="120.98843909848704"><ele>0.0</ele><time>2026-03-29T12:58:28Z</time></trkpt><trkpt lat="14.540486070036023" lon="120.98842761417148"><ele>0.3333333333333333</ele><time>2026-03-29T12:58:29Z</time></trkpt><trkpt lat="14.54056864762023" lon="120.9884138651055"><ele>0.6666666666666666</ele><time>2026-03-29T12:58:30Z</time></trkpt><trkpt lat="14.54065402631567" lon="120.98840237174713"><ele>1.0</ele><time>2026-03-29T12:58:31Z</time></trkpt><trkpt lat="14.540746076071333" lon="120.98838885979181"><ele>1.3333333333333333</ele><time>2026-03-29T12:58:32Z</time></trkpt><trkpt lat="14.540838996718623" lon="120.98837622048045"><ele>1.6666666666666665</ele><time>2026-03-29T12:58:33Z</time></trkpt><trkpt lat="14.540930155727333" lon="120.9883630053893"><ele>2.0</ele><time>2026-03-29T12:58:34Z</time></trkpt><trkpt lat="14.541024482071377" lon="120.98834851549846"><ele>2.4000000000000004</ele><time>2026-03-29T12:58:35Z</time></trkpt><trkpt lat="14.541122234839001" lon="120.98833398227546"><ele>2.8000000000000003</ele><time>2026-03-29T12:58:36Z</time></trkpt><trkpt lat="14.541215935848957" lon="120.98831845175731"><ele>3.2</ele><time>2026-03-29T12:58:37Z</time></trkpt><trkpt lat="14.541309923887281" lon="120.98830368442393"><ele>3.6</ele><time>2026-03-29T12:58:38Z</time></trkpt><trkpt lat="14.54141026756296" lon="120.98828888077065"><ele>4.0</ele><time>2026-03-29T12:58:39Z</time></trkpt><trkpt lat="14.541509435030248" lon="120.98827417171461"><ele>4.2</ele><time>2026-03-29T12:58:40Z</time></trkpt><trkpt lat="14.541605729994817" lon="120.98826039260372"><ele>4.4</ele><time>2026-03-29T12:58:41Z</time></trkpt><trkpt lat="14.541701143720797" lon="120.98824545704687"><ele>4.6</ele><time>2026-03-29T12:58:42Z</time></trkpt><trkpt lat="14.541795021377778" lon="120.98823179365695"><ele>4.8</ele><time>2026-03-29T12:58:43Z</time></trkpt><trkpt lat="14.541886095521027" lon="120.98821726807735"><ele>5.0</ele><time>2026-03-29T12:58:44Z</time></trkpt><trkpt lat="14.541976638927697" lon="120.98820273494832"><ele>4.166666666666667</ele><time>2026-03-29T12:58:45Z</time></trkpt><trkpt lat="14.542059519902352" lon="120.98818953819313"><ele>3.3333333333333335</ele><time>2026-03-29T12:58:46Z</time></trkpt><trkpt lat="14.542134790855744" lon="120.98817687736633"><ele>2.5</ele><time>2026-03-29T12:58:47Z</time></trkpt><trkpt lat="14.542202106398838" lon="120.9881662810787"><ele>1.6666666666666667</ele><time>2026-03-29T12:58:48Z</time></trkpt><trkpt lat="14.542267576754146" lon="120.98815590093757"><ele>0.8333333333333334</ele><time>2026-03-29T12:58:49Z</time></trkpt><trkpt lat="14.542368253079486" lon="120.98813948941552"><ele>0.0</ele><time>2026-03-29T12:58:51Z</time></trkpt><trkpt lat="14.542446590716809" lon="120.98813014921963"><ele>0.0</ele><time>2026-03-29T12:58:53Z</time></trkpt><trkpt lat="14.54251564236437" lon="120.98812007642"><ele>0.0</ele><time>2026-03-29T12:58:55Z</time></trkpt><trkpt lat="14.542597155108204" lon="120.98810583153576"><ele>0.0</ele><time>2026-03-29T12:58:58Z</time></trkpt><trkpt lat="14.542683482283737" lon="120.98808608289026"><ele>0.0</ele><time>2026-03-29T12:59:26Z</time></trkpt><trkpt lat="14.542757776349292" lon="120.98807494336822"><ele>0.0</ele><time>2026-03-29T12:59:28Z</time></trkpt><trkpt lat="14.542863985046795" lon="120.98805759551259"><ele>0.0</ele><time>2026-03-29T12:59:30Z</time></trkpt><trkpt lat="14.542983542035307" lon="120.988038439922"><ele>0.6666666666666666</ele><time>2026-03-29T12:59:32Z</time></trkpt><trkpt lat="14.543049577279879" lon="120.9880280693092"><ele>1.3333333333333333</ele><time>2026-03-29T12:59:33Z</time></trkpt><trkpt lat="14.543119840118027" lon="120.98801720542711"><ele>2.0</ele><time>2026-03-29T12:59:34Z</time></trkpt><trkpt lat="14.543193599350952" lon="120.98800457498734"><ele>2.6666666666666665</ele><time>2026-03-29T12:59:35Z</time></trkpt><trkpt lat="14.543273221342789" lon="120.9879914042094"><ele>3.333333333333333</ele><time>2026-03-29T12:59:36Z</time></trkpt><trkpt lat="14.543360066324249" lon="120.98797798838113"><ele>4.0</ele><time>2026-03-29T12:59:37Z</time></trkpt><trkpt lat="14.543448037736662" lon="120.98796305158429"><ele>4.0</ele><time>2026-03-29T12:59:38Z</time></trkpt><trkpt lat="14.543539673746723" lon="120.98794590946305"><ele>4.0</ele><time>2026-03-29T12:59:39Z</time></trkpt><trkpt lat="14.543635950983491" lon="120.98792828353174"><ele>4.0</ele><time>2026-03-29T12:59:40Z</time></trkpt><trkpt lat="14.543727814070035" lon="120.98791177106669"><ele>4.0</ele><time>2026-03-29T12:59:41Z</time></trkpt><trkpt lat="14.543822454870597" lon="120.98790801446538"><ele>4.0</ele><time>2026-03-29T12:59:42Z</time></trkpt><trkpt lat="14.543909518942563" lon="120.98786678166506"><ele>4.2</ele><time>2026-03-29T12:59:43Z</time></trkpt><trkpt lat="14.544007102454284" lon="120.9878592500096"><ele>4.4</ele><time>2026-03-29T12:59:44Z</time></trkpt><trkpt lat="14.544102414406431" lon="120.98783534177792"><ele>4.6</ele><time>2026-03-29T12:59:45Z</time></trkpt><trkpt lat="14.544200171075756" lon="120.98781045694025"><ele>4.8</ele><time>2026-03-29T12:59:46Z</time></trkpt><trkpt lat="14.544299414908858" lon="120.98778519352933"><ele>5.0</ele><time>2026-03-29T12:59:47Z</time></trkpt><trkpt lat="14.544397985815898" lon="120.98776008631856"><ele>5.0</ele><time>2026-03-29T12:59:48Z</time></trkpt><trkpt lat="14.544488995264754" lon="120.98772026867853"><ele>5.0</ele><time>2026-03-29T12:59:49Z</time></trkpt><trkpt lat="14.544583013385168" lon="120.98769730539976"><ele>5.0</ele><time>2026-03-29T12:59:50Z</time></trkpt><trkpt lat="14.544666191893608" lon="120.98767696491078"><ele>5.0</ele><time>2026-03-29T12:59:51Z</time></trkpt><trkpt lat="14.544740694765194" lon="120.98765946717121"><ele>5.0</ele><time>2026-03-29T12:59:52Z</time></trkpt><trkpt lat="14.544816946841873" lon="120.98764178031563"><ele>5.0</ele><time>2026-03-29T12:59:53Z</time></trkpt><trkpt lat="14.544894059433794" lon="120.98762298489274"><ele>5.0</ele><time>2026-03-29T12:59:54Z</time></trkpt><trkpt lat="14.544974863926134" lon="120.98760077983196"><ele>5.0</ele><time>2026-03-29T12:59:55Z</time></trkpt><trkpt lat="14.54506359226607" lon="120.98757846575771"><ele>5.0</ele><time>2026-03-29T12:59:56Z</time></trkpt><trkpt lat="14.545158055149749" lon="120.98755309638638"><ele>5.0</ele><time>2026-03-29T12:59:57Z</time></trkpt><trkpt lat="14.545256281839128" lon="120.98752844324557"><ele>5.0</ele><time>2026-03-29T12:59:58Z</time></trkpt><trkpt lat="14.545357167694203" lon="120.98750272725147"><ele>5.6</ele><time>2026-03-29T12:59:59Z</time></trkpt><trkpt lat="14.545461544894646" lon="120.98747876453152"><ele>6.2</ele><time>2026-03-29T13:00:00Z</time></trkpt><trkpt lat="14.54556830389082" lon="120.9874588688805"><ele>6.800000000000001</ele><time>2026-03-29T13:00:01Z</time></trkpt><trkpt lat="14.545676030309117" lon="120.98743038344942"><ele>7.4</ele><time>2026-03-29T13:00:02Z</time></trkpt><trkpt lat="14.545786137239954" lon="120.98740702575303"><ele>8.0</ele><time>2026-03-29T13:00:03Z</time></trkpt><trkpt lat="14.545896964290659" lon="120.9873764517948"><ele>8.0</ele><time>2026-03-29T13:00:04Z</time></trkpt><trkpt lat="14.546001642930058" lon="120.98734128503716"><ele>8.0</ele><time>2026-03-29T13:00:05Z</time></trkpt><trkpt lat="14.54611074697705" lon="120.98731906897017"><ele>8.0</ele><time>2026-03-29T13:00:06Z</time></trkpt><trkpt lat="14.546219264110675" lon="120.987293568112"><ele>8.0</ele><time>2026-03-29T13:00:07Z</time></trkpt><trkpt lat="14.54632781192927" lon="120.98726662157176"><ele>8.0</ele><time>2026-03-29T13:00:08.001Z</time></trkpt><trkpt lat="14.546438030507204" lon="120.98723714043955"><ele>7.25</ele><time>2026-03-29T13:00:09.001Z</time></trkpt><trkpt lat="14.546550714468603" lon="120.98721048431356"><ele>6.5</ele><time>2026-03-29T13:00:10.001Z</time></trkpt><trkpt lat="14.546662848901551" lon="120.98718339998608"><ele>5.75</ele><time>2026-03-29T13:00:11.001Z</time></trkpt><trkpt lat="14.546773953605427" lon="120.98715540519481"><ele>5.0</ele><time>2026-03-29T13:00:12.001Z</time></trkpt><trkpt lat="14.54688349752565" lon="120.98712621552046"><ele>5.0</ele><time>2026-03-29T13:00:13.001Z</time></trkpt><trkpt lat="14.546990669116298" lon="120.9870999113523"><ele>5.0</ele><time>2026-03-29T13:00:14.001Z</time></trkpt><trkpt lat="14.547096543483235" lon="120.98707463439557"><ele>5.0</ele><time>2026-03-29T13:00:15.001Z</time></trkpt><trkpt lat="14.547199002878575" lon="120.98705127585185"><ele>5.0</ele><time>2026-03-29T13:00:16.001Z</time></trkpt><trkpt lat="14.547297703212962" lon="120.9870306055025"><ele>5.0</ele><time>2026-03-29T13:00:17.001Z</time></trkpt><trkpt lat="14.54739115608445" lon="120.98700878218884"><ele>5.0</ele><time>2026-03-29T13:00:18.001Z</time></trkpt><trkpt lat="14.547481185810831" lon="120.98698851149251"><ele>5.0</ele><time>2026-03-29T13:00:19.001Z</time></trkpt><trkpt lat="14.547570338260634" lon="120.98696517083147"><ele>5.0</ele><time>2026-03-29T13:00:20.001Z</time></trkpt><trkpt lat="14.547662113633303" lon="120.98694823261614"><ele>5.0</ele><time>2026-03-29T13:00:21.001Z</time></trkpt><trkpt lat="14.547756552336605" lon="120.98693191356172"><ele>5.0</ele><time>2026-03-29T13:00:22.001Z</time></trkpt><trkpt lat="14.547850521844461" lon="120.98690493291119"><ele>6.4</ele><time>2026-03-29T13:00:23.001Z</time></trkpt><trkpt lat="14.547944839750203" lon="120.98688394633251"><ele>7.8</ele><time>2026-03-29T13:00:24.001Z</time></trkpt><trkpt lat="14.548041480438258" lon="120.98686256047301"><ele>9.2</ele><time>2026-03-29T13:00:25.001Z</time></trkpt><trkpt lat="14.548138376820136" lon="120.98684209884036"><ele>10.6</ele><time>2026-03-29T13:00:26.001Z</time></trkpt><trkpt lat="14.54823424457387" lon="120.98682137755134"><ele>12.0</ele><time>2026-03-29T13:00:27.001Z</time></trkpt><trkpt lat="14.548325255841684" lon="120.9868008656998"><ele>12.0</ele><time>2026-03-29T13:00:28.001Z</time></trkpt><trkpt lat="14.548414330058804" lon="120.98677967949813"><ele>12.0</ele><time>2026-03-29T13:00:29.001Z</time></trkpt><trkpt lat="14.548501160808247" lon="120.98675853736098"><ele>12.0</ele><time>2026-03-29T13:00:30.001Z</time></trkpt><trkpt lat="14.548587136662121" lon="120.98673982066914"><ele>12.0</ele><time>2026-03-29T13:00:31.001Z</time></trkpt><trkpt lat="14.54866835200444" lon="120.98672085747822"><ele>12.0</ele><time>2026-03-29T13:00:32.001Z</time></trkpt><trkpt lat="14.548745488345093" lon="120.98670442121747"><ele>12.0</ele><time>2026-03-29T13:00:33.001Z</time></trkpt><trkpt lat="14.548823203070167" lon="120.986686649182"><ele>11.166666666666666</ele><time>2026-03-29T13:00:34.001Z</time></trkpt><trkpt lat="14.54889902890262" lon="120.98666931979514"><ele>10.333333333333334</ele><time>2026-03-29T13:00:35.001Z</time></trkpt><trkpt lat="14.548976554768535" lon="120.98665387016796"><ele>9.5</ele><time>2026-03-29T13:00:36.001Z</time></trkpt><trkpt lat="14.549059934334576" lon="120.98663467215998"><ele>8.666666666666668</ele><time>2026-03-29T13:00:37.001Z</time></trkpt><trkpt lat="14.549144785704119" lon="120.98661654182877"><ele>7.833333333333334</ele><time>2026-03-29T13:00:38.001Z</time></trkpt><trkpt lat="14.549225305252728" lon="120.98659732517"><ele>7.0</ele><time>2026-03-29T13:00:39.001Z</time></trkpt><trkpt lat="14.549300611221417" lon="120.98657553370992"><ele>7.000000000000001</ele><time>2026-03-29T13:00:40.001Z</time></trkpt><trkpt lat="14.549378003070593" lon="120.98655161159913"><ele>7.0</ele><time>2026-03-29T13:00:41.001Z</time></trkpt><trkpt lat="14.549462321442771" lon="120.98653771904621"><ele>7.0</ele><time>2026-03-29T13:00:42.001Z</time></trkpt><trkpt lat="14.54954290762322" lon="120.98651851818846"><ele>7.0</ele><time>2026-03-29T13:00:43.001Z</time></trkpt><trkpt lat="14.549622558548881" lon="120.9865007983473"><ele>7.000000000000001</ele><time>2026-03-29T13:00:44.001Z</time></trkpt><trkpt lat="14.549698110505046" lon="120.98648503555214"><ele>7.0</ele><time>2026-03-29T13:00:45.001Z</time></trkpt><trkpt lat="14.549774521478353" lon="120.98646855823007"><ele>7.000000000000001</ele><time>2026-03-29T13:00:46.001Z</time></trkpt><trkpt lat="14.549846353767581" lon="120.98643611823653"><ele>7.0</ele><time>2026-03-29T13:00:47.001Z</time></trkpt><trkpt lat="14.54992144803269" lon="120.98641654585249"><ele>7.0</ele><time>2026-03-29T13:00:48.001Z</time></trkpt><trkpt lat="14.549997033863658" lon="120.98641392362386"><ele>7.0</ele><time>2026-03-29T13:00:49.001Z</time></trkpt><trkpt lat="14.550065118454313" lon="120.98637909994527"><ele>7.000000000000001</ele><time>2026-03-29T13:00:50.001Z</time></trkpt><trkpt lat="14.550134185195338" lon="120.98636109855147"><ele>7.0</ele><time>2026-03-29T13:00:51.001Z</time></trkpt><trkpt lat="14.550203736940217" lon="120.98634297075331"><ele>7.0</ele><time>2026-03-29T13:00:52.001Z</time></trkpt><trkpt lat="14.550273441334834" lon="120.98632480316871"><ele>7.0</ele><time>2026-03-29T13:00:53.001Z</time></trkpt><trkpt lat="14.550341686478186" lon="120.9863067921565"><ele>7.0</ele><time>2026-03-29T13:00:54.001Z</time></trkpt><trkpt lat="14.55040893087223" lon="120.98628893691804"><ele>7.0</ele><time>2026-03-29T13:00:55.001Z</time></trkpt><trkpt lat="14.550474676795329" lon="120.98627147956363"><ele>7.0</ele><time>2026-03-29T13:00:56.001Z</time></trkpt><trkpt lat="14.550536158761629" lon="120.98625515440862"><ele>7.0</ele><time>2026-03-29T13:00:57.001Z</time></trkpt><trkpt lat="14.5505983548285" lon="120.98623863964374"><ele>7.0</ele><time>2026-03-29T13:00:58.001Z</time></trkpt><trkpt lat="14.550714814070869" lon="120.98620785846495"><ele>7.000000000000001</ele><time>2026-03-29T13:01:00.001Z</time></trkpt><trkpt lat="14.550811328404553" lon="120.9861825043673"><ele>7.0</ele><time>2026-03-29T13:01:02.001Z</time></trkpt><trkpt lat="14.55090156028902" lon="120.9861588006542"><ele>7.0</ele><time>2026-03-29T13:01:04.001Z</time></trkpt><trkpt lat="14.55099445176886" lon="120.98614157528915"><ele>7.0</ele><time>2026-03-29T13:01:06.001Z</time></trkpt><trkpt lat="14.551078738125634" lon="120.98612836998606"><ele>7.000000000000001</ele><time>2026-03-29T13:01:08.001Z</time></trkpt><trkpt lat="14.551153810998319" lon="120.98612664874504"><ele>7.0</ele><time>2026-03-29T13:01:10.001Z</time></trkpt><trkpt lat="14.551225119427533" lon="120.98613803840895"><ele>6.6</ele><time>2026-03-29T13:01:12.001Z</time></trkpt><trkpt lat="14.551287655420726" lon="120.98615995703565"><ele>6.199999999999999</ele><time>2026-03-29T13:01:14.001Z</time></trkpt><trkpt lat="14.551357891209026" lon="120.9861897268912"><ele>5.8</ele><time>2026-03-29T13:01:16.001Z</time></trkpt><trkpt lat="14.551361412353996" lon="120.98628660082377"><ele>5.4</ele><time>2026-03-29T13:01:17.001Z</time></trkpt><trkpt lat="14.551402808814068" lon="120.98639441047867"><ele>5.0</ele><time>2026-03-29T13:01:19.001Z</time></trkpt><trkpt lat="14.551442006972866" lon="120.98652657825"><ele>5.0</ele><time>2026-03-29T13:01:21.001Z</time></trkpt><trkpt lat="14.551464036848483" lon="120.98659747064858"><ele>5.0</ele><time>2026-03-29T13:01:22.001Z</time></trkpt><trkpt lat="14.551487432798742" lon="120.98667324998428"><ele>5.0</ele><time>2026-03-29T13:01:23.001Z</time></trkpt><trkpt lat="14.551512175461886" lon="120.98675290308285"><ele>5.0</ele><time>2026-03-29T13:01:24.001Z</time></trkpt><trkpt lat="14.551538214902457" lon="120.98683578245458"><ele>5.0</ele><time>2026-03-29T13:01:25.001Z</time></trkpt><trkpt lat="14.551563461299823" lon="120.98692092274139"><ele>5.0</ele><time>2026-03-29T13:01:26.001Z</time></trkpt><trkpt lat="14.551587660090151" lon="120.98700324048933"><ele>5.285714285714286</ele><time>2026-03-29T13:01:27.001Z</time></trkpt><trkpt lat="14.55161484167884" lon="120.98707926326072"><ele>5.571428571428571</ele><time>2026-03-29T13:01:28.001Z</time></trkpt><trkpt lat="14.551642640206596" lon="120.98715042182896"><ele>5.857142857142858</ele><time>2026-03-29T13:01:29.001Z</time></trkpt><trkpt lat="14.551666400409344" lon="120.98721583040147"><ele>6.142857142857142</ele><time>2026-03-29T13:01:30.001Z</time></trkpt><trkpt lat="14.55168883049467" lon="120.98728005702255"><ele>6.428571428571429</ele><time>2026-03-29T13:01:31.001Z</time></trkpt><trkpt lat="14.551706929498042" lon="120.98734585624676"><ele>6.714285714285714</ele><time>2026-03-29T13:01:32.001Z</time></trkpt><trkpt lat="14.551724059429732" lon="120.98741673181654"><ele>7.0</ele><time>2026-03-29T13:01:33.001Z</time></trkpt><trkpt lat="14.551738585420013" lon="120.98749087494998"><ele>7.6</ele><time>2026-03-29T13:01:34.001Z</time></trkpt><trkpt lat="14.551749006464938" lon="120.98755970162092"><ele>8.2</ele><time>2026-03-29T13:01:35.001Z</time></trkpt><trkpt lat="14.551764522751059" lon="120.9876757936531"><ele>8.8</ele><time>2026-03-29T13:01:37.001Z</time></trkpt><trkpt lat="14.551759769179762" lon="120.9877994067587"><ele>9.4</ele><time>2026-03-29T13:01:39.001Z</time></trkpt><trkpt lat="14.551771125534598" lon="120.98789542847865"><ele>10.0</ele><time>2026-03-29T13:01:41.001Z</time></trkpt><trkpt lat="14.551778523365279" lon="120.98800269383268"><ele>10.0</ele><time>2026-03-29T13:01:43.001Z</time></trkpt><trkpt lat="14.551788134625673" lon="120.988101605456"><ele>10.0</ele><time>2026-03-29T13:01:45.001Z</time></trkpt><trkpt lat="14.551795113601681" lon="120.98817022807134"><ele>10.0</ele><time>2026-03-29T13:01:47.001Z</time></trkpt><trkpt lat="14.551800886737777" lon="120.98824150351302"><ele>10.0</ele><time>2026-03-29T13:01:49.001Z</time></trkpt><trkpt lat="14.551811585105083" lon="120.98831166089053"><ele>10.0</ele><time>2026-03-29T13:01:53.001Z</time></trkpt><trkpt lat="14.551821643168518" lon="120.98838383133483"><ele>10.0</ele><time>2026-03-29T13:01:56.001Z</time></trkpt><trkpt lat="14.55183964286602" lon="120.98846853785048"><ele>9.166666666666668</ele><time>2026-03-29T13:01:58.001Z</time></trkpt><trkpt lat="14.55187323916359" lon="120.9885754246771"><ele>8.333333333333334</ele><time>2026-03-29T13:02:00.001Z</time></trkpt><trkpt lat="14.551911494052353" lon="120.98869445838623"><ele>7.5</ele><time>2026-03-29T13:02:02.001Z</time></trkpt><trkpt lat="14.551933292272675" lon="120.98875982236088"><ele>6.666666666666667</ele><time>2026-03-29T13:02:03.001Z</time></trkpt><trkpt lat="14.551954143335884" lon="120.98882585828115"><ele>5.833333333333334</ele><time>2026-03-29T13:02:04.001Z</time></trkpt><trkpt lat="14.551974782940952" lon="120.98889213865239"><ele>5.0</ele><time>2026-03-29T13:02:05.001Z</time></trkpt><trkpt lat="14.551994715657713" lon="120.98895861801552"><ele>5.0</ele><time>2026-03-29T13:02:06.001Z</time></trkpt><trkpt lat="14.552013874703439" lon="120.98902203450933"><ele>5.0</ele><time>2026-03-29T13:02:07.001Z</time></trkpt><trkpt lat="14.552051767544176" lon="120.9891423135873"><ele>5.0</ele><time>2026-03-29T13:02:09.001Z</time></trkpt><trkpt lat="14.552086914490133" lon="120.98925773964511"><ele>5.0</ele><time>2026-03-29T13:02:11.001Z</time></trkpt><trkpt lat="14.552118808101179" lon="120.98936534524768"><ele>5.0</ele><time>2026-03-29T13:02:13.001Z</time></trkpt><trkpt lat="14.552150025980088" lon="120.98946599699171"><ele>6.0</ele><time>2026-03-29T13:02:15.001Z</time></trkpt><trkpt lat="14.552174414693807" lon="120.98955813955749"><ele>7.0</ele><time>2026-03-29T13:02:17.001Z</time></trkpt><trkpt lat="14.552199693207548" lon="120.98964818227957"><ele>8.0</ele><time>2026-03-29T13:02:19.001Z</time></trkpt><trkpt lat="14.552235193386036" lon="120.98975055339615"><ele>9.0</ele><time>2026-03-29T13:02:21.001Z</time></trkpt><trkpt lat="14.552270415517242" lon="120.98986555041631"><ele>10.0</ele><time>2026-03-29T13:02:23.001Z</time></trkpt><trkpt lat="14.5523099232159" lon="120.98999738447145"><ele>10.0</ele><time>2026-03-29T13:02:25.001Z</time></trkpt><trkpt lat="14.552332244444075" lon="120.99007121661359"><ele>10.0</ele><time>2026-03-29T13:02:26.001Z</time></trkpt><trkpt lat="14.552353657766657" lon="120.99014713336335"><ele>10.0</ele><time>2026-03-29T13:02:27.001Z</time></trkpt><trkpt lat="14.552377857910773" lon="120.99022730411318"><ele>10.0</ele><time>2026-03-29T13:02:28.001Z</time></trkpt><trkpt lat="14.552401326338366" lon="120.99031111580732"><ele>10.0</ele><time>2026-03-29T13:02:29.001Z</time></trkpt><trkpt lat="14.552427510971652" lon="120.99039997141715"><ele>10.0</ele><time>2026-03-29T13:02:30.001Z</time></trkpt><trkpt lat="14.552471136990057" lon="120.99049009578364"><ele>10.0</ele><time>2026-03-29T13:02:31.001Z</time></trkpt><trkpt lat="14.552486072475679" lon="120.99058451253443"><ele>10.0</ele><time>2026-03-29T13:02:32.001Z</time></trkpt><trkpt lat="14.552516283185136" lon="120.99068440988397"><ele>10.0</ele><time>2026-03-29T13:02:33.001Z</time></trkpt><trkpt lat="14.552545888313936" lon="120.99077946382073"><ele>10.0</ele><time>2026-03-29T13:02:34.001Z</time></trkpt><trkpt lat="14.552577003160375" lon="120.99087773623964"><ele>10.0</ele><time>2026-03-29T13:02:35.001Z</time></trkpt><trkpt lat="14.552609017294472" lon="120.99097882867913"><ele>10.0</ele><time>2026-03-29T13:02:36.001Z</time></trkpt><trkpt lat="14.552641976894876" lon="120.991078481193"><ele>10.0</ele><time>2026-03-29T13:02:37.001Z</time></trkpt><trkpt lat="14.552673745823409" lon="120.99117880001452"><ele>10.0</ele><time>2026-03-29T13:02:38.001Z</time></trkpt><trkpt lat="14.552705318501488" lon="120.99127869758672"><ele>10.0</ele><time>2026-03-29T13:02:39.001Z</time></trkpt><trkpt lat="14.552735285711755" lon="120.99137752313791"><ele>10.0</ele><time>2026-03-29T13:02:40.001Z</time></trkpt><trkpt lat="14.55276453131642" lon="120.99147505796857"><ele>10.0</ele><time>2026-03-29T13:02:41.001Z</time></trkpt><trkpt lat="14.552793657407078" lon="120.99157368584054"><ele>10.0</ele><time>2026-03-29T13:02:42.001Z</time></trkpt><trkpt lat="14.552824457368262" lon="120.99167042172269"><ele>10.0</ele><time>2026-03-29T13:02:43.001Z</time></trkpt><trkpt lat="14.552855852560477" lon="120.99176635452021"><ele>10.0</ele><time>2026-03-29T13:02:44.001Z</time></trkpt><trkpt lat="14.552885659063017" lon="120.99186298497908"><ele>10.0</ele><time>2026-03-29T13:02:45.001Z</time></trkpt><trkpt lat="14.552916589284694" lon="120.99196262679173"><ele>10.0</ele><time>2026-03-29T13:02:46.001Z</time></trkpt><trkpt lat="14.55294517172479" lon="120.99206153570384"><ele>10.0</ele><time>2026-03-29T13:02:47.001Z</time></trkpt><trkpt lat="14.552973062683611" lon="120.9921589379207"><ele>10.0</ele><time>2026-03-29T13:02:48.001Z</time></trkpt><trkpt lat="14.553000983119327" lon="120.99225536465877"><ele>10.0</ele><time>2026-03-29T13:02:49.001Z</time></trkpt><trkpt lat="14.553030101319372" lon="120.99235476680039"><ele>10.0</ele><time>2026-03-29T13:02:50.001Z</time></trkpt><trkpt lat="14.553056598957374" lon="120.99245206107824"><ele>9.833333333333334</ele><time>2026-03-29T13:02:51.001Z</time></trkpt><trkpt lat="14.553081033088944" lon="120.99254749026566"><ele>9.666666666666668</ele><time>2026-03-29T13:02:52.001Z</time></trkpt><trkpt lat="14.553104675608706" lon="120.99263776269548"><ele>9.5</ele><time>2026-03-29T13:02:53.001Z</time></trkpt><trkpt lat="14.553125960925982" lon="120.9927217643596"><ele>9.333333333333334</ele><time>2026-03-29T13:02:54.001Z</time></trkpt><trkpt lat="14.553145046619935" lon="120.99280409841964"><ele>9.166666666666666</ele><time>2026-03-29T13:02:55.001Z</time></trkpt><trkpt lat="14.553162230958987" lon="120.99288718841002"><ele>9.0</ele><time>2026-03-29T13:02:56.001Z</time></trkpt><trkpt lat="14.553179173190307" lon="120.99297164950414"><ele>9.0</ele><time>2026-03-29T13:02:57.001Z</time></trkpt><trkpt lat="14.553196009185307" lon="120.99305348747743"><ele>9.0</ele><time>2026-03-29T13:02:58.001Z</time></trkpt><trkpt lat="14.553211772427307" lon="120.99313306119187"><ele>9.0</ele><time>2026-03-29T13:02:59.001Z</time></trkpt><trkpt lat="14.553224896273132" lon="120.99320710236353"><ele>9.0</ele><time>2026-03-29T13:03:00.001Z</time></trkpt><trkpt lat="14.55323738554068" lon="120.99328813061149"><ele>9.0</ele><time>2026-03-29T13:03:01.001Z</time></trkpt><trkpt lat="14.553249101229046" lon="120.99337026989242"><ele>9.0</ele><time>2026-03-29T13:03:02.001Z</time></trkpt><trkpt lat="14.553259492245333" lon="120.99344849046108"><ele>9.166666666666666</ele><time>2026-03-29T13:03:03.001Z</time></trkpt><trkpt lat="14.553268558801859" lon="120.99352519615735"><ele>9.333333333333334</ele><time>2026-03-29T13:03:04.001Z</time></trkpt><trkpt lat="14.55327627137741" lon="120.99359654548192"><ele>9.5</ele><time>2026-03-29T13:03:05.001Z</time></trkpt><trkpt lat="14.553284621472049" lon="120.993667331446"><ele>9.666666666666668</ele><time>2026-03-29T13:03:06.001Z</time></trkpt><trkpt lat="14.553290847069588" lon="120.9937345769742"><ele>9.833333333333334</ele><time>2026-03-29T13:03:07.001Z</time></trkpt><trkpt lat="14.55329756049969" lon="120.99380127948167"><ele>10.0</ele><time>2026-03-29T13:03:08.001Z</time></trkpt><trkpt lat="14.553307498935895" lon="120.99392023099334"><ele>10.0</ele><time>2026-03-29T13:03:10.001Z</time></trkpt><trkpt lat="14.55332067867538" lon="120.99403096380192"><ele>10.0</ele><time>2026-03-29T13:03:12.001Z</time></trkpt><trkpt lat="14.553335809621677" lon="120.99413525292633"><ele>10.0</ele><time>2026-03-29T13:03:14.001Z</time></trkpt><trkpt lat="14.55335339852018" lon="120.9942359283042"><ele>10.0</ele><time>2026-03-29T13:03:16.001Z</time></trkpt><trkpt lat="14.553368507099606" lon="120.99434373772404"><ele>10.0</ele><time>2026-03-29T13:03:18.001Z</time></trkpt><trkpt lat="14.553378929007597" lon="120.9944701375284"><ele>9.5</ele><time>2026-03-29T13:03:20.001Z</time></trkpt><trkpt lat="14.553389443592033" lon="120.99453697749331"><ele>9.0</ele><time>2026-03-29T13:03:21.001Z</time></trkpt><trkpt lat="14.553399717307146" lon="120.99460628415734"><ele>8.5</ele><time>2026-03-29T13:03:22.001Z</time></trkpt><trkpt lat="14.553408396209187" lon="120.99468360402199"><ele>8.0</ele><time>2026-03-29T13:03:23.001Z</time></trkpt><trkpt lat="14.553416312705126" lon="120.99475867251945"><ele>7.500000000000001</ele><time>2026-03-29T13:03:24.001Z</time></trkpt><trkpt lat="14.553423371667092" lon="120.99484332263012"><ele>7.0</ele><time>2026-03-29T13:03:25.001Z</time></trkpt><trkpt lat="14.553436038309693" lon="120.99493385909201"><ele>8.0</ele><time>2026-03-29T13:03:26.001Z</time></trkpt><trkpt lat="14.55345052763002" lon="120.99502446950524"><ele>9.0</ele><time>2026-03-29T13:03:27.001Z</time></trkpt><trkpt lat="14.553462660236656" lon="120.99511037836805"><ele>10.0</ele><time>2026-03-29T13:03:28.001Z</time></trkpt><trkpt lat="14.553475818341328" lon="120.99519098406135"><ele>11.0</ele><time>2026-03-29T13:03:29.001Z</time></trkpt><trkpt lat="14.553491833411101" lon="120.99527791228438"><ele>11.999999999999998</ele><time>2026-03-29T13:03:30.001Z</time></trkpt><trkpt lat="14.55350758519129" lon="120.99536143253114"><ele>13.0</ele><time>2026-03-29T13:03:31.001Z</time></trkpt><trkpt lat="14.553524913143741" lon="120.99544730272585"><ele>12.999999999999998</ele><time>2026-03-29T13:03:32.001Z</time></trkpt><trkpt lat="14.55354143863492" lon="120.99553201099187"><ele>13.0</ele><time>2026-03-29T13:03:33.001Z</time></trkpt><trkpt lat="14.553557540713921" lon="120.9956146714333"><ele>13.0</ele><time>2026-03-29T13:03:34.001Z</time></trkpt><trkpt lat="14.553577045998733" lon="120.99569938742552"><ele>13.0</ele><time>2026-03-29T13:03:35.001Z</time></trkpt><trkpt lat="14.553593634062638" lon="120.99578146660043"><ele>12.999999999999998</ele><time>2026-03-29T13:03:36.001Z</time></trkpt><trkpt lat="14.553610546893932" lon="120.99586238940027"><ele>13.0</ele><time>2026-03-29T13:03:37.001Z</time></trkpt><trkpt lat="14.553627345576096" lon="120.99593450880614"><ele>13.499999999999998</ele><time>2026-03-29T13:03:38.001Z</time></trkpt><trkpt lat="14.55364465849301" lon="120.99600217272992"><ele>14.0</ele><time>2026-03-29T13:03:39.001Z</time></trkpt><trkpt lat="14.553662154619145" lon="120.99606729638865"><ele>14.5</ele><time>2026-03-29T13:03:40.001Z</time></trkpt><trkpt lat="14.553688264301964" lon="120.99617699818597"><ele>15.0</ele><time>2026-03-29T13:03:42.001Z</time></trkpt><trkpt lat="14.553714873346445" lon="120.99628267146996"><ele>15.499999999999998</ele><time>2026-03-29T13:03:44.001Z</time></trkpt><trkpt lat="14.553740635674457" lon="120.996372716965"><ele>16.0</ele><time>2026-03-29T13:03:46.001Z</time></trkpt><trkpt lat="14.55375881284758" lon="120.99644583309914"><ele>14.600000000000001</ele><time>2026-03-29T13:03:48.001Z</time></trkpt><trkpt lat="14.553782210919168" lon="120.9965427937066"><ele>13.200000000000001</ele><time>2026-03-29T13:03:50.001Z</time></trkpt><trkpt lat="14.553811474379248" lon="120.99665860637079"><ele>11.8</ele><time>2026-03-29T13:03:52.001Z</time></trkpt><trkpt lat="14.55384218685471" lon="120.996780153155"><ele>10.4</ele><time>2026-03-29T13:03:54.001Z</time></trkpt><trkpt lat="14.55386847517805" lon="120.99688403935812"><ele>9.0</ele><time>2026-03-29T13:03:56.001Z</time></trkpt><trkpt lat="14.553893700135239" lon="120.99696555483158"><ele>8.4</ele><time>2026-03-29T13:03:58.001Z</time></trkpt><trkpt lat="14.5539197155885" lon="120.99703551476665"><ele>7.800000000000001</ele><time>2026-03-29T13:04:00.001Z</time></trkpt><trkpt lat="14.553948107981974" lon="120.99709373815601"><ele>7.199999999999999</ele><time>2026-03-29T13:04:05.001Z</time></trkpt><trkpt lat="14.554071235916474" lon="120.99716560070341"><ele>6.6</ele><time>2026-03-29T13:05:03.001Z</time></trkpt><trkpt lat="14.554212908827443" lon="120.997214529347"><ele>6.0</ele><time>2026-03-29T13:05:08.001Z</time></trkpt><trkpt lat="14.554278577488141" lon="120.99721098687081"><ele>6.0</ele><time>2026-03-29T13:05:11.001Z</time></trkpt><trkpt lat="14.554370677173182" lon="120.99721116791704"><ele>6.0</ele><time>2026-03-29T13:05:28.001Z</time></trkpt><trkpt lat="14.554442300686963" lon="120.99722550971096"><ele>6.0</ele><time>2026-03-29T13:05:30.001Z</time></trkpt><trkpt lat="14.554616450003037" lon="120.99711716269978"><ele>6.0</ele><time>2026-03-29T13:05:34.001Z</time></trkpt><trkpt lat="14.55469561184374" lon="120.99705809258481"><ele>6.5</ele><time>2026-03-29T13:05:35.001Z</time></trkpt><trkpt lat="14.554774897429255" lon="120.99703544675118"><ele>7.0</ele><time>2026-03-29T13:05:36.001Z</time></trkpt><trkpt lat="14.554857694247719" lon="120.99701651712182"><ele>7.5</ele><time>2026-03-29T13:05:37.001Z</time></trkpt><trkpt lat="14.554927495202135" lon="120.9970011687387"><ele>8.0</ele><time>2026-03-29T13:05:38.001Z</time></trkpt><trkpt lat="14.555003783611376" lon="120.9969848663072"><ele>8.5</ele><time>2026-03-29T13:05:39.001Z</time></trkpt><trkpt lat="14.555068759401284" lon="120.99696862612954"><ele>9.0</ele><time>2026-03-29T13:05:40.001Z</time></trkpt><trkpt lat="14.555196095128412" lon="120.9969452670762"><ele>9.0</ele><time>2026-03-29T13:05:42.001Z</time></trkpt><trkpt lat="14.55528170972828" lon="120.99692372436438"><ele>9.0</ele><time>2026-03-29T13:05:43.001Z</time></trkpt><trkpt lat="14.555349864169537" lon="120.99690836399544"><ele>9.0</ele><time>2026-03-29T13:05:44.001Z</time></trkpt><trkpt lat="14.555458785357004" lon="120.99687661069458"><ele>9.0</ele><time>2026-03-29T13:05:46.001Z</time></trkpt><trkpt lat="14.555546000605505" lon="120.99685187335062"><ele>9.0</ele><time>2026-03-29T13:05:48.001Z</time></trkpt><trkpt lat="14.555647888436487" lon="120.99684419925353"><ele>9.0</ele><time>2026-03-29T13:05:50.001Z</time></trkpt><trkpt lat="14.555739403155528" lon="120.9968429038059"><ele>9.0</ele><time>2026-03-29T13:05:52.001Z</time></trkpt><trkpt lat="14.555818441175084" lon="120.99682247145546"><ele>9.0</ele><time>2026-03-29T13:05:54.001Z</time></trkpt><trkpt lat="14.55588727975762" lon="120.99681884737907"><ele>9.0</ele><time>2026-03-29T13:05:56.001Z</time></trkpt><trkpt lat="14.55594895997667" lon="120.99676348302782"><ele>9.0</ele><time>2026-03-29T13:05:58.001Z</time></trkpt><trkpt lat="14.55601763187604" lon="120.9967454624362"><ele>9.0</ele><time>2026-03-29T13:06:01.001Z</time></trkpt><trkpt lat="14.556087271469014" lon="120.99672574569514"><ele>9.0</ele><time>2026-03-29T13:06:07.001Z</time></trkpt><trkpt lat="14.556151657083827" lon="120.99672440470668"><ele>9.0</ele><time>2026-03-29T13:06:10.001Z</time></trkpt><trkpt lat="14.556244239906897" lon="120.99671031120684"><ele>9.0</ele><time>2026-03-29T13:06:13.001Z</time></trkpt><trkpt lat="14.556326641851534" lon="120.99668834525959"><ele>9.0</ele><time>2026-03-29T13:06:15.001Z</time></trkpt><trkpt lat="14.556387896916448" lon="120.99666124292803"><ele>9.0</ele><time>2026-03-29T13:06:17.001Z</time></trkpt><trkpt lat="14.556478818520038" lon="120.99663326852838"><ele>9.0</ele><time>2026-03-29T13:06:19.001Z</time></trkpt><trkpt lat="14.556579046212708" lon="120.99660551738889"><ele>8.8</ele><time>2026-03-29T13:06:21.001Z</time></trkpt><trkpt lat="14.55668715773828" lon="120.99657900478161"><ele>8.600000000000001</ele><time>2026-03-29T13:06:23.001Z</time></trkpt><trkpt lat="14.556800038496856" lon="120.9965530745968"><ele>8.4</ele><time>2026-03-29T13:06:25.001Z</time></trkpt><trkpt lat="14.556867107359304" lon="120.9965377315621"><ele>8.200000000000001</ele><time>2026-03-29T13:06:26.001Z</time></trkpt><trkpt lat="14.556929325294364" lon="120.9965235236469"><ele>8.0</ele><time>2026-03-29T13:06:27.001Z</time></trkpt><trkpt lat="14.557050086329573" lon="120.99649594707178"><ele>8.5</ele><time>2026-03-29T13:06:29.001Z</time></trkpt><trkpt lat="14.557113207176114" lon="120.99646766192144"><ele>9.0</ele><time>2026-03-29T13:06:30.001Z</time></trkpt><trkpt lat="14.557187446791591" lon="120.99646112769503"><ele>9.5</ele><time>2026-03-29T13:06:31.001Z</time></trkpt><trkpt lat="14.557257069580492" lon="120.99644111352497"><ele>10.0</ele><time>2026-03-29T13:06:32.001Z</time></trkpt><trkpt lat="14.557347642850402" lon="120.99642298400548"><ele>10.5</ele><time>2026-03-29T13:06:33.001Z</time></trkpt><trkpt lat="14.557425681138843" lon="120.99640613086443"><ele>11.0</ele><time>2026-03-29T13:06:34.001Z</time></trkpt><trkpt lat="14.557492684726842" lon="120.99638905322325"><ele>11.0</ele><time>2026-03-29T13:06:35.001Z</time></trkpt><trkpt lat="14.557561003650033" lon="120.99637002961074"><ele>11.0</ele><time>2026-03-29T13:06:36.001Z</time></trkpt><trkpt lat="14.55762917968652" lon="120.99635121276879"><ele>11.0</ele><time>2026-03-29T13:06:37.001Z</time></trkpt><trkpt lat="14.557705602465887" lon="120.99633075673209"><ele>11.0</ele><time>2026-03-29T13:06:38.001Z</time></trkpt><trkpt lat="14.557828061798652" lon="120.99631444192595"><ele>11.0</ele><time>2026-03-29T13:06:40.001Z</time></trkpt><trkpt lat="14.557901016300058" lon="120.99629722284521"><ele>11.0</ele><time>2026-03-29T13:06:41.001Z</time></trkpt><trkpt lat="14.558015505926226" lon="120.99625411604192"><ele>10.5</ele><time>2026-03-29T13:06:43.001Z</time></trkpt><trkpt lat="14.55812961195199" lon="120.99623827100312"><ele>10.0</ele><time>2026-03-29T13:06:45.001Z</time></trkpt><trkpt lat="14.558197858024098" lon="120.99621717590277"><ele>9.5</ele><time>2026-03-29T13:06:48.001Z</time></trkpt><trkpt lat="14.55826446303717" lon="120.9962116571347"><ele>9.0</ele><time>2026-03-29T13:06:55.001Z</time></trkpt><trkpt lat="14.557970318259038" lon="120.99571956526364"><ele>9.0</ele><time>2026-03-29T13:07:13.001Z</time></trkpt><trkpt lat="14.557937417893934" lon="120.99564247539759"><ele>9.0</ele><time>2026-03-29T13:07:15.084Z</time></trkpt><trkpt lat="14.557907834625283" lon="120.99557013742522"><ele>9.0</ele><time>2026-03-29T13:07:17.051Z</time></trkpt><trkpt lat="14.557867870493817" lon="120.99548866196602"><ele>9.0</ele><time>2026-03-29T13:07:20.048Z</time></trkpt><trkpt lat="14.55870852413663" lon="120.99535597880559"><ele>9.0</ele><time>2026-03-29T13:16:48.026Z</time></trkpt><trkpt lat="14.558233758848417" lon="120.99539358677245"><ele>9.0</ele><time>2026-03-29T13:17:03.003Z</time></trkpt><trkpt lat="14.557830410545039" lon="120.99543764594931"><ele>8.0</ele><time>2026-03-29T13:26:19.309Z</time></trkpt></trkseg></trk></gpx>